<?xml version='1.0' encoding='UTF-8'?><gpx version="1.1" creator="JPX - https://github.com/jenetics/jpx" xmlns="http://www.topografix.com/GPX/1/1"><trk><trkseg><trkpt lat="44.394028711152245" lon="8.985001391500594"><ele>3.9999999999999996</ele><time>2026-05-02T12:00:57Z</time></trkpt><trkpt lat="44.3939733848372" lon="8.984910118231584"><ele>4.0</ele><time>2026-05-02T12:01:00Z</time></trkpt><trkpt lat="44.39391224793261" lon="8.984821587832304"><ele>4.0</ele><time>2026-05-02T12:01:02Z</time></trkpt><trkpt lat="44.39388138922946" lon="8.984724435593558"><ele>4.0</ele><time>2026-05-02T12:01:04Z</time></trkpt><trkpt lat="44.39387740121905" lon="8.98460562250139"><ele>3.9999999999999996</ele><time>2026-05-02T12:01:07Z</time></trkpt><trkpt lat="44.39381839446501" lon="8.984470392553293"><ele>4.0</ele><time>2026-05-02T12:01:10Z</time></trkpt><trkpt lat="44.393725190452635" lon="8.984413923132136"><ele>4.5</ele><time>2026-05-02T12:01:12Z</time></trkpt><trkpt lat="44.39365429873941" lon="8.984336796527097"><ele>5.0</ele><time>2026-05-02T12:01:13Z</time></trkpt><trkpt lat="44.39358811013305" lon="8.9842479698631"><ele>5.5</ele><time>2026-05-02T12:01:14Z</time></trkpt><trkpt lat="44.39353663562022" lon="8.984189318053922"><ele>6.0</ele><time>2026-05-02T12:01:15Z</time></trkpt><trkpt lat="44.39346874438577" lon="8.984139377240332"><ele>6.500000000000001</ele><time>2026-05-02T12:01:17Z</time></trkpt><trkpt lat="44.393378186193125" lon="8.984224431545286"><ele>7.0</ele><time>2026-05-02T12:01:19Z</time></trkpt><trkpt lat="44.39334441707313" lon="8.984301203172878"><ele>7.000000000000001</ele><time>2026-05-02T12:01:20Z</time></trkpt><trkpt lat="44.39329141419163" lon="8.984377277497783"><ele>7.0</ele><time>2026-05-02T12:01:22Z</time></trkpt><trkpt lat="44.393222278831416" lon="8.98441553217316"><ele>7.0</ele><time>2026-05-02T12:01:24Z</time></trkpt><trkpt lat="44.39313570847988" lon="8.984390312255895"><ele>7.0</ele><time>2026-05-02T12:01:26Z</time></trkpt><trkpt lat="44.393040769153195" lon="8.984351624650097"><ele>7.000000000000001</ele><time>2026-05-02T12:01:28Z</time></trkpt><trkpt lat="44.39300262072024" lon="8.984258184469644"><ele>7.0</ele><time>2026-05-02T12:01:30Z</time></trkpt><trkpt lat="44.3930525449794" lon="8.984133510595882"><ele>7.000000000000001</ele><time>2026-05-02T12:01:32Z</time></trkpt><trkpt lat="44.393108327020975" lon="8.984040919560082"><ele>7.0</ele><time>2026-05-02T12:01:33Z</time></trkpt><trkpt lat="44.39317212433504" lon="8.983920061879777"><ele>7.0</ele><time>2026-05-02T12:01:34Z</time></trkpt><trkpt lat="44.3932314245417" lon="8.983804423422136"><ele>7.0</ele><time>2026-05-02T12:01:35Z</time></trkpt><trkpt lat="44.39328497861241" lon="8.98373658898403"><ele>7.000000000000001</ele><time>2026-05-02T12:01:37Z</time></trkpt><trkpt lat="44.39329234129459" lon="8.983628264108598"><ele>7.0</ele><time>2026-05-02T12:02:02Z</time></trkpt><trkpt lat="44.393310790898695" lon="8.98353864297028"><ele>7.0</ele><time>2026-05-02T12:02:03Z</time></trkpt><trkpt lat="44.39337380795886" lon="8.983433669236488"><ele>6.999999999999999</ele><time>2026-05-02T12:02:03.999Z</time></trkpt><trkpt lat="44.39341914677466" lon="8.983334725160649"><ele>6.999999999999999</ele><time>2026-05-02T12:02:04.999Z</time></trkpt><trkpt lat="44.393484597720054" lon="8.98322371463589"><ele>7.0</ele><time>2026-05-02T12:02:05.999Z</time></trkpt><trkpt lat="44.39353478489062" lon="8.98311617593001"><ele>7.0</ele><time>2026-05-02T12:02:06.999Z</time></trkpt><trkpt lat="44.39358598526529" lon="8.983012720329965"><ele>7.166666666666667</ele><time>2026-05-02T12:02:07.999Z</time></trkpt><trkpt lat="44.39363537245596" lon="8.9829110040909"><ele>7.333333333333334</ele><time>2026-05-02T12:02:08.999Z</time></trkpt><trkpt lat="44.39368506464055" lon="8.98281075492368"><ele>7.5</ele><time>2026-05-02T12:02:09.999Z</time></trkpt><trkpt lat="44.393736062972394" lon="8.982710504833909"><ele>7.666666666666666</ele><time>2026-05-02T12:02:10.999Z</time></trkpt><trkpt lat="44.393791043387274" lon="8.982617407764046"><ele>7.833333333333333</ele><time>2026-05-02T12:02:12Z</time></trkpt><trkpt lat="44.393840693473344" lon="8.982526402011642"><ele>8.0</ele><time>2026-05-02T12:02:13Z</time></trkpt><trkpt lat="44.39389145986217" lon="8.982432759051095"><ele>9.600000000000001</ele><time>2026-05-02T12:02:14Z</time></trkpt><trkpt lat="44.39393944901667" lon="8.982341207763938"><ele>11.200000000000001</ele><time>2026-05-02T12:02:15Z</time></trkpt><trkpt lat="44.393989008766425" lon="8.982246673761754"><ele>12.8</ele><time>2026-05-02T12:02:16Z</time></trkpt><trkpt lat="44.39404049244192" lon="8.982137622043307"><ele>14.4</ele><time>2026-05-02T12:02:17Z</time></trkpt><trkpt lat="44.394112017016745" lon="8.982001322822743"><ele>16.0</ele><time>2026-05-02T12:02:18Z</time></trkpt><trkpt lat="44.394197152028106" lon="8.981832718592289"><ele>17.25</ele><time>2026-05-02T12:02:19Z</time></trkpt><trkpt lat="44.39429101797978" lon="8.981639975008896"><ele>18.5</ele><time>2026-05-02T12:02:20Z</time></trkpt><trkpt lat="44.39437943830816" lon="8.981471391736925"><ele>19.75</ele><time>2026-05-02T12:02:21Z</time></trkpt><trkpt lat="44.39445798361682" lon="8.98132504588534"><ele>21.0</ele><time>2026-05-02T12:02:22Z</time></trkpt><trkpt lat="44.39454866555653" lon="8.981198138841266"><ele>21.0</ele><time>2026-05-02T12:02:23Z</time></trkpt><trkpt lat="44.39465147044993" lon="8.981068694400884"><ele>21.0</ele><time>2026-05-02T12:02:24Z</time></trkpt><trkpt lat="44.394756274374345" lon="8.980932748020253"><ele>21.0</ele><time>2026-05-02T12:02:25Z</time></trkpt><trkpt lat="44.39485186804539" lon="8.98081723886052"><ele>21.0</ele><time>2026-05-02T12:02:26Z</time></trkpt><trkpt lat="44.39493673389383" lon="8.980724623746193"><ele>21.4</ele><time>2026-05-02T12:02:27Z</time></trkpt><trkpt lat="44.3950141521215" lon="8.980642451286728"><ele>21.8</ele><time>2026-05-02T12:02:28Z</time></trkpt><trkpt lat="44.39509096416812" lon="8.980580611417537"><ele>22.2</ele><time>2026-05-02T12:02:29Z</time></trkpt><trkpt lat="44.39517535827787" lon="8.980553405472"><ele>22.599999999999998</ele><time>2026-05-02T12:02:30Z</time></trkpt><trkpt lat="44.395272240283674" lon="8.980559573814261"><ele>23.0</ele><time>2026-05-02T12:02:31Z</time></trkpt><trkpt lat="44.3953823681022" lon="8.98058856296201"><ele>23.0</ele><time>2026-05-02T12:02:32Z</time></trkpt><trkpt lat="44.39550185399954" lon="8.980645283358239"><ele>23.0</ele><time>2026-05-02T12:02:33Z</time></trkpt><trkpt lat="44.395617149862254" lon="8.980702531758885"><ele>23.0</ele><time>2026-05-02T12:02:34Z</time></trkpt><trkpt lat="44.395735502125" lon="8.980759793824815"><ele>23.0</ele><time>2026-05-02T12:02:35Z</time></trkpt><trkpt lat="44.39585566595297" lon="8.980826208509985"><ele>24.599999999999998</ele><time>2026-05-02T12:02:36Z</time></trkpt><trkpt lat="44.39597399784191" lon="8.98089044396034"><ele>26.2</ele><time>2026-05-02T12:02:37Z</time></trkpt><trkpt lat="44.39608407785302" lon="8.980945802434253"><ele>27.8</ele><time>2026-05-02T12:02:38Z</time></trkpt><trkpt lat="44.39618461346347" lon="8.981000023554481"><ele>29.4</ele><time>2026-05-02T12:02:39Z</time></trkpt><trkpt lat="44.39627323915959" lon="8.981045928896783"><ele>31.0</ele><time>2026-05-02T12:02:40Z</time></trkpt><trkpt lat="44.39635229670668" lon="8.981091695185432"><ele>31.0</ele><time>2026-05-02T12:02:41Z</time></trkpt><trkpt lat="44.39642029470897" lon="8.981133448348297"><ele>31.000000000000004</ele><time>2026-05-02T12:02:42Z</time></trkpt><trkpt lat="44.39648532336026" lon="8.981162609954993"><ele>31.0</ele><time>2026-05-02T12:02:43Z</time></trkpt><trkpt lat="44.396544343063006" lon="8.981200456860362"><ele>31.0</ele><time>2026-05-02T12:02:44Z</time></trkpt><trkpt lat="44.3966361324264" lon="8.981245976203795"><ele>31.000000000000004</ele><time>2026-05-02T12:02:46Z</time></trkpt><trkpt lat="44.39670369968258" lon="8.981271974684953"><ele>31.0</ele><time>2026-05-02T12:02:48Z</time></trkpt><trkpt lat="44.396774120611475" lon="8.981303849112301"><ele>31.0</ele><time>2026-05-02T12:02:50Z</time></trkpt><trkpt lat="44.396851386090326" lon="8.981324205079167"><ele>31.0</ele><time>2026-05-02T12:02:52Z</time></trkpt><trkpt lat="44.39696787613596" lon="8.981335291026419"><ele>31.0</ele><time>2026-05-02T12:02:54Z</time></trkpt><trkpt lat="44.39703533692792" lon="8.981239520897166"><ele>31.0</ele><time>2026-05-02T12:02:55Z</time></trkpt><trkpt lat="44.39713250965173" lon="8.981167353753175"><ele>31.0</ele><time>2026-05-02T12:02:57Z</time></trkpt><trkpt lat="44.39712141809159" lon="8.980991724260765"><ele>31.0</ele><time>2026-05-02T12:02:58Z</time></trkpt><trkpt lat="44.39714525967521" lon="8.980908547886582"><ele>29.4</ele><time>2026-05-02T12:02:59Z</time></trkpt><trkpt lat="44.397249359561464" lon="8.980907827181996"><ele>27.8</ele><time>2026-05-02T12:03:01Z</time></trkpt><trkpt lat="44.39734223550806" lon="8.980815451095175"><ele>26.2</ele><time>2026-05-02T12:03:03Z</time></trkpt><trkpt lat="44.39747240375329" lon="8.980815922480556"><ele>24.599999999999998</ele><time>2026-05-02T12:03:05Z</time></trkpt><trkpt lat="44.3975537300477" lon="8.980839462666147"><ele>23.0</ele><time>2026-05-02T12:03:06Z</time></trkpt><trkpt lat="44.3976532591151" lon="8.980876698902376"><ele>23.0</ele><time>2026-05-02T12:03:07Z</time></trkpt><trkpt lat="44.39774583860355" lon="8.980913591997963"><ele>23.0</ele><time>2026-05-02T12:03:08Z</time></trkpt><trkpt lat="44.3978383242902" lon="8.980951578078985"><ele>23.0</ele><time>2026-05-02T12:03:09Z</time></trkpt><trkpt lat="44.39792299777179" lon="8.980991825953344"><ele>23.0</ele><time>2026-05-02T12:03:10Z</time></trkpt><trkpt lat="44.39799611962007" lon="8.981026884701116"><ele>23.0</ele><time>2026-05-02T12:03:11Z</time></trkpt><trkpt lat="44.39805608831217" lon="8.981056657927375"><ele>23.0</ele><time>2026-05-02T12:03:12Z</time></trkpt><trkpt lat="44.39815999746228" lon="8.98111377681828"><ele>22.799999999999997</ele><time>2026-05-02T12:03:14Z</time></trkpt><trkpt lat="44.3982555234049" lon="8.981170671598228"><ele>22.6</ele><time>2026-05-02T12:03:16Z</time></trkpt><trkpt lat="44.398349452545084" lon="8.981214544462187"><ele>22.4</ele><time>2026-05-02T12:03:18Z</time></trkpt><trkpt lat="44.39843504851367" lon="8.98124226519139"><ele>22.200000000000003</ele><time>2026-05-02T12:03:20Z</time></trkpt><trkpt lat="44.39851499189795" lon="8.981279864000536"><ele>22.0</ele><time>2026-05-02T12:03:22Z</time></trkpt><trkpt lat="44.398590041877995" lon="8.981318527487549"><ele>22.0</ele><time>2026-05-02T12:03:25Z</time></trkpt><trkpt lat="44.39869614995182" lon="8.981327150234115"><ele>22.0</ele><time>2026-05-02T12:03:48Z</time></trkpt><trkpt lat="44.39877681464646" lon="8.981359178665038"><ele>22.0</ele><time>2026-05-02T12:03:49Z</time></trkpt><trkpt lat="44.39889714064846" lon="8.981389522676086"><ele>22.0</ele><time>2026-05-02T12:03:50Z</time></trkpt><trkpt lat="44.399007100463436" lon="8.981428859781351"><ele>22.0</ele><time>2026-05-02T12:03:51Z</time></trkpt><trkpt lat="44.39914098398443" lon="8.981485434812681"><ele>23.200000000000003</ele><time>2026-05-02T12:03:52Z</time></trkpt><trkpt lat="44.3992722703595" lon="8.981555677996171"><ele>24.4</ele><time>2026-05-02T12:03:53Z</time></trkpt><trkpt lat="44.39937377839618" lon="8.981595329311382"><ele>25.599999999999998</ele><time>2026-05-02T12:03:54Z</time></trkpt><trkpt lat="44.39946982886994" lon="8.981611429536283"><ele>26.799999999999997</ele><time>2026-05-02T12:03:55Z</time></trkpt><trkpt lat="44.39955576830067" lon="8.981654063771154"><ele>28.0</ele><time>2026-05-02T12:03:56Z</time></trkpt><trkpt lat="44.39964681115807" lon="8.981697130886745"><ele>29.25</ele><time>2026-05-02T12:03:57Z</time></trkpt><trkpt lat="44.39975640159282" lon="8.981744180895998"><ele>30.5</ele><time>2026-05-02T12:03:58Z</time></trkpt><trkpt lat="44.39986607204958" lon="8.981778956493446"><ele>31.75</ele><time>2026-05-02T12:03:59Z</time></trkpt><trkpt lat="44.39997085572553" lon="8.98180892775886"><ele>33.0</ele><time>2026-05-02T12:04:00Z</time></trkpt><trkpt lat="44.4000892839355" lon="8.981874260213706"><ele>33.0</ele><time>2026-05-02T12:04:01Z</time></trkpt><trkpt lat="44.40022447661044" lon="8.981927108074384"><ele>33.0</ele><time>2026-05-02T12:04:02Z</time></trkpt><trkpt lat="44.40036823451057" lon="8.981981477521783"><ele>33.0</ele><time>2026-05-02T12:04:03Z</time></trkpt><trkpt lat="44.40050434100877" lon="8.982016648787186"><ele>33.0</ele><time>2026-05-02T12:04:04Z</time></trkpt><trkpt lat="44.40062400700004" lon="8.982065344260949"><ele>33.4</ele><time>2026-05-02T12:04:05Z</time></trkpt><trkpt lat="44.400728528797075" lon="8.982104592662338"><ele>33.8</ele><time>2026-05-02T12:04:06Z</time></trkpt><trkpt lat="44.40083026249133" lon="8.982151552006526"><ele>34.2</ele><time>2026-05-02T12:04:07Z</time></trkpt><trkpt lat="44.400921986639574" lon="8.98219613025946"><ele>34.6</ele><time>2026-05-02T12:04:08Z</time></trkpt><trkpt lat="44.40100977508253" lon="8.982229251462464"><ele>35.0</ele><time>2026-05-02T12:04:08.999Z</time></trkpt><trkpt lat="44.40108824455355" lon="8.982256659581907"><ele>35.0</ele><time>2026-05-02T12:04:09.999Z</time></trkpt><trkpt lat="44.401162367410834" lon="8.982284774460366"><ele>35.0</ele><time>2026-05-02T12:04:10.999Z</time></trkpt><trkpt lat="44.40123869358513" lon="8.982317478861512"><ele>35.0</ele><time>2026-05-02T12:04:11.999Z</time></trkpt><trkpt lat="44.4013083185286" lon="8.98234407414734"><ele>35.0</ele><time>2026-05-02T12:04:12.999Z</time></trkpt><trkpt lat="44.40138126755176" lon="8.982369505991988"><ele>35.0</ele><time>2026-05-02T12:04:13.999Z</time></trkpt><trkpt lat="44.401474332326856" lon="8.982410489069924"><ele>35.0</ele><time>2026-05-02T12:04:14.999Z</time></trkpt><trkpt lat="44.40157060264571" lon="8.982460004217621"><ele>35.5</ele><time>2026-05-02T12:04:15.999Z</time></trkpt><trkpt lat="44.40165208767221" lon="8.98249435724608"><ele>36.0</ele><time>2026-05-02T12:04:16.999Z</time></trkpt><trkpt lat="44.4017192389406" lon="8.982532941034576"><ele>36.5</ele><time>2026-05-02T12:04:17.999Z</time></trkpt><trkpt lat="44.40178907253215" lon="8.982578660036339"><ele>37.0</ele><time>2026-05-02T12:04:18.999Z</time></trkpt><trkpt lat="44.40186154334317" lon="8.982633495328063"><ele>37.5</ele><time>2026-05-02T12:04:19.999Z</time></trkpt><trkpt lat="44.401937774466475" lon="8.982692813540703"><ele>38.0</ele><time>2026-05-02T12:04:20.999Z</time></trkpt><trkpt lat="44.402015771434" lon="8.982752664677626"><ele>38.33333333333333</ele><time>2026-05-02T12:04:21.999Z</time></trkpt><trkpt lat="44.40209165388269" lon="8.98281292364501"><ele>38.666666666666664</ele><time>2026-05-02T12:04:22.999Z</time></trkpt><trkpt lat="44.4021547345741" lon="8.982872140672173"><ele>39.0</ele><time>2026-05-02T12:04:23.999Z</time></trkpt><trkpt lat="44.40220994336708" lon="8.982932878303712"><ele>39.333333333333336</ele><time>2026-05-02T12:04:24.999Z</time></trkpt><trkpt lat="44.4022640892634" lon="8.982997715192178"><ele>39.66666666666667</ele><time>2026-05-02T12:04:25.999Z</time></trkpt><trkpt lat="44.40231369998842" lon="8.983052387710611"><ele>40.0</ele><time>2026-05-02T12:04:26.999Z</time></trkpt><trkpt lat="44.40239523280211" lon="8.983140487242904"><ele>40.4</ele><time>2026-05-02T12:04:28.999Z</time></trkpt><trkpt lat="44.402450059214" lon="8.98323880669951"><ele>40.8</ele><time>2026-05-02T12:04:30.999Z</time></trkpt><trkpt lat="44.402379218665864" lon="8.983381066564224"><ele>41.2</ele><time>2026-05-02T12:04:32.999Z</time></trkpt><trkpt lat="44.402311183093" lon="8.983458884101632"><ele>41.6</ele><time>2026-05-02T12:04:33.999Z</time></trkpt><trkpt lat="44.402265949330335" lon="8.983588929251164"><ele>42.0</ele><time>2026-05-02T12:04:34.999Z</time></trkpt><trkpt lat="44.40221356274957" lon="8.983704619858328"><ele>42.0</ele><time>2026-05-02T12:04:35.999Z</time></trkpt><trkpt lat="44.40219517858715" lon="8.98378897895052"><ele>42.0</ele><time>2026-05-02T12:04:36.999Z</time></trkpt><trkpt lat="44.40214980064523" lon="8.983889813401316"><ele>42.0</ele><time>2026-05-02T12:04:37.999Z</time></trkpt><trkpt lat="44.40212962121601" lon="8.983997166354623"><ele>42.0</ele><time>2026-05-02T12:04:39Z</time></trkpt><trkpt lat="44.40207989922618" lon="8.984087937439893"><ele>42.0</ele><time>2026-05-02T12:04:40Z</time></trkpt><trkpt lat="44.40201679169213" lon="8.984181527531451"><ele>42.0</ele><time>2026-05-02T12:04:41Z</time></trkpt><trkpt lat="44.40195662428464" lon="8.984310317298316"><ele>41.0</ele><time>2026-05-02T12:04:42Z</time></trkpt><trkpt lat="44.40188009168819" lon="8.984398267888157"><ele>40.0</ele><time>2026-05-02T12:04:43Z</time></trkpt><trkpt lat="44.40181025521982" lon="8.984496533546563"><ele>39.0</ele><time>2026-05-02T12:04:44Z</time></trkpt><trkpt lat="44.40173432112853" lon="8.984579468031589"><ele>38.0</ele><time>2026-05-02T12:04:45Z</time></trkpt><trkpt lat="44.40165070694348" lon="8.984646557141074"><ele>37.0</ele><time>2026-05-02T12:04:46Z</time></trkpt><trkpt lat="44.40156004899273" lon="8.984700760141493"><ele>37.0</ele><time>2026-05-02T12:04:47Z</time></trkpt><trkpt lat="44.40146493857935" lon="8.984743072996986"><ele>37.0</ele><time>2026-05-02T12:04:48Z</time></trkpt><trkpt lat="44.40135399198655" lon="8.984772745898708"><ele>37.0</ele><time>2026-05-02T12:04:49Z</time></trkpt><trkpt lat="44.40125774840698" lon="8.984777447250146"><ele>37.0</ele><time>2026-05-02T12:04:50Z</time></trkpt><trkpt lat="44.40116498114544" lon="8.984768196577816"><ele>37.0</ele><time>2026-05-02T12:04:51Z</time></trkpt><trkpt lat="44.40110039906037" lon="8.98475467402193"><ele>37.0</ele><time>2026-05-02T12:04:52Z</time></trkpt><trkpt lat="44.401008848925514" lon="8.9847266944244"><ele>37.0</ele><time>2026-05-02T12:04:54Z</time></trkpt><trkpt lat="44.40092125443789" lon="8.984692945478667"><ele>37.0</ele><time>2026-05-02T12:04:56Z</time></trkpt><trkpt lat="44.40084683829589" lon="8.984680319266122"><ele>37.0</ele><time>2026-05-02T12:04:58Z</time></trkpt><trkpt lat="44.40077912870255" lon="8.984644864856342"><ele>37.0</ele><time>2026-05-02T12:05:03Z</time></trkpt><trkpt lat="44.40084933076188" lon="8.984659988032698"><ele>37.0</ele><time>2026-05-02T12:05:18Z</time></trkpt><trkpt lat="44.400930801634594" lon="8.984697208477279"><ele>37.0</ele><time>2026-05-02T12:05:20Z</time></trkpt><trkpt lat="44.40105016962578" lon="8.984761612836103"><ele>37.0</ele><time>2026-05-02T12:05:21Z</time></trkpt><trkpt lat="44.40113243991282" lon="8.984793533297859"><ele>37.0</ele><time>2026-05-02T12:05:25Z</time></trkpt><trkpt lat="44.40122626442921" lon="8.984807514887562"><ele>37.0</ele><time>2026-05-02T12:05:27Z</time></trkpt><trkpt lat="44.40132741820157" lon="8.98480228318459"><ele>37.0</ele><time>2026-05-02T12:05:29Z</time></trkpt><trkpt lat="44.40143982494959" lon="8.984779749945549"><ele>37.0</ele><time>2026-05-02T12:05:31Z</time></trkpt><trkpt lat="44.40150322692643" lon="8.984762244452755"><ele>37.0</ele><time>2026-05-02T12:05:32Z</time></trkpt><trkpt lat="44.401604675422384" lon="8.984715572160495"><ele>37.0</ele><time>2026-05-02T12:05:34Z</time></trkpt><trkpt lat="44.40165584929798" lon="8.984662886052094"><ele>37.0</ele><time>2026-05-02T12:05:35Z</time></trkpt><trkpt lat="44.401717029278274" lon="8.98461974201964"><ele>37.0</ele><time>2026-05-02T12:05:36Z</time></trkpt><trkpt lat="44.4017712627854" lon="8.984570925281787"><ele>37.0</ele><time>2026-05-02T12:05:37Z</time></trkpt><trkpt lat="44.401823872900835" lon="8.98450658396479"><ele>37.0</ele><time>2026-05-02T12:05:38Z</time></trkpt><trkpt lat="44.40187473002971" lon="8.984442789523944"><ele>37.0</ele><time>2026-05-02T12:05:39Z</time></trkpt><trkpt lat="44.401917558708675" lon="8.984367653658884"><ele>37.0</ele><time>2026-05-02T12:05:40Z</time></trkpt><trkpt lat="44.401986975948574" lon="8.984246994378056"><ele>37.0</ele><time>2026-05-02T12:05:42Z</time></trkpt><trkpt lat="44.40204974480715" lon="8.98410969960571"><ele>37.0</ele><time>2026-05-02T12:05:44Z</time></trkpt><trkpt lat="44.40211492334501" lon="8.983974304044814"><ele>37.0</ele><time>2026-05-02T12:05:46Z</time></trkpt><trkpt lat="44.40218703621016" lon="8.983839070035579"><ele>37.833333333333336</ele><time>2026-05-02T12:05:48Z</time></trkpt><trkpt lat="44.40222463674291" lon="8.983755494065925"><ele>38.66666666666667</ele><time>2026-05-02T12:05:49Z</time></trkpt><trkpt lat="44.402270957792226" lon="8.983641664605335"><ele>39.5</ele><time>2026-05-02T12:05:50Z</time></trkpt><trkpt lat="44.402323785438256" lon="8.983539908423579"><ele>40.333333333333336</ele><time>2026-05-02T12:05:51Z</time></trkpt><trkpt lat="44.40236034089197" lon="8.983439400936541"><ele>41.166666666666664</ele><time>2026-05-02T12:05:52Z</time></trkpt><trkpt lat="44.40239022416413" lon="8.983349767943436"><ele>42.0</ele><time>2026-05-02T12:05:53Z</time></trkpt><trkpt lat="44.40244887440535" lon="8.983304536096695"><ele>42.0</ele><time>2026-05-02T12:05:54Z</time></trkpt><trkpt lat="44.402510230035155" lon="8.983266886941184"><ele>42.0</ele><time>2026-05-02T12:05:58Z</time></trkpt><trkpt lat="44.40260214539757" lon="8.983297997787322"><ele>42.0</ele><time>2026-05-02T12:06:00Z</time></trkpt><trkpt lat="44.402705308434854" lon="8.983407860408064"><ele>42.0</ele><time>2026-05-02T12:06:02Z</time></trkpt><trkpt lat="44.40277496956995" lon="8.983481550449389"><ele>42.0</ele><time>2026-05-02T12:06:04Z</time></trkpt><trkpt lat="44.4028332435913" lon="8.983538971231146"><ele>42.0</ele><time>2026-05-02T12:06:06Z</time></trkpt><trkpt lat="44.402912661287516" lon="8.983633879172812"><ele>42.0</ele><time>2026-05-02T12:07:10Z</time></trkpt><trkpt lat="44.40297086947785" lon="8.983692342667645"><ele>42.0</ele><time>2026-05-02T12:07:11Z</time></trkpt><trkpt lat="44.40303640758689" lon="8.983765230434866"><ele>42.0</ele><time>2026-05-02T12:07:12Z</time></trkpt><trkpt lat="44.40310341689956" lon="8.983839715355462"><ele>42.0</ele><time>2026-05-02T12:07:13Z</time></trkpt><trkpt lat="44.40317965677901" lon="8.983917151269514"><ele>42.0</ele><time>2026-05-02T12:07:14Z</time></trkpt><trkpt lat="44.40324357392447" lon="8.983990949551169"><ele>42.0</ele><time>2026-05-02T12:07:15Z</time></trkpt><trkpt lat="44.40330928357952" lon="8.984059164257639"><ele>42.0</ele><time>2026-05-02T12:07:16Z</time></trkpt><trkpt lat="44.403376653795426" lon="8.984138015853306"><ele>42.0</ele><time>2026-05-02T12:07:17Z</time></trkpt><trkpt lat="44.40345611209386" lon="8.984229302140657"><ele>42.0</ele><time>2026-05-02T12:07:18Z</time></trkpt><trkpt lat="44.403549169792534" lon="8.98433176853626"><ele>42.0</ele><time>2026-05-02T12:07:19Z</time></trkpt><trkpt lat="44.40365305553045" lon="8.984443678195873"><ele>42.0</ele><time>2026-05-02T12:07:20Z</time></trkpt><trkpt lat="44.4037455075546" lon="8.984548642077117"><ele>42.0</ele><time>2026-05-02T12:07:21Z</time></trkpt><trkpt lat="44.403830820626304" lon="8.984639440140278"><ele>42.0</ele><time>2026-05-02T12:07:22Z</time></trkpt><trkpt lat="44.40390919586378" lon="8.98473270373188"><ele>42.0</ele><time>2026-05-02T12:07:23Z</time></trkpt><trkpt lat="44.40397850488086" lon="8.984821530189553"><ele>42.0</ele><time>2026-05-02T12:07:24Z</time></trkpt><trkpt lat="44.404043024415536" lon="8.98490321026509"><ele>41.333333333333336</ele><time>2026-05-02T12:07:25Z</time></trkpt><trkpt lat="44.404103093722505" lon="8.98497270708567"><ele>40.666666666666664</ele><time>2026-05-02T12:07:26Z</time></trkpt><trkpt lat="44.40415665233575" lon="8.985031036248278"><ele>40.0</ele><time>2026-05-02T12:07:27Z</time></trkpt><trkpt lat="44.40424673860799" lon="8.985132120497095"><ele>39.33333333333333</ele><time>2026-05-02T12:07:29Z</time></trkpt><trkpt lat="44.40431097268582" lon="8.985205831210381"><ele>38.666666666666664</ele><time>2026-05-02T12:07:31Z</time></trkpt><trkpt lat="44.40436948035037" lon="8.985255951015342"><ele>38.0</ele><time>2026-05-02T12:08:10Z</time></trkpt><trkpt lat="44.40442564173015" lon="8.98530253448568"><ele>38.0</ele><time>2026-05-02T12:08:11Z</time></trkpt><trkpt lat="44.404490445960434" lon="8.985354914049285"><ele>38.0</ele><time>2026-05-02T12:08:12Z</time></trkpt><trkpt lat="44.40454671322355" lon="8.985422101652672"><ele>38.0</ele><time>2026-05-02T12:08:13Z</time></trkpt><trkpt lat="44.404606078825864" lon="8.98548641634942"><ele>38.0</ele><time>2026-05-02T12:08:14Z</time></trkpt><trkpt lat="44.404676643293385" lon="8.985559651543406"><ele>38.0</ele><time>2026-05-02T12:08:15Z</time></trkpt><trkpt lat="44.40475866935924" lon="8.985641805076654"><ele>38.0</ele><time>2026-05-02T12:08:16Z</time></trkpt><trkpt lat="44.404845572853354" lon="8.985721377456985"><ele>36.6</ele><time>2026-05-02T12:08:17Z</time></trkpt><trkpt lat="44.40493226861321" lon="8.985794997125033"><ele>35.199999999999996</ele><time>2026-05-02T12:08:18Z</time></trkpt><trkpt lat="44.40502132444158" lon="8.985869638765177"><ele>33.8</ele><time>2026-05-02T12:08:19Z</time></trkpt><trkpt lat="44.405109176587025" lon="8.985950295681045"><ele>32.4</ele><time>2026-05-02T12:08:20Z</time></trkpt><trkpt lat="44.4051990750148" lon="8.98602958090057"><ele>31.0</ele><time>2026-05-02T12:08:20.999Z</time></trkpt><trkpt lat="44.40529127959438" lon="8.986100878220315"><ele>31.0</ele><time>2026-05-02T12:08:21.999Z</time></trkpt><trkpt lat="44.405390900918924" lon="8.986165383039413"><ele>31.0</ele><time>2026-05-02T12:08:22.999Z</time></trkpt><trkpt lat="44.40560914602749" lon="8.986299438409588"><ele>31.0</ele><time>2026-05-02T12:08:24.999Z</time></trkpt><trkpt lat="44.40571918696932" lon="8.98636894111958"><ele>32.8</ele><time>2026-05-02T12:08:25.999Z</time></trkpt><trkpt lat="44.40582002512577" lon="8.986432934508501"><ele>34.6</ele><time>2026-05-02T12:08:26.999Z</time></trkpt><trkpt lat="44.40591624358987" lon="8.986491072394317"><ele>36.4</ele><time>2026-05-02T12:08:27.999Z</time></trkpt><trkpt lat="44.406015672239675" lon="8.986547913826064"><ele>38.2</ele><time>2026-05-02T12:08:28.999Z</time></trkpt><trkpt lat="44.40611512777597" lon="8.986606006505058"><ele>40.0</ele><time>2026-05-02T12:08:29.999Z</time></trkpt><trkpt lat="44.40620701058773" lon="8.986662482124817"><ele>38.833333333333336</ele><time>2026-05-02T12:08:30.999Z</time></trkpt><trkpt lat="44.40628719457598" lon="8.986710363931579"><ele>37.66666666666667</ele><time>2026-05-02T12:08:31.999Z</time></trkpt><trkpt lat="44.40637629565166" lon="8.986768512794342"><ele>36.5</ele><time>2026-05-02T12:08:33.999Z</time></trkpt><trkpt lat="44.406437466781476" lon="8.986815235623041"><ele>35.333333333333336</ele><time>2026-05-02T12:08:35.999Z</time></trkpt><trkpt lat="44.40649307616535" lon="8.98686529329966"><ele>34.166666666666664</ele><time>2026-05-02T12:08:37.999Z</time></trkpt><trkpt lat="44.40655856389067" lon="8.986919054761538"><ele>33.0</ele><time>2026-05-02T12:08:39.999Z</time></trkpt><trkpt lat="44.40666525665236" lon="8.98699999841909"><ele>33.0</ele><time>2026-05-02T12:08:41.999Z</time></trkpt><trkpt lat="44.406729831786414" lon="8.98704658411537"><ele>33.0</ele><time>2026-05-02T12:08:42.999Z</time></trkpt><trkpt lat="44.40679194625764" lon="8.987083885620875"><ele>33.0</ele><time>2026-05-02T12:08:43.999Z</time></trkpt><trkpt lat="44.40684184062777" lon="8.987149603195528"><ele>33.0</ele><time>2026-05-02T12:08:44.999Z</time></trkpt><trkpt lat="44.406905037166204" lon="8.987195136678023"><ele>33.0</ele><time>2026-05-02T12:08:45.999Z</time></trkpt><trkpt lat="44.40697434206016" lon="8.987225331731345"><ele>33.0</ele><time>2026-05-02T12:08:46.999Z</time></trkpt><trkpt lat="44.40704053147771" lon="8.987264020990992"><ele>33.0</ele><time>2026-05-02T12:08:47.999Z</time></trkpt><trkpt lat="44.40711917027966" lon="8.987290498567985"><ele>34.166666666666664</ele><time>2026-05-02T12:08:48.999Z</time></trkpt><trkpt lat="44.40719016633498" lon="8.987314894768785"><ele>35.333333333333336</ele><time>2026-05-02T12:08:49.999Z</time></trkpt><trkpt lat="44.40730134232206" lon="8.987354950989356"><ele>36.5</ele><time>2026-05-02T12:08:52Z</time></trkpt><trkpt lat="44.4073651630572" lon="8.987376876990957"><ele>37.66666666666667</ele><time>2026-05-02T12:08:53Z</time></trkpt><trkpt lat="44.4074265400937" lon="8.987398764622572"><ele>38.833333333333336</ele><time>2026-05-02T12:08:54Z</time></trkpt><trkpt lat="44.40753513087188" lon="8.987445777054633"><ele>40.0</ele><time>2026-05-02T12:08:56Z</time></trkpt><trkpt lat="44.40761557177412" lon="8.987471353726384"><ele>40.0</ele><time>2026-05-02T12:08:58Z</time></trkpt><trkpt lat="44.40768211096161" lon="8.987490264421861"><ele>40.0</ele><time>2026-05-02T12:09:00Z</time></trkpt><trkpt lat="44.40776300548568" lon="8.987504384731787"><ele>40.0</ele><time>2026-05-02T12:09:02Z</time></trkpt><trkpt lat="44.407863772763356" lon="8.987524432595105"><ele>40.0</ele><time>2026-05-02T12:09:04Z</time></trkpt><trkpt lat="44.40797790185822" lon="8.987572752384924"><ele>40.0</ele><time>2026-05-02T12:09:06Z</time></trkpt><trkpt lat="44.40804904157442" lon="8.987620966677508"><ele>40.0</ele><time>2026-05-02T12:09:07Z</time></trkpt><trkpt lat="44.40811254237981" lon="8.987672686411576"><ele>41.0</ele><time>2026-05-02T12:09:08Z</time></trkpt><trkpt lat="44.40816649134143" lon="8.987724363955744"><ele>42.0</ele><time>2026-05-02T12:09:09Z</time></trkpt><trkpt lat="44.40824939942628" lon="8.987808643945574"><ele>43.0</ele><time>2026-05-02T12:09:11Z</time></trkpt><trkpt lat="44.40834038327202" lon="8.98790253410275"><ele>44.0</ele><time>2026-05-02T12:09:13Z</time></trkpt><trkpt lat="44.40839623409657" lon="8.987959708279577"><ele>45.0</ele><time>2026-05-02T12:09:14Z</time></trkpt><trkpt lat="44.40844841097499" lon="8.9880162179935"><ele>46.0</ele><time>2026-05-02T12:09:15Z</time></trkpt><trkpt lat="44.40850125369739" lon="8.988083231684083"><ele>46.0</ele><time>2026-05-02T12:09:16Z</time></trkpt><trkpt lat="44.4085544730596" lon="8.98815374191847"><ele>46.0</ele><time>2026-05-02T12:09:17Z</time></trkpt><trkpt lat="44.40864807321638" lon="8.988273227752066"><ele>46.0</ele><time>2026-05-02T12:09:19Z</time></trkpt><trkpt lat="44.40869734300862" lon="8.988335204057517"><ele>46.0</ele><time>2026-05-02T12:09:20Z</time></trkpt><trkpt lat="44.40879003922693" lon="8.988440483254545"><ele>46.0</ele><time>2026-05-02T12:09:22Z</time></trkpt><trkpt lat="44.40887823215835" lon="8.988526887707154"><ele>44.199999999999996</ele><time>2026-05-02T12:09:24Z</time></trkpt><trkpt lat="44.40898742771718" lon="8.988518050356596"><ele>42.4</ele><time>2026-05-02T12:09:26Z</time></trkpt><trkpt lat="44.409074109481395" lon="8.988541598922373"><ele>40.6</ele><time>2026-05-02T12:09:27Z</time></trkpt><trkpt lat="44.40916504519" lon="8.988529764857269"><ele>38.8</ele><time>2026-05-02T12:09:28Z</time></trkpt><trkpt lat="44.40926887505897" lon="8.98847465569734"><ele>37.0</ele><time>2026-05-02T12:09:29Z</time></trkpt><trkpt lat="44.40939307610626" lon="8.988386772945669"><ele>40.5</ele><time>2026-05-02T12:09:30Z</time></trkpt><trkpt lat="44.409548777613324" lon="8.988278732957358"><ele>44.0</ele><time>2026-05-02T12:09:31Z</time></trkpt><trkpt lat="44.40967474722973" lon="8.988220126475824"><ele>47.5</ele><time>2026-05-02T12:09:32Z</time></trkpt><trkpt lat="44.409808483116244" lon="8.988184957754413"><ele>51.0</ele><time>2026-05-02T12:09:33Z</time></trkpt><trkpt lat="44.40996826935183" lon="8.98818091520952"><ele>51.25</ele><time>2026-05-02T12:09:34Z</time></trkpt><trkpt lat="44.41009716312833" lon="8.98819032352098"><ele>51.5</ele><time>2026-05-02T12:09:35Z</time></trkpt><trkpt lat="44.410225172854865" lon="8.988218494584975"><ele>51.75</ele><time>2026-05-02T12:09:36Z</time></trkpt><trkpt lat="44.410340459364434" lon="8.988273781566852"><ele>52.0</ele><time>2026-05-02T12:09:37Z</time></trkpt><trkpt lat="44.41046411113394" lon="8.988349921658733"><ele>53.0</ele><time>2026-05-02T12:09:38Z</time></trkpt><trkpt lat="44.41058120442427" lon="8.98847294852119"><ele>54.0</ele><time>2026-05-02T12:09:39Z</time></trkpt><trkpt lat="44.4106737881609" lon="8.988613131457925"><ele>55.0</ele><time>2026-05-02T12:09:40Z</time></trkpt><trkpt lat="44.410742590709376" lon="8.988744039198519"><ele>56.0</ele><time>2026-05-02T12:09:41Z</time></trkpt><trkpt lat="44.41078087831062" lon="8.988831631810406"><ele>56.0</ele><time>2026-05-02T12:09:42Z</time></trkpt><trkpt lat="44.41083007052605" lon="8.988933728022522"><ele>55.99999999999999</ele><time>2026-05-02T12:10:10Z</time></trkpt><trkpt lat="44.410875098645185" lon="8.989031954021163"><ele>55.99999999999999</ele><time>2026-05-02T12:10:23.001Z</time></trkpt><trkpt lat="44.410928540297064" lon="8.989150055440856"><ele>56.0</ele><time>2026-05-02T12:10:25.001Z</time></trkpt><trkpt lat="44.4109799303406" lon="8.989314654266567"><ele>56.0</ele><time>2026-05-02T12:10:26.999Z</time></trkpt><trkpt lat="44.41101211309358" lon="8.989406727812327"><ele>53.8</ele><time>2026-05-02T12:10:27.999Z</time></trkpt><trkpt lat="44.411052707785636" lon="8.989507667030379"><ele>51.599999999999994</ele><time>2026-05-02T12:10:28.999Z</time></trkpt><trkpt lat="44.41102679388297" lon="8.989667394299726"><ele>49.4</ele><time>2026-05-02T12:10:29.999Z</time></trkpt><trkpt lat="44.41116189877733" lon="8.989712109455688"><ele>47.2</ele><time>2026-05-02T12:10:30.999Z</time></trkpt><trkpt lat="44.41120765284484" lon="8.98982924714733"><ele>45.0</ele><time>2026-05-02T12:10:31.999Z</time></trkpt><trkpt lat="44.41124628113912" lon="8.989939570067202"><ele>45.0</ele><time>2026-05-02T12:10:32.999Z</time></trkpt><trkpt lat="44.41128924755938" lon="8.990036003056968"><ele>45.0</ele><time>2026-05-02T12:10:33.999Z</time></trkpt><trkpt lat="44.411353268618015" lon="8.990112918451278"><ele>45.0</ele><time>2026-05-02T12:10:34.999Z</time></trkpt><trkpt lat="44.411434001369216" lon="8.990150072383445"><ele>45.0</ele><time>2026-05-02T12:10:35.999Z</time></trkpt><trkpt lat="44.41152322599047" lon="8.99016620164336"><ele>45.0</ele><time>2026-05-02T12:10:36.999Z</time></trkpt><trkpt lat="44.411613219375056" lon="8.990167519163013"><ele>45.0</ele><time>2026-05-02T12:10:37.999Z</time></trkpt><trkpt lat="44.41171396578984" lon="8.990175230514572"><ele>46.8</ele><time>2026-05-02T12:10:38.999Z</time></trkpt><trkpt lat="44.4118137981932" lon="8.990193819136428"><ele>48.6</ele><time>2026-05-02T12:10:39.999Z</time></trkpt><trkpt lat="44.411897335108534" lon="8.990232293122961"><ele>50.400000000000006</ele><time>2026-05-02T12:10:40.999Z</time></trkpt><trkpt lat="44.41197319302609" lon="8.99030417286344"><ele>52.2</ele><time>2026-05-02T12:10:41.999Z</time></trkpt><trkpt lat="44.412033034781274" lon="8.990397121225909"><ele>54.0</ele><time>2026-05-02T12:10:42.999Z</time></trkpt><trkpt lat="44.41207141396452" lon="8.990551017562678"><ele>54.0</ele><time>2026-05-02T12:10:43.999Z</time></trkpt><trkpt lat="44.41213903637918" lon="8.990746111618455"><ele>54.0</ele><time>2026-05-02T12:10:44.999Z</time></trkpt><trkpt lat="44.41223314029803" lon="8.990936722326568"><ele>54.0</ele><time>2026-05-02T12:10:45.999Z</time></trkpt><trkpt lat="44.412307586311165" lon="8.991139565789505"><ele>55.6</ele><time>2026-05-02T12:10:46.999Z</time></trkpt><trkpt lat="44.41237716334958" lon="8.99128800392693"><ele>57.2</ele><time>2026-05-02T12:10:47.999Z</time></trkpt><trkpt lat="44.41243680991062" lon="8.991414452536215"><ele>58.800000000000004</ele><time>2026-05-02T12:10:48.999Z</time></trkpt><trkpt lat="44.412496076371475" lon="8.991519309590979"><ele>60.400000000000006</ele><time>2026-05-02T12:10:49.999Z</time></trkpt><trkpt lat="44.412573212615676" lon="8.991610369977248"><ele>62.0</ele><time>2026-05-02T12:10:50.999Z</time></trkpt><trkpt lat="44.41266307501716" lon="8.99167414157951"><ele>60.5</ele><time>2026-05-02T12:10:51.999Z</time></trkpt><trkpt lat="44.412765556077005" lon="8.991710083640184"><ele>59.0</ele><time>2026-05-02T12:10:53Z</time></trkpt><trkpt lat="44.412896168166526" lon="8.991720538846808"><ele>57.5</ele><time>2026-05-02T12:10:54Z</time></trkpt><trkpt lat="44.41303060692012" lon="8.991741750392857"><ele>56.0</ele><time>2026-05-02T12:10:55Z</time></trkpt><trkpt lat="44.413143593489686" lon="8.991783480407516"><ele>56.0</ele><time>2026-05-02T12:10:56Z</time></trkpt><trkpt lat="44.41324028686612" lon="8.991822061269035"><ele>56.0</ele><time>2026-05-02T12:10:57Z</time></trkpt><trkpt lat="44.41332749837683" lon="8.99189367598171"><ele>56.0</ele><time>2026-05-02T12:10:58Z</time></trkpt><trkpt lat="44.413443009140586" lon="8.991968432482585"><ele>56.0</ele><time>2026-05-02T12:10:59Z</time></trkpt><trkpt lat="44.41356066154864" lon="8.992085095248562"><ele>56.0</ele><time>2026-05-02T12:11:00Z</time></trkpt><trkpt lat="44.41365017834089" lon="8.992230354474328"><ele>56.0</ele><time>2026-05-02T12:11:01Z</time></trkpt><trkpt lat="44.41374353014086" lon="8.99233151790497"><ele>56.0</ele><time>2026-05-02T12:11:02Z</time></trkpt><trkpt lat="44.413805642866485" lon="8.992450749946725"><ele>56.0</ele><time>2026-05-02T12:11:03Z</time></trkpt><trkpt lat="44.41385653792312" lon="8.992566474175039"><ele>60.599999999999994</ele><time>2026-05-02T12:11:04Z</time></trkpt><trkpt lat="44.41389301481525" lon="8.992677292268878"><ele>65.19999999999999</ele><time>2026-05-02T12:11:05Z</time></trkpt><trkpt lat="44.41391825793402" lon="8.992812493598642"><ele>69.80000000000001</ele><time>2026-05-02T12:11:06Z</time></trkpt><trkpt lat="44.413942637893484" lon="8.992978884504778"><ele>74.4</ele><time>2026-05-02T12:11:07Z</time></trkpt><trkpt lat="44.41398368579593" lon="8.993124411124132"><ele>79.0</ele><time>2026-05-02T12:11:08Z</time></trkpt><trkpt lat="44.41404159817973" lon="8.993234659522663"><ele>79.0</ele><time>2026-05-02T12:11:09Z</time></trkpt><trkpt lat="44.41412473682908" lon="8.993313796148477"><ele>79.0</ele><time>2026-05-02T12:11:10Z</time></trkpt><trkpt lat="44.41423697088833" lon="8.993368675997145"><ele>79.0</ele><time>2026-05-02T12:11:11Z</time></trkpt><trkpt lat="44.41438918868874" lon="8.993393531985653"><ele>79.0</ele><time>2026-05-02T12:11:12Z</time></trkpt><trkpt lat="44.414517540573776" lon="8.993413941422014"><ele>79.2</ele><time>2026-05-02T12:11:13Z</time></trkpt><trkpt lat="44.41461972356253" lon="8.993440194272694"><ele>79.4</ele><time>2026-05-02T12:11:14Z</time></trkpt><trkpt lat="44.41469259564511" lon="8.993455607236644"><ele>79.6</ele><time>2026-05-02T12:11:15Z</time></trkpt><trkpt lat="44.41482008335248" lon="8.993518086220382"><ele>79.8</ele><time>2026-05-02T12:11:17Z</time></trkpt><trkpt lat="44.41489438868334" lon="8.993600956514927"><ele>80.0</ele><time>2026-05-02T12:11:18Z</time></trkpt><trkpt lat="44.41497547260211" lon="8.993706950538057"><ele>80.0</ele><time>2026-05-02T12:11:19Z</time></trkpt><trkpt lat="44.41506357995632" lon="8.993830163739585"><ele>80.0</ele><time>2026-05-02T12:11:20Z</time></trkpt><trkpt lat="44.41516569625826" lon="8.99395847107483"><ele>80.0</ele><time>2026-05-02T12:11:21Z</time></trkpt><trkpt lat="44.415258639800435" lon="8.994076448499133"><ele>80.0</ele><time>2026-05-02T12:11:22Z</time></trkpt><trkpt lat="44.415324982530926" lon="8.994201067703262"><ele>79.6</ele><time>2026-05-02T12:11:23Z</time></trkpt><trkpt lat="44.415399492847726" lon="8.994292487111418"><ele>79.2</ele><time>2026-05-02T12:11:24Z</time></trkpt><trkpt lat="44.41542971857316" lon="8.994419667767819"><ele>78.8</ele><time>2026-05-02T12:11:25Z</time></trkpt><trkpt lat="44.415431595193276" lon="8.994551587097188"><ele>78.4</ele><time>2026-05-02T12:11:26Z</time></trkpt><trkpt lat="44.415407825525975" lon="8.994682457373429"><ele>78.0</ele><time>2026-05-02T12:11:27Z</time></trkpt><trkpt lat="44.41536336181521" lon="8.994829017647852"><ele>80.33333333333333</ele><time>2026-05-02T12:11:28Z</time></trkpt><trkpt lat="44.41533121685023" lon="8.995013404812305"><ele>82.66666666666666</ele><time>2026-05-02T12:11:29Z</time></trkpt><trkpt lat="44.41531364012562" lon="8.995240488652223"><ele>85.0</ele><time>2026-05-02T12:11:30Z</time></trkpt><trkpt lat="44.41529139448615" lon="8.995458305262249"><ele>85.0</ele><time>2026-05-02T12:11:31Z</time></trkpt><trkpt lat="44.41526221330815" lon="8.995652750257422"><ele>85.0</ele><time>2026-05-02T12:11:32Z</time></trkpt><trkpt lat="44.41524766808827" lon="8.995821229226163"><ele>85.0</ele><time>2026-05-02T12:11:33Z</time></trkpt><trkpt lat="44.4152472626403" lon="8.995969728718437"><ele>85.0</ele><time>2026-05-02T12:11:34Z</time></trkpt><trkpt lat="44.415267508978644" lon="8.996091898826947"><ele>81.8</ele><time>2026-05-02T12:11:35Z</time></trkpt><trkpt lat="44.415318596564084" lon="8.996197393012928"><ele>78.6</ele><time>2026-05-02T12:11:36Z</time></trkpt><trkpt lat="44.41539384888144" lon="8.99628338467089"><ele>75.4</ele><time>2026-05-02T12:11:37Z</time></trkpt><trkpt lat="44.41549948183107" lon="8.996348744893481"><ele>72.2</ele><time>2026-05-02T12:11:38Z</time></trkpt><trkpt lat="44.415596010884805" lon="8.996435921580229"><ele>69.0</ele><time>2026-05-02T12:11:39Z</time></trkpt><trkpt lat="44.41565740014405" lon="8.996587146062959"><ele>73.0</ele><time>2026-05-02T12:11:40Z</time></trkpt><trkpt lat="44.41574027095564" lon="8.996710156509314"><ele>77.0</ele><time>2026-05-02T12:11:41Z</time></trkpt><trkpt lat="44.415801544950426" lon="8.996852643664067"><ele>81.0</ele><time>2026-05-02T12:11:42Z</time></trkpt><trkpt lat="44.415868585009136" lon="8.996973247298813"><ele>85.0</ele><time>2026-05-02T12:11:43Z</time></trkpt><trkpt lat="44.41589286397768" lon="8.997123416342196"><ele>85.0</ele><time>2026-05-02T12:11:44Z</time></trkpt><trkpt lat="44.415907504893" lon="8.997281651387912"><ele>85.0</ele><time>2026-05-02T12:11:45Z</time></trkpt><trkpt lat="44.41590165909096" lon="8.997433287867493"><ele>85.0</ele><time>2026-05-02T12:11:46Z</time></trkpt><trkpt lat="44.4158895131505" lon="8.997574778265683"><ele>85.0</ele><time>2026-05-02T12:11:47Z</time></trkpt><trkpt lat="44.41588924088336" lon="8.997699980444786"><ele>85.0</ele><time>2026-05-02T12:11:48Z</time></trkpt><trkpt lat="44.41591522098723" lon="8.99781112126005"><ele>82.6</ele><time>2026-05-02T12:11:49Z</time></trkpt><trkpt lat="44.415956826443505" lon="8.997920215514021"><ele>80.2</ele><time>2026-05-02T12:11:50Z</time></trkpt><trkpt lat="44.41601150245497" lon="8.998011251029414"><ele>77.8</ele><time>2026-05-02T12:11:51Z</time></trkpt><trkpt lat="44.41608458722093" lon="8.998072377237458"><ele>75.4</ele><time>2026-05-02T12:11:52Z</time></trkpt><trkpt lat="44.41617653979887" lon="8.998101752600723"><ele>73.0</ele><time>2026-05-02T12:11:53Z</time></trkpt><trkpt lat="44.41627589259876" lon="8.998096745668219"><ele>78.0</ele><time>2026-05-02T12:11:54.001Z</time></trkpt><trkpt lat="44.416367567180856" lon="8.998076461669823"><ele>83.0</ele><time>2026-05-02T12:11:55.001Z</time></trkpt><trkpt lat="44.416456910601156" lon="8.998077834845411"><ele>88.0</ele><time>2026-05-02T12:11:56.001Z</time></trkpt><trkpt lat="44.416553620108054" lon="8.998119534131348"><ele>93.0</ele><time>2026-05-02T12:11:57.001Z</time></trkpt><trkpt lat="44.41665228809888" lon="8.99820002674284"><ele>98.0</ele><time>2026-05-02T12:11:58.001Z</time></trkpt><trkpt lat="44.416760458297944" lon="8.998294726106499"><ele>93.5</ele><time>2026-05-02T12:11:59.001Z</time></trkpt><trkpt lat="44.41686799322366" lon="8.99839544086975"><ele>89.0</ele><time>2026-05-02T12:12:00.001Z</time></trkpt><trkpt lat="44.41696416230418" lon="8.998515546046605"><ele>84.5</ele><time>2026-05-02T12:12:01.001Z</time></trkpt><trkpt lat="44.41704851463692" lon="8.998652221189099"><ele>80.0</ele><time>2026-05-02T12:12:02.001Z</time></trkpt><trkpt lat="44.417128352356045" lon="8.998776949777607"><ele>88.8</ele><time>2026-05-02T12:12:03.001Z</time></trkpt><trkpt lat="44.41720560169739" lon="8.998876619950446"><ele>97.6</ele><time>2026-05-02T12:12:04.001Z</time></trkpt><trkpt lat="44.417259603667745" lon="8.998978865883409"><ele>106.4</ele><time>2026-05-02T12:12:05.001Z</time></trkpt><trkpt lat="44.41727487234925" lon="8.999106747000386"><ele>115.2</ele><time>2026-05-02T12:12:06.001Z</time></trkpt><trkpt lat="44.417270209878595" lon="8.999266953931928"><ele>124.0</ele><time>2026-05-02T12:12:07.001Z</time></trkpt><trkpt lat="44.41726286427099" lon="8.999456165560105"><ele>124.0</ele><time>2026-05-02T12:12:08.001Z</time></trkpt><trkpt lat="44.41725930265005" lon="8.999632071588987"><ele>124.0</ele><time>2026-05-02T12:12:09.001Z</time></trkpt><trkpt lat="44.41725215596959" lon="8.999809919658432"><ele>124.0</ele><time>2026-05-02T12:12:10.001Z</time></trkpt><trkpt lat="44.4172427039378" lon="8.999995079127773"><ele>124.0</ele><time>2026-05-02T12:12:11.001Z</time></trkpt><trkpt lat="44.41722857292769" lon="9.000183152154282"><ele>124.0</ele><time>2026-05-02T12:12:12.001Z</time></trkpt><trkpt lat="44.41721123494003" lon="9.000370175301143"><ele>124.0</ele><time>2026-05-02T12:12:13.001Z</time></trkpt><trkpt lat="44.4171975408235" lon="9.000561381458661"><ele>124.0</ele><time>2026-05-02T12:12:14.001Z</time></trkpt><trkpt lat="44.41718866317451" lon="9.000764871443412"><ele>124.0</ele><time>2026-05-02T12:12:15.001Z</time></trkpt><trkpt lat="44.41719321611597" lon="9.0009637097656"><ele>122.75</ele><time>2026-05-02T12:12:16.001Z</time></trkpt><trkpt lat="44.41719844099168" lon="9.001156456585319"><ele>121.5</ele><time>2026-05-02T12:12:17.001Z</time></trkpt><trkpt lat="44.417195982056164" lon="9.001338135398091"><ele>120.25</ele><time>2026-05-02T12:12:18.001Z</time></trkpt><trkpt lat="44.41719100747773" lon="9.001506733522405"><ele>119.0</ele><time>2026-05-02T12:12:19.001Z</time></trkpt><trkpt lat="44.41718397001768" lon="9.00165225503099"><ele>117.49999999999999</ele><time>2026-05-02T12:12:20.001Z</time></trkpt><trkpt lat="44.417181774858484" lon="9.001771458254584"><ele>116.0</ele><time>2026-05-02T12:12:21.001Z</time></trkpt><trkpt lat="44.41718965268034" lon="9.001863351221777"><ele>114.5</ele><time>2026-05-02T12:12:22.001Z</time></trkpt><trkpt lat="44.4172709707596" lon="9.001966074064141"><ele>113.0</ele><time>2026-05-02T12:12:24.001Z</time></trkpt><trkpt lat="44.41734175354314" lon="9.00198199125693"><ele>111.49999999999999</ele><time>2026-05-02T12:12:25.001Z</time></trkpt><trkpt lat="44.417435775171995" lon="9.00194277091565"><ele>110.0</ele><time>2026-05-02T12:12:26.001Z</time></trkpt><trkpt lat="44.41753603800089" lon="9.00189444470099"><ele>110.0</ele><time>2026-05-02T12:12:27.001Z</time></trkpt><trkpt lat="44.41764298897309" lon="9.001826387353422"><ele>110.0</ele><time>2026-05-02T12:12:28.001Z</time></trkpt><trkpt lat="44.41778908674696" lon="9.001733955517118"><ele>110.0</ele><time>2026-05-02T12:12:29.001Z</time></trkpt><trkpt lat="44.417944257007406" lon="9.001609902980785"><ele>121.33333333333333</ele><time>2026-05-02T12:12:30.001Z</time></trkpt><trkpt lat="44.418134865240475" lon="9.001498243676808"><ele>132.66666666666666</ele><time>2026-05-02T12:12:31.001Z</time></trkpt><trkpt lat="44.41828495510641" lon="9.00139514204826"><ele>144.0</ele><time>2026-05-02T12:12:32.001Z</time></trkpt><trkpt lat="44.4184289454514" lon="9.001290929643194"><ele>144.0</ele><time>2026-05-02T12:12:32.999Z</time></trkpt><trkpt lat="44.41859443959045" lon="9.001314652685098"><ele>144.0</ele><time>2026-05-02T12:12:33.999Z</time></trkpt><trkpt lat="44.4187597055505" lon="9.001301077992276"><ele>144.0</ele><time>2026-05-02T12:12:34.999Z</time></trkpt><trkpt lat="44.41888777519644" lon="9.001266422291694"><ele>141.6</ele><time>2026-05-02T12:12:35.999Z</time></trkpt><trkpt lat="44.418976053990505" lon="9.001228697235545"><ele>139.2</ele><time>2026-05-02T12:12:36.999Z</time></trkpt><trkpt lat="44.41907462306968" lon="9.00112584512337"><ele>136.79999999999998</ele><time>2026-05-02T12:12:37.999Z</time></trkpt><trkpt lat="44.41914966863541" lon="9.001005037482825"><ele>134.4</ele><time>2026-05-02T12:12:38.999Z</time></trkpt><trkpt lat="44.41921575042793" lon="9.000923757697867"><ele>132.0</ele><time>2026-05-02T12:12:39.999Z</time></trkpt><trkpt lat="44.4192988925816" lon="9.000915981629358"><ele>132.0</ele><time>2026-05-02T12:12:40.999Z</time></trkpt><trkpt lat="44.419372066523856" lon="9.001016046766164"><ele>132.0</ele><time>2026-05-02T12:12:41.999Z</time></trkpt><trkpt lat="44.41945776938497" lon="9.00111435762066"><ele>132.0</ele><time>2026-05-02T12:12:42.999Z</time></trkpt><trkpt lat="44.419524824833736" lon="9.001244603425901"><ele>132.0</ele><time>2026-05-02T12:12:43.999Z</time></trkpt><trkpt lat="44.41955090762685" lon="9.001381481006518"><ele>132.0</ele><time>2026-05-02T12:12:44.999Z</time></trkpt><trkpt lat="44.41958841136155" lon="9.001558650151377"><ele>133.66666666666666</ele><time>2026-05-02T12:12:45.999Z</time></trkpt><trkpt lat="44.419664198592585" lon="9.001736571522917"><ele>135.33333333333331</ele><time>2026-05-02T12:12:46.999Z</time></trkpt><trkpt lat="44.41976063648432" lon="9.001916069664652"><ele>137.0</ele><time>2026-05-02T12:12:47.999Z</time></trkpt><trkpt lat="44.419885315106136" lon="9.002069095136292"><ele>137.0</ele><time>2026-05-02T12:12:49Z</time></trkpt><trkpt lat="44.41997011643894" lon="9.002211380312229"><ele>137.0</ele><time>2026-05-02T12:12:50Z</time></trkpt><trkpt lat="44.42004122192843" lon="9.002358298690256"><ele>137.0</ele><time>2026-05-02T12:12:51Z</time></trkpt><trkpt lat="44.420095782319926" lon="9.00251470404613"><ele>137.0</ele><time>2026-05-02T12:12:52Z</time></trkpt><trkpt lat="44.420130261566165" lon="9.002672319809536"><ele>134.4</ele><time>2026-05-02T12:12:53Z</time></trkpt><trkpt lat="44.42014581795436" lon="9.002855272365295"><ele>131.79999999999998</ele><time>2026-05-02T12:12:54Z</time></trkpt><trkpt lat="44.42017741200567" lon="9.003015940042966"><ele>129.2</ele><time>2026-05-02T12:12:55Z</time></trkpt><trkpt lat="44.420202757544146" lon="9.00311402913002"><ele>126.6</ele><time>2026-05-02T12:12:56Z</time></trkpt><trkpt lat="44.42025240245114" lon="9.003184126116444"><ele>124.0</ele><time>2026-05-02T12:12:57Z</time></trkpt><trkpt lat="44.42033052699501" lon="9.003226035689828"><ele>124.0</ele><time>2026-05-02T12:12:58Z</time></trkpt><trkpt lat="44.420418572998884" lon="9.003229705289852"><ele>124.0</ele><time>2026-05-02T12:12:59Z</time></trkpt><trkpt lat="44.420514994796825" lon="9.00318546195926"><ele>124.0</ele><time>2026-05-02T12:13:00Z</time></trkpt><trkpt lat="44.42062282764574" lon="9.003105924552887"><ele>124.0</ele><time>2026-05-02T12:13:01Z</time></trkpt><trkpt lat="44.42076126931758" lon="9.003019193611998"><ele>132.0</ele><time>2026-05-02T12:13:02Z</time></trkpt><trkpt lat="44.42089700632118" lon="9.002926628930837"><ele>140.0</ele><time>2026-05-02T12:13:03Z</time></trkpt><trkpt lat="44.4210315224068" lon="9.002808408395152"><ele>148.0</ele><time>2026-05-02T12:13:04Z</time></trkpt><trkpt lat="44.421170160555306" lon="9.002703378853415"><ele>148.0</ele><time>2026-05-02T12:13:05Z</time></trkpt><trkpt lat="44.42130225622531" lon="9.00258161489775"><ele>148.0</ele><time>2026-05-02T12:13:06Z</time></trkpt><trkpt lat="44.421448875640145" lon="9.002449114734478"><ele>148.0</ele><time>2026-05-02T12:13:07Z</time></trkpt><trkpt lat="44.42159464028478" lon="9.002338206021463"><ele>153.0</ele><time>2026-05-02T12:13:08Z</time></trkpt><trkpt lat="44.42172889590363" lon="9.002239725324321"><ele>158.0</ele><time>2026-05-02T12:13:09Z</time></trkpt><trkpt lat="44.421850867576396" lon="9.00215527426176"><ele>163.0</ele><time>2026-05-02T12:13:10Z</time></trkpt><trkpt lat="44.42194864208556" lon="9.002066402161349"><ele>168.0</ele><time>2026-05-02T12:13:11Z</time></trkpt><trkpt lat="44.42202845385125" lon="9.001962271877222"><ele>168.0</ele><time>2026-05-02T12:13:12Z</time></trkpt><trkpt lat="44.422098836669655" lon="9.001828400025992"><ele>168.0</ele><time>2026-05-02T12:13:13Z</time></trkpt><trkpt lat="44.422149985269954" lon="9.001687894348494"><ele>168.0</ele><time>2026-05-02T12:13:14Z</time></trkpt><trkpt lat="44.422245257324825" lon="9.001604493381276"><ele>168.0</ele><time>2026-05-02T12:13:15Z</time></trkpt><trkpt lat="44.42237359709769" lon="9.001529955187667"><ele>170.75</ele><time>2026-05-02T12:13:16Z</time></trkpt><trkpt lat="44.42251468968981" lon="9.001432955848694"><ele>173.5</ele><time>2026-05-02T12:13:17Z</time></trkpt><trkpt lat="44.42264080774318" lon="9.001350147859016"><ele>176.25</ele><time>2026-05-02T12:13:18Z</time></trkpt><trkpt lat="44.42275555169688" lon="9.00127467749786"><ele>179.0</ele><time>2026-05-02T12:13:19Z</time></trkpt><trkpt lat="44.42286822703033" lon="9.001213739907012"><ele>176.75</ele><time>2026-05-02T12:13:20Z</time></trkpt><trkpt lat="44.42298902562466" lon="9.001189252614903"><ele>174.5</ele><time>2026-05-02T12:13:21Z</time></trkpt><trkpt lat="44.42311880103743" lon="9.001239360632074"><ele>172.25</ele><time>2026-05-02T12:13:22Z</time></trkpt><trkpt lat="44.423262102969375" lon="9.001222775495833"><ele>170.0</ele><time>2026-05-02T12:13:23Z</time></trkpt><trkpt lat="44.42340678700155" lon="9.001189758254485"><ele>170.0</ele><time>2026-05-02T12:13:24Z</time></trkpt><trkpt lat="44.42352904754985" lon="9.001127534497193"><ele>170.0</ele><time>2026-05-02T12:13:25Z</time></trkpt><trkpt lat="44.42364373313848" lon="9.00113457000904"><ele>170.0</ele><time>2026-05-02T12:13:26Z</time></trkpt><trkpt lat="44.42375270511824" lon="9.001146392416299"><ele>170.0</ele><time>2026-05-02T12:13:27Z</time></trkpt><trkpt lat="44.423858426935844" lon="9.001128299687045"><ele>169.83333333333331</ele><time>2026-05-02T12:13:28Z</time></trkpt><trkpt lat="44.42395390082117" lon="9.001105840957154"><ele>169.66666666666666</ele><time>2026-05-02T12:13:29Z</time></trkpt><trkpt lat="44.42403133623673" lon="9.001116036022504"><ele>169.5</ele><time>2026-05-02T12:13:30Z</time></trkpt><trkpt lat="44.4240985646241" lon="9.001117238539395"><ele>169.33333333333334</ele><time>2026-05-02T12:13:31Z</time></trkpt><trkpt lat="44.42416221897283" lon="9.00113076855245"><ele>169.16666666666669</ele><time>2026-05-02T12:13:32Z</time></trkpt><trkpt lat="44.424221567693806" lon="9.001289029022615"><ele>169.0</ele><time>2026-05-02T12:13:34Z</time></trkpt><trkpt lat="44.42424374931473" lon="9.00140234987973"><ele>169.0</ele><time>2026-05-02T12:13:35.001Z</time></trkpt><trkpt lat="44.42423420675227" lon="9.001515674746114"><ele>169.0</ele><time>2026-05-02T12:13:36.001Z</time></trkpt><trkpt lat="44.424198675006124" lon="9.001634394947704"><ele>169.0</ele><time>2026-05-02T12:13:37.001Z</time></trkpt><trkpt lat="44.42409029372211" lon="9.001645403391192"><ele>169.0</ele><time>2026-05-02T12:13:38.001Z</time></trkpt><trkpt lat="44.42398214986392" lon="9.001706659632234"><ele>169.0</ele><time>2026-05-02T12:13:39.001Z</time></trkpt><trkpt lat="44.42387191897715" lon="9.001803007265632"><ele>163.75</ele><time>2026-05-02T12:13:40.001Z</time></trkpt><trkpt lat="44.42375440578093" lon="9.001917930470018"><ele>158.5</ele><time>2026-05-02T12:13:41.001Z</time></trkpt><trkpt lat="44.42363847376966" lon="9.00201968474376"><ele>153.25</ele><time>2026-05-02T12:13:42.001Z</time></trkpt><trkpt lat="44.42351357213586" lon="9.002107291069121"><ele>148.0</ele><time>2026-05-02T12:13:43.001Z</time></trkpt><trkpt lat="44.42339759281512" lon="9.002190102887928"><ele>148.0</ele><time>2026-05-02T12:13:44.001Z</time></trkpt><trkpt lat="44.42328622134974" lon="9.002271268376631"><ele>148.0</ele><time>2026-05-02T12:13:45.001Z</time></trkpt><trkpt lat="44.42317463865411" lon="9.002362445136836"><ele>148.0</ele><time>2026-05-02T12:13:46.001Z</time></trkpt><trkpt lat="44.42306980471747" lon="9.002486455143694"><ele>148.0</ele><time>2026-05-02T12:13:47.001Z</time></trkpt><trkpt lat="44.42297555953229" lon="9.002641664254382"><ele>146.0</ele><time>2026-05-02T12:13:48.001Z</time></trkpt><trkpt lat="44.42288246336023" lon="9.00280104524027"><ele>144.0</ele><time>2026-05-02T12:13:49.001Z</time></trkpt><trkpt lat="44.422776532482956" lon="9.002943678951564"><ele>142.0</ele><time>2026-05-02T12:13:50.001Z</time></trkpt><trkpt lat="44.42266777836196" lon="9.00306424179832"><ele>140.0</ele><time>2026-05-02T12:13:51.001Z</time></trkpt><trkpt lat="44.42257242160823" lon="9.003187572462801"><ele>147.25</ele><time>2026-05-02T12:13:52.001Z</time></trkpt><trkpt lat="44.42249668893803" lon="9.003347761803804"><ele>154.5</ele><time>2026-05-02T12:13:53.001Z</time></trkpt><trkpt lat="44.42243325014823" lon="9.003529488357737"><ele>161.75</ele><time>2026-05-02T12:13:54.001Z</time></trkpt><trkpt lat="44.42237013212219" lon="9.003715746659017"><ele>169.0</ele><time>2026-05-02T12:13:55.001Z</time></trkpt><trkpt lat="44.422297427731664" lon="9.003890428731301"><ele>169.0</ele><time>2026-05-02T12:13:56.001Z</time></trkpt><trkpt lat="44.42221605108363" lon="9.004025172200844"><ele>169.0</ele><time>2026-05-02T12:13:57.001Z</time></trkpt><trkpt lat="44.42211565076733" lon="9.00413521247946"><ele>169.0</ele><time>2026-05-02T12:13:58.001Z</time></trkpt><trkpt lat="44.42199554932621" lon="9.00424477377704"><ele>169.0</ele><time>2026-05-02T12:13:59.001Z</time></trkpt><trkpt lat="44.42186214121531" lon="9.004361923964627"><ele>167.75</ele><time>2026-05-02T12:14:00.001Z</time></trkpt><trkpt lat="44.42172992493037" lon="9.004487111075742"><ele>166.5</ele><time>2026-05-02T12:14:01.001Z</time></trkpt><trkpt lat="44.42161247073071" lon="9.004603969952308"><ele>165.25</ele><time>2026-05-02T12:14:02.001Z</time></trkpt><trkpt lat="44.421500878309125" lon="9.004701350515862"><ele>164.0</ele><time>2026-05-02T12:14:03.001Z</time></trkpt><trkpt lat="44.421398781060255" lon="9.004794871452527"><ele>164.0</ele><time>2026-05-02T12:14:04.001Z</time></trkpt><trkpt lat="44.42132174206166" lon="9.004928256792052"><ele>164.0</ele><time>2026-05-02T12:14:05.001Z</time></trkpt><trkpt lat="44.421258420866224" lon="9.005092330673374"><ele>164.0</ele><time>2026-05-02T12:14:06.001Z</time></trkpt><trkpt lat="44.421211599051965" lon="9.005232804071133"><ele>164.0</ele><time>2026-05-02T12:14:07.001Z</time></trkpt><trkpt lat="44.421161009941336" lon="9.005348269808044"><ele>164.0</ele><time>2026-05-02T12:14:08.001Z</time></trkpt><trkpt lat="44.42109631772545" lon="9.005449299383953"><ele>164.0</ele><time>2026-05-02T12:14:09.001Z</time></trkpt><trkpt lat="44.42103847886244" lon="9.00553939816672"><ele>164.0</ele><time>2026-05-02T12:14:10.001Z</time></trkpt><trkpt lat="44.42100870144684" lon="9.005640124604039"><ele>164.0</ele><time>2026-05-02T12:14:11.001Z</time></trkpt><trkpt lat="44.42101009179783" lon="9.00576443360967"><ele>164.0</ele><time>2026-05-02T12:14:12.001Z</time></trkpt><trkpt lat="44.421050837932185" lon="9.00588202124223"><ele>164.0</ele><time>2026-05-02T12:14:13.001Z</time></trkpt><trkpt lat="44.42112620925273" lon="9.005989205482773"><ele>165.0</ele><time>2026-05-02T12:14:14.001Z</time></trkpt><trkpt lat="44.4212229281147" lon="9.006073140849217"><ele>166.0</ele><time>2026-05-02T12:14:15.001Z</time></trkpt><trkpt lat="44.4213442125961" lon="9.006133605414055"><ele>167.0</ele><time>2026-05-02T12:14:16.001Z</time></trkpt><trkpt lat="44.42147905957513" lon="9.006177227796334"><ele>168.0</ele><time>2026-05-02T12:14:17.001Z</time></trkpt><trkpt lat="44.42160601526572" lon="9.006223933610947"><ele>175.75</ele><time>2026-05-02T12:14:18.001Z</time></trkpt><trkpt lat="44.42174913941059" lon="9.006242891512622"><ele>183.5</ele><time>2026-05-02T12:14:19.001Z</time></trkpt><trkpt lat="44.421891909347195" lon="9.00623216024653"><ele>191.25</ele><time>2026-05-02T12:14:20.001Z</time></trkpt><trkpt lat="44.42200050715613" lon="9.006236038290433"><ele>199.0</ele><time>2026-05-02T12:14:21.001Z</time></trkpt><trkpt lat="44.422083030605876" lon="9.006269316155597"><ele>199.0</ele><time>2026-05-02T12:14:22.001Z</time></trkpt><trkpt lat="44.42213548719747" lon="9.006344184802682"><ele>199.0</ele><time>2026-05-02T12:14:23.001Z</time></trkpt><trkpt lat="44.42219377654586" lon="9.006483015820978"><ele>199.0</ele><time>2026-05-02T12:14:24.001Z</time></trkpt><trkpt lat="44.42230192435367" lon="9.006576694822659"><ele>199.0</ele><time>2026-05-02T12:14:25.001Z</time></trkpt><trkpt lat="44.422425737967636" lon="9.00665441904806"><ele>199.0</ele><time>2026-05-02T12:14:26.001Z</time></trkpt><trkpt lat="44.422535958883024" lon="9.006726885703122"><ele>199.0</ele><time>2026-05-02T12:14:27.001Z</time></trkpt><trkpt lat="44.42257565981239" lon="9.00687463097455"><ele>199.0</ele><time>2026-05-02T12:14:28.001Z</time></trkpt><trkpt lat="44.42264211067846" lon="9.006971770890933"><ele>199.0</ele><time>2026-05-02T12:14:29.001Z</time></trkpt><trkpt lat="44.42271614121803" lon="9.007061688287667"><ele>199.0</ele><time>2026-05-02T12:14:30.001Z</time></trkpt><trkpt lat="44.42283711990631" lon="9.007130073857327"><ele>199.0</ele><time>2026-05-02T12:14:31.001Z</time></trkpt><trkpt lat="44.42297284241483" lon="9.007191618968076"><ele>199.0</ele><time>2026-05-02T12:14:32.001Z</time></trkpt><trkpt lat="44.423111458433915" lon="9.007247812637061"><ele>199.0</ele><time>2026-05-02T12:14:33.001Z</time></trkpt><trkpt lat="44.423216923035234" lon="9.007351496305246"><ele>199.0</ele><time>2026-05-02T12:14:34.001Z</time></trkpt><trkpt lat="44.423311346429706" lon="9.007424536074028"><ele>201.0</ele><time>2026-05-02T12:14:35.001Z</time></trkpt><trkpt lat="44.42336393286074" lon="9.00756463228603"><ele>203.0</ele><time>2026-05-02T12:14:36.001Z</time></trkpt><trkpt lat="44.423449593600935" lon="9.00768434656418"><ele>205.0</ele><time>2026-05-02T12:14:37.001Z</time></trkpt><trkpt lat="44.42353539627878" lon="9.007796556385195"><ele>207.0</ele><time>2026-05-02T12:14:38.001Z</time></trkpt><trkpt lat="44.423623273986294" lon="9.007882133663927"><ele>207.0</ele><time>2026-05-02T12:14:39Z</time></trkpt><trkpt lat="44.42371126997754" lon="9.007957779047638"><ele>207.0</ele><time>2026-05-02T12:14:40Z</time></trkpt><trkpt lat="44.42380531884539" lon="9.00802784384477"><ele>207.0</ele><time>2026-05-02T12:14:41Z</time></trkpt><trkpt lat="44.42390744689858" lon="9.008077051829698"><ele>207.0</ele><time>2026-05-02T12:14:42Z</time></trkpt><trkpt lat="44.42401553170599" lon="9.008090625374793"><ele>207.0</ele><time>2026-05-02T12:14:43Z</time></trkpt><trkpt lat="44.4241328454228" lon="9.008067221542394"><ele>215.0</ele><time>2026-05-02T12:14:44Z</time></trkpt><trkpt lat="44.424255712392245" lon="9.008033855816596"><ele>223.0</ele><time>2026-05-02T12:14:45Z</time></trkpt><trkpt lat="44.4243840940705" lon="9.008015454771517"><ele>231.0</ele><time>2026-05-02T12:14:46Z</time></trkpt><trkpt lat="44.42450844605749" lon="9.008057745520528"><ele>239.0</ele><time>2026-05-02T12:14:47Z</time></trkpt><trkpt lat="44.42463465821221" lon="9.00810816695506"><ele>242.25</ele><time>2026-05-02T12:14:48Z</time></trkpt><trkpt lat="44.42476958504665" lon="9.008147009379911"><ele>245.5</ele><time>2026-05-02T12:14:49Z</time></trkpt><trkpt lat="44.42487886559395" lon="9.008196650255359"><ele>248.75</ele><time>2026-05-02T12:14:50Z</time></trkpt><trkpt lat="44.424977476298864" lon="9.008208835853964"><ele>252.0</ele><time>2026-05-02T12:14:51Z</time></trkpt><trkpt lat="44.425076497638024" lon="9.008210608794494"><ele>252.0</ele><time>2026-05-02T12:14:52Z</time></trkpt><trkpt lat="44.4251634859059" lon="9.008194778326134"><ele>252.0</ele><time>2026-05-02T12:14:53Z</time></trkpt><trkpt lat="44.42525945175223" lon="9.008202775098349"><ele>252.0</ele><time>2026-05-02T12:14:54Z</time></trkpt><trkpt lat="44.42535019339252" lon="9.008187694561544"><ele>252.0</ele><time>2026-05-02T12:14:55Z</time></trkpt><trkpt lat="44.42542571578682" lon="9.008172256392514"><ele>252.0</ele><time>2026-05-02T12:14:56Z</time></trkpt><trkpt lat="44.42551979233484" lon="9.008119935824826"><ele>252.0</ele><time>2026-05-02T12:14:58Z</time></trkpt><trkpt lat="44.42558430334349" lon="9.008117459554962"><ele>252.0</ele><time>2026-05-02T12:15:00Z</time></trkpt><trkpt lat="44.425648770713416" lon="9.008085816263547"><ele>252.0</ele><time>2026-05-02T12:15:04Z</time></trkpt><trkpt lat="44.42571018834429" lon="9.008055623940674"><ele>252.0</ele><time>2026-05-02T12:15:46.001Z</time></trkpt><trkpt lat="44.42580856858454" lon="9.007956876999856"><ele>252.0</ele><time>2026-05-02T12:16:49.001Z</time></trkpt><trkpt lat="44.42586243209225" lon="9.007882109645196"><ele>252.0</ele><time>2026-05-02T12:16:50.001Z</time></trkpt><trkpt lat="44.42592217288883" lon="9.007821987551237"><ele>252.0</ele><time>2026-05-02T12:16:51.001Z</time></trkpt><trkpt lat="44.42599449820581" lon="9.007789256061297"><ele>252.0</ele><time>2026-05-02T12:16:52.001Z</time></trkpt><trkpt lat="44.42606578259662" lon="9.007789426301189"><ele>252.0</ele><time>2026-05-02T12:16:53.001Z</time></trkpt><trkpt lat="44.42614964614456" lon="9.00791075939075"><ele>252.0</ele><time>2026-05-02T12:16:55.001Z</time></trkpt><trkpt lat="44.426204727029884" lon="9.007974128884891"><ele>252.0</ele><time>2026-05-02T12:16:56.001Z</time></trkpt><trkpt lat="44.42622117727245" lon="9.00807029898182"><ele>252.0</ele><time>2026-05-02T12:16:57.001Z</time></trkpt><trkpt lat="44.426236492500166" lon="9.008179460396315"><ele>245.75</ele><time>2026-05-02T12:16:58.001Z</time></trkpt><trkpt lat="44.42626865094669" lon="9.008334829164014"><ele>239.5</ele><time>2026-05-02T12:16:59.001Z</time></trkpt><trkpt lat="44.42628676680611" lon="9.008505305153824"><ele>233.25</ele><time>2026-05-02T12:17:00.001Z</time></trkpt><trkpt lat="44.42631404416733" lon="9.008675538565758"><ele>227.0</ele><time>2026-05-02T12:17:01.001Z</time></trkpt><trkpt lat="44.42634898621848" lon="9.008852510642088"><ele>227.0</ele><time>2026-05-02T12:17:02.001Z</time></trkpt><trkpt lat="44.42638111073527" lon="9.009029580928427"><ele>227.0</ele><time>2026-05-02T12:17:03.001Z</time></trkpt><trkpt lat="44.42640373892636" lon="9.00920482190012"><ele>227.0</ele><time>2026-05-02T12:17:04.001Z</time></trkpt><trkpt lat="44.42642358313117" lon="9.009380603032387"><ele>227.0</ele><time>2026-05-02T12:17:05.001Z</time></trkpt><trkpt lat="44.42646146404857" lon="9.009549495761982"><ele>226.25</ele><time>2026-05-02T12:17:06.001Z</time></trkpt><trkpt lat="44.42653263345319" lon="9.009719105007587"><ele>225.5</ele><time>2026-05-02T12:17:07.001Z</time></trkpt><trkpt lat="44.42662373234536" lon="9.009893001278936"><ele>224.75</ele><time>2026-05-02T12:17:08.001Z</time></trkpt><trkpt lat="44.42671722637652" lon="9.010060424645035"><ele>224.0</ele><time>2026-05-02T12:17:09.001Z</time></trkpt><trkpt lat="44.42680749366597" lon="9.010221571625419"><ele>222.75</ele><time>2026-05-02T12:17:10.001Z</time></trkpt><trkpt lat="44.42689112400213" lon="9.010382124583801"><ele>221.5</ele><time>2026-05-02T12:17:11.001Z</time></trkpt><trkpt lat="44.42696728892199" lon="9.010530067527574"><ele>220.25</ele><time>2026-05-02T12:17:12.001Z</time></trkpt><trkpt lat="44.42703793002113" lon="9.010668824942812"><ele>219.0</ele><time>2026-05-02T12:17:13.001Z</time></trkpt><trkpt lat="44.42711912298834" lon="9.01080169993527"><ele>221.75</ele><time>2026-05-02T12:17:14.001Z</time></trkpt><trkpt lat="44.42721721817297" lon="9.010912425066927"><ele>224.5</ele><time>2026-05-02T12:17:15.001Z</time></trkpt><trkpt lat="44.42733527627072" lon="9.011005661644074"><ele>227.25</ele><time>2026-05-02T12:17:16.001Z</time></trkpt><trkpt lat="44.427467876409246" lon="9.011096704578527"><ele>230.0</ele><time>2026-05-02T12:17:17.001Z</time></trkpt><trkpt lat="44.427605722407115" lon="9.011207471852215"><ele>230.0</ele><time>2026-05-02T12:17:18.001Z</time></trkpt><trkpt lat="44.427735114336805" lon="9.011334074606095"><ele>230.0</ele><time>2026-05-02T12:17:19.001Z</time></trkpt><trkpt lat="44.427855765526274" lon="9.011452322313508"><ele>230.0</ele><time>2026-05-02T12:17:20.001Z</time></trkpt><trkpt lat="44.427956823182235" lon="9.01156064017955"><ele>230.0</ele><time>2026-05-02T12:17:21.001Z</time></trkpt><trkpt lat="44.428066819726084" lon="9.011596837015436"><ele>231.50000000000003</ele><time>2026-05-02T12:17:22.001Z</time></trkpt><trkpt lat="44.42815353851737" lon="9.01164584229071"><ele>233.0</ele><time>2026-05-02T12:17:23.001Z</time></trkpt><trkpt lat="44.428227945627214" lon="9.011692941402027"><ele>234.5</ele><time>2026-05-02T12:17:24.001Z</time></trkpt><trkpt lat="44.428295955341994" lon="9.011744907910755"><ele>236.0</ele><time>2026-05-02T12:17:25.001Z</time></trkpt><trkpt lat="44.4283544899418" lon="9.011816047658181"><ele>237.50000000000003</ele><time>2026-05-02T12:17:26.001Z</time></trkpt><trkpt lat="44.42839551835247" lon="9.011907153841555"><ele>239.0</ele><time>2026-05-02T12:17:27.001Z</time></trkpt><trkpt lat="44.428405190456736" lon="9.012014779499973"><ele>239.0</ele><time>2026-05-02T12:17:28.001Z</time></trkpt><trkpt lat="44.42837426566535" lon="9.012127682462703"><ele>238.99999999999997</ele><time>2026-05-02T12:17:29.001Z</time></trkpt><trkpt lat="44.42830412254636" lon="9.012228985912525"><ele>238.99999999999997</ele><time>2026-05-02T12:17:30.001Z</time></trkpt><trkpt lat="44.42820205738987" lon="9.012314977241152"><ele>239.0</ele><time>2026-05-02T12:17:31.001Z</time></trkpt><trkpt lat="44.428093239055926" lon="9.012412777877318"><ele>239.0</ele><time>2026-05-02T12:17:32.001Z</time></trkpt><trkpt lat="44.428003495122965" lon="9.0125345223487"><ele>233.5</ele><time>2026-05-02T12:17:33.001Z</time></trkpt><trkpt lat="44.427938662317096" lon="9.012672084418329"><ele>228.0</ele><time>2026-05-02T12:17:34.001Z</time></trkpt><trkpt lat="44.42788344216574" lon="9.012837784760789"><ele>222.5</ele><time>2026-05-02T12:17:35.001Z</time></trkpt><trkpt lat="44.427816843518954" lon="9.013052205253016"><ele>217.0</ele><time>2026-05-02T12:17:36.001Z</time></trkpt><trkpt lat="44.427741449877416" lon="9.013239311229068"><ele>221.0</ele><time>2026-05-02T12:17:37.001Z</time></trkpt><trkpt lat="44.42768055636498" lon="9.013390989033825"><ele>225.0</ele><time>2026-05-02T12:17:38.001Z</time></trkpt><trkpt lat="44.427625809720745" lon="9.01354472771804"><ele>229.0</ele><time>2026-05-02T12:17:39.001Z</time></trkpt><trkpt lat="44.42757992849692" lon="9.013686606416933"><ele>233.0</ele><time>2026-05-02T12:17:40.001Z</time></trkpt><trkpt lat="44.427550732656115" lon="9.013820160424274"><ele>233.0</ele><time>2026-05-02T12:17:41.001Z</time></trkpt><trkpt lat="44.42754203620503" lon="9.013953707451"><ele>233.0</ele><time>2026-05-02T12:17:42.001Z</time></trkpt><trkpt lat="44.42755835834357" lon="9.014083121721836"><ele>233.0</ele><time>2026-05-02T12:17:43.001Z</time></trkpt><trkpt lat="44.42760802338999" lon="9.014206118678008"><ele>233.0</ele><time>2026-05-02T12:17:44.001Z</time></trkpt><trkpt lat="44.427675456909284" lon="9.014338804375239"><ele>233.0</ele><time>2026-05-02T12:17:45.001Z</time></trkpt><trkpt lat="44.427755255967725" lon="9.014459731366589"><ele>233.5</ele><time>2026-05-02T12:17:46.002Z</time></trkpt><trkpt lat="44.427825950598354" lon="9.014608173191665"><ele>234.0</ele><time>2026-05-02T12:17:47.002Z</time></trkpt><trkpt lat="44.42789202810545" lon="9.014743910763851"><ele>234.5</ele><time>2026-05-02T12:17:48.002Z</time></trkpt><trkpt lat="44.42796600668986" lon="9.014872666324294"><ele>235.0</ele><time>2026-05-02T12:17:49.002Z</time></trkpt><trkpt lat="44.428054741677755" lon="9.014980438566715"><ele>241.75</ele><time>2026-05-02T12:17:50.002Z</time></trkpt><trkpt lat="44.42814870342701" lon="9.015085890342542"><ele>248.5</ele><time>2026-05-02T12:17:51.002Z</time></trkpt><trkpt lat="44.42824847359778" lon="9.015176828018761"><ele>255.25</ele><time>2026-05-02T12:17:52.002Z</time></trkpt><trkpt lat="44.42835348042307" lon="9.015267189721937"><ele>262.0</ele><time>2026-05-02T12:17:53.002Z</time></trkpt><trkpt lat="44.42846055961735" lon="9.015360119921827"><ele>262.0</ele><time>2026-05-02T12:17:54.002Z</time></trkpt><trkpt lat="44.42856855653098" lon="9.015457151330649"><ele>262.0</ele><time>2026-05-02T12:17:55.002Z</time></trkpt><trkpt lat="44.42867280772099" lon="9.015551578415845"><ele>262.0</ele><time>2026-05-02T12:17:56.002Z</time></trkpt><trkpt lat="44.42877178619666" lon="9.015619273024939"><ele>262.0</ele><time>2026-05-02T12:17:57.002Z</time></trkpt><trkpt lat="44.42888960380798" lon="9.015670728348878"><ele>261.4</ele><time>2026-05-02T12:17:58.002Z</time></trkpt><trkpt lat="44.429013427459935" lon="9.015717017578087"><ele>260.79999999999995</ele><time>2026-05-02T12:17:59.002Z</time></trkpt><trkpt lat="44.42912897581538" lon="9.015726720199144"><ele>260.2</ele><time>2026-05-02T12:18:00.002Z</time></trkpt><trkpt lat="44.42922518695928" lon="9.015770599089096"><ele>259.59999999999997</ele><time>2026-05-02T12:18:01.002Z</time></trkpt><trkpt lat="44.4292961083381" lon="9.015846295986979"><ele>259.0</ele><time>2026-05-02T12:18:02.002Z</time></trkpt><trkpt lat="44.429332069579715" lon="9.015979608500063"><ele>259.0</ele><time>2026-05-02T12:18:03.002Z</time></trkpt><trkpt lat="44.42936159529105" lon="9.016130150891266"><ele>259.0</ele><time>2026-05-02T12:18:04.002Z</time></trkpt><trkpt lat="44.42938252948506" lon="9.016309710639304"><ele>259.0</ele><time>2026-05-02T12:18:05.002Z</time></trkpt><trkpt lat="44.42939954479321" lon="9.016495890930408"><ele>259.0</ele><time>2026-05-02T12:18:06.002Z</time></trkpt><trkpt lat="44.42941617001658" lon="9.016671427392856"><ele>257.75</ele><time>2026-05-02T12:18:07.002Z</time></trkpt><trkpt lat="44.42944730648275" lon="9.016821841083656"><ele>256.5</ele><time>2026-05-02T12:18:08.002Z</time></trkpt><trkpt lat="44.42947613915858" lon="9.016975321015458"><ele>255.25</ele><time>2026-05-02T12:18:09.002Z</time></trkpt><trkpt lat="44.429528592400004" lon="9.01712751742996"><ele>254.0</ele><time>2026-05-02T12:18:10.002Z</time></trkpt><trkpt lat="44.42959045906723" lon="9.017263543256291"><ele>256.75</ele><time>2026-05-02T12:18:11.002Z</time></trkpt><trkpt lat="44.429672971165736" lon="9.017398926233323"><ele>259.5</ele><time>2026-05-02T12:18:12.002Z</time></trkpt><trkpt lat="44.42977738219569" lon="9.017530974181248"><ele>262.25</ele><time>2026-05-02T12:18:13.002Z</time></trkpt><trkpt lat="44.42988795171805" lon="9.017647210682124"><ele>265.0</ele><time>2026-05-02T12:18:14.002Z</time></trkpt><trkpt lat="44.429998484127175" lon="9.017739646260107"><ele>265.0</ele><time>2026-05-02T12:18:15.002Z</time></trkpt><trkpt lat="44.43009934068417" lon="9.017807884861327"><ele>265.0</ele><time>2026-05-02T12:18:16.002Z</time></trkpt><trkpt lat="44.43019276483968" lon="9.017861840626692"><ele>265.0</ele><time>2026-05-02T12:18:17.002Z</time></trkpt><trkpt lat="44.43030053670182" lon="9.017911084046586"><ele>265.0</ele><time>2026-05-02T12:18:18.002Z</time></trkpt><trkpt lat="44.43041277518186" lon="9.017963188065941"><ele>265.0</ele><time>2026-05-02T12:18:19.002Z</time></trkpt><trkpt lat="44.430512940168995" lon="9.018033980498656"><ele>265.8</ele><time>2026-05-02T12:18:20.002Z</time></trkpt><trkpt lat="44.43059933449883" lon="9.018110196996949"><ele>266.6</ele><time>2026-05-02T12:18:21.002Z</time></trkpt><trkpt lat="44.430678209280074" lon="9.018164412259141"><ele>267.4</ele><time>2026-05-02T12:18:22.002Z</time></trkpt><trkpt lat="44.4307653200129" lon="9.01822676413157"><ele>268.2</ele><time>2026-05-02T12:18:23.002Z</time></trkpt><trkpt lat="44.43084723620896" lon="9.018327126050918"><ele>269.0</ele><time>2026-05-02T12:18:24.002Z</time></trkpt><trkpt lat="44.43090927759309" lon="9.01837735267834"><ele>269.0</ele><time>2026-05-02T12:18:25.002Z</time></trkpt><trkpt lat="44.4309858324646" lon="9.018471615639589"><ele>269.0</ele><time>2026-05-02T12:18:27.002Z</time></trkpt><trkpt lat="44.43105247355797" lon="9.018541257417686"><ele>269.0</ele><time>2026-05-02T12:18:29.002Z</time></trkpt><trkpt lat="44.431110600425235" lon="9.0186047683779"><ele>269.0</ele><time>2026-05-02T12:18:30.002Z</time></trkpt><trkpt lat="44.431193276040666" lon="9.01867610258496"><ele>269.0</ele><time>2026-05-02T12:18:31.002Z</time></trkpt><trkpt lat="44.4312877148167" lon="9.018731683625877"><ele>273.5</ele><time>2026-05-02T12:18:32.002Z</time></trkpt><trkpt lat="44.43137798286854" lon="9.018820214844066"><ele>278.0</ele><time>2026-05-02T12:18:33.002Z</time></trkpt><trkpt lat="44.431484945689654" lon="9.018900660703693"><ele>282.5</ele><time>2026-05-02T12:18:34.002Z</time></trkpt><trkpt lat="44.431617296957576" lon="9.018996633106946"><ele>287.0</ele><time>2026-05-02T12:18:35.002Z</time></trkpt><trkpt lat="44.431763114804404" lon="9.019092055454811"><ele>287.6666666666667</ele><time>2026-05-02T12:18:36.002Z</time></trkpt><trkpt lat="44.43193628425428" lon="9.01920497672163"><ele>288.3333333333333</ele><time>2026-05-02T12:18:37.002Z</time></trkpt><trkpt lat="44.43209354264075" lon="9.01928844277972"><ele>289.0</ele><time>2026-05-02T12:18:38.002Z</time></trkpt><trkpt lat="44.43223859793417" lon="9.019391973787794"><ele>289.0</ele><time>2026-05-02T12:18:39.002Z</time></trkpt><trkpt lat="44.43233858248605" lon="9.01947781207383"><ele>289.0</ele><time>2026-05-02T12:18:40.002Z</time></trkpt><trkpt lat="44.43240990165536" lon="9.019585058789568"><ele>289.0</ele><time>2026-05-02T12:18:41.002Z</time></trkpt><trkpt lat="44.43248289299678" lon="9.019677411023832"><ele>289.0</ele><time>2026-05-02T12:18:42.002Z</time></trkpt><trkpt lat="44.43249122007478" lon="9.019841847133627"><ele>289.0</ele><time>2026-05-02T12:18:43.002Z</time></trkpt><trkpt lat="44.432524420601666" lon="9.020031814046051"><ele>287.2</ele><time>2026-05-02T12:18:44.002Z</time></trkpt><trkpt lat="44.43253427934061" lon="9.020188868808507"><ele>285.4</ele><time>2026-05-02T12:18:45.002Z</time></trkpt><trkpt lat="44.432574877517425" lon="9.02029992645947"><ele>283.6</ele><time>2026-05-02T12:18:46.002Z</time></trkpt><trkpt lat="44.43265853342993" lon="9.02040704933552"><ele>281.8</ele><time>2026-05-02T12:18:47.002Z</time></trkpt><trkpt lat="44.432761672957" lon="9.020526787831223"><ele>280.0</ele><time>2026-05-02T12:18:48.002Z</time></trkpt><trkpt lat="44.43283859788308" lon="9.020642900951062"><ele>280.0</ele><time>2026-05-02T12:18:49.002Z</time></trkpt><trkpt lat="44.43287713526176" lon="9.020750797259685"><ele>280.0</ele><time>2026-05-02T12:18:50.001Z</time></trkpt><trkpt lat="44.43286632446355" lon="9.02087383818095"><ele>280.0</ele><time>2026-05-02T12:18:51.001Z</time></trkpt><trkpt lat="44.43280035640542" lon="9.021029937287658"><ele>280.0</ele><time>2026-05-02T12:18:52.001Z</time></trkpt><trkpt lat="44.4327533885386" lon="9.021162466117579"><ele>280.0</ele><time>2026-05-02T12:18:53.001Z</time></trkpt><trkpt lat="44.43273322274689" lon="9.021263785362455"><ele>279.8</ele><time>2026-05-02T12:18:54.001Z</time></trkpt><trkpt lat="44.4327923966813" lon="9.021416691831059"><ele>279.6</ele><time>2026-05-02T12:18:56.001Z</time></trkpt><trkpt lat="44.43285017395374" lon="9.021468768025702"><ele>279.4</ele><time>2026-05-02T12:18:57.001Z</time></trkpt><trkpt lat="44.43293441788549" lon="9.021466681816946"><ele>279.2</ele><time>2026-05-02T12:18:58.001Z</time></trkpt><trkpt lat="44.43302665528122" lon="9.021381955654642"><ele>279.0</ele><time>2026-05-02T12:18:59.001Z</time></trkpt><trkpt lat="44.43308971085081" lon="9.021267430200247"><ele>283.59999999999997</ele><time>2026-05-02T12:19:00.001Z</time></trkpt><trkpt lat="44.433156538556084" lon="9.021142409972198"><ele>288.2</ele><time>2026-05-02T12:19:01.001Z</time></trkpt><trkpt lat="44.43319881492144" lon="9.021002698733389"><ele>292.79999999999995</ele><time>2026-05-02T12:19:02.001Z</time></trkpt><trkpt lat="44.43321032951916" lon="9.020846997978966"><ele>297.4</ele><time>2026-05-02T12:19:03.001Z</time></trkpt><trkpt lat="44.433188401057215" lon="9.020693798330436"><ele>302.0</ele><time>2026-05-02T12:19:04.001Z</time></trkpt><trkpt lat="44.43313716440147" lon="9.020547161294932"><ele>302.25</ele><time>2026-05-02T12:19:05.001Z</time></trkpt><trkpt lat="44.43306487014144" lon="9.020404134325439"><ele>302.5</ele><time>2026-05-02T12:19:06.001Z</time></trkpt><trkpt lat="44.43300179233254" lon="9.020252035759594"><ele>302.75</ele><time>2026-05-02T12:19:07.001Z</time></trkpt><trkpt lat="44.43297218875442" lon="9.020096471458936"><ele>303.0</ele><time>2026-05-02T12:19:08.001Z</time></trkpt><trkpt lat="44.432967216962695" lon="9.019941920592663"><ele>304.0</ele><time>2026-05-02T12:19:09.001Z</time></trkpt><trkpt lat="44.43300361443123" lon="9.019785780335269"><ele>305.0</ele><time>2026-05-02T12:19:10.001Z</time></trkpt><trkpt lat="44.43305115071869" lon="9.019646612432929"><ele>306.0</ele><time>2026-05-02T12:19:11.001Z</time></trkpt><trkpt lat="44.433085152080146" lon="9.019510861344298"><ele>307.0</ele><time>2026-05-02T12:19:12.001Z</time></trkpt><trkpt lat="44.433109011123996" lon="9.019376319593587"><ele>308.0</ele><time>2026-05-02T12:19:13.001Z</time></trkpt><trkpt lat="44.43310315358021" lon="9.019234133808254"><ele>308.5</ele><time>2026-05-02T12:19:14.001Z</time></trkpt><trkpt lat="44.4330712523071" lon="9.019081788506252"><ele>309.0</ele><time>2026-05-02T12:19:15.001Z</time></trkpt><trkpt lat="44.43301763870192" lon="9.018935103508136"><ele>309.5</ele><time>2026-05-02T12:19:16.001Z</time></trkpt><trkpt lat="44.432950608414075" lon="9.018781029373942"><ele>310.0</ele><time>2026-05-02T12:19:17.001Z</time></trkpt><trkpt lat="44.43289362775457" lon="9.018662828310466"><ele>307.8</ele><time>2026-05-02T12:19:18.001Z</time></trkpt><trkpt lat="44.432854015819146" lon="9.01856721916948"><ele>305.6</ele><time>2026-05-02T12:19:19.001Z</time></trkpt><trkpt lat="44.43283317471878" lon="9.018421734326427"><ele>303.4</ele><time>2026-05-02T12:19:21.001Z</time></trkpt><trkpt lat="44.4329577675084" lon="9.018303461650563"><ele>301.2</ele><time>2026-05-02T12:19:24.001Z</time></trkpt><trkpt lat="44.43303192189898" lon="9.018296557811475"><ele>299.0</ele><time>2026-05-02T12:19:25.001Z</time></trkpt><trkpt lat="44.43311636326947" lon="9.018278603946301"><ele>300.83333333333337</ele><time>2026-05-02T12:19:27.001Z</time></trkpt><trkpt lat="44.43317779367265" lon="9.018253644727272"><ele>302.6666666666667</ele><time>2026-05-02T12:19:56.002Z</time></trkpt><trkpt lat="44.43324380543594" lon="9.01830318329909"><ele>304.5</ele><time>2026-05-02T12:20:01.002Z</time></trkpt><trkpt lat="44.43329857087831" lon="9.018364424082169"><ele>306.3333333333333</ele><time>2026-05-02T12:20:26.002Z</time></trkpt><trkpt lat="44.43336579860349" lon="9.018451788749001"><ele>308.16666666666663</ele><time>2026-05-02T12:20:28.002Z</time></trkpt><trkpt lat="44.433446438024596" lon="9.01858639774815"><ele>310.0</ele><time>2026-05-02T12:20:30.002Z</time></trkpt><trkpt lat="44.43353270795872" lon="9.0187315980718"><ele>310.0</ele><time>2026-05-02T12:20:32.002Z</time></trkpt><trkpt lat="44.43358696366776" lon="9.018810768884952"><ele>310.0</ele><time>2026-05-02T12:20:33.002Z</time></trkpt><trkpt lat="44.433654813226184" lon="9.018906672660671"><ele>310.0</ele><time>2026-05-02T12:20:34.002Z</time></trkpt><trkpt lat="44.43372308859059" lon="9.018994581971278"><ele>310.0</ele><time>2026-05-02T12:20:35.002Z</time></trkpt><trkpt lat="44.43379612272166" lon="9.01905109128318"><ele>310.0</ele><time>2026-05-02T12:20:36.002Z</time></trkpt><trkpt lat="44.43387465916215" lon="9.019096953460375"><ele>310.0</ele><time>2026-05-02T12:20:37.002Z</time></trkpt><trkpt lat="44.43396044716002" lon="9.0191536478042"><ele>312.0</ele><time>2026-05-02T12:20:38.002Z</time></trkpt><trkpt lat="44.43405169189049" lon="9.019220483250086"><ele>314.0</ele><time>2026-05-02T12:20:39.002Z</time></trkpt><trkpt lat="44.43412478412325" lon="9.019265503540671"><ele>316.0</ele><time>2026-05-02T12:20:40.002Z</time></trkpt><trkpt lat="44.43418799706698" lon="9.019302282427994"><ele>318.0</ele><time>2026-05-02T12:20:41.002Z</time></trkpt><trkpt lat="44.434303233540625" lon="9.01934764125223"><ele>320.0</ele><time>2026-05-02T12:20:43.002Z</time></trkpt><trkpt lat="44.4344232785441" lon="9.019397287559302"><ele>320.0</ele><time>2026-05-02T12:20:45.002Z</time></trkpt><trkpt lat="44.43448253378374" lon="9.019454703909455"><ele>320.0</ele><time>2026-05-02T12:20:46.002Z</time></trkpt><trkpt lat="44.43455737094859" lon="9.019466557632732"><ele>320.0</ele><time>2026-05-02T12:20:47.002Z</time></trkpt><trkpt lat="44.434629008571626" lon="9.019506791420334"><ele>320.0</ele><time>2026-05-02T12:20:48.002Z</time></trkpt><trkpt lat="44.43469608147507" lon="9.019553795029559"><ele>320.0</ele><time>2026-05-02T12:20:49.002Z</time></trkpt><trkpt lat="44.43476502619751" lon="9.019614431176464"><ele>320.0</ele><time>2026-05-02T12:20:50.002Z</time></trkpt><trkpt lat="44.434834758727334" lon="9.019710368801112"><ele>319.0</ele><time>2026-05-02T12:20:51.002Z</time></trkpt><trkpt lat="44.43490566397408" lon="9.019830609906343"><ele>318.0</ele><time>2026-05-02T12:20:52.002Z</time></trkpt><trkpt lat="44.434972594176905" lon="9.019968689426463"><ele>317.0</ele><time>2026-05-02T12:20:53.002Z</time></trkpt><trkpt lat="44.43503543781777" lon="9.020126419374579"><ele>316.0</ele><time>2026-05-02T12:20:54.002Z</time></trkpt><trkpt lat="44.435101661537686" lon="9.020289900440924"><ele>316.0</ele><time>2026-05-02T12:20:55.002Z</time></trkpt><trkpt lat="44.43517170680921" lon="9.02045110379829"><ele>316.0</ele><time>2026-05-02T12:20:56.001Z</time></trkpt><trkpt lat="44.435239337593316" lon="9.020599140929185"><ele>316.0</ele><time>2026-05-02T12:20:57.001Z</time></trkpt><trkpt lat="44.43530162125476" lon="9.020736502236568"><ele>316.0</ele><time>2026-05-02T12:20:58.001Z</time></trkpt><trkpt lat="44.43535217209033" lon="9.020877781866602"><ele>316.5</ele><time>2026-05-02T12:20:59.001Z</time></trkpt><trkpt lat="44.43539422563044" lon="9.021038221736854"><ele>317.0</ele><time>2026-05-02T12:21:00.001Z</time></trkpt><trkpt lat="44.43540388643103" lon="9.021217836103109"><ele>317.5</ele><time>2026-05-02T12:21:01.001Z</time></trkpt><trkpt lat="44.43542426322856" lon="9.021389344857207"><ele>318.0</ele><time>2026-05-02T12:21:02.001Z</time></trkpt><trkpt lat="44.43544431153211" lon="9.02154560798096"><ele>314.6</ele><time>2026-05-02T12:21:03.001Z</time></trkpt><trkpt lat="44.43548462147616" lon="9.02168213467007"><ele>311.20000000000005</ele><time>2026-05-02T12:21:04.001Z</time></trkpt><trkpt lat="44.435522782271796" lon="9.021801185612201"><ele>307.8</ele><time>2026-05-02T12:21:05.001Z</time></trkpt><trkpt lat="44.435568670470275" lon="9.021909755040019"><ele>304.40000000000003</ele><time>2026-05-02T12:21:06.001Z</time></trkpt><trkpt lat="44.435656590973316" lon="9.022005145830606"><ele>301.0</ele><time>2026-05-02T12:21:07.001Z</time></trkpt><trkpt lat="44.435755284523964" lon="9.022081831764273"><ele>301.0</ele><time>2026-05-02T12:21:08.001Z</time></trkpt><trkpt lat="44.43586167234623" lon="9.022141413809205"><ele>301.0</ele><time>2026-05-02T12:21:09.001Z</time></trkpt><trkpt lat="44.4359759621082" lon="9.022180126898242"><ele>301.0</ele><time>2026-05-02T12:21:10.001Z</time></trkpt><trkpt lat="44.4361022566449" lon="9.022220072313374"><ele>301.0</ele><time>2026-05-02T12:21:11.001Z</time></trkpt><trkpt lat="44.43622564164442" lon="9.022258046596729"><ele>299.0</ele><time>2026-05-02T12:21:12.001Z</time></trkpt><trkpt lat="44.43633288719699" lon="9.022291053686779"><ele>297.0</ele><time>2026-05-02T12:21:13.001Z</time></trkpt><trkpt lat="44.43641795681364" lon="9.022318629207783"><ele>295.0</ele><time>2026-05-02T12:21:14.001Z</time></trkpt><trkpt lat="44.436487819659106" lon="9.022342317744483"><ele>293.0</ele><time>2026-05-02T12:21:15.001Z</time></trkpt><trkpt lat="44.43655202304803" lon="9.022364087529112"><ele>291.0</ele><time>2026-05-02T12:21:16.001Z</time></trkpt><trkpt lat="44.436663583004865" lon="9.022404576379756"><ele>291.0</ele><time>2026-05-02T12:21:18.001Z</time></trkpt><trkpt lat="44.43678100677434" lon="9.022449533023874"><ele>291.0</ele><time>2026-05-02T12:21:20.001Z</time></trkpt><trkpt lat="44.436896803014896" lon="9.02250951472198"><ele>291.0</ele><time>2026-05-02T12:21:22.001Z</time></trkpt><trkpt lat="44.43698321541276" lon="9.0226434622926"><ele>291.0</ele><time>2026-05-02T12:21:24.001Z</time></trkpt><trkpt lat="44.43701531006636" lon="9.022726936469207"><ele>291.0</ele><time>2026-05-02T12:21:25.001Z</time></trkpt><trkpt lat="44.4370381724185" lon="9.022813118500673"><ele>292.8</ele><time>2026-05-02T12:21:26.001Z</time></trkpt><trkpt lat="44.43706560849002" lon="9.022989461918753"><ele>294.6</ele><time>2026-05-02T12:21:28.001Z</time></trkpt><trkpt lat="44.43707415765382" lon="9.02309487104446"><ele>296.4</ele><time>2026-05-02T12:21:29.001Z</time></trkpt><trkpt lat="44.4370828001521" lon="9.023198282051096"><ele>298.2</ele><time>2026-05-02T12:21:30.001Z</time></trkpt><trkpt lat="44.437099101695964" lon="9.02329062800073"><ele>300.0</ele><time>2026-05-02T12:21:31.001Z</time></trkpt><trkpt lat="44.437156121873265" lon="9.023442531613437"><ele>300.0</ele><time>2026-05-02T12:21:33.001Z</time></trkpt><trkpt lat="44.43720214241042" lon="9.023521343808982"><ele>300.0</ele><time>2026-05-02T12:21:34.001Z</time></trkpt><trkpt lat="44.437253632352935" lon="9.02359933269133"><ele>300.0</ele><time>2026-05-02T12:21:35.001Z</time></trkpt><trkpt lat="44.437298734110314" lon="9.023680207407379"><ele>300.0</ele><time>2026-05-02T12:21:36.001Z</time></trkpt><trkpt lat="44.437338025404415" lon="9.023762987664588"><ele>300.0</ele><time>2026-05-02T12:21:37.001Z</time></trkpt><trkpt lat="44.437365614734446" lon="9.02386323042737"><ele>300.0</ele><time>2026-05-02T12:21:38.001Z</time></trkpt><trkpt lat="44.43738692810676" lon="9.02397588677611"><ele>300.0</ele><time>2026-05-02T12:21:39.001Z</time></trkpt><trkpt lat="44.43739300944968" lon="9.02408707404311"><ele>300.0</ele><time>2026-05-02T12:21:40.001Z</time></trkpt><trkpt lat="44.437382710602314" lon="9.024194423178445"><ele>300.0</ele><time>2026-05-02T12:21:41.001Z</time></trkpt><trkpt lat="44.43736456822992" lon="9.024303444251224"><ele>300.0</ele><time>2026-05-02T12:21:42.001Z</time></trkpt><trkpt lat="44.4373429826708" lon="9.024407255982407"><ele>300.0</ele><time>2026-05-02T12:21:43.001Z</time></trkpt><trkpt lat="44.437307693953215" lon="9.024501365053846"><ele>300.0</ele><time>2026-05-02T12:21:44.001Z</time></trkpt><trkpt lat="44.43726871800902" lon="9.024596076686832"><ele>300.3333333333333</ele><time>2026-05-02T12:21:45.001Z</time></trkpt><trkpt lat="44.43722559063843" lon="9.0246856275097"><ele>300.6666666666667</ele><time>2026-05-02T12:21:46.001Z</time></trkpt><trkpt lat="44.437184885713656" lon="9.024767520136274"><ele>301.0</ele><time>2026-05-02T12:21:47.001Z</time></trkpt><trkpt lat="44.43714877769647" lon="9.024846097261978"><ele>301.33333333333337</ele><time>2026-05-02T12:21:48.001Z</time></trkpt><trkpt lat="44.43713945318163" lon="9.02502214260144"><ele>301.6666666666667</ele><time>2026-05-02T12:21:50.001Z</time></trkpt><trkpt lat="44.43716072135241" lon="9.025109034533703"><ele>302.0</ele><time>2026-05-02T12:21:51.001Z</time></trkpt><trkpt lat="44.43718588364593" lon="9.025195707358495"><ele>302.6666666666667</ele><time>2026-05-02T12:21:52.001Z</time></trkpt><trkpt lat="44.43724923864172" lon="9.025254259071712"><ele>303.33333333333337</ele><time>2026-05-02T12:21:53.001Z</time></trkpt><trkpt lat="44.43731727268903" lon="9.025290325281416"><ele>304.0</ele><time>2026-05-02T12:21:54.001Z</time></trkpt><trkpt lat="44.43738550174968" lon="9.025313562214237"><ele>304.6666666666667</ele><time>2026-05-02T12:21:55.001Z</time></trkpt><trkpt lat="44.43745032415477" lon="9.025328522111588"><ele>305.3333333333333</ele><time>2026-05-02T12:21:56.001Z</time></trkpt><trkpt lat="44.43751524113957" lon="9.025343078701876"><ele>306.0</ele><time>2026-05-02T12:21:57.001Z</time></trkpt><trkpt lat="44.43763092589701" lon="9.025371150729494"><ele>306.0</ele><time>2026-05-02T12:21:59.001Z</time></trkpt><trkpt lat="44.43774414701093" lon="9.025413227288853"><ele>306.0</ele><time>2026-05-02T12:22:01.001Z</time></trkpt><trkpt lat="44.437832876405785" lon="9.025533255811801"><ele>306.0</ele><time>2026-05-02T12:22:03.001Z</time></trkpt><trkpt lat="44.43788458775125" lon="9.025610944294487"><ele>306.0</ele><time>2026-05-02T12:22:04.001Z</time></trkpt><trkpt lat="44.43793030592835" lon="9.025686663126127"><ele>306.0</ele><time>2026-05-02T12:22:05.001Z</time></trkpt><trkpt lat="44.437975930238295" lon="9.025750578874447"><ele>304.0</ele><time>2026-05-02T12:22:06.001Z</time></trkpt><trkpt lat="44.43805075533705" lon="9.025871543802204"><ele>302.0</ele><time>2026-05-02T12:22:08.001Z</time></trkpt><trkpt lat="44.438119697453985" lon="9.025970793314201"><ele>300.0</ele><time>2026-05-02T12:22:10.001Z</time></trkpt><trkpt lat="44.43815723590317" lon="9.026045395773458"><ele>298.0</ele><time>2026-05-02T12:22:14.001Z</time></trkpt><trkpt lat="44.43810216969867" lon="9.025969132666049"><ele>296.0</ele><time>2026-05-02T12:22:29.001Z</time></trkpt><trkpt lat="44.43804371332699" lon="9.025853730730358"><ele>297.6666666666667</ele><time>2026-05-02T12:22:31.002Z</time></trkpt><trkpt lat="44.43799339877103" lon="9.025781216991101"><ele>299.33333333333337</ele><time>2026-05-02T12:22:32.002Z</time></trkpt><trkpt lat="44.437928444217576" lon="9.025682629423965"><ele>301.0</ele><time>2026-05-02T12:22:33.002Z</time></trkpt><trkpt lat="44.437859127362564" lon="9.025589320589768"><ele>302.6666666666667</ele><time>2026-05-02T12:22:34.002Z</time></trkpt><trkpt lat="44.4378283695021" lon="9.025502973126875"><ele>304.3333333333333</ele><time>2026-05-02T12:22:35.002Z</time></trkpt><trkpt lat="44.437785004179304" lon="9.025437635228144"><ele>306.0</ele><time>2026-05-02T12:22:36.002Z</time></trkpt><trkpt lat="44.437662478032095" lon="9.025354819757062"><ele>306.0</ele><time>2026-05-02T12:22:38.002Z</time></trkpt><trkpt lat="44.43754637589134" lon="9.025336699317329"><ele>306.0</ele><time>2026-05-02T12:22:39.002Z</time></trkpt><trkpt lat="44.437412003151245" lon="9.025306199897358"><ele>306.0</ele><time>2026-05-02T12:22:40.002Z</time></trkpt><trkpt lat="44.43731006051933" lon="9.02525768192654"><ele>306.0</ele><time>2026-05-02T12:22:41.002Z</time></trkpt><trkpt lat="44.437227602120515" lon="9.02520051399655"><ele>306.0</ele><time>2026-05-02T12:22:42.002Z</time></trkpt><trkpt lat="44.437170623036806" lon="9.02512107209994"><ele>306.0</ele><time>2026-05-02T12:22:43.002Z</time></trkpt><trkpt lat="44.43714318237146" lon="9.025016765815655"><ele>306.0</ele><time>2026-05-02T12:22:44.002Z</time></trkpt><trkpt lat="44.43715444966182" lon="9.024891238993831"><ele>306.0</ele><time>2026-05-02T12:22:45.002Z</time></trkpt><trkpt lat="44.43719639466495" lon="9.024767999909091"><ele>306.0</ele><time>2026-05-02T12:22:46.002Z</time></trkpt><trkpt lat="44.43726542243619" lon="9.024646279067161"><ele>305.2</ele><time>2026-05-02T12:22:47.002Z</time></trkpt><trkpt lat="44.437321857882615" lon="9.02453880928533"><ele>304.40000000000003</ele><time>2026-05-02T12:22:48.002Z</time></trkpt><trkpt lat="44.437365876808705" lon="9.024429330467756"><ele>303.6</ele><time>2026-05-02T12:22:49.002Z</time></trkpt><trkpt lat="44.437393167478014" lon="9.024298322619462"><ele>302.8</ele><time>2026-05-02T12:22:50.002Z</time></trkpt><trkpt lat="44.43740792449043" lon="9.02415566029368"><ele>302.0</ele><time>2026-05-02T12:22:51.002Z</time></trkpt><trkpt lat="44.43741515696999" lon="9.024016691030269"><ele>301.6</ele><time>2026-05-02T12:22:52.002Z</time></trkpt><trkpt lat="44.437406760480286" lon="9.023889288491993"><ele>301.2</ele><time>2026-05-02T12:22:53.002Z</time></trkpt><trkpt lat="44.437369797332224" lon="9.023767312478773"><ele>300.8</ele><time>2026-05-02T12:22:54.002Z</time></trkpt><trkpt lat="44.43731064109666" lon="9.023647413814572"><ele>300.4</ele><time>2026-05-02T12:22:55.002Z</time></trkpt><trkpt lat="44.43722766088703" lon="9.02352140390791"><ele>300.0</ele><time>2026-05-02T12:22:56.002Z</time></trkpt><trkpt lat="44.437151938675136" lon="9.023403943345972"><ele>302.8</ele><time>2026-05-02T12:22:57.002Z</time></trkpt><trkpt lat="44.4371067986875" lon="9.023284436808098"><ele>305.6</ele><time>2026-05-02T12:22:58.002Z</time></trkpt><trkpt lat="44.43710639590746" lon="9.023134564951082"><ele>308.4</ele><time>2026-05-02T12:22:59.002Z</time></trkpt><trkpt lat="44.43708577219189" lon="9.02298120548973"><ele>311.2</ele><time>2026-05-02T12:23:00.002Z</time></trkpt><trkpt lat="44.437064930044016" lon="9.022834400320514"><ele>314.0</ele><time>2026-05-02T12:23:01.002Z</time></trkpt><trkpt lat="44.43702909018874" lon="9.022714646636608"><ele>314.0</ele><time>2026-05-02T12:23:02.001Z</time></trkpt><trkpt lat="44.43697988971961" lon="9.022610992723862"><ele>314.0</ele><time>2026-05-02T12:23:03.001Z</time></trkpt><trkpt lat="44.436911319198174" lon="9.022511170316971"><ele>314.0</ele><time>2026-05-02T12:23:04.001Z</time></trkpt><trkpt lat="44.43683610706371" lon="9.022435920012402"><ele>314.0</ele><time>2026-05-02T12:23:05.001Z</time></trkpt><trkpt lat="44.43674453139161" lon="9.022392737807355"><ele>314.0</ele><time>2026-05-02T12:23:06.001Z</time></trkpt><trkpt lat="44.4366505924892" lon="9.022366934886595"><ele>311.4</ele><time>2026-05-02T12:23:07.001Z</time></trkpt><trkpt lat="44.43655531775631" lon="9.0223378904441"><ele>308.79999999999995</ele><time>2026-05-02T12:23:08.001Z</time></trkpt><trkpt lat="44.43645715113248" lon="9.022301066015682"><ele>306.20000000000005</ele><time>2026-05-02T12:23:09.001Z</time></trkpt><trkpt lat="44.436364399582736" lon="9.022269108259223"><ele>303.6</ele><time>2026-05-02T12:23:10.001Z</time></trkpt><trkpt lat="44.43626414981885" lon="9.022238000087222"><ele>301.0</ele><time>2026-05-02T12:23:11.001Z</time></trkpt><trkpt lat="44.4361580221171" lon="9.022206253820555"><ele>301.0</ele><time>2026-05-02T12:23:12.001Z</time></trkpt><trkpt lat="44.436049948178876" lon="9.022171572817353"><ele>301.0</ele><time>2026-05-02T12:23:13.001Z</time></trkpt><trkpt lat="44.43593904319675" lon="9.022128704416009"><ele>301.0</ele><time>2026-05-02T12:23:14.001Z</time></trkpt><trkpt lat="44.43583668824101" lon="9.022088167616266"><ele>301.0</ele><time>2026-05-02T12:23:15.001Z</time></trkpt><trkpt lat="44.43574487862709" lon="9.022042706304823"><ele>301.0</ele><time>2026-05-02T12:23:16.001Z</time></trkpt><trkpt lat="44.43567137651654" lon="9.0219770657476"><ele>301.0</ele><time>2026-05-02T12:23:17.001Z</time></trkpt><trkpt lat="44.4356088047367" lon="9.021903077246288"><ele>301.0</ele><time>2026-05-02T12:23:18.001Z</time></trkpt><trkpt lat="44.43555119906478" lon="9.021821953937511"><ele>301.0</ele><time>2026-05-02T12:23:19.001Z</time></trkpt><trkpt lat="44.43550081211776" lon="9.021724929433029"><ele>301.0</ele><time>2026-05-02T12:23:20.001Z</time></trkpt><trkpt lat="44.43549177731318" lon="9.021613357728805"><ele>301.0</ele><time>2026-05-02T12:23:21.001Z</time></trkpt><trkpt lat="44.435461749548054" lon="9.021519711900908"><ele>301.0</ele><time>2026-05-02T12:23:22.001Z</time></trkpt><trkpt lat="44.435457581232875" lon="9.02141480963795"><ele>303.5</ele><time>2026-05-02T12:23:23.001Z</time></trkpt><trkpt lat="44.43544452497235" lon="9.021301909476264"><ele>306.0</ele><time>2026-05-02T12:23:24.001Z</time></trkpt><trkpt lat="44.435427583693574" lon="9.02118965627807"><ele>308.5</ele><time>2026-05-02T12:23:25.001Z</time></trkpt><trkpt lat="44.4354064096997" lon="9.021084086234538"><ele>311.0</ele><time>2026-05-02T12:23:26.001Z</time></trkpt><trkpt lat="44.43538541114222" lon="9.020969090572503"><ele>313.5</ele><time>2026-05-02T12:23:27.001Z</time></trkpt><trkpt lat="44.43535363787294" lon="9.020844286837487"><ele>316.0</ele><time>2026-05-02T12:23:28.001Z</time></trkpt><trkpt lat="44.43529947579352" lon="9.020681561755312"><ele>316.0</ele><time>2026-05-02T12:23:29.001Z</time></trkpt><trkpt lat="44.43521870240715" lon="9.020518309949207"><ele>316.0</ele><time>2026-05-02T12:23:30.001Z</time></trkpt><trkpt lat="44.43516315776181" lon="9.020372723489826"><ele>316.0</ele><time>2026-05-02T12:23:31.001Z</time></trkpt><trkpt lat="44.435087140030156" lon="9.020241920887297"><ele>316.0</ele><time>2026-05-02T12:23:32.001Z</time></trkpt><trkpt lat="44.435030292734496" lon="9.020088469640124"><ele>313.6</ele><time>2026-05-02T12:23:33.001Z</time></trkpt><trkpt lat="44.434971263193425" lon="9.019943939727998"><ele>311.20000000000005</ele><time>2026-05-02T12:23:34.001Z</time></trkpt><trkpt lat="44.43491202246853" lon="9.019824617040468"><ele>308.79999999999995</ele><time>2026-05-02T12:23:35.001Z</time></trkpt><trkpt lat="44.434855813972234" lon="9.019717691291573"><ele>306.4</ele><time>2026-05-02T12:23:36.001Z</time></trkpt><trkpt lat="44.43479829488052" lon="9.019625690591653"><ele>304.0</ele><time>2026-05-02T12:23:37.001Z</time></trkpt><trkpt lat="44.43474659336736" lon="9.019567067325717"><ele>304.0</ele><time>2026-05-02T12:23:38.001Z</time></trkpt><trkpt lat="44.434661169971285" lon="9.019507678358845"><ele>304.0</ele><time>2026-05-02T12:23:40.001Z</time></trkpt><trkpt lat="44.43456754275188" lon="9.019454603739575"><ele>304.0</ele><time>2026-05-02T12:23:42.001Z</time></trkpt><trkpt lat="44.434457572767585" lon="9.01940397931154"><ele>304.0</ele><time>2026-05-02T12:23:44.001Z</time></trkpt><trkpt lat="44.43435965240384" lon="9.019349707222915"><ele>304.0</ele><time>2026-05-02T12:23:46.001Z</time></trkpt><trkpt lat="44.434274417982216" lon="9.019281368159772"><ele>306.66666666666663</ele><time>2026-05-02T12:23:48.001Z</time></trkpt><trkpt lat="44.43421345646778" lon="9.019245651763065"><ele>309.3333333333333</ele><time>2026-05-02T12:23:50.001Z</time></trkpt><trkpt lat="44.43412704312788" lon="9.019236388095203"><ele>312.0</ele><time>2026-05-02T12:24:35.001Z</time></trkpt><trkpt lat="44.434042073004065" lon="9.019200249055212"><ele>314.6666666666667</ele><time>2026-05-02T12:24:38.001Z</time></trkpt><trkpt lat="44.433970197297064" lon="9.019149502390247"><ele>317.33333333333337</ele><time>2026-05-02T12:24:40.001Z</time></trkpt><trkpt lat="44.433881540978106" lon="9.019067106971379"><ele>320.0</ele><time>2026-05-02T12:24:42.001Z</time></trkpt><trkpt lat="44.4338230900399" lon="9.019029356283257"><ele>318.33333333333337</ele><time>2026-05-02T12:24:43.001Z</time></trkpt><trkpt lat="44.43375693474404" lon="9.018984344555273"><ele>316.6666666666667</ele><time>2026-05-02T12:24:44.001Z</time></trkpt><trkpt lat="44.43369344175384" lon="9.018919900690683"><ele>315.0</ele><time>2026-05-02T12:24:45.001Z</time></trkpt><trkpt lat="44.4336331602752" lon="9.018838559166582"><ele>313.3333333333333</ele><time>2026-05-02T12:24:46.001Z</time></trkpt><trkpt lat="44.43357456577396" lon="9.018748251944917"><ele>311.66666666666663</ele><time>2026-05-02T12:24:47.001Z</time></trkpt><trkpt lat="44.43350541373048" lon="9.018662980405201"><ele>310.0</ele><time>2026-05-02T12:24:48.001Z</time></trkpt><trkpt lat="44.43346091804951" lon="9.018582577557252"><ele>310.0</ele><time>2026-05-02T12:24:49.001Z</time></trkpt><trkpt lat="44.43341987134545" lon="9.018515362520672"><ele>310.0</ele><time>2026-05-02T12:24:50.001Z</time></trkpt><trkpt lat="44.43334621971101" lon="9.018395437819"><ele>310.0</ele><time>2026-05-02T12:24:52.001Z</time></trkpt><trkpt lat="44.43328302182995" lon="9.018289790200104"><ele>310.0</ele><time>2026-05-02T12:24:54.001Z</time></trkpt><trkpt lat="44.43320509159556" lon="9.018215913893096"><ele>310.0</ele><time>2026-05-02T12:24:56.001Z</time></trkpt><trkpt lat="44.43309068202538" lon="9.018233167140211"><ele>307.25</ele><time>2026-05-02T12:24:58.001Z</time></trkpt><trkpt lat="44.4329682771015" lon="9.018286001406278"><ele>304.5</ele><time>2026-05-02T12:25:00.001Z</time></trkpt><trkpt lat="44.43286002908322" lon="9.018315251000772"><ele>301.75</ele><time>2026-05-02T12:25:02.002Z</time></trkpt><trkpt lat="44.43278033410677" lon="9.018312769324693"><ele>299.0</ele><time>2026-05-02T12:25:04.002Z</time></trkpt><trkpt lat="44.432812045303145" lon="9.018546484778627"><ele>298.6666666666667</ele><time>2026-05-02T12:25:06.002Z</time></trkpt><trkpt lat="44.43287739661215" lon="9.018671819480096"><ele>298.33333333333337</ele><time>2026-05-02T12:25:08.001Z</time></trkpt><trkpt lat="44.432918446212874" lon="9.01875137750301"><ele>298.0</ele><time>2026-05-02T12:25:09.001Z</time></trkpt><trkpt lat="44.43295987806921" lon="9.018837723705044"><ele>297.6666666666667</ele><time>2026-05-02T12:25:10.001Z</time></trkpt><trkpt lat="44.43298670163156" lon="9.018941062455777"><ele>297.3333333333333</ele><time>2026-05-02T12:25:11.001Z</time></trkpt><trkpt lat="44.43302456810527" lon="9.01904000813486"><ele>297.0</ele><time>2026-05-02T12:25:12.001Z</time></trkpt><trkpt lat="44.4330557050848" lon="9.019140959888029"><ele>295.6666666666667</ele><time>2026-05-02T12:25:13.001Z</time></trkpt><trkpt lat="44.43309417235577" lon="9.019241749866705"><ele>294.3333333333333</ele><time>2026-05-02T12:25:14.001Z</time></trkpt><trkpt lat="44.43309637625191" lon="9.019354696363601"><ele>293.0</ele><time>2026-05-02T12:25:15.001Z</time></trkpt><trkpt lat="44.43308450361771" lon="9.01946504071672"><ele>291.66666666666663</ele><time>2026-05-02T12:25:16.001Z</time></trkpt><trkpt lat="44.43305512384037" lon="9.01958798967556"><ele>290.3333333333333</ele><time>2026-05-02T12:25:17.001Z</time></trkpt><trkpt lat="44.43300751056524" lon="9.019710452692976"><ele>289.0</ele><time>2026-05-02T12:25:18.001Z</time></trkpt><trkpt lat="44.432965856327705" lon="9.019822007050974"><ele>289.0</ele><time>2026-05-02T12:25:19.001Z</time></trkpt><trkpt lat="44.43295108599514" lon="9.019947726702096"><ele>289.0</ele><time>2026-05-02T12:25:20.001Z</time></trkpt><trkpt lat="44.432956412421156" lon="9.020096894552365"><ele>289.0</ele><time>2026-05-02T12:25:21.001Z</time></trkpt><trkpt lat="44.43299044724468" lon="9.020257161667772"><ele>289.0</ele><time>2026-05-02T12:25:22.001Z</time></trkpt><trkpt lat="44.43305272831838" lon="9.020409050239882"><ele>289.0</ele><time>2026-05-02T12:25:23.001Z</time></trkpt><trkpt lat="44.43311639809544" lon="9.020533830957234"><ele>291.59999999999997</ele><time>2026-05-02T12:25:24.001Z</time></trkpt><trkpt lat="44.433150205276796" lon="9.020664200802416"><ele>294.2</ele><time>2026-05-02T12:25:25.001Z</time></trkpt><trkpt lat="44.433181775120126" lon="9.020805065282914"><ele>296.79999999999995</ele><time>2026-05-02T12:25:26.001Z</time></trkpt><trkpt lat="44.433196691382314" lon="9.020953758403277"><ele>299.4</ele><time>2026-05-02T12:25:27.001Z</time></trkpt><trkpt lat="44.43315188283743" lon="9.021102084252862"><ele>302.0</ele><time>2026-05-02T12:25:28.001Z</time></trkpt><trkpt lat="44.4330810159678" lon="9.021239501665685"><ele>302.0</ele><time>2026-05-02T12:25:29.001Z</time></trkpt><trkpt lat="44.433017176935785" lon="9.021344490714213"><ele>302.0</ele><time>2026-05-02T12:25:30.001Z</time></trkpt><trkpt lat="44.43295556783914" lon="9.02142203425313"><ele>302.0</ele><time>2026-05-02T12:25:31.001Z</time></trkpt><trkpt lat="44.43288099399825" lon="9.021442870267373"><ele>302.0</ele><time>2026-05-02T12:25:32.001Z</time></trkpt><trkpt lat="44.432812617955435" lon="9.021404532204114"><ele>302.0</ele><time>2026-05-02T12:25:33.001Z</time></trkpt><trkpt lat="44.43276271696506" lon="9.021323166614685"><ele>302.0</ele><time>2026-05-02T12:25:34.001Z</time></trkpt><trkpt lat="44.432750685479746" lon="9.021218059581864"><ele>297.6</ele><time>2026-05-02T12:25:35.001Z</time></trkpt><trkpt lat="44.43279444372513" lon="9.021113686186078"><ele>293.2</ele><time>2026-05-02T12:25:36.001Z</time></trkpt><trkpt lat="44.43282726973206" lon="9.02098172028085"><ele>288.8</ele><time>2026-05-02T12:25:37.001Z</time></trkpt><trkpt lat="44.432864196839915" lon="9.020851844403957"><ele>284.4</ele><time>2026-05-02T12:25:38.001Z</time></trkpt><trkpt lat="44.43289035156464" lon="9.020730682500645"><ele>280.0</ele><time>2026-05-02T12:25:39.001Z</time></trkpt><trkpt lat="44.43286407624507" lon="9.020592801986773"><ele>280.0</ele><time>2026-05-02T12:25:40.001Z</time></trkpt><trkpt lat="44.43276444894823" lon="9.020490826484671"><ele>280.0</ele><time>2026-05-02T12:25:41.001Z</time></trkpt><trkpt lat="44.43267924107492" lon="9.020387386749661"><ele>280.0</ele><time>2026-05-02T12:25:42.001Z</time></trkpt><trkpt lat="44.432617602400484" lon="9.020296435908998"><ele>280.0</ele><time>2026-05-02T12:25:43.001Z</time></trkpt><trkpt lat="44.43256454226852" lon="9.0201998660193"><ele>280.0</ele><time>2026-05-02T12:25:44.001Z</time></trkpt><trkpt lat="44.43253614235152" lon="9.020085716714036"><ele>281.8</ele><time>2026-05-02T12:25:45.001Z</time></trkpt><trkpt lat="44.43252463313416" lon="9.01994858164376"><ele>283.6</ele><time>2026-05-02T12:25:46.001Z</time></trkpt><trkpt lat="44.43251473188716" lon="9.019809324742525"><ele>285.4</ele><time>2026-05-02T12:25:47.001Z</time></trkpt><trkpt lat="44.43248687948304" lon="9.019680866754884"><ele>287.2</ele><time>2026-05-02T12:25:48.001Z</time></trkpt><trkpt lat="44.432434262197454" lon="9.019564801705641"><ele>289.0</ele><time>2026-05-02T12:25:49.001Z</time></trkpt><trkpt lat="44.43235554250962" lon="9.019465165714408"><ele>289.0</ele><time>2026-05-02T12:25:50.001Z</time></trkpt><trkpt lat="44.43224770268036" lon="9.019380338976024"><ele>289.0</ele><time>2026-05-02T12:25:51.001Z</time></trkpt><trkpt lat="44.43211569116432" lon="9.019300412806201"><ele>289.0</ele><time>2026-05-02T12:25:52.001Z</time></trkpt><trkpt lat="44.431977993085376" lon="9.019208945702234"><ele>289.0</ele><time>2026-05-02T12:25:53.001Z</time></trkpt><trkpt lat="44.43184433320799" lon="9.019119026540704"><ele>288.5</ele><time>2026-05-02T12:25:54.001Z</time></trkpt><trkpt lat="44.43171593589343" lon="9.019033179594038"><ele>288.0</ele><time>2026-05-02T12:25:55.001Z</time></trkpt><trkpt lat="44.43158621363247" lon="9.018942589394232"><ele>287.5</ele><time>2026-05-02T12:25:56.001Z</time></trkpt><trkpt lat="44.43145977057764" lon="9.018847899726515"><ele>287.0</ele><time>2026-05-02T12:25:57.001Z</time></trkpt><trkpt lat="44.43133621253186" lon="9.01875907109677"><ele>286.25</ele><time>2026-05-02T12:25:58.001Z</time></trkpt><trkpt lat="44.43121705851192" lon="9.018672338870072"><ele>285.5</ele><time>2026-05-02T12:25:59.001Z</time></trkpt><trkpt lat="44.431098694794244" lon="9.018575921426612"><ele>284.75</ele><time>2026-05-02T12:26:00.001Z</time></trkpt><trkpt lat="44.430990919229444" lon="9.01842540518881"><ele>284.0</ele><time>2026-05-02T12:26:01.001Z</time></trkpt><trkpt lat="44.43085557464934" lon="9.018306367443117"><ele>284.0</ele><time>2026-05-02T12:26:02.001Z</time></trkpt><trkpt lat="44.43073781629318" lon="9.018164299691621"><ele>284.0</ele><time>2026-05-02T12:26:03.001Z</time></trkpt><trkpt lat="44.43059169876074" lon="9.018085952992898"><ele>284.0</ele><time>2026-05-02T12:26:04.001Z</time></trkpt><trkpt lat="44.43044672739589" lon="9.01799946958126"><ele>279.25</ele><time>2026-05-02T12:26:05.001Z</time></trkpt><trkpt lat="44.43031619805981" lon="9.017916234935106"><ele>274.5</ele><time>2026-05-02T12:26:06.001Z</time></trkpt><trkpt lat="44.43019201521546" lon="9.017840813790123"><ele>269.75</ele><time>2026-05-02T12:26:07.001Z</time></trkpt><trkpt lat="44.4300713472895" lon="9.017765877566372"><ele>265.0</ele><time>2026-05-02T12:26:08.001Z</time></trkpt><trkpt lat="44.42995545010297" lon="9.017673245331201"><ele>265.0</ele><time>2026-05-02T12:26:09.001Z</time></trkpt><trkpt lat="44.429850943370326" lon="9.017568613009017"><ele>265.0</ele><time>2026-05-02T12:26:10.001Z</time></trkpt><trkpt lat="44.429751204418245" lon="9.017452140197772"><ele>265.0</ele><time>2026-05-02T12:26:11.001Z</time></trkpt><trkpt lat="44.42966619569263" lon="9.017335262844682"><ele>265.0</ele><time>2026-05-02T12:26:12.001Z</time></trkpt><trkpt lat="44.429597653164514" lon="9.017221111356447"><ele>263.5</ele><time>2026-05-02T12:26:13.001Z</time></trkpt><trkpt lat="44.429542255450244" lon="9.017098601782976"><ele>262.0</ele><time>2026-05-02T12:26:14.001Z</time></trkpt><trkpt lat="44.42949429238478" lon="9.016952610180835"><ele>260.5</ele><time>2026-05-02T12:26:15.001Z</time></trkpt><trkpt lat="44.42946288416892" lon="9.01678687265411"><ele>259.0</ele><time>2026-05-02T12:26:16.001Z</time></trkpt><trkpt lat="44.42943877401718" lon="9.016601986330624"><ele>259.0</ele><time>2026-05-02T12:26:17.001Z</time></trkpt><trkpt lat="44.42942299182427" lon="9.016405731074375"><ele>259.0</ele><time>2026-05-02T12:26:18.001Z</time></trkpt><trkpt lat="44.42940930048812" lon="9.016230524276457"><ele>259.0</ele><time>2026-05-02T12:26:19.001Z</time></trkpt><trkpt lat="44.429382310869606" lon="9.016068657088992"><ele>259.0</ele><time>2026-05-02T12:26:20.001Z</time></trkpt><trkpt lat="44.42934613961568" lon="9.015936054731853"><ele>259.0</ele><time>2026-05-02T12:26:21.001Z</time></trkpt><trkpt lat="44.42929714282011" lon="9.01583861443829"><ele>259.0</ele><time>2026-05-02T12:26:22.001Z</time></trkpt><trkpt lat="44.4292315754522" lon="9.01576398016016"><ele>259.0</ele><time>2026-05-02T12:26:23.001Z</time></trkpt><trkpt lat="44.42913944554654" lon="9.015716462480137"><ele>259.0</ele><time>2026-05-02T12:26:24.001Z</time></trkpt><trkpt lat="44.42901366839709" lon="9.015680154417241"><ele>259.0</ele><time>2026-05-02T12:26:25.001Z</time></trkpt><trkpt lat="44.42888887114577" lon="9.015649716226665"><ele>259.75</ele><time>2026-05-02T12:26:26.001Z</time></trkpt><trkpt lat="44.42878705725393" lon="9.015605147827381"><ele>260.5</ele><time>2026-05-02T12:26:27.001Z</time></trkpt><trkpt lat="44.42869292466752" lon="9.015535845211657"><ele>261.25</ele><time>2026-05-02T12:26:28.001Z</time></trkpt><trkpt lat="44.428589104177576" lon="9.015436794725485"><ele>262.0</ele><time>2026-05-02T12:26:29.001Z</time></trkpt><trkpt lat="44.42846755156171" lon="9.015329773019296"><ele>262.0</ele><time>2026-05-02T12:26:30.001Z</time></trkpt><trkpt lat="44.42834262034173" lon="9.015237339279583"><ele>262.0</ele><time>2026-05-02T12:26:31.001Z</time></trkpt><trkpt lat="44.42823236756256" lon="9.015138687645605"><ele>262.0</ele><time>2026-05-02T12:26:32.001Z</time></trkpt><trkpt lat="44.42813469794385" lon="9.01504402066349"><ele>262.0</ele><time>2026-05-02T12:26:33.001Z</time></trkpt><trkpt lat="44.42804105290959" lon="9.014937267714034"><ele>255.25</ele><time>2026-05-02T12:26:34.001Z</time></trkpt><trkpt lat="44.4279557252333" lon="9.014813192611946"><ele>248.5</ele><time>2026-05-02T12:26:35.001Z</time></trkpt><trkpt lat="44.42788029134659" lon="9.014685005892533"><ele>241.75</ele><time>2026-05-02T12:26:36.001Z</time></trkpt><trkpt lat="44.42782822662369" lon="9.014539250285917"><ele>235.0</ele><time>2026-05-02T12:26:37.001Z</time></trkpt><trkpt lat="44.42775812334761" lon="9.014431276540087"><ele>234.99999999999997</ele><time>2026-05-02T12:26:38.001Z</time></trkpt><trkpt lat="44.42770570717464" lon="9.014319867020955"><ele>235.0</ele><time>2026-05-02T12:26:39.001Z</time></trkpt><trkpt lat="44.427653511723726" lon="9.014210942253854"><ele>235.0</ele><time>2026-05-02T12:26:40.001Z</time></trkpt><trkpt lat="44.42760799397657" lon="9.01410879308478"><ele>235.0</ele><time>2026-05-02T12:26:41.001Z</time></trkpt><trkpt lat="44.427579128444386" lon="9.014006434381974"><ele>234.99999999999997</ele><time>2026-05-02T12:26:42.001Z</time></trkpt><trkpt lat="44.427577508200386" lon="9.013887485637188"><ele>235.0</ele><time>2026-05-02T12:26:43.001Z</time></trkpt><trkpt lat="44.427594559052054" lon="9.013753952539401"><ele>234.66666666666666</ele><time>2026-05-02T12:26:44.001Z</time></trkpt><trkpt lat="44.42761539232817" lon="9.013636416090273"><ele>234.33333333333331</ele><time>2026-05-02T12:26:45.001Z</time></trkpt><trkpt lat="44.42764427863251" lon="9.013524374708602"><ele>234.0</ele><time>2026-05-02T12:26:46.001Z</time></trkpt><trkpt lat="44.42769850125127" lon="9.013424802726192"><ele>233.66666666666669</ele><time>2026-05-02T12:26:47.001Z</time></trkpt><trkpt lat="44.427742763602765" lon="9.013320725717252"><ele>233.33333333333334</ele><time>2026-05-02T12:26:48.001Z</time></trkpt><trkpt lat="44.42778144556413" lon="9.013216485235587"><ele>233.0</ele><time>2026-05-02T12:26:49.001Z</time></trkpt><trkpt lat="44.42781769229386" lon="9.013112358948158"><ele>234.00000000000003</ele><time>2026-05-02T12:26:50.001Z</time></trkpt><trkpt lat="44.4278523319655" lon="9.013011613137976"><ele>235.0</ele><time>2026-05-02T12:26:51.001Z</time></trkpt><trkpt lat="44.42788910868651" lon="9.01290464848651"><ele>236.0</ele><time>2026-05-02T12:26:52.001Z</time></trkpt><trkpt lat="44.427931348028835" lon="9.012786535580835"><ele>237.0</ele><time>2026-05-02T12:26:53.001Z</time></trkpt><trkpt lat="44.42798053576801" lon="9.012672898780368"><ele>238.00000000000003</ele><time>2026-05-02T12:26:54.001Z</time></trkpt><trkpt lat="44.42803333362176" lon="9.012571024467944"><ele>239.0</ele><time>2026-05-02T12:26:55.001Z</time></trkpt><trkpt lat="44.42808342779882" lon="9.012458924639313"><ele>239.00000000000003</ele><time>2026-05-02T12:26:56.001Z</time></trkpt><trkpt lat="44.4281606487223" lon="9.012377949323062"><ele>239.0</ele><time>2026-05-02T12:26:57.001Z</time></trkpt><trkpt lat="44.42823866365058" lon="9.012321321384768"><ele>239.0</ele><time>2026-05-02T12:26:58.001Z</time></trkpt><trkpt lat="44.42830681300392" lon="9.012260221014202"><ele>239.0</ele><time>2026-05-02T12:26:59.001Z</time></trkpt><trkpt lat="44.42836494122968" lon="9.012191502318283"><ele>239.00000000000003</ele><time>2026-05-02T12:27:00.001Z</time></trkpt><trkpt lat="44.42840648845002" lon="9.012107139605257"><ele>239.0</ele><time>2026-05-02T12:27:01.001Z</time></trkpt><trkpt lat="44.42841750432501" lon="9.012001169648634"><ele>239.0</ele><time>2026-05-02T12:27:02.001Z</time></trkpt><trkpt lat="44.42839528451653" lon="9.01189153661994"><ele>238.99999999999997</ele><time>2026-05-02T12:27:03.001Z</time></trkpt><trkpt lat="44.428365886184466" lon="9.0117819985728"><ele>238.99999999999997</ele><time>2026-05-02T12:27:04.001Z</time></trkpt><trkpt lat="44.42829342962794" lon="9.011696818450687"><ele>239.0</ele><time>2026-05-02T12:27:05.001Z</time></trkpt><trkpt lat="44.42822426868797" lon="9.011573264389188"><ele>239.0</ele><time>2026-05-02T12:27:06.001Z</time></trkpt><trkpt lat="44.42809485207921" lon="9.01160429791681"><ele>236.75</ele><time>2026-05-02T12:27:07.001Z</time></trkpt><trkpt lat="44.42799115262343" lon="9.0115416686308"><ele>234.5</ele><time>2026-05-02T12:27:08.002Z</time></trkpt><trkpt lat="44.42789010334958" lon="9.011467133889816"><ele>232.25</ele><time>2026-05-02T12:27:09.002Z</time></trkpt><trkpt lat="44.42777732763485" lon="9.011374436830447"><ele>230.0</ele><time>2026-05-02T12:27:10.002Z</time></trkpt><trkpt lat="44.4276558076883" lon="9.011265986246181"><ele>230.0</ele><time>2026-05-02T12:27:11.002Z</time></trkpt><trkpt lat="44.4275363930277" lon="9.011107951653994"><ele>230.0</ele><time>2026-05-02T12:27:12.002Z</time></trkpt><trkpt lat="44.427405647451984" lon="9.01103527792865"><ele>230.0</ele><time>2026-05-02T12:27:13.001Z</time></trkpt><trkpt lat="44.42729786081702" lon="9.0109553626506"><ele>230.0</ele><time>2026-05-02T12:27:14.001Z</time></trkpt><trkpt lat="44.42721141846861" lon="9.010885850340058"><ele>231.50000000000003</ele><time>2026-05-02T12:27:15.001Z</time></trkpt><trkpt lat="44.427154908066946" lon="9.01082027135475"><ele>233.0</ele><time>2026-05-02T12:27:16.001Z</time></trkpt><trkpt lat="44.42711955251907" lon="9.010735603891698"><ele>234.5</ele><time>2026-05-02T12:27:19.001Z</time></trkpt><trkpt lat="44.42706229388343" lon="9.010648803344665"><ele>236.0</ele><time>2026-05-02T12:27:21.001Z</time></trkpt><trkpt lat="44.427013685120386" lon="9.010564337967953"><ele>237.50000000000003</ele><time>2026-05-02T12:27:22.001Z</time></trkpt><trkpt lat="44.42694737277318" lon="9.01048171791686"><ele>239.0</ele><time>2026-05-02T12:27:23.001Z</time></trkpt><trkpt lat="44.42690253516385" lon="9.01034977630525"><ele>235.25</ele><time>2026-05-02T12:27:24.001Z</time></trkpt><trkpt lat="44.42683949305067" lon="9.010219953957458"><ele>231.5</ele><time>2026-05-02T12:27:25.001Z</time></trkpt><trkpt lat="44.42674268488952" lon="9.010077813964218"><ele>227.75</ele><time>2026-05-02T12:27:26.001Z</time></trkpt><trkpt lat="44.42666169810907" lon="9.009916277864203"><ele>224.0</ele><time>2026-05-02T12:27:27.001Z</time></trkpt><trkpt lat="44.42658883893796" lon="9.009789593900189"><ele>224.0</ele><time>2026-05-02T12:27:28.001Z</time></trkpt><trkpt lat="44.42652398025201" lon="9.00966617735748"><ele>224.0</ele><time>2026-05-02T12:27:29.001Z</time></trkpt><trkpt lat="44.426472827834885" lon="9.009521306138943"><ele>224.0</ele><time>2026-05-02T12:27:30.001Z</time></trkpt><trkpt lat="44.42643933677977" lon="9.00933424603278"><ele>224.0</ele><time>2026-05-02T12:27:31.001Z</time></trkpt><trkpt lat="44.42641326075731" lon="9.009155557719259"><ele>224.6</ele><time>2026-05-02T12:27:32.001Z</time></trkpt><trkpt lat="44.42639007657954" lon="9.009003770138158"><ele>225.2</ele><time>2026-05-02T12:27:33.001Z</time></trkpt><trkpt lat="44.42636634719044" lon="9.008870996248845"><ele>225.79999999999998</ele><time>2026-05-02T12:27:34.001Z</time></trkpt><trkpt lat="44.42634725885328" lon="9.008764697557387"><ele>226.39999999999998</ele><time>2026-05-02T12:27:35.001Z</time></trkpt><trkpt lat="44.42633372306643" lon="9.00867571239202"><ele>227.0</ele><time>2026-05-02T12:27:36.001Z</time></trkpt><trkpt lat="44.42631293294539" lon="9.00853482025472"><ele>224.00000000000003</ele><time>2026-05-02T12:27:38.001Z</time></trkpt><trkpt lat="44.426292748313436" lon="9.00840277325611"><ele>221.0</ele><time>2026-05-02T12:28:49.002Z</time></trkpt><trkpt lat="44.426279670699905" lon="9.008294317904177"><ele>218.0</ele><time>2026-05-02T12:28:50.002Z</time></trkpt><trkpt lat="44.42626915975504" lon="9.00818050652522"><ele>215.0</ele><time>2026-05-02T12:28:51.002Z</time></trkpt><trkpt lat="44.42624889753069" lon="9.008066153226379"><ele>212.00000000000003</ele><time>2026-05-02T12:28:52.002Z</time></trkpt><trkpt lat="44.426204588170755" lon="9.00795687755963"><ele>209.0</ele><time>2026-05-02T12:28:53.002Z</time></trkpt><trkpt lat="44.426147444508054" lon="9.007869722137894"><ele>217.6</ele><time>2026-05-02T12:28:54.002Z</time></trkpt><trkpt lat="44.42610051793596" lon="9.007786684444422"><ele>226.2</ele><time>2026-05-02T12:28:55.002Z</time></trkpt><trkpt lat="44.4260287381051" lon="9.007751151140786"><ele>234.79999999999998</ele><time>2026-05-02T12:28:56.002Z</time></trkpt><trkpt lat="44.425944476881284" lon="9.007768584898647"><ele>243.39999999999998</ele><time>2026-05-02T12:28:57.002Z</time></trkpt><trkpt lat="44.42586473101849" lon="9.007871666631974"><ele>252.0</ele><time>2026-05-02T12:28:58.002Z</time></trkpt><trkpt lat="44.42576615236843" lon="9.007969218190858"><ele>252.0</ele><time>2026-05-02T12:28:59.002Z</time></trkpt><trkpt lat="44.42565511812642" lon="9.008032735336764"><ele>252.0</ele><time>2026-05-02T12:29:00.002Z</time></trkpt><trkpt lat="44.425537677435" lon="9.00808767140002"><ele>252.0</ele><time>2026-05-02T12:29:01.002Z</time></trkpt><trkpt lat="44.42541586927022" lon="9.008145468525814"><ele>252.0</ele><time>2026-05-02T12:29:02.002Z</time></trkpt><trkpt lat="44.42528262369235" lon="9.00817427681658"><ele>252.0</ele><time>2026-05-02T12:29:03.002Z</time></trkpt><trkpt lat="44.42514308215207" lon="9.008168780654998"><ele>252.0</ele><time>2026-05-02T12:29:04.002Z</time></trkpt><trkpt lat="44.42500422150354" lon="9.00817401908739"><ele>252.0</ele><time>2026-05-02T12:29:05.002Z</time></trkpt><trkpt lat="44.42486617101704" lon="9.008173770085943"><ele>252.0</ele><time>2026-05-02T12:29:06.002Z</time></trkpt><trkpt lat="44.424738138815215" lon="9.00811427415141"><ele>248.75</ele><time>2026-05-02T12:29:07.002Z</time></trkpt><trkpt lat="44.42461168321899" lon="9.008054549467003"><ele>245.5</ele><time>2026-05-02T12:29:08.002Z</time></trkpt><trkpt lat="44.42448667481891" lon="9.008012706499928"><ele>242.25</ele><time>2026-05-02T12:29:09.002Z</time></trkpt><trkpt lat="44.42435956388759" lon="9.007997779985727"><ele>239.0</ele><time>2026-05-02T12:29:10.002Z</time></trkpt><trkpt lat="44.42423142262431" lon="9.008011772786196"><ele>239.0</ele><time>2026-05-02T12:29:11.002Z</time></trkpt><trkpt lat="44.42410934915543" lon="9.008034560773101"><ele>239.0</ele><time>2026-05-02T12:29:12.002Z</time></trkpt><trkpt lat="44.42399686534579" lon="9.00804651719401"><ele>239.0</ele><time>2026-05-02T12:29:13.002Z</time></trkpt><trkpt lat="44.423886381422186" lon="9.008034759651375"><ele>239.0</ele><time>2026-05-02T12:29:14.002Z</time></trkpt><trkpt lat="44.42377141223658" lon="9.00797367399896"><ele>231.0</ele><time>2026-05-02T12:29:15.002Z</time></trkpt><trkpt lat="44.42366476499532" lon="9.007882397567855"><ele>223.0</ele><time>2026-05-02T12:29:16.002Z</time></trkpt><trkpt lat="44.423557458483685" lon="9.007786884025634"><ele>215.0</ele><time>2026-05-02T12:29:17.002Z</time></trkpt><trkpt lat="44.423457879118246" lon="9.007674822275744"><ele>207.0</ele><time>2026-05-02T12:29:18.002Z</time></trkpt><trkpt lat="44.423367079434115" lon="9.007520248327637"><ele>205.0</ele><time>2026-05-02T12:29:19.002Z</time></trkpt><trkpt lat="44.423282664929324" lon="9.007370979277376"><ele>203.0</ele><time>2026-05-02T12:29:20.002Z</time></trkpt><trkpt lat="44.42317655078477" lon="9.007263438793869"><ele>201.0</ele><time>2026-05-02T12:29:21.002Z</time></trkpt><trkpt lat="44.4230499486874" lon="9.007176569475678"><ele>199.0</ele><time>2026-05-02T12:29:22.002Z</time></trkpt><trkpt lat="44.42291557464249" lon="9.007119514006295"><ele>199.0</ele><time>2026-05-02T12:29:23.002Z</time></trkpt><trkpt lat="44.42279224776166" lon="9.007066240788813"><ele>199.0</ele><time>2026-05-02T12:29:24.002Z</time></trkpt><trkpt lat="44.42269213214255" lon="9.006992147378652"><ele>199.0</ele><time>2026-05-02T12:29:25.002Z</time></trkpt><trkpt lat="44.42261134615844" lon="9.006879958048403"><ele>199.0</ele><time>2026-05-02T12:29:26.002Z</time></trkpt><trkpt lat="44.422556508339234" lon="9.006727041676342"><ele>199.0</ele><time>2026-05-02T12:29:27.002Z</time></trkpt><trkpt lat="44.42245069191326" lon="9.00662355100745"><ele>199.0</ele><time>2026-05-02T12:29:28.002Z</time></trkpt><trkpt lat="44.422327654237804" lon="9.006536456365835"><ele>199.0</ele><time>2026-05-02T12:29:29.001Z</time></trkpt><trkpt lat="44.422215913648046" lon="9.006443691842962"><ele>199.0</ele><time>2026-05-02T12:29:30.001Z</time></trkpt><trkpt lat="44.42213628331593" lon="9.006335107836291"><ele>199.0</ele><time>2026-05-02T12:29:31.001Z</time></trkpt><trkpt lat="44.42206266844476" lon="9.006251456808297"><ele>199.0</ele><time>2026-05-02T12:29:32.001Z</time></trkpt><trkpt lat="44.42197387909242" lon="9.006205541267509"><ele>199.0</ele><time>2026-05-02T12:29:33.001Z</time></trkpt><trkpt lat="44.42186103111786" lon="9.00619732358918"><ele>199.0</ele><time>2026-05-02T12:29:34.001Z</time></trkpt><trkpt lat="44.42173207642091" lon="9.006209723875376"><ele>199.0</ele><time>2026-05-02T12:29:35.001Z</time></trkpt><trkpt lat="44.42159377836282" lon="9.006192018717869"><ele>199.0</ele><time>2026-05-02T12:29:36.001Z</time></trkpt><trkpt lat="44.42147477815001" lon="9.006117541065969"><ele>199.0</ele><time>2026-05-02T12:29:37.001Z</time></trkpt><trkpt lat="44.42136514771616" lon="9.006071565418269"><ele>199.0</ele><time>2026-05-02T12:29:38.001Z</time></trkpt><trkpt lat="44.421259231620745" lon="9.006039714911168"><ele>199.0</ele><time>2026-05-02T12:29:39.001Z</time></trkpt><trkpt lat="44.421165856483285" lon="9.00596014431108"><ele>192.79999999999998</ele><time>2026-05-02T12:29:40.001Z</time></trkpt><trkpt lat="44.42109302765122" lon="9.005870113204283"><ele>186.6</ele><time>2026-05-02T12:29:41.001Z</time></trkpt><trkpt lat="44.421050229692355" lon="9.005765441318536"><ele>180.4</ele><time>2026-05-02T12:29:42.001Z</time></trkpt><trkpt lat="44.4210463629758" lon="9.005655537419779"><ele>174.2</ele><time>2026-05-02T12:29:43.001Z</time></trkpt><trkpt lat="44.42107690905387" lon="9.00553841747318"><ele>168.0</ele><time>2026-05-02T12:29:44.001Z</time></trkpt><trkpt lat="44.42113784105975" lon="9.005414933524332"><ele>167.2</ele><time>2026-05-02T12:29:45.001Z</time></trkpt><trkpt lat="44.42120341152718" lon="9.005285967357842"><ele>166.4</ele><time>2026-05-02T12:29:46.001Z</time></trkpt><trkpt lat="44.4212676551334" lon="9.005156049337831"><ele>165.6</ele><time>2026-05-02T12:29:47.001Z</time></trkpt><trkpt lat="44.42131976847022" lon="9.005019221028983"><ele>164.79999999999998</ele><time>2026-05-02T12:29:48.001Z</time></trkpt><trkpt lat="44.421372234232344" lon="9.004889743986622"><ele>164.0</ele><time>2026-05-02T12:29:49.001Z</time></trkpt><trkpt lat="44.42145764739178" lon="9.004768907120019"><ele>164.0</ele><time>2026-05-02T12:29:50.001Z</time></trkpt><trkpt lat="44.42156723274916" lon="9.004664185096946"><ele>164.0</ele><time>2026-05-02T12:29:51.001Z</time></trkpt><trkpt lat="44.42168827550519" lon="9.004560070933765"><ele>164.0</ele><time>2026-05-02T12:29:52.001Z</time></trkpt><trkpt lat="44.42181882910628" lon="9.004452782238038"><ele>164.0</ele><time>2026-05-02T12:29:53.001Z</time></trkpt><trkpt lat="44.42193345682653" lon="9.004340858275572"><ele>164.0</ele><time>2026-05-02T12:29:54.001Z</time></trkpt><trkpt lat="44.422047310265064" lon="9.004228685303868"><ele>164.0</ele><time>2026-05-02T12:29:55.001Z</time></trkpt><trkpt lat="44.42215600839888" lon="9.004115595086162"><ele>164.0</ele><time>2026-05-02T12:29:56.001Z</time></trkpt><trkpt lat="44.4222554282324" lon="9.00400642389794"><ele>164.0</ele><time>2026-05-02T12:29:57.001Z</time></trkpt><trkpt lat="44.422336933641816" lon="9.003879118083745"><ele>165.25</ele><time>2026-05-02T12:29:58.001Z</time></trkpt><trkpt lat="44.42240440971262" lon="9.00372049291997"><ele>166.5</ele><time>2026-05-02T12:29:59.001Z</time></trkpt><trkpt lat="44.4224673498634" lon="9.00356259250009"><ele>167.75</ele><time>2026-05-02T12:30:00.001Z</time></trkpt><trkpt lat="44.422523168730685" lon="9.003407237699848"><ele>169.0</ele><time>2026-05-02T12:30:01.001Z</time></trkpt><trkpt lat="44.42257504367499" lon="9.003269189970807"><ele>161.75</ele><time>2026-05-02T12:30:02.001Z</time></trkpt><trkpt lat="44.42264175112689" lon="9.003140293601774"><ele>154.5</ele><time>2026-05-02T12:30:03.001Z</time></trkpt><trkpt lat="44.422733092887384" lon="9.003022997467284"><ele>147.25</ele><time>2026-05-02T12:30:04.001Z</time></trkpt><trkpt lat="44.42283339468534" lon="9.002914105998146"><ele>140.0</ele><time>2026-05-02T12:30:05.001Z</time></trkpt><trkpt lat="44.422928336632324" lon="9.002781688561974"><ele>142.0</ele><time>2026-05-02T12:30:06.001Z</time></trkpt><trkpt lat="44.42301701196227" lon="9.002633899301504"><ele>144.0</ele><time>2026-05-02T12:30:07.001Z</time></trkpt><trkpt lat="44.42310852878648" lon="9.002494422934342"><ele>146.0</ele><time>2026-05-02T12:30:08.001Z</time></trkpt><trkpt lat="44.423213536480446" lon="9.002371104965263"><ele>148.0</ele><time>2026-05-02T12:30:09.001Z</time></trkpt><trkpt lat="44.423335046886905" lon="9.002269463978203"><ele>148.0</ele><time>2026-05-02T12:30:10.001Z</time></trkpt><trkpt lat="44.423462463190305" lon="9.002182647039827"><ele>148.0</ele><time>2026-05-02T12:30:11.001Z</time></trkpt><trkpt lat="44.4235908474648" lon="9.002082673146969"><ele>148.0</ele><time>2026-05-02T12:30:12.001Z</time></trkpt><trkpt lat="44.42371649475799" lon="9.001974542882024"><ele>148.0</ele><time>2026-05-02T12:30:13.001Z</time></trkpt><trkpt lat="44.423836115056716" lon="9.001875904274305"><ele>151.8</ele><time>2026-05-02T12:30:14.001Z</time></trkpt><trkpt lat="44.42394564178686" lon="9.001787283785562"><ele>155.60000000000002</ele><time>2026-05-02T12:30:15.001Z</time></trkpt><trkpt lat="44.424045297941795" lon="9.001722719951164"><ele>159.39999999999998</ele><time>2026-05-02T12:30:16.001Z</time></trkpt><trkpt lat="44.42413870603584" lon="9.0016775090126"><ele>163.2</ele><time>2026-05-02T12:30:17.001Z</time></trkpt><trkpt lat="44.42420741724417" lon="9.001634414830864"><ele>167.0</ele><time>2026-05-02T12:30:18.001Z</time></trkpt><trkpt lat="44.42425309815089" lon="9.001564219701955"><ele>167.33333333333331</ele><time>2026-05-02T12:30:19.001Z</time></trkpt><trkpt lat="44.424269422778444" lon="9.001468373770182"><ele>167.66666666666666</ele><time>2026-05-02T12:30:20.001Z</time></trkpt><trkpt lat="44.42427162163371" lon="9.001332807398846"><ele>168.0</ele><time>2026-05-02T12:30:21.001Z</time></trkpt><trkpt lat="44.424229136239795" lon="9.001207072038344"><ele>168.33333333333334</ele><time>2026-05-02T12:30:22.001Z</time></trkpt><trkpt lat="44.424192702522234" lon="9.001122447579727"><ele>168.66666666666669</ele><time>2026-05-02T12:30:23.001Z</time></trkpt><trkpt lat="44.42412638006327" lon="9.001063970087774"><ele>169.0</ele><time>2026-05-02T12:30:24.001Z</time></trkpt><trkpt lat="44.42403073985205" lon="9.00108910324036"><ele>169.0</ele><time>2026-05-02T12:30:25.001Z</time></trkpt><trkpt lat="44.423912230137795" lon="9.001104095611568"><ele>169.0</ele><time>2026-05-02T12:30:26.001Z</time></trkpt><trkpt lat="44.423779232216255" lon="9.001114699377583"><ele>169.0</ele><time>2026-05-02T12:30:27.001Z</time></trkpt><trkpt lat="44.42363640538433" lon="9.001109855507666"><ele>169.0</ele><time>2026-05-02T12:30:28.001Z</time></trkpt><trkpt lat="44.42348972571994" lon="9.001123577734916"><ele>169.25</ele><time>2026-05-02T12:30:29.001Z</time></trkpt><trkpt lat="44.42334317760376" lon="9.001167384460695"><ele>169.5</ele><time>2026-05-02T12:30:30.001Z</time></trkpt><trkpt lat="44.42324164133856" lon="9.00120910221413"><ele>169.75</ele><time>2026-05-02T12:30:31.001Z</time></trkpt><trkpt lat="44.42312342976264" lon="9.001197643962625"><ele>170.0</ele><time>2026-05-02T12:30:32.001Z</time></trkpt><trkpt lat="44.422998778286335" lon="9.001183271768907"><ele>172.25</ele><time>2026-05-02T12:30:33.001Z</time></trkpt><trkpt lat="44.422884201291645" lon="9.00119122221536"><ele>174.5</ele><time>2026-05-02T12:30:34.001Z</time></trkpt><trkpt lat="44.42275821482817" lon="9.00125256502944"><ele>176.75</ele><time>2026-05-02T12:30:35.001Z</time></trkpt><trkpt lat="44.422624136916234" lon="9.001338008726107"><ele>179.0</ele><time>2026-05-02T12:30:36.001Z</time></trkpt><trkpt lat="44.42248648437083" lon="9.001422710832086"><ele>179.0</ele><time>2026-05-02T12:30:37.001Z</time></trkpt><trkpt lat="44.42236302824462" lon="9.001488951968643"><ele>179.0</ele><time>2026-05-02T12:30:38.001Z</time></trkpt><trkpt lat="44.42225742709423" lon="9.001551080494352"><ele>179.0</ele><time>2026-05-02T12:30:39.001Z</time></trkpt><trkpt lat="44.42217139029753" lon="9.001625052508448"><ele>179.0</ele><time>2026-05-02T12:30:40.001Z</time></trkpt><trkpt lat="44.42209325958929" lon="9.001735077387647"><ele>176.25</ele><time>2026-05-02T12:30:41.001Z</time></trkpt><trkpt lat="44.422025738571506" lon="9.001875277156282"><ele>173.5</ele><time>2026-05-02T12:30:42.001Z</time></trkpt><trkpt lat="44.42195162473645" lon="9.00199793457453"><ele>170.75</ele><time>2026-05-02T12:30:43.001Z</time></trkpt><trkpt lat="44.42187165475524" lon="9.002099585396058"><ele>168.0</ele><time>2026-05-02T12:30:44.001Z</time></trkpt><trkpt lat="44.421767806100924" lon="9.002196319419493"><ele>168.0</ele><time>2026-05-02T12:30:45.001Z</time></trkpt><trkpt lat="44.42164263967561" lon="9.002289824651783"><ele>168.0</ele><time>2026-05-02T12:30:46.001Z</time></trkpt><trkpt lat="44.42150980106999" lon="9.002384255440496"><ele>168.0</ele><time>2026-05-02T12:30:47.001Z</time></trkpt><trkpt lat="44.42138184060104" lon="9.0024786674477"><ele>168.0</ele><time>2026-05-02T12:30:48.001Z</time></trkpt><trkpt lat="44.421256951621906" lon="9.002586753823406"><ele>161.33333333333334</ele><time>2026-05-02T12:30:49.001Z</time></trkpt><trkpt lat="44.42113068156483" lon="9.00269377153952"><ele>154.66666666666669</ele><time>2026-05-02T12:30:50.001Z</time></trkpt><trkpt lat="44.4210030884218" lon="9.002803932272478"><ele>148.0</ele><time>2026-05-02T12:30:51.001Z</time></trkpt><trkpt lat="44.42086544300129" lon="9.002905644840366"><ele>148.0</ele><time>2026-05-02T12:30:52.001Z</time></trkpt><trkpt lat="44.42072751833157" lon="9.002991041412718"><ele>148.0</ele><time>2026-05-02T12:30:53.001Z</time></trkpt><trkpt lat="44.42060446577055" lon="9.00305097798436"><ele>148.0</ele><time>2026-05-02T12:30:54.001Z</time></trkpt><trkpt lat="44.42050787219996" lon="9.003091458209008"><ele>148.0</ele><time>2026-05-02T12:30:55.001Z</time></trkpt><trkpt lat="44.42043366985714" lon="9.003119996805886"><ele>144.0</ele><time>2026-05-02T12:30:56.001Z</time></trkpt><trkpt lat="44.42036340110436" lon="9.003135017081332"><ele>140.0</ele><time>2026-05-02T12:30:57.001Z</time></trkpt><trkpt lat="44.42028920027897" lon="9.003103038964934"><ele>136.0</ele><time>2026-05-02T12:30:58.001Z</time></trkpt><trkpt lat="44.42023440978926" lon="9.003016086677906"><ele>132.0</ele><time>2026-05-02T12:30:59.001Z</time></trkpt><trkpt lat="44.42019773251764" lon="9.002932651209756"><ele>128.0</ele><time>2026-05-02T12:31:00.001Z</time></trkpt><trkpt lat="44.42017093541287" lon="9.002812308716145"><ele>124.0</ele><time>2026-05-02T12:31:01.001Z</time></trkpt><trkpt lat="44.42014678710359" lon="9.002670131827829"><ele>124.0</ele><time>2026-05-02T12:31:02.001Z</time></trkpt><trkpt lat="44.42012358037007" lon="9.002525676878317"><ele>124.0</ele><time>2026-05-02T12:31:03.001Z</time></trkpt><trkpt lat="44.42008457488587" lon="9.002391143755725"><ele>124.0</ele><time>2026-05-02T12:31:04.001Z</time></trkpt><trkpt lat="44.42002551401037" lon="9.002258666973306"><ele>124.0</ele><time>2026-05-02T12:31:05.001Z</time></trkpt><trkpt lat="44.41995445754931" lon="9.002106977748944"><ele>126.0</ele><time>2026-05-02T12:31:06.001Z</time></trkpt><trkpt lat="44.41985257573245" lon="9.001978697733344"><ele>128.0</ele><time>2026-05-02T12:31:07.001Z</time></trkpt><trkpt lat="44.419767213149576" lon="9.001855676483112"><ele>130.0</ele><time>2026-05-02T12:31:08.002Z</time></trkpt><trkpt lat="44.41971011315994" lon="9.001752683709789"><ele>132.0</ele><time>2026-05-02T12:31:09.002Z</time></trkpt><trkpt lat="44.41963793240428" lon="9.001616965955522"><ele>132.0</ele><time>2026-05-02T12:31:10.002Z</time></trkpt><trkpt lat="44.419599141902786" lon="9.001464383392763"><ele>132.0</ele><time>2026-05-02T12:31:11.002Z</time></trkpt><trkpt lat="44.41955411020334" lon="9.001326853122563"><ele>132.0</ele><time>2026-05-02T12:31:12.002Z</time></trkpt><trkpt lat="44.41953135161195" lon="9.00119869186682"><ele>132.0</ele><time>2026-05-02T12:31:13.002Z</time></trkpt><trkpt lat="44.419498045059576" lon="9.001094608335228"><ele>132.0</ele><time>2026-05-02T12:31:14.002Z</time></trkpt><trkpt lat="44.41944843316507" lon="9.001015311589533"><ele>132.0</ele><time>2026-05-02T12:31:15.002Z</time></trkpt><trkpt lat="44.41938708175792" lon="9.000966300744812"><ele>132.0</ele><time>2026-05-02T12:31:16.002Z</time></trkpt><trkpt lat="44.419282113810986" lon="9.000904080347047"><ele>132.0</ele><time>2026-05-02T12:31:18.002Z</time></trkpt><trkpt lat="44.41921072013886" lon="9.000890554075431"><ele>132.0</ele><time>2026-05-02T12:31:20.002Z</time></trkpt><trkpt lat="44.41913469782078" lon="9.000923646095718"><ele>132.0</ele><time>2026-05-02T12:31:21.002Z</time></trkpt><trkpt lat="44.41905388404529" lon="9.001007216263577"><ele>132.0</ele><time>2026-05-02T12:31:22.002Z</time></trkpt><trkpt lat="44.41898080916615" lon="9.001104331236444"><ele>132.0</ele><time>2026-05-02T12:31:23.002Z</time></trkpt><trkpt lat="44.41892364716962" lon="9.001185057737239"><ele>132.0</ele><time>2026-05-02T12:31:24.002Z</time></trkpt><trkpt lat="44.41885958364159" lon="9.00123494194091"><ele>132.0</ele><time>2026-05-02T12:31:25.002Z</time></trkpt><trkpt lat="44.41877944879711" lon="9.001270100314331"><ele>132.0</ele><time>2026-05-02T12:31:26.002Z</time></trkpt><trkpt lat="44.41866421075168" lon="9.001285085630952"><ele>132.0</ele><time>2026-05-02T12:31:27.002Z</time></trkpt><trkpt lat="44.4185310174222" lon="9.001297673405473"><ele>135.0</ele><time>2026-05-02T12:31:28.002Z</time></trkpt><trkpt lat="44.418391290107124" lon="9.001330681099219"><ele>138.0</ele><time>2026-05-02T12:31:29.002Z</time></trkpt><trkpt lat="44.418247395995856" lon="9.001398498299029"><ele>141.0</ele><time>2026-05-02T12:31:30.002Z</time></trkpt><trkpt lat="44.41810486233345" lon="9.001476419028208"><ele>144.0</ele><time>2026-05-02T12:31:31.002Z</time></trkpt><trkpt lat="44.41797063884735" lon="9.001548497952815"><ele>139.0</ele><time>2026-05-02T12:31:32.002Z</time></trkpt><trkpt lat="44.41785809886878" lon="9.001622639443696"><ele>134.0</ele><time>2026-05-02T12:31:33.002Z</time></trkpt><trkpt lat="44.417754346815805" lon="9.001693931047738"><ele>129.0</ele><time>2026-05-02T12:31:34.001Z</time></trkpt><trkpt lat="44.41765476563957" lon="9.001752553443641"><ele>124.0</ele><time>2026-05-02T12:31:35.001Z</time></trkpt><trkpt lat="44.41756380893688" lon="9.001811523284587"><ele>119.0</ele><time>2026-05-02T12:31:36.001Z</time></trkpt><trkpt lat="44.41748700278187" lon="9.001860456528904"><ele>117.49999999999999</ele><time>2026-05-02T12:31:37.001Z</time></trkpt><trkpt lat="44.41742438730131" lon="9.001890898396153"><ele>116.0</ele><time>2026-05-02T12:31:38.001Z</time></trkpt><trkpt lat="44.417360629569764" lon="9.001900608884897"><ele>114.5</ele><time>2026-05-02T12:31:40.001Z</time></trkpt><trkpt lat="44.41736743832152" lon="9.002065457443413"><ele>113.0</ele><time>2026-05-02T12:31:45.001Z</time></trkpt><trkpt lat="44.41746127147717" lon="9.002008087155074"><ele>111.49999999999999</ele><time>2026-05-02T12:31:47.001Z</time></trkpt><trkpt lat="44.41752852629497" lon="9.001983467452352"><ele>110.0</ele><time>2026-05-02T12:31:48.001Z</time></trkpt><trkpt lat="44.417630306503916" lon="9.001927527440111"><ele>110.0</ele><time>2026-05-02T12:31:49.001Z</time></trkpt><trkpt lat="44.41771991163191" lon="9.001884221654901"><ele>110.0</ele><time>2026-05-02T12:31:50.001Z</time></trkpt><trkpt lat="44.41782373380198" lon="9.001832908237224"><ele>110.0</ele><time>2026-05-02T12:31:51.001Z</time></trkpt><trkpt lat="44.41794010046812" lon="9.001774916382033"><ele>110.0</ele><time>2026-05-02T12:31:52.001Z</time></trkpt><trkpt lat="44.41805359167207" lon="9.00171908935627"><ele>110.0</ele><time>2026-05-02T12:31:53.001Z</time></trkpt><trkpt lat="44.41816700130583" lon="9.001654899735971"><ele>118.5</ele><time>2026-05-02T12:31:54.001Z</time></trkpt><trkpt lat="44.418268140810646" lon="9.001570330540623"><ele>127.0</ele><time>2026-05-02T12:31:55.001Z</time></trkpt><trkpt lat="44.41838392962079" lon="9.001518768023441"><ele>135.5</ele><time>2026-05-02T12:31:56.001Z</time></trkpt><trkpt lat="44.41850550352736" lon="9.001479695598091"><ele>144.0</ele><time>2026-05-02T12:31:57.001Z</time></trkpt><trkpt lat="44.418636924571636" lon="9.001485210256224"><ele>144.0</ele><time>2026-05-02T12:31:58.001Z</time></trkpt><trkpt lat="44.418763922779775" lon="9.001512060095168"><ele>144.0</ele><time>2026-05-02T12:31:59.001Z</time></trkpt><trkpt lat="44.41888007491914" lon="9.001534807341974"><ele>144.0</ele><time>2026-05-02T12:32:00.001Z</time></trkpt><trkpt lat="44.41898312355324" lon="9.001544976669187"><ele>144.0</ele><time>2026-05-02T12:32:01.001Z</time></trkpt><trkpt lat="44.41907112138532" lon="9.001558254685436"><ele>144.0</ele><time>2026-05-02T12:32:02.001Z</time></trkpt><trkpt lat="44.41913697621858" lon="9.001594803347219"><ele>141.6</ele><time>2026-05-02T12:32:03.001Z</time></trkpt><trkpt lat="44.41919156499055" lon="9.001659268413475"><ele>139.2</ele><time>2026-05-02T12:32:04.001Z</time></trkpt><trkpt lat="44.41924564102941" lon="9.001766723859953"><ele>136.79999999999998</ele><time>2026-05-02T12:32:05.001Z</time></trkpt><trkpt lat="44.41929716313525" lon="9.001924769071872"><ele>134.4</ele><time>2026-05-02T12:32:06.001Z</time></trkpt><trkpt lat="44.41935092589924" lon="9.002107375541778"><ele>132.0</ele><time>2026-05-02T12:32:07.001Z</time></trkpt><trkpt lat="44.419403698576076" lon="9.002257223250322"><ele>127.39999999999999</ele><time>2026-05-02T12:32:08.001Z</time></trkpt><trkpt lat="44.41944258809863" lon="9.002369788124577"><ele>122.79999999999998</ele><time>2026-05-02T12:32:09.001Z</time></trkpt><trkpt lat="44.41945260905111" lon="9.002537241942717"><ele>118.2</ele><time>2026-05-02T12:32:11.001Z</time></trkpt><trkpt lat="44.41944361646332" lon="9.002636351289109"><ele>113.6</ele><time>2026-05-02T12:32:12.001Z</time></trkpt><trkpt lat="44.419419597984415" lon="9.002781278979551"><ele>109.0</ele><time>2026-05-02T12:32:13.001Z</time></trkpt><trkpt lat="44.419387049362385" lon="9.002930571206191"><ele>106.83333333333334</ele><time>2026-05-02T12:32:14.001Z</time></trkpt><trkpt lat="44.41933151693081" lon="9.003049461805235"><ele>104.66666666666667</ele><time>2026-05-02T12:32:15.001Z</time></trkpt><trkpt lat="44.41930223776831" lon="9.003161633418983"><ele>102.5</ele><time>2026-05-02T12:32:16.001Z</time></trkpt><trkpt lat="44.41930539107005" lon="9.003256500091219"><ele>100.33333333333334</ele><time>2026-05-02T12:32:17.001Z</time></trkpt><trkpt lat="44.41933192052629" lon="9.003341687156778"><ele>98.16666666666667</ele><time>2026-05-02T12:32:18.001Z</time></trkpt><trkpt lat="44.41937016705471" lon="9.003416936489561"><ele>96.0</ele><time>2026-05-02T12:32:19.001Z</time></trkpt><trkpt lat="44.41943123813089" lon="9.003455651343904"><ele>96.0</ele><time>2026-05-02T12:32:20.001Z</time></trkpt><trkpt lat="44.4195111791118" lon="9.003476735577449"><ele>96.0</ele><time>2026-05-02T12:32:21.001Z</time></trkpt><trkpt lat="44.41961455775552" lon="9.003501786857163"><ele>96.0</ele><time>2026-05-02T12:32:22.001Z</time></trkpt><trkpt lat="44.41971316073432" lon="9.003559013455924"><ele>96.0</ele><time>2026-05-02T12:32:23.001Z</time></trkpt><trkpt lat="44.41979029537656" lon="9.00362244877476"><ele>96.0</ele><time>2026-05-02T12:32:24.001Z</time></trkpt><trkpt lat="44.41984804843928" lon="9.0036929135117"><ele>97.66666666666667</ele><time>2026-05-02T12:32:25.001Z</time></trkpt><trkpt lat="44.419865922538186" lon="9.003805013388712"><ele>99.33333333333334</ele><time>2026-05-02T12:32:26.001Z</time></trkpt><trkpt lat="44.41988377739953" lon="9.003918927635072"><ele>101.0</ele><time>2026-05-02T12:32:27.001Z</time></trkpt><trkpt lat="44.41988946684226" lon="9.00403263055434"><ele>102.66666666666667</ele><time>2026-05-02T12:32:28.001Z</time></trkpt><trkpt lat="44.41988890609248" lon="9.004137045815993"><ele>104.33333333333334</ele><time>2026-05-02T12:32:29.001Z</time></trkpt><trkpt lat="44.419854026761364" lon="9.00424394302922"><ele>106.0</ele><time>2026-05-02T12:32:30.001Z</time></trkpt><trkpt lat="44.419820957322855" lon="9.004413184397812"><ele>106.0</ele><time>2026-05-02T12:32:31.001Z</time></trkpt><trkpt lat="44.41977900943971" lon="9.004611244721216"><ele>106.0</ele><time>2026-05-02T12:32:32.001Z</time></trkpt><trkpt lat="44.419746323994744" lon="9.004805910804587"><ele>106.0</ele><time>2026-05-02T12:32:33.001Z</time></trkpt><trkpt lat="44.41966228486484" lon="9.004970606997032"><ele>106.0</ele><time>2026-05-02T12:32:34.001Z</time></trkpt><trkpt lat="44.41958739113733" lon="9.005123062510604"><ele>106.00000000000001</ele><time>2026-05-02T12:32:35.001Z</time></trkpt><trkpt lat="44.41953658593367" lon="9.005256625971322"><ele>106.0</ele><time>2026-05-02T12:32:36.001Z</time></trkpt><trkpt lat="44.41948139921496" lon="9.005351243124622"><ele>106.0</ele><time>2026-05-02T12:32:37.001Z</time></trkpt><trkpt lat="44.41943957283856" lon="9.005442849826805"><ele>106.0</ele><time>2026-05-02T12:32:38.001Z</time></trkpt><trkpt lat="44.41941622883127" lon="9.005539988544266"><ele>106.00000000000001</ele><time>2026-05-02T12:32:39.001Z</time></trkpt><trkpt lat="44.41940251941729" lon="9.005639230788182"><ele>106.0</ele><time>2026-05-02T12:32:40.001Z</time></trkpt><trkpt lat="44.41939668630641" lon="9.005747561248572"><ele>106.8</ele><time>2026-05-02T12:32:41.001Z</time></trkpt><trkpt lat="44.41941643161962" lon="9.005868032967564"><ele>107.6</ele><time>2026-05-02T12:32:42.001Z</time></trkpt><trkpt lat="44.41945150690749" lon="9.005998918307833"><ele>108.4</ele><time>2026-05-02T12:32:43.001Z</time></trkpt><trkpt lat="44.41948739869116" lon="9.006109668529447"><ele>109.2</ele><time>2026-05-02T12:32:44.001Z</time></trkpt><trkpt lat="44.41949197308041" lon="9.006209426939469"><ele>110.0</ele><time>2026-05-02T12:32:45.001Z</time></trkpt><trkpt lat="44.41954823074911" lon="9.006363244242435"><ele>110.0</ele><time>2026-05-02T12:32:47.001Z</time></trkpt><trkpt lat="44.41963773729448" lon="9.00640223994086"><ele>110.0</ele><time>2026-05-02T12:32:48.001Z</time></trkpt><trkpt lat="44.41973207100495" lon="9.00648268630915"><ele>110.0</ele><time>2026-05-02T12:32:49.001Z</time></trkpt><trkpt lat="44.419840569095946" lon="9.006553994676834"><ele>110.0</ele><time>2026-05-02T12:32:50.001Z</time></trkpt><trkpt lat="44.41993878728909" lon="9.006619910417426"><ele>110.0</ele><time>2026-05-02T12:32:51.001Z</time></trkpt><trkpt lat="44.42003863621943" lon="9.006688424791246"><ele>111.25</ele><time>2026-05-02T12:32:52.001Z</time></trkpt><trkpt lat="44.42013871973955" lon="9.006759963534506"><ele>112.5</ele><time>2026-05-02T12:32:53.001Z</time></trkpt><trkpt lat="44.420241930991565" lon="9.006833737982701"><ele>113.75</ele><time>2026-05-02T12:32:54.001Z</time></trkpt><trkpt lat="44.42034855845109" lon="9.006909954267167"><ele>115.0</ele><time>2026-05-02T12:32:55.001Z</time></trkpt><trkpt lat="44.42045756956079" lon="9.006967174936321"><ele>121.5</ele><time>2026-05-02T12:32:56.001Z</time></trkpt><trkpt lat="44.420562509914845" lon="9.007035077886165"><ele>128.0</ele><time>2026-05-02T12:32:57.001Z</time></trkpt><trkpt lat="44.420669293207574" lon="9.007090284149772"><ele>134.5</ele><time>2026-05-02T12:32:58.001Z</time></trkpt><trkpt lat="44.42077100654886" lon="9.007157304589663"><ele>141.0</ele><time>2026-05-02T12:32:59.001Z</time></trkpt><trkpt lat="44.420872364314306" lon="9.00721009094278"><ele>141.0</ele><time>2026-05-02T12:33:00.001Z</time></trkpt><trkpt lat="44.42097430107075" lon="9.007288620217455"><ele>141.0</ele><time>2026-05-02T12:33:01.001Z</time></trkpt><trkpt lat="44.42107137594679" lon="9.007373626528931"><ele>141.0</ele><time>2026-05-02T12:33:02.001Z</time></trkpt><trkpt lat="44.4211695703311" lon="9.007467065187514"><ele>141.0</ele><time>2026-05-02T12:33:03.001Z</time></trkpt><trkpt lat="44.42122920099453" lon="9.007622317129302"><ele>138.0</ele><time>2026-05-02T12:33:04.001Z</time></trkpt><trkpt lat="44.421314779537155" lon="9.007771126425492"><ele>135.0</ele><time>2026-05-02T12:33:05.001Z</time></trkpt><trkpt lat="44.421389892334965" lon="9.007932587645856"><ele>132.0</ele><time>2026-05-02T12:33:06.001Z</time></trkpt><trkpt lat="44.421473790502716" lon="9.008091122396438"><ele>129.0</ele><time>2026-05-02T12:33:07.001Z</time></trkpt><trkpt lat="44.42155716968772" lon="9.008250755175714"><ele>124.0</ele><time>2026-05-02T12:33:08.001Z</time></trkpt><trkpt lat="44.42163626503122" lon="9.008415173745783"><ele>119.0</ele><time>2026-05-02T12:33:09.001Z</time></trkpt><trkpt lat="44.42170561007802" lon="9.008569874707897"><ele>114.0</ele><time>2026-05-02T12:33:10.001Z</time></trkpt><trkpt lat="44.42174955553442" lon="9.008726900196866"><ele>109.0</ele><time>2026-05-02T12:33:11.001Z</time></trkpt><trkpt lat="44.421823638559786" lon="9.008853253287567"><ele>109.0</ele><time>2026-05-02T12:33:12.001Z</time></trkpt><trkpt lat="44.421867245300646" lon="9.009001449794075"><ele>109.0</ele><time>2026-05-02T12:33:13.001Z</time></trkpt><trkpt lat="44.42191825800482" lon="9.009132509271799"><ele>109.0</ele><time>2026-05-02T12:33:14.001Z</time></trkpt><trkpt lat="44.42195816447408" lon="9.009255570137341"><ele>109.0</ele><time>2026-05-02T12:33:15.001Z</time></trkpt><trkpt lat="44.42198897648068" lon="9.00938384103157"><ele>109.0</ele><time>2026-05-02T12:33:16.001Z</time></trkpt><trkpt lat="44.42203103932297" lon="9.00950556091521"><ele>109.4</ele><time>2026-05-02T12:33:17.001Z</time></trkpt><trkpt lat="44.42204818047981" lon="9.009622587342461"><ele>109.80000000000001</ele><time>2026-05-02T12:33:18.001Z</time></trkpt><trkpt lat="44.42206239361163" lon="9.009744217691797"><ele>110.19999999999999</ele><time>2026-05-02T12:33:19.001Z</time></trkpt><trkpt lat="44.422082420536185" lon="9.009865509364122"><ele>110.6</ele><time>2026-05-02T12:33:20.001Z</time></trkpt><trkpt lat="44.422101168649796" lon="9.00996693549695"><ele>111.0</ele><time>2026-05-02T12:33:21.001Z</time></trkpt><trkpt lat="44.422105057987864" lon="9.010127624586605"><ele>111.16666666666667</ele><time>2026-05-02T12:33:23.001Z</time></trkpt><trkpt lat="44.42216057839483" lon="9.010190051276302"><ele>111.33333333333334</ele><time>2026-05-02T12:33:26.001Z</time></trkpt><trkpt lat="44.42223897585181" lon="9.010214086949324"><ele>111.5</ele><time>2026-05-02T12:33:55.001Z</time></trkpt><trkpt lat="44.42229937850473" lon="9.010246309523492"><ele>111.66666666666667</ele><time>2026-05-02T12:34:10.001Z</time></trkpt><trkpt lat="44.42237478082434" lon="9.010234202759145"><ele>111.83333333333334</ele><time>2026-05-02T12:34:14.001Z</time></trkpt><trkpt lat="44.422439728570495" lon="9.010301798479587"><ele>112.0</ele><time>2026-05-02T12:34:16.001Z</time></trkpt><trkpt lat="44.42250057905609" lon="9.01037094457101"><ele>112.00000000000001</ele><time>2026-05-02T12:34:18.001Z</time></trkpt><trkpt lat="44.42257196183856" lon="9.010433632214228"><ele>112.0</ele><time>2026-05-02T12:34:20.001Z</time></trkpt><trkpt lat="44.422659071128955" lon="9.010500713073093"><ele>112.0</ele><time>2026-05-02T12:34:22.001Z</time></trkpt><trkpt lat="44.42274203519837" lon="9.010555817524782"><ele>112.0</ele><time>2026-05-02T12:34:24.001Z</time></trkpt><trkpt lat="44.42279366866045" lon="9.010606328849782"><ele>112.00000000000001</ele><time>2026-05-02T12:34:26.001Z</time></trkpt><trkpt lat="44.42271103682026" lon="9.010544127813999"><ele>112.0</ele><time>2026-05-02T12:34:50.001Z</time></trkpt><trkpt lat="44.42263466808226" lon="9.010476621361041"><ele>112.0</ele><time>2026-05-02T12:34:52.001Z</time></trkpt><trkpt lat="44.422541010000096" lon="9.010399284170353"><ele>111.99999999999999</ele><time>2026-05-02T12:34:54.001Z</time></trkpt><trkpt lat="44.42244327668371" lon="9.010311765483413"><ele>111.99999999999999</ele><time>2026-05-02T12:34:56.001Z</time></trkpt><trkpt lat="44.42235926334193" lon="9.010252490064088"><ele>112.0</ele><time>2026-05-02T12:34:58.001Z</time></trkpt><trkpt lat="44.42228266690923" lon="9.010209147922483"><ele>112.0</ele><time>2026-05-02T12:35:00.001Z</time></trkpt><trkpt lat="44.42217561159226" lon="9.009958917799183"><ele>111.66666666666667</ele><time>2026-05-02T12:35:04.001Z</time></trkpt><trkpt lat="44.422122720343914" lon="9.009840331883503"><ele>111.33333333333334</ele><time>2026-05-02T12:35:06.001Z</time></trkpt><trkpt lat="44.422241702495626" lon="9.009976701422904"><ele>111.0</ele><time>2026-05-02T12:35:08.001Z</time></trkpt><trkpt lat="44.42194715853985" lon="9.009205037213421"><ele>110.66666666666667</ele><time>2026-05-02T12:35:15.001Z</time></trkpt><trkpt lat="44.42194130824473" lon="9.009107377777191"><ele>110.33333333333334</ele><time>2026-05-02T12:35:16.001Z</time></trkpt><trkpt lat="44.42190336274769" lon="9.00898739298529"><ele>110.0</ele><time>2026-05-02T12:35:17.001Z</time></trkpt><trkpt lat="44.4218639704001" lon="9.008896321408495"><ele>109.66666666666667</ele><time>2026-05-02T12:35:18.001Z</time></trkpt><trkpt lat="44.421810227434946" lon="9.008777962576689"><ele>109.33333333333334</ele><time>2026-05-02T12:35:20.001Z</time></trkpt><trkpt lat="44.4217635546396" lon="9.008697579404211"><ele>109.0</ele><time>2026-05-02T12:35:22.001Z</time></trkpt><trkpt lat="44.42172065536869" lon="9.008609891106598"><ele>109.00000000000001</ele><time>2026-05-02T12:35:24.001Z</time></trkpt><trkpt lat="44.421702966508306" lon="9.008507411168074"><ele>109.0</ele><time>2026-05-02T12:35:26.001Z</time></trkpt><trkpt lat="44.42164196276509" lon="9.008400411142896"><ele>109.0</ele><time>2026-05-02T12:35:35.001Z</time></trkpt><trkpt lat="44.42159303991495" lon="9.008275764789675"><ele>109.0</ele><time>2026-05-02T12:35:37.001Z</time></trkpt><trkpt lat="44.42155246965859" lon="9.008185541401119"><ele>109.00000000000001</ele><time>2026-05-02T12:35:39.001Z</time></trkpt><trkpt lat="44.42150332223653" lon="9.008119962282484"><ele>109.0</ele><time>2026-05-02T12:35:43.001Z</time></trkpt><trkpt lat="44.42155941355832" lon="9.008212475747559"><ele>109.0</ele><time>2026-05-02T12:35:54.001Z</time></trkpt><trkpt lat="44.42162773050096" lon="9.008384790032922"><ele>109.0</ele><time>2026-05-02T12:35:56.001Z</time></trkpt><trkpt lat="44.421672459680444" lon="9.008476849009583"><ele>109.0</ele><time>2026-05-02T12:35:57.001Z</time></trkpt><trkpt lat="44.42172009539415" lon="9.008543668388858"><ele>109.0</ele><time>2026-05-02T12:35:58.001Z</time></trkpt><trkpt lat="44.42175639794781" lon="9.008646009884803"><ele>109.0</ele><time>2026-05-02T12:36:00.001Z</time></trkpt><trkpt lat="44.421800239854" lon="9.00874771694018"><ele>109.00000000000001</ele><time>2026-05-02T12:39:38.001Z</time></trkpt><trkpt lat="44.4218542994373" lon="9.008868819960858"><ele>109.0</ele><time>2026-05-02T12:39:40.001Z</time></trkpt><trkpt lat="44.421896341844935" lon="9.00897886626667"><ele>109.0</ele><time>2026-05-02T12:39:42.001Z</time></trkpt><trkpt lat="44.42193717001102" lon="9.009081737611577"><ele>109.0</ele><time>2026-05-02T12:39:45.001Z</time></trkpt><trkpt lat="44.42190329673752" lon="9.008996070676835"><ele>109.00000000000001</ele><time>2026-05-02T12:39:57.001Z</time></trkpt><trkpt lat="44.421863328780944" lon="9.008897169383802"><ele>109.0</ele><time>2026-05-02T12:39:59.001Z</time></trkpt><trkpt lat="44.42181881564098" lon="9.00879004411564"><ele>109.00000000000001</ele><time>2026-05-02T12:40:01.001Z</time></trkpt><trkpt lat="44.421784252454415" lon="9.008711903135957"><ele>109.0</ele><time>2026-05-02T12:40:04.001Z</time></trkpt><trkpt lat="44.42174076493725" lon="9.008583340816674"><ele>109.0</ele><time>2026-05-02T12:40:29Z</time></trkpt><trkpt lat="44.42169726537552" lon="9.008501710996281"><ele>109.0</ele><time>2026-05-02T12:40:30Z</time></trkpt><trkpt lat="44.42165201095522" lon="9.008431091858077"><ele>109.00000000000001</ele><time>2026-05-02T12:40:31Z</time></trkpt><trkpt lat="44.42161759163725" lon="9.008356936901814"><ele>109.0</ele><time>2026-05-02T12:40:32Z</time></trkpt><trkpt lat="44.421552037083316" lon="9.008207817264013"><ele>109.00000000000001</ele><time>2026-05-02T12:40:34Z</time></trkpt><trkpt lat="44.42151244475144" lon="9.008126545230303"><ele>109.0</ele><time>2026-05-02T12:40:35Z</time></trkpt><trkpt lat="44.42146382258048" lon="9.00803702744749"><ele>109.0</ele><time>2026-05-02T12:40:36Z</time></trkpt><trkpt lat="44.42140984152203" lon="9.007934369325758"><ele>109.0</ele><time>2026-05-02T12:40:37Z</time></trkpt><trkpt lat="44.421356538898685" lon="9.007827655436005"><ele>109.00000000000001</ele><time>2026-05-02T12:40:38Z</time></trkpt><trkpt lat="44.421304674840684" lon="9.007725938431069"><ele>109.0</ele><time>2026-05-02T12:40:39Z</time></trkpt><trkpt lat="44.42125630702015" lon="9.007628750494268"><ele>109.00000000000001</ele><time>2026-05-02T12:40:40Z</time></trkpt><trkpt lat="44.42121025820619" lon="9.007532574600704"><ele>109.0</ele><time>2026-05-02T12:40:41Z</time></trkpt><trkpt lat="44.42116433796177" lon="9.007438882908644"><ele>109.0</ele><time>2026-05-02T12:40:42Z</time></trkpt><trkpt lat="44.42110478551984" lon="9.007347225552948"><ele>109.0</ele><time>2026-05-02T12:40:43Z</time></trkpt><trkpt lat="44.421020758891046" lon="9.007285573228897"><ele>109.00000000000001</ele><time>2026-05-02T12:40:44Z</time></trkpt><trkpt lat="44.420939777630856" lon="9.00721339216076"><ele>109.0</ele><time>2026-05-02T12:40:45Z</time></trkpt><trkpt lat="44.42085168299275" lon="9.007154931452343"><ele>110.2</ele><time>2026-05-02T12:40:46Z</time></trkpt><trkpt lat="44.420762075161214" lon="9.007112046573717"><ele>111.4</ele><time>2026-05-02T12:40:47Z</time></trkpt><trkpt lat="44.420670621528345" lon="9.007072707033442"><ele>112.6</ele><time>2026-05-02T12:40:48Z</time></trkpt><trkpt lat="44.4205851264188" lon="9.007029499233248"><ele>113.8</ele><time>2026-05-02T12:40:49Z</time></trkpt><trkpt lat="44.42050186457334" lon="9.00697861487067"><ele>115.0</ele><time>2026-05-02T12:40:50Z</time></trkpt><trkpt lat="44.420412021062916" lon="9.006909689833561"><ele>115.0</ele><time>2026-05-02T12:40:51Z</time></trkpt><trkpt lat="44.42031763353243" lon="9.006842581392691"><ele>115.0</ele><time>2026-05-02T12:40:52Z</time></trkpt><trkpt lat="44.4202196430137" lon="9.00676706535321"><ele>115.0</ele><time>2026-05-02T12:40:53Z</time></trkpt><trkpt lat="44.420118242705236" lon="9.006687727393489"><ele>115.0</ele><time>2026-05-02T12:40:54Z</time></trkpt><trkpt lat="44.42001633564474" lon="9.006615392177704"><ele>115.0</ele><time>2026-05-02T12:40:55Z</time></trkpt><trkpt lat="44.41992099363951" lon="9.006561444969124"><ele>114.0</ele><time>2026-05-02T12:40:56Z</time></trkpt><trkpt lat="44.41983864777853" lon="9.006506437035966"><ele>113.0</ele><time>2026-05-02T12:40:57Z</time></trkpt><trkpt lat="44.41976258038719" lon="9.006452317508439"><ele>112.0</ele><time>2026-05-02T12:40:58Z</time></trkpt><trkpt lat="44.419702223343215" lon="9.006401967431088"><ele>111.0</ele><time>2026-05-02T12:40:59Z</time></trkpt><trkpt lat="44.41960628860245" lon="9.006329727366074"><ele>110.0</ele><time>2026-05-02T12:41:01Z</time></trkpt><trkpt lat="44.419530825491435" lon="9.006176519671772"><ele>109.99999999999999</ele><time>2026-05-02T12:41:03Z</time></trkpt><trkpt lat="44.41950863447059" lon="9.00607684220591"><ele>110.0</ele><time>2026-05-02T12:41:04Z</time></trkpt><trkpt lat="44.41948069504008" lon="9.005963084788519"><ele>110.0</ele><time>2026-05-02T12:41:05Z</time></trkpt><trkpt lat="44.41944790483831" lon="9.005851542412088"><ele>110.0</ele><time>2026-05-02T12:41:06Z</time></trkpt><trkpt lat="44.41943163253835" lon="9.00575471650682"><ele>109.99999999999999</ele><time>2026-05-02T12:41:07Z</time></trkpt><trkpt lat="44.419431442974485" lon="9.005664109493447"><ele>110.0</ele><time>2026-05-02T12:41:08Z</time></trkpt><trkpt lat="44.41944440992546" lon="9.005569581256955"><ele>109.2</ele><time>2026-05-02T12:41:09Z</time></trkpt><trkpt lat="44.41946681824307" lon="9.00547047320467"><ele>108.4</ele><time>2026-05-02T12:41:10Z</time></trkpt><trkpt lat="44.41950148027693" lon="9.005361098337708"><ele>107.6</ele><time>2026-05-02T12:41:11Z</time></trkpt><trkpt lat="44.419562740160835" lon="9.005240519069686"><ele>106.8</ele><time>2026-05-02T12:41:12Z</time></trkpt><trkpt lat="44.41963732518149" lon="9.00510316091136"><ele>106.0</ele><time>2026-05-02T12:41:13Z</time></trkpt><trkpt lat="44.41971099018908" lon="9.004949249385252"><ele>106.0</ele><time>2026-05-02T12:41:14Z</time></trkpt><trkpt lat="44.419764955042616" lon="9.004798424169454"><ele>106.0</ele><time>2026-05-02T12:41:15Z</time></trkpt><trkpt lat="44.41980654109015" lon="9.004637743941394"><ele>106.0</ele><time>2026-05-02T12:41:16Z</time></trkpt><trkpt lat="44.41983776378668" lon="9.00447376768232"><ele>106.0</ele><time>2026-05-02T12:41:17Z</time></trkpt><trkpt lat="44.41986586545873" lon="9.004318778538218"><ele>106.00000000000001</ele><time>2026-05-02T12:41:18Z</time></trkpt><trkpt lat="44.41989641492441" lon="9.004186942837306"><ele>106.0</ele><time>2026-05-02T12:41:19Z</time></trkpt><trkpt lat="44.41991743250437" lon="9.004064146401108"><ele>106.0</ele><time>2026-05-02T12:41:20Z</time></trkpt><trkpt lat="44.41991775861566" lon="9.003947461572487"><ele>106.0</ele><time>2026-05-02T12:41:21Z</time></trkpt><trkpt lat="44.419902376502144" lon="9.003837675027436"><ele>106.00000000000001</ele><time>2026-05-02T12:41:22Z</time></trkpt><trkpt lat="44.4198733401771" lon="9.003736550957289"><ele>106.0</ele><time>2026-05-02T12:41:23Z</time></trkpt><trkpt lat="44.4198342580608" lon="9.003639449665041"><ele>106.8</ele><time>2026-05-02T12:41:24Z</time></trkpt><trkpt lat="44.41974432924649" lon="9.00355366185953"><ele>107.6</ele><time>2026-05-02T12:41:25Z</time></trkpt><trkpt lat="44.41964561988275" lon="9.003491306828534"><ele>108.4</ele><time>2026-05-02T12:41:26Z</time></trkpt><trkpt lat="44.41954372368652" lon="9.003448457134155"><ele>109.2</ele><time>2026-05-02T12:41:27Z</time></trkpt><trkpt lat="44.419469318090925" lon="9.003442783364184"><ele>110.0</ele><time>2026-05-02T12:41:28Z</time></trkpt><trkpt lat="44.41937962016253" lon="9.003366502518952"><ele>106.8</ele><time>2026-05-02T12:41:30Z</time></trkpt><trkpt lat="44.41934296412338" lon="9.00320515063665"><ele>103.6</ele><time>2026-05-02T12:41:32Z</time></trkpt><trkpt lat="44.419361699871686" lon="9.00311553024089"><ele>100.4</ele><time>2026-05-02T12:41:33Z</time></trkpt><trkpt lat="44.41938973254877" lon="9.003017510770794"><ele>97.2</ele><time>2026-05-02T12:41:34Z</time></trkpt><trkpt lat="44.41942105827563" lon="9.002893934307021"><ele>94.0</ele><time>2026-05-02T12:41:35Z</time></trkpt><trkpt lat="44.419447120206236" lon="9.00276435769042"><ele>94.0</ele><time>2026-05-02T12:41:36Z</time></trkpt><trkpt lat="44.41946573180416" lon="9.002634857717512"><ele>94.0</ele><time>2026-05-02T12:41:37Z</time></trkpt><trkpt lat="44.419477351329995" lon="9.002525596538229"><ele>94.0</ele><time>2026-05-02T12:41:38Z</time></trkpt><trkpt lat="44.41947140758874" lon="9.002424003861396"><ele>94.0</ele><time>2026-05-02T12:41:39Z</time></trkpt><trkpt lat="44.419445734290086" lon="9.002313727199194"><ele>94.0</ele><time>2026-05-02T12:41:40Z</time></trkpt><trkpt lat="44.4194119722103" lon="9.002206807269669"><ele>94.0</ele><time>2026-05-02T12:41:41Z</time></trkpt><trkpt lat="44.41936996223744" lon="9.00210256559869"><ele>97.0</ele><time>2026-05-02T12:41:42Z</time></trkpt><trkpt lat="44.4193305816004" lon="9.002006403209055"><ele>100.0</ele><time>2026-05-02T12:41:43Z</time></trkpt><trkpt lat="44.41929689932597" lon="9.00190797850124"><ele>103.0</ele><time>2026-05-02T12:41:44Z</time></trkpt><trkpt lat="44.419246561747755" lon="9.001745670739158"><ele>106.0</ele><time>2026-05-02T12:41:46Z</time></trkpt><trkpt lat="44.41919731104082" lon="9.001610668124524"><ele>109.0</ele><time>2026-05-02T12:41:48Z</time></trkpt><trkpt lat="44.419143838717694" lon="9.001562113028802"><ele>114.75</ele><time>2026-05-02T12:41:49Z</time></trkpt><trkpt lat="44.419077101853055" lon="9.001536070820439"><ele>120.5</ele><time>2026-05-02T12:41:50Z</time></trkpt><trkpt lat="44.41900872555153" lon="9.0015191241212"><ele>126.25</ele><time>2026-05-02T12:41:51Z</time></trkpt><trkpt lat="44.418767359727724" lon="9.00148240289517"><ele>132.0</ele><time>2026-05-02T12:41:54Z</time></trkpt><trkpt lat="44.41867668087492" lon="9.001468163138265"><ele>134.0</ele><time>2026-05-02T12:41:55Z</time></trkpt><trkpt lat="44.41858802411926" lon="9.00146532269624"><ele>136.0</ele><time>2026-05-02T12:41:56Z</time></trkpt><trkpt lat="44.41850370156029" lon="9.001473961576748"><ele>138.0</ele><time>2026-05-02T12:41:57Z</time></trkpt><trkpt lat="44.41842317482688" lon="9.001467543946603"><ele>140.0</ele><time>2026-05-02T12:41:58Z</time></trkpt><trkpt lat="44.418353460250884" lon="9.001518704416709"><ele>142.0</ele><time>2026-05-02T12:41:59Z</time></trkpt><trkpt lat="44.418284169004565" lon="9.00154818359699"><ele>144.0</ele><time>2026-05-02T12:42:00Z</time></trkpt><trkpt lat="44.41821007915511" lon="9.001581480753517"><ele>144.0</ele><time>2026-05-02T12:42:01Z</time></trkpt><trkpt lat="44.4181376794051" lon="9.00162774146131"><ele>144.0</ele><time>2026-05-02T12:42:02Z</time></trkpt><trkpt lat="44.41806256917865" lon="9.001676202833025"><ele>144.0</ele><time>2026-05-02T12:42:03Z</time></trkpt><trkpt lat="44.417977594985885" lon="9.001716566979294"><ele>144.0</ele><time>2026-05-02T12:42:04Z</time></trkpt><trkpt lat="44.41789590342557" lon="9.001760712915983"><ele>144.0</ele><time>2026-05-02T12:42:05Z</time></trkpt><trkpt lat="44.41780628967728" lon="9.001804861097957"><ele>144.0</ele><time>2026-05-02T12:42:06Z</time></trkpt><trkpt lat="44.41770485915291" lon="9.001853373621191"><ele>137.2</ele><time>2026-05-02T12:42:07Z</time></trkpt><trkpt lat="44.41761415228159" lon="9.001903457279994"><ele>130.4</ele><time>2026-05-02T12:42:08Z</time></trkpt><trkpt lat="44.41753731254135" lon="9.00194413576825"><ele>123.6</ele><time>2026-05-02T12:42:09Z</time></trkpt><trkpt lat="44.417439674802715" lon="9.001981191854545"><ele>116.8</ele><time>2026-05-02T12:42:11Z</time></trkpt><trkpt lat="44.41737121156491" lon="9.001971569279473"><ele>110.0</ele><time>2026-05-02T12:42:14Z</time></trkpt><trkpt lat="44.41748353643983" lon="9.00191975142139"><ele>110.0</ele><time>2026-05-02T12:42:17Z</time></trkpt><trkpt lat="44.417549497011926" lon="9.00188796094112"><ele>110.0</ele><time>2026-05-02T12:42:18Z</time></trkpt><trkpt lat="44.41764555656485" lon="9.001824762971916"><ele>110.0</ele><time>2026-05-02T12:42:19Z</time></trkpt><trkpt lat="44.417761545400275" lon="9.00175138019119"><ele>110.0</ele><time>2026-05-02T12:42:20Z</time></trkpt><trkpt lat="44.41789838885994" lon="9.001664803353417"><ele>121.33333333333333</ele><time>2026-05-02T12:42:21Z</time></trkpt><trkpt lat="44.41806180403679" lon="9.001537654178376"><ele>132.66666666666666</ele><time>2026-05-02T12:42:22Z</time></trkpt><trkpt lat="44.41824666892874" lon="9.001434012343964"><ele>144.0</ele><time>2026-05-02T12:42:23Z</time></trkpt><trkpt lat="44.418398102924826" lon="9.001360084731472"><ele>144.0</ele><time>2026-05-02T12:42:24Z</time></trkpt><trkpt lat="44.418541122058755" lon="9.00131534075717"><ele>144.0</ele><time>2026-05-02T12:42:25Z</time></trkpt><trkpt lat="44.41866494056717" lon="9.00129739239731"><ele>144.0</ele><time>2026-05-02T12:42:26Z</time></trkpt><trkpt lat="44.41877369772943" lon="9.001285775573555"><ele>144.0</ele><time>2026-05-02T12:42:27Z</time></trkpt><trkpt lat="44.418876989746444" lon="9.001287170337225"><ele>141.6</ele><time>2026-05-02T12:42:28Z</time></trkpt><trkpt lat="44.41895966077757" lon="9.001192500938284"><ele>139.2</ele><time>2026-05-02T12:42:29Z</time></trkpt><trkpt lat="44.419053992774444" lon="9.001114086606844"><ele>136.79999999999998</ele><time>2026-05-02T12:42:30Z</time></trkpt><trkpt lat="44.41913201012235" lon="9.00101454962985"><ele>134.4</ele><time>2026-05-02T12:42:31Z</time></trkpt><trkpt lat="44.419202673720896" lon="9.000960378745948"><ele>132.0</ele><time>2026-05-02T12:42:32Z</time></trkpt><trkpt lat="44.419268813096195" lon="9.000934472483605"><ele>132.0</ele><time>2026-05-02T12:42:33Z</time></trkpt><trkpt lat="44.419327626857985" lon="9.000990814734344"><ele>132.0</ele><time>2026-05-02T12:42:34Z</time></trkpt><trkpt lat="44.41938770849835" lon="9.001040551953482"><ele>132.0</ele><time>2026-05-02T12:42:35Z</time></trkpt><trkpt lat="44.41945946901842" lon="9.001097680583806"><ele>132.0</ele><time>2026-05-02T12:42:36Z</time></trkpt><trkpt lat="44.41951452994127" lon="9.001190341667566"><ele>132.0</ele><time>2026-05-02T12:42:37Z</time></trkpt><trkpt lat="44.419532130756814" lon="9.001315640223742"><ele>132.0</ele><time>2026-05-02T12:42:38Z</time></trkpt><trkpt lat="44.4195741341488" lon="9.001439799373555"><ele>132.0</ele><time>2026-05-02T12:42:39Z</time></trkpt><trkpt lat="44.41961352137391" lon="9.001588864952396"><ele>132.0</ele><time>2026-05-02T12:42:40Z</time></trkpt><trkpt lat="44.419663978701564" lon="9.001749315735577"><ele>132.0</ele><time>2026-05-02T12:42:41Z</time></trkpt><trkpt lat="44.41974430492012" lon="9.001890292169369"><ele>132.0</ele><time>2026-05-02T12:42:42Z</time></trkpt><trkpt lat="44.41982739979772" lon="9.002009265150539"><ele>133.0</ele><time>2026-05-02T12:42:43Z</time></trkpt><trkpt lat="44.41991500313467" lon="9.002112675470407"><ele>134.0</ele><time>2026-05-02T12:42:44Z</time></trkpt><trkpt lat="44.419982878854086" lon="9.002234468941028"><ele>135.0</ele><time>2026-05-02T12:42:45Z</time></trkpt><trkpt lat="44.42004098326614" lon="9.002357769513322"><ele>136.0</ele><time>2026-05-02T12:42:46Z</time></trkpt><trkpt lat="44.42008578186799" lon="9.00247653950334"><ele>137.0</ele><time>2026-05-02T12:42:47Z</time></trkpt><trkpt lat="44.42011701032619" lon="9.002602754931731"><ele>134.83333333333331</ele><time>2026-05-02T12:42:48Z</time></trkpt><trkpt lat="44.42015090156317" lon="9.002732877969958"><ele>132.66666666666666</ele><time>2026-05-02T12:42:49Z</time></trkpt><trkpt lat="44.420159509564826" lon="9.002874892135434"><ele>130.5</ele><time>2026-05-02T12:42:50Z</time></trkpt><trkpt lat="44.420177715152235" lon="9.002989175025535"><ele>128.33333333333334</ele><time>2026-05-02T12:42:51Z</time></trkpt><trkpt lat="44.420201772413115" lon="9.00308684193553"><ele>126.16666666666667</ele><time>2026-05-02T12:42:52Z</time></trkpt><trkpt lat="44.42026264158054" lon="9.003137220981026"><ele>124.0</ele><time>2026-05-02T12:42:53Z</time></trkpt><trkpt lat="44.42032428375871" lon="9.003175316672639"><ele>124.0</ele><time>2026-05-02T12:42:54Z</time></trkpt><trkpt lat="44.420394358947426" lon="9.003179515532219"><ele>124.0</ele><time>2026-05-02T12:42:55Z</time></trkpt><trkpt lat="44.42047664651274" lon="9.00314846981073"><ele>124.0</ele><time>2026-05-02T12:42:56Z</time></trkpt><trkpt lat="44.4205736150322" lon="9.00309456821063"><ele>124.0</ele><time>2026-05-02T12:42:57Z</time></trkpt><trkpt lat="44.42067707491234" lon="9.003039792296205"><ele>124.0</ele><time>2026-05-02T12:42:58Z</time></trkpt><trkpt lat="44.420782957658986" lon="9.002984028365717"><ele>130.0</ele><time>2026-05-02T12:42:59Z</time></trkpt><trkpt lat="44.42087942714598" lon="9.002916670644536"><ele>136.0</ele><time>2026-05-02T12:43:00Z</time></trkpt><trkpt lat="44.42098158743156" lon="9.002841766483753"><ele>142.0</ele><time>2026-05-02T12:43:01Z</time></trkpt><trkpt lat="44.421090304267224" lon="9.002758055443586"><ele>148.0</ele><time>2026-05-02T12:43:02Z</time></trkpt><trkpt lat="44.42119845358122" lon="9.00266944749736"><ele>148.0</ele><time>2026-05-02T12:43:03Z</time></trkpt><trkpt lat="44.421308904863636" lon="9.002575151261434"><ele>148.0</ele><time>2026-05-02T12:43:04Z</time></trkpt><trkpt lat="44.42142066009341" lon="9.002482992435962"><ele>148.0</ele><time>2026-05-02T12:43:05Z</time></trkpt><trkpt lat="44.42153088086622" lon="9.002399894189148"><ele>148.0</ele><time>2026-05-02T12:43:06Z</time></trkpt><trkpt lat="44.42163627376072" lon="9.002323369712565"><ele>152.0</ele><time>2026-05-02T12:43:07Z</time></trkpt><trkpt lat="44.42173923959185" lon="9.002250623050525"><ele>156.0</ele><time>2026-05-02T12:43:08Z</time></trkpt><trkpt lat="44.4218354715665" lon="9.002178482130388"><ele>160.0</ele><time>2026-05-02T12:43:09Z</time></trkpt><trkpt lat="44.42192542329134" lon="9.00209126601313"><ele>164.0</ele><time>2026-05-02T12:43:10Z</time></trkpt><trkpt lat="44.4219936813772" lon="9.00198998534489"><ele>168.0</ele><time>2026-05-02T12:43:11Z</time></trkpt><trkpt lat="44.42204813539362" lon="9.001885582099478"><ele>168.0</ele><time>2026-05-02T12:43:12Z</time></trkpt><trkpt lat="44.42210610597872" lon="9.001779054527066"><ele>168.0</ele><time>2026-05-02T12:43:13Z</time></trkpt><trkpt lat="44.422169074843694" lon="9.001679278762118"><ele>168.0</ele><time>2026-05-02T12:43:14Z</time></trkpt><trkpt lat="44.42225735872428" lon="9.001603236835171"><ele>168.0</ele><time>2026-05-02T12:43:15Z</time></trkpt><trkpt lat="44.42236666662605" lon="9.001529616921383"><ele>168.0</ele><time>2026-05-02T12:43:16Z</time></trkpt><trkpt lat="44.422474111858115" lon="9.00146333785698"><ele>170.75</ele><time>2026-05-02T12:43:17Z</time></trkpt><trkpt lat="44.42258633023443" lon="9.001394344507638"><ele>173.5</ele><time>2026-05-02T12:43:18Z</time></trkpt><trkpt lat="44.42269626539833" lon="9.001325852115823"><ele>176.25</ele><time>2026-05-02T12:43:19Z</time></trkpt><trkpt lat="44.42280312458073" lon="9.001261848051602"><ele>179.0</ele><time>2026-05-02T12:43:20Z</time></trkpt><trkpt lat="44.422911820833455" lon="9.001220818143006"><ele>176.75</ele><time>2026-05-02T12:43:21Z</time></trkpt><trkpt lat="44.423020011888205" lon="9.001214535443946"><ele>174.5</ele><time>2026-05-02T12:43:22Z</time></trkpt><trkpt lat="44.423139683883285" lon="9.001232125451237"><ele>172.25</ele><time>2026-05-02T12:43:23Z</time></trkpt><trkpt lat="44.423259536930274" lon="9.001232445687773"><ele>170.0</ele><time>2026-05-02T12:43:24Z</time></trkpt><trkpt lat="44.42337442699218" lon="9.001221073277708"><ele>170.0</ele><time>2026-05-02T12:43:25Z</time></trkpt><trkpt lat="44.423488954458506" lon="9.001138307611878"><ele>170.0</ele><time>2026-05-02T12:43:26Z</time></trkpt><trkpt lat="44.423599747951414" lon="9.001116587279613"><ele>170.0</ele><time>2026-05-02T12:43:27Z</time></trkpt><trkpt lat="44.423688442123904" lon="9.00112536224611"><ele>170.0</ele><time>2026-05-02T12:43:28Z</time></trkpt><trkpt lat="44.42377460421212" lon="9.001130865898137"><ele>170.0</ele><time>2026-05-02T12:43:29Z</time></trkpt><trkpt lat="44.4238643563939" lon="9.001130351978924"><ele>169.8</ele><time>2026-05-02T12:43:30Z</time></trkpt><trkpt lat="44.42395372911524" lon="9.001117465601174"><ele>169.6</ele><time>2026-05-02T12:43:31Z</time></trkpt><trkpt lat="44.42402043344319" lon="9.00110920232674"><ele>169.39999999999998</ele><time>2026-05-02T12:43:32Z</time></trkpt><trkpt lat="44.42414069687857" lon="9.001118559149186"><ele>169.2</ele><time>2026-05-02T12:43:34Z</time></trkpt><trkpt lat="44.42420796121748" lon="9.00125155447859"><ele>169.0</ele><time>2026-05-02T12:43:36Z</time></trkpt><trkpt lat="44.424241539956135" lon="9.001332576401111"><ele>169.0</ele><time>2026-05-02T12:43:37Z</time></trkpt><trkpt lat="44.424249046351875" lon="9.001424778264527"><ele>169.0</ele><time>2026-05-02T12:43:38Z</time></trkpt><trkpt lat="44.424235255827945" lon="9.00152501443459"><ele>169.0</ele><time>2026-05-02T12:43:39Z</time></trkpt><trkpt lat="44.4241894996443" lon="9.001611675494184"><ele>169.0</ele><time>2026-05-02T12:43:40Z</time></trkpt><trkpt lat="44.42410506844344" lon="9.001637070780694"><ele>169.0</ele><time>2026-05-02T12:43:41Z</time></trkpt><trkpt lat="44.424012847364025" lon="9.00169910156432"><ele>169.0</ele><time>2026-05-02T12:43:42Z</time></trkpt><trkpt lat="44.423928480351684" lon="9.001752975955215"><ele>168.5</ele><time>2026-05-02T12:43:43Z</time></trkpt><trkpt lat="44.42382288892734" lon="9.001850482933447"><ele>168.0</ele><time>2026-05-02T12:43:44Z</time></trkpt><trkpt lat="44.42369798058266" lon="9.001966350349441"><ele>167.5</ele><time>2026-05-02T12:43:45Z</time></trkpt><trkpt lat="44.42358112135726" lon="9.002059755437834"><ele>167.0</ele><time>2026-05-02T12:43:46Z</time></trkpt><trkpt lat="44.423459710184275" lon="9.002151377602019"><ele>169.25</ele><time>2026-05-02T12:43:47Z</time></trkpt><trkpt lat="44.42334985833907" lon="9.00222210694298"><ele>171.5</ele><time>2026-05-02T12:43:48Z</time></trkpt><trkpt lat="44.42325606551871" lon="9.002285434210213"><ele>173.75</ele><time>2026-05-02T12:43:49Z</time></trkpt><trkpt lat="44.42316644255017" lon="9.002378256281084"><ele>176.0</ele><time>2026-05-02T12:43:50Z</time></trkpt><trkpt lat="44.42307828543535" lon="9.002500242916733"><ele>176.0</ele><time>2026-05-02T12:43:51Z</time></trkpt><trkpt lat="44.422992398565185" lon="9.002640579561856"><ele>176.0</ele><time>2026-05-02T12:43:52Z</time></trkpt><trkpt lat="44.42290127700189" lon="9.002779376072203"><ele>176.0</ele><time>2026-05-02T12:43:53Z</time></trkpt><trkpt lat="44.422799684692215" lon="9.002906576962204"><ele>176.0</ele><time>2026-05-02T12:43:54Z</time></trkpt><trkpt lat="44.422692940646265" lon="9.003021822061902"><ele>174.25</ele><time>2026-05-02T12:43:55Z</time></trkpt><trkpt lat="44.42260219719159" lon="9.003156208257886"><ele>172.5</ele><time>2026-05-02T12:43:56Z</time></trkpt><trkpt lat="44.42252316415353" lon="9.003321070477405"><ele>170.75</ele><time>2026-05-02T12:43:57Z</time></trkpt><trkpt lat="44.42245370716919" lon="9.00351011498038"><ele>169.0</ele><time>2026-05-02T12:43:58Z</time></trkpt><trkpt lat="44.42238971941189" lon="9.00369663130286"><ele>169.0</ele><time>2026-05-02T12:43:59Z</time></trkpt><trkpt lat="44.42231872050841" lon="9.00384819372404"><ele>169.0</ele><time>2026-05-02T12:44:00Z</time></trkpt><trkpt lat="44.422242385252076" lon="9.003962066366235"><ele>169.0</ele><time>2026-05-02T12:44:01Z</time></trkpt><trkpt lat="44.422150590559546" lon="9.004081654743915"><ele>169.0</ele><time>2026-05-02T12:44:02Z</time></trkpt><trkpt lat="44.42204991531796" lon="9.00419221539097"><ele>167.75</ele><time>2026-05-02T12:44:03Z</time></trkpt><trkpt lat="44.421942256560264" lon="9.004295659744065"><ele>166.5</ele><time>2026-05-02T12:44:04Z</time></trkpt><trkpt lat="44.42183385937789" lon="9.004396570627346"><ele>165.25</ele><time>2026-05-02T12:44:05Z</time></trkpt><trkpt lat="44.421727244565645" lon="9.004494436285906"><ele>164.0</ele><time>2026-05-02T12:44:06Z</time></trkpt><trkpt lat="44.421624607394264" lon="9.004587251070085"><ele>164.0</ele><time>2026-05-02T12:44:07Z</time></trkpt><trkpt lat="44.42153820094484" lon="9.004663351999623"><ele>164.0</ele><time>2026-05-02T12:44:08Z</time></trkpt><trkpt lat="44.42146107923853" lon="9.004735178435535"><ele>164.0</ele><time>2026-05-02T12:44:09Z</time></trkpt><trkpt lat="44.421390276254634" lon="9.004815768530824"><ele>164.0</ele><time>2026-05-02T12:44:10Z</time></trkpt><trkpt lat="44.42133340682677" lon="9.004932708554442"><ele>164.0</ele><time>2026-05-02T12:44:11Z</time></trkpt><trkpt lat="44.421282737888255" lon="9.005081010398882"><ele>164.0</ele><time>2026-05-02T12:44:12Z</time></trkpt><trkpt lat="44.42122720578981" lon="9.005216133313827"><ele>164.0</ele><time>2026-05-02T12:44:13Z</time></trkpt><trkpt lat="44.42117462574794" lon="9.005319638190187"><ele>164.0</ele><time>2026-05-02T12:44:14Z</time></trkpt><trkpt lat="44.42112525945435" lon="9.005395576190683"><ele>164.0</ele><time>2026-05-02T12:44:15Z</time></trkpt><trkpt lat="44.42107956216578" lon="9.005470535151494"><ele>164.0</ele><time>2026-05-02T12:44:16Z</time></trkpt><trkpt lat="44.42103567226651" lon="9.005567213841994"><ele>164.0</ele><time>2026-05-02T12:44:17Z</time></trkpt><trkpt lat="44.42101945448806" lon="9.005673333732759"><ele>164.0</ele><time>2026-05-02T12:44:18Z</time></trkpt><trkpt lat="44.42103069907838" lon="9.005779686307728"><ele>164.0</ele><time>2026-05-02T12:44:19Z</time></trkpt><trkpt lat="44.42107183866495" lon="9.005889928684539"><ele>164.0</ele><time>2026-05-02T12:44:20Z</time></trkpt><trkpt lat="44.421140117148155" lon="9.005989692085551"><ele>164.0</ele><time>2026-05-02T12:44:21Z</time></trkpt><trkpt lat="44.42122412463603" lon="9.006061313145823"><ele>164.0</ele><time>2026-05-02T12:44:22Z</time></trkpt><trkpt lat="44.42132469187131" lon="9.00611073665012"><ele>172.75</ele><time>2026-05-02T12:44:23Z</time></trkpt><trkpt lat="44.42143417223825" lon="9.006148155292491"><ele>181.5</ele><time>2026-05-02T12:44:24Z</time></trkpt><trkpt lat="44.42153803690291" lon="9.006193110890175"><ele>190.25</ele><time>2026-05-02T12:44:25Z</time></trkpt><trkpt lat="44.421649610713544" lon="9.00623350072071"><ele>199.0</ele><time>2026-05-02T12:44:26Z</time></trkpt><trkpt lat="44.42177053050572" lon="9.006242153197073"><ele>199.0</ele><time>2026-05-02T12:44:27Z</time></trkpt><trkpt lat="44.42189216932462" lon="9.006229842904506"><ele>199.0</ele><time>2026-05-02T12:44:28Z</time></trkpt><trkpt lat="44.421984219117256" lon="9.00623876923046"><ele>199.0</ele><time>2026-05-02T12:44:29Z</time></trkpt><trkpt lat="44.42206498964834" lon="9.006286610195993"><ele>199.0</ele><time>2026-05-02T12:44:30Z</time></trkpt><trkpt lat="44.422145029870514" lon="9.006377714336827"><ele>199.0</ele><time>2026-05-02T12:44:31Z</time></trkpt><trkpt lat="44.42221769602655" lon="9.00651146041327"><ele>199.0</ele><time>2026-05-02T12:44:32Z</time></trkpt><trkpt lat="44.422330274850815" lon="9.006609209828556"><ele>199.0</ele><time>2026-05-02T12:44:33Z</time></trkpt><trkpt lat="44.422460676738034" lon="9.006667358635724"><ele>199.0</ele><time>2026-05-02T12:44:34Z</time></trkpt><trkpt lat="44.422548044368355" lon="9.006765140173464"><ele>199.0</ele><time>2026-05-02T12:44:35Z</time></trkpt><trkpt lat="44.422599770835944" lon="9.006886074569907"><ele>199.0</ele><time>2026-05-02T12:44:36Z</time></trkpt><trkpt lat="44.422651842052815" lon="9.006989940975828"><ele>199.0</ele><time>2026-05-02T12:44:37Z</time></trkpt><trkpt lat="44.42273993088428" lon="9.007059608985367"><ele>199.0</ele><time>2026-05-02T12:44:38Z</time></trkpt><trkpt lat="44.42286033584455" lon="9.007144439825382"><ele>199.0</ele><time>2026-05-02T12:44:39Z</time></trkpt><trkpt lat="44.42299642741653" lon="9.007184919328678"><ele>201.0</ele><time>2026-05-02T12:44:40Z</time></trkpt><trkpt lat="44.42311988398009" lon="9.007260862960644"><ele>203.0</ele><time>2026-05-02T12:44:41Z</time></trkpt><trkpt lat="44.423228246250666" lon="9.007348005903863"><ele>205.0</ele><time>2026-05-02T12:44:42Z</time></trkpt><trkpt lat="44.42332035041769" lon="9.007462460027446"><ele>207.0</ele><time>2026-05-02T12:44:43Z</time></trkpt><trkpt lat="44.423399989276646" lon="9.007602871121541"><ele>207.0</ele><time>2026-05-02T12:44:44Z</time></trkpt><trkpt lat="44.42347796505276" lon="9.007735205377141"><ele>207.0</ele><time>2026-05-02T12:44:45Z</time></trkpt><trkpt lat="44.423581982720165" lon="9.007847119025639"><ele>207.0</ele><time>2026-05-02T12:44:46Z</time></trkpt><trkpt lat="44.42369282850439" lon="9.007945961661319"><ele>207.0</ele><time>2026-05-02T12:44:47Z</time></trkpt><trkpt lat="44.42379920897303" lon="9.00802041431894"><ele>215.0</ele><time>2026-05-02T12:44:48Z</time></trkpt><trkpt lat="44.42390723171212" lon="9.008064484964065"><ele>223.0</ele><time>2026-05-02T12:44:49Z</time></trkpt><trkpt lat="44.42402046294242" lon="9.008074728425928"><ele>231.0</ele><time>2026-05-02T12:44:50Z</time></trkpt><trkpt lat="44.42414884700463" lon="9.008055434618827"><ele>239.0</ele><time>2026-05-02T12:44:51Z</time></trkpt><trkpt lat="44.424269229484366" lon="9.008027652650627"><ele>239.0</ele><time>2026-05-02T12:44:52Z</time></trkpt><trkpt lat="44.42438444468469" lon="9.008023245287013"><ele>239.0</ele><time>2026-05-02T12:44:53Z</time></trkpt><trkpt lat="44.42450766337958" lon="9.008044359892471"><ele>239.0</ele><time>2026-05-02T12:44:54Z</time></trkpt><trkpt lat="44.424630456467966" lon="9.008088987808836"><ele>239.0</ele><time>2026-05-02T12:44:55Z</time></trkpt><trkpt lat="44.42474673656949" lon="9.008146550084351"><ele>242.25</ele><time>2026-05-02T12:44:56Z</time></trkpt><trkpt lat="44.42486112992982" lon="9.008192514709485"><ele>245.5</ele><time>2026-05-02T12:44:57Z</time></trkpt><trkpt lat="44.42497930482792" lon="9.008209396685583"><ele>248.75</ele><time>2026-05-02T12:44:58Z</time></trkpt><trkpt lat="44.42510246929691" lon="9.008206269897926"><ele>252.0</ele><time>2026-05-02T12:44:59Z</time></trkpt><trkpt lat="44.42520770933617" lon="9.008193551495843"><ele>252.0</ele><time>2026-05-02T12:45:00Z</time></trkpt><trkpt lat="44.425292753223324" lon="9.008184170654872"><ele>252.0</ele><time>2026-05-02T12:45:01Z</time></trkpt><trkpt lat="44.425365413691765" lon="9.008173196865462"><ele>252.0</ele><time>2026-05-02T12:45:02Z</time></trkpt><trkpt lat="44.42543090382065" lon="9.00816313298923"><ele>252.0</ele><time>2026-05-02T12:45:03Z</time></trkpt><trkpt lat="44.42553609026491" lon="9.00813357024947"><ele>252.0</ele><time>2026-05-02T12:45:05Z</time></trkpt><trkpt lat="44.42560618114692" lon="9.00810722356568"><ele>252.0</ele><time>2026-05-02T12:45:07Z</time></trkpt><trkpt lat="44.42566737939066" lon="9.00806452331005"><ele>252.0</ele><time>2026-05-02T12:46:10Z</time></trkpt><trkpt lat="44.425739248665025" lon="9.008027303044198"><ele>252.0</ele><time>2026-05-02T12:46:12Z</time></trkpt><trkpt lat="44.425809504891895" lon="9.007962217697486"><ele>252.0</ele><time>2026-05-02T12:46:14Z</time></trkpt><trkpt lat="44.425848969392774" lon="9.00789081973632"><ele>252.0</ele><time>2026-05-02T12:46:15Z</time></trkpt><trkpt lat="44.425918376142" lon="9.007840069312563"><ele>252.0</ele><time>2026-05-02T12:46:16Z</time></trkpt><trkpt lat="44.425985344975736" lon="9.007799839123297"><ele>252.0</ele><time>2026-05-02T12:46:17Z</time></trkpt><trkpt lat="44.4260932361228" lon="9.007814510636498"><ele>252.0</ele><time>2026-05-02T12:46:19Z</time></trkpt><trkpt lat="44.42615019297192" lon="9.007881743227124"><ele>252.0</ele><time>2026-05-02T12:46:20Z</time></trkpt><trkpt lat="44.4262100747956" lon="9.007989625928754"><ele>252.0</ele><time>2026-05-02T12:46:21Z</time></trkpt><trkpt lat="44.42623378212835" lon="9.008131453580239"><ele>252.0</ele><time>2026-05-02T12:46:22Z</time></trkpt><trkpt lat="44.42625057237773" lon="9.008290033468887"><ele>252.0</ele><time>2026-05-02T12:46:23Z</time></trkpt><trkpt lat="44.426291482696385" lon="9.008455947776199"><ele>245.75</ele><time>2026-05-02T12:46:24Z</time></trkpt><trkpt lat="44.426313605200725" lon="9.008634554164571"><ele>239.5</ele><time>2026-05-02T12:46:25Z</time></trkpt><trkpt lat="44.42634781273482" lon="9.008817390393885"><ele>233.25</ele><time>2026-05-02T12:46:26Z</time></trkpt><trkpt lat="44.42636196806359" lon="9.00900002567492"><ele>227.0</ele><time>2026-05-02T12:46:27Z</time></trkpt><trkpt lat="44.426402889994144" lon="9.009156027864988"><ele>226.39999999999998</ele><time>2026-05-02T12:46:28Z</time></trkpt><trkpt lat="44.426418981605934" lon="9.009300502987578"><ele>225.79999999999998</ele><time>2026-05-02T12:46:29Z</time></trkpt><trkpt lat="44.42643307991546" lon="9.009446571879401"><ele>225.2</ele><time>2026-05-02T12:46:30Z</time></trkpt><trkpt lat="44.42646699087447" lon="9.009580956878862"><ele>224.6</ele><time>2026-05-02T12:46:31Z</time></trkpt><trkpt lat="44.42653598419831" lon="9.00971552487017"><ele>224.0</ele><time>2026-05-02T12:46:32Z</time></trkpt><trkpt lat="44.42661120615021" lon="9.009851542717662"><ele>224.0</ele><time>2026-05-02T12:46:33Z</time></trkpt><trkpt lat="44.42668304650643" lon="9.00998417827189"><ele>223.99999999999997</ele><time>2026-05-02T12:46:34Z</time></trkpt><trkpt lat="44.42675146088611" lon="9.010110788534599"><ele>223.99999999999997</ele><time>2026-05-02T12:46:35Z</time></trkpt><trkpt lat="44.42681723784245" lon="9.010231289868702"><ele>224.0</ele><time>2026-05-02T12:46:36Z</time></trkpt><trkpt lat="44.42687998963812" lon="9.010350923031856"><ele>224.0</ele><time>2026-05-02T12:46:37Z</time></trkpt><trkpt lat="44.42693791008188" lon="9.010470995849337"><ele>223.0</ele><time>2026-05-02T12:46:38Z</time></trkpt><trkpt lat="44.42699659943419" lon="9.010588199812492"><ele>221.99999999999997</ele><time>2026-05-02T12:46:39Z</time></trkpt><trkpt lat="44.427061142165364" lon="9.010704484057184"><ele>220.99999999999997</ele><time>2026-05-02T12:46:40Z</time></trkpt><trkpt lat="44.427133922105064" lon="9.010816038387226"><ele>220.0</ele><time>2026-05-02T12:46:41Z</time></trkpt><trkpt lat="44.42721208307869" lon="9.010910359528761"><ele>219.0</ele><time>2026-05-02T12:46:42Z</time></trkpt><trkpt lat="44.42730548991583" lon="9.010985366847073"><ele>221.75</ele><time>2026-05-02T12:46:43Z</time></trkpt><trkpt lat="44.4274066785465" lon="9.011046385683926"><ele>224.5</ele><time>2026-05-02T12:46:44Z</time></trkpt><trkpt lat="44.4275175467456" lon="9.01112151788187"><ele>227.25</ele><time>2026-05-02T12:46:45Z</time></trkpt><trkpt lat="44.42762411750956" lon="9.01121824588712"><ele>230.0</ele><time>2026-05-02T12:46:46Z</time></trkpt><trkpt lat="44.42771446708556" lon="9.011311358508852"><ele>230.0</ele><time>2026-05-02T12:46:47Z</time></trkpt><trkpt lat="44.42780421887056" lon="9.011400558318645"><ele>230.0</ele><time>2026-05-02T12:46:48Z</time></trkpt><trkpt lat="44.42788029630371" lon="9.011501466332696"><ele>230.0</ele><time>2026-05-02T12:46:49Z</time></trkpt><trkpt lat="44.4279638502722" lon="9.011565814821072"><ele>230.0</ele><time>2026-05-02T12:46:50Z</time></trkpt><trkpt lat="44.428054705324385" lon="9.011590936391013"><ele>230.0</ele><time>2026-05-02T12:46:51Z</time></trkpt><trkpt lat="44.42814139323531" lon="9.011640490031361"><ele>231.28571428571425</ele><time>2026-05-02T12:46:52Z</time></trkpt><trkpt lat="44.42822348074782" lon="9.011687122775399"><ele>232.57142857142856</ele><time>2026-05-02T12:46:53Z</time></trkpt><trkpt lat="44.42829128398047" lon="9.011733251464515"><ele>233.85714285714286</ele><time>2026-05-02T12:46:54Z</time></trkpt><trkpt lat="44.42834475609377" lon="9.011792227043287"><ele>235.14285714285714</ele><time>2026-05-02T12:46:55Z</time></trkpt><trkpt lat="44.42838191746943" lon="9.01186879646579"><ele>236.42857142857144</ele><time>2026-05-02T12:46:56Z</time></trkpt><trkpt lat="44.428399495346966" lon="9.011960230308205"><ele>237.71428571428575</ele><time>2026-05-02T12:46:57Z</time></trkpt><trkpt lat="44.428396941682735" lon="9.01206196411015"><ele>239.00000000000003</ele><time>2026-05-02T12:46:58Z</time></trkpt><trkpt lat="44.428369899209926" lon="9.012149978727958"><ele>239.0</ele><time>2026-05-02T12:46:59Z</time></trkpt><trkpt lat="44.42831414032704" lon="9.012223494444504"><ele>238.99999999999997</ele><time>2026-05-02T12:47:00Z</time></trkpt><trkpt lat="44.42823131252979" lon="9.012289574499052"><ele>238.99999999999997</ele><time>2026-05-02T12:47:01Z</time></trkpt><trkpt lat="44.428139500489024" lon="9.01236951744975"><ele>239.0</ele><time>2026-05-02T12:47:02Z</time></trkpt><trkpt lat="44.428045443386274" lon="9.012479423936497"><ele>239.0</ele><time>2026-05-02T12:47:03Z</time></trkpt><trkpt lat="44.427970349089826" lon="9.012598002962322"><ele>233.5</ele><time>2026-05-02T12:47:04Z</time></trkpt><trkpt lat="44.427917063981155" lon="9.012726832126303"><ele>228.0</ele><time>2026-05-02T12:47:05Z</time></trkpt><trkpt lat="44.42786862875867" lon="9.012886780808408"><ele>222.5</ele><time>2026-05-02T12:47:06Z</time></trkpt><trkpt lat="44.42780643483841" lon="9.013078783682467"><ele>217.0</ele><time>2026-05-02T12:47:07Z</time></trkpt><trkpt lat="44.42773576040383" lon="9.013258844410439"><ele>220.2</ele><time>2026-05-02T12:47:08Z</time></trkpt><trkpt lat="44.4276759406465" lon="9.013410243892515"><ele>223.39999999999998</ele><time>2026-05-02T12:47:09Z</time></trkpt><trkpt lat="44.42762759798029" lon="9.0135355869068"><ele>226.60000000000002</ele><time>2026-05-02T12:47:10Z</time></trkpt><trkpt lat="44.42758582080089" lon="9.01366336212979"><ele>229.8</ele><time>2026-05-02T12:47:11Z</time></trkpt><trkpt lat="44.42756290392202" lon="9.013795109713731"><ele>233.0</ele><time>2026-05-02T12:47:12Z</time></trkpt><trkpt lat="44.42755298009565" lon="9.01391453874847"><ele>233.0</ele><time>2026-05-02T12:47:13Z</time></trkpt><trkpt lat="44.427558539830585" lon="9.01403474766211"><ele>233.0</ele><time>2026-05-02T12:47:14Z</time></trkpt><trkpt lat="44.42760317149832" lon="9.014154404807961"><ele>233.0</ele><time>2026-05-02T12:47:15Z</time></trkpt><trkpt lat="44.42765711577272" lon="9.01430706145514"><ele>233.0</ele><time>2026-05-02T12:47:16Z</time></trkpt><trkpt lat="44.42774224486213" lon="9.014430642897521"><ele>233.0</ele><time>2026-05-02T12:47:17Z</time></trkpt><trkpt lat="44.42780778980555" lon="9.014574663148386"><ele>233.5</ele><time>2026-05-02T12:47:18Z</time></trkpt><trkpt lat="44.427872671485616" lon="9.014713847427938"><ele>234.0</ele><time>2026-05-02T12:47:19Z</time></trkpt><trkpt lat="44.42794507733926" lon="9.014846320751209"><ele>234.5</ele><time>2026-05-02T12:47:20Z</time></trkpt><trkpt lat="44.42802577656388" lon="9.014961111861668"><ele>235.0</ele><time>2026-05-02T12:47:21Z</time></trkpt><trkpt lat="44.42812254423965" lon="9.015060689974806"><ele>241.75</ele><time>2026-05-02T12:47:22Z</time></trkpt><trkpt lat="44.428234415053424" lon="9.015183391512542"><ele>248.5</ele><time>2026-05-02T12:47:23Z</time></trkpt><trkpt lat="44.42835812719986" lon="9.015291252838852"><ele>255.25</ele><time>2026-05-02T12:47:24Z</time></trkpt><trkpt lat="44.42848275107003" lon="9.015379048844355"><ele>262.0</ele><time>2026-05-02T12:47:25Z</time></trkpt><trkpt lat="44.428594137564154" lon="9.015480043743489"><ele>262.0</ele><time>2026-05-02T12:47:26Z</time></trkpt><trkpt lat="44.42869313922141" lon="9.015565313313255"><ele>262.0</ele><time>2026-05-02T12:47:27Z</time></trkpt><trkpt lat="44.428795222027695" lon="9.015635194861394"><ele>262.0</ele><time>2026-05-02T12:47:28Z</time></trkpt><trkpt lat="44.42892293982532" lon="9.015684504924662"><ele>262.0</ele><time>2026-05-02T12:47:29Z</time></trkpt><trkpt lat="44.42906072724835" lon="9.015712206620725"><ele>261.4</ele><time>2026-05-02T12:47:30Z</time></trkpt><trkpt lat="44.429179718470714" lon="9.015753590410082"><ele>260.79999999999995</ele><time>2026-05-02T12:47:31Z</time></trkpt><trkpt lat="44.429279295607984" lon="9.015843990934684"><ele>260.2</ele><time>2026-05-02T12:47:32Z</time></trkpt><trkpt lat="44.42933004512294" lon="9.01597527402554"><ele>259.59999999999997</ele><time>2026-05-02T12:47:34Z</time></trkpt><trkpt lat="44.429358287640845" lon="9.016102979181518"><ele>259.0</ele><time>2026-05-02T12:47:35Z</time></trkpt><trkpt lat="44.429378207048295" lon="9.016261412068502"><ele>259.0</ele><time>2026-05-02T12:47:36Z</time></trkpt><trkpt lat="44.42939471788518" lon="9.016437911813089"><ele>259.0</ele><time>2026-05-02T12:47:37Z</time></trkpt><trkpt lat="44.42940996538974" lon="9.016610803495366"><ele>259.0</ele><time>2026-05-02T12:47:38Z</time></trkpt><trkpt lat="44.42942531891364" lon="9.01674520175275"><ele>259.0</ele><time>2026-05-02T12:47:39Z</time></trkpt><trkpt lat="44.42944373221602" lon="9.01687151384404"><ele>259.0</ele><time>2026-05-02T12:47:40Z</time></trkpt><trkpt lat="44.429484650437026" lon="9.016972233559242"><ele>258.0</ele><time>2026-05-02T12:47:41Z</time></trkpt><trkpt lat="44.42952267548342" lon="9.017081871869388"><ele>257.0</ele><time>2026-05-02T12:47:42Z</time></trkpt><trkpt lat="44.429555948126435" lon="9.017211732171313"><ele>255.99999999999997</ele><time>2026-05-02T12:47:43Z</time></trkpt><trkpt lat="44.42962200232198" lon="9.017322018757916"><ele>255.0</ele><time>2026-05-02T12:47:44Z</time></trkpt><trkpt lat="44.42968939166323" lon="9.017440969466936"><ele>254.0</ele><time>2026-05-02T12:47:45Z</time></trkpt><trkpt lat="44.42978210807615" lon="9.017555198470022"><ele>256.75</ele><time>2026-05-02T12:47:46Z</time></trkpt><trkpt lat="44.42987500835443" lon="9.017662622487043"><ele>259.5</ele><time>2026-05-02T12:47:47Z</time></trkpt><trkpt lat="44.429976441036075" lon="9.017749178884465"><ele>262.25</ele><time>2026-05-02T12:47:48Z</time></trkpt><trkpt lat="44.43008837139999" lon="9.017827346178079"><ele>265.0</ele><time>2026-05-02T12:47:49Z</time></trkpt><trkpt lat="44.43021738875333" lon="9.017902547882874"><ele>265.0</ele><time>2026-05-02T12:47:50Z</time></trkpt><trkpt lat="44.430354992000126" lon="9.017976653517094"><ele>265.0</ele><time>2026-05-02T12:47:51Z</time></trkpt><trkpt lat="44.43048213805204" lon="9.018047166395723"><ele>265.0</ele><time>2026-05-02T12:47:52Z</time></trkpt><trkpt lat="44.43060007473491" lon="9.018104364593036"><ele>265.0</ele><time>2026-05-02T12:47:53Z</time></trkpt><trkpt lat="44.43070285471548" lon="9.018188999313205"><ele>266.0</ele><time>2026-05-02T12:47:54Z</time></trkpt><trkpt lat="44.430805018098276" lon="9.018281644991193"><ele>267.0</ele><time>2026-05-02T12:47:55Z</time></trkpt><trkpt lat="44.43091152561568" lon="9.018397547046872"><ele>268.0</ele><time>2026-05-02T12:47:56Z</time></trkpt><trkpt lat="44.43101528109015" lon="9.018514593458251"><ele>269.0</ele><time>2026-05-02T12:47:57Z</time></trkpt><trkpt lat="44.43110583039962" lon="9.018615869385597"><ele>269.0</ele><time>2026-05-02T12:47:58Z</time></trkpt><trkpt lat="44.43120922573629" lon="9.01867655644732"><ele>269.0</ele><time>2026-05-02T12:47:59Z</time></trkpt><trkpt lat="44.431304622195505" lon="9.018746752599323"><ele>269.0</ele><time>2026-05-02T12:48:00Z</time></trkpt><trkpt lat="44.431411481064195" lon="9.018828386956724"><ele>269.0</ele><time>2026-05-02T12:48:01Z</time></trkpt><trkpt lat="44.43151260248285" lon="9.018897908775736"><ele>269.4</ele><time>2026-05-02T12:48:02Z</time></trkpt><trkpt lat="44.43160391056652" lon="9.018987157391823"><ele>269.79999999999995</ele><time>2026-05-02T12:48:03Z</time></trkpt><trkpt lat="44.43169027266034" lon="9.019044554687005"><ele>270.20000000000005</ele><time>2026-05-02T12:48:04Z</time></trkpt><trkpt lat="44.431780514611816" lon="9.01907834671288"><ele>270.6</ele><time>2026-05-02T12:48:05Z</time></trkpt><trkpt lat="44.43187032498436" lon="9.019144820324396"><ele>271.0</ele><time>2026-05-02T12:48:06Z</time></trkpt><trkpt lat="44.43195839952875" lon="9.019201468140839"><ele>271.0</ele><time>2026-05-02T12:48:07Z</time></trkpt><trkpt lat="44.43205068598234" lon="9.019255955200444"><ele>271.0</ele><time>2026-05-02T12:48:08Z</time></trkpt><trkpt lat="44.43213757979176" lon="9.019319297249497"><ele>271.0</ele><time>2026-05-02T12:48:09Z</time></trkpt><trkpt lat="44.4322245455794" lon="9.019382686176844"><ele>271.0</ele><time>2026-05-02T12:48:10Z</time></trkpt><trkpt lat="44.43230275947794" lon="9.019445315244651"><ele>271.0</ele><time>2026-05-02T12:48:11Z</time></trkpt><trkpt lat="44.432377864668" lon="9.019513604681261"><ele>272.8</ele><time>2026-05-02T12:48:12Z</time></trkpt><trkpt lat="44.43245027184541" lon="9.019606862008128"><ele>274.6</ele><time>2026-05-02T12:48:13Z</time></trkpt><trkpt lat="44.432496584970906" lon="9.019729110847818"><ele>276.4</ele><time>2026-05-02T12:48:14Z</time></trkpt><trkpt lat="44.4324926247645" lon="9.019874674294968"><ele>278.2</ele><time>2026-05-02T12:48:15Z</time></trkpt><trkpt lat="44.43252743513178" lon="9.020008572049312"><ele>280.0</ele><time>2026-05-02T12:48:16Z</time></trkpt><trkpt lat="44.43252601220498" lon="9.020128830092398"><ele>280.0</ele><time>2026-05-02T12:48:17Z</time></trkpt><trkpt lat="44.432553081300455" lon="9.020236432027236"><ele>280.0</ele><time>2026-05-02T12:48:18Z</time></trkpt><trkpt lat="44.43261696613877" lon="9.020343377484112"><ele>280.0</ele><time>2026-05-02T12:48:19Z</time></trkpt><trkpt lat="44.4327010265408" lon="9.020450502897827"><ele>280.0</ele><time>2026-05-02T12:48:20Z</time></trkpt><trkpt lat="44.43277855949619" lon="9.020544750544005"><ele>280.0</ele><time>2026-05-02T12:48:21Z</time></trkpt><trkpt lat="44.432837009968125" lon="9.020630578062557"><ele>280.0</ele><time>2026-05-02T12:48:22Z</time></trkpt><trkpt lat="44.43286358245547" lon="9.020717635444637"><ele>280.0</ele><time>2026-05-02T12:48:23Z</time></trkpt><trkpt lat="44.432868847231525" lon="9.020819938854457"><ele>280.0</ele><time>2026-05-02T12:48:24Z</time></trkpt><trkpt lat="44.43282187183514" lon="9.020925631261465"><ele>280.0</ele><time>2026-05-02T12:48:25Z</time></trkpt><trkpt lat="44.43277904335736" lon="9.021062508111049"><ele>280.0</ele><time>2026-05-02T12:48:26Z</time></trkpt><trkpt lat="44.43275020694819" lon="9.02118627228886"><ele>280.0</ele><time>2026-05-02T12:48:27Z</time></trkpt><trkpt lat="44.43273085225126" lon="9.021277461807223"><ele>279.8</ele><time>2026-05-02T12:48:28Z</time></trkpt><trkpt lat="44.4327783049441" lon="9.021446586645434"><ele>279.6</ele><time>2026-05-02T12:48:30Z</time></trkpt><trkpt lat="44.43286251096582" lon="9.021482658299723"><ele>279.4</ele><time>2026-05-02T12:48:31Z</time></trkpt><trkpt lat="44.432953575561456" lon="9.021445679467542"><ele>279.2</ele><time>2026-05-02T12:48:32Z</time></trkpt><trkpt lat="44.43303015220584" lon="9.02138215945428"><ele>279.0</ele><time>2026-05-02T12:48:33Z</time></trkpt><trkpt lat="44.43310463359487" lon="9.021276412439526"><ele>283.59999999999997</ele><time>2026-05-02T12:48:34Z</time></trkpt><trkpt lat="44.43316869557" lon="9.021154343422749"><ele>288.2</ele><time>2026-05-02T12:48:35Z</time></trkpt><trkpt lat="44.433214033188776" lon="9.021012079046624"><ele>292.79999999999995</ele><time>2026-05-02T12:48:36Z</time></trkpt><trkpt lat="44.433230290760754" lon="9.020876817745744"><ele>297.4</ele><time>2026-05-02T12:48:37Z</time></trkpt><trkpt lat="44.433218214356664" lon="9.020755655759016"><ele>302.0</ele><time>2026-05-02T12:48:38Z</time></trkpt><trkpt lat="44.43318082455467" lon="9.020648289926585"><ele>302.2</ele><time>2026-05-02T12:48:39Z</time></trkpt><trkpt lat="44.43312705606864" lon="9.020535432168668"><ele>302.4</ele><time>2026-05-02T12:48:40Z</time></trkpt><trkpt lat="44.43306964412563" lon="9.020409491606642"><ele>302.6</ele><time>2026-05-02T12:48:41Z</time></trkpt><trkpt lat="44.43301240434794" lon="9.02027422296155"><ele>302.8</ele><time>2026-05-02T12:48:42Z</time></trkpt><trkpt lat="44.43297417507402" lon="9.020138630139158"><ele>303.0</ele><time>2026-05-02T12:48:43Z</time></trkpt><trkpt lat="44.43296442216559" lon="9.020011948464868"><ele>303.8333333333333</ele><time>2026-05-02T12:48:44Z</time></trkpt><trkpt lat="44.43297187476881" lon="9.019880589004229"><ele>304.6666666666667</ele><time>2026-05-02T12:48:45Z</time></trkpt><trkpt lat="44.432999830486516" lon="9.019763027668986"><ele>305.5</ele><time>2026-05-02T12:48:46Z</time></trkpt><trkpt lat="44.43304283915614" lon="9.019648198081251"><ele>306.33333333333337</ele><time>2026-05-02T12:48:47Z</time></trkpt><trkpt lat="44.433095112124924" lon="9.019542474401812"><ele>307.1666666666667</ele><time>2026-05-02T12:48:48Z</time></trkpt><trkpt lat="44.433122689618656" lon="9.019446157925444"><ele>308.0</ele><time>2026-05-02T12:48:49Z</time></trkpt><trkpt lat="44.43312787746039" lon="9.01932618666551"><ele>308.0</ele><time>2026-05-02T12:48:50Z</time></trkpt><trkpt lat="44.43311331886447" lon="9.019188221941066"><ele>308.0</ele><time>2026-05-02T12:48:51Z</time></trkpt><trkpt lat="44.43306746461129" lon="9.019050846841065"><ele>308.0</ele><time>2026-05-02T12:48:52Z</time></trkpt><trkpt lat="44.43301079819892" lon="9.018923837928318"><ele>308.0</ele><time>2026-05-02T12:48:53Z</time></trkpt><trkpt lat="44.43296138794299" lon="9.018807874536755"><ele>308.0</ele><time>2026-05-02T12:48:54Z</time></trkpt><trkpt lat="44.432915251043575" lon="9.018696877280751"><ele>306.5</ele><time>2026-05-02T12:48:55Z</time></trkpt><trkpt lat="44.43286660399029" lon="9.018596777264863"><ele>305.0</ele><time>2026-05-02T12:48:56Z</time></trkpt><trkpt lat="44.43283605928627" lon="9.018515410145863"><ele>303.5</ele><time>2026-05-02T12:48:57Z</time></trkpt><trkpt lat="44.43284940414502" lon="9.018392582024779"><ele>302.0</ele><time>2026-05-02T12:48:59Z</time></trkpt><trkpt lat="44.4329495923352" lon="9.018306934391612"><ele>300.5</ele><time>2026-05-02T12:49:01Z</time></trkpt><trkpt lat="44.43303071498885" lon="9.018289285538602"><ele>299.0</ele><time>2026-05-02T12:49:02Z</time></trkpt><trkpt lat="44.433107364227965" lon="9.018276423844503"><ele>300.83333333333337</ele><time>2026-05-02T12:49:03Z</time></trkpt><trkpt lat="44.433177252819796" lon="9.01826912668831"><ele>302.6666666666667</ele><time>2026-05-02T12:49:04Z</time></trkpt><trkpt lat="44.4332841294563" lon="9.018316609674585"><ele>304.5</ele><time>2026-05-02T12:49:06Z</time></trkpt><trkpt lat="44.43333734026951" lon="9.018378019949433"><ele>306.3333333333333</ele><time>2026-05-02T12:49:07Z</time></trkpt><trkpt lat="44.43338395653565" lon="9.018469293330588"><ele>308.16666666666663</ele><time>2026-05-02T12:49:08Z</time></trkpt><trkpt lat="44.43343672823163" lon="9.018571095896098"><ele>310.0</ele><time>2026-05-02T12:49:09Z</time></trkpt><trkpt lat="44.433499817059094" lon="9.018673930716975"><ele>310.0</ele><time>2026-05-02T12:49:10Z</time></trkpt><trkpt lat="44.43356296288455" lon="9.018768353898327"><ele>310.0</ele><time>2026-05-02T12:49:11Z</time></trkpt><trkpt lat="44.43361631333071" lon="9.018881111629527"><ele>310.0</ele><time>2026-05-02T12:49:12Z</time></trkpt><trkpt lat="44.433696751900406" lon="9.018964717972276"><ele>310.0</ele><time>2026-05-02T12:49:13Z</time></trkpt><trkpt lat="44.43375183680648" lon="9.0190409039461"><ele>310.0</ele><time>2026-05-02T12:49:14Z</time></trkpt><trkpt lat="44.433822703122324" lon="9.01907847962909"><ele>310.0</ele><time>2026-05-02T12:49:16Z</time></trkpt><trkpt lat="44.433885342458254" lon="9.019100703329817"><ele>311.66666666666663</ele><time>2026-05-02T12:49:17Z</time></trkpt><trkpt lat="44.43394084856527" lon="9.01916089807402"><ele>313.3333333333333</ele><time>2026-05-02T12:49:18Z</time></trkpt><trkpt lat="44.43400637030608" lon="9.019190860039075"><ele>315.0</ele><time>2026-05-02T12:49:19Z</time></trkpt><trkpt lat="44.43406171357521" lon="9.019246077131312"><ele>316.6666666666667</ele><time>2026-05-02T12:49:20Z</time></trkpt><trkpt lat="44.434162301944625" lon="9.019307823982963"><ele>318.33333333333337</ele><time>2026-05-02T12:49:22Z</time></trkpt><trkpt lat="44.434226015758014" lon="9.019333021905657"><ele>320.0</ele><time>2026-05-02T12:49:24Z</time></trkpt><trkpt lat="44.434294155795726" lon="9.01935232722676"><ele>320.0</ele><time>2026-05-02T12:49:27Z</time></trkpt><trkpt lat="44.43437595000683" lon="9.019392455756474"><ele>320.0</ele><time>2026-05-02T12:49:31Z</time></trkpt><trkpt lat="44.43446222741544" lon="9.019445152970837"><ele>320.0</ele><time>2026-05-02T12:50:14Z</time></trkpt><trkpt lat="44.43455652744658" lon="9.019483421563999"><ele>320.0</ele><time>2026-05-02T12:50:16Z</time></trkpt><trkpt lat="44.434656924804116" lon="9.019521004481836"><ele>320.0</ele><time>2026-05-02T12:50:17.999Z</time></trkpt><trkpt lat="44.434731434897785" lon="9.019590537288328"><ele>319.2</ele><time>2026-05-02T12:50:19.999Z</time></trkpt><trkpt lat="44.43482462796077" lon="9.019718247060693"><ele>318.4</ele><time>2026-05-02T12:50:21.999Z</time></trkpt><trkpt lat="44.43489893323366" lon="9.019781741410718"><ele>317.6</ele><time>2026-05-02T12:50:22.999Z</time></trkpt><trkpt lat="44.43494626567695" lon="9.019873386788207"><ele>316.8</ele><time>2026-05-02T12:50:23.999Z</time></trkpt><trkpt lat="44.43498416183704" lon="9.019966318457724"><ele>316.0</ele><time>2026-05-02T12:50:24.999Z</time></trkpt><trkpt lat="44.43502701616629" lon="9.020078090858297"><ele>316.0</ele><time>2026-05-02T12:50:25.999Z</time></trkpt><trkpt lat="44.43506745488431" lon="9.020206077091693"><ele>316.0</ele><time>2026-05-02T12:50:26.999Z</time></trkpt><trkpt lat="44.43511411947748" lon="9.020342066257115"><ele>316.0</ele><time>2026-05-02T12:50:27.999Z</time></trkpt><trkpt lat="44.43517147417203" lon="9.020467792624073"><ele>316.0</ele><time>2026-05-02T12:50:28.999Z</time></trkpt><trkpt lat="44.43523695116782" lon="9.020595763317095"><ele>316.0</ele><time>2026-05-02T12:50:29.999Z</time></trkpt><trkpt lat="44.435290783967474" lon="9.020713424358044"><ele>316.3333333333333</ele><time>2026-05-02T12:50:30.999Z</time></trkpt><trkpt lat="44.43532711860774" lon="9.020833221079332"><ele>316.66666666666663</ele><time>2026-05-02T12:50:31.999Z</time></trkpt><trkpt lat="44.435358895412655" lon="9.020939499337457"><ele>317.0</ele><time>2026-05-02T12:50:32.999Z</time></trkpt><trkpt lat="44.43537825805943" lon="9.021039940697444"><ele>317.3333333333333</ele><time>2026-05-02T12:50:33.999Z</time></trkpt><trkpt lat="44.43539544077254" lon="9.02113979697201"><ele>317.6666666666667</ele><time>2026-05-02T12:50:34.999Z</time></trkpt><trkpt lat="44.435406299607116" lon="9.021238147620501"><ele>318.0</ele><time>2026-05-02T12:50:35.999Z</time></trkpt><trkpt lat="44.435418783020985" lon="9.02134321888251"><ele>318.0</ele><time>2026-05-02T12:50:36.999Z</time></trkpt><trkpt lat="44.43543194286242" lon="9.021453983167751"><ele>318.0</ele><time>2026-05-02T12:50:37.999Z</time></trkpt><trkpt lat="44.43545839538705" lon="9.021550061829892"><ele>318.0</ele><time>2026-05-02T12:50:39Z</time></trkpt><trkpt lat="44.43547345901664" lon="9.021651110243821"><ele>318.0</ele><time>2026-05-02T12:50:40Z</time></trkpt><trkpt lat="44.43549416578644" lon="9.02174445398567"><ele>318.0</ele><time>2026-05-02T12:50:41Z</time></trkpt><trkpt lat="44.435537254001794" lon="9.021822744685156"><ele>318.0</ele><time>2026-05-02T12:50:42Z</time></trkpt><trkpt lat="44.43556397032394" lon="9.021909362969652"><ele>318.0</ele><time>2026-05-02T12:50:43Z</time></trkpt><trkpt lat="44.435624860463285" lon="9.021979203010664"><ele>314.6</ele><time>2026-05-02T12:50:44Z</time></trkpt><trkpt lat="44.43570357086722" lon="9.022043774714836"><ele>311.20000000000005</ele><time>2026-05-02T12:50:45Z</time></trkpt><trkpt lat="44.43578264629291" lon="9.022101375382112"><ele>307.8</ele><time>2026-05-02T12:50:46Z</time></trkpt><trkpt lat="44.435877160702695" lon="9.022126913470704"><ele>304.40000000000003</ele><time>2026-05-02T12:50:47Z</time></trkpt><trkpt lat="44.43596769712838" lon="9.022165414621375"><ele>301.0</ele><time>2026-05-02T12:50:48Z</time></trkpt><trkpt lat="44.43606485199293" lon="9.022196511936581"><ele>301.0</ele><time>2026-05-02T12:50:49Z</time></trkpt><trkpt lat="44.43616712268086" lon="9.022220665292197"><ele>301.0</ele><time>2026-05-02T12:50:50Z</time></trkpt><trkpt lat="44.43626655675508" lon="9.022247359676383"><ele>301.0</ele><time>2026-05-02T12:50:51Z</time></trkpt><trkpt lat="44.436359216266034" lon="9.022299157084156"><ele>301.0</ele><time>2026-05-02T12:50:52Z</time></trkpt><trkpt lat="44.436446177214314" lon="9.0223054609517"><ele>301.0</ele><time>2026-05-02T12:50:53Z</time></trkpt><trkpt lat="44.4365329355851" lon="9.022338584512907"><ele>299.3333333333333</ele><time>2026-05-02T12:50:54Z</time></trkpt><trkpt lat="44.43661488598346" lon="9.022371395920038"><ele>297.66666666666663</ele><time>2026-05-02T12:50:55Z</time></trkpt><trkpt lat="44.43668664145034" lon="9.022391455486817"><ele>296.0</ele><time>2026-05-02T12:50:56Z</time></trkpt><trkpt lat="44.43675028148219" lon="9.022420927467374"><ele>294.3333333333333</ele><time>2026-05-02T12:50:57Z</time></trkpt><trkpt lat="44.4368136555788" lon="9.02244938301164"><ele>292.6666666666667</ele><time>2026-05-02T12:50:58Z</time></trkpt><trkpt lat="44.436872087918374" lon="9.022490558621797"><ele>291.0</ele><time>2026-05-02T12:50:59Z</time></trkpt><trkpt lat="44.436964648061064" lon="9.022602601887451"><ele>294.8333333333333</ele><time>2026-05-02T12:51:01Z</time></trkpt><trkpt lat="44.43700464194854" lon="9.022671289638405"><ele>298.6666666666667</ele><time>2026-05-02T12:51:02Z</time></trkpt><trkpt lat="44.43703347337899" lon="9.022751522874175"><ele>302.5</ele><time>2026-05-02T12:51:03Z</time></trkpt><trkpt lat="44.437046428904196" lon="9.022838093367856"><ele>306.33333333333337</ele><time>2026-05-02T12:51:04Z</time></trkpt><trkpt lat="44.43706498101553" lon="9.023013473328255"><ele>310.1666666666667</ele><time>2026-05-02T12:51:06Z</time></trkpt><trkpt lat="44.43707590186038" lon="9.023167624753112"><ele>314.0</ele><time>2026-05-02T12:51:07Z</time></trkpt><trkpt lat="44.43709775235829" lon="9.0232954829654"><ele>311.2</ele><time>2026-05-02T12:51:08Z</time></trkpt><trkpt lat="44.437128012142885" lon="9.023413775008851"><ele>308.4</ele><time>2026-05-02T12:51:09Z</time></trkpt><trkpt lat="44.437195872902215" lon="9.023522561323311"><ele>305.6</ele><time>2026-05-02T12:51:10Z</time></trkpt><trkpt lat="44.437267418429165" lon="9.023646830905994"><ele>302.8</ele><time>2026-05-02T12:51:11Z</time></trkpt><trkpt lat="44.43733125237076" lon="9.023755929047962"><ele>300.0</ele><time>2026-05-02T12:51:12Z</time></trkpt><trkpt lat="44.437387615126596" lon="9.02386932171787"><ele>300.0</ele><time>2026-05-02T12:51:13Z</time></trkpt><trkpt lat="44.437405788155196" lon="9.024008599228752"><ele>300.0</ele><time>2026-05-02T12:51:14Z</time></trkpt><trkpt lat="44.437384728790875" lon="9.024146079617099"><ele>300.0</ele><time>2026-05-02T12:51:15Z</time></trkpt><trkpt lat="44.437359818257065" lon="9.024291596122282"><ele>300.0</ele><time>2026-05-02T12:51:16Z</time></trkpt><trkpt lat="44.43732370936132" lon="9.024431156944177"><ele>300.0</ele><time>2026-05-02T12:51:17Z</time></trkpt><trkpt lat="44.43727207050616" lon="9.024580141595687"><ele>300.4</ele><time>2026-05-02T12:51:18Z</time></trkpt><trkpt lat="44.43721039882349" lon="9.024711479918182"><ele>300.8</ele><time>2026-05-02T12:51:19Z</time></trkpt><trkpt lat="44.4371715406067" lon="9.024818485206112"><ele>301.2</ele><time>2026-05-02T12:51:20Z</time></trkpt><trkpt lat="44.43714262717787" lon="9.024898070042827"><ele>301.6</ele><time>2026-05-02T12:51:21Z</time></trkpt><trkpt lat="44.437159757422485" lon="9.025090610196688"><ele>302.0</ele><time>2026-05-02T12:51:23Z</time></trkpt><trkpt lat="44.437182218444796" lon="9.025206973666178"><ele>302.8</ele><time>2026-05-02T12:51:24Z</time></trkpt><trkpt lat="44.437261295798265" lon="9.025268197004461"><ele>303.6</ele><time>2026-05-02T12:51:25Z</time></trkpt><trkpt lat="44.437345134432135" lon="9.025309986763503"><ele>304.40000000000003</ele><time>2026-05-02T12:51:26Z</time></trkpt><trkpt lat="44.43742804485153" lon="9.02531515369699"><ele>305.2</ele><time>2026-05-02T12:51:27Z</time></trkpt><trkpt lat="44.43751857022836" lon="9.025343825233357"><ele>306.0</ele><time>2026-05-02T12:51:28Z</time></trkpt><trkpt lat="44.43763401207929" lon="9.02536472746169"><ele>306.0</ele><time>2026-05-02T12:51:29Z</time></trkpt><trkpt lat="44.43772781848607" lon="9.025403029235349"><ele>306.0</ele><time>2026-05-02T12:51:30Z</time></trkpt><trkpt lat="44.43778816713965" lon="9.025496211640608"><ele>306.0</ele><time>2026-05-02T12:51:31Z</time></trkpt><trkpt lat="44.437861102580094" lon="9.025597925311542"><ele>306.0</ele><time>2026-05-02T12:51:32Z</time></trkpt><trkpt lat="44.43795110131042" lon="9.025732761847227"><ele>306.0</ele><time>2026-05-02T12:51:33Z</time></trkpt><trkpt lat="44.43803958474351" lon="9.025876538157467"><ele>304.0</ele><time>2026-05-02T12:51:34Z</time></trkpt><trkpt lat="44.438127599424725" lon="9.02602198156918"><ele>302.0</ele><time>2026-05-02T12:51:35Z</time></trkpt><trkpt lat="44.43819182075595" lon="9.026149243148447"><ele>300.0</ele><time>2026-05-02T12:51:36Z</time></trkpt><trkpt lat="44.43824716704761" lon="9.026261619203689"><ele>298.0</ele><time>2026-05-02T12:51:37Z</time></trkpt><trkpt lat="44.438269781847545" lon="9.02634858406006"><ele>296.0</ele><time>2026-05-02T12:51:38Z</time></trkpt><trkpt lat="44.438322094962736" lon="9.026483962263585"><ele>296.0</ele><time>2026-05-02T12:51:40Z</time></trkpt><trkpt lat="44.43838514995083" lon="9.026505913446567"><ele>296.0</ele><time>2026-05-02T12:51:41Z</time></trkpt><trkpt lat="44.438543531459764" lon="9.026466355405793"><ele>296.0</ele><time>2026-05-02T12:51:43Z</time></trkpt><trkpt lat="44.43864027677498" lon="9.026430209823825"><ele>296.0</ele><time>2026-05-02T12:51:44Z</time></trkpt><trkpt lat="44.438736953952095" lon="9.026447749483014"><ele>296.0</ele><time>2026-05-02T12:51:45Z</time></trkpt><trkpt lat="44.43880419070251" lon="9.026512796293133"><ele>294.40000000000003</ele><time>2026-05-02T12:51:46Z</time></trkpt><trkpt lat="44.43885542168175" lon="9.026596040263744"><ele>292.8</ele><time>2026-05-02T12:51:47Z</time></trkpt><trkpt lat="44.438880761016485" lon="9.02670110235328"><ele>291.20000000000005</ele><time>2026-05-02T12:51:48Z</time></trkpt><trkpt lat="44.43897409552659" lon="9.026793339859728"><ele>289.6</ele><time>2026-05-02T12:51:50Z</time></trkpt><trkpt lat="44.439098966317594" lon="9.026716324363798"><ele>288.0</ele><time>2026-05-02T12:51:52Z</time></trkpt><trkpt lat="44.439139143695044" lon="9.026577789231744"><ele>288.0</ele><time>2026-05-02T12:51:53Z</time></trkpt><trkpt lat="44.43919802212346" lon="9.02644595274178"><ele>288.0</ele><time>2026-05-02T12:51:54Z</time></trkpt><trkpt lat="44.43925845618449" lon="9.026320091552344"><ele>288.0</ele><time>2026-05-02T12:51:55Z</time></trkpt><trkpt lat="44.43931733437675" lon="9.026214072570678"><ele>288.0</ele><time>2026-05-02T12:51:56Z</time></trkpt><trkpt lat="44.43938536313046" lon="9.026133208849153"><ele>288.0</ele><time>2026-05-02T12:51:57Z</time></trkpt><trkpt lat="44.439462110934876" lon="9.026079584174086"><ele>288.0</ele><time>2026-05-02T12:51:58Z</time></trkpt><trkpt lat="44.439560187831546" lon="9.026064962280968"><ele>288.0</ele><time>2026-05-02T12:51:59Z</time></trkpt><trkpt lat="44.43966343332558" lon="9.02607751326068"><ele>288.0</ele><time>2026-05-02T12:52:00Z</time></trkpt><trkpt lat="44.43974795104066" lon="9.026144031425506"><ele>288.0</ele><time>2026-05-02T12:52:01Z</time></trkpt><trkpt lat="44.439821607803374" lon="9.026234548905663"><ele>288.0</ele><time>2026-05-02T12:52:02Z</time></trkpt><trkpt lat="44.43989145554417" lon="9.026346081561071"><ele>287.6666666666667</ele><time>2026-05-02T12:52:03Z</time></trkpt><trkpt lat="44.43995374006413" lon="9.026460148447676"><ele>287.3333333333333</ele><time>2026-05-02T12:52:04Z</time></trkpt><trkpt lat="44.44001862810469" lon="9.026566629052956"><ele>287.0</ele><time>2026-05-02T12:52:05Z</time></trkpt><trkpt lat="44.44008068120211" lon="9.02666535382621"><ele>286.66666666666663</ele><time>2026-05-02T12:52:06Z</time></trkpt><trkpt lat="44.440142093170195" lon="9.026741190807703"><ele>286.3333333333333</ele><time>2026-05-02T12:52:07Z</time></trkpt><trkpt lat="44.44019930469032" lon="9.026780279267602"><ele>286.0</ele><time>2026-05-02T12:52:08Z</time></trkpt><trkpt lat="44.440269134443554" lon="9.026788158252964"><ele>284.0</ele><time>2026-05-02T12:52:09Z</time></trkpt><trkpt lat="44.44035252647298" lon="9.026767767228415"><ele>282.0</ele><time>2026-05-02T12:52:10Z</time></trkpt><trkpt lat="44.4404443182498" lon="9.026718600384797"><ele>280.0</ele><time>2026-05-02T12:52:11Z</time></trkpt><trkpt lat="44.44054143094081" lon="9.026651688140822"><ele>278.0</ele><time>2026-05-02T12:52:12Z</time></trkpt><trkpt lat="44.44064087292564" lon="9.026602702739739"><ele>276.0</ele><time>2026-05-02T12:52:13Z</time></trkpt><trkpt lat="44.44075074871459" lon="9.026581140213114"><ele>276.0</ele><time>2026-05-02T12:52:14Z</time></trkpt><trkpt lat="44.440863700690166" lon="9.026573727169922"><ele>276.0</ele><time>2026-05-02T12:52:15Z</time></trkpt><trkpt lat="44.440978729725714" lon="9.026565623355507"><ele>276.0</ele><time>2026-05-02T12:52:16Z</time></trkpt><trkpt lat="44.44108472013765" lon="9.026575329876355"><ele>276.0</ele><time>2026-05-02T12:52:17Z</time></trkpt><trkpt lat="44.44118424158714" lon="9.026588514823139"><ele>276.0</ele><time>2026-05-02T12:52:18Z</time></trkpt><trkpt lat="44.4412789883751" lon="9.026573288601927"><ele>276.8</ele><time>2026-05-02T12:52:19Z</time></trkpt><trkpt lat="44.441378138625886" lon="9.02652191024973"><ele>277.6</ele><time>2026-05-02T12:52:20Z</time></trkpt><trkpt lat="44.441480436053645" lon="9.026472162343468"><ele>278.4</ele><time>2026-05-02T12:52:21Z</time></trkpt><trkpt lat="44.44157824643585" lon="9.0264316126384"><ele>279.2</ele><time>2026-05-02T12:52:22Z</time></trkpt><trkpt lat="44.441668259761336" lon="9.026377533862767"><ele>280.0</ele><time>2026-05-02T12:52:23Z</time></trkpt><trkpt lat="44.441752533334956" lon="9.026302575969801"><ele>280.0</ele><time>2026-05-02T12:52:23.999Z</time></trkpt><trkpt lat="44.44182528294317" lon="9.026223481321411"><ele>280.0</ele><time>2026-05-02T12:52:24.999Z</time></trkpt><trkpt lat="44.441904147319335" lon="9.026169498815097"><ele>280.0</ele><time>2026-05-02T12:52:25.999Z</time></trkpt><trkpt lat="44.441982566181714" lon="9.026132359795325"><ele>280.0</ele><time>2026-05-02T12:52:26.999Z</time></trkpt><trkpt lat="44.44206856525029" lon="9.026096645719038"><ele>280.0</ele><time>2026-05-02T12:52:27.999Z</time></trkpt><trkpt lat="44.442169758700075" lon="9.02608342458643"><ele>280.8</ele><time>2026-05-02T12:52:28.999Z</time></trkpt><trkpt lat="44.44226539995306" lon="9.026046743859386"><ele>281.6</ele><time>2026-05-02T12:52:29.999Z</time></trkpt><trkpt lat="44.442367427121106" lon="9.026051706433261"><ele>282.4</ele><time>2026-05-02T12:52:30.999Z</time></trkpt><trkpt lat="44.44247513741112" lon="9.026044380730603"><ele>283.2</ele><time>2026-05-02T12:52:31.999Z</time></trkpt><trkpt lat="44.44257662853655" lon="9.02600462496816"><ele>284.0</ele><time>2026-05-02T12:52:32.999Z</time></trkpt><trkpt lat="44.44267161518005" lon="9.025954620669976"><ele>284.0</ele><time>2026-05-02T12:52:33.999Z</time></trkpt><trkpt lat="44.442781283751856" lon="9.025912267409923"><ele>284.0</ele><time>2026-05-02T12:52:34.999Z</time></trkpt><trkpt lat="44.44287736818062" lon="9.02588666487539"><ele>284.0</ele><time>2026-05-02T12:52:35.999Z</time></trkpt><trkpt lat="44.44296537251722" lon="9.02586878585087"><ele>284.0</ele><time>2026-05-02T12:52:36.999Z</time></trkpt><trkpt lat="44.443132889124115" lon="9.025881505547453"><ele>283.25</ele><time>2026-05-02T12:52:38.999Z</time></trkpt><trkpt lat="44.443234522706504" lon="9.025923955694472"><ele>282.5</ele><time>2026-05-02T12:52:39.999Z</time></trkpt><trkpt lat="44.443343676906125" lon="9.025971263844008"><ele>281.75</ele><time>2026-05-02T12:52:40.999Z</time></trkpt><trkpt lat="44.4434641681843" lon="9.026019166718834"><ele>281.0</ele><time>2026-05-02T12:52:41.999Z</time></trkpt><trkpt lat="44.443581454143576" lon="9.026066195091753"><ele>281.0</ele><time>2026-05-02T12:52:42.999Z</time></trkpt><trkpt lat="44.44369127275848" lon="9.02610807674241"><ele>281.0</ele><time>2026-05-02T12:52:43.999Z</time></trkpt><trkpt lat="44.44379489557216" lon="9.026147736707674"><ele>281.0</ele><time>2026-05-02T12:52:44.999Z</time></trkpt><trkpt lat="44.443890649128214" lon="9.02618298170724"><ele>281.0</ele><time>2026-05-02T12:52:45.999Z</time></trkpt><trkpt lat="44.443984814902116" lon="9.026208830356577"><ele>281.0</ele><time>2026-05-02T12:52:46.999Z</time></trkpt><trkpt lat="44.44408110605106" lon="9.026221238658188"><ele>278.0</ele><time>2026-05-02T12:52:47.999Z</time></trkpt><trkpt lat="44.44418475855479" lon="9.026235797607981"><ele>275.0</ele><time>2026-05-02T12:52:48.999Z</time></trkpt><trkpt lat="44.44429691307051" lon="9.026232853812356"><ele>272.0</ele><time>2026-05-02T12:52:49.999Z</time></trkpt><trkpt lat="44.44441783341573" lon="9.026211094516157"><ele>269.0</ele><time>2026-05-02T12:52:50.999Z</time></trkpt><trkpt lat="44.44453770825542" lon="9.026180329468533"><ele>266.59999999999997</ele><time>2026-05-02T12:52:52Z</time></trkpt><trkpt lat="44.44464873155938" lon="9.026152416561875"><ele>264.2</ele><time>2026-05-02T12:52:53Z</time></trkpt><trkpt lat="44.444754852501" lon="9.02613982571536"><ele>261.79999999999995</ele><time>2026-05-02T12:52:54Z</time></trkpt><trkpt lat="44.44486348633572" lon="9.026138463675057"><ele>259.4</ele><time>2026-05-02T12:52:55Z</time></trkpt><trkpt lat="44.44497428997983" lon="9.026150621531066"><ele>257.0</ele><time>2026-05-02T12:52:56Z</time></trkpt><trkpt lat="44.44507651691262" lon="9.026180443854662"><ele>257.0</ele><time>2026-05-02T12:52:57Z</time></trkpt><trkpt lat="44.44517246022915" lon="9.026204646822105"><ele>257.0</ele><time>2026-05-02T12:52:58Z</time></trkpt><trkpt lat="44.44527249741418" lon="9.026224323787098"><ele>257.0</ele><time>2026-05-02T12:52:59Z</time></trkpt><trkpt lat="44.44536387408423" lon="9.026265253770063"><ele>257.0</ele><time>2026-05-02T12:53:00Z</time></trkpt><trkpt lat="44.44545938452524" lon="9.026320189373749"><ele>257.0</ele><time>2026-05-02T12:53:01Z</time></trkpt><trkpt lat="44.44555350417042" lon="9.026378038446264"><ele>258.0</ele><time>2026-05-02T12:53:02Z</time></trkpt><trkpt lat="44.44564089229079" lon="9.026471431451307"><ele>259.0</ele><time>2026-05-02T12:53:03Z</time></trkpt><trkpt lat="44.445731440109626" lon="9.026555549919237"><ele>260.0</ele><time>2026-05-02T12:53:04Z</time></trkpt><trkpt lat="44.4458289213183" lon="9.026635002175146"><ele>261.0</ele><time>2026-05-02T12:53:05Z</time></trkpt><trkpt lat="44.445926216957794" lon="9.026737035875703"><ele>261.0</ele><time>2026-05-02T12:53:06Z</time></trkpt><trkpt lat="44.446024968094164" lon="9.026822169166293"><ele>261.0</ele><time>2026-05-02T12:53:07Z</time></trkpt><trkpt lat="44.44608297891417" lon="9.026903660661716"><ele>261.0</ele><time>2026-05-02T12:53:08Z</time></trkpt><trkpt lat="44.446142270293706" lon="9.026953390438958"><ele>261.0</ele><time>2026-05-02T12:53:09Z</time></trkpt><trkpt lat="44.4462092981693" lon="9.027020081225485"><ele>261.0</ele><time>2026-05-02T12:53:10Z</time></trkpt><trkpt lat="44.44627587246322" lon="9.027057579610291"><ele>261.0</ele><time>2026-05-02T12:53:11Z</time></trkpt><trkpt lat="44.4463456845843" lon="9.027056255397667"><ele>257.8</ele><time>2026-05-02T12:53:12Z</time></trkpt><trkpt lat="44.44646477556174" lon="9.026981214317503"><ele>254.60000000000002</ele><time>2026-05-02T12:53:14Z</time></trkpt><trkpt lat="44.446501805933764" lon="9.026909374778855"><ele>251.4</ele><time>2026-05-02T12:53:15Z</time></trkpt><trkpt lat="44.446500156447776" lon="9.026816772469047"><ele>248.2</ele><time>2026-05-02T12:53:16Z</time></trkpt><trkpt lat="44.44646351462243" lon="9.026644850925916"><ele>245.0</ele><time>2026-05-02T12:53:18Z</time></trkpt><trkpt lat="44.44639729935492" lon="9.026578045230128"><ele>245.00000000000003</ele><time>2026-05-02T12:53:19Z</time></trkpt><trkpt lat="44.446314114041265" lon="9.026548984177229"><ele>245.0</ele><time>2026-05-02T12:53:20Z</time></trkpt><trkpt lat="44.446240564277986" lon="9.026485913671307"><ele>245.0</ele><time>2026-05-02T12:53:21Z</time></trkpt><trkpt lat="44.44617880350558" lon="9.02640474457564"><ele>245.0</ele><time>2026-05-02T12:53:22Z</time></trkpt><trkpt lat="44.446144771720746" lon="9.026285037591506"><ele>245.00000000000003</ele><time>2026-05-02T12:53:23Z</time></trkpt><trkpt lat="44.44610450182752" lon="9.026167950621241"><ele>245.0</ele><time>2026-05-02T12:53:24Z</time></trkpt><trkpt lat="44.44606746588516" lon="9.026046852707609"><ele>245.0</ele><time>2026-05-02T12:53:25Z</time></trkpt><trkpt lat="44.44602065361819" lon="9.025939185335865"><ele>245.0</ele><time>2026-05-02T12:53:26Z</time></trkpt><trkpt lat="44.44596813086478" lon="9.02583550382402"><ele>245.0</ele><time>2026-05-02T12:53:27Z</time></trkpt><trkpt lat="44.44589493973169" lon="9.025718634387818"><ele>245.0</ele><time>2026-05-02T12:53:28Z</time></trkpt><trkpt lat="44.44581106605524" lon="9.025617196771567"><ele>245.0</ele><time>2026-05-02T12:53:29Z</time></trkpt><trkpt lat="44.445729066475295" lon="9.025540008807974"><ele>244.16666666666669</ele><time>2026-05-02T12:53:30Z</time></trkpt><trkpt lat="44.44564224926444" lon="9.025474648445126"><ele>243.33333333333334</ele><time>2026-05-02T12:53:31Z</time></trkpt><trkpt lat="44.44555929323264" lon="9.025416821337496"><ele>242.5</ele><time>2026-05-02T12:53:32Z</time></trkpt><trkpt lat="44.44547856956312" lon="9.025366339322856"><ele>241.66666666666669</ele><time>2026-05-02T12:53:33Z</time></trkpt><trkpt lat="44.44540941865679" lon="9.025313442086699"><ele>240.83333333333334</ele><time>2026-05-02T12:53:34Z</time></trkpt><trkpt lat="44.44534456910806" lon="9.025247569218378"><ele>240.0</ele><time>2026-05-02T12:53:35Z</time></trkpt><trkpt lat="44.44532108170046" lon="9.025136713339215"><ele>240.0</ele><time>2026-05-02T12:53:36Z</time></trkpt><trkpt lat="44.44530808436792" lon="9.025024100733477"><ele>240.0</ele><time>2026-05-02T12:53:37Z</time></trkpt><trkpt lat="44.44529895430002" lon="9.024910862907372"><ele>240.0</ele><time>2026-05-02T12:53:38Z</time></trkpt><trkpt lat="44.44526948016534" lon="9.024800126690469"><ele>240.0</ele><time>2026-05-02T12:53:39Z</time></trkpt><trkpt lat="44.4452138351243" lon="9.02469211268984"><ele>240.0</ele><time>2026-05-02T12:53:40Z</time></trkpt><trkpt lat="44.44513339800526" lon="9.024588612894917"><ele>237.0</ele><time>2026-05-02T12:53:41Z</time></trkpt><trkpt lat="44.44504133257309" lon="9.024513930547394"><ele>234.0</ele><time>2026-05-02T12:53:42Z</time></trkpt><trkpt lat="44.444934723929286" lon="9.024463687570613"><ele>231.0</ele><time>2026-05-02T12:53:43Z</time></trkpt><trkpt lat="44.44482650094805" lon="9.02442689126576"><ele>228.0</ele><time>2026-05-02T12:53:44Z</time></trkpt><trkpt lat="44.44472359699029" lon="9.024395337227016"><ele>225.0</ele><time>2026-05-02T12:53:45Z</time></trkpt><trkpt lat="44.44464225061661" lon="9.024362943122185"><ele>226.25</ele><time>2026-05-02T12:53:46Z</time></trkpt><trkpt lat="44.44453367685722" lon="9.024302857202095"><ele>227.5</ele><time>2026-05-02T12:53:47Z</time></trkpt><trkpt lat="44.44441980124893" lon="9.024259610040431"><ele>228.75</ele><time>2026-05-02T12:53:48Z</time></trkpt><trkpt lat="44.44431708394035" lon="9.024195084873693"><ele>230.0</ele><time>2026-05-02T12:53:49Z</time></trkpt><trkpt lat="44.444222838891584" lon="9.024131602226683"><ele>227.8</ele><time>2026-05-02T12:53:50Z</time></trkpt><trkpt lat="44.44412700415666" lon="9.024066906826517"><ele>225.6</ele><time>2026-05-02T12:53:51Z</time></trkpt><trkpt lat="44.44402620393252" lon="9.024005992900623"><ele>223.39999999999998</ele><time>2026-05-02T12:53:52Z</time></trkpt><trkpt lat="44.44391473455586" lon="9.023951485018816"><ele>221.2</ele><time>2026-05-02T12:53:53Z</time></trkpt><trkpt lat="44.44381006362768" lon="9.023926218468214"><ele>219.0</ele><time>2026-05-02T12:53:54Z</time></trkpt><trkpt lat="44.44371176205986" lon="9.02391349031482"><ele>219.0</ele><time>2026-05-02T12:53:55Z</time></trkpt><trkpt lat="44.4436268405433" lon="9.023898958421535"><ele>219.0</ele><time>2026-05-02T12:53:56Z</time></trkpt><trkpt lat="44.44355154929126" lon="9.023881395828411"><ele>219.0</ele><time>2026-05-02T12:53:57Z</time></trkpt><trkpt lat="44.44348602539875" lon="9.023861758383005"><ele>219.0</ele><time>2026-05-02T12:53:58Z</time></trkpt><trkpt lat="44.4433961954139" lon="9.023815909019406"><ele>219.0</ele><time>2026-05-02T12:54:00Z</time></trkpt><trkpt lat="44.44341220430633" lon="9.023671331373052"><ele>219.0</ele><time>2026-05-02T12:54:02Z</time></trkpt><trkpt lat="44.44346431559988" lon="9.023614493411857"><ele>219.0</ele><time>2026-05-02T12:54:03Z</time></trkpt><trkpt lat="44.44353184281398" lon="9.02361419742731"><ele>219.0</ele><time>2026-05-02T12:54:04Z</time></trkpt><trkpt lat="44.44361005989944" lon="9.023662673990097"><ele>219.0</ele><time>2026-05-02T12:54:05Z</time></trkpt><trkpt lat="44.44368470432682" lon="9.023687664449163"><ele>219.0</ele><time>2026-05-02T12:54:06Z</time></trkpt><trkpt lat="44.44379495489076" lon="9.023690517572426"><ele>219.0</ele><time>2026-05-02T12:54:08Z</time></trkpt><trkpt lat="44.443873127282465" lon="9.023584124659736"><ele>219.0</ele><time>2026-05-02T12:54:10Z</time></trkpt><trkpt lat="44.44387257710843" lon="9.023486944585962"><ele>219.0</ele><time>2026-05-02T12:54:11Z</time></trkpt><trkpt lat="44.44382310015445" lon="9.023402419962752"><ele>219.0</ele><time>2026-05-02T12:54:12Z</time></trkpt><trkpt lat="44.44375485813265" lon="9.02334617789333"><ele>219.0</ele><time>2026-05-02T12:54:13Z</time></trkpt><trkpt lat="44.44369798692955" lon="9.023282913000465"><ele>219.0</ele><time>2026-05-02T12:54:14Z</time></trkpt><trkpt lat="44.44366228370761" lon="9.023205896078574"><ele>219.0</ele><time>2026-05-02T12:54:15Z</time></trkpt><trkpt lat="44.443641608181615" lon="9.023093536182834"><ele>219.0</ele><time>2026-05-02T12:54:16Z</time></trkpt><trkpt lat="44.44363043521589" lon="9.02299302527431"><ele>215.79999999999998</ele><time>2026-05-02T12:54:17Z</time></trkpt><trkpt lat="44.44363880684842" lon="9.022900923051445"><ele>212.59999999999997</ele><time>2026-05-02T12:54:18Z</time></trkpt><trkpt lat="44.44369549200097" lon="9.022775621917429"><ele>209.4</ele><time>2026-05-02T12:54:20Z</time></trkpt><trkpt lat="44.443793546696895" lon="9.022820355534108"><ele>206.2</ele><time>2026-05-02T12:54:22Z</time></trkpt><trkpt lat="44.44386031193445" lon="9.022906398510834"><ele>203.0</ele><time>2026-05-02T12:54:23Z</time></trkpt><trkpt lat="44.44395223580008" lon="9.022985745320081"><ele>201.25</ele><time>2026-05-02T12:54:24Z</time></trkpt><trkpt lat="44.444058568308606" lon="9.023044152087309"><ele>199.5</ele><time>2026-05-02T12:54:25Z</time></trkpt><trkpt lat="44.444183244755656" lon="9.023095791947183"><ele>197.75</ele><time>2026-05-02T12:54:26Z</time></trkpt><trkpt lat="44.44428892527827" lon="9.023143478496905"><ele>196.0</ele><time>2026-05-02T12:54:27Z</time></trkpt><trkpt lat="44.4443831557864" lon="9.023188808251161"><ele>196.0</ele><time>2026-05-02T12:54:28Z</time></trkpt><trkpt lat="44.44446841562384" lon="9.023236165714007"><ele>196.0</ele><time>2026-05-02T12:54:28.999Z</time></trkpt><trkpt lat="44.44454206734948" lon="9.023289900490363"><ele>196.0</ele><time>2026-05-02T12:54:29.999Z</time></trkpt><trkpt lat="44.44464815364974" lon="9.02332425034358"><ele>196.0</ele><time>2026-05-02T12:54:31.999Z</time></trkpt><trkpt lat="44.444705482230795" lon="9.02318623248121"><ele>196.0</ele><time>2026-05-02T12:54:33.999Z</time></trkpt><trkpt lat="44.44463674222599" lon="9.023063901543317"><ele>195.99999999999997</ele><time>2026-05-02T12:54:35.999Z</time></trkpt><trkpt lat="44.444553023317916" lon="9.023018920780666"><ele>196.0</ele><time>2026-05-02T12:54:36.999Z</time></trkpt><trkpt lat="44.44447766785686" lon="9.022969589551453"><ele>196.0</ele><time>2026-05-02T12:54:37.999Z</time></trkpt><trkpt lat="44.44442237614057" lon="9.022880008983273"><ele>196.0</ele><time>2026-05-02T12:54:38.999Z</time></trkpt><trkpt lat="44.44437006075792" lon="9.022770915965895"><ele>195.99999999999997</ele><time>2026-05-02T12:54:39.999Z</time></trkpt><trkpt lat="44.444319345150866" lon="9.022653624549985"><ele>196.0</ele><time>2026-05-02T12:54:40.999Z</time></trkpt><trkpt lat="44.444278762020296" lon="9.022536107918944"><ele>194.49999999999997</ele><time>2026-05-02T12:54:42Z</time></trkpt><trkpt lat="44.44423104266112" lon="9.022438341391203"><ele>193.0</ele><time>2026-05-02T12:54:43Z</time></trkpt><trkpt lat="44.44421545874355" lon="9.022346374907224"><ele>191.5</ele><time>2026-05-02T12:54:44Z</time></trkpt><trkpt lat="44.44419394940764" lon="9.022221693268843"><ele>190.0</ele><time>2026-05-02T12:54:46Z</time></trkpt><trkpt lat="44.44427164673176" lon="9.022182288797934"><ele>188.5</ele><time>2026-05-02T12:54:48Z</time></trkpt><trkpt lat="44.444311290686926" lon="9.02230515281012"><ele>187.0</ele><time>2026-05-02T12:54:50Z</time></trkpt><trkpt lat="44.44431269360941" lon="9.022399569522415"><ele>186.0</ele><time>2026-05-02T12:54:51Z</time></trkpt><trkpt lat="44.44433761040569" lon="9.022491327527405"><ele>185.0</ele><time>2026-05-02T12:54:52Z</time></trkpt><trkpt lat="44.444390115908554" lon="9.022569646546666"><ele>184.0</ele><time>2026-05-02T12:54:53Z</time></trkpt><trkpt lat="44.44445685801359" lon="9.022625008004004"><ele>183.0</ele><time>2026-05-02T12:54:54Z</time></trkpt><trkpt lat="44.44453228148015" lon="9.022672398235638"><ele>182.0</ele><time>2026-05-02T12:54:55Z</time></trkpt><trkpt lat="44.44460865015116" lon="9.022718939563575"><ele>181.0</ele><time>2026-05-02T12:54:56Z</time></trkpt><trkpt lat="44.444688442868134" lon="9.022761573933597"><ele>181.0</ele><time>2026-05-02T12:54:57Z</time></trkpt><trkpt lat="44.444761589726966" lon="9.022795619856218"><ele>181.0</ele><time>2026-05-02T12:54:58Z</time></trkpt><trkpt lat="44.44483032670001" lon="9.022803172279486"><ele>181.0</ele><time>2026-05-02T12:54:59Z</time></trkpt><trkpt lat="44.44494696529078" lon="9.02275239268465"><ele>181.0</ele><time>2026-05-02T12:55:01Z</time></trkpt><trkpt lat="44.44502452218978" lon="9.022606379290384"><ele>181.0</ele><time>2026-05-02T12:55:02Z</time></trkpt><trkpt lat="44.44506898740531" lon="9.022539093392835"><ele>179.4</ele><time>2026-05-02T12:55:03Z</time></trkpt><trkpt lat="44.44513517678672" lon="9.022429744992063"><ele>177.8</ele><time>2026-05-02T12:55:05Z</time></trkpt><trkpt lat="44.44518451118226" lon="9.022337389878368"><ele>176.20000000000002</ele><time>2026-05-02T12:55:21Z</time></trkpt><trkpt lat="44.44525908107378" lon="9.022244010963089"><ele>174.60000000000002</ele><time>2026-05-02T12:55:23Z</time></trkpt><trkpt lat="44.445340308004184" lon="9.022120542690192"><ele>173.0</ele><time>2026-05-02T12:55:25Z</time></trkpt><trkpt lat="44.445392168669066" lon="9.02204017606857"><ele>173.0</ele><time>2026-05-02T12:55:26Z</time></trkpt><trkpt lat="44.44544653707229" lon="9.021953020238588"><ele>173.0</ele><time>2026-05-02T12:55:27Z</time></trkpt><trkpt lat="44.445505798227195" lon="9.021858020767477"><ele>173.0</ele><time>2026-05-02T12:55:28Z</time></trkpt><trkpt lat="44.44555975859949" lon="9.021738194283099"><ele>173.0</ele><time>2026-05-02T12:55:29Z</time></trkpt><trkpt lat="44.445629909823495" lon="9.021637574629908"><ele>173.0</ele><time>2026-05-02T12:55:30Z</time></trkpt><trkpt lat="44.44569691071946" lon="9.021541962144594"><ele>170.83333333333331</ele><time>2026-05-02T12:55:31Z</time></trkpt><trkpt lat="44.44576264625656" lon="9.021447562094348"><ele>168.66666666666666</ele><time>2026-05-02T12:55:32Z</time></trkpt><trkpt lat="44.44582519929607" lon="9.021352916987075"><ele>166.5</ele><time>2026-05-02T12:55:33Z</time></trkpt><trkpt lat="44.445887638381286" lon="9.021255038317454"><ele>164.33333333333334</ele><time>2026-05-02T12:55:34Z</time></trkpt><trkpt lat="44.44594750887542" lon="9.021162148272543"><ele>162.16666666666669</ele><time>2026-05-02T12:55:35Z</time></trkpt><trkpt lat="44.445995866632146" lon="9.02108207751019"><ele>160.0</ele><time>2026-05-02T12:55:36Z</time></trkpt><trkpt lat="44.44604372918353" lon="9.021003368433693"><ele>160.0</ele><time>2026-05-02T12:55:37Z</time></trkpt><trkpt lat="44.446131782573474" lon="9.020916254070183"><ele>160.0</ele><time>2026-05-02T12:55:39Z</time></trkpt><trkpt lat="44.44623108822731" lon="9.020955256658128"><ele>160.0</ele><time>2026-05-02T12:55:41Z</time></trkpt><trkpt lat="44.44624688555975" lon="9.021102085813103"><ele>160.0</ele><time>2026-05-02T12:55:43Z</time></trkpt><trkpt lat="44.44616635859644" lon="9.021187770251467"><ele>160.0</ele><time>2026-05-02T12:55:45Z</time></trkpt><trkpt lat="44.44609530201749" lon="9.02122986367221"><ele>160.0</ele><time>2026-05-02T12:55:47Z</time></trkpt><trkpt lat="44.44609279685918" lon="9.021367108888251"><ele>160.0</ele><time>2026-05-02T12:55:49Z</time></trkpt><trkpt lat="44.44618426743004" lon="9.02146301070006"><ele>160.0</ele><time>2026-05-02T12:55:51Z</time></trkpt><trkpt lat="44.44628504209766" lon="9.021398700457913"><ele>160.0</ele><time>2026-05-02T12:55:53Z</time></trkpt><trkpt lat="44.44634153882016" lon="9.02132795507687"><ele>160.0</ele><time>2026-05-02T12:55:54Z</time></trkpt><trkpt lat="44.44639574648154" lon="9.021254384047337"><ele>157.14285714285714</ele><time>2026-05-02T12:55:55Z</time></trkpt><trkpt lat="44.44643595467386" lon="9.021168357181958"><ele>154.28571428571428</ele><time>2026-05-02T12:55:56Z</time></trkpt><trkpt lat="44.446455958532574" lon="9.021076867882822"><ele>151.42857142857144</ele><time>2026-05-02T12:55:57Z</time></trkpt><trkpt lat="44.44646324124247" lon="9.020981842407178"><ele>148.57142857142856</ele><time>2026-05-02T12:55:58Z</time></trkpt><trkpt lat="44.446397456066194" lon="9.02088730539434"><ele>145.71428571428572</ele><time>2026-05-02T12:55:59Z</time></trkpt><trkpt lat="44.44635515620067" lon="9.020799104451434"><ele>142.85714285714286</ele><time>2026-05-02T12:56:00Z</time></trkpt><trkpt lat="44.44630845628123" lon="9.020738526103127"><ele>140.0</ele><time>2026-05-02T12:56:01Z</time></trkpt><trkpt lat="44.44629803446064" lon="9.020646568823889"><ele>140.0</ele><time>2026-05-02T12:56:04Z</time></trkpt><trkpt lat="44.44638911951032" lon="9.020674706380166"><ele>140.0</ele><time>2026-05-02T12:56:06Z</time></trkpt><trkpt lat="44.44643580088667" lon="9.020741353184563"><ele>140.0</ele><time>2026-05-02T12:56:07Z</time></trkpt><trkpt lat="44.44647562430627" lon="9.020822617283596"><ele>140.0</ele><time>2026-05-02T12:56:08Z</time></trkpt><trkpt lat="44.446540218951085" lon="9.020933675021046"><ele>140.0</ele><time>2026-05-02T12:56:10Z</time></trkpt><trkpt lat="44.44666217011717" lon="9.020928686804352"><ele>140.0</ele><time>2026-05-02T12:56:12Z</time></trkpt><trkpt lat="44.44672213538399" lon="9.020879386478013"><ele>140.0</ele><time>2026-05-02T12:56:13Z</time></trkpt><trkpt lat="44.446755793318246" lon="9.020717962030085"><ele>140.0</ele><time>2026-05-02T12:56:15Z</time></trkpt><trkpt lat="44.44673137436636" lon="9.020614968284349"><ele>140.0</ele><time>2026-05-02T12:56:16Z</time></trkpt><trkpt lat="44.446696716709006" lon="9.020523933059458"><ele>140.0</ele><time>2026-05-02T12:56:17Z</time></trkpt><trkpt lat="44.446652657550835" lon="9.02045120190469"><ele>140.0</ele><time>2026-05-02T12:56:18Z</time></trkpt><trkpt lat="44.446537218832944" lon="9.02038488128137"><ele>139.5</ele><time>2026-05-02T12:56:20Z</time></trkpt><trkpt lat="44.44643601454279" lon="9.02033511041825"><ele>139.0</ele><time>2026-05-02T12:56:22Z</time></trkpt><trkpt lat="44.44645890063732" lon="9.020232033458376"><ele>138.5</ele><time>2026-05-02T12:56:26Z</time></trkpt><trkpt lat="44.446527411792204" lon="9.020224591854786"><ele>138.0</ele><time>2026-05-02T12:56:27Z</time></trkpt><trkpt lat="44.44661395302858" lon="9.020272764290816"><ele>137.5</ele><time>2026-05-02T12:56:28Z</time></trkpt><trkpt lat="44.44669958377649" lon="9.020301922937387"><ele>137.0</ele><time>2026-05-02T12:56:29Z</time></trkpt><trkpt lat="44.44677223947603" lon="9.020344908437298"><ele>137.0</ele><time>2026-05-02T12:56:30Z</time></trkpt><trkpt lat="44.446834773922966" lon="9.020372480337858"><ele>137.0</ele><time>2026-05-02T12:56:31Z</time></trkpt><trkpt lat="44.446944884323806" lon="9.020429053035981"><ele>137.0</ele><time>2026-05-02T12:56:33Z</time></trkpt><trkpt lat="44.44704312447417" lon="9.020456513481095"><ele>137.0</ele><time>2026-05-02T12:56:35Z</time></trkpt><trkpt lat="44.44708665946708" lon="9.020364418937662"><ele>137.0</ele><time>2026-05-02T12:56:37Z</time></trkpt><trkpt lat="44.44701790106383" lon="9.020249223476435"><ele>137.0</ele><time>2026-05-02T12:56:39Z</time></trkpt><trkpt lat="44.44692992915345" lon="9.02016185873307"><ele>137.0</ele><time>2026-05-02T12:56:41Z</time></trkpt><trkpt lat="44.44691593010261" lon="9.020041359631952"><ele>137.0</ele><time>2026-05-02T12:56:43Z</time></trkpt><trkpt lat="44.446966830318296" lon="9.019973220861035"><ele>137.0</ele><time>2026-05-02T12:56:44Z</time></trkpt><trkpt lat="44.44704257892094" lon="9.019929647921334"><ele>137.0</ele><time>2026-05-02T12:56:45Z</time></trkpt><trkpt lat="44.447122091735345" lon="9.019898602083659"><ele>137.0</ele><time>2026-05-02T12:56:46Z</time></trkpt><trkpt lat="44.447213093477174" lon="9.019843843143159"><ele>132.2</ele><time>2026-05-02T12:56:47Z</time></trkpt><trkpt lat="44.447300528027526" lon="9.019757358381984"><ele>127.39999999999999</ele><time>2026-05-02T12:56:48Z</time></trkpt><trkpt lat="44.44738649018259" lon="9.019666064597457"><ele>122.60000000000001</ele><time>2026-05-02T12:56:49Z</time></trkpt><trkpt lat="44.44746426882098" lon="9.019577236530552"><ele>117.80000000000001</ele><time>2026-05-02T12:56:50Z</time></trkpt><trkpt lat="44.44752638053893" lon="9.019476171857132"><ele>113.0</ele><time>2026-05-02T12:56:51Z</time></trkpt><trkpt lat="44.44757052693733" lon="9.019379989631311"><ele>112.99999999999999</ele><time>2026-05-02T12:56:52Z</time></trkpt><trkpt lat="44.447569642368194" lon="9.019216455289365"><ele>113.0</ele><time>2026-05-02T12:56:54Z</time></trkpt><trkpt lat="44.44752941370724" lon="9.019131971264317"><ele>113.0</ele><time>2026-05-02T12:56:55Z</time></trkpt><trkpt lat="44.447475991763106" lon="9.01904091095532"><ele>113.0</ele><time>2026-05-02T12:56:56Z</time></trkpt><trkpt lat="44.447449207365615" lon="9.0189395858852"><ele>112.99999999999999</ele><time>2026-05-02T12:56:57Z</time></trkpt><trkpt lat="44.44742095515547" lon="9.018847775030908"><ele>113.0</ele><time>2026-05-02T12:56:58Z</time></trkpt><trkpt lat="44.44745088579424" lon="9.018730125442646"><ele>111.49999999999999</ele><time>2026-05-02T12:56:59Z</time></trkpt><trkpt lat="44.447504297320975" lon="9.018624662769007"><ele>110.0</ele><time>2026-05-02T12:57:00Z</time></trkpt><trkpt lat="44.447549034649235" lon="9.018531437299895"><ele>108.5</ele><time>2026-05-02T12:57:01Z</time></trkpt><trkpt lat="44.44755831034949" lon="9.01841961794212"><ele>107.0</ele><time>2026-05-02T12:57:02Z</time></trkpt><trkpt lat="44.44753665591336" lon="9.018298004795122"><ele>105.49999999999999</ele><time>2026-05-02T12:57:03Z</time></trkpt><trkpt lat="44.44749070895304" lon="9.018162636002092"><ele>104.0</ele><time>2026-05-02T12:57:04Z</time></trkpt><trkpt lat="44.44744229877739" lon="9.018016208301955"><ele>102.4</ele><time>2026-05-02T12:57:05Z</time></trkpt><trkpt lat="44.447406227201114" lon="9.017865348730417"><ele>100.80000000000001</ele><time>2026-05-02T12:57:06Z</time></trkpt><trkpt lat="44.447384478604604" lon="9.01771191125514"><ele>99.19999999999999</ele><time>2026-05-02T12:57:07Z</time></trkpt><trkpt lat="44.44734173293133" lon="9.017578183020479"><ele>97.6</ele><time>2026-05-02T12:57:08Z</time></trkpt><trkpt lat="44.447323239352095" lon="9.017449624109082"><ele>96.0</ele><time>2026-05-02T12:57:09Z</time></trkpt><trkpt lat="44.44732097691584" lon="9.017326592347526"><ele>95.66666666666667</ele><time>2026-05-02T12:57:10Z</time></trkpt><trkpt lat="44.44733414120269" lon="9.017210077034516"><ele>95.33333333333333</ele><time>2026-05-02T12:57:11Z</time></trkpt><trkpt lat="44.44736086000316" lon="9.017099675445372"><ele>95.0</ele><time>2026-05-02T12:57:12Z</time></trkpt><trkpt lat="44.44739765668925" lon="9.016988174739529"><ele>94.66666666666666</ele><time>2026-05-02T12:57:13Z</time></trkpt><trkpt lat="44.447438919795836" lon="9.01687357320034"><ele>94.33333333333333</ele><time>2026-05-02T12:57:14Z</time></trkpt><trkpt lat="44.447481818974666" lon="9.016747535058922"><ele>94.0</ele><time>2026-05-02T12:57:15Z</time></trkpt><trkpt lat="44.44753421874064" lon="9.016620903219236"><ele>93.4</ele><time>2026-05-02T12:57:16Z</time></trkpt><trkpt lat="44.44760443783402" lon="9.016505793133737"><ele>92.80000000000001</ele><time>2026-05-02T12:57:17Z</time></trkpt><trkpt lat="44.44766734790436" lon="9.016402438008045"><ele>92.19999999999999</ele><time>2026-05-02T12:57:18Z</time></trkpt><trkpt lat="44.44772004535561" lon="9.016305581685419"><ele>91.6</ele><time>2026-05-02T12:57:19Z</time></trkpt><trkpt lat="44.44775842107977" lon="9.016202707443524"><ele>91.0</ele><time>2026-05-02T12:57:20Z</time></trkpt><trkpt lat="44.44779412863329" lon="9.016083538873092"><ele>91.0</ele><time>2026-05-02T12:57:21Z</time></trkpt><trkpt lat="44.44782939745504" lon="9.015942641905978"><ele>91.0</ele><time>2026-05-02T12:57:22Z</time></trkpt><trkpt lat="44.44786558122394" lon="9.015800757962728"><ele>91.0</ele><time>2026-05-02T12:57:23Z</time></trkpt><trkpt lat="44.44790398022102" lon="9.01567677744801"><ele>91.0</ele><time>2026-05-02T12:57:24Z</time></trkpt><trkpt lat="44.44794470874249" lon="9.015563764223389"><ele>91.0</ele><time>2026-05-02T12:57:25Z</time></trkpt><trkpt lat="44.44798406083929" lon="9.015460159585453"><ele>90.0</ele><time>2026-05-02T12:57:26Z</time></trkpt><trkpt lat="44.44802333394651" lon="9.015367556099966"><ele>89.0</ele><time>2026-05-02T12:57:27Z</time></trkpt><trkpt lat="44.44805563393168" lon="9.015285318788274"><ele>88.0</ele><time>2026-05-02T12:57:28Z</time></trkpt><trkpt lat="44.44808524168488" lon="9.015205879097268"><ele>87.0</ele><time>2026-05-02T12:57:29Z</time></trkpt><trkpt lat="44.448184844918686" lon="9.015109320002551"><ele>86.0</ele><time>2026-05-02T12:57:31Z</time></trkpt><trkpt lat="44.44825082244098" lon="9.015092042781536"><ele>85.0</ele><time>2026-05-02T12:57:32Z</time></trkpt><trkpt lat="44.44831657132381" lon="9.015077754065308"><ele>85.0</ele><time>2026-05-02T12:57:33Z</time></trkpt><trkpt lat="44.44838533975558" lon="9.015061488990709"><ele>85.0</ele><time>2026-05-02T12:57:34Z</time></trkpt><trkpt lat="44.448451801702426" lon="9.015044523441873"><ele>85.0</ele><time>2026-05-02T12:57:35Z</time></trkpt><trkpt lat="44.44855587425917" lon="9.015049786657194"><ele>85.0</ele><time>2026-05-02T12:57:37Z</time></trkpt><trkpt lat="44.44866899207062" lon="9.01510842852282"><ele>85.0</ele><time>2026-05-02T12:57:39Z</time></trkpt><trkpt lat="44.44872297857575" lon="9.015163252606952"><ele>85.0</ele><time>2026-05-02T12:57:40Z</time></trkpt><trkpt lat="44.44876578229865" lon="9.015244659736561"><ele>85.0</ele><time>2026-05-02T12:57:41Z</time></trkpt><trkpt lat="44.448785050491686" lon="9.015342806710212"><ele>85.0</ele><time>2026-05-02T12:57:42Z</time></trkpt><trkpt lat="44.448792586811116" lon="9.015449047194515"><ele>85.0</ele><time>2026-05-02T12:57:43Z</time></trkpt><trkpt lat="44.44879143818647" lon="9.015567107006305"><ele>85.0</ele><time>2026-05-02T12:57:44Z</time></trkpt><trkpt lat="44.44879288608985" lon="9.01569683946965"><ele>85.0</ele><time>2026-05-02T12:57:45Z</time></trkpt><trkpt lat="44.44879422580558" lon="9.015842079246205"><ele>85.0</ele><time>2026-05-02T12:57:46Z</time></trkpt><trkpt lat="44.44879775598563" lon="9.015997531785347"><ele>84.66666666666666</ele><time>2026-05-02T12:57:47Z</time></trkpt><trkpt lat="44.44880182984105" lon="9.016317023651"><ele>84.33333333333333</ele><time>2026-05-02T12:57:49Z</time></trkpt><trkpt lat="44.44880225997603" lon="9.016495307593718"><ele>84.0</ele><time>2026-05-02T12:57:50Z</time></trkpt><trkpt lat="44.448801924501" lon="9.016687666192738"><ele>84.0</ele><time>2026-05-02T12:57:51Z</time></trkpt><trkpt lat="44.448802848593104" lon="9.016890399544227"><ele>84.0</ele><time>2026-05-02T12:57:52Z</time></trkpt><trkpt lat="44.448805565694414" lon="9.017102675976288"><ele>84.0</ele><time>2026-05-02T12:57:53.001Z</time></trkpt><trkpt lat="44.44881084417708" lon="9.017319620396142"><ele>84.0</ele><time>2026-05-02T12:57:54.001Z</time></trkpt><trkpt lat="44.44879871492208" lon="9.017536799493728"><ele>84.0</ele><time>2026-05-02T12:57:55.001Z</time></trkpt><trkpt lat="44.4487979335867" lon="9.017751337875527"><ele>84.0</ele><time>2026-05-02T12:57:56.001Z</time></trkpt><trkpt lat="44.44881178940759" lon="9.017965027972453"><ele>84.0</ele><time>2026-05-02T12:57:57.001Z</time></trkpt><trkpt lat="44.44880684194926" lon="9.018187593675224"><ele>84.0</ele><time>2026-05-02T12:57:58.001Z</time></trkpt><trkpt lat="44.448795910177346" lon="9.018420467028799"><ele>84.0</ele><time>2026-05-02T12:57:59.001Z</time></trkpt><trkpt lat="44.448778678855554" lon="9.018672114120804"><ele>86.0</ele><time>2026-05-02T12:58:00.001Z</time></trkpt><trkpt lat="44.44875563960741" lon="9.018934271430489"><ele>88.0</ele><time>2026-05-02T12:58:01.001Z</time></trkpt><trkpt lat="44.44873189939324" lon="9.019193414316936"><ele>90.0</ele><time>2026-05-02T12:58:02.001Z</time></trkpt><trkpt lat="44.44870731896527" lon="9.019447439316126"><ele>93.0</ele><time>2026-05-02T12:58:03.001Z</time></trkpt><trkpt lat="44.44867761010554" lon="9.019704864085698"><ele>96.0</ele><time>2026-05-02T12:58:04.001Z</time></trkpt><trkpt lat="44.448644934574055" lon="9.019942660310521"><ele>99.0</ele><time>2026-05-02T12:58:05.001Z</time></trkpt><trkpt lat="44.44860910825542" lon="9.02017345669895"><ele>97.66666666666667</ele><time>2026-05-02T12:58:06.001Z</time></trkpt><trkpt lat="44.44855732436566" lon="9.020389692988351"><ele>96.33333333333334</ele><time>2026-05-02T12:58:07.001Z</time></trkpt><trkpt lat="44.44853927972466" lon="9.020610243857496"><ele>95.0</ele><time>2026-05-02T12:58:08.001Z</time></trkpt><trkpt lat="44.44849018141509" lon="9.020818334595608"><ele>95.0</ele><time>2026-05-02T12:58:09.001Z</time></trkpt><trkpt lat="44.4484612280031" lon="9.021037447119738"><ele>95.0</ele><time>2026-05-02T12:58:10.001Z</time></trkpt><trkpt lat="44.44843880802928" lon="9.02125333842298"><ele>95.0</ele><time>2026-05-02T12:58:11.001Z</time></trkpt><trkpt lat="44.44842426153841" lon="9.021459149489523"><ele>94.25</ele><time>2026-05-02T12:58:12.001Z</time></trkpt><trkpt lat="44.448414049876185" lon="9.021661236364336"><ele>93.5</ele><time>2026-05-02T12:58:13.001Z</time></trkpt><trkpt lat="44.448422697109365" lon="9.021862593778062"><ele>92.75</ele><time>2026-05-02T12:58:14.001Z</time></trkpt><trkpt lat="44.44841369975908" lon="9.022058084709654"><ele>92.0</ele><time>2026-05-02T12:58:15.001Z</time></trkpt><trkpt lat="44.448406882350625" lon="9.022253015032993"><ele>92.0</ele><time>2026-05-02T12:58:16.001Z</time></trkpt><trkpt lat="44.448400856121346" lon="9.022452650116584"><ele>92.0</ele><time>2026-05-02T12:58:17.001Z</time></trkpt><trkpt lat="44.4483968262475" lon="9.022654562398728"><ele>92.0</ele><time>2026-05-02T12:58:18.001Z</time></trkpt><trkpt lat="44.44839747909757" lon="9.022856604622486"><ele>92.0</ele><time>2026-05-02T12:58:19.001Z</time></trkpt><trkpt lat="44.44839872381897" lon="9.023060068546169"><ele>94.5</ele><time>2026-05-02T12:58:20.001Z</time></trkpt><trkpt lat="44.44840004422304" lon="9.023262617923743"><ele>97.0</ele><time>2026-05-02T12:58:21.001Z</time></trkpt><trkpt lat="44.44840192765229" lon="9.023469252758195"><ele>99.5</ele><time>2026-05-02T12:58:22.001Z</time></trkpt><trkpt lat="44.448405853560764" lon="9.023682119783725"><ele>102.0</ele><time>2026-05-02T12:58:23.001Z</time></trkpt><trkpt lat="44.4484154887548" lon="9.02391505277941"><ele>110.0</ele><time>2026-05-02T12:58:24.001Z</time></trkpt><trkpt lat="44.448431831812435" lon="9.024145258314002"><ele>118.0</ele><time>2026-05-02T12:58:25.001Z</time></trkpt><trkpt lat="44.44846013457727" lon="9.024372171144972"><ele>126.0</ele><time>2026-05-02T12:58:26.001Z</time></trkpt><trkpt lat="44.44850188421122" lon="9.02460666110165"><ele>135.33333333333334</ele><time>2026-05-02T12:58:27.078Z</time></trkpt><trkpt lat="44.44854594100396" lon="9.024813939687764"><ele>144.66666666666669</ele><time>2026-05-02T12:58:28.061Z</time></trkpt><trkpt lat="44.448595258591325" lon="9.025019298783116"><ele>154.0</ele><time>2026-05-02T12:58:29.065Z</time></trkpt><trkpt lat="44.4486338618007" lon="9.025235275475447"><ele>148.0</ele><time>2026-05-02T12:58:30.061Z</time></trkpt><trkpt lat="44.4489238721334" lon="9.026068114734217"><ele>148.0</ele><time>2026-05-02T12:58:34.261Z</time></trkpt><trkpt lat="44.44902339410697" lon="9.026240853352212"><ele>148.0</ele><time>2026-05-02T12:58:35.26Z</time></trkpt><trkpt lat="44.449101698068986" lon="9.026433914546582"><ele>148.0</ele><time>2026-05-02T12:58:36.26Z</time></trkpt><trkpt lat="44.44919682998509" lon="9.026610058463211"><ele>144.5</ele><time>2026-05-02T12:58:37.261Z</time></trkpt><trkpt lat="44.449464698885244" lon="9.027062298539663"><ele>141.0</ele><time>2026-05-02T12:58:38.001Z</time></trkpt><trkpt lat="44.44959820857053" lon="9.027241954873645"><ele>129.0</ele><time>2026-05-02T12:58:39.001Z</time></trkpt><trkpt lat="44.44983508683118" lon="9.027534433774381"><ele>117.0</ele><time>2026-05-02T12:58:40.001Z</time></trkpt><trkpt lat="44.4499905738527" lon="9.027667169058304"><ele>117.0</ele><time>2026-05-02T12:58:41.001Z</time></trkpt><trkpt lat="44.45015515652793" lon="9.027822300180416"><ele>117.0</ele><time>2026-05-02T12:58:42.001Z</time></trkpt><trkpt lat="44.45034183588401" lon="9.027936044399466"><ele>117.0</ele><time>2026-05-02T12:58:43.001Z</time></trkpt><trkpt lat="44.45047250960255" lon="9.02803926506377"><ele>116.75</ele><time>2026-05-02T12:58:44Z</time></trkpt><trkpt lat="44.450594357101764" lon="9.028161486218798"><ele>116.5</ele><time>2026-05-02T12:58:45Z</time></trkpt><trkpt lat="44.45070602547404" lon="9.028271455552256"><ele>116.25</ele><time>2026-05-02T12:58:46Z</time></trkpt><trkpt lat="44.45080370626985" lon="9.028387756626122"><ele>116.0</ele><time>2026-05-02T12:58:47Z</time></trkpt><trkpt lat="44.45085469060325" lon="9.02851981156609"><ele>116.0</ele><time>2026-05-02T12:58:48Z</time></trkpt><trkpt lat="44.45087899877433" lon="9.028725785189252"><ele>116.0</ele><time>2026-05-02T12:58:49Z</time></trkpt><trkpt lat="44.450852657679185" lon="9.028842386248272"><ele>116.0</ele><time>2026-05-02T12:58:50Z</time></trkpt><trkpt lat="44.45079984803775" lon="9.028985626967541"><ele>116.0</ele><time>2026-05-02T12:58:51Z</time></trkpt><trkpt lat="44.450728212025595" lon="9.029148612311566"><ele>113.66666666666666</ele><time>2026-05-02T12:58:52Z</time></trkpt><trkpt lat="44.450571676106534" lon="9.029359713165926"><ele>111.33333333333334</ele><time>2026-05-02T12:58:53Z</time></trkpt><trkpt lat="44.450423363439754" lon="9.029563237845672"><ele>109.0</ele><time>2026-05-02T12:58:54Z</time></trkpt><trkpt lat="44.450313532153466" lon="9.029752434405745"><ele>117.25</ele><time>2026-05-02T12:58:55Z</time></trkpt><trkpt lat="44.45022046145989" lon="9.02992477915953"><ele>125.5</ele><time>2026-05-02T12:58:56Z</time></trkpt><trkpt lat="44.45016096795948" lon="9.030078690974497"><ele>133.75</ele><time>2026-05-02T12:58:57Z</time></trkpt><trkpt lat="44.450147020658186" lon="9.030242036872028"><ele>142.0</ele><time>2026-05-02T12:58:58Z</time></trkpt><trkpt lat="44.4501293755228" lon="9.030437455482048"><ele>142.0</ele><time>2026-05-02T12:58:59Z</time></trkpt><trkpt lat="44.450133473456994" lon="9.030612156928528"><ele>142.0</ele><time>2026-05-02T12:59:00Z</time></trkpt><trkpt lat="44.45016603751071" lon="9.030800062121667"><ele>142.0</ele><time>2026-05-02T12:59:01Z</time></trkpt><trkpt lat="44.4502216362427" lon="9.030974724734532"><ele>142.0</ele><time>2026-05-02T12:59:02Z</time></trkpt><trkpt lat="44.45029350725825" lon="9.03114701635597"><ele>143.33333333333334</ele><time>2026-05-02T12:59:03Z</time></trkpt><trkpt lat="44.450390328053146" lon="9.03131348327352"><ele>144.66666666666666</ele><time>2026-05-02T12:59:04Z</time></trkpt><trkpt lat="44.45050944823785" lon="9.031453608508926"><ele>146.0</ele><time>2026-05-02T12:59:05Z</time></trkpt><trkpt lat="44.45064323399068" lon="9.031584720803622"><ele>138.33333333333331</ele><time>2026-05-02T12:59:06Z</time></trkpt><trkpt lat="44.45081702373134" lon="9.031720917638168"><ele>130.66666666666666</ele><time>2026-05-02T12:59:07Z</time></trkpt><trkpt lat="44.450987528958215" lon="9.03186165445205"><ele>123.0</ele><time>2026-05-02T12:59:08Z</time></trkpt><trkpt lat="44.451121712381074" lon="9.031971218743791"><ele>123.0</ele><time>2026-05-02T12:59:09Z</time></trkpt><trkpt lat="44.451229402331315" lon="9.032079325570834"><ele>123.0</ele><time>2026-05-02T12:59:10Z</time></trkpt><trkpt lat="44.45132726078393" lon="9.0321779692848"><ele>123.0</ele><time>2026-05-02T12:59:11Z</time></trkpt><trkpt lat="44.45139977470006" lon="9.032291149076514"><ele>123.0</ele><time>2026-05-02T12:59:12Z</time></trkpt><trkpt lat="44.45143922477292" lon="9.032449112134394"><ele>124.0</ele><time>2026-05-02T12:59:13Z</time></trkpt><trkpt lat="44.45142544784692" lon="9.032626850542515"><ele>125.0</ele><time>2026-05-02T12:59:14Z</time></trkpt><trkpt lat="44.451383304920476" lon="9.032773776178233"><ele>126.0</ele><time>2026-05-02T12:59:15Z</time></trkpt><trkpt lat="44.45130330528685" lon="9.032878613091189"><ele>127.0</ele><time>2026-05-02T12:59:16Z</time></trkpt><trkpt lat="44.451168592046315" lon="9.032888939566995"><ele>127.0</ele><time>2026-05-02T12:59:17Z</time></trkpt><trkpt lat="44.45103011608639" lon="9.03294405623546"><ele>127.0</ele><time>2026-05-02T12:59:18Z</time></trkpt><trkpt lat="44.450860433573325" lon="9.03302987728897"><ele>127.0</ele><time>2026-05-02T12:59:19Z</time></trkpt><trkpt lat="44.450696034171486" lon="9.03307396976604"><ele>127.0</ele><time>2026-05-02T12:59:20Z</time></trkpt><trkpt lat="44.450539047221085" lon="9.033140782657114"><ele>127.0</ele><time>2026-05-02T12:59:21Z</time></trkpt><trkpt lat="44.45037294473137" lon="9.033213193796543"><ele>127.0</ele><time>2026-05-02T12:59:22Z</time></trkpt><trkpt lat="44.450200466927285" lon="9.033303545169117"><ele>130.0</ele><time>2026-05-02T12:59:23Z</time></trkpt><trkpt lat="44.45003230054201" lon="9.033418824107768"><ele>133.0</ele><time>2026-05-02T12:59:24Z</time></trkpt><trkpt lat="44.44988358153368" lon="9.033549383383422"><ele>136.0</ele><time>2026-05-02T12:59:25Z</time></trkpt><trkpt lat="44.449765791773935" lon="9.033662977417597"><ele>136.0</ele><time>2026-05-02T12:59:26Z</time></trkpt><trkpt lat="44.44965922701099" lon="9.03377752385241"><ele>136.0</ele><time>2026-05-02T12:59:27Z</time></trkpt><trkpt lat="44.449558689550095" lon="9.033901498649449"><ele>136.0</ele><time>2026-05-02T12:59:28Z</time></trkpt><trkpt lat="44.449465302077165" lon="9.03401250916643"><ele>136.0</ele><time>2026-05-02T12:59:29Z</time></trkpt><trkpt lat="44.449380665499056" lon="9.034135780600181"><ele>143.0</ele><time>2026-05-02T12:59:30Z</time></trkpt><trkpt lat="44.44931111622406" lon="9.034298705517076"><ele>150.0</ele><time>2026-05-02T12:59:31Z</time></trkpt><trkpt lat="44.44924792213608" lon="9.03449811412874"><ele>157.0</ele><time>2026-05-02T12:59:32Z</time></trkpt><trkpt lat="44.44919557109481" lon="9.034692332590176"><ele>164.0</ele><time>2026-05-02T12:59:33Z</time></trkpt><trkpt lat="44.449147778580155" lon="9.034871911023615"><ele>158.75</ele><time>2026-05-02T12:59:34Z</time></trkpt><trkpt lat="44.449108543999756" lon="9.035052281248648"><ele>153.5</ele><time>2026-05-02T12:59:35Z</time></trkpt><trkpt lat="44.44908687596834" lon="9.035235751721665"><ele>148.25</ele><time>2026-05-02T12:59:36Z</time></trkpt><trkpt lat="44.44906878252108" lon="9.035407054436945"><ele>143.0</ele><time>2026-05-02T12:59:37Z</time></trkpt><trkpt lat="44.449051901172005" lon="9.035559499844178"><ele>143.0</ele><time>2026-05-02T12:59:38Z</time></trkpt><trkpt lat="44.44905046775495" lon="9.035702636403702"><ele>143.0</ele><time>2026-05-02T12:59:39Z</time></trkpt><trkpt lat="44.44903040866788" lon="9.035836551462054"><ele>143.0</ele><time>2026-05-02T12:59:40Z</time></trkpt><trkpt lat="44.44900738562986" lon="9.035970207150275"><ele>143.0</ele><time>2026-05-02T12:59:41Z</time></trkpt><trkpt lat="44.448964317033486" lon="9.0362354236225"><ele>143.20000000000002</ele><time>2026-05-02T12:59:43Z</time></trkpt><trkpt lat="44.448968487916936" lon="9.036372246452377"><ele>143.4</ele><time>2026-05-02T12:59:44Z</time></trkpt><trkpt lat="44.44900929653996" lon="9.03651607569422"><ele>143.60000000000002</ele><time>2026-05-02T12:59:45Z</time></trkpt><trkpt lat="44.4490734343448" lon="9.036656586765057"><ele>143.8</ele><time>2026-05-02T12:59:46Z</time></trkpt><trkpt lat="44.449141027749604" lon="9.036796667184008"><ele>144.0</ele><time>2026-05-02T12:59:47Z</time></trkpt><trkpt lat="44.449181321476225" lon="9.036942153887246"><ele>144.0</ele><time>2026-05-02T12:59:48.001Z</time></trkpt><trkpt lat="44.44919078771875" lon="9.037087373157437"><ele>144.0</ele><time>2026-05-02T12:59:49.001Z</time></trkpt><trkpt lat="44.449180928905484" lon="9.037231676952974"><ele>144.0</ele><time>2026-05-02T12:59:50.001Z</time></trkpt><trkpt lat="44.44910869900198" lon="9.037358873958947"><ele>144.0</ele><time>2026-05-02T12:59:51.001Z</time></trkpt><trkpt lat="44.449013177406634" lon="9.037446310546487"><ele>144.0</ele><time>2026-05-02T12:59:52.001Z</time></trkpt><trkpt lat="44.44889756528201" lon="9.037470529534682"><ele>154.5</ele><time>2026-05-02T12:59:53.001Z</time></trkpt><trkpt lat="44.44876048831133" lon="9.037449008832548"><ele>165.0</ele><time>2026-05-02T12:59:54.001Z</time></trkpt><trkpt lat="44.44860296934936" lon="9.037435581515028"><ele>175.5</ele><time>2026-05-02T12:59:55.001Z</time></trkpt><trkpt lat="44.448452966978095" lon="9.03743660913192"><ele>186.0</ele><time>2026-05-02T12:59:56.001Z</time></trkpt><trkpt lat="44.44830465989843" lon="9.0374475189887"><ele>184.0</ele><time>2026-05-02T12:59:57.001Z</time></trkpt><trkpt lat="44.44815789993046" lon="9.037502850961033"><ele>182.0</ele><time>2026-05-02T12:59:58.001Z</time></trkpt><trkpt lat="44.44802024020229" lon="9.037593241048128"><ele>180.0</ele><time>2026-05-02T12:59:59.001Z</time></trkpt><trkpt lat="44.447900993477184" lon="9.037650779579602"><ele>178.0</ele><time>2026-05-02T13:00:00.001Z</time></trkpt><trkpt lat="44.44779563552137" lon="9.037707458636737"><ele>178.0</ele><time>2026-05-02T13:00:01.001Z</time></trkpt><trkpt lat="44.44768888140602" lon="9.03776758575413"><ele>178.0</ele><time>2026-05-02T13:00:02.001Z</time></trkpt><trkpt lat="44.447576935869044" lon="9.037809137377439"><ele>178.0</ele><time>2026-05-02T13:00:03.001Z</time></trkpt><trkpt lat="44.44745538424701" lon="9.037833001480983"><ele>178.0</ele><time>2026-05-02T13:00:04.001Z</time></trkpt><trkpt lat="44.44732699714887" lon="9.037814111063916"><ele>178.0</ele><time>2026-05-02T13:00:05.001Z</time></trkpt><trkpt lat="44.447191744745886" lon="9.037775784374547"><ele>178.0</ele><time>2026-05-02T13:00:06.001Z</time></trkpt><trkpt lat="44.447056454856146" lon="9.03775084163832"><ele>178.0</ele><time>2026-05-02T13:00:07.001Z</time></trkpt><trkpt lat="44.44692270023882" lon="9.037774081521448"><ele>178.0</ele><time>2026-05-02T13:00:08.001Z</time></trkpt><trkpt lat="44.44680379612805" lon="9.037815962338325"><ele>182.5</ele><time>2026-05-02T13:00:09.001Z</time></trkpt><trkpt lat="44.446694387685596" lon="9.037857101153767"><ele>187.0</ele><time>2026-05-02T13:00:10.001Z</time></trkpt><trkpt lat="44.44658327822598" lon="9.037892921806074"><ele>191.5</ele><time>2026-05-02T13:00:11.001Z</time></trkpt><trkpt lat="44.446473550992124" lon="9.037936479162365"><ele>196.0</ele><time>2026-05-02T13:00:12.001Z</time></trkpt><trkpt lat="44.44635916296328" lon="9.037996315052771"><ele>190.25</ele><time>2026-05-02T13:00:13.001Z</time></trkpt><trkpt lat="44.44624554700866" lon="9.038093199757332"><ele>184.5</ele><time>2026-05-02T13:00:14.001Z</time></trkpt><trkpt lat="44.446134284545884" lon="9.038219001011104"><ele>178.75</ele><time>2026-05-02T13:00:15.001Z</time></trkpt><trkpt lat="44.44602103718491" lon="9.038358309308027"><ele>173.0</ele><time>2026-05-02T13:00:16.001Z</time></trkpt><trkpt lat="44.445889732764435" lon="9.038512464022984"><ele>173.0</ele><time>2026-05-02T13:00:17.001Z</time></trkpt><trkpt lat="44.44571846146493" lon="9.038688065524314"><ele>173.0</ele><time>2026-05-02T13:00:18.001Z</time></trkpt><trkpt lat="44.445552150299456" lon="9.038881817765509"><ele>173.0</ele><time>2026-05-02T13:00:19.001Z</time></trkpt><trkpt lat="44.44540564428978" lon="9.039051604336121"><ele>173.66666666666666</ele><time>2026-05-02T13:00:20.001Z</time></trkpt><trkpt lat="44.44528550489361" lon="9.039216038779339"><ele>174.33333333333334</ele><time>2026-05-02T13:00:21.001Z</time></trkpt><trkpt lat="44.44516724186728" lon="9.039350646752602"><ele>175.0</ele><time>2026-05-02T13:00:22.001Z</time></trkpt><trkpt lat="44.44504930630249" lon="9.03949540136023"><ele>175.0</ele><time>2026-05-02T13:00:23.001Z</time></trkpt><trkpt lat="44.4449326632381" lon="9.039630736224344"><ele>175.0</ele><time>2026-05-02T13:00:24.001Z</time></trkpt><trkpt lat="44.44480849087603" lon="9.039793023179703"><ele>175.0</ele><time>2026-05-02T13:00:25.001Z</time></trkpt><trkpt lat="44.44466954649705" lon="9.040002124958868"><ele>176.0</ele><time>2026-05-02T13:00:26.001Z</time></trkpt><trkpt lat="44.444500870777645" lon="9.040204191593233"><ele>177.0</ele><time>2026-05-02T13:00:27.001Z</time></trkpt><trkpt lat="44.44435507943212" lon="9.040399979963519"><ele>178.0</ele><time>2026-05-02T13:00:28.001Z</time></trkpt><trkpt lat="44.44422547665826" lon="9.040596090914324"><ele>178.0</ele><time>2026-05-02T13:00:29.001Z</time></trkpt><trkpt lat="44.4441023112459" lon="9.040785128256257"><ele>178.0</ele><time>2026-05-02T13:00:30.001Z</time></trkpt><trkpt lat="44.44400082853029" lon="9.040968056842633"><ele>178.0</ele><time>2026-05-02T13:00:31.001Z</time></trkpt><trkpt lat="44.44390852752212" lon="9.041124734176393"><ele>182.25</ele><time>2026-05-02T13:00:32.001Z</time></trkpt><trkpt lat="44.44382501971811" lon="9.041263201309002"><ele>186.5</ele><time>2026-05-02T13:00:33.001Z</time></trkpt><trkpt lat="44.44374693261127" lon="9.041383629821524"><ele>190.75</ele><time>2026-05-02T13:00:34.001Z</time></trkpt><trkpt lat="44.44367747842954" lon="9.041493751606465"><ele>195.0</ele><time>2026-05-02T13:00:35.001Z</time></trkpt><trkpt lat="44.443599864729606" lon="9.041600724084978"><ele>185.75</ele><time>2026-05-02T13:00:36.001Z</time></trkpt><trkpt lat="44.44350341971062" lon="9.041668297595963"><ele>176.5</ele><time>2026-05-02T13:00:37.001Z</time></trkpt><trkpt lat="44.44341316786317" lon="9.041721213038292"><ele>167.25</ele><time>2026-05-02T13:00:38.001Z</time></trkpt><trkpt lat="44.44331251796895" lon="9.041780732638049"><ele>158.0</ele><time>2026-05-02T13:00:39.001Z</time></trkpt><trkpt lat="44.443170014084224" lon="9.041764445266097"><ele>158.0</ele><time>2026-05-02T13:00:40.001Z</time></trkpt><trkpt lat="44.44298828982813" lon="9.041780829484797"><ele>158.0</ele><time>2026-05-02T13:00:41.001Z</time></trkpt><trkpt lat="44.44277152000023" lon="9.041826373849725"><ele>158.0</ele><time>2026-05-02T13:00:42.001Z</time></trkpt><trkpt lat="44.442566324506494" lon="9.041881375716176"><ele>163.0</ele><time>2026-05-02T13:00:43.001Z</time></trkpt><trkpt lat="44.44238963503537" lon="9.041893074258859"><ele>168.0</ele><time>2026-05-02T13:00:44.001Z</time></trkpt><trkpt lat="44.44223295917736" lon="9.04191890747139"><ele>173.0</ele><time>2026-05-02T13:00:45.001Z</time></trkpt><trkpt lat="44.44209266531082" lon="9.041967055635904"><ele>179.5</ele><time>2026-05-02T13:00:46.001Z</time></trkpt><trkpt lat="44.44197041144553" lon="9.042029111821439"><ele>186.0</ele><time>2026-05-02T13:00:47.001Z</time></trkpt><trkpt lat="44.441874123011836" lon="9.042119165132174"><ele>192.5</ele><time>2026-05-02T13:00:48.001Z</time></trkpt><trkpt lat="44.44179646805268" lon="9.042245932959721"><ele>199.0</ele><time>2026-05-02T13:00:49.001Z</time></trkpt><trkpt lat="44.44174305746459" lon="9.04242263200026"><ele>188.66666666666666</ele><time>2026-05-02T13:00:50.001Z</time></trkpt><trkpt lat="44.441708581789996" lon="9.04263072434834"><ele>178.33333333333331</ele><time>2026-05-02T13:00:51.001Z</time></trkpt><trkpt lat="44.44167160375677" lon="9.042867240851859"><ele>168.0</ele><time>2026-05-02T13:00:52.001Z</time></trkpt><trkpt lat="44.44162628859621" lon="9.04309690165589"><ele>166.33333333333334</ele><time>2026-05-02T13:00:53.001Z</time></trkpt><trkpt lat="44.44157434578448" lon="9.043316727316009"><ele>164.66666666666669</ele><time>2026-05-02T13:00:54.001Z</time></trkpt><trkpt lat="44.44152715507468" lon="9.043536189121383"><ele>163.0</ele><time>2026-05-02T13:00:55.001Z</time></trkpt><trkpt lat="44.44148307570804" lon="9.043759991541107"><ele>163.0</ele><time>2026-05-02T13:00:56.001Z</time></trkpt><trkpt lat="44.4414275898882" lon="9.043975493576983"><ele>163.0</ele><time>2026-05-02T13:00:57.001Z</time></trkpt><trkpt lat="44.44134676702444" lon="9.044179678280928"><ele>163.0</ele><time>2026-05-02T13:00:58.001Z</time></trkpt><trkpt lat="44.441245262998464" lon="9.04438897959678"><ele>170.66666666666669</ele><time>2026-05-02T13:00:59.001Z</time></trkpt><trkpt lat="44.441153572008524" lon="9.044615189984412"><ele>178.33333333333334</ele><time>2026-05-02T13:01:00.001Z</time></trkpt><trkpt lat="44.441095632417294" lon="9.044873513713881"><ele>186.0</ele><time>2026-05-02T13:01:01.001Z</time></trkpt><trkpt lat="44.441054254595564" lon="9.04516351004779"><ele>186.0</ele><time>2026-05-02T13:01:02.001Z</time></trkpt><trkpt lat="44.441012259732666" lon="9.045484353592686"><ele>186.0</ele><time>2026-05-02T13:01:03.001Z</time></trkpt><trkpt lat="44.44096462539269" lon="9.045839079562521"><ele>181.5</ele><time>2026-05-02T13:01:04.001Z</time></trkpt><trkpt lat="44.44090912622812" lon="9.04622342414876"><ele>177.0</ele><time>2026-05-02T13:01:05.001Z</time></trkpt><trkpt lat="44.440856594999424" lon="9.046553138909417"><ele>173.33333333333334</ele><time>2026-05-02T13:01:06.001Z</time></trkpt><trkpt lat="44.44081620868514" lon="9.046818471319932"><ele>169.66666666666669</ele><time>2026-05-02T13:01:07.001Z</time></trkpt><trkpt lat="44.440779390877104" lon="9.047066213973938"><ele>166.0</ele><time>2026-05-02T13:01:08.001Z</time></trkpt><trkpt lat="44.44074389411436" lon="9.047308762810776"><ele>163.66666666666669</ele><time>2026-05-02T13:01:09.001Z</time></trkpt><trkpt lat="44.44071045979239" lon="9.0475496242032"><ele>161.33333333333334</ele><time>2026-05-02T13:01:10.001Z</time></trkpt><trkpt lat="44.44067114346153" lon="9.047784048890929"><ele>159.0</ele><time>2026-05-02T13:01:11.001Z</time></trkpt><trkpt lat="44.44060175845542" lon="9.04802334382654"><ele>159.0</ele><time>2026-05-02T13:01:12.001Z</time></trkpt><trkpt lat="44.44051967041127" lon="9.048232309913885"><ele>159.0</ele><time>2026-05-02T13:01:13.001Z</time></trkpt><trkpt lat="44.44045533025037" lon="9.04841568147074"><ele>159.0</ele><time>2026-05-02T13:01:14.001Z</time></trkpt><trkpt lat="44.440422269713615" lon="9.048612107354241"><ele>161.33333333333334</ele><time>2026-05-02T13:01:15.001Z</time></trkpt><trkpt lat="44.44042469018578" lon="9.048828753142795"><ele>163.66666666666669</ele><time>2026-05-02T13:01:16.001Z</time></trkpt><trkpt lat="44.440465927336625" lon="9.049055115140215"><ele>166.0</ele><time>2026-05-02T13:01:17.001Z</time></trkpt><trkpt lat="44.4405484158887" lon="9.049295387853293"><ele>166.0</ele><time>2026-05-02T13:01:18.001Z</time></trkpt><trkpt lat="44.44065699756427" lon="9.049559628422573"><ele>166.0</ele><time>2026-05-02T13:01:19.001Z</time></trkpt><trkpt lat="44.440756159463795" lon="9.049826902023334"><ele>166.0</ele><time>2026-05-02T13:01:20.001Z</time></trkpt><trkpt lat="44.4408369716311" lon="9.050074351010364"><ele>167.33333333333334</ele><time>2026-05-02T13:01:21.001Z</time></trkpt><trkpt lat="44.440924777712034" lon="9.050300518981018"><ele>168.66666666666666</ele><time>2026-05-02T13:01:22.001Z</time></trkpt><trkpt lat="44.4410486248363" lon="9.050525535879075"><ele>170.0</ele><time>2026-05-02T13:01:23.001Z</time></trkpt><trkpt lat="44.44120554872351" lon="9.050760868781577"><ele>171.66666666666666</ele><time>2026-05-02T13:01:24.001Z</time></trkpt><trkpt lat="44.44135373014373" lon="9.050974915517601"><ele>173.33333333333334</ele><time>2026-05-02T13:01:25.001Z</time></trkpt><trkpt lat="44.441476572848735" lon="9.051160705600223"><ele>175.0</ele><time>2026-05-02T13:01:26.001Z</time></trkpt><trkpt lat="44.441568183228064" lon="9.051340000089063"><ele>175.0</ele><time>2026-05-02T13:01:27.001Z</time></trkpt><trkpt lat="44.441653594136795" lon="9.051492999582996"><ele>175.0</ele><time>2026-05-02T13:01:28.001Z</time></trkpt><trkpt lat="44.441706128985786" lon="9.051632668680947"><ele>175.0</ele><time>2026-05-02T13:01:29.001Z</time></trkpt><trkpt lat="44.4417127734934" lon="9.051784804123065"><ele>175.0</ele><time>2026-05-02T13:01:30.001Z</time></trkpt><trkpt lat="44.441689617690415" lon="9.051974582602826"><ele>175.75</ele><time>2026-05-02T13:01:31.001Z</time></trkpt><trkpt lat="44.44166514125739" lon="9.052204439661873"><ele>176.5</ele><time>2026-05-02T13:01:32.001Z</time></trkpt><trkpt lat="44.44163619636305" lon="9.052377536029525"><ele>177.25</ele><time>2026-05-02T13:01:33.001Z</time></trkpt><trkpt lat="44.44165121999758" lon="9.052533945127413"><ele>178.0</ele><time>2026-05-02T13:01:34.001Z</time></trkpt><trkpt lat="44.44170699226308" lon="9.052679803295797"><ele>184.33333333333334</ele><time>2026-05-02T13:01:35.001Z</time></trkpt><trkpt lat="44.441802327852116" lon="9.05282791350948"><ele>190.66666666666669</ele><time>2026-05-02T13:01:36.001Z</time></trkpt><trkpt lat="44.44193334891918" lon="9.052982715805932"><ele>197.0</ele><time>2026-05-02T13:01:37.001Z</time></trkpt><trkpt lat="44.44209019077104" lon="9.053138591276955"><ele>192.66666666666669</ele><time>2026-05-02T13:01:38.001Z</time></trkpt><trkpt lat="44.44225624920976" lon="9.053301672332594"><ele>188.33333333333334</ele><time>2026-05-02T13:01:39.001Z</time></trkpt><trkpt lat="44.44242626880522" lon="9.053460709891771"><ele>184.0</ele><time>2026-05-02T13:01:40.001Z</time></trkpt><trkpt lat="44.44261605102831" lon="9.053588933223352"><ele>184.0</ele><time>2026-05-02T13:01:41.001Z</time></trkpt><trkpt lat="44.442806629034315" lon="9.0536888235153"><ele>184.0</ele><time>2026-05-02T13:01:42.001Z</time></trkpt><trkpt lat="44.442966420969896" lon="9.053760489094337"><ele>184.0</ele><time>2026-05-02T13:01:43.001Z</time></trkpt><trkpt lat="44.443095268028415" lon="9.053826572593414"><ele>183.75</ele><time>2026-05-02T13:01:44.001Z</time></trkpt><trkpt lat="44.443179432533505" lon="9.053941311776303"><ele>183.5</ele><time>2026-05-02T13:01:45.001Z</time></trkpt><trkpt lat="44.44323780005336" lon="9.054070521427736"><ele>183.25</ele><time>2026-05-02T13:01:46.001Z</time></trkpt><trkpt lat="44.4432763769457" lon="9.054230703779794"><ele>183.0</ele><time>2026-05-02T13:01:47.001Z</time></trkpt><trkpt lat="44.44325711833398" lon="9.054410665117654"><ele>185.33333333333334</ele><time>2026-05-02T13:01:48.001Z</time></trkpt><trkpt lat="44.44318606754175" lon="9.054603884711858"><ele>187.66666666666669</ele><time>2026-05-02T13:01:49.001Z</time></trkpt><trkpt lat="44.44308216952492" lon="9.054853144636455"><ele>190.0</ele><time>2026-05-02T13:01:50.001Z</time></trkpt><trkpt lat="44.44300387066081" lon="9.055105146139814"><ele>207.33333333333334</ele><time>2026-05-02T13:01:51.001Z</time></trkpt><trkpt lat="44.4429289831359" lon="9.055385787258832"><ele>224.66666666666669</ele><time>2026-05-02T13:01:52.001Z</time></trkpt><trkpt lat="44.442854364640056" lon="9.055624739398672"><ele>242.0</ele><time>2026-05-02T13:01:53.001Z</time></trkpt><trkpt lat="44.44279493186164" lon="9.055823202569183"><ele>243.66666666666669</ele><time>2026-05-02T13:01:54.001Z</time></trkpt><trkpt lat="44.442754594001066" lon="9.056026308937948"><ele>245.33333333333331</ele><time>2026-05-02T13:01:55.001Z</time></trkpt><trkpt lat="44.442727546200565" lon="9.056268999170324"><ele>247.0</ele><time>2026-05-02T13:01:56.001Z</time></trkpt><trkpt lat="44.44271041989683" lon="9.056527654065551"><ele>247.0</ele><time>2026-05-02T13:01:57.001Z</time></trkpt><trkpt lat="44.44269648613132" lon="9.05676019823445"><ele>247.0</ele><time>2026-05-02T13:01:58.001Z</time></trkpt><trkpt lat="44.44269826334267" lon="9.056975199170727"><ele>247.0</ele><time>2026-05-02T13:01:59.001Z</time></trkpt><trkpt lat="44.44271164069063" lon="9.057188041121188"><ele>247.0</ele><time>2026-05-02T13:02:00.001Z</time></trkpt><trkpt lat="44.44270768156932" lon="9.057402300069842"><ele>247.0</ele><time>2026-05-02T13:02:01.001Z</time></trkpt><trkpt lat="44.44270190526559" lon="9.057611653871078"><ele>247.0</ele><time>2026-05-02T13:02:02.001Z</time></trkpt><trkpt lat="44.44267266957316" lon="9.057807472038816"><ele>247.0</ele><time>2026-05-02T13:02:03.001Z</time></trkpt><trkpt lat="44.44259242867336" lon="9.057994646245703"><ele>242.33333333333331</ele><time>2026-05-02T13:02:04.001Z</time></trkpt><trkpt lat="44.44251085058214" lon="9.058192688181181"><ele>237.66666666666669</ele><time>2026-05-02T13:02:05.001Z</time></trkpt><trkpt lat="44.442426474078545" lon="9.058402493756237"><ele>233.0</ele><time>2026-05-02T13:02:06.001Z</time></trkpt><trkpt lat="44.44233623316258" lon="9.058621680881133"><ele>228.33333333333334</ele><time>2026-05-02T13:02:07.001Z</time></trkpt><trkpt lat="44.442268807174344" lon="9.058859172237744"><ele>223.66666666666669</ele><time>2026-05-02T13:02:08.001Z</time></trkpt><trkpt lat="44.4422222396376" lon="9.059107241684007"><ele>219.0</ele><time>2026-05-02T13:02:09.001Z</time></trkpt><trkpt lat="44.44220947314346" lon="9.059336545150238"><ele>218.5</ele><time>2026-05-02T13:02:10.001Z</time></trkpt><trkpt lat="44.44216845770102" lon="9.059542920427958"><ele>218.0</ele><time>2026-05-02T13:02:11.001Z</time></trkpt><trkpt lat="44.44214881208752" lon="9.059750031001656"><ele>217.5</ele><time>2026-05-02T13:02:12.001Z</time></trkpt><trkpt lat="44.4421490582126" lon="9.05995506365353"><ele>217.0</ele><time>2026-05-02T13:02:13.001Z</time></trkpt><trkpt lat="44.44218820305331" lon="9.060185706684189"><ele>218.0</ele><time>2026-05-02T13:02:14.001Z</time></trkpt><trkpt lat="44.44222174145237" lon="9.060393514858358"><ele>219.0</ele><time>2026-05-02T13:02:15.001Z</time></trkpt><trkpt lat="44.44225165698681" lon="9.060575550859259"><ele>220.0</ele><time>2026-05-02T13:02:16.001Z</time></trkpt><trkpt lat="44.4422793347096" lon="9.06074250992657"><ele>221.0</ele><time>2026-05-02T13:02:17.001Z</time></trkpt><trkpt lat="44.44230267220622" lon="9.060902413597672"><ele>221.8</ele><time>2026-05-02T13:02:18.001Z</time></trkpt><trkpt lat="44.442319335546344" lon="9.06105466911784"><ele>222.60000000000002</ele><time>2026-05-02T13:02:19.001Z</time></trkpt><trkpt lat="44.442320199675045" lon="9.061199914400945"><ele>223.4</ele><time>2026-05-02T13:02:20.001Z</time></trkpt><trkpt lat="44.442309704306155" lon="9.061347868564647"><ele>224.2</ele><time>2026-05-02T13:02:21.001Z</time></trkpt><trkpt lat="44.44230074456373" lon="9.06150948829826"><ele>225.0</ele><time>2026-05-02T13:02:22.001Z</time></trkpt><trkpt lat="44.44226741046875" lon="9.061674434436995"><ele>225.5</ele><time>2026-05-02T13:02:23.001Z</time></trkpt><trkpt lat="44.44223479299302" lon="9.061835674215311"><ele>226.0</ele><time>2026-05-02T13:02:24.001Z</time></trkpt><trkpt lat="44.442204496532106" lon="9.061995949648118"><ele>226.5</ele><time>2026-05-02T13:02:25.001Z</time></trkpt><trkpt lat="44.44217115692924" lon="9.062157832571641"><ele>227.0</ele><time>2026-05-02T13:02:26.001Z</time></trkpt><trkpt lat="44.44217142472508" lon="9.062346542637616"><ele>227.5</ele><time>2026-05-02T13:02:27.001Z</time></trkpt><trkpt lat="44.44218954753607" lon="9.062538355318615"><ele>228.0</ele><time>2026-05-02T13:02:28.001Z</time></trkpt><trkpt lat="44.44223178502178" lon="9.062729617543098"><ele>228.5</ele><time>2026-05-02T13:02:29.001Z</time></trkpt><trkpt lat="44.442269157636545" lon="9.062917287272763"><ele>229.0</ele><time>2026-05-02T13:02:30.001Z</time></trkpt><trkpt lat="44.44230009329319" lon="9.063095956723316"><ele>229.0</ele><time>2026-05-02T13:02:31.001Z</time></trkpt><trkpt lat="44.44232951327021" lon="9.0632723052631"><ele>229.0</ele><time>2026-05-02T13:02:32.001Z</time></trkpt><trkpt lat="44.44236076255099" lon="9.063448986918603"><ele>229.0</ele><time>2026-05-02T13:02:33.001Z</time></trkpt><trkpt lat="44.44239003463703" lon="9.063630296649956"><ele>229.0</ele><time>2026-05-02T13:02:34.001Z</time></trkpt><trkpt lat="44.442419943463634" lon="9.063818311985639"><ele>231.25</ele><time>2026-05-02T13:02:35.001Z</time></trkpt><trkpt lat="44.44244717580251" lon="9.063995776806047"><ele>233.5</ele><time>2026-05-02T13:02:36.001Z</time></trkpt><trkpt lat="44.44245917355336" lon="9.06415452258336"><ele>235.75</ele><time>2026-05-02T13:02:37.001Z</time></trkpt><trkpt lat="44.44243367464322" lon="9.064306046519382"><ele>238.0</ele><time>2026-05-02T13:02:38.001Z</time></trkpt><trkpt lat="44.44237451214725" lon="9.064430074910517"><ele>239.25</ele><time>2026-05-02T13:02:39.001Z</time></trkpt><trkpt lat="44.442279591692284" lon="9.064505852825821"><ele>240.5</ele><time>2026-05-02T13:02:40.001Z</time></trkpt><trkpt lat="44.44217898710963" lon="9.064599860400198"><ele>241.75</ele><time>2026-05-02T13:02:41.001Z</time></trkpt><trkpt lat="44.442083011813736" lon="9.064687624696651"><ele>243.0</ele><time>2026-05-02T13:02:42.001Z</time></trkpt><trkpt lat="44.442005220325036" lon="9.064790861680901"><ele>251.5</ele><time>2026-05-02T13:02:43.001Z</time></trkpt><trkpt lat="44.44194303864649" lon="9.06490444030004"><ele>260.0</ele><time>2026-05-02T13:02:44.001Z</time></trkpt><trkpt lat="44.441911263304014" lon="9.065046631426158"><ele>268.5</ele><time>2026-05-02T13:02:45.001Z</time></trkpt><trkpt lat="44.44190824328024" lon="9.065210248052518"><ele>277.0</ele><time>2026-05-02T13:02:46.001Z</time></trkpt><trkpt lat="44.441932411676724" lon="9.065381453988063"><ele>277.0</ele><time>2026-05-02T13:02:47.001Z</time></trkpt><trkpt lat="44.44196592282401" lon="9.065540550689073"><ele>277.0</ele><time>2026-05-02T13:02:48.001Z</time></trkpt><trkpt lat="44.44200069244699" lon="9.065697506822273"><ele>277.0</ele><time>2026-05-02T13:02:49.001Z</time></trkpt><trkpt lat="44.44203671842536" lon="9.065848264790292"><ele>277.0</ele><time>2026-05-02T13:02:50.001Z</time></trkpt><trkpt lat="44.442072050308994" lon="9.06599775847836"><ele>276.75</ele><time>2026-05-02T13:02:51.001Z</time></trkpt><trkpt lat="44.44210544219192" lon="9.066144324230569"><ele>276.5</ele><time>2026-05-02T13:02:52.001Z</time></trkpt><trkpt lat="44.442130446470095" lon="9.066299582637363"><ele>276.25</ele><time>2026-05-02T13:02:53.001Z</time></trkpt><trkpt lat="44.442122243053376" lon="9.066464527940697"><ele>276.0</ele><time>2026-05-02T13:02:54.001Z</time></trkpt><trkpt lat="44.44208066316977" lon="9.066626072844226"><ele>276.0</ele><time>2026-05-02T13:02:55.001Z</time></trkpt><trkpt lat="44.442017806246234" lon="9.066766605782014"><ele>276.0</ele><time>2026-05-02T13:02:56.001Z</time></trkpt><trkpt lat="44.44193959566813" lon="9.06690394751323"><ele>276.0</ele><time>2026-05-02T13:02:57.001Z</time></trkpt><trkpt lat="44.44184337298987" lon="9.067028769854788"><ele>276.0</ele><time>2026-05-02T13:02:58.001Z</time></trkpt><trkpt lat="44.44174377216796" lon="9.067146876188586"><ele>276.0</ele><time>2026-05-02T13:02:59.001Z</time></trkpt><trkpt lat="44.44164630431022" lon="9.067267874627882"><ele>276.0</ele><time>2026-05-02T13:03:00.001Z</time></trkpt><trkpt lat="44.44154664743482" lon="9.06739616838865"><ele>276.0</ele><time>2026-05-02T13:03:01.001Z</time></trkpt><trkpt lat="44.44144647014565" lon="9.06752989505433"><ele>276.0</ele><time>2026-05-02T13:03:02.001Z</time></trkpt><trkpt lat="44.44135730070987" lon="9.067662469071417"><ele>283.75</ele><time>2026-05-02T13:03:03.001Z</time></trkpt><trkpt lat="44.44127677520752" lon="9.067811167317114"><ele>291.5</ele><time>2026-05-02T13:03:04.001Z</time></trkpt><trkpt lat="44.441206304024654" lon="9.067969755495309"><ele>299.25</ele><time>2026-05-02T13:03:05.001Z</time></trkpt><trkpt lat="44.441141871936324" lon="9.068120226229485"><ele>307.0</ele><time>2026-05-02T13:03:06.001Z</time></trkpt><trkpt lat="44.44108700560439" lon="9.068259553426914"><ele>304.0</ele><time>2026-05-02T13:03:07.001Z</time></trkpt><trkpt lat="44.44105775867301" lon="9.06841028572324"><ele>301.0</ele><time>2026-05-02T13:03:08.001Z</time></trkpt><trkpt lat="44.44103205950037" lon="9.068582193817264"><ele>298.0</ele><time>2026-05-02T13:03:09.001Z</time></trkpt><trkpt lat="44.44105292776915" lon="9.068758289249216"><ele>295.0</ele><time>2026-05-02T13:03:10.001Z</time></trkpt><trkpt lat="44.44109767222994" lon="9.068909797877382"><ele>295.0</ele><time>2026-05-02T13:03:11.001Z</time></trkpt><trkpt lat="44.44112767517152" lon="9.069061527739263"><ele>295.0</ele><time>2026-05-02T13:03:12.001Z</time></trkpt><trkpt lat="44.44115890879594" lon="9.069213174873262"><ele>295.0</ele><time>2026-05-02T13:03:13.001Z</time></trkpt><trkpt lat="44.441173818706716" lon="9.069368374937364"><ele>295.0</ele><time>2026-05-02T13:03:14.001Z</time></trkpt><trkpt lat="44.44115383245287" lon="9.069532316282139"><ele>295.25</ele><time>2026-05-02T13:03:15.001Z</time></trkpt><trkpt lat="44.44110035597155" lon="9.069693742300439"><ele>295.5</ele><time>2026-05-02T13:03:16.001Z</time></trkpt><trkpt lat="44.44103188005597" lon="9.069845288813374"><ele>295.75</ele><time>2026-05-02T13:03:17.001Z</time></trkpt><trkpt lat="44.44095017189863" lon="9.069991744477843"><ele>296.0</ele><time>2026-05-02T13:03:18.001Z</time></trkpt><trkpt lat="44.440863529374674" lon="9.070103191090654"><ele>294.40000000000003</ele><time>2026-05-02T13:03:19.001Z</time></trkpt><trkpt lat="44.44078661023877" lon="9.070185922914913"><ele>292.8</ele><time>2026-05-02T13:03:20.001Z</time></trkpt><trkpt lat="44.440708261974265" lon="9.07028130891258"><ele>291.20000000000005</ele><time>2026-05-02T13:03:21.001Z</time></trkpt><trkpt lat="44.44065025721577" lon="9.070401915056904"><ele>289.6</ele><time>2026-05-02T13:03:22.001Z</time></trkpt><trkpt lat="44.44061724184022" lon="9.07054638675196"><ele>288.0</ele><time>2026-05-02T13:03:23.001Z</time></trkpt><trkpt lat="44.44059345132319" lon="9.070716971610372"><ele>286.0</ele><time>2026-05-02T13:03:24.001Z</time></trkpt><trkpt lat="44.44063027787532" lon="9.070900063366455"><ele>284.0</ele><time>2026-05-02T13:03:25.001Z</time></trkpt><trkpt lat="44.440663023623195" lon="9.071095194056591"><ele>282.0</ele><time>2026-05-02T13:03:26.001Z</time></trkpt><trkpt lat="44.44067698786629" lon="9.07126873438337"><ele>280.0</ele><time>2026-05-02T13:03:27.001Z</time></trkpt><trkpt lat="44.440705187542086" lon="9.071437152069075"><ele>280.0</ele><time>2026-05-02T13:03:28.001Z</time></trkpt><trkpt lat="44.44073167492435" lon="9.071595343098156"><ele>280.0</ele><time>2026-05-02T13:03:29.001Z</time></trkpt><trkpt lat="44.44077135918553" lon="9.071735597042586"><ele>280.0</ele><time>2026-05-02T13:03:30.001Z</time></trkpt><trkpt lat="44.44079399614192" lon="9.071868916743062"><ele>280.0</ele><time>2026-05-02T13:03:31.001Z</time></trkpt><trkpt lat="44.44079497983619" lon="9.072007550471808"><ele>280.0</ele><time>2026-05-02T13:03:32.001Z</time></trkpt><trkpt lat="44.440795552208" lon="9.072145371626949"><ele>279.6</ele><time>2026-05-02T13:03:33.001Z</time></trkpt><trkpt lat="44.440767358322724" lon="9.072274037726283"><ele>279.2</ele><time>2026-05-02T13:03:34.001Z</time></trkpt><trkpt lat="44.440733118824184" lon="9.072404114504225"><ele>278.8</ele><time>2026-05-02T13:03:35.001Z</time></trkpt><trkpt lat="44.440654191630216" lon="9.072508151998155"><ele>278.4</ele><time>2026-05-02T13:03:36.001Z</time></trkpt><trkpt lat="44.440563561911425" lon="9.072617460621995"><ele>278.0</ele><time>2026-05-02T13:03:37.001Z</time></trkpt><trkpt lat="44.44047887579375" lon="9.072739899463516"><ele>287.0</ele><time>2026-05-02T13:03:38.001Z</time></trkpt><trkpt lat="44.44037913376295" lon="9.07285010145535"><ele>296.0</ele><time>2026-05-02T13:03:39.001Z</time></trkpt><trkpt lat="44.44029297513377" lon="9.072970333375201"><ele>305.0</ele><time>2026-05-02T13:03:40.001Z</time></trkpt><trkpt lat="44.44021388459961" lon="9.073123808940302"><ele>314.0</ele><time>2026-05-02T13:03:41.001Z</time></trkpt><trkpt lat="44.44014672490755" lon="9.073293573203307"><ele>314.0</ele><time>2026-05-02T13:03:42.001Z</time></trkpt><trkpt lat="44.440097791657436" lon="9.073491184385352"><ele>314.0</ele><time>2026-05-02T13:03:43.001Z</time></trkpt><trkpt lat="44.44006863126112" lon="9.073670799468829"><ele>314.0</ele><time>2026-05-02T13:03:44.001Z</time></trkpt><trkpt lat="44.44003409924393" lon="9.07382134873672"><ele>314.0</ele><time>2026-05-02T13:03:45.001Z</time></trkpt><trkpt lat="44.43999670969018" lon="9.073965055650657"><ele>310.75</ele><time>2026-05-02T13:03:46.001Z</time></trkpt><trkpt lat="44.43995818201772" lon="9.074114281588079"><ele>307.5</ele><time>2026-05-02T13:03:47.001Z</time></trkpt><trkpt lat="44.43991759109084" lon="9.074272382273193"><ele>304.25</ele><time>2026-05-02T13:03:48.001Z</time></trkpt><trkpt lat="44.43987858968474" lon="9.07443593366812"><ele>301.0</ele><time>2026-05-02T13:03:49.001Z</time></trkpt><trkpt lat="44.43986939680771" lon="9.074614999154623"><ele>301.0</ele><time>2026-05-02T13:03:50.001Z</time></trkpt><trkpt lat="44.4398927356521" lon="9.074809369887934"><ele>301.0</ele><time>2026-05-02T13:03:51.001Z</time></trkpt><trkpt lat="44.43994625574374" lon="9.075003638720565"><ele>301.0</ele><time>2026-05-02T13:03:52.001Z</time></trkpt><trkpt lat="44.44000400281336" lon="9.075170850044685"><ele>301.0</ele><time>2026-05-02T13:03:53.001Z</time></trkpt><trkpt lat="44.44005790180218" lon="9.075316350646567"><ele>300.75</ele><time>2026-05-02T13:03:54.001Z</time></trkpt><trkpt lat="44.44006502787507" lon="9.075478568190574"><ele>300.5</ele><time>2026-05-02T13:03:55.001Z</time></trkpt><trkpt lat="44.44005887800413" lon="9.075647383926766"><ele>300.25</ele><time>2026-05-02T13:03:56.001Z</time></trkpt><trkpt lat="44.440030069922535" lon="9.075830072307172"><ele>300.0</ele><time>2026-05-02T13:03:57.001Z</time></trkpt><trkpt lat="44.43997489744748" lon="9.076004478858865"><ele>299.0</ele><time>2026-05-02T13:03:58.001Z</time></trkpt><trkpt lat="44.439897345862455" lon="9.076150198363353"><ele>298.0</ele><time>2026-05-02T13:03:59.001Z</time></trkpt><trkpt lat="44.43979968076369" lon="9.07628861706388"><ele>297.0</ele><time>2026-05-02T13:04:00.001Z</time></trkpt><trkpt lat="44.439677287196844" lon="9.076393276054013"><ele>296.0</ele><time>2026-05-02T13:04:01.001Z</time></trkpt><trkpt lat="44.43954124015121" lon="9.076478921342026"><ele>303.25</ele><time>2026-05-02T13:04:02.001Z</time></trkpt><trkpt lat="44.43941595936494" lon="9.076575571918541"><ele>310.5</ele><time>2026-05-02T13:04:03.001Z</time></trkpt><trkpt lat="44.43929208455424" lon="9.076643765920744"><ele>317.75</ele><time>2026-05-02T13:04:04.001Z</time></trkpt><trkpt lat="44.43917236791807" lon="9.0767243978246"><ele>325.0</ele><time>2026-05-02T13:04:05.001Z</time></trkpt><trkpt lat="44.4390694147878" lon="9.076827469004654"><ele>325.0</ele><time>2026-05-02T13:04:06.001Z</time></trkpt><trkpt lat="44.438984720588664" lon="9.076978525696067"><ele>325.0</ele><time>2026-05-02T13:04:07.001Z</time></trkpt><trkpt lat="44.43889471667638" lon="9.077188161986477"><ele>325.0</ele><time>2026-05-02T13:04:08.001Z</time></trkpt><trkpt lat="44.43879948096116" lon="9.077412428691444"><ele>327.75</ele><time>2026-05-02T13:04:09.001Z</time></trkpt><trkpt lat="44.43870468176596" lon="9.077622914750298"><ele>330.5</ele><time>2026-05-02T13:04:10.001Z</time></trkpt><trkpt lat="44.43861619783277" lon="9.07778969695455"><ele>333.25</ele><time>2026-05-02T13:04:11.001Z</time></trkpt><trkpt lat="44.438538561366535" lon="9.077922144944694"><ele>336.0</ele><time>2026-05-02T13:04:12.001Z</time></trkpt><trkpt lat="44.4384665961126" lon="9.07807792942103"><ele>336.0</ele><time>2026-05-02T13:04:13.001Z</time></trkpt><trkpt lat="44.43839126778013" lon="9.078219854886072"><ele>336.0</ele><time>2026-05-02T13:04:14.001Z</time></trkpt><trkpt lat="44.43831654639045" lon="9.078362148152001"><ele>336.0</ele><time>2026-05-02T13:04:15.001Z</time></trkpt><trkpt lat="44.43825383343561" lon="9.078517129571797"><ele>336.0</ele><time>2026-05-02T13:04:16.001Z</time></trkpt><trkpt lat="44.43821424184725" lon="9.078675414829483"><ele>331.0</ele><time>2026-05-02T13:04:17.001Z</time></trkpt><trkpt lat="44.43819028034452" lon="9.078850223051685"><ele>326.0</ele><time>2026-05-02T13:04:18.001Z</time></trkpt><trkpt lat="44.43819427984471" lon="9.079015166106826"><ele>321.0</ele><time>2026-05-02T13:04:19.001Z</time></trkpt><trkpt lat="44.438205152553344" lon="9.079193349384424"><ele>316.0</ele><time>2026-05-02T13:04:20.001Z</time></trkpt><trkpt lat="44.438222829683575" lon="9.079363178897221"><ele>313.75</ele><time>2026-05-02T13:04:21.001Z</time></trkpt><trkpt lat="44.438235034327406" lon="9.079525003183539"><ele>311.5</ele><time>2026-05-02T13:04:22.001Z</time></trkpt><trkpt lat="44.43824094308272" lon="9.07969896675146"><ele>309.25</ele><time>2026-05-02T13:04:23.001Z</time></trkpt><trkpt lat="44.438246510109366" lon="9.079878540566927"><ele>307.0</ele><time>2026-05-02T13:04:24.001Z</time></trkpt><trkpt lat="44.4382806825593" lon="9.08007457039755"><ele>306.75</ele><time>2026-05-02T13:04:25.001Z</time></trkpt><trkpt lat="44.43833373890596" lon="9.080276391795369"><ele>306.5</ele><time>2026-05-02T13:04:26.001Z</time></trkpt><trkpt lat="44.43840430107972" lon="9.080461553773377"><ele>306.25</ele><time>2026-05-02T13:04:27.001Z</time></trkpt><trkpt lat="44.43847523099903" lon="9.080628589121954"><ele>306.0</ele><time>2026-05-02T13:04:28.001Z</time></trkpt><trkpt lat="44.43854284194354" lon="9.080798322448768"><ele>304.75</ele><time>2026-05-02T13:04:29.001Z</time></trkpt><trkpt lat="44.438609597102264" lon="9.080960169741836"><ele>303.5</ele><time>2026-05-02T13:04:30.001Z</time></trkpt><trkpt lat="44.43867441957225" lon="9.081124576682166"><ele>302.25</ele><time>2026-05-02T13:04:31.001Z</time></trkpt><trkpt lat="44.43874403645935" lon="9.081297818089377"><ele>301.0</ele><time>2026-05-02T13:04:32.001Z</time></trkpt><trkpt lat="44.438818939401756" lon="9.08147720349243"><ele>302.75</ele><time>2026-05-02T13:04:33.001Z</time></trkpt><trkpt lat="44.43889162052216" lon="9.081653157812973"><ele>304.5</ele><time>2026-05-02T13:04:34.001Z</time></trkpt><trkpt lat="44.43895951762578" lon="9.081817451345763"><ele>306.25</ele><time>2026-05-02T13:04:35.001Z</time></trkpt><trkpt lat="44.439022756083574" lon="9.081976210546438"><ele>308.0</ele><time>2026-05-02T13:04:36.001Z</time></trkpt><trkpt lat="44.43908603063668" lon="9.082129755710625"><ele>308.0</ele><time>2026-05-02T13:04:37.001Z</time></trkpt><trkpt lat="44.439163423399506" lon="9.082262545022742"><ele>308.0</ele><time>2026-05-02T13:04:38.001Z</time></trkpt><trkpt lat="44.43924604792175" lon="9.082369876354278"><ele>308.0</ele><time>2026-05-02T13:04:39.001Z</time></trkpt><trkpt lat="44.43933737079112" lon="9.082478561971332"><ele>308.0</ele><time>2026-05-02T13:04:40.001Z</time></trkpt><trkpt lat="44.439434116012364" lon="9.08259286208881"><ele>310.33333333333337</ele><time>2026-05-02T13:04:41.001Z</time></trkpt><trkpt lat="44.43954164432421" lon="9.082708197305871"><ele>312.6666666666667</ele><time>2026-05-02T13:04:42.001Z</time></trkpt><trkpt lat="44.43966180380027" lon="9.08284612649589"><ele>315.0</ele><time>2026-05-02T13:04:43.001Z</time></trkpt><trkpt lat="44.43979678961296" lon="9.082991730848798"><ele>315.0</ele><time>2026-05-02T13:04:44.001Z</time></trkpt><trkpt lat="44.439922095260144" lon="9.083126050320299"><ele>315.0</ele><time>2026-05-02T13:04:45.001Z</time></trkpt><trkpt lat="44.44004249517694" lon="9.083245019238545"><ele>315.0</ele><time>2026-05-02T13:04:46.001Z</time></trkpt><trkpt lat="44.440153449173295" lon="9.08336298225262"><ele>315.0</ele><time>2026-05-02T13:04:47.001Z</time></trkpt><trkpt lat="44.44024369717833" lon="9.08350810976073"><ele>317.25</ele><time>2026-05-02T13:04:48.001Z</time></trkpt><trkpt lat="44.44033720221896" lon="9.083662257355433"><ele>319.5</ele><time>2026-05-02T13:04:49.001Z</time></trkpt><trkpt lat="44.44042898564097" lon="9.083826505654304"><ele>321.75</ele><time>2026-05-02T13:04:50.001Z</time></trkpt><trkpt lat="44.440507935709434" lon="9.084006862402576"><ele>324.0</ele><time>2026-05-02T13:04:51.001Z</time></trkpt><trkpt lat="44.44057599908336" lon="9.0842044999926"><ele>324.0</ele><time>2026-05-02T13:04:52.001Z</time></trkpt><trkpt lat="44.44064678637158" lon="9.084454308474436"><ele>324.0</ele><time>2026-05-02T13:04:53.001Z</time></trkpt><trkpt lat="44.44072473100576" lon="9.08474847304445"><ele>324.0</ele><time>2026-05-02T13:04:54.001Z</time></trkpt><trkpt lat="44.44082156457461" lon="9.085086586218742"><ele>326.3333333333333</ele><time>2026-05-02T13:04:55.001Z</time></trkpt><trkpt lat="44.44091311501359" lon="9.08535924503979"><ele>328.66666666666663</ele><time>2026-05-02T13:04:56.001Z</time></trkpt><trkpt lat="44.4409751411983" lon="9.085599335369373"><ele>331.0</ele><time>2026-05-02T13:04:57.001Z</time></trkpt><trkpt lat="44.44104737009281" lon="9.085810836061261"><ele>330.3333333333333</ele><time>2026-05-02T13:04:58.001Z</time></trkpt><trkpt lat="44.44114735996609" lon="9.086014537388982"><ele>329.6666666666667</ele><time>2026-05-02T13:04:59.001Z</time></trkpt><trkpt lat="44.44129032401584" lon="9.086228516096252"><ele>329.0</ele><time>2026-05-02T13:05:00.001Z</time></trkpt><trkpt lat="44.441450881151624" lon="9.086446993284392"><ele>335.33333333333337</ele><time>2026-05-02T13:05:01.002Z</time></trkpt><trkpt lat="44.4415956313217" lon="9.086615445281025"><ele>341.6666666666667</ele><time>2026-05-02T13:05:02.002Z</time></trkpt><trkpt lat="44.44171190279479" lon="9.08678219746336"><ele>348.0</ele><time>2026-05-02T13:05:03.002Z</time></trkpt><trkpt lat="44.441771442534794" lon="9.08699758819226"><ele>348.0</ele><time>2026-05-02T13:05:04.002Z</time></trkpt><trkpt lat="44.44182242759146" lon="9.087251691820972"><ele>348.0</ele><time>2026-05-02T13:05:05.002Z</time></trkpt><trkpt lat="44.441875020931505" lon="9.08756091852619"><ele>348.0</ele><time>2026-05-02T13:05:06.002Z</time></trkpt><trkpt lat="44.44193183217703" lon="9.087894413047024"><ele>352.6666666666667</ele><time>2026-05-02T13:05:07.002Z</time></trkpt><trkpt lat="44.44199212566062" lon="9.088177823243058"><ele>357.33333333333337</ele><time>2026-05-02T13:05:08.002Z</time></trkpt><trkpt lat="44.44204003942531" lon="9.088446713555998"><ele>362.0</ele><time>2026-05-02T13:05:09.002Z</time></trkpt><trkpt lat="44.44211232113459" lon="9.088701511601261"><ele>354.6666666666667</ele><time>2026-05-02T13:05:10.002Z</time></trkpt><trkpt lat="44.44222522347734" lon="9.088955006167787"><ele>347.3333333333333</ele><time>2026-05-02T13:05:11.002Z</time></trkpt><trkpt lat="44.442346332991804" lon="9.08917830610682"><ele>340.0</ele><time>2026-05-02T13:05:12.002Z</time></trkpt><trkpt lat="44.44244483759257" lon="9.089367491272547"><ele>340.0</ele><time>2026-05-02T13:05:13.002Z</time></trkpt><trkpt lat="44.442473346160625" lon="9.08954856469535"><ele>340.0</ele><time>2026-05-02T13:05:14.002Z</time></trkpt><trkpt lat="44.44248531636948" lon="9.089719753923243"><ele>340.0</ele><time>2026-05-02T13:05:15.001Z</time></trkpt><trkpt lat="44.442455722696174" lon="9.089900300895193"><ele>340.0</ele><time>2026-05-02T13:05:16.001Z</time></trkpt><trkpt lat="44.44240954567024" lon="9.09011933069975"><ele>342.0</ele><time>2026-05-02T13:05:17.001Z</time></trkpt><trkpt lat="44.44235861636473" lon="9.090354934075194"><ele>344.0</ele><time>2026-05-02T13:05:18.001Z</time></trkpt><trkpt lat="44.44233776190955" lon="9.090553148646702"><ele>346.0</ele><time>2026-05-02T13:05:19.001Z</time></trkpt><trkpt lat="44.44230026995395" lon="9.090731657484667"><ele>346.5</ele><time>2026-05-02T13:05:20.001Z</time></trkpt><trkpt lat="44.442364748340566" lon="9.090928060905213"><ele>347.0</ele><time>2026-05-02T13:05:21.001Z</time></trkpt><trkpt lat="44.442434774902196" lon="9.091120172434747"><ele>347.5</ele><time>2026-05-02T13:05:22.001Z</time></trkpt><trkpt lat="44.44248525777747" lon="9.091261015542669"><ele>348.0</ele><time>2026-05-02T13:05:23.001Z</time></trkpt><trkpt lat="44.442491360708246" lon="9.09137981079801"><ele>348.0</ele><time>2026-05-02T13:05:24.001Z</time></trkpt><trkpt lat="44.44247280767699" lon="9.091475477526433"><ele>348.0</ele><time>2026-05-02T13:05:25.001Z</time></trkpt><trkpt lat="44.44242681175109" lon="9.091616247682168"><ele>348.0</ele><time>2026-05-02T13:05:27.001Z</time></trkpt><trkpt lat="44.442419429497" lon="9.091705980576652"><ele>348.0</ele><time>2026-05-02T13:05:29.001Z</time></trkpt><trkpt lat="44.44240423195982" lon="9.091793531823324"><ele>348.0</ele><time>2026-05-02T13:05:44.001Z</time></trkpt><trkpt lat="44.442504969665826" lon="9.091838562863863"><ele>348.0</ele><time>2026-05-02T13:05:45.001Z</time></trkpt><trkpt lat="44.44260542280618" lon="9.091838332726564"><ele>348.0</ele><time>2026-05-02T13:05:47.001Z</time></trkpt><trkpt lat="44.44267578668125" lon="9.091812623813242"><ele>348.0</ele><time>2026-05-02T13:05:48.001Z</time></trkpt><trkpt lat="44.442750096154924" lon="9.091758119259572"><ele>348.0</ele><time>2026-05-02T13:05:49.001Z</time></trkpt><trkpt lat="44.442814422440726" lon="9.09167443076896"><ele>348.0</ele><time>2026-05-02T13:05:50.001Z</time></trkpt><trkpt lat="44.44286996968249" lon="9.091561455033643"><ele>348.0</ele><time>2026-05-02T13:05:51.001Z</time></trkpt><trkpt lat="44.44298251090055" lon="9.091484155438724"><ele>347.75</ele><time>2026-05-02T13:05:52.001Z</time></trkpt><trkpt lat="44.44310794739878" lon="9.09140642906025"><ele>347.5</ele><time>2026-05-02T13:05:53.001Z</time></trkpt><trkpt lat="44.443238697542164" lon="9.091342424525713"><ele>347.25</ele><time>2026-05-02T13:05:54.001Z</time></trkpt><trkpt lat="44.44335913613555" lon="9.091251033933315"><ele>347.0</ele><time>2026-05-02T13:05:55.001Z</time></trkpt><trkpt lat="44.44345217198162" lon="9.091104758568212"><ele>347.0</ele><time>2026-05-02T13:05:56.001Z</time></trkpt><trkpt lat="44.44352411085118" lon="9.090915576954863"><ele>347.0</ele><time>2026-05-02T13:05:57.001Z</time></trkpt><trkpt lat="44.443586747073915" lon="9.090704982346802"><ele>347.0</ele><time>2026-05-02T13:05:58.001Z</time></trkpt><trkpt lat="44.44365875721345" lon="9.090499588677444"><ele>343.25</ele><time>2026-05-02T13:05:59.001Z</time></trkpt><trkpt lat="44.4437353328071" lon="9.09032904715351"><ele>339.5</ele><time>2026-05-02T13:06:00.001Z</time></trkpt><trkpt lat="44.44380388015945" lon="9.090185115716356"><ele>335.75</ele><time>2026-05-02T13:06:01.001Z</time></trkpt><trkpt lat="44.44386619860959" lon="9.090037061890872"><ele>332.0</ele><time>2026-05-02T13:06:02.001Z</time></trkpt><trkpt lat="44.443918704891374" lon="9.089883223309617"><ele>339.5</ele><time>2026-05-02T13:06:03.001Z</time></trkpt><trkpt lat="44.443941082317934" lon="9.089705857928612"><ele>347.0</ele><time>2026-05-02T13:06:04.001Z</time></trkpt><trkpt lat="44.443947052699855" lon="9.089517675730269"><ele>354.5</ele><time>2026-05-02T13:06:05.001Z</time></trkpt><trkpt lat="44.443957471662586" lon="9.089358244332379"><ele>362.0</ele><time>2026-05-02T13:06:06.001Z</time></trkpt><trkpt lat="44.443994899489624" lon="9.089213468768795"><ele>358.25</ele><time>2026-05-02T13:06:07.001Z</time></trkpt><trkpt lat="44.44406772512243" lon="9.08907172788113"><ele>354.5</ele><time>2026-05-02T13:06:08.001Z</time></trkpt><trkpt lat="44.44418364462115" lon="9.088943858795819"><ele>350.75</ele><time>2026-05-02T13:06:09.001Z</time></trkpt><trkpt lat="44.44428295153179" lon="9.088781678527747"><ele>347.0</ele><time>2026-05-02T13:06:10.001Z</time></trkpt><trkpt lat="44.44437560638752" lon="9.08866275925087"><ele>347.0</ele><time>2026-05-02T13:06:11.001Z</time></trkpt><trkpt lat="44.444452753285525" lon="9.08857418218254"><ele>347.0</ele><time>2026-05-02T13:06:12.001Z</time></trkpt><trkpt lat="44.444533787713915" lon="9.088502312096134"><ele>347.0</ele><time>2026-05-02T13:06:13.001Z</time></trkpt><trkpt lat="44.444623375970295" lon="9.088466389060502"><ele>347.0</ele><time>2026-05-02T13:06:14.001Z</time></trkpt><trkpt lat="44.44471449108743" lon="9.088473822386508"><ele>347.0</ele><time>2026-05-02T13:06:15.001Z</time></trkpt><trkpt lat="44.44480568520992" lon="9.08850756509347"><ele>350.0</ele><time>2026-05-02T13:06:16.001Z</time></trkpt><trkpt lat="44.44488826441422" lon="9.088595731709"><ele>353.0</ele><time>2026-05-02T13:06:17.001Z</time></trkpt><trkpt lat="44.44496845611018" lon="9.088680828850551"><ele>356.0</ele><time>2026-05-02T13:06:18.001Z</time></trkpt><trkpt lat="44.44505016786432" lon="9.088760677614136"><ele>359.0</ele><time>2026-05-02T13:06:19.001Z</time></trkpt><trkpt lat="44.445138467106986" lon="9.088841510517529"><ele>362.0</ele><time>2026-05-02T13:06:20.001Z</time></trkpt><trkpt lat="44.44523478718405" lon="9.088919489974247"><ele>362.0</ele><time>2026-05-02T13:06:21.001Z</time></trkpt><trkpt lat="44.445317149906714" lon="9.088983381910516"><ele>362.0</ele><time>2026-05-02T13:06:22.001Z</time></trkpt><trkpt lat="44.44539558516242" lon="9.089030234267526"><ele>362.0</ele><time>2026-05-02T13:06:23.001Z</time></trkpt><trkpt lat="44.445475046408546" lon="9.089062693600868"><ele>362.0</ele><time>2026-05-02T13:06:24.001Z</time></trkpt><trkpt lat="44.44556181648241" lon="9.08908477944318"><ele>362.0</ele><time>2026-05-02T13:06:25.001Z</time></trkpt><trkpt lat="44.445664007146924" lon="9.089094820994237"><ele>362.25</ele><time>2026-05-02T13:06:26.001Z</time></trkpt><trkpt lat="44.44578149447459" lon="9.089078661006804"><ele>362.5</ele><time>2026-05-02T13:06:27.001Z</time></trkpt><trkpt lat="44.44591196217251" lon="9.089016722799741"><ele>362.75</ele><time>2026-05-02T13:06:28.001Z</time></trkpt><trkpt lat="44.44604164082735" lon="9.088924008662744"><ele>363.0</ele><time>2026-05-02T13:06:29.001Z</time></trkpt><trkpt lat="44.446150945255766" lon="9.088826364469162"><ele>363.0</ele><time>2026-05-02T13:06:30.001Z</time></trkpt><trkpt lat="44.44626936986858" lon="9.088729064393045"><ele>363.0</ele><time>2026-05-02T13:06:31.001Z</time></trkpt><trkpt lat="44.44639669296945" lon="9.088630769984977"><ele>363.0</ele><time>2026-05-02T13:06:32.001Z</time></trkpt><trkpt lat="44.44652639410708" lon="9.088529921557676"><ele>363.0</ele><time>2026-05-02T13:06:33.001Z</time></trkpt><trkpt lat="44.4466480907661" lon="9.088433029739072"><ele>360.3333333333333</ele><time>2026-05-02T13:06:34.001Z</time></trkpt><trkpt lat="44.44677341842954" lon="9.088328718942911"><ele>357.66666666666663</ele><time>2026-05-02T13:06:35.001Z</time></trkpt><trkpt lat="44.44690378622681" lon="9.08821171602939"><ele>355.0</ele><time>2026-05-02T13:06:36.001Z</time></trkpt><trkpt lat="44.447026743657204" lon="9.088076054069314"><ele>355.0</ele><time>2026-05-02T13:06:37.001Z</time></trkpt><trkpt lat="44.447121695764636" lon="9.087947796254166"><ele>355.0</ele><time>2026-05-02T13:06:38.001Z</time></trkpt><trkpt lat="44.44721203034247" lon="9.087828688177748"><ele>355.0</ele><time>2026-05-02T13:06:39.001Z</time></trkpt><trkpt lat="44.44730217093374" lon="9.087724472458746"><ele>355.0</ele><time>2026-05-02T13:06:40.001Z</time></trkpt><trkpt lat="44.44739842086338" lon="9.087613487425575"><ele>357.25</ele><time>2026-05-02T13:06:41.001Z</time></trkpt><trkpt lat="44.44749760346545" lon="9.087487885502927"><ele>359.5</ele><time>2026-05-02T13:06:42.001Z</time></trkpt><trkpt lat="44.44759663386589" lon="9.087363980489148"><ele>361.75</ele><time>2026-05-02T13:06:43.001Z</time></trkpt><trkpt lat="44.447692808603286" lon="9.087250716572587"><ele>364.0</ele><time>2026-05-02T13:06:44.001Z</time></trkpt><trkpt lat="44.44779283260995" lon="9.087154320031168"><ele>364.0</ele><time>2026-05-02T13:06:45.001Z</time></trkpt><trkpt lat="44.44790844079378" lon="9.087120780531027"><ele>364.0</ele><time>2026-05-02T13:06:46.001Z</time></trkpt><trkpt lat="44.448001068581824" lon="9.087058812186719"><ele>364.0</ele><time>2026-05-02T13:06:47.001Z</time></trkpt><trkpt lat="44.44808664451179" lon="9.087029537420637"><ele>364.0</ele><time>2026-05-02T13:06:48.001Z</time></trkpt><trkpt lat="44.4481611634854" lon="9.086992358457117"><ele>364.0</ele><time>2026-05-02T13:06:49.001Z</time></trkpt><trkpt lat="44.44824825279689" lon="9.08694878492733"><ele>370.75</ele><time>2026-05-02T13:06:50.001Z</time></trkpt><trkpt lat="44.44835018853674" lon="9.086901094073744"><ele>377.5</ele><time>2026-05-02T13:06:51.001Z</time></trkpt><trkpt lat="44.44845935970923" lon="9.086855734554572"><ele>384.25</ele><time>2026-05-02T13:06:52.001Z</time></trkpt><trkpt lat="44.448573227703186" lon="9.086814518121024"><ele>391.0</ele><time>2026-05-02T13:06:53.001Z</time></trkpt><trkpt lat="44.44869339687764" lon="9.086776738337106"><ele>393.0</ele><time>2026-05-02T13:06:54.001Z</time></trkpt><trkpt lat="44.44882329921935" lon="9.08675071022278"><ele>395.0</ele><time>2026-05-02T13:06:55.001Z</time></trkpt><trkpt lat="44.44895546159816" lon="9.086743851092287"><ele>397.0</ele><time>2026-05-02T13:06:56.001Z</time></trkpt><trkpt lat="44.44908612908477" lon="9.086771603401179"><ele>399.0</ele><time>2026-05-02T13:06:57.001Z</time></trkpt><trkpt lat="44.44918877229143" lon="9.086843598566999"><ele>399.0</ele><time>2026-05-02T13:06:58.001Z</time></trkpt><trkpt lat="44.44929961030795" lon="9.086881141973178"><ele>399.0</ele><time>2026-05-02T13:06:59.001Z</time></trkpt><trkpt lat="44.44940201710264" lon="9.086934615459962"><ele>399.0</ele><time>2026-05-02T13:07:00.001Z</time></trkpt><trkpt lat="44.44951531555528" lon="9.08697053935369"><ele>399.0</ele><time>2026-05-02T13:07:01.001Z</time></trkpt><trkpt lat="44.44963039292799" lon="9.086988660551748"><ele>399.5</ele><time>2026-05-02T13:07:02.001Z</time></trkpt><trkpt lat="44.44975008370786" lon="9.086986888401942"><ele>400.0</ele><time>2026-05-02T13:07:03.001Z</time></trkpt><trkpt lat="44.44984645699174" lon="9.086978987282905"><ele>400.5</ele><time>2026-05-02T13:07:04.001Z</time></trkpt><trkpt lat="44.44991966357731" lon="9.086978745853248"><ele>401.0</ele><time>2026-05-02T13:07:05.001Z</time></trkpt><trkpt lat="44.44998332183786" lon="9.08698069379832"><ele>401.5</ele><time>2026-05-02T13:07:06.001Z</time></trkpt><trkpt lat="44.450060927190044" lon="9.086982781344583"><ele>402.0</ele><time>2026-05-02T13:07:08.001Z</time></trkpt><trkpt lat="44.450172048917935" lon="9.08696304279827"><ele>402.0</ele><time>2026-05-02T13:07:38.001Z</time></trkpt><trkpt lat="44.450237442998635" lon="9.086939769879969"><ele>402.0</ele><time>2026-05-02T13:07:39.001Z</time></trkpt><trkpt lat="44.45030482161363" lon="9.086930930921913"><ele>402.0</ele><time>2026-05-02T13:07:40.001Z</time></trkpt><trkpt lat="44.45036998441065" lon="9.086861015895982"><ele>402.0</ele><time>2026-05-02T13:07:41.001Z</time></trkpt><trkpt lat="44.45043349988266" lon="9.086798870456272"><ele>402.0</ele><time>2026-05-02T13:07:42.001Z</time></trkpt><trkpt lat="44.45048849101624" lon="9.086742770431256"><ele>402.0</ele><time>2026-05-02T13:07:43.001Z</time></trkpt><trkpt lat="44.4505629571909" lon="9.086734081561653"><ele>402.0</ele><time>2026-05-02T13:07:44.001Z</time></trkpt><trkpt lat="44.45065087565077" lon="9.086728597380443"><ele>404.5</ele><time>2026-05-02T13:07:45.001Z</time></trkpt><trkpt lat="44.45075104470501" lon="9.086765274816369"><ele>407.0</ele><time>2026-05-02T13:07:46.001Z</time></trkpt><trkpt lat="44.45086184963613" lon="9.08679627731861"><ele>409.5</ele><time>2026-05-02T13:07:47.001Z</time></trkpt><trkpt lat="44.45097890557965" lon="9.08678840602641"><ele>412.0</ele><time>2026-05-02T13:07:48.001Z</time></trkpt><trkpt lat="44.451108861759586" lon="9.086754915745203"><ele>412.0</ele><time>2026-05-02T13:07:49.001Z</time></trkpt><trkpt lat="44.45124134057169" lon="9.08671269208559"><ele>412.0</ele><time>2026-05-02T13:07:50.001Z</time></trkpt><trkpt lat="44.451362372002706" lon="9.086659343136107"><ele>412.0</ele><time>2026-05-02T13:07:51.001Z</time></trkpt><trkpt lat="44.45146911164925" lon="9.086590393289127"><ele>412.0</ele><time>2026-05-02T13:07:52.001Z</time></trkpt><trkpt lat="44.451564635336254" lon="9.086538195802074"><ele>411.25</ele><time>2026-05-02T13:07:53.001Z</time></trkpt><trkpt lat="44.451662237652414" lon="9.086546603404294"><ele>410.5</ele><time>2026-05-02T13:07:54.001Z</time></trkpt><trkpt lat="44.45176258004931" lon="9.08661731363612"><ele>409.75</ele><time>2026-05-02T13:07:55.001Z</time></trkpt><trkpt lat="44.451873613132165" lon="9.086730664105438"><ele>409.0</ele><time>2026-05-02T13:07:56.001Z</time></trkpt><trkpt lat="44.451998059122324" lon="9.086832235135109"><ele>411.5</ele><time>2026-05-02T13:07:57.001Z</time></trkpt><trkpt lat="44.4521072301598" lon="9.086900860516993"><ele>414.0</ele><time>2026-05-02T13:07:58.001Z</time></trkpt><trkpt lat="44.452223222228376" lon="9.086920185782532"><ele>416.5</ele><time>2026-05-02T13:07:59.001Z</time></trkpt><trkpt lat="44.45234873803565" lon="9.086887129871712"><ele>419.0</ele><time>2026-05-02T13:08:00.001Z</time></trkpt><trkpt lat="44.45248459697964" lon="9.086803805188133"><ele>420.5</ele><time>2026-05-02T13:08:01.001Z</time></trkpt><trkpt lat="44.452622136267024" lon="9.086687233755683"><ele>422.0</ele><time>2026-05-02T13:08:02.001Z</time></trkpt><trkpt lat="44.45273264115535" lon="9.086599457034005"><ele>423.5</ele><time>2026-05-02T13:08:03.001Z</time></trkpt><trkpt lat="44.45284725258848" lon="9.086551927322962"><ele>425.0</ele><time>2026-05-02T13:08:04.001Z</time></trkpt><trkpt lat="44.45297997701578" lon="9.086563097823355"><ele>427.0</ele><time>2026-05-02T13:08:05.001Z</time></trkpt><trkpt lat="44.45309889757476" lon="9.086638811957528"><ele>429.0</ele><time>2026-05-02T13:08:06.001Z</time></trkpt><trkpt lat="44.453220282425235" lon="9.086756615990682"><ele>431.0</ele><time>2026-05-02T13:08:07.001Z</time></trkpt><trkpt lat="44.45334273561821" lon="9.086881164347856"><ele>433.0</ele><time>2026-05-02T13:08:08.001Z</time></trkpt><trkpt lat="44.45346643327965" lon="9.086976463166014"><ele>433.0</ele><time>2026-05-02T13:08:09.001Z</time></trkpt><trkpt lat="44.453591693602434" lon="9.087005921503302"><ele>433.0</ele><time>2026-05-02T13:08:10.001Z</time></trkpt><trkpt lat="44.453723756845534" lon="9.086988276102222"><ele>433.0</ele><time>2026-05-02T13:08:11.001Z</time></trkpt><trkpt lat="44.45384716955999" lon="9.086957405782549"><ele>433.0</ele><time>2026-05-02T13:08:12.001Z</time></trkpt><trkpt lat="44.45395922013081" lon="9.086828275407674"><ele>434.2</ele><time>2026-05-02T13:08:13.001Z</time></trkpt><trkpt lat="44.454068003020446" lon="9.086702931956735"><ele>435.4</ele><time>2026-05-02T13:08:14.001Z</time></trkpt><trkpt lat="44.454164174121516" lon="9.086608949878036"><ele>436.59999999999997</ele><time>2026-05-02T13:08:15.001Z</time></trkpt><trkpt lat="44.45424947803307" lon="9.086554810140498"><ele>437.79999999999995</ele><time>2026-05-02T13:08:16.001Z</time></trkpt><trkpt lat="44.454329242838725" lon="9.086538985368149"><ele>439.0</ele><time>2026-05-02T13:08:17.001Z</time></trkpt><trkpt lat="44.45443472224946" lon="9.086524692446908"><ele>433.0</ele><time>2026-05-02T13:08:18.001Z</time></trkpt><trkpt lat="44.454549861496965" lon="9.086549726090782"><ele>427.0</ele><time>2026-05-02T13:08:19.001Z</time></trkpt><trkpt lat="44.45468200620823" lon="9.086539565862969"><ele>421.0</ele><time>2026-05-02T13:08:20.001Z</time></trkpt><trkpt lat="44.45481282398805" lon="9.086565070029756"><ele>415.0</ele><time>2026-05-02T13:08:21.001Z</time></trkpt><trkpt lat="44.45494670001899" lon="9.08658891682672"><ele>425.0</ele><time>2026-05-02T13:08:22.001Z</time></trkpt><trkpt lat="44.455092232328035" lon="9.086602572395455"><ele>435.0</ele><time>2026-05-02T13:08:23.001Z</time></trkpt><trkpt lat="44.45524495646444" lon="9.086608465315233"><ele>445.0</ele><time>2026-05-02T13:08:24.001Z</time></trkpt><trkpt lat="44.4554016723625" lon="9.086616494624396"><ele>447.25</ele><time>2026-05-02T13:08:25.001Z</time></trkpt><trkpt lat="44.455550369188224" lon="9.086627335601626"><ele>449.5</ele><time>2026-05-02T13:08:26.001Z</time></trkpt><trkpt lat="44.45569722829192" lon="9.086639915415127"><ele>451.75</ele><time>2026-05-02T13:08:27.001Z</time></trkpt><trkpt lat="44.45583956156519" lon="9.086650911106082"><ele>454.0</ele><time>2026-05-02T13:08:28.001Z</time></trkpt><trkpt lat="44.45598072527169" lon="9.086662277348042"><ele>454.0</ele><time>2026-05-02T13:08:29.001Z</time></trkpt><trkpt lat="44.45612120900626" lon="9.086673036624939"><ele>454.0</ele><time>2026-05-02T13:08:30.001Z</time></trkpt><trkpt lat="44.45625807868763" lon="9.086689002643205"><ele>454.0</ele><time>2026-05-02T13:08:31.001Z</time></trkpt><trkpt lat="44.456390529287134" lon="9.086723592433804"><ele>454.0</ele><time>2026-05-02T13:08:32.001Z</time></trkpt><trkpt lat="44.45651561025809" lon="9.086800574728317"><ele>451.0</ele><time>2026-05-02T13:08:33.001Z</time></trkpt><trkpt lat="44.45664174312087" lon="9.086922514962087"><ele>448.0</ele><time>2026-05-02T13:08:34.001Z</time></trkpt><trkpt lat="44.45675760096798" lon="9.087071491382643"><ele>445.0</ele><time>2026-05-02T13:08:35.001Z</time></trkpt><trkpt lat="44.45684288631758" lon="9.087232365482954"><ele>445.0</ele><time>2026-05-02T13:08:36.001Z</time></trkpt><trkpt lat="44.45691904698575" lon="9.087418070265896"><ele>445.0</ele><time>2026-05-02T13:08:37.001Z</time></trkpt><trkpt lat="44.456993642792014" lon="9.087596888392502"><ele>445.0</ele><time>2026-05-02T13:08:38.001Z</time></trkpt><trkpt lat="44.457082512437445" lon="9.087753702724358"><ele>445.0</ele><time>2026-05-02T13:08:39.001Z</time></trkpt><trkpt lat="44.457190299748724" lon="9.08788502300405"><ele>446.5</ele><time>2026-05-02T13:08:40.001Z</time></trkpt><trkpt lat="44.457314400513496" lon="9.087985302628816"><ele>448.0</ele><time>2026-05-02T13:08:41.001Z</time></trkpt><trkpt lat="44.45745020499377" lon="9.088059556408094"><ele>449.5</ele><time>2026-05-02T13:08:42.001Z</time></trkpt><trkpt lat="44.4575947584644" lon="9.088122668933595"><ele>451.0</ele><time>2026-05-02T13:08:43.001Z</time></trkpt><trkpt lat="44.457744906561416" lon="9.088187248636949"><ele>451.0</ele><time>2026-05-02T13:08:44.001Z</time></trkpt><trkpt lat="44.457896979730926" lon="9.08825367472308"><ele>451.0</ele><time>2026-05-02T13:08:45.001Z</time></trkpt><trkpt lat="44.45804999279203" lon="9.088318164671339"><ele>451.0</ele><time>2026-05-02T13:08:46.001Z</time></trkpt><trkpt lat="44.45820074654189" lon="9.088377463396032"><ele>454.5</ele><time>2026-05-02T13:08:47.001Z</time></trkpt><trkpt lat="44.4583463301915" lon="9.088436181304491"><ele>458.0</ele><time>2026-05-02T13:08:48.001Z</time></trkpt><trkpt lat="44.458477640416184" lon="9.088500017027675"><ele>461.5</ele><time>2026-05-02T13:08:49.001Z</time></trkpt><trkpt lat="44.45857768048791" lon="9.088588576800213"><ele>465.0</ele><time>2026-05-02T13:08:50.001Z</time></trkpt><trkpt lat="44.45866582379951" lon="9.088730710094222"><ele>465.0</ele><time>2026-05-02T13:08:51.001Z</time></trkpt><trkpt lat="44.458733205156165" lon="9.088908539270983"><ele>465.0</ele><time>2026-05-02T13:08:52.001Z</time></trkpt><trkpt lat="44.45876675584571" lon="9.089102572218433"><ele>465.0</ele><time>2026-05-02T13:08:53.001Z</time></trkpt><trkpt lat="44.458755215536854" lon="9.08930266821713"><ele>465.0</ele><time>2026-05-02T13:08:54.001Z</time></trkpt><trkpt lat="44.45871670271375" lon="9.089496095407757"><ele>470.75</ele><time>2026-05-02T13:08:55.001Z</time></trkpt><trkpt lat="44.458664172122816" lon="9.089684392349707"><ele>476.5</ele><time>2026-05-02T13:08:56.001Z</time></trkpt><trkpt lat="44.458652511880764" lon="9.089868436693003"><ele>482.25</ele><time>2026-05-02T13:08:57.001Z</time></trkpt><trkpt lat="44.4586728778496" lon="9.090075202376779"><ele>488.0</ele><time>2026-05-02T13:08:58.001Z</time></trkpt><trkpt lat="44.458705213278954" lon="9.090279959852916"><ele>489.5</ele><time>2026-05-02T13:08:59.001Z</time></trkpt><trkpt lat="44.458742679455554" lon="9.090468463237773"><ele>491.0</ele><time>2026-05-02T13:09:00.001Z</time></trkpt><trkpt lat="44.45878121370434" lon="9.090649334812028"><ele>492.5</ele><time>2026-05-02T13:09:01.001Z</time></trkpt><trkpt lat="44.458817104805114" lon="9.090822861080069"><ele>494.0</ele><time>2026-05-02T13:09:02.001Z</time></trkpt><trkpt lat="44.45885232402016" lon="9.091030050153767"><ele>492.0</ele><time>2026-05-02T13:09:03.001Z</time></trkpt><trkpt lat="44.458896678040226" lon="9.091211872999049"><ele>490.0</ele><time>2026-05-02T13:09:04.001Z</time></trkpt><trkpt lat="44.458941634970515" lon="9.091387235904312"><ele>488.0</ele><time>2026-05-02T13:09:05.001Z</time></trkpt><trkpt lat="44.45898372746678" lon="9.09157017040649"><ele>486.0</ele><time>2026-05-02T13:09:06.001Z</time></trkpt><trkpt lat="44.4589941585625" lon="9.091772064573673"><ele>486.0</ele><time>2026-05-02T13:09:07.001Z</time></trkpt><trkpt lat="44.458983092466966" lon="9.091974519274906"><ele>486.0</ele><time>2026-05-02T13:09:08.001Z</time></trkpt><trkpt lat="44.458939118693735" lon="9.092155677654485"><ele>486.0</ele><time>2026-05-02T13:09:09.001Z</time></trkpt><trkpt lat="44.4588660637401" lon="9.09234233906467"><ele>486.0</ele><time>2026-05-02T13:09:10.001Z</time></trkpt><trkpt lat="44.45877370177492" lon="9.092533405093935"><ele>495.0</ele><time>2026-05-02T13:09:11.001Z</time></trkpt><trkpt lat="44.45867929800033" lon="9.092720851970997"><ele>504.0</ele><time>2026-05-02T13:09:12.001Z</time></trkpt><trkpt lat="44.45859656350742" lon="9.092885022916489"><ele>513.0</ele><time>2026-05-02T13:09:13.001Z</time></trkpt><trkpt lat="44.458552384179384" lon="9.093053690307736"><ele>522.0</ele><time>2026-05-02T13:09:14.001Z</time></trkpt><trkpt lat="44.45852467651405" lon="9.093224486623821"><ele>522.5</ele><time>2026-05-02T13:09:15.001Z</time></trkpt><trkpt lat="44.45853082310933" lon="9.093392271003069"><ele>523.0</ele><time>2026-05-02T13:09:16.001Z</time></trkpt><trkpt lat="44.458576821446485" lon="9.093567899292548"><ele>523.5</ele><time>2026-05-02T13:09:17.001Z</time></trkpt><trkpt lat="44.45865030044603" lon="9.093719010292508"><ele>524.0</ele><time>2026-05-02T13:09:18.001Z</time></trkpt><trkpt lat="44.45874992018277" lon="9.093833214345581"><ele>519.0</ele><time>2026-05-02T13:09:19.001Z</time></trkpt><trkpt lat="44.45888009576956" lon="9.093942996975473"><ele>514.0</ele><time>2026-05-02T13:09:20.001Z</time></trkpt><trkpt lat="44.45901094375386" lon="9.09404393806326"><ele>509.0</ele><time>2026-05-02T13:09:21.001Z</time></trkpt><trkpt lat="44.45912621592718" lon="9.094126773698711"><ele>504.0</ele><time>2026-05-02T13:09:22.001Z</time></trkpt><trkpt lat="44.45923088680475" lon="9.09420903964854"><ele>504.0</ele><time>2026-05-02T13:09:23.001Z</time></trkpt><trkpt lat="44.45933267566513" lon="9.094267106753277"><ele>504.0</ele><time>2026-05-02T13:09:24.001Z</time></trkpt><trkpt lat="44.459444632458634" lon="9.094285824853303"><ele>504.0</ele><time>2026-05-02T13:09:25.001Z</time></trkpt><trkpt lat="44.45959315121716" lon="9.094284744439545"><ele>504.0</ele><time>2026-05-02T13:09:26.001Z</time></trkpt><trkpt lat="44.459764947959705" lon="9.094285156304691"><ele>503.5</ele><time>2026-05-02T13:09:27.001Z</time></trkpt><trkpt lat="44.45991064966001" lon="9.094313793028443"><ele>503.0</ele><time>2026-05-02T13:09:28.001Z</time></trkpt><trkpt lat="44.46001330586571" lon="9.094433300861954"><ele>502.5</ele><time>2026-05-02T13:09:29.001Z</time></trkpt><trkpt lat="44.46012462190809" lon="9.094573444578016"><ele>502.0</ele><time>2026-05-02T13:09:30.001Z</time></trkpt><trkpt lat="44.46023763028357" lon="9.094752914645799"><ele>502.33333333333337</ele><time>2026-05-02T13:09:31.001Z</time></trkpt><trkpt lat="44.46035277956371" lon="9.094933902289736"><ele>502.66666666666663</ele><time>2026-05-02T13:09:32.001Z</time></trkpt><trkpt lat="44.46047132967723" lon="9.095103372424916"><ele>503.0</ele><time>2026-05-02T13:09:33.001Z</time></trkpt><trkpt lat="44.46058337012078" lon="9.095280275665155"><ele>503.0</ele><time>2026-05-02T13:09:34.001Z</time></trkpt><trkpt lat="44.460692424340515" lon="9.095456994667954"><ele>503.0</ele><time>2026-05-02T13:09:35.001Z</time></trkpt><trkpt lat="44.46079844240534" lon="9.095626955146486"><ele>503.0</ele><time>2026-05-02T13:09:36.001Z</time></trkpt><trkpt lat="44.460903111057185" lon="9.095798797782228"><ele>509.66666666666663</ele><time>2026-05-02T13:09:37.001Z</time></trkpt><trkpt lat="44.46097112809247" lon="9.095987774174219"><ele>516.3333333333334</ele><time>2026-05-02T13:09:38Z</time></trkpt><trkpt lat="44.461037848129756" lon="9.096176339124373"><ele>523.0</ele><time>2026-05-02T13:09:39Z</time></trkpt><trkpt lat="44.4610638183887" lon="9.096408046717567"><ele>528.6666666666667</ele><time>2026-05-02T13:09:40Z</time></trkpt><trkpt lat="44.46105876710336" lon="9.096650917820426"><ele>534.3333333333334</ele><time>2026-05-02T13:09:41Z</time></trkpt><trkpt lat="44.461004967924616" lon="9.09688841029085"><ele>540.0</ele><time>2026-05-02T13:09:42Z</time></trkpt><trkpt lat="44.460973207270435" lon="9.097148771220635"><ele>540.0</ele><time>2026-05-02T13:09:43Z</time></trkpt><trkpt lat="44.46091252471492" lon="9.097404270926491"><ele>540.0</ele><time>2026-05-02T13:09:44Z</time></trkpt><trkpt lat="44.460864064740605" lon="9.097642885403904"><ele>540.0</ele><time>2026-05-02T13:09:45Z</time></trkpt><trkpt lat="44.46083815220021" lon="9.09785013096829"><ele>539.5</ele><time>2026-05-02T13:09:46Z</time></trkpt><trkpt lat="44.460834104658545" lon="9.098046994406346"><ele>539.0</ele><time>2026-05-02T13:09:47Z</time></trkpt><trkpt lat="44.46086168051222" lon="9.098222953715684"><ele>538.5</ele><time>2026-05-02T13:09:48Z</time></trkpt><trkpt lat="44.46091902876367" lon="9.098404674313855"><ele>538.0</ele><time>2026-05-02T13:09:49Z</time></trkpt><trkpt lat="44.46099406612222" lon="9.098578904247406"><ele>541.6666666666667</ele><time>2026-05-02T13:09:50Z</time></trkpt><trkpt lat="44.4611032408744" lon="9.098719388852345"><ele>545.3333333333334</ele><time>2026-05-02T13:09:51Z</time></trkpt><trkpt lat="44.46123498443942" lon="9.098838795767248"><ele>549.0</ele><time>2026-05-02T13:09:52Z</time></trkpt><trkpt lat="44.4613815730744" lon="9.098923714526848"><ele>547.5</ele><time>2026-05-02T13:09:53Z</time></trkpt><trkpt lat="44.46151662287375" lon="9.098989294586765"><ele>546.0</ele><time>2026-05-02T13:09:54Z</time></trkpt><trkpt lat="44.46162116575366" lon="9.099078711306698"><ele>544.5</ele><time>2026-05-02T13:09:55Z</time></trkpt><trkpt lat="44.46169436366512" lon="9.099226280729551"><ele>543.0</ele><time>2026-05-02T13:09:56Z</time></trkpt><trkpt lat="44.46173672568659" lon="9.099406558760732"><ele>543.0</ele><time>2026-05-02T13:09:57Z</time></trkpt><trkpt lat="44.46173704530192" lon="9.09960880388687"><ele>543.0</ele><time>2026-05-02T13:09:58Z</time></trkpt><trkpt lat="44.46174649933782" lon="9.099838987798167"><ele>543.0</ele><time>2026-05-02T13:09:59Z</time></trkpt><trkpt lat="44.46174144084992" lon="9.100043173517562"><ele>547.0</ele><time>2026-05-02T13:10:00Z</time></trkpt><trkpt lat="44.4617640591407" lon="9.100207758685686"><ele>551.0</ele><time>2026-05-02T13:10:01Z</time></trkpt><trkpt lat="44.46182055687968" lon="9.100354790875542"><ele>555.0</ele><time>2026-05-02T13:10:02Z</time></trkpt><trkpt lat="44.46190741822112" lon="9.100493643634518"><ele>559.0</ele><time>2026-05-02T13:10:03Z</time></trkpt><trkpt lat="44.462013804723284" lon="9.100621256549813"><ele>558.0</ele><time>2026-05-02T13:10:04Z</time></trkpt><trkpt lat="44.46213779899861" lon="9.10073207142027"><ele>557.0</ele><time>2026-05-02T13:10:05Z</time></trkpt><trkpt lat="44.462274856196736" lon="9.10082858660397"><ele>556.0</ele><time>2026-05-02T13:10:06Z</time></trkpt><trkpt lat="44.462415209558" lon="9.100924736591137"><ele>556.0</ele><time>2026-05-02T13:10:07Z</time></trkpt><trkpt lat="44.46253824005656" lon="9.101014468732721"><ele>556.0</ele><time>2026-05-02T13:10:08Z</time></trkpt><trkpt lat="44.46265028278288" lon="9.101096698645375"><ele>556.0</ele><time>2026-05-02T13:10:09Z</time></trkpt><trkpt lat="44.46275874257718" lon="9.101188314696298"><ele>556.0</ele><time>2026-05-02T13:10:10Z</time></trkpt><trkpt lat="44.46286953691906" lon="9.101265842695524"><ele>556.5</ele><time>2026-05-02T13:10:11Z</time></trkpt><trkpt lat="44.46298150786375" lon="9.101341690603219"><ele>557.0</ele><time>2026-05-02T13:10:12Z</time></trkpt><trkpt lat="44.463089986158636" lon="9.1014296106655"><ele>557.5</ele><time>2026-05-02T13:10:13Z</time></trkpt><trkpt lat="44.463203214256666" lon="9.101514789000815"><ele>558.0</ele><time>2026-05-02T13:10:14Z</time></trkpt><trkpt lat="44.46332101973122" lon="9.101599984009773"><ele>558.0</ele><time>2026-05-02T13:10:15Z</time></trkpt><trkpt lat="44.46343988787353" lon="9.101689097574466"><ele>558.0</ele><time>2026-05-02T13:10:16Z</time></trkpt><trkpt lat="44.46355940300754" lon="9.101779875860263"><ele>558.0</ele><time>2026-05-02T13:10:17Z</time></trkpt><trkpt lat="44.46367873533308" lon="9.101871410609096"><ele>558.0</ele><time>2026-05-02T13:10:18Z</time></trkpt><trkpt lat="44.4637964564367" lon="9.101959056164189"><ele>555.5</ele><time>2026-05-02T13:10:19Z</time></trkpt><trkpt lat="44.46391653144899" lon="9.102048621200414"><ele>553.0</ele><time>2026-05-02T13:10:20Z</time></trkpt><trkpt lat="44.46403840728307" lon="9.102137405985523"><ele>550.5</ele><time>2026-05-02T13:10:21Z</time></trkpt><trkpt lat="44.464159552603235" lon="9.102228823207227"><ele>548.0</ele><time>2026-05-02T13:10:22Z</time></trkpt><trkpt lat="44.46428087155892" lon="9.102318812095529"><ele>548.0</ele><time>2026-05-02T13:10:23Z</time></trkpt><trkpt lat="44.46440103518047" lon="9.102408946288916"><ele>548.0</ele><time>2026-05-02T13:10:24Z</time></trkpt><trkpt lat="44.46451452960511" lon="9.102496728946283"><ele>548.0</ele><time>2026-05-02T13:10:25Z</time></trkpt><trkpt lat="44.46462292046251" lon="9.102587386139042"><ele>548.0</ele><time>2026-05-02T13:10:26Z</time></trkpt><trkpt lat="44.46473534486517" lon="9.102663306938926"><ele>551.0</ele><time>2026-05-02T13:10:27Z</time></trkpt><trkpt lat="44.46484534211636" lon="9.102750887506607"><ele>554.0</ele><time>2026-05-02T13:10:28Z</time></trkpt><trkpt lat="44.46494550669047" lon="9.102833650678994"><ele>557.0</ele><time>2026-05-02T13:10:29Z</time></trkpt><trkpt lat="44.465050463979644" lon="9.102916494051174"><ele>560.0</ele><time>2026-05-02T13:10:30Z</time></trkpt><trkpt lat="44.46514858695016" lon="9.102992203512983"><ele>560.0</ele><time>2026-05-02T13:10:31Z</time></trkpt><trkpt lat="44.46524131073723" lon="9.103060095659423"><ele>560.0</ele><time>2026-05-02T13:10:32Z</time></trkpt><trkpt lat="44.465331929761525" lon="9.103125034554004"><ele>560.0</ele><time>2026-05-02T13:10:33Z</time></trkpt><trkpt lat="44.46542784920745" lon="9.10319320440739"><ele>560.0</ele><time>2026-05-02T13:10:34Z</time></trkpt><trkpt lat="44.4655262194417" lon="9.103267109765369"><ele>560.0</ele><time>2026-05-02T13:10:35Z</time></trkpt><trkpt lat="44.465624313623174" lon="9.103351734263908"><ele>559.25</ele><time>2026-05-02T13:10:36Z</time></trkpt><trkpt lat="44.46571514729498" lon="9.103462303207747"><ele>558.5</ele><time>2026-05-02T13:10:37Z</time></trkpt><trkpt lat="44.46579842489561" lon="9.10359136021249"><ele>557.75</ele><time>2026-05-02T13:10:38Z</time></trkpt><trkpt lat="44.46585796494201" lon="9.103738764858052"><ele>557.0</ele><time>2026-05-02T13:10:39Z</time></trkpt><trkpt lat="44.465894659918135" lon="9.103906459924383"><ele>560.5</ele><time>2026-05-02T13:10:40Z</time></trkpt><trkpt lat="44.465920564150764" lon="9.104095744671252"><ele>564.0</ele><time>2026-05-02T13:10:41Z</time></trkpt><trkpt lat="44.465927863456216" lon="9.104309156768554"><ele>567.5</ele><time>2026-05-02T13:10:42Z</time></trkpt><trkpt lat="44.46590590934857" lon="9.104516122926332"><ele>571.0</ele><time>2026-05-02T13:10:43Z</time></trkpt><trkpt lat="44.465842714745875" lon="9.104722280548941"><ele>569.0</ele><time>2026-05-02T13:10:44Z</time></trkpt><trkpt lat="44.46574665867819" lon="9.104927857677724"><ele>567.0</ele><time>2026-05-02T13:10:45Z</time></trkpt><trkpt lat="44.46562499057882" lon="9.10512600406692"><ele>565.0</ele><time>2026-05-02T13:10:46Z</time></trkpt><trkpt lat="44.46550018243502" lon="9.105333668630662"><ele>573.75</ele><time>2026-05-02T13:10:47Z</time></trkpt><trkpt lat="44.465394092993755" lon="9.105519626290599"><ele>582.5</ele><time>2026-05-02T13:10:48Z</time></trkpt><trkpt lat="44.46530933611968" lon="9.105678212107088"><ele>591.25</ele><time>2026-05-02T13:10:49Z</time></trkpt><trkpt lat="44.4652498778187" lon="9.105835362790623"><ele>600.0</ele><time>2026-05-02T13:10:50Z</time></trkpt><trkpt lat="44.465226451430546" lon="9.106015103560384"><ele>600.0</ele><time>2026-05-02T13:10:51Z</time></trkpt><trkpt lat="44.46523198077022" lon="9.106224650556547"><ele>600.0</ele><time>2026-05-02T13:10:52Z</time></trkpt><trkpt lat="44.46527068274008" lon="9.106417489899789"><ele>600.0</ele><time>2026-05-02T13:10:53Z</time></trkpt><trkpt lat="44.46534594361503" lon="9.106578550900293"><ele>600.0</ele><time>2026-05-02T13:10:54Z</time></trkpt><trkpt lat="44.46545554687232" lon="9.106712876512674"><ele>590.0</ele><time>2026-05-02T13:10:55Z</time></trkpt><trkpt lat="44.4655954691433" lon="9.106826347305393"><ele>580.0</ele><time>2026-05-02T13:10:56Z</time></trkpt><trkpt lat="44.465757088556174" lon="9.106905447024063"><ele>570.0</ele><time>2026-05-02T13:10:57Z</time></trkpt><trkpt lat="44.46595840749829" lon="9.10695813908735"><ele>570.0</ele><time>2026-05-02T13:10:58Z</time></trkpt><trkpt lat="44.46613252487106" lon="9.10704162449785"><ele>570.0</ele><time>2026-05-02T13:10:59Z</time></trkpt><trkpt lat="44.46626815128734" lon="9.107118264685278"><ele>570.0</ele><time>2026-05-02T13:11:00Z</time></trkpt><trkpt lat="44.46637407368739" lon="9.107207332992992"><ele>569.25</ele><time>2026-05-02T13:11:01Z</time></trkpt><trkpt lat="44.46644334489593" lon="9.10736326381942"><ele>568.5</ele><time>2026-05-02T13:11:02Z</time></trkpt><trkpt lat="44.4664831271405" lon="9.107562805027086"><ele>567.75</ele><time>2026-05-02T13:11:03Z</time></trkpt><trkpt lat="44.46645706618555" lon="9.10777857875681"><ele>567.0</ele><time>2026-05-02T13:11:04Z</time></trkpt><trkpt lat="44.46643547204973" lon="9.10803629407139"><ele>567.0</ele><time>2026-05-02T13:11:05Z</time></trkpt><trkpt lat="44.46640586292582" lon="9.108292082408267"><ele>567.0</ele><time>2026-05-02T13:11:06Z</time></trkpt><trkpt lat="44.46634697561546" lon="9.10850498453313"><ele>567.0</ele><time>2026-05-02T13:11:07Z</time></trkpt><trkpt lat="44.46623534251903" lon="9.108731213396696"><ele>577.0</ele><time>2026-05-02T13:11:08Z</time></trkpt><trkpt lat="44.46612405414934" lon="9.10898505460156"><ele>587.0</ele><time>2026-05-02T13:11:09Z</time></trkpt><trkpt lat="44.46603203924587" lon="9.109210330692445"><ele>597.0</ele><time>2026-05-02T13:11:10Z</time></trkpt><trkpt lat="44.46598436825827" lon="9.109432814486752"><ele>597.0</ele><time>2026-05-02T13:11:11Z</time></trkpt><trkpt lat="44.465964570229566" lon="9.109648107018781"><ele>597.0</ele><time>2026-05-02T13:11:12Z</time></trkpt><trkpt lat="44.4659772314589" lon="9.109877679060771"><ele>597.0</ele><time>2026-05-02T13:11:13Z</time></trkpt><trkpt lat="44.46602332843976" lon="9.11013381241118"><ele>597.3333333333334</ele><time>2026-05-02T13:11:14Z</time></trkpt><trkpt lat="44.46609582960895" lon="9.110416832424757"><ele>597.6666666666667</ele><time>2026-05-02T13:11:15Z</time></trkpt><trkpt lat="44.4661762766793" lon="9.110715638909728"><ele>598.0</ele><time>2026-05-02T13:11:16Z</time></trkpt><trkpt lat="44.46625827526203" lon="9.111031756653338"><ele>592.5</ele><time>2026-05-02T13:11:17Z</time></trkpt><trkpt lat="44.466337126927925" lon="9.111353508426166"><ele>587.0</ele><time>2026-05-02T13:11:18Z</time></trkpt><trkpt lat="44.46641537700201" lon="9.111673978139539"><ele>587.0</ele><time>2026-05-02T13:11:19.001Z</time></trkpt><trkpt lat="44.466499335157835" lon="9.111969870790237"><ele>587.0</ele><time>2026-05-02T13:11:20.001Z</time></trkpt><trkpt lat="44.466597373103994" lon="9.11225186612217"><ele>592.0</ele><time>2026-05-02T13:11:21.001Z</time></trkpt><trkpt lat="44.466721544880365" lon="9.112539120955022"><ele>597.0</ele><time>2026-05-02T13:11:22.001Z</time></trkpt><trkpt lat="44.466868529097695" lon="9.112832291822352"><ele>597.0</ele><time>2026-05-02T13:11:23Z</time></trkpt><trkpt lat="44.467026632139095" lon="9.113134436615349"><ele>597.0</ele><time>2026-05-02T13:11:24Z</time></trkpt><trkpt lat="44.467181073499766" lon="9.113475673909738"><ele>591.5</ele><time>2026-05-02T13:11:25Z</time></trkpt><trkpt lat="44.467333624567196" lon="9.113793207488984"><ele>586.0</ele><time>2026-05-02T13:11:26Z</time></trkpt><trkpt lat="44.467478936182154" lon="9.114055695322536"><ele>590.0</ele><time>2026-05-02T13:11:27Z</time></trkpt><trkpt lat="44.46759571638195" lon="9.114301786594336"><ele>594.0</ele><time>2026-05-02T13:11:28Z</time></trkpt><trkpt lat="44.467680113313335" lon="9.114512461236382"><ele>598.0</ele><time>2026-05-02T13:11:29Z</time></trkpt><trkpt lat="44.46777580505078" lon="9.114676051318236"><ele>598.0</ele><time>2026-05-02T13:11:30Z</time></trkpt><trkpt lat="44.46779607690489" lon="9.114883043827637"><ele>598.0</ele><time>2026-05-02T13:11:31Z</time></trkpt><trkpt lat="44.46781916147682" lon="9.115101961324354"><ele>598.0</ele><time>2026-05-02T13:11:32Z</time></trkpt><trkpt lat="44.46785840702182" lon="9.115290714273318"><ele>598.0</ele><time>2026-05-02T13:11:33Z</time></trkpt><trkpt lat="44.46792079264701" lon="9.115454701284063"><ele>597.0</ele><time>2026-05-02T13:11:34Z</time></trkpt><trkpt lat="44.46802643176349" lon="9.115584339979335"><ele>596.0</ele><time>2026-05-02T13:11:35Z</time></trkpt><trkpt lat="44.46816612519752" lon="9.115683594793076"><ele>595.0</ele><time>2026-05-02T13:11:36Z</time></trkpt><trkpt lat="44.468332331373105" lon="9.115752442027807"><ele>602.0</ele><time>2026-05-02T13:11:37Z</time></trkpt><trkpt lat="44.468498328108176" lon="9.115801913374074"><ele>609.0</ele><time>2026-05-02T13:11:38Z</time></trkpt><trkpt lat="44.46864786940864" lon="9.115860146839822"><ele>616.0</ele><time>2026-05-02T13:11:39Z</time></trkpt><trkpt lat="44.468772969365496" lon="9.115915636162319"><ele>616.0</ele><time>2026-05-02T13:11:40Z</time></trkpt><trkpt lat="44.46890315371408" lon="9.11597985905647"><ele>616.0</ele><time>2026-05-02T13:11:41Z</time></trkpt><trkpt lat="44.46904528088963" lon="9.116060945963842"><ele>616.0</ele><time>2026-05-02T13:11:42Z</time></trkpt><trkpt lat="44.46919632201899" lon="9.116156142622158"><ele>616.0</ele><time>2026-05-02T13:11:43Z</time></trkpt><trkpt lat="44.469338245829064" lon="9.116259112372447"><ele>616.0</ele><time>2026-05-02T13:11:44Z</time></trkpt><trkpt lat="44.46948513908874" lon="9.116352979896913"><ele>616.0</ele><time>2026-05-02T13:11:45Z</time></trkpt><trkpt lat="44.46963736566522" lon="9.11644027781257"><ele>616.3333333333334</ele><time>2026-05-02T13:11:46Z</time></trkpt><trkpt lat="44.469799863198965" lon="9.116511093441188"><ele>616.6666666666666</ele><time>2026-05-02T13:11:47Z</time></trkpt><trkpt lat="44.46996375232107" lon="9.116537433494052"><ele>617.0</ele><time>2026-05-02T13:11:48Z</time></trkpt><trkpt lat="44.47014098275287" lon="9.11655571410703"><ele>622.3333333333333</ele><time>2026-05-02T13:11:49Z</time></trkpt><trkpt lat="44.470318558652856" lon="9.11661126170797"><ele>627.6666666666666</ele><time>2026-05-02T13:11:50Z</time></trkpt><trkpt lat="44.470521407921154" lon="9.1166857546652"><ele>633.0</ele><time>2026-05-02T13:11:51Z</time></trkpt><trkpt lat="44.47072862315823" lon="9.116779355185523"><ele>636.0</ele><time>2026-05-02T13:11:52Z</time></trkpt><trkpt lat="44.470939457001286" lon="9.116893793550895"><ele>639.0</ele><time>2026-05-02T13:11:53Z</time></trkpt><trkpt lat="44.47114979846412" lon="9.11701917975482"><ele>656.0</ele><time>2026-05-02T13:11:54Z</time></trkpt><trkpt lat="44.471362969694376" lon="9.11714131206304"><ele>673.0</ele><time>2026-05-02T13:11:55Z</time></trkpt><trkpt lat="44.47157983646079" lon="9.117261540249052"><ele>673.0</ele><time>2026-05-02T13:11:56Z</time></trkpt><trkpt lat="44.471800667268234" lon="9.117387096990274"><ele>673.0</ele><time>2026-05-02T13:11:57Z</time></trkpt><trkpt lat="44.472016870469" lon="9.117511152659088"><ele>694.0</ele><time>2026-05-02T13:11:58Z</time></trkpt><trkpt lat="44.472231822378724" lon="9.11763132673092"><ele>715.0</ele><time>2026-05-02T13:11:59Z</time></trkpt><trkpt lat="44.47244403352111" lon="9.11775122025351"><ele>715.0</ele><time>2026-05-02T13:12:00Z</time></trkpt><trkpt lat="44.472653324172356" lon="9.117875030753948"><ele>715.0</ele><time>2026-05-02T13:12:01Z</time></trkpt><trkpt lat="44.4728617182503" lon="9.117997537186541"><ele>725.0</ele><time>2026-05-02T13:12:02Z</time></trkpt><trkpt lat="44.47307189285129" lon="9.118119146006217"><ele>735.0</ele><time>2026-05-02T13:12:03Z</time></trkpt><trkpt lat="44.47327666105634" lon="9.118245407428025"><ele>736.3333333333334</ele><time>2026-05-02T13:12:04Z</time></trkpt><trkpt lat="44.473482154301195" lon="9.118373253312058"><ele>737.6666666666667</ele><time>2026-05-02T13:12:05Z</time></trkpt><trkpt lat="44.47365757384143" lon="9.118504272624907"><ele>739.0</ele><time>2026-05-02T13:12:06Z</time></trkpt><trkpt lat="44.473859044358306" lon="9.118627744834148"><ele>732.3333333333334</ele><time>2026-05-02T13:12:07Z</time></trkpt><trkpt lat="44.47405925755582" lon="9.118755379147697"><ele>725.6666666666666</ele><time>2026-05-02T13:12:08Z</time></trkpt><trkpt lat="44.47425806813164" lon="9.118887492078068"><ele>719.0</ele><time>2026-05-02T13:12:09Z</time></trkpt><trkpt lat="44.474458121364265" lon="9.119002303519352"><ele>719.3333333333333</ele><time>2026-05-02T13:12:10Z</time></trkpt><trkpt lat="44.474657887718564" lon="9.119113939973632"><ele>719.6666666666666</ele><time>2026-05-02T13:12:11Z</time></trkpt><trkpt lat="44.47483996100219" lon="9.119215649547519"><ele>720.0</ele><time>2026-05-02T13:12:12Z</time></trkpt><trkpt lat="44.475035942835206" lon="9.119327525654874"><ele>720.0</ele><time>2026-05-02T13:12:13Z</time></trkpt><trkpt lat="44.47523591797532" lon="9.119441682237515"><ele>720.0</ele><time>2026-05-02T13:12:14Z</time></trkpt><trkpt lat="44.475431699119035" lon="9.119553444247874"><ele>720.0</ele><time>2026-05-02T13:12:15Z</time></trkpt><trkpt lat="44.475632845235175" lon="9.11966826906244"><ele>718.0</ele><time>2026-05-02T13:12:16Z</time></trkpt><trkpt lat="44.47583333791984" lon="9.11978272031493"><ele>716.0</ele><time>2026-05-02T13:12:17Z</time></trkpt><trkpt lat="44.476034032588636" lon="9.11989664425095"><ele>714.0</ele><time>2026-05-02T13:12:18Z</time></trkpt><trkpt lat="44.47623300695232" lon="9.120009587705855"><ele>717.3333333333334</ele><time>2026-05-02T13:12:19Z</time></trkpt><trkpt lat="44.47642527263879" lon="9.120118722764326"><ele>720.6666666666667</ele><time>2026-05-02T13:12:20Z</time></trkpt><trkpt lat="44.47661862531493" lon="9.120228460337346"><ele>724.0</ele><time>2026-05-02T13:12:21Z</time></trkpt><trkpt lat="44.47682751720505" lon="9.120346817603327"><ele>724.0</ele><time>2026-05-02T13:12:22Z</time></trkpt><trkpt lat="44.47703189828105" lon="9.120462609083434"><ele>724.0</ele><time>2026-05-02T13:12:23Z</time></trkpt><trkpt lat="44.47721683057752" lon="9.120567381887028"><ele>724.0</ele><time>2026-05-02T13:12:24Z</time></trkpt><trkpt lat="44.477382683030136" lon="9.12066134515187"><ele>735.0</ele><time>2026-05-02T13:12:25Z</time></trkpt><trkpt lat="44.477593252527136" lon="9.12078064264079"><ele>746.0</ele><time>2026-05-02T13:12:26Z</time></trkpt><trkpt lat="44.477809714380165" lon="9.120902696393065"><ele>743.5</ele><time>2026-05-02T13:12:27Z</time></trkpt><trkpt lat="44.47798510115153" lon="9.121002817071458"><ele>741.0</ele><time>2026-05-02T13:12:28.02Z</time></trkpt><trkpt lat="44.47888024084646" lon="9.12139833849119"><ele>652.0</ele><time>2026-05-02T13:12:31.259Z</time></trkpt><trkpt lat="44.48272249360564" lon="9.123712880265407"><ele>652.0</ele><time>2026-05-02T13:12:49Z</time></trkpt><trkpt lat="44.48288437948538" lon="9.12388387188173"><ele>652.0</ele><time>2026-05-02T13:12:50Z</time></trkpt><trkpt lat="44.483071967214016" lon="9.124077764459548"><ele>652.0</ele><time>2026-05-02T13:12:51Z</time></trkpt><trkpt lat="44.48318082612339" lon="9.124334201518588"><ele>647.0</ele><time>2026-05-02T13:12:52Z</time></trkpt><trkpt lat="44.48331399602126" lon="9.12459349827711"><ele>642.0</ele><time>2026-05-02T13:12:53Z</time></trkpt><trkpt lat="44.48346893999589" lon="9.124857902864699"><ele>635.0</ele><time>2026-05-02T13:12:54Z</time></trkpt><trkpt lat="44.48363511388738" lon="9.125149087152664"><ele>628.0</ele><time>2026-05-02T13:12:55Z</time></trkpt><trkpt lat="44.483797398452566" lon="9.125412386445248"><ele>628.0</ele><time>2026-05-02T13:12:56Z</time></trkpt><trkpt lat="44.483928169168195" lon="9.125663207567715"><ele>628.0</ele><time>2026-05-02T13:12:57Z</time></trkpt><trkpt lat="44.48405594505123" lon="9.125886594005614"><ele>628.0</ele><time>2026-05-02T13:12:58Z</time></trkpt><trkpt lat="44.48417853040909" lon="9.126118376362292"><ele>628.6666666666667</ele><time>2026-05-02T13:12:59Z</time></trkpt><trkpt lat="44.48430473126112" lon="9.126337341765913"><ele>629.3333333333334</ele><time>2026-05-02T13:13:00Z</time></trkpt><trkpt lat="44.484469166820354" lon="9.12658385627878"><ele>630.0</ele><time>2026-05-02T13:13:01Z</time></trkpt><trkpt lat="44.48461699173503" lon="9.126834668661193"><ele>630.0</ele><time>2026-05-02T13:13:02Z</time></trkpt><trkpt lat="44.48476052340572" lon="9.127082378623449"><ele>630.0</ele><time>2026-05-02T13:13:03Z</time></trkpt><trkpt lat="44.484896256970266" lon="9.127317824798748"><ele>630.0</ele><time>2026-05-02T13:13:04Z</time></trkpt><trkpt lat="44.48502714169579" lon="9.127545642123552"><ele>631.6666666666666</ele><time>2026-05-02T13:13:05Z</time></trkpt><trkpt lat="44.48515531518135" lon="9.12776798413494"><ele>633.3333333333333</ele><time>2026-05-02T13:13:06Z</time></trkpt><trkpt lat="44.48528215724273" lon="9.127992126650545"><ele>635.0</ele><time>2026-05-02T13:13:07Z</time></trkpt><trkpt lat="44.48540723520983" lon="9.128217909219707"><ele>633.6666666666666</ele><time>2026-05-02T13:13:08Z</time></trkpt><trkpt lat="44.485525010609" lon="9.128433504939194"><ele>632.3333333333334</ele><time>2026-05-02T13:13:09Z</time></trkpt><trkpt lat="44.48564507938959" lon="9.128649789019907"><ele>631.0</ele><time>2026-05-02T13:13:10Z</time></trkpt><trkpt lat="44.48576779419867" lon="9.12886521131165"><ele>637.6666666666667</ele><time>2026-05-02T13:13:11Z</time></trkpt><trkpt lat="44.48589198721705" lon="9.129074179743274"><ele>644.3333333333334</ele><time>2026-05-02T13:13:12Z</time></trkpt><trkpt lat="44.48601902926872" lon="9.129257815873281"><ele>651.0</ele><time>2026-05-02T13:13:13Z</time></trkpt><trkpt lat="44.48615328297037" lon="9.129422542114355"><ele>640.6666666666666</ele><time>2026-05-02T13:13:14Z</time></trkpt><trkpt lat="44.48629763416887" lon="9.12957043034287"><ele>630.3333333333333</ele><time>2026-05-02T13:13:15Z</time></trkpt><trkpt lat="44.486451842839514" lon="9.129690485121534"><ele>620.0</ele><time>2026-05-02T13:13:16Z</time></trkpt><trkpt lat="44.48660286698023" lon="9.129785002287944"><ele>620.0</ele><time>2026-05-02T13:13:17Z</time></trkpt><trkpt lat="44.48674974268574" lon="9.129879506845962"><ele>620.0</ele><time>2026-05-02T13:13:18Z</time></trkpt><trkpt lat="44.486894541227336" lon="9.129985495007153"><ele>620.0</ele><time>2026-05-02T13:13:19Z</time></trkpt><trkpt lat="44.4870340955098" lon="9.130089711455172"><ele>620.3333333333333</ele><time>2026-05-02T13:13:20Z</time></trkpt><trkpt lat="44.48717068959658" lon="9.13018836892512"><ele>620.6666666666666</ele><time>2026-05-02T13:13:21Z</time></trkpt><trkpt lat="44.48731461170932" lon="9.13028500067825"><ele>621.0</ele><time>2026-05-02T13:13:22Z</time></trkpt><trkpt lat="44.48746554028675" lon="9.13038027164299"><ele>621.0</ele><time>2026-05-02T13:13:23Z</time></trkpt><trkpt lat="44.487614851639705" lon="9.130474084069862"><ele>621.0</ele><time>2026-05-02T13:13:24Z</time></trkpt><trkpt lat="44.48776676336174" lon="9.130572102116027"><ele>621.0</ele><time>2026-05-02T13:13:25Z</time></trkpt><trkpt lat="44.487919186917786" lon="9.13067294917751"><ele>627.0</ele><time>2026-05-02T13:13:26Z</time></trkpt><trkpt lat="44.488071796280636" lon="9.130765845829368"><ele>633.0</ele><time>2026-05-02T13:13:27Z</time></trkpt><trkpt lat="44.488226060532874" lon="9.130843488511973"><ele>639.0</ele><time>2026-05-02T13:13:28Z</time></trkpt><trkpt lat="44.488388114422676" lon="9.13090839296218"><ele>639.0</ele><time>2026-05-02T13:13:29Z</time></trkpt><trkpt lat="44.488554971986055" lon="9.130963204822732"><ele>639.0</ele><time>2026-05-02T13:13:30Z</time></trkpt><trkpt lat="44.48872295539126" lon="9.131004799113407"><ele>639.0</ele><time>2026-05-02T13:13:31Z</time></trkpt><trkpt lat="44.48888771194273" lon="9.131023332556142"><ele>637.3333333333334</ele><time>2026-05-02T13:13:32Z</time></trkpt><trkpt lat="44.48906020305756" lon="9.131026754293723"><ele>635.6666666666667</ele><time>2026-05-02T13:13:33Z</time></trkpt><trkpt lat="44.48924199140381" lon="9.131027063031702"><ele>634.0</ele><time>2026-05-02T13:13:34Z</time></trkpt><trkpt lat="44.48942236271952" lon="9.131010664174816"><ele>632.3333333333334</ele><time>2026-05-02T13:13:35Z</time></trkpt><trkpt lat="44.48959446502153" lon="9.130985558378516"><ele>630.6666666666666</ele><time>2026-05-02T13:13:36Z</time></trkpt><trkpt lat="44.48976214390988" lon="9.130966097554145"><ele>629.0</ele><time>2026-05-02T13:13:37Z</time></trkpt><trkpt lat="44.49010548013151" lon="9.130941941282986"><ele>629.0</ele><time>2026-05-02T13:13:39Z</time></trkpt><trkpt lat="44.49027677355863" lon="9.130925238022556"><ele>629.0</ele><time>2026-05-02T13:13:40Z</time></trkpt><trkpt lat="44.490445852002566" lon="9.13090355122693"><ele>629.0</ele><time>2026-05-02T13:13:41Z</time></trkpt><trkpt lat="44.490612516863536" lon="9.130885189724282"><ele>626.0</ele><time>2026-05-02T13:13:42Z</time></trkpt><trkpt lat="44.4907641039057" lon="9.130869526641362"><ele>623.0</ele><time>2026-05-02T13:13:43Z</time></trkpt><trkpt lat="44.49091751433601" lon="9.130855126605395"><ele>620.0</ele><time>2026-05-02T13:13:44Z</time></trkpt><trkpt lat="44.49108002129094" lon="9.130839906283853"><ele>620.0</ele><time>2026-05-02T13:13:45Z</time></trkpt><trkpt lat="44.4912461708131" lon="9.13082501114367"><ele>620.0</ele><time>2026-05-02T13:13:46Z</time></trkpt><trkpt lat="44.491407135261596" lon="9.130810636599495"><ele>620.0</ele><time>2026-05-02T13:13:47Z</time></trkpt><trkpt lat="44.49155954072077" lon="9.130803719231283"><ele>614.25</ele><time>2026-05-02T13:13:48Z</time></trkpt><trkpt lat="44.491708503993195" lon="9.130803193925438"><ele>608.5</ele><time>2026-05-02T13:13:49Z</time></trkpt><trkpt lat="44.491857250713316" lon="9.130795676118652"><ele>602.75</ele><time>2026-05-02T13:13:50Z</time></trkpt><trkpt lat="44.49199586509131" lon="9.13078304175704"><ele>597.0</ele><time>2026-05-02T13:13:51Z</time></trkpt><trkpt lat="44.49213289610203" lon="9.130771026978888"><ele>597.0</ele><time>2026-05-02T13:13:52Z</time></trkpt><trkpt lat="44.49227395375401" lon="9.13076840703844"><ele>597.0</ele><time>2026-05-02T13:13:53Z</time></trkpt><trkpt lat="44.492423620203816" lon="9.130785113206112"><ele>597.0</ele><time>2026-05-02T13:13:54Z</time></trkpt><trkpt lat="44.492568076445075" lon="9.130801225869355"><ele>597.0</ele><time>2026-05-02T13:13:55Z</time></trkpt><trkpt lat="44.4927104818831" lon="9.130889447028652"><ele>597.0</ele><time>2026-05-02T13:13:56Z</time></trkpt><trkpt lat="44.49285146807904" lon="9.130979807104016"><ele>597.0</ele><time>2026-05-02T13:13:57Z</time></trkpt><trkpt lat="44.49299399513854" lon="9.131048510605858"><ele>597.0</ele><time>2026-05-02T13:13:58Z</time></trkpt><trkpt lat="44.49311042630299" lon="9.131121175632678"><ele>597.0</ele><time>2026-05-02T13:13:59Z</time></trkpt><trkpt lat="44.4932249142071" lon="9.131191266413737"><ele>600.8000000000001</ele><time>2026-05-02T13:14:00Z</time></trkpt><trkpt lat="44.493331301843604" lon="9.131261601853362"><ele>604.6</ele><time>2026-05-02T13:14:01Z</time></trkpt><trkpt lat="44.493420981247844" lon="9.131314349631277"><ele>608.4000000000001</ele><time>2026-05-02T13:14:02Z</time></trkpt><trkpt lat="44.493511559838176" lon="9.13136517935956"><ele>612.2</ele><time>2026-05-02T13:14:03Z</time></trkpt><trkpt lat="44.49359461903949" lon="9.131412665268465"><ele>616.0</ele><time>2026-05-02T13:14:04Z</time></trkpt><trkpt lat="44.493705311393036" lon="9.13144573063364"><ele>620.5</ele><time>2026-05-02T13:14:05Z</time></trkpt><trkpt lat="44.493818631950084" lon="9.131575531360982"><ele>625.0</ele><time>2026-05-02T13:14:06Z</time></trkpt><trkpt lat="44.49393682996261" lon="9.13167783547734"><ele>629.5</ele><time>2026-05-02T13:14:07Z</time></trkpt><trkpt lat="44.494059888406895" lon="9.131782815166153"><ele>634.0</ele><time>2026-05-02T13:14:08Z</time></trkpt><trkpt lat="44.494200682730956" lon="9.131899923918017"><ele>634.0</ele><time>2026-05-02T13:14:09Z</time></trkpt><trkpt lat="44.49435678744937" lon="9.132028536949456"><ele>634.0</ele><time>2026-05-02T13:14:10Z</time></trkpt><trkpt lat="44.49452797732814" lon="9.132173804365598"><ele>634.0</ele><time>2026-05-02T13:14:11Z</time></trkpt><trkpt lat="44.494708747744305" lon="9.132329815845045"><ele>646.5</ele><time>2026-05-02T13:14:12Z</time></trkpt><trkpt lat="44.494902263645535" lon="9.132495026165747"><ele>659.0</ele><time>2026-05-02T13:14:13Z</time></trkpt><trkpt lat="44.49510545663236" lon="9.132664056839653"><ele>659.0</ele><time>2026-05-02T13:14:14Z</time></trkpt><trkpt lat="44.49530684600009" lon="9.13283001582902"><ele>659.0</ele><time>2026-05-02T13:14:15Z</time></trkpt><trkpt lat="44.49550499828701" lon="9.132993977565746"><ele>659.0</ele><time>2026-05-02T13:14:16Z</time></trkpt><trkpt lat="44.4956925083352" lon="9.133152566655301"><ele>659.0</ele><time>2026-05-02T13:14:17Z</time></trkpt><trkpt lat="44.49586801322318" lon="9.133336899263439"><ele>659.0</ele><time>2026-05-02T13:14:18Z</time></trkpt><trkpt lat="44.495932698826174" lon="9.13339190598153"><ele>658.6666666666666</ele><time>2026-05-02T13:14:19Z</time></trkpt><trkpt lat="44.49608900182406" lon="9.133524986155617"><ele>658.3333333333334</ele><time>2026-05-02T13:14:20Z</time></trkpt><trkpt lat="44.496220910946526" lon="9.133656847975429"><ele>658.0</ele><time>2026-05-02T13:14:21Z</time></trkpt><trkpt lat="44.49634636618698" lon="9.133799632431142"><ele>655.0</ele><time>2026-05-02T13:14:22Z</time></trkpt><trkpt lat="44.496481391553424" lon="9.133945110357631"><ele>652.0</ele><time>2026-05-02T13:14:23Z</time></trkpt><trkpt lat="44.49661903092943" lon="9.134098671203144"><ele>649.0</ele><time>2026-05-02T13:14:24Z</time></trkpt><trkpt lat="44.49674916606691" lon="9.134247758847339"><ele>649.0</ele><time>2026-05-02T13:14:25Z</time></trkpt><trkpt lat="44.496875503777524" lon="9.134396391441955"><ele>649.0</ele><time>2026-05-02T13:14:26Z</time></trkpt><trkpt lat="44.49699100205348" lon="9.134542985655319"><ele>649.0</ele><time>2026-05-02T13:14:27Z</time></trkpt><trkpt lat="44.49711922178386" lon="9.134709875325658"><ele>649.0</ele><time>2026-05-02T13:14:28Z</time></trkpt><trkpt lat="44.49725078823392" lon="9.134847401844372"><ele>649.0</ele><time>2026-05-02T13:14:29Z</time></trkpt><trkpt lat="44.49736206263566" lon="9.135015751025174"><ele>649.0</ele><time>2026-05-02T13:14:30Z</time></trkpt><trkpt lat="44.49748171933658" lon="9.135162054514884"><ele>649.0</ele><time>2026-05-02T13:14:31Z</time></trkpt><trkpt lat="44.49758723181113" lon="9.135295331172257"><ele>649.0</ele><time>2026-05-02T13:14:32Z</time></trkpt><trkpt lat="44.49770942019482" lon="9.13544441608124"><ele>649.0</ele><time>2026-05-02T13:14:33Z</time></trkpt><trkpt lat="44.49782203220004" lon="9.13558587862292"><ele>651.3333333333334</ele><time>2026-05-02T13:14:34Z</time></trkpt><trkpt lat="44.49793178304752" lon="9.135730264790377"><ele>653.6666666666666</ele><time>2026-05-02T13:14:35Z</time></trkpt><trkpt lat="44.498045874557306" lon="9.135877933759746"><ele>656.0</ele><time>2026-05-02T13:14:36Z</time></trkpt><trkpt lat="44.4981624996369" lon="9.136023163883987"><ele>656.0</ele><time>2026-05-02T13:14:37Z</time></trkpt><trkpt lat="44.49827698652324" lon="9.13616269571928"><ele>656.0</ele><time>2026-05-02T13:14:38Z</time></trkpt><trkpt lat="44.49838629831977" lon="9.136302519851546"><ele>656.0</ele><time>2026-05-02T13:14:39Z</time></trkpt><trkpt lat="44.49850314380277" lon="9.13645315588268"><ele>658.0</ele><time>2026-05-02T13:14:40Z</time></trkpt><trkpt lat="44.498625423604075" lon="9.136613597910392"><ele>660.0</ele><time>2026-05-02T13:14:41Z</time></trkpt><trkpt lat="44.49875256244945" lon="9.13678234716682"><ele>662.0</ele><time>2026-05-02T13:14:42Z</time></trkpt><trkpt lat="44.49888370479061" lon="9.13695929044721"><ele>662.0</ele><time>2026-05-02T13:14:43Z</time></trkpt><trkpt lat="44.49901804128123" lon="9.137142103993458"><ele>662.0</ele><time>2026-05-02T13:14:44Z</time></trkpt><trkpt lat="44.49915045454483" lon="9.137333946903105"><ele>662.0</ele><time>2026-05-02T13:14:45Z</time></trkpt><trkpt lat="44.4992793709407" lon="9.137529296375032"><ele>664.0</ele><time>2026-05-02T13:14:46Z</time></trkpt><trkpt lat="44.49940751533149" lon="9.137729975746469"><ele>666.0</ele><time>2026-05-02T13:14:47Z</time></trkpt><trkpt lat="44.49953354013365" lon="9.13792826802615"><ele>668.0</ele><time>2026-05-02T13:14:48Z</time></trkpt><trkpt lat="44.49965721178955" lon="9.138124752139081"><ele>670.6666666666666</ele><time>2026-05-02T13:14:49Z</time></trkpt><trkpt lat="44.49977861455468" lon="9.138321975454385"><ele>673.3333333333334</ele><time>2026-05-02T13:14:50Z</time></trkpt><trkpt lat="44.499894801050225" lon="9.138515561644072"><ele>676.0</ele><time>2026-05-02T13:14:51Z</time></trkpt><trkpt lat="44.500006019461395" lon="9.13870759233205"><ele>676.0</ele><time>2026-05-02T13:14:52Z</time></trkpt><trkpt lat="44.50011319805613" lon="9.138894658773028"><ele>676.0</ele><time>2026-05-02T13:14:53Z</time></trkpt><trkpt lat="44.50021588591569" lon="9.139083122081274"><ele>676.0</ele><time>2026-05-02T13:14:54Z</time></trkpt><trkpt lat="44.50031642760838" lon="9.139275130593907"><ele>679.6666666666667</ele><time>2026-05-02T13:14:55Z</time></trkpt><trkpt lat="44.500416285565116" lon="9.139470834653327"><ele>683.3333333333334</ele><time>2026-05-02T13:14:56Z</time></trkpt><trkpt lat="44.50051389232076" lon="9.139664098180107"><ele>687.0</ele><time>2026-05-02T13:14:57Z</time></trkpt><trkpt lat="44.50060993290648" lon="9.139859598230695"><ele>692.0</ele><time>2026-05-02T13:14:58Z</time></trkpt><trkpt lat="44.50070443728476" lon="9.14006210827486"><ele>697.0</ele><time>2026-05-02T13:14:59Z</time></trkpt><trkpt lat="44.50079896705405" lon="9.14026900691138"><ele>702.0</ele><time>2026-05-02T13:15:00Z</time></trkpt><trkpt lat="44.50089380093109" lon="9.140479282136932"><ele>702.0</ele><time>2026-05-02T13:15:01Z</time></trkpt><trkpt lat="44.50098773132255" lon="9.140693099926041"><ele>702.0</ele><time>2026-05-02T13:15:02Z</time></trkpt><trkpt lat="44.501080055201925" lon="9.140910238298577"><ele>702.0</ele><time>2026-05-02T13:15:03Z</time></trkpt><trkpt lat="44.50116961121347" lon="9.14112382809216"><ele>710.0</ele><time>2026-05-02T13:15:04Z</time></trkpt><trkpt lat="44.501256413674355" lon="9.141336030246341"><ele>718.0</ele><time>2026-05-02T13:15:05Z</time></trkpt><trkpt lat="44.501340241789144" lon="9.141551522221492"><ele>726.0</ele><time>2026-05-02T13:15:06Z</time></trkpt><trkpt lat="44.501419926717034" lon="9.141772433269589"><ele>730.0</ele><time>2026-05-02T13:15:07Z</time></trkpt><trkpt lat="44.501499035902164" lon="9.14199663168133"><ele>734.0</ele><time>2026-05-02T13:15:08Z</time></trkpt><trkpt lat="44.50157575764697" lon="9.14222309478534"><ele>738.0</ele><time>2026-05-02T13:15:09Z</time></trkpt><trkpt lat="44.50165088785087" lon="9.142448411483588"><ele>739.3333333333334</ele><time>2026-05-02T13:15:10Z</time></trkpt><trkpt lat="44.50173384901149" lon="9.142693005470248"><ele>740.6666666666667</ele><time>2026-05-02T13:15:11Z</time></trkpt><trkpt lat="44.50182115188363" lon="9.142919855516112"><ele>742.0</ele><time>2026-05-02T13:15:12Z</time></trkpt><trkpt lat="44.501890118270836" lon="9.14315509060501"><ele>740.3333333333334</ele><time>2026-05-02T13:15:13Z</time></trkpt><trkpt lat="44.501958284626554" lon="9.143388917726854"><ele>738.6666666666666</ele><time>2026-05-02T13:15:14Z</time></trkpt><trkpt lat="44.50204204804476" lon="9.1436647653689"><ele>737.0</ele><time>2026-05-02T13:15:15Z</time></trkpt><trkpt lat="44.50211692313294" lon="9.143933944450039"><ele>731.0</ele><time>2026-05-02T13:15:16Z</time></trkpt><trkpt lat="44.502196253340095" lon="9.144252883343196"><ele>725.0</ele><time>2026-05-02T13:15:17Z</time></trkpt><trkpt lat="44.502289586928406" lon="9.144533014428864"><ele>725.0</ele><time>2026-05-02T13:15:18Z</time></trkpt><trkpt lat="44.50235163561713" lon="9.144768743200592"><ele>725.0</ele><time>2026-05-02T13:15:19Z</time></trkpt><trkpt lat="44.502417887971895" lon="9.145009570409112"><ele>725.0</ele><time>2026-05-02T13:15:20Z</time></trkpt><trkpt lat="44.502455790926646" lon="9.145215882200478"><ele>721.3333333333333</ele><time>2026-05-02T13:15:21Z</time></trkpt><trkpt lat="44.50252032246079" lon="9.145411842689002"><ele>717.6666666666666</ele><time>2026-05-02T13:15:22Z</time></trkpt><trkpt lat="44.5025852844956" lon="9.145709893004463"><ele>714.0</ele><time>2026-05-02T13:15:23Z</time></trkpt><trkpt lat="44.5026691703042" lon="9.145990747579122"><ele>711.6666666666666</ele><time>2026-05-02T13:15:24Z</time></trkpt><trkpt lat="44.502734550124195" lon="9.14625916872007"><ele>709.3333333333333</ele><time>2026-05-02T13:15:25Z</time></trkpt><trkpt lat="44.50280032807596" lon="9.146523055762827"><ele>707.0</ele><time>2026-05-02T13:15:26Z</time></trkpt><trkpt lat="44.50287176530884" lon="9.146796313983268"><ele>709.6666666666666</ele><time>2026-05-02T13:15:27Z</time></trkpt><trkpt lat="44.50296466714374" lon="9.147075306628146"><ele>712.3333333333334</ele><time>2026-05-02T13:15:28Z</time></trkpt><trkpt lat="44.503059452755" lon="9.147342654587172"><ele>715.0</ele><time>2026-05-02T13:15:29Z</time></trkpt><trkpt lat="44.50316041199741" lon="9.147598786404442"><ele>715.0</ele><time>2026-05-02T13:15:30Z</time></trkpt><trkpt lat="44.50326669756391" lon="9.147841795037905"><ele>715.0</ele><time>2026-05-02T13:15:31Z</time></trkpt><trkpt lat="44.50338033821155" lon="9.148077183597692"><ele>715.0</ele><time>2026-05-02T13:15:32Z</time></trkpt><trkpt lat="44.50350056516283" lon="9.14830697517134"><ele>710.0</ele><time>2026-05-02T13:15:33Z</time></trkpt><trkpt lat="44.503629547858345" lon="9.148530847400435"><ele>705.0</ele><time>2026-05-02T13:15:34Z</time></trkpt><trkpt lat="44.503768251089824" lon="9.148745559869344"><ele>700.0</ele><time>2026-05-02T13:15:35Z</time></trkpt><trkpt lat="44.50391424633007" lon="9.148952049096719"><ele>704.0</ele><time>2026-05-02T13:15:36Z</time></trkpt><trkpt lat="44.50406589027348" lon="9.149151148805185"><ele>708.0</ele><time>2026-05-02T13:15:37Z</time></trkpt><trkpt lat="44.5042287655063" lon="9.149344929958817"><ele>712.0</ele><time>2026-05-02T13:15:38Z</time></trkpt><trkpt lat="44.504403832413715" lon="9.149532268607398"><ele>721.0</ele><time>2026-05-02T13:15:39Z</time></trkpt><trkpt lat="44.50458405338868" lon="9.14971367480949"><ele>730.0</ele><time>2026-05-02T13:15:40Z</time></trkpt><trkpt lat="44.50476304618957" lon="9.149890140991172"><ele>739.0</ele><time>2026-05-02T13:15:41Z</time></trkpt><trkpt lat="44.50494479324091" lon="9.150062960910342"><ele>740.0</ele><time>2026-05-02T13:15:42Z</time></trkpt><trkpt lat="44.50512428263028" lon="9.150234148806067"><ele>741.0</ele><time>2026-05-02T13:15:43Z</time></trkpt><trkpt lat="44.50530475574443" lon="9.150404297609297"><ele>742.0</ele><time>2026-05-02T13:15:44Z</time></trkpt><trkpt lat="44.505471642398305" lon="9.150593153110865"><ele>746.6666666666667</ele><time>2026-05-02T13:15:45Z</time></trkpt><trkpt lat="44.50564390377141" lon="9.150761126912965"><ele>751.3333333333334</ele><time>2026-05-02T13:15:46Z</time></trkpt><trkpt lat="44.50581371238919" lon="9.150926708996046"><ele>756.0</ele><time>2026-05-02T13:15:47Z</time></trkpt><trkpt lat="44.50598090539703" lon="9.151089244316147"><ele>756.0</ele><time>2026-05-02T13:15:48Z</time></trkpt><trkpt lat="44.506145242320024" lon="9.151248729591504"><ele>756.0</ele><time>2026-05-02T13:15:49Z</time></trkpt><trkpt lat="44.50630581620971" lon="9.151404562864293"><ele>756.0</ele><time>2026-05-02T13:15:50Z</time></trkpt><trkpt lat="44.50646450321261" lon="9.151556701632217"><ele>741.5</ele><time>2026-05-02T13:15:51Z</time></trkpt><trkpt lat="44.50669497186533" lon="9.15177681341701"><ele>727.0</ele><time>2026-05-02T13:15:52Z</time></trkpt><trkpt lat="44.50689873712671" lon="9.151973668181164"><ele>727.0</ele><time>2026-05-02T13:15:53Z</time></trkpt><trkpt lat="44.507045424595916" lon="9.152128626168594"><ele>727.0</ele><time>2026-05-02T13:15:54Z</time></trkpt><trkpt lat="44.507200801308855" lon="9.15228343732339"><ele>727.0</ele><time>2026-05-02T13:15:55Z</time></trkpt><trkpt lat="44.50736071400667" lon="9.152431283955384"><ele>729.0</ele><time>2026-05-02T13:15:56Z</time></trkpt><trkpt lat="44.50751991754799" lon="9.152568087388907"><ele>731.0</ele><time>2026-05-02T13:15:57Z</time></trkpt><trkpt lat="44.507689074273365" lon="9.152730335176317"><ele>733.0</ele><time>2026-05-02T13:15:58Z</time></trkpt><trkpt lat="44.50785159650202" lon="9.152885236457134"><ele>736.6666666666667</ele><time>2026-05-02T13:15:59Z</time></trkpt><trkpt lat="44.50802166002481" lon="9.153026120634545"><ele>740.3333333333334</ele><time>2026-05-02T13:16:00Z</time></trkpt><trkpt lat="44.50820262586675" lon="9.15314739326938"><ele>744.0</ele><time>2026-05-02T13:16:01Z</time></trkpt><trkpt lat="44.50839223097692" lon="9.153260239911015"><ele>744.0</ele><time>2026-05-02T13:16:02Z</time></trkpt><trkpt lat="44.50858176512" lon="9.153368639900362"><ele>744.0</ele><time>2026-05-02T13:16:03Z</time></trkpt><trkpt lat="44.50878420447008" lon="9.153493508037116"><ele>744.0</ele><time>2026-05-02T13:16:04Z</time></trkpt><trkpt lat="44.50901153343505" lon="9.153600416137557"><ele>742.6666666666666</ele><time>2026-05-02T13:16:05Z</time></trkpt><trkpt lat="44.50922360612993" lon="9.153668197055843"><ele>741.3333333333333</ele><time>2026-05-02T13:16:06Z</time></trkpt><trkpt lat="44.50943237125199" lon="9.153741807931253"><ele>740.0</ele><time>2026-05-02T13:16:07Z</time></trkpt><trkpt lat="44.50964207923258" lon="9.153817910457814"><ele>740.0</ele><time>2026-05-02T13:16:08Z</time></trkpt><trkpt lat="44.50985007494064" lon="9.153895676026357"><ele>740.0</ele><time>2026-05-02T13:16:09Z</time></trkpt><trkpt lat="44.51006134922314" lon="9.153971788244407"><ele>740.0</ele><time>2026-05-02T13:16:10Z</time></trkpt><trkpt lat="44.5102737013935" lon="9.15404629541919"><ele>738.3333333333333</ele><time>2026-05-02T13:16:11Z</time></trkpt><trkpt lat="44.5104831187673" lon="9.154122497546915"><ele>736.6666666666666</ele><time>2026-05-02T13:16:12Z</time></trkpt><trkpt lat="44.51069108007645" lon="9.154200055964509"><ele>735.0</ele><time>2026-05-02T13:16:13Z</time></trkpt><trkpt lat="44.510899866579464" lon="9.154282896931603"><ele>735.0</ele><time>2026-05-02T13:16:14Z</time></trkpt><trkpt lat="44.511064886746524" lon="9.154555841051957"><ele>735.0</ele><time>2026-05-02T13:16:15Z</time></trkpt><trkpt lat="44.51127022813257" lon="9.15464380384497"><ele>736.3333333333334</ele><time>2026-05-02T13:16:16Z</time></trkpt><trkpt lat="44.511476502171256" lon="9.154724855861545"><ele>737.6666666666667</ele><time>2026-05-02T13:16:17Z</time></trkpt><trkpt lat="44.51169758108883" lon="9.154735197282642"><ele>739.0</ele><time>2026-05-02T13:16:18Z</time></trkpt><trkpt lat="44.511884508889686" lon="9.154891846787866"><ele>739.0</ele><time>2026-05-02T13:16:19Z</time></trkpt><trkpt lat="44.5120637162418" lon="9.155062109512697"><ele>739.0</ele><time>2026-05-02T13:16:20Z</time></trkpt><trkpt lat="44.51223723225217" lon="9.155242567250623"><ele>739.0</ele><time>2026-05-02T13:16:21Z</time></trkpt><trkpt lat="44.51240843072538" lon="9.155432603021191"><ele>737.6666666666667</ele><time>2026-05-02T13:16:22Z</time></trkpt><trkpt lat="44.512574037555524" lon="9.155628291378395"><ele>736.3333333333334</ele><time>2026-05-02T13:16:23Z</time></trkpt><trkpt lat="44.5127363507497" lon="9.155829607698545"><ele>735.0</ele><time>2026-05-02T13:16:24Z</time></trkpt><trkpt lat="44.51289279348015" lon="9.15603901082398"><ele>738.0</ele><time>2026-05-02T13:16:25Z</time></trkpt><trkpt lat="44.51303787206946" lon="9.156267299244744"><ele>741.0</ele><time>2026-05-02T13:16:26Z</time></trkpt><trkpt lat="44.51316632800849" lon="9.156510154175468"><ele>744.0</ele><time>2026-05-02T13:16:27Z</time></trkpt><trkpt lat="44.51328541294557" lon="9.156762937676744"><ele>744.0</ele><time>2026-05-02T13:16:28Z</time></trkpt><trkpt lat="44.51339779431898" lon="9.157021698746414"><ele>744.0</ele><time>2026-05-02T13:16:29Z</time></trkpt><trkpt lat="44.51350011136299" lon="9.157288843729594"><ele>744.0</ele><time>2026-05-02T13:16:30Z</time></trkpt><trkpt lat="44.51359114583007" lon="9.157564151950773"><ele>744.0</ele><time>2026-05-02T13:16:31Z</time></trkpt><trkpt lat="44.51367140971113" lon="9.157846885015164"><ele>744.0</ele><time>2026-05-02T13:16:32Z</time></trkpt><trkpt lat="44.5137456130942" lon="9.158137828438079"><ele>744.0</ele><time>2026-05-02T13:16:33Z</time></trkpt><trkpt lat="44.51382008503609" lon="9.158409674312237"><ele>744.0</ele><time>2026-05-02T13:16:34Z</time></trkpt><trkpt lat="44.51387402786479" lon="9.1587031234371"><ele>744.0</ele><time>2026-05-02T13:16:35Z</time></trkpt><trkpt lat="44.51391203384128" lon="9.158998292375857"><ele>744.0</ele><time>2026-05-02T13:16:36Z</time></trkpt><trkpt lat="44.51393935850826" lon="9.159296915551067"><ele>739.6666666666666</ele><time>2026-05-02T13:16:37Z</time></trkpt><trkpt lat="44.51395697632175" lon="9.15959747678892"><ele>735.3333333333333</ele><time>2026-05-02T13:16:38Z</time></trkpt><trkpt lat="44.513968964406295" lon="9.159899769384337"><ele>731.0</ele><time>2026-05-02T13:16:39Z</time></trkpt><trkpt lat="44.51397064178969" lon="9.160201079040439"><ele>728.3333333333333</ele><time>2026-05-02T13:16:40Z</time></trkpt><trkpt lat="44.51395705256095" lon="9.16050226049227"><ele>725.6666666666666</ele><time>2026-05-02T13:16:41Z</time></trkpt><trkpt lat="44.51393430176769" lon="9.160801490142626"><ele>723.0</ele><time>2026-05-02T13:16:42Z</time></trkpt><trkpt lat="44.513902514797806" lon="9.161099706816337"><ele>723.0</ele><time>2026-05-02T13:16:43Z</time></trkpt><trkpt lat="44.51386160483048" lon="9.16139645923907"><ele>723.0</ele><time>2026-05-02T13:16:44Z</time></trkpt><trkpt lat="44.513809426550466" lon="9.161688596496672"><ele>723.0</ele><time>2026-05-02T13:16:45Z</time></trkpt><trkpt lat="44.5137436652751" lon="9.161976469595823"><ele>732.0</ele><time>2026-05-02T13:16:46Z</time></trkpt><trkpt lat="44.51367522165983" lon="9.16226160926877"><ele>741.0</ele><time>2026-05-02T13:16:47Z</time></trkpt><trkpt lat="44.51360575898288" lon="9.162544968626959"><ele>750.0</ele><time>2026-05-02T13:16:48Z</time></trkpt><trkpt lat="44.513534355436086" lon="9.162829767411328"><ele>756.3333333333333</ele><time>2026-05-02T13:16:49Z</time></trkpt><trkpt lat="44.513463015623095" lon="9.163111394392747"><ele>762.6666666666666</ele><time>2026-05-02T13:16:50Z</time></trkpt><trkpt lat="44.51339222679742" lon="9.16339158251905"><ele>769.0</ele><time>2026-05-02T13:16:51Z</time></trkpt><trkpt lat="44.51332280874664" lon="9.163670472511532"><ele>774.3333333333333</ele><time>2026-05-02T13:16:52Z</time></trkpt><trkpt lat="44.51325536468437" lon="9.16394872415286"><ele>779.6666666666667</ele><time>2026-05-02T13:16:53Z</time></trkpt><trkpt lat="44.513189034038824" lon="9.16422496508259"><ele>785.0</ele><time>2026-05-02T13:16:54Z</time></trkpt><trkpt lat="44.51312248406676" lon="9.164499939557533"><ele>792.3333333333334</ele><time>2026-05-02T13:16:55Z</time></trkpt><trkpt lat="44.51305589026639" lon="9.16477279006266"><ele>799.6666666666667</ele><time>2026-05-02T13:16:56Z</time></trkpt><trkpt lat="44.512989573575545" lon="9.165044512130393"><ele>807.0</ele><time>2026-05-02T13:16:57Z</time></trkpt><trkpt lat="44.51288703390117" lon="9.165395045092705"><ele>817.6666666666667</ele><time>2026-05-02T13:16:58Z</time></trkpt><trkpt lat="44.5128118160292" lon="9.165678059119248"><ele>828.3333333333334</ele><time>2026-05-02T13:16:59Z</time></trkpt><trkpt lat="44.512741408659835" lon="9.165963032662933"><ele>839.0</ele><time>2026-05-02T13:17:00Z</time></trkpt><trkpt lat="44.512672905249765" lon="9.166247863226495"><ele>851.0</ele><time>2026-05-02T13:17:01Z</time></trkpt><trkpt lat="44.51260495062956" lon="9.166531470294704"><ele>863.0</ele><time>2026-05-02T13:17:02Z</time></trkpt><trkpt lat="44.51253285694362" lon="9.166813203599265"><ele>875.0</ele><time>2026-05-02T13:17:03Z</time></trkpt><trkpt lat="44.51245999504379" lon="9.167094781534228"><ele>877.0</ele><time>2026-05-02T13:17:04Z</time></trkpt><trkpt lat="44.51239229960301" lon="9.167378101944388"><ele>879.0</ele><time>2026-05-02T13:17:05Z</time></trkpt><trkpt lat="44.51232221588015" lon="9.167661379625972"><ele>881.0</ele><time>2026-05-02T13:17:06Z</time></trkpt><trkpt lat="44.512255944461636" lon="9.167946104415003"><ele>881.3333333333334</ele><time>2026-05-02T13:17:07Z</time></trkpt><trkpt lat="44.51218361775694" lon="9.168226719061776"><ele>881.6666666666667</ele><time>2026-05-02T13:17:08Z</time></trkpt><trkpt lat="44.51211302411493" lon="9.168509059100248"><ele>882.0</ele><time>2026-05-02T13:17:09Z</time></trkpt><trkpt lat="44.51203921932385" lon="9.168786072066682"><ele>888.0</ele><time>2026-05-02T13:17:10Z</time></trkpt><trkpt lat="44.51196522728266" lon="9.16905724265253"><ele>894.0</ele><time>2026-05-02T13:17:11Z</time></trkpt><trkpt lat="44.511894191073154" lon="9.169333692050134"><ele>900.0</ele><time>2026-05-02T13:17:12Z</time></trkpt><trkpt lat="44.51182404336563" lon="9.169611691677789"><ele>900.3333333333333</ele><time>2026-05-02T13:17:13Z</time></trkpt><trkpt lat="44.511750284169814" lon="9.169888308035718"><ele>900.6666666666666</ele><time>2026-05-02T13:17:14Z</time></trkpt><trkpt lat="44.511677116517866" lon="9.170165357507402"><ele>901.0</ele><time>2026-05-02T13:17:15Z</time></trkpt><trkpt lat="44.51160316947966" lon="9.17044092771051"><ele>902.0</ele><time>2026-05-02T13:17:16Z</time></trkpt><trkpt lat="44.511531815537474" lon="9.170718370280873"><ele>903.0</ele><time>2026-05-02T13:17:17Z</time></trkpt><trkpt lat="44.51146255105927" lon="9.170993418381535"><ele>904.0</ele><time>2026-05-02T13:17:18Z</time></trkpt><trkpt lat="44.511390489842825" lon="9.171271308002758"><ele>904.3333333333333</ele><time>2026-05-02T13:17:19Z</time></trkpt><trkpt lat="44.511320173977225" lon="9.171550987863528"><ele>904.6666666666667</ele><time>2026-05-02T13:17:20Z</time></trkpt><trkpt lat="44.511248868282706" lon="9.17183015838972"><ele>905.0</ele><time>2026-05-02T13:17:21Z</time></trkpt><trkpt lat="44.511179677091036" lon="9.172108554501115"><ele>901.6666666666667</ele><time>2026-05-02T13:17:22Z</time></trkpt><trkpt lat="44.511121426535944" lon="9.172360615095968"><ele>898.3333333333333</ele><time>2026-05-02T13:17:23Z</time></trkpt><trkpt lat="44.51104644120011" lon="9.172643467986443"><ele>895.0</ele><time>2026-05-02T13:17:24Z</time></trkpt><trkpt lat="44.510972861179845" lon="9.172913807488188"><ele>798.0</ele><time>2026-05-02T13:17:25.013Z</time></trkpt><trkpt lat="44.50903899767215" lon="9.183192514856215"><ele>798.0</ele><time>2026-05-02T13:18:00Z</time></trkpt><trkpt lat="44.50900126571664" lon="9.183484190073868"><ele>798.0</ele><time>2026-05-02T13:18:01Z</time></trkpt><trkpt lat="44.5089580052002" lon="9.183757065557995"><ele>798.0</ele><time>2026-05-02T13:18:02Z</time></trkpt><trkpt lat="44.50889998576918" lon="9.184020198353373"><ele>796.3333333333333</ele><time>2026-05-02T13:18:03Z</time></trkpt><trkpt lat="44.50886121160958" lon="9.184275478596598"><ele>794.6666666666666</ele><time>2026-05-02T13:18:04Z</time></trkpt><trkpt lat="44.50882352397627" lon="9.18452952167644"><ele>793.0</ele><time>2026-05-02T13:18:05Z</time></trkpt><trkpt lat="44.50878717435564" lon="9.184793325412326"><ele>793.0</ele><time>2026-05-02T13:18:06Z</time></trkpt><trkpt lat="44.50875316578215" lon="9.185062549961042"><ele>793.0</ele><time>2026-05-02T13:18:07Z</time></trkpt><trkpt lat="44.50871472812967" lon="9.185341410622216"><ele>793.0</ele><time>2026-05-02T13:18:08Z</time></trkpt><trkpt lat="44.50867247122999" lon="9.185633074640899"><ele>801.3333333333333</ele><time>2026-05-02T13:18:09Z</time></trkpt><trkpt lat="44.50862594237091" lon="9.185934738869168"><ele>809.6666666666667</ele><time>2026-05-02T13:18:10Z</time></trkpt><trkpt lat="44.508581055335036" lon="9.186212789968767"><ele>818.0</ele><time>2026-05-02T13:18:11Z</time></trkpt><trkpt lat="44.50853895957023" lon="9.186478755924554"><ele>814.3333333333334</ele><time>2026-05-02T13:18:12Z</time></trkpt><trkpt lat="44.508495255066215" lon="9.186749228739675"><ele>810.6666666666667</ele><time>2026-05-02T13:18:13Z</time></trkpt><trkpt lat="44.508453516870055" lon="9.187014989702568"><ele>807.0</ele><time>2026-05-02T13:18:14Z</time></trkpt><trkpt lat="44.50842440873892" lon="9.187531421668949"><ele>807.3333333333333</ele><time>2026-05-02T13:18:16Z</time></trkpt><trkpt lat="44.50845108712016" lon="9.187788852268621"><ele>807.6666666666666</ele><time>2026-05-02T13:18:17Z</time></trkpt><trkpt lat="44.50850618921969" lon="9.188047819506155"><ele>808.0</ele><time>2026-05-02T13:18:18Z</time></trkpt><trkpt lat="44.5085863820324" lon="9.188290860991524"><ele>808.0</ele><time>2026-05-02T13:18:19Z</time></trkpt><trkpt lat="44.508686457644366" lon="9.188518069509843"><ele>808.0</ele><time>2026-05-02T13:18:20Z</time></trkpt><trkpt lat="44.50880846009616" lon="9.18872849665102"><ele>808.0</ele><time>2026-05-02T13:18:21Z</time></trkpt><trkpt lat="44.50893899171972" lon="9.188917809524655"><ele>802.3333333333333</ele><time>2026-05-02T13:18:22Z</time></trkpt><trkpt lat="44.50907612202449" lon="9.189067409605856"><ele>796.6666666666667</ele><time>2026-05-02T13:18:23Z</time></trkpt><trkpt lat="44.50921821273153" lon="9.189201227547791"><ele>791.0</ele><time>2026-05-02T13:18:24Z</time></trkpt><trkpt lat="44.50935959020463" lon="9.189335971863756"><ele>791.0</ele><time>2026-05-02T13:18:25Z</time></trkpt><trkpt lat="44.50949066307386" lon="9.189478584215662"><ele>791.0</ele><time>2026-05-02T13:18:26Z</time></trkpt><trkpt lat="44.509609174062035" lon="9.189636975968476"><ele>791.0</ele><time>2026-05-02T13:18:27Z</time></trkpt><trkpt lat="44.5097075808234" lon="9.189824062070013"><ele>786.3333333333334</ele><time>2026-05-02T13:18:28Z</time></trkpt><trkpt lat="44.50979243424924" lon="9.190033548845465"><ele>781.6666666666667</ele><time>2026-05-02T13:18:29Z</time></trkpt><trkpt lat="44.50985606117405" lon="9.190261604169619"><ele>777.0</ele><time>2026-05-02T13:18:30Z</time></trkpt><trkpt lat="44.509891164574924" lon="9.19050066352053"><ele>777.0</ele><time>2026-05-02T13:18:31Z</time></trkpt><trkpt lat="44.509900056133134" lon="9.19074810787138"><ele>777.0</ele><time>2026-05-02T13:18:32Z</time></trkpt><trkpt lat="44.5098845281195" lon="9.190995107018692"><ele>777.0</ele><time>2026-05-02T13:18:33Z</time></trkpt><trkpt lat="44.50984663957169" lon="9.191238988503445"><ele>777.0</ele><time>2026-05-02T13:18:34Z</time></trkpt><trkpt lat="44.50979239048748" lon="9.191475574284516"><ele>777.0</ele><time>2026-05-02T13:18:35Z</time></trkpt><trkpt lat="44.50973306448158" lon="9.191723011786275"><ele>777.0</ele><time>2026-05-02T13:18:36Z</time></trkpt><trkpt lat="44.509673639507554" lon="9.191981275396328"><ele>779.0</ele><time>2026-05-02T13:18:37Z</time></trkpt><trkpt lat="44.50962254072849" lon="9.19225953394715"><ele>781.0</ele><time>2026-05-02T13:18:38Z</time></trkpt><trkpt lat="44.50958729529686" lon="9.192552936178338"><ele>783.0</ele><time>2026-05-02T13:18:39Z</time></trkpt><trkpt lat="44.50957431285991" lon="9.192833548536417"><ele>783.0</ele><time>2026-05-02T13:18:40Z</time></trkpt><trkpt lat="44.50957562670099" lon="9.193109631581464"><ele>783.0</ele><time>2026-05-02T13:18:41Z</time></trkpt><trkpt lat="44.5096009932673" lon="9.1932850296522"><ele>783.0</ele><time>2026-05-02T13:18:42Z</time></trkpt><trkpt lat="44.509625495365135" lon="9.19347462216524"><ele>784.3333333333333</ele><time>2026-05-02T13:18:43Z</time></trkpt><trkpt lat="44.50961376884224" lon="9.193704318459082"><ele>785.6666666666666</ele><time>2026-05-02T13:18:44Z</time></trkpt><trkpt lat="44.5095748338352" lon="9.193929848004531"><ele>787.0</ele><time>2026-05-02T13:18:45Z</time></trkpt><trkpt lat="44.50950681805346" lon="9.194149399001354"><ele>787.0</ele><time>2026-05-02T13:18:46Z</time></trkpt><trkpt lat="44.509411768588954" lon="9.194333270443622"><ele>787.0</ele><time>2026-05-02T13:18:47Z</time></trkpt><trkpt lat="44.50930242211423" lon="9.194482501004567"><ele>787.0</ele><time>2026-05-02T13:18:48Z</time></trkpt><trkpt lat="44.50917737945995" lon="9.194594746440943"><ele>787.0</ele><time>2026-05-02T13:18:49Z</time></trkpt><trkpt lat="44.50905261184473" lon="9.194667091748771"><ele>787.0</ele><time>2026-05-02T13:18:50Z</time></trkpt><trkpt lat="44.50896795213855" lon="9.194755226615206"><ele>787.0</ele><time>2026-05-02T13:18:51Z</time></trkpt><trkpt lat="44.50889613695253" lon="9.19484514235509"><ele>787.0</ele><time>2026-05-02T13:18:52Z</time></trkpt><trkpt lat="44.50885067348114" lon="9.194959874743207"><ele>787.0</ele><time>2026-05-02T13:18:53Z</time></trkpt><trkpt lat="44.50883174762623" lon="9.195095304366449"><ele>783.8</ele><time>2026-05-02T13:18:54Z</time></trkpt><trkpt lat="44.5088469614829" lon="9.195233005711254"><ele>780.6</ele><time>2026-05-02T13:18:55Z</time></trkpt><trkpt lat="44.50888925662913" lon="9.19536820429814"><ele>777.4</ele><time>2026-05-02T13:18:56Z</time></trkpt><trkpt lat="44.50893035411228" lon="9.195510242050696"><ele>774.1999999999999</ele><time>2026-05-02T13:18:57Z</time></trkpt><trkpt lat="44.50897059044111" lon="9.195662553496826"><ele>771.0</ele><time>2026-05-02T13:18:58Z</time></trkpt><trkpt lat="44.509003301963155" lon="9.195806964686886"><ele>771.0</ele><time>2026-05-02T13:18:59Z</time></trkpt><trkpt lat="44.509025544807" lon="9.195917026873166"><ele>771.0</ele><time>2026-05-02T13:19:00Z</time></trkpt><trkpt lat="44.50903885457033" lon="9.19601696195241"><ele>771.0</ele><time>2026-05-02T13:19:01Z</time></trkpt><trkpt lat="44.50903861051625" lon="9.196174711670224"><ele>771.0</ele><time>2026-05-02T13:19:03Z</time></trkpt><trkpt lat="44.50900822022894" lon="9.196309959831245"><ele>771.0</ele><time>2026-05-02T13:19:05Z</time></trkpt><trkpt lat="44.50900948756422" lon="9.196425306130303"><ele>771.1666666666666</ele><time>2026-05-02T13:19:07Z</time></trkpt><trkpt lat="44.50899690687701" lon="9.19651429917072"><ele>771.3333333333333</ele><time>2026-05-02T13:19:54Z</time></trkpt><trkpt lat="44.508992980494604" lon="9.196621568410537"><ele>771.5</ele><time>2026-05-02T13:20:41Z</time></trkpt><trkpt lat="44.50902987143831" lon="9.196756432109899"><ele>771.6666666666666</ele><time>2026-05-02T13:20:43Z</time></trkpt><trkpt lat="44.50912738185121" lon="9.196864118995546"><ele>771.8333333333333</ele><time>2026-05-02T13:20:45Z</time></trkpt><trkpt lat="44.50919823405074" lon="9.196862763752561"><ele>772.0</ele><time>2026-05-02T13:20:46Z</time></trkpt><trkpt lat="44.509272548527086" lon="9.196890589405111"><ele>772.0</ele><time>2026-05-02T13:20:47Z</time></trkpt><trkpt lat="44.50933826257556" lon="9.196920884544118"><ele>772.0</ele><time>2026-05-02T13:20:48Z</time></trkpt><trkpt lat="44.509420120751095" lon="9.19702772401069"><ele>772.0</ele><time>2026-05-02T13:20:50Z</time></trkpt><trkpt lat="44.50943216071224" lon="9.197208688329086"><ele>772.0</ele><time>2026-05-02T13:20:52Z</time></trkpt><trkpt lat="44.50937417061586" lon="9.19734898527799"><ele>772.0</ele><time>2026-05-02T13:20:54Z</time></trkpt><trkpt lat="44.5092410933822" lon="9.197365819053982"><ele>772.6666666666666</ele><time>2026-05-02T13:20:56Z</time></trkpt><trkpt lat="44.50915472892454" lon="9.197365149889142"><ele>773.3333333333333</ele><time>2026-05-02T13:20:57Z</time></trkpt><trkpt lat="44.509060351237686" lon="9.197388012774095"><ele>774.0</ele><time>2026-05-02T13:20:58Z</time></trkpt><trkpt lat="44.50897603097107" lon="9.197399973701879"><ele>774.6666666666667</ele><time>2026-05-02T13:20:59Z</time></trkpt><trkpt lat="44.5089068504008" lon="9.197438334697464"><ele>775.3333333333334</ele><time>2026-05-02T13:21:00Z</time></trkpt><trkpt lat="44.50885489338895" lon="9.197506024604559"><ele>776.0</ele><time>2026-05-02T13:21:01Z</time></trkpt><trkpt lat="44.508827298413884" lon="9.197585653540866"><ele>776.0</ele><time>2026-05-02T13:21:02Z</time></trkpt><trkpt lat="44.508813016201145" lon="9.197682198622635"><ele>776.0</ele><time>2026-05-02T13:21:03Z</time></trkpt><trkpt lat="44.508816844249566" lon="9.19779771096287"><ele>776.0</ele><time>2026-05-02T13:21:04Z</time></trkpt><trkpt lat="44.508832547275695" lon="9.197920435519636"><ele>776.0</ele><time>2026-05-02T13:21:05Z</time></trkpt><trkpt lat="44.508863585158835" lon="9.198179511312997"><ele>776.0</ele><time>2026-05-02T13:21:07Z</time></trkpt><trkpt lat="44.508880171621506" lon="9.198312907457781"><ele>776.5714285714286</ele><time>2026-05-02T13:21:08Z</time></trkpt><trkpt lat="44.508898169737066" lon="9.19843822704139"><ele>777.1428571428572</ele><time>2026-05-02T13:21:09Z</time></trkpt><trkpt lat="44.50891801201734" lon="9.198536298726442"><ele>777.7142857142858</ele><time>2026-05-02T13:21:10Z</time></trkpt><trkpt lat="44.50894905003126" lon="9.198614601569682"><ele>778.2857142857142</ele><time>2026-05-02T13:21:11Z</time></trkpt><trkpt lat="44.50899667041203" lon="9.198684827465366"><ele>778.8571428571429</ele><time>2026-05-02T13:21:12Z</time></trkpt><trkpt lat="44.509057917764686" lon="9.19873732640563"><ele>779.4285714285714</ele><time>2026-05-02T13:21:13Z</time></trkpt><trkpt lat="44.50913183358861" lon="9.198763016295356"><ele>780.0</ele><time>2026-05-02T13:21:14Z</time></trkpt><trkpt lat="44.50921591364986" lon="9.19876849303114"><ele>780.0</ele><time>2026-05-02T13:21:15Z</time></trkpt><trkpt lat="44.50930374125401" lon="9.198764604549027"><ele>780.0</ele><time>2026-05-02T13:21:16Z</time></trkpt><trkpt lat="44.509403541906124" lon="9.198765746586888"><ele>780.0</ele><time>2026-05-02T13:21:17Z</time></trkpt><trkpt lat="44.50951308572754" lon="9.198776517686314"><ele>780.0</ele><time>2026-05-02T13:21:18Z</time></trkpt><trkpt lat="44.50961949001981" lon="9.198795774112021"><ele>780.0</ele><time>2026-05-02T13:21:19Z</time></trkpt><trkpt lat="44.509722179810275" lon="9.198815655301647"><ele>780.8</ele><time>2026-05-02T13:21:20Z</time></trkpt><trkpt lat="44.50980842655551" lon="9.198851808567706"><ele>781.6</ele><time>2026-05-02T13:21:21Z</time></trkpt><trkpt lat="44.509881566024696" lon="9.198917930455842"><ele>782.4000000000001</ele><time>2026-05-02T13:21:22Z</time></trkpt><trkpt lat="44.50994294990747" lon="9.199016763839612"><ele>783.2</ele><time>2026-05-02T13:21:23Z</time></trkpt><trkpt lat="44.51000335511384" lon="9.199131501121323"><ele>784.0</ele><time>2026-05-02T13:21:24Z</time></trkpt><trkpt lat="44.51007161983347" lon="9.19926466385495"><ele>784.0</ele><time>2026-05-02T13:21:25Z</time></trkpt><trkpt lat="44.51014834181388" lon="9.19940249226949"><ele>784.0</ele><time>2026-05-02T13:21:26Z</time></trkpt><trkpt lat="44.510226240369" lon="9.19953921330157"><ele>784.0</ele><time>2026-05-02T13:21:27Z</time></trkpt><trkpt lat="44.51030233804477" lon="9.199678523850524"><ele>784.0</ele><time>2026-05-02T13:21:28Z</time></trkpt><trkpt lat="44.51037243169049" lon="9.199819224918638"><ele>789.25</ele><time>2026-05-02T13:21:29Z</time></trkpt><trkpt lat="44.51042313763494" lon="9.19997064244534"><ele>794.5</ele><time>2026-05-02T13:21:30Z</time></trkpt><trkpt lat="44.510447540022646" lon="9.200142025700794"><ele>799.75</ele><time>2026-05-02T13:21:31Z</time></trkpt><trkpt lat="44.510451548598205" lon="9.200302847519326"><ele>805.0</ele><time>2026-05-02T13:21:32Z</time></trkpt><trkpt lat="44.5104553897541" lon="9.200456749022925"><ele>805.0</ele><time>2026-05-02T13:21:33Z</time></trkpt><trkpt lat="44.51045531898693" lon="9.200607342046816"><ele>805.0</ele><time>2026-05-02T13:21:34Z</time></trkpt><trkpt lat="44.51043142285135" lon="9.200749255724517"><ele>805.0</ele><time>2026-05-02T13:21:35Z</time></trkpt><trkpt lat="44.51037972873386" lon="9.200872535946507"><ele>805.0</ele><time>2026-05-02T13:21:36Z</time></trkpt><trkpt lat="44.510321469965476" lon="9.200995425764672"><ele>805.0</ele><time>2026-05-02T13:21:37Z</time></trkpt><trkpt lat="44.51026981893128" lon="9.20113153597669"><ele>796.0</ele><time>2026-05-02T13:21:38Z</time></trkpt><trkpt lat="44.5102165797357" lon="9.201276527878552"><ele>787.0</ele><time>2026-05-02T13:21:39Z</time></trkpt><trkpt lat="44.51016378985163" lon="9.201425840595629"><ele>778.0</ele><time>2026-05-02T13:21:40Z</time></trkpt><trkpt lat="44.510108017843315" lon="9.201575463316637"><ele>769.0</ele><time>2026-05-02T13:21:41Z</time></trkpt><trkpt lat="44.51004776267264" lon="9.201737193216214"><ele>769.0</ele><time>2026-05-02T13:21:42Z</time></trkpt><trkpt lat="44.5099763757573" lon="9.201930248791685"><ele>769.0</ele><time>2026-05-02T13:21:43Z</time></trkpt><trkpt lat="44.509890754963344" lon="9.202139737168311"><ele>769.0</ele><time>2026-05-02T13:21:44Z</time></trkpt><trkpt lat="44.509802467094055" lon="9.202335783870236"><ele>768.0</ele><time>2026-05-02T13:21:45Z</time></trkpt><trkpt lat="44.509726049536845" lon="9.202496810368359"><ele>767.0</ele><time>2026-05-02T13:21:46Z</time></trkpt><trkpt lat="44.5096682205724" lon="9.202616645195576"><ele>766.0</ele><time>2026-05-02T13:21:47Z</time></trkpt><trkpt lat="44.50961865279483" lon="9.202728983166589"><ele>765.0</ele><time>2026-05-02T13:21:48Z</time></trkpt><trkpt lat="44.509568123363806" lon="9.202856592986668"><ele>764.0</ele><time>2026-05-02T13:21:49Z</time></trkpt><trkpt lat="44.509536960359505" lon="9.202998068599184"><ele>764.0</ele><time>2026-05-02T13:21:50Z</time></trkpt><trkpt lat="44.509539890892995" lon="9.203160589463414"><ele>764.0</ele><time>2026-05-02T13:21:51Z</time></trkpt><trkpt lat="44.50954245398472" lon="9.20336526777082"><ele>764.0</ele><time>2026-05-02T13:21:52Z</time></trkpt><trkpt lat="44.509558853727654" lon="9.203586619921952"><ele>764.0</ele><time>2026-05-02T13:21:53Z</time></trkpt><trkpt lat="44.509539475926545" lon="9.203822816367078"><ele>766.3333333333333</ele><time>2026-05-02T13:21:54Z</time></trkpt><trkpt lat="44.509522202971034" lon="9.204072110751502"><ele>768.6666666666666</ele><time>2026-05-02T13:21:55Z</time></trkpt><trkpt lat="44.50949407132437" lon="9.204295299419709"><ele>771.0</ele><time>2026-05-02T13:21:56Z</time></trkpt><trkpt lat="44.50947513389644" lon="9.204497560310784"><ele>771.0</ele><time>2026-05-02T13:21:57Z</time></trkpt><trkpt lat="44.50943530310254" lon="9.20468141877193"><ele>771.0</ele><time>2026-05-02T13:21:58Z</time></trkpt><trkpt lat="44.50935529618553" lon="9.204876307188206"><ele>771.0</ele><time>2026-05-02T13:21:59Z</time></trkpt><trkpt lat="44.50923373879508" lon="9.205100304354502"><ele>775.6666666666667</ele><time>2026-05-02T13:22:00Z</time></trkpt><trkpt lat="44.50909571662623" lon="9.205340536658689"><ele>780.3333333333334</ele><time>2026-05-02T13:22:01Z</time></trkpt><trkpt lat="44.508947168185244" lon="9.205585805780553"><ele>785.0</ele><time>2026-05-02T13:22:02Z</time></trkpt><trkpt lat="44.50881082705274" lon="9.205826657723167"><ele>781.6666666666667</ele><time>2026-05-02T13:22:03Z</time></trkpt><trkpt lat="44.508700811482406" lon="9.206045896083262"><ele>778.3333333333333</ele><time>2026-05-02T13:22:04Z</time></trkpt><trkpt lat="44.50859185515821" lon="9.206245466441425"><ele>775.0</ele><time>2026-05-02T13:22:05Z</time></trkpt><trkpt lat="44.50850926771054" lon="9.206517321819552"><ele>775.0</ele><time>2026-05-02T13:22:06Z</time></trkpt><trkpt lat="44.50844632124953" lon="9.206676514693967"><ele>775.0</ele><time>2026-05-02T13:22:07Z</time></trkpt><trkpt lat="44.50841584115436" lon="9.206827428165377"><ele>775.0</ele><time>2026-05-02T13:22:08Z</time></trkpt><trkpt lat="44.50843821306283" lon="9.20698199565599"><ele>775.0</ele><time>2026-05-02T13:22:09Z</time></trkpt><trkpt lat="44.50849825425975" lon="9.20717274155222"><ele>774.0</ele><time>2026-05-02T13:22:10Z</time></trkpt><trkpt lat="44.50858377146792" lon="9.207363629270487"><ele>773.0</ele><time>2026-05-02T13:22:11Z</time></trkpt><trkpt lat="44.50868771497783" lon="9.207500014859002"><ele>772.0</ele><time>2026-05-02T13:22:12Z</time></trkpt><trkpt lat="44.508822992474535" lon="9.207605392125771"><ele>781.3333333333333</ele><time>2026-05-02T13:22:13Z</time></trkpt><trkpt lat="44.50898498360827" lon="9.207698293423588"><ele>790.6666666666667</ele><time>2026-05-02T13:22:13.999Z</time></trkpt><trkpt lat="44.50916569740535" lon="9.207762099931957"><ele>800.0</ele><time>2026-05-02T13:22:14.999Z</time></trkpt><trkpt lat="44.50933025777776" lon="9.207774695504876"><ele>800.0</ele><time>2026-05-02T13:22:15.999Z</time></trkpt><trkpt lat="44.50946395746182" lon="9.20775686182851"><ele>800.0</ele><time>2026-05-02T13:22:16.999Z</time></trkpt><trkpt lat="44.50956330574437" lon="9.207754627633902"><ele>800.0</ele><time>2026-05-02T13:22:18Z</time></trkpt><trkpt lat="44.50963797814497" lon="9.20777732606094"><ele>800.0</ele><time>2026-05-02T13:22:19Z</time></trkpt><trkpt lat="44.509681348136766" lon="9.207851387393315"><ele>800.0</ele><time>2026-05-02T13:22:20Z</time></trkpt><trkpt lat="44.509676757917305" lon="9.207952112847876"><ele>803.5</ele><time>2026-05-02T13:22:21Z</time></trkpt><trkpt lat="44.50963517376287" lon="9.20807313942802"><ele>807.0</ele><time>2026-05-02T13:22:22Z</time></trkpt><trkpt lat="44.509547061129545" lon="9.208188932520583"><ele>810.5</ele><time>2026-05-02T13:22:23Z</time></trkpt><trkpt lat="44.50944145151101" lon="9.208295640800767"><ele>814.0</ele><time>2026-05-02T13:22:24Z</time></trkpt><trkpt lat="44.509340466874406" lon="9.208398599827468"><ele>807.2</ele><time>2026-05-02T13:22:25Z</time></trkpt><trkpt lat="44.509278735924774" lon="9.208511544180269"><ele>800.4000000000001</ele><time>2026-05-02T13:22:26Z</time></trkpt><trkpt lat="44.50925318442894" lon="9.208665739384223"><ele>793.6</ele><time>2026-05-02T13:22:27Z</time></trkpt><trkpt lat="44.50926284657421" lon="9.208817358202763"><ele>786.8</ele><time>2026-05-02T13:22:28Z</time></trkpt><trkpt lat="44.509321241221215" lon="9.208936243441102"><ele>780.0</ele><time>2026-05-02T13:22:29Z</time></trkpt><trkpt lat="44.509418687755435" lon="9.209035508359834"><ele>779.75</ele><time>2026-05-02T13:22:30Z</time></trkpt><trkpt lat="44.50952646961091" lon="9.20908236476071"><ele>779.5</ele><time>2026-05-02T13:22:31Z</time></trkpt><trkpt lat="44.5096220871823" lon="9.209070516898255"><ele>779.25</ele><time>2026-05-02T13:22:32Z</time></trkpt><trkpt lat="44.50970893832236" lon="9.208997627421835"><ele>779.0</ele><time>2026-05-02T13:22:33Z</time></trkpt><trkpt lat="44.50981120813359" lon="9.208860958374759"><ele>785.3333333333334</ele><time>2026-05-02T13:22:34Z</time></trkpt><trkpt lat="44.509948873969755" lon="9.208691730862352"><ele>791.6666666666667</ele><time>2026-05-02T13:22:35Z</time></trkpt><trkpt lat="44.510093153699266" lon="9.20852072961455"><ele>798.0</ele><time>2026-05-02T13:22:36Z</time></trkpt><trkpt lat="44.51023762172184" lon="9.208379533942908"><ele>798.0</ele><time>2026-05-02T13:22:37Z</time></trkpt><trkpt lat="44.510393530583805" lon="9.208264592270641"><ele>798.0</ele><time>2026-05-02T13:22:38Z</time></trkpt><trkpt lat="44.51057805880904" lon="9.208169288955634"><ele>798.0</ele><time>2026-05-02T13:22:39Z</time></trkpt><trkpt lat="44.510757066621686" lon="9.208111070973295"><ele>805.3333333333333</ele><time>2026-05-02T13:22:40Z</time></trkpt><trkpt lat="44.51094424597647" lon="9.20807786083544"><ele>812.6666666666666</ele><time>2026-05-02T13:22:41Z</time></trkpt><trkpt lat="44.51116070119572" lon="9.208085952173436"><ele>820.0</ele><time>2026-05-02T13:22:42Z</time></trkpt><trkpt lat="44.511387824147754" lon="9.208119700510215"><ele>820.75</ele><time>2026-05-02T13:22:43Z</time></trkpt><trkpt lat="44.51155872929734" lon="9.208119249081967"><ele>821.5</ele><time>2026-05-02T13:22:44Z</time></trkpt><trkpt lat="44.51167732978655" lon="9.208130706407943"><ele>822.25</ele><time>2026-05-02T13:22:45Z</time></trkpt><trkpt lat="44.511777452463704" lon="9.208186527939782"><ele>823.0</ele><time>2026-05-02T13:22:46Z</time></trkpt><trkpt lat="44.51186044034018" lon="9.208325939799556"><ele>819.6666666666666</ele><time>2026-05-02T13:22:47Z</time></trkpt><trkpt lat="44.511967852874236" lon="9.208485593966182"><ele>816.3333333333333</ele><time>2026-05-02T13:22:48Z</time></trkpt><trkpt lat="44.51208564974939" lon="9.208652179516886"><ele>813.0</ele><time>2026-05-02T13:22:49Z</time></trkpt><trkpt lat="44.51219081054181" lon="9.2088408852438"><ele>805.75</ele><time>2026-05-02T13:22:50Z</time></trkpt><trkpt lat="44.51227461241525" lon="9.209019587825587"><ele>798.5</ele><time>2026-05-02T13:22:51Z</time></trkpt><trkpt lat="44.51233465575383" lon="9.209187499331778"><ele>791.25</ele><time>2026-05-02T13:22:52Z</time></trkpt><trkpt lat="44.512379399030976" lon="9.209349645022316"><ele>784.0</ele><time>2026-05-02T13:22:53Z</time></trkpt><trkpt lat="44.51241883938136" lon="9.209496919312947"><ele>783.9999999999999</ele><time>2026-05-02T13:22:54Z</time></trkpt><trkpt lat="44.5124617438318" lon="9.20962882125264"><ele>784.0</ele><time>2026-05-02T13:22:55Z</time></trkpt><trkpt lat="44.51251261499477" lon="9.20973599190247"><ele>784.0</ele><time>2026-05-02T13:22:56Z</time></trkpt><trkpt lat="44.51258189518068" lon="9.209810536055368"><ele>784.0</ele><time>2026-05-02T13:22:57Z</time></trkpt><trkpt lat="44.512658704486256" lon="9.209824103065522"><ele>783.9999999999999</ele><time>2026-05-02T13:22:58Z</time></trkpt><trkpt lat="44.51273502085882" lon="9.20978893978105"><ele>784.0</ele><time>2026-05-02T13:22:59Z</time></trkpt><trkpt lat="44.51280607343825" lon="9.209715294673252"><ele>783.9999999999999</ele><time>2026-05-02T13:23:00Z</time></trkpt><trkpt lat="44.51286573079057" lon="9.209614743075893"><ele>784.0</ele><time>2026-05-02T13:23:01Z</time></trkpt><trkpt lat="44.51291889464116" lon="9.209509464290878"><ele>784.0</ele><time>2026-05-02T13:23:02Z</time></trkpt><trkpt lat="44.51297284526857" lon="9.209430927021284"><ele>784.0</ele><time>2026-05-02T13:23:03Z</time></trkpt><trkpt lat="44.513035221003925" lon="9.20939065568601"><ele>783.9999999999999</ele><time>2026-05-02T13:23:04Z</time></trkpt><trkpt lat="44.51310447023316" lon="9.209398446245562"><ele>784.0</ele><time>2026-05-02T13:23:05Z</time></trkpt><trkpt lat="44.5131584099966" lon="9.209456184601565"><ele>785.2857142857143</ele><time>2026-05-02T13:23:06Z</time></trkpt><trkpt lat="44.513180690989344" lon="9.209540250389173"><ele>786.5714285714286</ele><time>2026-05-02T13:23:07Z</time></trkpt><trkpt lat="44.51317631874034" lon="9.209632900732446"><ele>787.8571428571429</ele><time>2026-05-02T13:23:08Z</time></trkpt><trkpt lat="44.51315538698571" lon="9.20973705319422"><ele>789.1428571428571</ele><time>2026-05-02T13:23:09Z</time></trkpt><trkpt lat="44.513132483257024" lon="9.209837978476747"><ele>790.4285714285714</ele><time>2026-05-02T13:23:10Z</time></trkpt><trkpt lat="44.51311886619072" lon="9.209935229163262"><ele>791.7142857142858</ele><time>2026-05-02T13:23:11Z</time></trkpt><trkpt lat="44.51310600625541" lon="9.210037337909569"><ele>793.0</ele><time>2026-05-02T13:23:12Z</time></trkpt><trkpt lat="44.51309028234755" lon="9.210151197838604"><ele>793.0</ele><time>2026-05-02T13:23:13Z</time></trkpt><trkpt lat="44.51307272251381" lon="9.210274132465054"><ele>793.0</ele><time>2026-05-02T13:23:14Z</time></trkpt><trkpt lat="44.51305415400117" lon="9.210405872127783"><ele>793.0</ele><time>2026-05-02T13:23:15Z</time></trkpt><trkpt lat="44.5130332371799" lon="9.210548664035137"><ele>793.0</ele><time>2026-05-02T13:23:16Z</time></trkpt><trkpt lat="44.5130095740985" lon="9.210696367786424"><ele>793.0</ele><time>2026-05-02T13:23:17Z</time></trkpt><trkpt lat="44.51298885608909" lon="9.210842805715286"><ele>792.75</ele><time>2026-05-02T13:23:18Z</time></trkpt><trkpt lat="44.51296873865999" lon="9.210988785251834"><ele>792.5</ele><time>2026-05-02T13:23:19Z</time></trkpt><trkpt lat="44.51294528400244" lon="9.211139420282786"><ele>792.25</ele><time>2026-05-02T13:23:20Z</time></trkpt><trkpt lat="44.51291724656092" lon="9.211299139585002"><ele>792.0</ele><time>2026-05-02T13:23:21Z</time></trkpt><trkpt lat="44.51289274896243" lon="9.211470951782028"><ele>779.0</ele><time>2026-05-02T13:23:22Z</time></trkpt><trkpt lat="44.51287129189967" lon="9.211666718490806"><ele>766.0</ele><time>2026-05-02T13:23:23Z</time></trkpt><trkpt lat="44.512828220402454" lon="9.211879855251661"><ele>753.0</ele><time>2026-05-02T13:23:24Z</time></trkpt><trkpt lat="44.51278656878242" lon="9.212096419272877"><ele>753.0</ele><time>2026-05-02T13:23:25Z</time></trkpt><trkpt lat="44.51272474698331" lon="9.212277790910333"><ele>753.0</ele><time>2026-05-02T13:23:26Z</time></trkpt><trkpt lat="44.51264460163662" lon="9.212467878233172"><ele>753.0</ele><time>2026-05-02T13:23:27Z</time></trkpt><trkpt lat="44.512540964292924" lon="9.212672110507643"><ele>754.5</ele><time>2026-05-02T13:23:28Z</time></trkpt><trkpt lat="44.51242367504327" lon="9.212824327622307"><ele>756.0</ele><time>2026-05-02T13:23:29Z</time></trkpt><trkpt lat="44.51233956858989" lon="9.212942008081114"><ele>757.5</ele><time>2026-05-02T13:23:30Z</time></trkpt><trkpt lat="44.512289262629544" lon="9.213077273992592"><ele>759.0</ele><time>2026-05-02T13:23:31Z</time></trkpt><trkpt lat="44.512267848473506" lon="9.213271587339714"><ele>762.0</ele><time>2026-05-02T13:23:32Z</time></trkpt><trkpt lat="44.512264134314776" lon="9.213504505593932"><ele>765.0</ele><time>2026-05-02T13:23:33Z</time></trkpt><trkpt lat="44.5122645564066" lon="9.213724939699077"><ele>768.0</ele><time>2026-05-02T13:23:34Z</time></trkpt><trkpt lat="44.51226026050053" lon="9.213922541530073"><ele>765.4</ele><time>2026-05-02T13:23:35Z</time></trkpt><trkpt lat="44.51224653243793" lon="9.214098067094909"><ele>762.8</ele><time>2026-05-02T13:23:36Z</time></trkpt><trkpt lat="44.51224615575383" lon="9.214251157053308"><ele>760.2</ele><time>2026-05-02T13:23:37Z</time></trkpt><trkpt lat="44.51228226368035" lon="9.214375430480846"><ele>757.6</ele><time>2026-05-02T13:23:38Z</time></trkpt><trkpt lat="44.51235253131127" lon="9.214464159676206"><ele>755.0</ele><time>2026-05-02T13:23:39Z</time></trkpt><trkpt lat="44.51244513528911" lon="9.21450515487545"><ele>755.0</ele><time>2026-05-02T13:23:40Z</time></trkpt><trkpt lat="44.51254601223536" lon="9.214494041463562"><ele>755.0</ele><time>2026-05-02T13:23:41Z</time></trkpt><trkpt lat="44.512642886582746" lon="9.214421816289187"><ele>755.0</ele><time>2026-05-02T13:23:42Z</time></trkpt><trkpt lat="44.51275260619376" lon="9.214297553978419"><ele>755.0</ele><time>2026-05-02T13:23:43Z</time></trkpt><trkpt lat="44.5128825643168" lon="9.214163119343272"><ele>754.0</ele><time>2026-05-02T13:23:44Z</time></trkpt><trkpt lat="44.5130297907026" lon="9.214039863831362"><ele>753.0</ele><time>2026-05-02T13:23:45Z</time></trkpt><trkpt lat="44.5131984558771" lon="9.213934053985222"><ele>752.0</ele><time>2026-05-02T13:23:46Z</time></trkpt><trkpt lat="44.51337363910337" lon="9.213840976668394"><ele>753.0</ele><time>2026-05-02T13:23:47Z</time></trkpt><trkpt lat="44.51355169179505" lon="9.213736528387354"><ele>754.0</ele><time>2026-05-02T13:23:48Z</time></trkpt><trkpt lat="44.5137246136713" lon="9.21361535212616"><ele>755.0</ele><time>2026-05-02T13:23:49Z</time></trkpt><trkpt lat="44.51389357270004" lon="9.213486647059813"><ele>755.0</ele><time>2026-05-02T13:23:50Z</time></trkpt><trkpt lat="44.514046039923954" lon="9.21335702327932"><ele>755.0</ele><time>2026-05-02T13:23:51Z</time></trkpt><trkpt lat="44.514171200009336" lon="9.21323858934376"><ele>755.0</ele><time>2026-05-02T13:23:52Z</time></trkpt><trkpt lat="44.51426626621663" lon="9.213153509871221"><ele>755.0</ele><time>2026-05-02T13:23:53Z</time></trkpt><trkpt lat="44.51435039432204" lon="9.213099516901528"><ele>755.0</ele><time>2026-05-02T13:23:54Z</time></trkpt><trkpt lat="44.51444604986586" lon="9.213099528893471"><ele>755.0</ele><time>2026-05-02T13:23:55Z</time></trkpt><trkpt lat="44.514543115680716" lon="9.213163715655885"><ele>755.0</ele><time>2026-05-02T13:23:56Z</time></trkpt><trkpt lat="44.51460992230429" lon="9.213281425783844"><ele>755.0</ele><time>2026-05-02T13:23:56.999Z</time></trkpt><trkpt lat="44.51463268389142" lon="9.213433313449608"><ele>755.0</ele><time>2026-05-02T13:23:57.999Z</time></trkpt><trkpt lat="44.51460246862824" lon="9.213596807486102"><ele>755.0</ele><time>2026-05-02T13:23:58.999Z</time></trkpt><trkpt lat="44.51451790815916" lon="9.213760954634235"><ele>755.0</ele><time>2026-05-02T13:23:59.999Z</time></trkpt><trkpt lat="44.514403316049226" lon="9.21395850719778"><ele>755.0</ele><time>2026-05-02T13:24:00.999Z</time></trkpt><trkpt lat="44.51427370249712" lon="9.214168511044491"><ele>753.3333333333333</ele><time>2026-05-02T13:24:01.999Z</time></trkpt><trkpt lat="44.51413092535301" lon="9.214361136036619"><ele>751.6666666666666</ele><time>2026-05-02T13:24:02.999Z</time></trkpt><trkpt lat="44.5139439800998" lon="9.214536064810055"><ele>750.0</ele><time>2026-05-02T13:24:03.999Z</time></trkpt><trkpt lat="44.513757784067785" lon="9.214697791249167"><ele>749.25</ele><time>2026-05-02T13:24:04.999Z</time></trkpt><trkpt lat="44.51360580577387" lon="9.214842521655159"><ele>748.5</ele><time>2026-05-02T13:24:05.999Z</time></trkpt><trkpt lat="44.51349224899255" lon="9.214960266139563"><ele>747.75</ele><time>2026-05-02T13:24:06.999Z</time></trkpt><trkpt lat="44.513410257057075" lon="9.215057560822903"><ele>747.0</ele><time>2026-05-02T13:24:07.999Z</time></trkpt><trkpt lat="44.51336585456597" lon="9.21519115583233"><ele>747.0</ele><time>2026-05-02T13:24:08.999Z</time></trkpt><trkpt lat="44.513364989384456" lon="9.215313286609675"><ele>747.0</ele><time>2026-05-02T13:24:09.999Z</time></trkpt><trkpt lat="44.513394565668" lon="9.215438601603633"><ele>747.0</ele><time>2026-05-02T13:24:10.999Z</time></trkpt><trkpt lat="44.513471915266614" lon="9.21555289517304"><ele>747.0</ele><time>2026-05-02T13:24:11.999Z</time></trkpt><trkpt lat="44.51359315131222" lon="9.215661941364289"><ele>747.0</ele><time>2026-05-02T13:24:12.999Z</time></trkpt><trkpt lat="44.51373706433693" lon="9.215786698333009"><ele>750.25</ele><time>2026-05-02T13:24:13.999Z</time></trkpt><trkpt lat="44.51384582362217" lon="9.215881118856984"><ele>753.5</ele><time>2026-05-02T13:24:14.999Z</time></trkpt><trkpt lat="44.5139488921833" lon="9.215914476650584"><ele>756.75</ele><time>2026-05-02T13:24:15.999Z</time></trkpt><trkpt lat="44.51406858313351" lon="9.215893986519013"><ele>760.0</ele><time>2026-05-02T13:24:16.999Z</time></trkpt><trkpt lat="44.514216686283035" lon="9.21582576053497"><ele>760.0</ele><time>2026-05-02T13:24:17.999Z</time></trkpt><trkpt lat="44.51438428100462" lon="9.215761816411204"><ele>760.0</ele><time>2026-05-02T13:24:18.999Z</time></trkpt><trkpt lat="44.51455338492686" lon="9.215707551825506"><ele>760.0</ele><time>2026-05-02T13:24:19.999Z</time></trkpt><trkpt lat="44.514700616571" lon="9.21562509211338"><ele>760.8333333333334</ele><time>2026-05-02T13:24:20.999Z</time></trkpt><trkpt lat="44.51480978711877" lon="9.215549223892564"><ele>761.6666666666667</ele><time>2026-05-02T13:24:21.999Z</time></trkpt><trkpt lat="44.51488222864925" lon="9.215520654680194"><ele>762.5</ele><time>2026-05-02T13:24:22.999Z</time></trkpt><trkpt lat="44.5149499619603" lon="9.215526894793294"><ele>763.3333333333334</ele><time>2026-05-02T13:24:24Z</time></trkpt><trkpt lat="44.51499785327472" lon="9.215601065346284"><ele>764.1666666666666</ele><time>2026-05-02T13:24:25Z</time></trkpt><trkpt lat="44.5150140064388" lon="9.215728644774204"><ele>765.0</ele><time>2026-05-02T13:24:26Z</time></trkpt><trkpt lat="44.51498839487311" lon="9.215837861844594"><ele>765.0</ele><time>2026-05-02T13:24:27Z</time></trkpt><trkpt lat="44.51490053778979" lon="9.21589967074711"><ele>765.0</ele><time>2026-05-02T13:24:28Z</time></trkpt><trkpt lat="44.514807871103116" lon="9.216011482926547"><ele>765.0</ele><time>2026-05-02T13:24:29Z</time></trkpt><trkpt lat="44.51471481216494" lon="9.216173399291554"><ele>765.0</ele><time>2026-05-02T13:24:30Z</time></trkpt><trkpt lat="44.51463074053771" lon="9.216378689340774"><ele>757.3333333333334</ele><time>2026-05-02T13:24:31Z</time></trkpt><trkpt lat="44.514548398471184" lon="9.216596622091798"><ele>749.6666666666667</ele><time>2026-05-02T13:24:32Z</time></trkpt><trkpt lat="44.514474351557524" lon="9.216783566504372"><ele>742.0</ele><time>2026-05-02T13:24:33Z</time></trkpt><trkpt lat="44.51442664028665" lon="9.216948110168785"><ele>742.0</ele><time>2026-05-02T13:24:34Z</time></trkpt><trkpt lat="44.51442055722513" lon="9.217117507799237"><ele>742.0</ele><time>2026-05-02T13:24:35Z</time></trkpt><trkpt lat="44.51445146424963" lon="9.217330507254955"><ele>742.0</ele><time>2026-05-02T13:24:36Z</time></trkpt><trkpt lat="44.51448468834976" lon="9.217571597044726"><ele>740.75</ele><time>2026-05-02T13:24:37Z</time></trkpt><trkpt lat="44.51450239231398" lon="9.217781196019505"><ele>739.5</ele><time>2026-05-02T13:24:38Z</time></trkpt><trkpt lat="44.51449634036859" lon="9.217962794132491"><ele>738.25</ele><time>2026-05-02T13:24:39Z</time></trkpt><trkpt lat="44.51442126278539" lon="9.218135801160711"><ele>737.0</ele><time>2026-05-02T13:24:40Z</time></trkpt><trkpt lat="44.514382493328284" lon="9.21832428951804"><ele>739.75</ele><time>2026-05-02T13:24:41Z</time></trkpt><trkpt lat="44.51433781831703" lon="9.218473278747554"><ele>742.5</ele><time>2026-05-02T13:24:42Z</time></trkpt><trkpt lat="44.5142681310914" lon="9.218589741678679"><ele>745.25</ele><time>2026-05-02T13:24:43Z</time></trkpt><trkpt lat="44.514150566327714" lon="9.218649832767905"><ele>748.0</ele><time>2026-05-02T13:24:44Z</time></trkpt><trkpt lat="44.514025225523966" lon="9.218753305374332"><ele>748.0</ele><time>2026-05-02T13:24:45Z</time></trkpt><trkpt lat="44.513883589802575" lon="9.218883735641281"><ele>748.0</ele><time>2026-05-02T13:24:46Z</time></trkpt><trkpt lat="44.51372820274676" lon="9.219032868654306"><ele>748.0</ele><time>2026-05-02T13:24:47Z</time></trkpt><trkpt lat="44.51354082544121" lon="9.219122763150201"><ele>753.0</ele><time>2026-05-02T13:24:48Z</time></trkpt><trkpt lat="44.5133639112781" lon="9.21922091048622"><ele>758.0</ele><time>2026-05-02T13:24:49Z</time></trkpt><trkpt lat="44.5131688296854" lon="9.219247299253542"><ele>763.0</ele><time>2026-05-02T13:24:50Z</time></trkpt><trkpt lat="44.51294198726889" lon="9.219236960820073"><ele>761.0</ele><time>2026-05-02T13:24:51Z</time></trkpt><trkpt lat="44.51270681854116" lon="9.219211340038237"><ele>759.0</ele><time>2026-05-02T13:24:52Z</time></trkpt><trkpt lat="44.5125107463093" lon="9.219202753141804"><ele>757.0</ele><time>2026-05-02T13:24:53Z</time></trkpt><trkpt lat="44.512339430916825" lon="9.219225940056015"><ele>757.0</ele><time>2026-05-02T13:24:54Z</time></trkpt><trkpt lat="44.512174229466794" lon="9.219275855731535"><ele>757.0</ele><time>2026-05-02T13:24:55Z</time></trkpt><trkpt lat="44.511995522320206" lon="9.21937296767068"><ele>757.0</ele><time>2026-05-02T13:24:56Z</time></trkpt><trkpt lat="44.511804585228944" lon="9.219496099829728"><ele>754.6666666666667</ele><time>2026-05-02T13:24:57Z</time></trkpt><trkpt lat="44.51161565485096" lon="9.219638378971874"><ele>752.3333333333334</ele><time>2026-05-02T13:24:58Z</time></trkpt><trkpt lat="44.511458196311374" lon="9.219755317532028"><ele>750.0</ele><time>2026-05-02T13:24:59Z</time></trkpt><trkpt lat="44.51133720458541" lon="9.219845001684467"><ele>748.8</ele><time>2026-05-02T13:25:00Z</time></trkpt><trkpt lat="44.511248807456404" lon="9.219919311022762"><ele>747.6</ele><time>2026-05-02T13:25:01Z</time></trkpt><trkpt lat="44.51120558695102" lon="9.220016781472669"><ele>746.4000000000001</ele><time>2026-05-02T13:25:02Z</time></trkpt><trkpt lat="44.51120167057993" lon="9.220141429810646"><ele>745.2</ele><time>2026-05-02T13:25:03Z</time></trkpt><trkpt lat="44.51123794935931" lon="9.220267745771604"><ele>744.0</ele><time>2026-05-02T13:25:04Z</time></trkpt><trkpt lat="44.511318179065114" lon="9.220407551466653"><ele>751.3333333333334</ele><time>2026-05-02T13:25:05Z</time></trkpt><trkpt lat="44.51144234315244" lon="9.220569771477349"><ele>758.6666666666667</ele><time>2026-05-02T13:25:06Z</time></trkpt><trkpt lat="44.51157187500551" lon="9.220769452120752"><ele>766.0</ele><time>2026-05-02T13:25:07Z</time></trkpt><trkpt lat="44.51171216989518" lon="9.220943712639615"><ele>766.0</ele><time>2026-05-02T13:25:08Z</time></trkpt><trkpt lat="44.51181966389232" lon="9.221172863361204"><ele>766.0</ele><time>2026-05-02T13:25:09Z</time></trkpt><trkpt lat="44.51193353819535" lon="9.221402472025567"><ele>766.0</ele><time>2026-05-02T13:25:10Z</time></trkpt><trkpt lat="44.51208115893427" lon="9.221620142966243"><ele>772.0</ele><time>2026-05-02T13:25:11Z</time></trkpt><trkpt lat="44.512223122901986" lon="9.221838410587841"><ele>778.0</ele><time>2026-05-02T13:25:12Z</time></trkpt><trkpt lat="44.512337187279265" lon="9.222012417491852"><ele>784.0</ele><time>2026-05-02T13:25:13Z</time></trkpt><trkpt lat="44.51243273900429" lon="9.222140262007494"><ele>784.0</ele><time>2026-05-02T13:25:14Z</time></trkpt><trkpt lat="44.51253242846889" lon="9.22224021481249"><ele>784.0</ele><time>2026-05-02T13:25:15Z</time></trkpt><trkpt lat="44.51266310978032" lon="9.222232699227499"><ele>784.0</ele><time>2026-05-02T13:25:16Z</time></trkpt><trkpt lat="44.51282715917913" lon="9.22220235407606"><ele>784.0</ele><time>2026-05-02T13:25:17Z</time></trkpt><trkpt lat="44.51300750106485" lon="9.222178503737055"><ele>788.6666666666666</ele><time>2026-05-02T13:25:18Z</time></trkpt><trkpt lat="44.51317681515887" lon="9.222130098058207"><ele>793.3333333333333</ele><time>2026-05-02T13:25:19Z</time></trkpt><trkpt lat="44.51335086279071" lon="9.222153946959521"><ele>798.0</ele><time>2026-05-02T13:25:20Z</time></trkpt><trkpt lat="44.513548484736866" lon="9.222211521260682"><ele>797.3333333333333</ele><time>2026-05-02T13:25:21Z</time></trkpt><trkpt lat="44.51376451305179" lon="9.222250829074571"><ele>796.6666666666666</ele><time>2026-05-02T13:25:22Z</time></trkpt><trkpt lat="44.513989542396324" lon="9.222247239510068"><ele>796.0</ele><time>2026-05-02T13:25:23Z</time></trkpt><trkpt lat="44.514190122381244" lon="9.22226846196937"><ele>796.0</ele><time>2026-05-02T13:25:24Z</time></trkpt><trkpt lat="44.51437062676536" lon="9.22228198519059"><ele>796.0</ele><time>2026-05-02T13:25:25Z</time></trkpt><trkpt lat="44.514545109411344" lon="9.222267775388362"><ele>796.0</ele><time>2026-05-02T13:25:26Z</time></trkpt><trkpt lat="44.51472318886509" lon="9.22221031593866"><ele>795.3333333333333</ele><time>2026-05-02T13:25:27Z</time></trkpt><trkpt lat="44.51489674156849" lon="9.222152112920666"><ele>794.6666666666667</ele><time>2026-05-02T13:25:28Z</time></trkpt><trkpt lat="44.51506206426875" lon="9.222148984628591"><ele>794.0</ele><time>2026-05-02T13:25:29Z</time></trkpt><trkpt lat="44.51523782544438" lon="9.222192011255414"><ele>796.5</ele><time>2026-05-02T13:25:30Z</time></trkpt><trkpt lat="44.51540487101974" lon="9.222212689879772"><ele>799.0</ele><time>2026-05-02T13:25:31Z</time></trkpt><trkpt lat="44.51555077501041" lon="9.222190111158358"><ele>801.5</ele><time>2026-05-02T13:25:32Z</time></trkpt><trkpt lat="44.51565705748594" lon="9.222146812209584"><ele>804.0</ele><time>2026-05-02T13:25:33Z</time></trkpt><trkpt lat="44.51573780537645" lon="9.222155161488233"><ele>804.0</ele><time>2026-05-02T13:25:34Z</time></trkpt><trkpt lat="44.5158060739904" lon="9.222209775434935"><ele>804.0</ele><time>2026-05-02T13:25:35Z</time></trkpt><trkpt lat="44.51585947627187" lon="9.2223010419638"><ele>804.0</ele><time>2026-05-02T13:25:36Z</time></trkpt><trkpt lat="44.515870563938314" lon="9.222418301993462"><ele>804.0</ele><time>2026-05-02T13:25:37Z</time></trkpt><trkpt lat="44.515837386409004" lon="9.222550567221102"><ele>804.0</ele><time>2026-05-02T13:25:38Z</time></trkpt><trkpt lat="44.51575385827665" lon="9.222679993288468"><ele>796.25</ele><time>2026-05-02T13:25:39Z</time></trkpt><trkpt lat="44.51563235814123" lon="9.222784026063888"><ele>788.5</ele><time>2026-05-02T13:25:40Z</time></trkpt><trkpt lat="44.515503885917155" lon="9.22288739727618"><ele>780.75</ele><time>2026-05-02T13:25:41Z</time></trkpt><trkpt lat="44.5153928239745" lon="9.22297515832354"><ele>773.0</ele><time>2026-05-02T13:25:42Z</time></trkpt><trkpt lat="44.51537699823485" lon="9.223107573552342"><ele>773.2</ele><time>2026-05-02T13:25:43Z</time></trkpt><trkpt lat="44.51535458845264" lon="9.223234338929371"><ele>773.4</ele><time>2026-05-02T13:25:44Z</time></trkpt><trkpt lat="44.515381268166855" lon="9.223359858180013"><ele>773.6</ele><time>2026-05-02T13:25:45Z</time></trkpt><trkpt lat="44.5154471926675" lon="9.223463019716256"><ele>773.8000000000001</ele><time>2026-05-02T13:25:46Z</time></trkpt><trkpt lat="44.51555585929548" lon="9.223544615882451"><ele>774.0</ele><time>2026-05-02T13:25:47Z</time></trkpt><trkpt lat="44.515689929166115" lon="9.223596507686729"><ele>774.0</ele><time>2026-05-02T13:25:48Z</time></trkpt><trkpt lat="44.515784190562385" lon="9.223637322326162"><ele>774.0</ele><time>2026-05-02T13:25:49Z</time></trkpt><trkpt lat="44.515832530446964" lon="9.223739027533046"><ele>774.0</ele><time>2026-05-02T13:25:50Z</time></trkpt><trkpt lat="44.51578129997978" lon="9.22387220987658"><ele>774.0</ele><time>2026-05-02T13:25:51Z</time></trkpt><trkpt lat="44.515766702403695" lon="9.224050498418954"><ele>774.0</ele><time>2026-05-02T13:25:52Z</time></trkpt><trkpt lat="44.51576889644269" lon="9.22425436930262"><ele>769.75</ele><time>2026-05-02T13:25:53Z</time></trkpt><trkpt lat="44.51579259162125" lon="9.224448407223928"><ele>765.5</ele><time>2026-05-02T13:25:54Z</time></trkpt><trkpt lat="44.5158561803117" lon="9.224606121774077"><ele>761.25</ele><time>2026-05-02T13:25:55Z</time></trkpt><trkpt lat="44.51595802321528" lon="9.224723669844941"><ele>757.0</ele><time>2026-05-02T13:25:56Z</time></trkpt><trkpt lat="44.51609277424174" lon="9.224804498792658"><ele>762.5</ele><time>2026-05-02T13:25:56.999Z</time></trkpt><trkpt lat="44.51625390170521" lon="9.224854042741248"><ele>768.0</ele><time>2026-05-02T13:25:57.999Z</time></trkpt><trkpt lat="44.516398556138" lon="9.22485090536271"><ele>773.5</ele><time>2026-05-02T13:25:58.999Z</time></trkpt><trkpt lat="44.516515967735636" lon="9.224821126164763"><ele>779.0</ele><time>2026-05-02T13:25:59.999Z</time></trkpt><trkpt lat="44.516598256979314" lon="9.224817921667032"><ele>779.0</ele><time>2026-05-02T13:26:00.999Z</time></trkpt><trkpt lat="44.5166542502849" lon="9.22490261670349"><ele>779.0</ele><time>2026-05-02T13:26:01.999Z</time></trkpt><trkpt lat="44.51667197514229" lon="9.2250192487791"><ele>779.0</ele><time>2026-05-02T13:26:02.999Z</time></trkpt><trkpt lat="44.516655560051554" lon="9.225168241056565"><ele>779.0</ele><time>2026-05-02T13:26:03.999Z</time></trkpt><trkpt lat="44.516567656807936" lon="9.225324196557114"><ele>779.0</ele><time>2026-05-02T13:26:04.999Z</time></trkpt><trkpt lat="44.51649440061223" lon="9.225541468259458"><ele>777.6666666666667</ele><time>2026-05-02T13:26:05.999Z</time></trkpt><trkpt lat="44.51639997045052" lon="9.225774963987908"><ele>776.3333333333333</ele><time>2026-05-02T13:26:06.999Z</time></trkpt><trkpt lat="44.516347819436305" lon="9.226046565751323"><ele>775.0</ele><time>2026-05-02T13:26:07.999Z</time></trkpt><trkpt lat="44.516316625854294" lon="9.226345259936432"><ele>777.6666666666666</ele><time>2026-05-02T13:26:08.999Z</time></trkpt><trkpt lat="44.51630513839513" lon="9.226625267927535"><ele>780.3333333333333</ele><time>2026-05-02T13:26:09.999Z</time></trkpt><trkpt lat="44.51628034555921" lon="9.226860574496785"><ele>783.0</ele><time>2026-05-02T13:26:10.999Z</time></trkpt><trkpt lat="44.516196367627174" lon="9.227051449386579"><ele>767.0</ele><time>2026-05-02T13:26:11.999Z</time></trkpt><trkpt lat="44.51613897522364" lon="9.227259357751505"><ele>751.0</ele><time>2026-05-02T13:26:12.999Z</time></trkpt><trkpt lat="44.51607109485789" lon="9.227506489183913"><ele>735.0</ele><time>2026-05-02T13:26:13.999Z</time></trkpt><trkpt lat="44.51600233467301" lon="9.227782436151212"><ele>735.0</ele><time>2026-05-02T13:26:14.999Z</time></trkpt><trkpt lat="44.51591986819115" lon="9.228070870715893"><ele>735.0</ele><time>2026-05-02T13:26:15.999Z</time></trkpt><trkpt lat="44.515863880863066" lon="9.228355809829345"><ele>735.0</ele><time>2026-05-02T13:26:16.999Z</time></trkpt><trkpt lat="44.51582844565405" lon="9.22858254007651"><ele>734.75</ele><time>2026-05-02T13:26:17.999Z</time></trkpt><trkpt lat="44.51580870933946" lon="9.22875853080049"><ele>734.5</ele><time>2026-05-02T13:26:18.999Z</time></trkpt><trkpt lat="44.51582142868279" lon="9.228933553620632"><ele>734.25</ele><time>2026-05-02T13:26:19.999Z</time></trkpt><trkpt lat="44.51587696309487" lon="9.229142009435133"><ele>734.0</ele><time>2026-05-02T13:26:20.999Z</time></trkpt><trkpt lat="44.515949318249724" lon="9.229341796611727"><ele>734.0</ele><time>2026-05-02T13:26:21.999Z</time></trkpt><trkpt lat="44.51602329611563" lon="9.229502520625845"><ele>734.0</ele><time>2026-05-02T13:26:22.999Z</time></trkpt><trkpt lat="44.51612138748245" lon="9.229634043851078"><ele>734.0</ele><time>2026-05-02T13:26:23.999Z</time></trkpt><trkpt lat="44.51625026693915" lon="9.229735748545707"><ele>734.0</ele><time>2026-05-02T13:26:24.999Z</time></trkpt><trkpt lat="44.51639938957392" lon="9.229783220709926"><ele>743.0</ele><time>2026-05-02T13:26:25.999Z</time></trkpt><trkpt lat="44.5165470383582" lon="9.229767892491207"><ele>752.0</ele><time>2026-05-02T13:26:26.999Z</time></trkpt><trkpt lat="44.51671300594925" lon="9.22970739300944"><ele>761.0</ele><time>2026-05-02T13:26:27.999Z</time></trkpt><trkpt lat="44.516880275828015" lon="9.229611454660814"><ele>761.0</ele><time>2026-05-02T13:26:28.999Z</time></trkpt><trkpt lat="44.517059626951124" lon="9.229535273706958"><ele>761.0</ele><time>2026-05-02T13:26:30Z</time></trkpt><trkpt lat="44.517252997267235" lon="9.22955610645313"><ele>761.0</ele><time>2026-05-02T13:26:31Z</time></trkpt><trkpt lat="44.51746748992219" lon="9.229549043951115"><ele>759.0</ele><time>2026-05-02T13:26:32Z</time></trkpt><trkpt lat="44.517678998319184" lon="9.229548919081779"><ele>757.0</ele><time>2026-05-02T13:26:33Z</time></trkpt><trkpt lat="44.51786582449909" lon="9.229511092581705"><ele>755.0</ele><time>2026-05-02T13:26:34Z</time></trkpt><trkpt lat="44.51803969530394" lon="9.22950348161586"><ele>749.6666666666666</ele><time>2026-05-02T13:26:35Z</time></trkpt><trkpt lat="44.51821691206818" lon="9.2295251445241"><ele>744.3333333333334</ele><time>2026-05-02T13:26:36Z</time></trkpt><trkpt lat="44.51841039671775" lon="9.22960199350568"><ele>739.0</ele><time>2026-05-02T13:26:37Z</time></trkpt><trkpt lat="44.5186265461909" lon="9.229684714160086"><ele>746.0</ele><time>2026-05-02T13:26:38Z</time></trkpt><trkpt lat="44.51884159336958" lon="9.229801276578856"><ele>753.0</ele><time>2026-05-02T13:26:39Z</time></trkpt><trkpt lat="44.51906545274411" lon="9.229904736438582"><ele>738.0</ele><time>2026-05-02T13:26:40Z</time></trkpt><trkpt lat="44.51928154924692" lon="9.230029056631954"><ele>723.0</ele><time>2026-05-02T13:26:41Z</time></trkpt><trkpt lat="44.51949050065587" lon="9.230130386607463"><ele>731.0</ele><time>2026-05-02T13:26:42Z</time></trkpt><trkpt lat="44.519683902663715" lon="9.230207236572975"><ele>739.0</ele><time>2026-05-02T13:26:43Z</time></trkpt><trkpt lat="44.51983916375051" lon="9.230344795853656"><ele>747.0</ele><time>2026-05-02T13:26:44Z</time></trkpt><trkpt lat="44.51999822038972" lon="9.230492988792813"><ele>745.0</ele><time>2026-05-02T13:26:45Z</time></trkpt><trkpt lat="44.52012688149607" lon="9.230739642973683"><ele>743.0</ele><time>2026-05-02T13:26:46Z</time></trkpt><trkpt lat="44.520287006333945" lon="9.230948797605265"><ele>741.0</ele><time>2026-05-02T13:26:47Z</time></trkpt><trkpt lat="44.52041887402473" lon="9.231142354610933"><ele>741.0</ele><time>2026-05-02T13:26:48Z</time></trkpt><trkpt lat="44.52055550646675" lon="9.23131381667578"><ele>741.0</ele><time>2026-05-02T13:26:49Z</time></trkpt><trkpt lat="44.52070138698642" lon="9.23147653925573"><ele>741.0</ele><time>2026-05-02T13:26:50Z</time></trkpt><trkpt lat="44.520868614185595" lon="9.231613866871811"><ele>736.3333333333334</ele><time>2026-05-02T13:26:51Z</time></trkpt><trkpt lat="44.52105878039025" lon="9.231732630883299"><ele>731.6666666666667</ele><time>2026-05-02T13:26:52Z</time></trkpt><trkpt lat="44.52123691280099" lon="9.231867537619499"><ele>727.0</ele><time>2026-05-02T13:26:53Z</time></trkpt><trkpt lat="44.521371233567706" lon="9.232066550456167"><ele>727.0</ele><time>2026-05-02T13:26:54Z</time></trkpt><trkpt lat="44.52149745365649" lon="9.232248525667579"><ele>727.0</ele><time>2026-05-02T13:26:55Z</time></trkpt><trkpt lat="44.52160497226458" lon="9.232419383790626"><ele>727.0</ele><time>2026-05-02T13:26:56Z</time></trkpt><trkpt lat="44.521667565223886" lon="9.232603653166843"><ele>720.3333333333334</ele><time>2026-05-02T13:26:57Z</time></trkpt><trkpt lat="44.52170618769241" lon="9.232825174039501"><ele>713.6666666666666</ele><time>2026-05-02T13:26:58Z</time></trkpt><trkpt lat="44.5217478814583" lon="9.233094260362762"><ele>707.0</ele><time>2026-05-02T13:26:59Z</time></trkpt><trkpt lat="44.521782515484745" lon="9.233383026228022"><ele>705.0</ele><time>2026-05-02T13:27:00Z</time></trkpt><trkpt lat="44.521806760831026" lon="9.233649994832083"><ele>703.0</ele><time>2026-05-02T13:27:01Z</time></trkpt><trkpt lat="44.52181668501159" lon="9.233872022837001"><ele>701.0</ele><time>2026-05-02T13:27:02Z</time></trkpt><trkpt lat="44.52183453595765" lon="9.234065562020955"><ele>703.3333333333333</ele><time>2026-05-02T13:27:03Z</time></trkpt><trkpt lat="44.52189045194119" lon="9.234259873918141"><ele>705.6666666666666</ele><time>2026-05-02T13:27:04Z</time></trkpt><trkpt lat="44.521986894662476" lon="9.234452367478012"><ele>708.0</ele><time>2026-05-02T13:27:05Z</time></trkpt><trkpt lat="44.52213503252483" lon="9.234642688004941"><ele>698.5</ele><time>2026-05-02T13:27:06Z</time></trkpt><trkpt lat="44.52231409498047" lon="9.234842480196013"><ele>689.0</ele><time>2026-05-02T13:27:07Z</time></trkpt><trkpt lat="44.52250548642748" lon="9.23505005711375"><ele>689.0</ele><time>2026-05-02T13:27:08Z</time></trkpt><trkpt lat="44.522684027398995" lon="9.235232536682888"><ele>689.0</ele><time>2026-05-02T13:27:09Z</time></trkpt><trkpt lat="44.522876029512595" lon="9.235387572972954"><ele>689.0</ele><time>2026-05-02T13:27:10Z</time></trkpt><trkpt lat="44.52309760323847" lon="9.235511741546732"><ele>685.0</ele><time>2026-05-02T13:27:11Z</time></trkpt><trkpt lat="44.52334899903245" lon="9.235608356674293"><ele>681.0</ele><time>2026-05-02T13:27:12Z</time></trkpt><trkpt lat="44.5236204303799" lon="9.235694526789647"><ele>686.0</ele><time>2026-05-02T13:27:13Z</time></trkpt><trkpt lat="44.52387247469885" lon="9.235778358639076"><ele>691.0</ele><time>2026-05-02T13:27:14Z</time></trkpt><trkpt lat="44.52410524122806" lon="9.23586776664904"><ele>691.0</ele><time>2026-05-02T13:27:15Z</time></trkpt><trkpt lat="44.52432379418913" lon="9.235951658268082"><ele>691.0</ele><time>2026-05-02T13:27:16Z</time></trkpt><trkpt lat="44.52452813987258" lon="9.236023989957255"><ele>691.0</ele><time>2026-05-02T13:27:17Z</time></trkpt><trkpt lat="44.52470662896701" lon="9.236087732077502"><ele>694.3333333333334</ele><time>2026-05-02T13:27:18Z</time></trkpt><trkpt lat="44.524864269350175" lon="9.236151789630211"><ele>697.6666666666666</ele><time>2026-05-02T13:27:19Z</time></trkpt><trkpt lat="44.52498731666713" lon="9.236263258020497"><ele>701.0</ele><time>2026-05-02T13:27:20Z</time></trkpt><trkpt lat="44.52511672668129" lon="9.236392842842955"><ele>698.6666666666666</ele><time>2026-05-02T13:27:21Z</time></trkpt><trkpt lat="44.525219601066745" lon="9.236617941634544"><ele>696.3333333333334</ele><time>2026-05-02T13:27:22Z</time></trkpt><trkpt lat="44.525344062790936" lon="9.236839631330445"><ele>694.0</ele><time>2026-05-02T13:27:23Z</time></trkpt><trkpt lat="44.525464282593774" lon="9.237057705220344"><ele>694.0</ele><time>2026-05-02T13:27:24Z</time></trkpt><trkpt lat="44.52562084653745" lon="9.237240860965555"><ele>694.0</ele><time>2026-05-02T13:27:25Z</time></trkpt><trkpt lat="44.52580215385557" lon="9.237386650123328"><ele>694.0</ele><time>2026-05-02T13:27:26Z</time></trkpt><trkpt lat="44.5259737959409" lon="9.237547923559745"><ele>693.3333333333334</ele><time>2026-05-02T13:27:27Z</time></trkpt><trkpt lat="44.526096221242035" lon="9.237770178611415"><ele>692.6666666666666</ele><time>2026-05-02T13:27:28Z</time></trkpt><trkpt lat="44.526217420684354" lon="9.237963216256876"><ele>692.0</ele><time>2026-05-02T13:27:29Z</time></trkpt><trkpt lat="44.5263125115447" lon="9.238147472700385"><ele>692.0</ele><time>2026-05-02T13:27:30Z</time></trkpt><trkpt lat="44.526362733355576" lon="9.238352982359284"><ele>692.0</ele><time>2026-05-02T13:27:31Z</time></trkpt><trkpt lat="44.52638809401066" lon="9.238575837581696"><ele>692.0</ele><time>2026-05-02T13:27:32Z</time></trkpt><trkpt lat="44.5263786396856" lon="9.238796993720698"><ele>690.0</ele><time>2026-05-02T13:27:33Z</time></trkpt><trkpt lat="44.526318240324414" lon="9.23900904532369"><ele>688.0</ele><time>2026-05-02T13:27:34Z</time></trkpt><trkpt lat="44.52622211865301" lon="9.239249463841238"><ele>686.0</ele><time>2026-05-02T13:27:35Z</time></trkpt><trkpt lat="44.52612742459895" lon="9.239522158224935"><ele>681.0</ele><time>2026-05-02T13:27:36Z</time></trkpt><trkpt lat="44.52604946218501" lon="9.23975383013781"><ele>676.0</ele><time>2026-05-02T13:27:37Z</time></trkpt><trkpt lat="44.526005610610774" lon="9.23994239651551"><ele>671.0</ele><time>2026-05-02T13:27:38Z</time></trkpt><trkpt lat="44.52599392004442" lon="9.240125760788976"><ele>669.6666666666666</ele><time>2026-05-02T13:27:39Z</time></trkpt><trkpt lat="44.526018181782575" lon="9.240321933215183"><ele>668.3333333333334</ele><time>2026-05-02T13:27:40Z</time></trkpt><trkpt lat="44.526078843147296" lon="9.240560160754107"><ele>667.0</ele><time>2026-05-02T13:27:41Z</time></trkpt><trkpt lat="44.526154978604765" lon="9.240819823243934"><ele>667.3333333333334</ele><time>2026-05-02T13:27:42Z</time></trkpt><trkpt lat="44.52622999614203" lon="9.241072359032053"><ele>667.6666666666666</ele><time>2026-05-02T13:27:43Z</time></trkpt><trkpt lat="44.52628514685285" lon="9.241302814723884"><ele>668.0</ele><time>2026-05-02T13:27:44Z</time></trkpt><trkpt lat="44.52631290725322" lon="9.241520296424223"><ele>666.6666666666666</ele><time>2026-05-02T13:27:45Z</time></trkpt><trkpt lat="44.52627162453228" lon="9.24175116635007"><ele>665.3333333333334</ele><time>2026-05-02T13:27:46Z</time></trkpt><trkpt lat="44.526241242817505" lon="9.242026164669362"><ele>664.0</ele><time>2026-05-02T13:27:47Z</time></trkpt><trkpt lat="44.5262097766377" lon="9.242332227436302"><ele>664.0</ele><time>2026-05-02T13:27:48Z</time></trkpt><trkpt lat="44.52617823841261" lon="9.242620112456422"><ele>664.0</ele><time>2026-05-02T13:27:49Z</time></trkpt><trkpt lat="44.52615693201646" lon="9.242866871970703"><ele>664.0</ele><time>2026-05-02T13:27:50Z</time></trkpt><trkpt lat="44.52611436665228" lon="9.24308026979716"><ele>665.6666666666667</ele><time>2026-05-02T13:27:51Z</time></trkpt><trkpt lat="44.526034198174024" lon="9.243262986366874"><ele>667.3333333333334</ele><time>2026-05-02T13:27:52Z</time></trkpt><trkpt lat="44.52592033011508" lon="9.243417225786748"><ele>669.0</ele><time>2026-05-02T13:27:53Z</time></trkpt><trkpt lat="44.52582247562365" lon="9.243596552663774"><ele>669.0</ele><time>2026-05-02T13:27:54Z</time></trkpt><trkpt lat="44.52575017120093" lon="9.243844693813038"><ele>669.0</ele><time>2026-05-02T13:27:55Z</time></trkpt><trkpt lat="44.52568159267744" lon="9.244133054411483"><ele>669.0</ele><time>2026-05-02T13:27:56Z</time></trkpt><trkpt lat="44.52560503672176" lon="9.244422997033658"><ele>671.3333333333334</ele><time>2026-05-02T13:27:57Z</time></trkpt><trkpt lat="44.52552418109779" lon="9.24468468682144"><ele>673.6666666666667</ele><time>2026-05-02T13:27:58Z</time></trkpt><trkpt lat="44.525449716356626" lon="9.244923853670159"><ele>676.0</ele><time>2026-05-02T13:27:59Z</time></trkpt><trkpt lat="44.52538720427036" lon="9.24515626058372"><ele>670.3333333333334</ele><time>2026-05-02T13:28:00Z</time></trkpt><trkpt lat="44.525336736296524" lon="9.245394999590843"><ele>664.6666666666666</ele><time>2026-05-02T13:28:01Z</time></trkpt><trkpt lat="44.525301962921176" lon="9.245635829648242"><ele>659.0</ele><time>2026-05-02T13:28:02Z</time></trkpt><trkpt lat="44.5252813940844" lon="9.24588028831483"><ele>659.0</ele><time>2026-05-02T13:28:03Z</time></trkpt><trkpt lat="44.52526356795567" lon="9.246106514031434"><ele>659.0</ele><time>2026-05-02T13:28:04Z</time></trkpt><trkpt lat="44.52523018844094" lon="9.246306561408993"><ele>659.0</ele><time>2026-05-02T13:28:04.999Z</time></trkpt><trkpt lat="44.52518704059532" lon="9.246476416211792"><ele>659.0</ele><time>2026-05-02T13:28:05.999Z</time></trkpt><trkpt lat="44.52516410194042" lon="9.246618969254477"><ele>659.4000000000001</ele><time>2026-05-02T13:28:06.999Z</time></trkpt><trkpt lat="44.52517248503969" lon="9.246761780305873"><ele>659.8</ele><time>2026-05-02T13:28:07.999Z</time></trkpt><trkpt lat="44.52521165441816" lon="9.246897322334604"><ele>660.2</ele><time>2026-05-02T13:28:08.999Z</time></trkpt><trkpt lat="44.5252767283944" lon="9.247033792675323"><ele>660.5999999999999</ele><time>2026-05-02T13:28:09.999Z</time></trkpt><trkpt lat="44.525341346164765" lon="9.247152797230077"><ele>661.0</ele><time>2026-05-02T13:28:10.999Z</time></trkpt><trkpt lat="44.52539074540072" lon="9.247236567152406"><ele>662.0</ele><time>2026-05-02T13:28:11.999Z</time></trkpt><trkpt lat="44.525436188910845" lon="9.24734433580639"><ele>663.0</ele><time>2026-05-02T13:28:13.999Z</time></trkpt><trkpt lat="44.52547757497767" lon="9.24741817278147"><ele>664.0</ele><time>2026-05-02T13:28:14.999Z</time></trkpt><trkpt lat="44.52553202929088" lon="9.247515325008957"><ele>665.0</ele><time>2026-05-02T13:28:15.999Z</time></trkpt><trkpt lat="44.52558959650513" lon="9.247620110169265"><ele>666.0</ele><time>2026-05-02T13:28:16.999Z</time></trkpt><trkpt lat="44.525661201112285" lon="9.247726198496816"><ele>667.0</ele><time>2026-05-02T13:28:17.999Z</time></trkpt><trkpt lat="44.525718357853385" lon="9.24784296321792"><ele>667.0</ele><time>2026-05-02T13:28:18.999Z</time></trkpt><trkpt lat="44.525757664643244" lon="9.247962863222394"><ele>667.0</ele><time>2026-05-02T13:28:19.999Z</time></trkpt><trkpt lat="44.52580810965649" lon="9.24807254354105"><ele>667.0</ele><time>2026-05-02T13:28:20.999Z</time></trkpt><trkpt lat="44.52586164183098" lon="9.248180485004026"><ele>667.0</ele><time>2026-05-02T13:28:21.999Z</time></trkpt><trkpt lat="44.5259168600134" lon="9.248295280720656"><ele>667.0</ele><time>2026-05-02T13:28:22.999Z</time></trkpt><trkpt lat="44.52597678783168" lon="9.248388940223032"><ele>666.6</ele><time>2026-05-02T13:28:23.999Z</time></trkpt><trkpt lat="44.5260249323223" lon="9.248497425919936"><ele>666.2</ele><time>2026-05-02T13:28:24.999Z</time></trkpt><trkpt lat="44.52607531337335" lon="9.248610718405608"><ele>665.8</ele><time>2026-05-02T13:28:25.999Z</time></trkpt><trkpt lat="44.52612602374136" lon="9.248727544116917"><ele>665.4</ele><time>2026-05-02T13:28:26.999Z</time></trkpt><trkpt lat="44.526184644123965" lon="9.248849017920342"><ele>665.0</ele><time>2026-05-02T13:28:27.999Z</time></trkpt><trkpt lat="44.52624712296634" lon="9.248974995455608"><ele>665.0</ele><time>2026-05-02T13:28:28.999Z</time></trkpt><trkpt lat="44.526317479308844" lon="9.249103813010088"><ele>665.0</ele><time>2026-05-02T13:28:29.999Z</time></trkpt><trkpt lat="44.52639682755752" lon="9.249233463838644"><ele>665.0</ele><time>2026-05-02T13:28:30.999Z</time></trkpt><trkpt lat="44.52648796962" lon="9.249374955148017"><ele>665.0</ele><time>2026-05-02T13:28:31.999Z</time></trkpt><trkpt lat="44.52658837927689" lon="9.249526216114273"><ele>665.0</ele><time>2026-05-02T13:28:32.999Z</time></trkpt><trkpt lat="44.52669334418509" lon="9.249684194151248"><ele>665.0</ele><time>2026-05-02T13:28:33.999Z</time></trkpt><trkpt lat="44.52679068271839" lon="9.249834973909321"><ele>665.0</ele><time>2026-05-02T13:28:34.999Z</time></trkpt><trkpt lat="44.52689307489986" lon="9.249986900741371"><ele>665.0</ele><time>2026-05-02T13:28:36Z</time></trkpt><trkpt lat="44.52699942091775" lon="9.250140119672885"><ele>665.3333333333333</ele><time>2026-05-02T13:28:37Z</time></trkpt><trkpt lat="44.52711110291257" lon="9.25029602769662"><ele>665.6666666666666</ele><time>2026-05-02T13:28:38Z</time></trkpt><trkpt lat="44.527221952025336" lon="9.250450421843867"><ele>666.0</ele><time>2026-05-02T13:28:39Z</time></trkpt><trkpt lat="44.527325014981926" lon="9.250591743450897"><ele>663.5</ele><time>2026-05-02T13:28:40Z</time></trkpt><trkpt lat="44.52741724116152" lon="9.25071717304649"><ele>661.0</ele><time>2026-05-02T13:28:41Z</time></trkpt><trkpt lat="44.527510043635395" lon="9.25082736557126"><ele>658.5</ele><time>2026-05-02T13:28:42Z</time></trkpt><trkpt lat="44.52760758135067" lon="9.250917598373949"><ele>656.0</ele><time>2026-05-02T13:28:43Z</time></trkpt><trkpt lat="44.52770857559208" lon="9.251001279941008"><ele>656.0</ele><time>2026-05-02T13:28:44Z</time></trkpt><trkpt lat="44.52781184848973" lon="9.251087247667293"><ele>656.0</ele><time>2026-05-02T13:28:45Z</time></trkpt><trkpt lat="44.52791196128204" lon="9.251183238025042"><ele>656.0</ele><time>2026-05-02T13:28:46Z</time></trkpt><trkpt lat="44.52800958145929" lon="9.251304217462561"><ele>656.0</ele><time>2026-05-02T13:28:47Z</time></trkpt><trkpt lat="44.528099963719086" lon="9.251455359031077"><ele>662.0</ele><time>2026-05-02T13:28:48Z</time></trkpt><trkpt lat="44.52818198155779" lon="9.251632305451817"><ele>668.0</ele><time>2026-05-02T13:28:49Z</time></trkpt><trkpt lat="44.52824565230771" lon="9.251827387370199"><ele>674.0</ele><time>2026-05-02T13:28:50Z</time></trkpt><trkpt lat="44.52828722058978" lon="9.252033952611603"><ele>674.0</ele><time>2026-05-02T13:28:51Z</time></trkpt><trkpt lat="44.52830303910925" lon="9.25225198933881"><ele>674.0</ele><time>2026-05-02T13:28:52Z</time></trkpt><trkpt lat="44.52830225925119" lon="9.252468128982319"><ele>674.0</ele><time>2026-05-02T13:28:53Z</time></trkpt><trkpt lat="44.528299936476365" lon="9.25267056594361"><ele>673.5</ele><time>2026-05-02T13:28:54Z</time></trkpt><trkpt lat="44.52828604665638" lon="9.252853394704722"><ele>673.0</ele><time>2026-05-02T13:28:55Z</time></trkpt><trkpt lat="44.528237740515756" lon="9.253036237304835"><ele>672.5</ele><time>2026-05-02T13:28:56Z</time></trkpt><trkpt lat="44.52814027771583" lon="9.253214160227843"><ele>672.0</ele><time>2026-05-02T13:28:57Z</time></trkpt><trkpt lat="44.52802016385324" lon="9.253411037479445"><ele>673.3333333333334</ele><time>2026-05-02T13:28:58Z</time></trkpt><trkpt lat="44.52789577630018" lon="9.253641942047576"><ele>674.6666666666667</ele><time>2026-05-02T13:28:59Z</time></trkpt><trkpt lat="44.52778525236559" lon="9.253853106989855"><ele>676.0</ele><time>2026-05-02T13:29:00Z</time></trkpt><trkpt lat="44.52766170340842" lon="9.254081176949231"><ele>675.3333333333334</ele><time>2026-05-02T13:29:01Z</time></trkpt><trkpt lat="44.52753231990008" lon="9.254311961752666"><ele>674.6666666666666</ele><time>2026-05-02T13:29:02Z</time></trkpt><trkpt lat="44.527397080030774" lon="9.254552018006512"><ele>674.0</ele><time>2026-05-02T13:29:03Z</time></trkpt><trkpt lat="44.52725590395523" lon="9.254806129690747"><ele>674.0</ele><time>2026-05-02T13:29:04Z</time></trkpt><trkpt lat="44.52711105717532" lon="9.255074603007007"><ele>674.0</ele><time>2026-05-02T13:29:05Z</time></trkpt><trkpt lat="44.526968454885676" lon="9.255346118206976"><ele>669.3333333333333</ele><time>2026-05-02T13:29:06Z</time></trkpt><trkpt lat="44.526847425430645" lon="9.255593540245414"><ele>664.6666666666666</ele><time>2026-05-02T13:29:07Z</time></trkpt><trkpt lat="44.526741041595876" lon="9.255824869244657"><ele>660.0</ele><time>2026-05-02T13:29:08Z</time></trkpt><trkpt lat="44.52664486041151" lon="9.25604029963106"><ele>660.0</ele><time>2026-05-02T13:29:09Z</time></trkpt><trkpt lat="44.52655561514264" lon="9.256243143478063"><ele>660.0</ele><time>2026-05-02T13:29:10Z</time></trkpt><trkpt lat="44.52647897464913" lon="9.256449297838948"><ele>660.0</ele><time>2026-05-02T13:29:11Z</time></trkpt><trkpt lat="44.52641750557836" lon="9.256674591043286"><ele>662.3333333333334</ele><time>2026-05-02T13:29:12Z</time></trkpt><trkpt lat="44.52637867084983" lon="9.256922182952732"><ele>664.6666666666667</ele><time>2026-05-02T13:29:13Z</time></trkpt><trkpt lat="44.526362904811606" lon="9.257171079050158"><ele>667.0</ele><time>2026-05-02T13:29:14Z</time></trkpt><trkpt lat="44.52638036568756" lon="9.25742832240828"><ele>668.0</ele><time>2026-05-02T13:29:15Z</time></trkpt><trkpt lat="44.52642696272793" lon="9.257697655613896"><ele>669.0</ele><time>2026-05-02T13:29:16Z</time></trkpt><trkpt lat="44.526498088115375" lon="9.25795030661845"><ele>670.0</ele><time>2026-05-02T13:29:17Z</time></trkpt><trkpt lat="44.52660028149181" lon="9.258172010782175"><ele>666.0</ele><time>2026-05-02T13:29:18Z</time></trkpt><trkpt lat="44.526733976839274" lon="9.258380953304389"><ele>662.0</ele><time>2026-05-02T13:29:19Z</time></trkpt><trkpt lat="44.526890542468266" lon="9.258572720114868"><ele>658.0</ele><time>2026-05-02T13:29:20Z</time></trkpt><trkpt lat="44.527067997834436" lon="9.258738450492025"><ele>658.0</ele><time>2026-05-02T13:29:21Z</time></trkpt><trkpt lat="44.52726437340222" lon="9.258904232255832"><ele>658.0</ele><time>2026-05-02T13:29:22Z</time></trkpt><trkpt lat="44.527479193469865" lon="9.25904353145769"><ele>658.0</ele><time>2026-05-02T13:29:23Z</time></trkpt><trkpt lat="44.52768186827944" lon="9.259166218518192"><ele>658.0</ele><time>2026-05-02T13:29:24Z</time></trkpt><trkpt lat="44.52785495704779" lon="9.259349231107999"><ele>658.0</ele><time>2026-05-02T13:29:25Z</time></trkpt><trkpt lat="44.52800088462217" lon="9.259536749478862"><ele>656.0</ele><time>2026-05-02T13:29:26Z</time></trkpt><trkpt lat="44.528147888729066" lon="9.259710358471262"><ele>654.0</ele><time>2026-05-02T13:29:27Z</time></trkpt><trkpt lat="44.52828696550855" lon="9.259863909977152"><ele>652.0</ele><time>2026-05-02T13:29:28Z</time></trkpt><trkpt lat="44.528427890104375" lon="9.259989296751554"><ele>652.0</ele><time>2026-05-02T13:29:29Z</time></trkpt><trkpt lat="44.52859302349757" lon="9.260104288396349"><ele>652.0</ele><time>2026-05-02T13:29:30Z</time></trkpt><trkpt lat="44.52879150810536" lon="9.260136917434693"><ele>652.0</ele><time>2026-05-02T13:29:31Z</time></trkpt><trkpt lat="44.52898748415556" lon="9.260174212061198"><ele>656.0</ele><time>2026-05-02T13:29:32Z</time></trkpt><trkpt lat="44.52916619917471" lon="9.260242862773428"><ele>660.0</ele><time>2026-05-02T13:29:33Z</time></trkpt><trkpt lat="44.52933101013806" lon="9.26034144421703"><ele>664.0</ele><time>2026-05-02T13:29:34Z</time></trkpt><trkpt lat="44.52948867237686" lon="9.260435776197934"><ele>658.6666666666667</ele><time>2026-05-02T13:29:35Z</time></trkpt><trkpt lat="44.52964258026969" lon="9.260487462161638"><ele>653.3333333333334</ele><time>2026-05-02T13:29:36Z</time></trkpt><trkpt lat="44.529801512758354" lon="9.260491726404426"><ele>648.0</ele><time>2026-05-02T13:29:37Z</time></trkpt><trkpt lat="44.52995952310181" lon="9.260460443248457"><ele>648.0</ele><time>2026-05-02T13:29:38Z</time></trkpt><trkpt lat="44.53010535695711" lon="9.260385453201385"><ele>648.0</ele><time>2026-05-02T13:29:39Z</time></trkpt><trkpt lat="44.53023156552974" lon="9.26026756486215"><ele>648.0</ele><time>2026-05-02T13:29:40Z</time></trkpt><trkpt lat="44.530335198180886" lon="9.26010695444476"><ele>647.6666666666666</ele><time>2026-05-02T13:29:41Z</time></trkpt><trkpt lat="44.53041505044007" lon="9.259905396089078"><ele>647.3333333333333</ele><time>2026-05-02T13:29:42Z</time></trkpt><trkpt lat="44.53045949633063" lon="9.25967203262769"><ele>647.0</ele><time>2026-05-02T13:29:43Z</time></trkpt><trkpt lat="44.53046415597418" lon="9.259402614331695"><ele>647.0</ele><time>2026-05-02T13:29:44Z</time></trkpt><trkpt lat="44.53044993981565" lon="9.2591169885348"><ele>647.0</ele><time>2026-05-02T13:29:45Z</time></trkpt><trkpt lat="44.53043022063279" lon="9.25881928988739"><ele>647.0</ele><time>2026-05-02T13:29:46Z</time></trkpt><trkpt lat="44.53042324704985" lon="9.258502686844981"><ele>646.6666666666666</ele><time>2026-05-02T13:29:47Z</time></trkpt><trkpt lat="44.53041558333126" lon="9.258195761024123"><ele>646.3333333333334</ele><time>2026-05-02T13:29:48Z</time></trkpt><trkpt lat="44.53040477081668" lon="9.257904913668304"><ele>646.0</ele><time>2026-05-02T13:29:49Z</time></trkpt><trkpt lat="44.53040862716323" lon="9.257626457276636"><ele>645.6666666666667</ele><time>2026-05-02T13:29:50Z</time></trkpt><trkpt lat="44.530424030170366" lon="9.257371861161799"><ele>645.3333333333334</ele><time>2026-05-02T13:29:51Z</time></trkpt><trkpt lat="44.53043698969888" lon="9.257134887759882"><ele>645.0</ele><time>2026-05-02T13:29:52Z</time></trkpt><trkpt lat="44.530448803208465" lon="9.256912386181257"><ele>644.6666666666666</ele><time>2026-05-02T13:29:53Z</time></trkpt><trkpt lat="44.53046590891226" lon="9.256709810685244"><ele>644.3333333333333</ele><time>2026-05-02T13:29:54Z</time></trkpt><trkpt lat="44.530508398792655" lon="9.25651158895381"><ele>644.0</ele><time>2026-05-02T13:29:55Z</time></trkpt><trkpt lat="44.53058440364215" lon="9.25630194269148"><ele>645.6666666666666</ele><time>2026-05-02T13:29:56Z</time></trkpt><trkpt lat="44.53066527890956" lon="9.25607371714157"><ele>647.3333333333334</ele><time>2026-05-02T13:29:57Z</time></trkpt><trkpt lat="44.530744933501126" lon="9.255844807288083"><ele>649.0</ele><time>2026-05-02T13:29:58Z</time></trkpt><trkpt lat="44.53084762716983" lon="9.255626656323697"><ele>655.0</ele><time>2026-05-02T13:29:59Z</time></trkpt><trkpt lat="44.53096682378179" lon="9.255411421477753"><ele>661.0</ele><time>2026-05-02T13:30:00Z</time></trkpt><trkpt lat="44.53109076677724" lon="9.255195675728523"><ele>667.0</ele><time>2026-05-02T13:30:01Z</time></trkpt><trkpt lat="44.531217861215765" lon="9.254989986482125"><ele>665.6666666666667</ele><time>2026-05-02T13:30:02Z</time></trkpt><trkpt lat="44.53133944928618" lon="9.254808024862509"><ele>664.3333333333334</ele><time>2026-05-02T13:30:03Z</time></trkpt><trkpt lat="44.53146252740114" lon="9.25464294117528"><ele>663.0</ele><time>2026-05-02T13:30:04Z</time></trkpt><trkpt lat="44.53160266207206" lon="9.254499063166138"><ele>663.0</ele><time>2026-05-02T13:30:05Z</time></trkpt><trkpt lat="44.531746693376974" lon="9.254380431861396"><ele>663.0</ele><time>2026-05-02T13:30:06Z</time></trkpt><trkpt lat="44.531880860634516" lon="9.254289547125305"><ele>663.0</ele><time>2026-05-02T13:30:07Z</time></trkpt><trkpt lat="44.53200830393548" lon="9.254233175274628"><ele>659.5</ele><time>2026-05-02T13:30:08Z</time></trkpt><trkpt lat="44.532130561067504" lon="9.254202466663113"><ele>656.0</ele><time>2026-05-02T13:30:09Z</time></trkpt><trkpt lat="44.53225539941563" lon="9.254186660637565"><ele>652.5</ele><time>2026-05-02T13:30:10Z</time></trkpt><trkpt lat="44.53237764162848" lon="9.254192278184673"><ele>649.0</ele><time>2026-05-02T13:30:11Z</time></trkpt><trkpt lat="44.53249496557246" lon="9.254204733314996"><ele>649.0</ele><time>2026-05-02T13:30:12Z</time></trkpt><trkpt lat="44.53261346537074" lon="9.254211725218651"><ele>649.0</ele><time>2026-05-02T13:30:13Z</time></trkpt><trkpt lat="44.53273164664765" lon="9.254233161669566"><ele>649.0</ele><time>2026-05-02T13:30:14Z</time></trkpt><trkpt lat="44.53284240938804" lon="9.254289704608794"><ele>649.0</ele><time>2026-05-02T13:30:15Z</time></trkpt><trkpt lat="44.532960497500255" lon="9.254384709099345"><ele>653.0</ele><time>2026-05-02T13:30:16Z</time></trkpt><trkpt lat="44.53306237398233" lon="9.254489134489488"><ele>657.0</ele><time>2026-05-02T13:30:17Z</time></trkpt><trkpt lat="44.53314561485339" lon="9.254583105813463"><ele>661.0</ele><time>2026-05-02T13:30:17.999Z</time></trkpt><trkpt lat="44.53323509156758" lon="9.254665197518479"><ele>665.0</ele><time>2026-05-02T13:30:18.999Z</time></trkpt><trkpt lat="44.53332752797107" lon="9.25474979937428"><ele>659.75</ele><time>2026-05-02T13:30:19.999Z</time></trkpt><trkpt lat="44.533418163687664" lon="9.254838783904036"><ele>654.5</ele><time>2026-05-02T13:30:20.999Z</time></trkpt><trkpt lat="44.53351084053115" lon="9.254931584847197"><ele>649.25</ele><time>2026-05-02T13:30:21.999Z</time></trkpt><trkpt lat="44.53360470965469" lon="9.255028871860247"><ele>644.0</ele><time>2026-05-02T13:30:22.999Z</time></trkpt><trkpt lat="44.533694375673505" lon="9.255136376688963"><ele>647.0</ele><time>2026-05-02T13:30:23.999Z</time></trkpt><trkpt lat="44.533767842377195" lon="9.255252103358401"><ele>650.0</ele><time>2026-05-02T13:30:24.999Z</time></trkpt><trkpt lat="44.53382824615697" lon="9.2553716199508"><ele>653.0</ele><time>2026-05-02T13:30:25.999Z</time></trkpt><trkpt lat="44.53388692807516" lon="9.255485161252372"><ele>656.0</ele><time>2026-05-02T13:30:26.999Z</time></trkpt><trkpt lat="44.53394511891325" lon="9.25559559453814"><ele>659.0</ele><time>2026-05-02T13:30:27.999Z</time></trkpt><trkpt lat="44.533999745046565" lon="9.255709961089229"><ele>659.0</ele><time>2026-05-02T13:30:28.999Z</time></trkpt><trkpt lat="44.53403495720352" lon="9.255847607467004"><ele>659.0</ele><time>2026-05-02T13:30:29.999Z</time></trkpt><trkpt lat="44.534015781334375" lon="9.256006541878731"><ele>659.0</ele><time>2026-05-02T13:30:30.999Z</time></trkpt><trkpt lat="44.533977249909185" lon="9.25620986720621"><ele>659.0</ele><time>2026-05-02T13:30:31.999Z</time></trkpt><trkpt lat="44.53395484801948" lon="9.256477239924374"><ele>659.0</ele><time>2026-05-02T13:30:32.999Z</time></trkpt><trkpt lat="44.53394081141209" lon="9.256773059151527"><ele>659.0</ele><time>2026-05-02T13:30:33.999Z</time></trkpt><trkpt lat="44.53390069812046" lon="9.257048696020867"><ele>659.0</ele><time>2026-05-02T13:30:34.999Z</time></trkpt><trkpt lat="44.53386161748264" lon="9.257338520141037"><ele>659.0</ele><time>2026-05-02T13:30:35.999Z</time></trkpt><trkpt lat="44.533826491111476" lon="9.257642865420197"><ele>659.0</ele><time>2026-05-02T13:30:36.999Z</time></trkpt><trkpt lat="44.5338059043642" lon="9.25794940144933"><ele>659.0</ele><time>2026-05-02T13:30:37.999Z</time></trkpt><trkpt lat="44.53380725895185" lon="9.258273365552864"><ele>660.0</ele><time>2026-05-02T13:30:38.999Z</time></trkpt><trkpt lat="44.53382915822358" lon="9.258605456111496"><ele>661.0</ele><time>2026-05-02T13:30:39.999Z</time></trkpt><trkpt lat="44.53384950264384" lon="9.258933044280093"><ele>660.0</ele><time>2026-05-02T13:30:40.999Z</time></trkpt><trkpt lat="44.53384074450662" lon="9.259257623410925"><ele>659.0</ele><time>2026-05-02T13:30:42Z</time></trkpt><trkpt lat="44.53381106952951" lon="9.259576303069286"><ele>658.5</ele><time>2026-05-02T13:30:43Z</time></trkpt><trkpt lat="44.533797216117826" lon="9.259894576201848"><ele>658.0</ele><time>2026-05-02T13:30:44Z</time></trkpt><trkpt lat="44.53380937751023" lon="9.260223249420324"><ele>658.0</ele><time>2026-05-02T13:30:45Z</time></trkpt><trkpt lat="44.53382035213349" lon="9.260518663983534"><ele>658.0</ele><time>2026-05-02T13:30:46Z</time></trkpt><trkpt lat="44.5338154016786" lon="9.260793562988763"><ele>658.0</ele><time>2026-05-02T13:30:47Z</time></trkpt><trkpt lat="44.533799127236094" lon="9.26104790069605"><ele>656.25</ele><time>2026-05-02T13:30:48Z</time></trkpt><trkpt lat="44.53379195591654" lon="9.2612748232353"><ele>654.5</ele><time>2026-05-02T13:30:49Z</time></trkpt><trkpt lat="44.533801101028374" lon="9.261472310607168"><ele>652.75</ele><time>2026-05-02T13:30:50Z</time></trkpt><trkpt lat="44.53383570719695" lon="9.261663352019786"><ele>651.0</ele><time>2026-05-02T13:30:51Z</time></trkpt><trkpt lat="44.53390006080995" lon="9.261827480865659"><ele>647.75</ele><time>2026-05-02T13:30:52Z</time></trkpt><trkpt lat="44.53399433905115" lon="9.261948294293362"><ele>644.5</ele><time>2026-05-02T13:30:53Z</time></trkpt><trkpt lat="44.53410680856233" lon="9.262005514652754"><ele>641.25</ele><time>2026-05-02T13:30:54Z</time></trkpt><trkpt lat="44.534239767812686" lon="9.26200014581655"><ele>638.0</ele><time>2026-05-02T13:30:55Z</time></trkpt><trkpt lat="44.534389942966754" lon="9.261962633145384"><ele>638.0</ele><time>2026-05-02T13:30:56Z</time></trkpt><trkpt lat="44.53455745244965" lon="9.261887325732971"><ele>638.0</ele><time>2026-05-02T13:30:57Z</time></trkpt><trkpt lat="44.53473350979999" lon="9.261785245202448"><ele>638.0</ele><time>2026-05-02T13:30:58Z</time></trkpt><trkpt lat="44.53490410713819" lon="9.261657183378768"><ele>638.0</ele><time>2026-05-02T13:30:59Z</time></trkpt><trkpt lat="44.53507381276562" lon="9.261508416984935"><ele>638.0</ele><time>2026-05-02T13:31:00Z</time></trkpt><trkpt lat="44.535223478920216" lon="9.261368550717195"><ele>638.0</ele><time>2026-05-02T13:31:01Z</time></trkpt><trkpt lat="44.53537594405448" lon="9.261249478768157"><ele>645.0</ele><time>2026-05-02T13:31:02Z</time></trkpt><trkpt lat="44.53552375444573" lon="9.261178905450127"><ele>652.0</ele><time>2026-05-02T13:31:03Z</time></trkpt><trkpt lat="44.53567446868572" lon="9.261160017429782"><ele>659.0</ele><time>2026-05-02T13:31:04Z</time></trkpt><trkpt lat="44.53582168752938" lon="9.261194077533888"><ele>659.0</ele><time>2026-05-02T13:31:05Z</time></trkpt><trkpt lat="44.53599300300348" lon="9.261213816998032"><ele>659.0</ele><time>2026-05-02T13:31:06Z</time></trkpt><trkpt lat="44.53616975839486" lon="9.26120070501518"><ele>659.0</ele><time>2026-05-02T13:31:07Z</time></trkpt><trkpt lat="44.53637543106668" lon="9.261157754685593"><ele>649.0</ele><time>2026-05-02T13:31:08Z</time></trkpt><trkpt lat="44.53660315360223" lon="9.26111702000482"><ele>639.0</ele><time>2026-05-02T13:31:09Z</time></trkpt><trkpt lat="44.53682406292556" lon="9.261081464033976"><ele>639.0</ele><time>2026-05-02T13:31:10Z</time></trkpt><trkpt lat="44.53704560125903" lon="9.26105483121432"><ele>639.0</ele><time>2026-05-02T13:31:11Z</time></trkpt><trkpt lat="44.53727092211068" lon="9.261044817818751"><ele>639.0</ele><time>2026-05-02T13:31:12Z</time></trkpt><trkpt lat="44.53749633075451" lon="9.261046550299733"><ele>639.0</ele><time>2026-05-02T13:31:13Z</time></trkpt><trkpt lat="44.53772214953957" lon="9.261046267871073"><ele>639.0</ele><time>2026-05-02T13:31:14Z</time></trkpt><trkpt lat="44.53794893091916" lon="9.261041184933548"><ele>639.0</ele><time>2026-05-02T13:31:15Z</time></trkpt><trkpt lat="44.53817911979236" lon="9.261036726663974"><ele>639.0</ele><time>2026-05-02T13:31:16Z</time></trkpt><trkpt lat="44.538413070749954" lon="9.261034426703628"><ele>639.0</ele><time>2026-05-02T13:31:17Z</time></trkpt><trkpt lat="44.53865044741018" lon="9.261028601175825"><ele>639.0</ele><time>2026-05-02T13:31:18Z</time></trkpt><trkpt lat="44.53889173501516" lon="9.261022475351972"><ele>643.5</ele><time>2026-05-02T13:31:19Z</time></trkpt><trkpt lat="44.53913839740998" lon="9.261017207026333"><ele>648.0</ele><time>2026-05-02T13:31:20Z</time></trkpt><trkpt lat="44.53938863787126" lon="9.26101229774601"><ele>645.0</ele><time>2026-05-02T13:31:21Z</time></trkpt><trkpt lat="44.539638791066274" lon="9.261003007234518"><ele>642.0</ele><time>2026-05-02T13:31:22Z</time></trkpt><trkpt lat="44.53988482440171" lon="9.260983477857808"><ele>642.0</ele><time>2026-05-02T13:31:23Z</time></trkpt><trkpt lat="44.54010858550298" lon="9.260962754801957"><ele>642.0</ele><time>2026-05-02T13:31:24Z</time></trkpt><trkpt lat="44.540317827595935" lon="9.26094620384144"><ele>642.0</ele><time>2026-05-02T13:31:25Z</time></trkpt><trkpt lat="44.540506582798436" lon="9.260928085584435"><ele>638.6666666666666</ele><time>2026-05-02T13:31:26Z</time></trkpt><trkpt lat="44.54068087221908" lon="9.260914118820812"><ele>635.3333333333333</ele><time>2026-05-02T13:31:27Z</time></trkpt><trkpt lat="44.54084350483059" lon="9.260900762052085"><ele>632.0</ele><time>2026-05-02T13:31:28Z</time></trkpt><trkpt lat="44.540999454578525" lon="9.260877788731907"><ele>632.0</ele><time>2026-05-02T13:31:29Z</time></trkpt><trkpt lat="44.54114171466566" lon="9.260819477146702"><ele>632.0</ele><time>2026-05-02T13:31:30Z</time></trkpt><trkpt lat="44.54126750876004" lon="9.260736318098965"><ele>632.0</ele><time>2026-05-02T13:31:31Z</time></trkpt><trkpt lat="44.541371356166" lon="9.260649457583785"><ele>632.0</ele><time>2026-05-02T13:31:32Z</time></trkpt><trkpt lat="44.54145157825921" lon="9.26058041693797"><ele>631.0</ele><time>2026-05-02T13:31:33Z</time></trkpt><trkpt lat="44.541515518437166" lon="9.260522489734422"><ele>630.0</ele><time>2026-05-02T13:31:34Z</time></trkpt><trkpt lat="44.54159291176518" lon="9.26043994866814"><ele>629.0</ele><time>2026-05-02T13:31:36Z</time></trkpt><trkpt lat="44.541639460671576" lon="9.260367691848035"><ele>628.0</ele><time>2026-05-02T13:31:39Z</time></trkpt><trkpt lat="44.5417076999959" lon="9.26026081276453"><ele>627.0</ele><time>2026-05-02T13:31:43Z</time></trkpt><trkpt lat="44.541794962523134" lon="9.260118924213542"><ele>627.0</ele><time>2026-05-02T13:31:45Z</time></trkpt><trkpt lat="44.54185799901802" lon="9.26002672979343"><ele>627.0</ele><time>2026-05-02T13:31:46Z</time></trkpt><trkpt lat="44.54193090804562" lon="9.259932262492368"><ele>627.0</ele><time>2026-05-02T13:31:47Z</time></trkpt><trkpt lat="44.542003610159746" lon="9.259856360471058"><ele>627.0</ele><time>2026-05-02T13:31:48Z</time></trkpt><trkpt lat="44.54209335352862" lon="9.259794547408099"><ele>627.0</ele><time>2026-05-02T13:31:49Z</time></trkpt><trkpt lat="44.54219602073308" lon="9.259757020865939"><ele>626.25</ele><time>2026-05-02T13:31:50Z</time></trkpt><trkpt lat="44.542306631127616" lon="9.25974893804223"><ele>625.5</ele><time>2026-05-02T13:31:51Z</time></trkpt><trkpt lat="44.542433651614836" lon="9.259783855136257"><ele>624.75</ele><time>2026-05-02T13:31:52Z</time></trkpt><trkpt lat="44.54257865783115" lon="9.259842586879719"><ele>624.0</ele><time>2026-05-02T13:31:53Z</time></trkpt><trkpt lat="44.54272865730391" lon="9.25990463569539"><ele>623.5</ele><time>2026-05-02T13:31:54Z</time></trkpt><trkpt lat="44.542888555075514" lon="9.259962167003266"><ele>623.0</ele><time>2026-05-02T13:31:55Z</time></trkpt><trkpt lat="44.54302357912078" lon="9.260010144800665"><ele>622.5</ele><time>2026-05-02T13:31:56Z</time></trkpt><trkpt lat="44.54315501740725" lon="9.260060333173952"><ele>622.0</ele><time>2026-05-02T13:31:57Z</time></trkpt><trkpt lat="44.5432773956721" lon="9.260109187660104"><ele>622.0</ele><time>2026-05-02T13:31:58Z</time></trkpt><trkpt lat="44.5433899326595" lon="9.260155987124103"><ele>622.0</ele><time>2026-05-02T13:31:59Z</time></trkpt><trkpt lat="44.54349991880297" lon="9.260198657062324"><ele>622.0</ele><time>2026-05-02T13:32:00Z</time></trkpt><trkpt lat="44.543608602999015" lon="9.260240442386973"><ele>622.0</ele><time>2026-05-02T13:32:01Z</time></trkpt><trkpt lat="44.5437124520982" lon="9.260283278681765"><ele>624.0</ele><time>2026-05-02T13:32:02Z</time></trkpt><trkpt lat="44.54381756001925" lon="9.260329696111485"><ele>626.0</ele><time>2026-05-02T13:32:03Z</time></trkpt><trkpt lat="44.543914647884286" lon="9.260373178354119"><ele>628.0</ele><time>2026-05-02T13:32:04Z</time></trkpt><trkpt lat="44.54400120653158" lon="9.260409348458468"><ele>630.0</ele><time>2026-05-02T13:32:05Z</time></trkpt><trkpt lat="44.544090956299726" lon="9.26045106579587"><ele>632.0</ele><time>2026-05-02T13:32:06Z</time></trkpt><trkpt lat="44.5441646897625" lon="9.260513191508961"><ele>632.0</ele><time>2026-05-02T13:32:07Z</time></trkpt><trkpt lat="44.54421961245579" lon="9.260607843696107"><ele>632.0</ele><time>2026-05-02T13:32:08Z</time></trkpt><trkpt lat="44.54426503278801" lon="9.260740336822918"><ele>632.0</ele><time>2026-05-02T13:32:09Z</time></trkpt><trkpt lat="44.54430286390463" lon="9.26090569360138"><ele>632.0</ele><time>2026-05-02T13:32:10Z</time></trkpt><trkpt lat="44.544342837145614" lon="9.26111081949359"><ele>629.3333333333333</ele><time>2026-05-02T13:32:11Z</time></trkpt><trkpt lat="44.54438642987765" lon="9.26133363613516"><ele>626.6666666666666</ele><time>2026-05-02T13:32:12Z</time></trkpt><trkpt lat="44.544431241873156" lon="9.2615864703147"><ele>624.0</ele><time>2026-05-02T13:32:13Z</time></trkpt><trkpt lat="44.544483290988005" lon="9.26185899168048"><ele>632.3333333333334</ele><time>2026-05-02T13:32:14Z</time></trkpt><trkpt lat="44.544556497671564" lon="9.262133672982598"><ele>640.6666666666667</ele><time>2026-05-02T13:32:15Z</time></trkpt><trkpt lat="44.544659902807126" lon="9.26243040987239"><ele>649.0</ele><time>2026-05-02T13:32:16Z</time></trkpt><trkpt lat="44.54478989311177" lon="9.262776725273843"><ele>641.5</ele><time>2026-05-02T13:32:17Z</time></trkpt><trkpt lat="44.54491201009299" lon="9.263155859287982"><ele>634.0</ele><time>2026-05-02T13:32:18Z</time></trkpt><trkpt lat="44.54503163513943" lon="9.263536660816124"><ele>634.0</ele><time>2026-05-02T13:32:19Z</time></trkpt><trkpt lat="44.54512148488448" lon="9.263804223609371"><ele>634.0</ele><time>2026-05-02T13:32:19.999Z</time></trkpt><trkpt lat="44.54523113492992" lon="9.264116036348344"><ele>627.5</ele><time>2026-05-02T13:32:20.999Z</time></trkpt><trkpt lat="44.545337331687456" lon="9.264428626296159"><ele>621.0</ele><time>2026-05-02T13:32:21.999Z</time></trkpt><trkpt lat="44.5454380836843" lon="9.264747408965844"><ele>627.5</ele><time>2026-05-02T13:32:22.999Z</time></trkpt><trkpt lat="44.54552376181214" lon="9.265070810728611"><ele>634.0</ele><time>2026-05-02T13:32:23.999Z</time></trkpt><trkpt lat="44.54559732426301" lon="9.265373884452764"><ele>631.3333333333334</ele><time>2026-05-02T13:32:24.999Z</time></trkpt><trkpt lat="44.545661794741314" lon="9.265654756292601"><ele>628.6666666666666</ele><time>2026-05-02T13:32:25.999Z</time></trkpt><trkpt lat="44.54572289851656" lon="9.265914567831974"><ele>626.0</ele><time>2026-05-02T13:32:26.999Z</time></trkpt><trkpt lat="44.54578071056606" lon="9.266152490584098"><ele>626.0</ele><time>2026-05-02T13:32:27.999Z</time></trkpt><trkpt lat="44.54581766922697" lon="9.26638360681143"><ele>626.0</ele><time>2026-05-02T13:32:28.999Z</time></trkpt><trkpt lat="44.54582941625221" lon="9.266616927952429"><ele>626.0</ele><time>2026-05-02T13:32:29.999Z</time></trkpt><trkpt lat="44.545833872121285" lon="9.266834090990221"><ele>624.0</ele><time>2026-05-02T13:32:30.999Z</time></trkpt><trkpt lat="44.54585870877603" lon="9.26704041123457"><ele>622.0</ele><time>2026-05-02T13:32:31.999Z</time></trkpt><trkpt lat="44.545901735446066" lon="9.267238085253215"><ele>620.0</ele><time>2026-05-02T13:32:32.999Z</time></trkpt><trkpt lat="44.54598725422468" lon="9.26743750684306"><ele>621.6666666666666</ele><time>2026-05-02T13:32:33.999Z</time></trkpt><trkpt lat="44.54611858737108" lon="9.267629188274869"><ele>623.3333333333334</ele><time>2026-05-02T13:32:34.999Z</time></trkpt><trkpt lat="44.54628603707414" lon="9.267824945083262"><ele>625.0</ele><time>2026-05-02T13:32:35.999Z</time></trkpt><trkpt lat="44.54647154159454" lon="9.268015727417408"><ele>623.3333333333334</ele><time>2026-05-02T13:32:36.999Z</time></trkpt><trkpt lat="44.546650238585386" lon="9.268213874811497"><ele>621.6666666666666</ele><time>2026-05-02T13:32:37.999Z</time></trkpt><trkpt lat="44.546798102736936" lon="9.26839140974131"><ele>620.0</ele><time>2026-05-02T13:32:38.999Z</time></trkpt><trkpt lat="44.546932053053055" lon="9.268560241784204"><ele>620.0</ele><time>2026-05-02T13:32:39.999Z</time></trkpt><trkpt lat="44.5470322565337" lon="9.268727497994337"><ele>620.0</ele><time>2026-05-02T13:32:40.999Z</time></trkpt><trkpt lat="44.54710738663783" lon="9.268898577574648"><ele>620.0</ele><time>2026-05-02T13:32:41.999Z</time></trkpt><trkpt lat="44.54717664552272" lon="9.269097667959445"><ele>622.0</ele><time>2026-05-02T13:32:42.999Z</time></trkpt><trkpt lat="44.547258511040475" lon="9.269305347049263"><ele>624.0</ele><time>2026-05-02T13:32:43.999Z</time></trkpt><trkpt lat="44.54731610407733" lon="9.269536142385311"><ele>626.0</ele><time>2026-05-02T13:32:44.999Z</time></trkpt><trkpt lat="44.547390425376165" lon="9.269751250388275"><ele>622.3333333333333</ele><time>2026-05-02T13:32:45.999Z</time></trkpt><trkpt lat="44.547472940311955" lon="9.269967775189677"><ele>618.6666666666666</ele><time>2026-05-02T13:32:46.999Z</time></trkpt><trkpt lat="44.547564155621906" lon="9.270177405179814"><ele>615.0</ele><time>2026-05-02T13:32:48Z</time></trkpt><trkpt lat="44.54768095134783" lon="9.270366462268017"><ele>615.0</ele><time>2026-05-02T13:32:49Z</time></trkpt><trkpt lat="44.54781765353281" lon="9.27053835079278"><ele>615.0</ele><time>2026-05-02T13:32:50Z</time></trkpt><trkpt lat="44.547977463509035" lon="9.270686991156627"><ele>615.0</ele><time>2026-05-02T13:32:51Z</time></trkpt><trkpt lat="44.548160431351" lon="9.270814346487763"><ele>615.6666666666666</ele><time>2026-05-02T13:32:52Z</time></trkpt><trkpt lat="44.54836737790986" lon="9.27093990118224"><ele>616.3333333333333</ele><time>2026-05-02T13:32:53Z</time></trkpt><trkpt lat="44.54857264970659" lon="9.271050798189664"><ele>617.0</ele><time>2026-05-02T13:32:54Z</time></trkpt><trkpt lat="44.54878311611875" lon="9.271139080449842"><ele>622.6666666666666</ele><time>2026-05-02T13:32:55Z</time></trkpt><trkpt lat="44.54898704023006" lon="9.27120489810964"><ele>628.3333333333334</ele><time>2026-05-02T13:32:56Z</time></trkpt><trkpt lat="44.549183183652005" lon="9.271293801171863"><ele>634.0</ele><time>2026-05-02T13:32:57Z</time></trkpt><trkpt lat="44.54938283072333" lon="9.27141553648345"><ele>634.3333333333334</ele><time>2026-05-02T13:32:58Z</time></trkpt><trkpt lat="44.54957541886078" lon="9.271574824574403"><ele>634.6666666666666</ele><time>2026-05-02T13:32:59Z</time></trkpt><trkpt lat="44.54977058583867" lon="9.271692742391663"><ele>635.0</ele><time>2026-05-02T13:33:00Z</time></trkpt><trkpt lat="44.54995043623109" lon="9.271823710295513"><ele>635.0</ele><time>2026-05-02T13:33:01Z</time></trkpt><trkpt lat="44.5501176068733" lon="9.271940424316732"><ele>635.0</ele><time>2026-05-02T13:33:02Z</time></trkpt><trkpt lat="44.55025962767435" lon="9.272062542490916"><ele>635.0</ele><time>2026-05-02T13:33:03Z</time></trkpt><trkpt lat="44.55038433466721" lon="9.272161647205655"><ele>635.6666666666666</ele><time>2026-05-02T13:33:04Z</time></trkpt><trkpt lat="44.55049105545262" lon="9.272281379571693"><ele>636.3333333333334</ele><time>2026-05-02T13:33:05Z</time></trkpt><trkpt lat="44.55059730100767" lon="9.272428697815235"><ele>637.0</ele><time>2026-05-02T13:33:06Z</time></trkpt><trkpt lat="44.55070315973691" lon="9.272605535710392"><ele>637.0</ele><time>2026-05-02T13:33:07Z</time></trkpt><trkpt lat="44.55081346932007" lon="9.272799983518443"><ele>637.0</ele><time>2026-05-02T13:33:08Z</time></trkpt><trkpt lat="44.550957095620994" lon="9.273011705172642"><ele>637.0</ele><time>2026-05-02T13:33:09Z</time></trkpt><trkpt lat="44.5510802864171" lon="9.273220044757652"><ele>644.0</ele><time>2026-05-02T13:33:10Z</time></trkpt><trkpt lat="44.55118943718407" lon="9.273411030567884"><ele>651.0</ele><time>2026-05-02T13:33:11Z</time></trkpt><trkpt lat="44.551285663510384" lon="9.273606779428798"><ele>658.0</ele><time>2026-05-02T13:33:12Z</time></trkpt><trkpt lat="44.55135826386831" lon="9.27381062028859"><ele>649.0</ele><time>2026-05-02T13:33:13Z</time></trkpt><trkpt lat="44.55140478955913" lon="9.274016235717406"><ele>640.0</ele><time>2026-05-02T13:33:14Z</time></trkpt><trkpt lat="44.55144155613821" lon="9.274226825815052"><ele>631.0</ele><time>2026-05-02T13:33:15Z</time></trkpt><trkpt lat="44.55148015172187" lon="9.274420973960552"><ele>631.0</ele><time>2026-05-02T13:33:16Z</time></trkpt><trkpt lat="44.55154655563325" lon="9.274597713511639"><ele>631.0</ele><time>2026-05-02T13:33:17Z</time></trkpt><trkpt lat="44.551647470257684" lon="9.274766031760706"><ele>631.0</ele><time>2026-05-02T13:33:18Z</time></trkpt><trkpt lat="44.55175406550482" lon="9.274908847080086"><ele>631.0</ele><time>2026-05-02T13:33:19Z</time></trkpt><trkpt lat="44.55183362801095" lon="9.275029450822815"><ele>627.5</ele><time>2026-05-02T13:33:20Z</time></trkpt><trkpt lat="44.55186477216616" lon="9.275170643579678"><ele>624.0</ele><time>2026-05-02T13:33:21Z</time></trkpt><trkpt lat="44.55187036059923" lon="9.275328986356712"><ele>620.5</ele><time>2026-05-02T13:33:22Z</time></trkpt><trkpt lat="44.55182965065819" lon="9.275508038669209"><ele>617.0</ele><time>2026-05-02T13:33:23Z</time></trkpt><trkpt lat="44.551786919012535" lon="9.275745597312438"><ele>618.3333333333333</ele><time>2026-05-02T13:33:24Z</time></trkpt><trkpt lat="44.5517231955597" lon="9.276002820977325"><ele>619.6666666666666</ele><time>2026-05-02T13:33:25Z</time></trkpt><trkpt lat="44.55165566158931" lon="9.276309863095339"><ele>621.0</ele><time>2026-05-02T13:33:26Z</time></trkpt><trkpt lat="44.55159802343436" lon="9.276576365824434"><ele>621.0</ele><time>2026-05-02T13:33:27Z</time></trkpt><trkpt lat="44.5515368324124" lon="9.27680682023121"><ele>621.0</ele><time>2026-05-02T13:33:28Z</time></trkpt><trkpt lat="44.55148086852167" lon="9.277067023061766"><ele>621.0</ele><time>2026-05-02T13:33:29Z</time></trkpt><trkpt lat="44.55144121577148" lon="9.27736262184591"><ele>621.6666666666666</ele><time>2026-05-02T13:33:30Z</time></trkpt><trkpt lat="44.55141990432078" lon="9.277661056111217"><ele>622.3333333333333</ele><time>2026-05-02T13:33:31Z</time></trkpt><trkpt lat="44.5513994187706" lon="9.277958305509495"><ele>623.0</ele><time>2026-05-02T13:33:32Z</time></trkpt><trkpt lat="44.551380202878114" lon="9.278226977875004"><ele>620.3333333333333</ele><time>2026-05-02T13:33:33Z</time></trkpt><trkpt lat="44.55137125822767" lon="9.27847003438998"><ele>617.6666666666666</ele><time>2026-05-02T13:33:34Z</time></trkpt><trkpt lat="44.55137972070862" lon="9.278684888249149"><ele>615.0</ele><time>2026-05-02T13:33:35Z</time></trkpt><trkpt lat="44.55141250430749" lon="9.278867013505883"><ele>613.5</ele><time>2026-05-02T13:33:36Z</time></trkpt><trkpt lat="44.551472390806865" lon="9.279019041853017"><ele>612.0</ele><time>2026-05-02T13:33:37Z</time></trkpt><trkpt lat="44.55156234077843" lon="9.27915876448322"><ele>610.5</ele><time>2026-05-02T13:33:38Z</time></trkpt><trkpt lat="44.551682418210355" lon="9.279288197935113"><ele>609.0</ele><time>2026-05-02T13:33:39Z</time></trkpt><trkpt lat="44.551816578136076" lon="9.279397729557495"><ele>609.0</ele><time>2026-05-02T13:33:40Z</time></trkpt><trkpt lat="44.55194967254371" lon="9.2794957811591"><ele>609.0</ele><time>2026-05-02T13:33:41Z</time></trkpt><trkpt lat="44.552076245231646" lon="9.279588352291817"><ele>609.0</ele><time>2026-05-02T13:33:42Z</time></trkpt><trkpt lat="44.552187159881136" lon="9.279680891020584"><ele>609.0</ele><time>2026-05-02T13:33:43Z</time></trkpt><trkpt lat="44.55228663537264" lon="9.279767871608597"><ele>609.75</ele><time>2026-05-02T13:33:44Z</time></trkpt><trkpt lat="44.55238109766491" lon="9.279849228132147"><ele>610.5</ele><time>2026-05-02T13:33:45Z</time></trkpt><trkpt lat="44.552482010995284" lon="9.27992713712183"><ele>611.25</ele><time>2026-05-02T13:33:46Z</time></trkpt><trkpt lat="44.55258687751569" lon="9.280006715153263"><ele>612.0</ele><time>2026-05-02T13:33:47Z</time></trkpt><trkpt lat="44.55269244376804" lon="9.280087326467713"><ele>612.0</ele><time>2026-05-02T13:33:48Z</time></trkpt><trkpt lat="44.55278152605145" lon="9.28018192509998"><ele>612.0</ele><time>2026-05-02T13:33:49Z</time></trkpt><trkpt lat="44.552853336127065" lon="9.28023457182407"><ele>612.0</ele><time>2026-05-02T13:33:50Z</time></trkpt><trkpt lat="44.552922727101596" lon="9.280253178507307"><ele>612.0</ele><time>2026-05-02T13:33:51Z</time></trkpt><trkpt lat="44.552991038637444" lon="9.28029741854824"><ele>612.0</ele><time>2026-05-02T13:33:52Z</time></trkpt><trkpt lat="44.55307918905707" lon="9.280348333574048"><ele>612.0</ele><time>2026-05-02T13:33:53Z</time></trkpt><trkpt lat="44.55315234448067" lon="9.280415625233877"><ele>611.2</ele><time>2026-05-02T13:33:54Z</time></trkpt><trkpt lat="44.55322962278804" lon="9.280437817716596"><ele>610.4000000000001</ele><time>2026-05-02T13:33:55Z</time></trkpt><trkpt lat="44.5533047458789" lon="9.280485233266363"><ele>609.5999999999999</ele><time>2026-05-02T13:33:56Z</time></trkpt><trkpt lat="44.553390481921184" lon="9.280536621780428"><ele>608.8</ele><time>2026-05-02T13:33:57Z</time></trkpt><trkpt lat="44.55348573493528" lon="9.280596604528988"><ele>608.0</ele><time>2026-05-02T13:33:58Z</time></trkpt><trkpt lat="44.55359526234856" lon="9.280664305030127"><ele>612.5</ele><time>2026-05-02T13:33:59Z</time></trkpt><trkpt lat="44.55372476011969" lon="9.28074432258108"><ele>617.0</ele><time>2026-05-02T13:34:00Z</time></trkpt><trkpt lat="44.55386668984219" lon="9.280832463843526"><ele>621.5</ele><time>2026-05-02T13:34:01Z</time></trkpt><trkpt lat="44.55399963095724" lon="9.2809092462448"><ele>626.0</ele><time>2026-05-02T13:34:02Z</time></trkpt><trkpt lat="44.55411075455925" lon="9.280982194750504"><ele>626.0</ele><time>2026-05-02T13:34:03Z</time></trkpt><trkpt lat="44.554218039879466" lon="9.281073938337672"><ele>626.0</ele><time>2026-05-02T13:34:04Z</time></trkpt><trkpt lat="44.55432240455224" lon="9.281207707449438"><ele>626.0</ele><time>2026-05-02T13:34:05Z</time></trkpt><trkpt lat="44.554412643794755" lon="9.281391193363426"><ele>626.0</ele><time>2026-05-02T13:34:06Z</time></trkpt><trkpt lat="44.55449528397329" lon="9.281589191320556"><ele>625.3333333333333</ele><time>2026-05-02T13:34:07Z</time></trkpt><trkpt lat="44.5546033698573" lon="9.281759413454582"><ele>624.6666666666666</ele><time>2026-05-02T13:34:08Z</time></trkpt><trkpt lat="44.554736107773785" lon="9.281912384752717"><ele>624.0</ele><time>2026-05-02T13:34:09Z</time></trkpt><trkpt lat="44.55484706007881" lon="9.282086636746763"><ele>624.0</ele><time>2026-05-02T13:34:10Z</time></trkpt><trkpt lat="44.554948103426156" lon="9.282237178106953"><ele>624.0</ele><time>2026-05-02T13:34:11Z</time></trkpt><trkpt lat="44.55503393022695" lon="9.282381073611518"><ele>624.0</ele><time>2026-05-02T13:34:12Z</time></trkpt><trkpt lat="44.55511515357825" lon="9.282505485963009"><ele>624.0</ele><time>2026-05-02T13:34:13Z</time></trkpt><trkpt lat="44.55516866803006" lon="9.282643020106317"><ele>620.6</ele><time>2026-05-02T13:34:14Z</time></trkpt><trkpt lat="44.555196948340125" lon="9.282789084090211"><ele>617.2</ele><time>2026-05-02T13:34:15Z</time></trkpt><trkpt lat="44.55523309609321" lon="9.282922513141854"><ele>613.8000000000001</ele><time>2026-05-02T13:34:16Z</time></trkpt><trkpt lat="44.55528370421227" lon="9.283050096237842"><ele>610.4</ele><time>2026-05-02T13:34:17Z</time></trkpt><trkpt lat="44.55532643101194" lon="9.283192497778376"><ele>607.0</ele><time>2026-05-02T13:34:18Z</time></trkpt><trkpt lat="44.55538751557775" lon="9.28332415494804"><ele>607.0</ele><time>2026-05-02T13:34:19Z</time></trkpt><trkpt lat="44.555460257503704" lon="9.283423162614854"><ele>607.0</ele><time>2026-05-02T13:34:20Z</time></trkpt><trkpt lat="44.55553195034971" lon="9.283505238549807"><ele>607.0</ele><time>2026-05-02T13:34:20.999Z</time></trkpt><trkpt lat="44.55561268242173" lon="9.283557045165619"><ele>607.0</ele><time>2026-05-02T13:34:21.999Z</time></trkpt><trkpt lat="44.55570997534741" lon="9.283577591488614"><ele>607.0</ele><time>2026-05-02T13:34:22.999Z</time></trkpt><trkpt lat="44.55582633970157" lon="9.283564059037884"><ele>607.0</ele><time>2026-05-02T13:34:23.999Z</time></trkpt><trkpt lat="44.555949258345485" lon="9.28351093946876"><ele>607.0</ele><time>2026-05-02T13:34:24.999Z</time></trkpt><trkpt lat="44.55607657869045" lon="9.28342799300887"><ele>607.0</ele><time>2026-05-02T13:34:25.999Z</time></trkpt><trkpt lat="44.55620536839692" lon="9.283341393368783"><ele>607.0</ele><time>2026-05-02T13:34:26.999Z</time></trkpt><trkpt lat="44.55631776664228" lon="9.283266328086379"><ele>606.2</ele><time>2026-05-02T13:34:27.999Z</time></trkpt><trkpt lat="44.556417935218626" lon="9.283204064107704"><ele>605.4000000000001</ele><time>2026-05-02T13:34:28.999Z</time></trkpt><trkpt lat="44.556509126784846" lon="9.283144954208469"><ele>604.5999999999999</ele><time>2026-05-02T13:34:29.999Z</time></trkpt><trkpt lat="44.55659553908218" lon="9.283083178114312"><ele>603.8</ele><time>2026-05-02T13:34:30.999Z</time></trkpt><trkpt lat="44.556683531461616" lon="9.283049583905306"><ele>603.0</ele><time>2026-05-02T13:34:31.999Z</time></trkpt><trkpt lat="44.556754650043395" lon="9.282980211418543"><ele>603.0</ele><time>2026-05-02T13:34:32.999Z</time></trkpt><trkpt lat="44.556828518886405" lon="9.2829339122051"><ele>603.0</ele><time>2026-05-02T13:34:33.999Z</time></trkpt><trkpt lat="44.5569012269581" lon="9.282888934012059"><ele>603.0</ele><time>2026-05-02T13:34:34.999Z</time></trkpt><trkpt lat="44.55697038920415" lon="9.282843985888132"><ele>603.0</ele><time>2026-05-02T13:34:35.999Z</time></trkpt><trkpt lat="44.55703876123888" lon="9.282798020313283"><ele>603.0</ele><time>2026-05-02T13:34:36.999Z</time></trkpt><trkpt lat="44.557105137685966" lon="9.282757800292915"><ele>603.0</ele><time>2026-05-02T13:34:37.999Z</time></trkpt><trkpt lat="44.55717149512504" lon="9.282720628774245"><ele>602.3333333333334</ele><time>2026-05-02T13:34:38.999Z</time></trkpt><trkpt lat="44.55722970483451" lon="9.2826838743574"><ele>601.6666666666666</ele><time>2026-05-02T13:34:39.999Z</time></trkpt><trkpt lat="44.55729458561288" lon="9.282619395015809"><ele>601.0</ele><time>2026-05-02T13:34:41.999Z</time></trkpt><trkpt lat="44.55731402027138" lon="9.282507291786407"><ele>600.3333333333333</ele><time>2026-05-02T13:34:43.999Z</time></trkpt><trkpt lat="44.557270686224285" lon="9.282427516522846"><ele>599.6666666666666</ele><time>2026-05-02T13:34:47.999Z</time></trkpt><trkpt lat="44.55715047604203" lon="9.282505179444772"><ele>599.0</ele><time>2026-05-02T13:34:48.999Z</time></trkpt><trkpt lat="44.557070466292245" lon="9.282558038959687"><ele>599.0</ele><time>2026-05-02T13:34:51.999Z</time></trkpt><trkpt lat="44.55702271358079" lon="9.282639842299757"><ele>599.0</ele><time>2026-05-02T13:34:55Z</time></trkpt><trkpt lat="44.55698040400963" lon="9.282726961291043"><ele>599.0</ele><time>2026-05-02T13:39:48.999Z</time></trkpt><trkpt lat="44.557024131485704" lon="9.282570073621637"><ele>599.0</ele><time>2026-05-02T13:40:34.999Z</time></trkpt><trkpt lat="44.557134767982845" lon="9.282414142148733"><ele>599.0</ele><time>2026-05-02T13:40:35.999Z</time></trkpt><trkpt lat="44.55743852292234" lon="9.282458999196686"><ele>599.0</ele><time>2026-05-02T13:40:36.999Z</time></trkpt><trkpt lat="44.55756596531414" lon="9.282476410349725"><ele>599.0</ele><time>2026-05-02T13:40:37.999Z</time></trkpt><trkpt lat="44.55765853566579" lon="9.282425878320398"><ele>599.0</ele><time>2026-05-02T13:40:38.999Z</time></trkpt><trkpt lat="44.55775253075421" lon="9.282355207368338"><ele>599.0</ele><time>2026-05-02T13:40:39.999Z</time></trkpt><trkpt lat="44.55786700491274" lon="9.282290681526344"><ele>600.75</ele><time>2026-05-02T13:40:40.999Z</time></trkpt><trkpt lat="44.55799305071553" lon="9.282210323081475"><ele>602.5</ele><time>2026-05-02T13:40:41.999Z</time></trkpt><trkpt lat="44.55810826868414" lon="9.282132396503368"><ele>604.25</ele><time>2026-05-02T13:40:42.999Z</time></trkpt><trkpt lat="44.55821927389807" lon="9.282069774548983"><ele>606.0</ele><time>2026-05-02T13:40:43.999Z</time></trkpt><trkpt lat="44.55832250541519" lon="9.28201601029847"><ele>606.0</ele><time>2026-05-02T13:40:44.999Z</time></trkpt><trkpt lat="44.55841401070854" lon="9.281978163835948"><ele>606.0</ele><time>2026-05-02T13:40:45.999Z</time></trkpt><trkpt lat="44.558510744367524" lon="9.28196423147147"><ele>606.0</ele><time>2026-05-02T13:40:46.999Z</time></trkpt><trkpt lat="44.55861335024902" lon="9.281972563458003"><ele>606.0</ele><time>2026-05-02T13:40:47.999Z</time></trkpt><trkpt lat="44.55871727237217" lon="9.282003801660071"><ele>606.0</ele><time>2026-05-02T13:40:48.999Z</time></trkpt><trkpt lat="44.558824610958276" lon="9.282062883460618"><ele>607.75</ele><time>2026-05-02T13:40:49.999Z</time></trkpt><trkpt lat="44.55893230993375" lon="9.28214662089457"><ele>609.5</ele><time>2026-05-02T13:40:50.999Z</time></trkpt><trkpt lat="44.55902945985165" lon="9.282251604261733"><ele>611.25</ele><time>2026-05-02T13:40:51.999Z</time></trkpt><trkpt lat="44.55910753411923" lon="9.28237308394951"><ele>613.0</ele><time>2026-05-02T13:40:52.999Z</time></trkpt><trkpt lat="44.559155990354846" lon="9.28250480674569"><ele>613.0</ele><time>2026-05-02T13:40:53.999Z</time></trkpt><trkpt lat="44.559184154554444" lon="9.282651944705476"><ele>613.0</ele><time>2026-05-02T13:40:54.999Z</time></trkpt><trkpt lat="44.55920793246729" lon="9.282810686873308"><ele>613.0</ele><time>2026-05-02T13:40:55.999Z</time></trkpt><trkpt lat="44.559217626583056" lon="9.282982936163092"><ele>613.0</ele><time>2026-05-02T13:40:56.999Z</time></trkpt><trkpt lat="44.55921372135505" lon="9.28316013456091"><ele>610.0</ele><time>2026-05-02T13:40:57.999Z</time></trkpt><trkpt lat="44.5592306793771" lon="9.28332637837781"><ele>607.0</ele><time>2026-05-02T13:40:58.999Z</time></trkpt><trkpt lat="44.55928284172725" lon="9.283473430450007"><ele>604.0</ele><time>2026-05-02T13:40:59.999Z</time></trkpt><trkpt lat="44.55936457046002" lon="9.283603474226215"><ele>601.0</ele><time>2026-05-02T13:41:00.999Z</time></trkpt><trkpt lat="44.55946304043947" lon="9.283713302954956"><ele>607.75</ele><time>2026-05-02T13:41:01.999Z</time></trkpt><trkpt lat="44.55957326783035" lon="9.283777544644028"><ele>614.5</ele><time>2026-05-02T13:41:02.999Z</time></trkpt><trkpt lat="44.5597024572262" lon="9.283802880537358"><ele>621.25</ele><time>2026-05-02T13:41:03.999Z</time></trkpt><trkpt lat="44.55985434725499" lon="9.283809571869499"><ele>628.0</ele><time>2026-05-02T13:41:04.999Z</time></trkpt><trkpt lat="44.560021744008566" lon="9.283819368257411"><ele>628.0</ele><time>2026-05-02T13:41:05.999Z</time></trkpt><trkpt lat="44.560178454920155" lon="9.283832561410025"><ele>628.0</ele><time>2026-05-02T13:41:06.999Z</time></trkpt><trkpt lat="44.56033357408492" lon="9.283847861166775"><ele>628.0</ele><time>2026-05-02T13:41:07.999Z</time></trkpt><trkpt lat="44.56048799111845" lon="9.283855765123395"><ele>628.0</ele><time>2026-05-02T13:41:08.999Z</time></trkpt><trkpt lat="44.560657355340254" lon="9.283866688793356"><ele>628.0</ele><time>2026-05-02T13:41:09.999Z</time></trkpt><trkpt lat="44.56083698789408" lon="9.283810978455485"><ele>628.0</ele><time>2026-05-02T13:41:10.999Z</time></trkpt><trkpt lat="44.56106339494345" lon="9.28377859672783"><ele>623.6666666666667</ele><time>2026-05-02T13:41:11.999Z</time></trkpt><trkpt lat="44.561264523027745" lon="9.283762644750821"><ele>619.3333333333334</ele><time>2026-05-02T13:41:12.999Z</time></trkpt><trkpt lat="44.561450039713755" lon="9.283744026739006"><ele>615.0</ele><time>2026-05-02T13:41:13.999Z</time></trkpt><trkpt lat="44.56162359990384" lon="9.283714964546315"><ele>615.0</ele><time>2026-05-02T13:41:14.999Z</time></trkpt><trkpt lat="44.56179916950362" lon="9.283684514223072"><ele>615.0</ele><time>2026-05-02T13:41:15.999Z</time></trkpt><trkpt lat="44.561886594914654" lon="9.283591792669863"><ele>615.0</ele><time>2026-05-02T13:41:16.999Z</time></trkpt><trkpt lat="44.56203849802245" lon="9.283528907952906"><ele>615.0</ele><time>2026-05-02T13:41:17.999Z</time></trkpt><trkpt lat="44.56219796768999" lon="9.283426590872876"><ele>611.3333333333334</ele><time>2026-05-02T13:41:18.999Z</time></trkpt><trkpt lat="44.56237006124785" lon="9.283284043832845"><ele>607.6666666666667</ele><time>2026-05-02T13:41:19.999Z</time></trkpt><trkpt lat="44.56253751803476" lon="9.28313595604026"><ele>604.0</ele><time>2026-05-02T13:41:20.999Z</time></trkpt><trkpt lat="44.56269190213446" lon="9.282998690885243"><ele>604.0</ele><time>2026-05-02T13:41:21.999Z</time></trkpt><trkpt lat="44.56284813499061" lon="9.28285787212683"><ele>604.0</ele><time>2026-05-02T13:41:22.999Z</time></trkpt><trkpt lat="44.56300059080142" lon="9.282716019449493"><ele>604.0</ele><time>2026-05-02T13:41:24Z</time></trkpt><trkpt lat="44.563144681347254" lon="9.282573973065125"><ele>606.0</ele><time>2026-05-02T13:41:25Z</time></trkpt><trkpt lat="44.56329057436044" lon="9.28243317427255"><ele>608.0</ele><time>2026-05-02T13:41:26Z</time></trkpt><trkpt lat="44.563434531388936" lon="9.28229510089997"><ele>610.0</ele><time>2026-05-02T13:41:27Z</time></trkpt><trkpt lat="44.563578623289374" lon="9.282170663876311"><ele>603.3333333333334</ele><time>2026-05-02T13:41:28Z</time></trkpt><trkpt lat="44.563721382426564" lon="9.282030011787906"><ele>596.6666666666666</ele><time>2026-05-02T13:41:29Z</time></trkpt><trkpt lat="44.56386525650904" lon="9.281887041806417"><ele>590.0</ele><time>2026-05-02T13:41:30Z</time></trkpt><trkpt lat="44.56401661730429" lon="9.28175894159493"><ele>590.0</ele><time>2026-05-02T13:41:31Z</time></trkpt><trkpt lat="44.56415501548999" lon="9.281620319546334"><ele>590.0</ele><time>2026-05-02T13:41:32Z</time></trkpt><trkpt lat="44.56428675096432" lon="9.281469121123395"><ele>590.0</ele><time>2026-05-02T13:41:33Z</time></trkpt><trkpt lat="44.56442306877128" lon="9.281330530573339"><ele>590.25</ele><time>2026-05-02T13:41:34Z</time></trkpt><trkpt lat="44.56454646933479" lon="9.281187319719203"><ele>590.5</ele><time>2026-05-02T13:41:35Z</time></trkpt><trkpt lat="44.56464788852993" lon="9.281048779203708"><ele>590.75</ele><time>2026-05-02T13:41:36Z</time></trkpt><trkpt lat="44.56473141283655" lon="9.280920270494756"><ele>591.0</ele><time>2026-05-02T13:41:37Z</time></trkpt><trkpt lat="44.564800000913316" lon="9.280820509487455"><ele>591.0</ele><time>2026-05-02T13:41:38Z</time></trkpt><trkpt lat="44.56486229102509" lon="9.280771316975317"><ele>591.0</ele><time>2026-05-02T13:41:39Z</time></trkpt><trkpt lat="44.56495435410633" lon="9.280755941352188"><ele>591.0</ele><time>2026-05-02T13:41:40Z</time></trkpt><trkpt lat="44.56505861802071" lon="9.280801541785722"><ele>591.0</ele><time>2026-05-02T13:41:41Z</time></trkpt><trkpt lat="44.56515605291045" lon="9.280917494071014"><ele>591.0</ele><time>2026-05-02T13:41:42Z</time></trkpt><trkpt lat="44.56526943757919" lon="9.281003462162108"><ele>591.0</ele><time>2026-05-02T13:41:43Z</time></trkpt><trkpt lat="44.56535689500142" lon="9.281086012835832"><ele>591.0</ele><time>2026-05-02T13:41:44Z</time></trkpt><trkpt lat="44.56543131314843" lon="9.281142138899703"><ele>591.0</ele><time>2026-05-02T13:41:45Z</time></trkpt><trkpt lat="44.56549822892611" lon="9.281179855828162"><ele>591.0</ele><time>2026-05-02T13:41:46Z</time></trkpt><trkpt lat="44.5655653150369" lon="9.281185735025065"><ele>591.0</ele><time>2026-05-02T13:41:47Z</time></trkpt><trkpt lat="44.565645770227604" lon="9.2811595567235"><ele>591.0</ele><time>2026-05-02T13:41:48Z</time></trkpt><trkpt lat="44.565764438728394" lon="9.281217626530692"><ele>590.5</ele><time>2026-05-02T13:41:49Z</time></trkpt><trkpt lat="44.56580357127841" lon="9.28100179057877"><ele>590.0</ele><time>2026-05-02T13:41:50Z</time></trkpt><trkpt lat="44.56587630152962" lon="9.280873892372536"><ele>589.5</ele><time>2026-05-02T13:41:51Z</time></trkpt><trkpt lat="44.56594909369165" lon="9.280701883939063"><ele>589.0</ele><time>2026-05-02T13:41:52Z</time></trkpt><trkpt lat="44.56602657541745" lon="9.280512866192115"><ele>589.0</ele><time>2026-05-02T13:41:53Z</time></trkpt><trkpt lat="44.56610871619593" lon="9.28030672485507"><ele>589.0</ele><time>2026-05-02T13:41:54Z</time></trkpt><trkpt lat="44.56619590837946" lon="9.28008813180639"><ele>589.0</ele><time>2026-05-02T13:41:55Z</time></trkpt><trkpt lat="44.56627352935891" lon="9.2798985514098"><ele>588.75</ele><time>2026-05-02T13:41:56Z</time></trkpt><trkpt lat="44.56634802423733" lon="9.279740634248238"><ele>588.5</ele><time>2026-05-02T13:41:57Z</time></trkpt><trkpt lat="44.56645355270701" lon="9.279630301576079"><ele>588.25</ele><time>2026-05-02T13:41:58Z</time></trkpt><trkpt lat="44.566588346355026" lon="9.279531265701307"><ele>588.0</ele><time>2026-05-02T13:41:59Z</time></trkpt><trkpt lat="44.56673907165706" lon="9.279395744207902"><ele>588.0</ele><time>2026-05-02T13:42:00Z</time></trkpt><trkpt lat="44.5669109275243" lon="9.279272573501682"><ele>588.0</ele><time>2026-05-02T13:42:01Z</time></trkpt><trkpt lat="44.56709041136097" lon="9.2791367091806"><ele>588.0</ele><time>2026-05-02T13:42:02Z</time></trkpt><trkpt lat="44.56727624971142" lon="9.278991580863725"><ele>587.3333333333334</ele><time>2026-05-02T13:42:03Z</time></trkpt><trkpt lat="44.56746824836008" lon="9.278839961122774"><ele>586.6666666666667</ele><time>2026-05-02T13:42:04Z</time></trkpt><trkpt lat="44.56765669652858" lon="9.278678027400888"><ele>586.0</ele><time>2026-05-02T13:42:05Z</time></trkpt><trkpt lat="44.567832162599714" lon="9.278493882594095"><ele>584.6666666666667</ele><time>2026-05-02T13:42:06Z</time></trkpt><trkpt lat="44.56801300272637" lon="9.278316209540352"><ele>583.3333333333334</ele><time>2026-05-02T13:42:07Z</time></trkpt><trkpt lat="44.56819233278942" lon="9.278121238185198"><ele>582.0</ele><time>2026-05-02T13:42:08Z</time></trkpt><trkpt lat="44.56836516540753" lon="9.27790915104136"><ele>582.0</ele><time>2026-05-02T13:42:09Z</time></trkpt><trkpt lat="44.56853511120827" lon="9.277732837082048"><ele>582.0</ele><time>2026-05-02T13:42:10Z</time></trkpt><trkpt lat="44.56868816693982" lon="9.277568155193125"><ele>582.0</ele><time>2026-05-02T13:42:11Z</time></trkpt><trkpt lat="44.56882423571141" lon="9.277421247212404"><ele>582.0</ele><time>2026-05-02T13:42:12Z</time></trkpt><trkpt lat="44.56893893005708" lon="9.277293585606687"><ele>582.0</ele><time>2026-05-02T13:42:13Z</time></trkpt><trkpt lat="44.56903631142791" lon="9.27716153199429"><ele>582.0</ele><time>2026-05-02T13:42:14Z</time></trkpt><trkpt lat="44.569108136195275" lon="9.276979653452512"><ele>582.0</ele><time>2026-05-02T13:42:15Z</time></trkpt><trkpt lat="44.569166710625" lon="9.276752887197198"><ele>582.0</ele><time>2026-05-02T13:42:16Z</time></trkpt><trkpt lat="44.56921662702554" lon="9.276524478320281"><ele>582.0</ele><time>2026-05-02T13:42:17Z</time></trkpt><trkpt lat="44.56930697916734" lon="9.276352625292077"><ele>582.0</ele><time>2026-05-02T13:42:18Z</time></trkpt><trkpt lat="44.569406594103555" lon="9.276197812696594"><ele>582.6666666666666</ele><time>2026-05-02T13:42:19Z</time></trkpt><trkpt lat="44.56952969246747" lon="9.276065730571988"><ele>583.3333333333333</ele><time>2026-05-02T13:42:20Z</time></trkpt><trkpt lat="44.56966795896567" lon="9.275960832863806"><ele>584.0</ele><time>2026-05-02T13:42:21Z</time></trkpt><trkpt lat="44.56982216487684" lon="9.27587988581975"><ele>584.0</ele><time>2026-05-02T13:42:22Z</time></trkpt><trkpt lat="44.569984005164685" lon="9.275835277919247"><ele>584.0</ele><time>2026-05-02T13:42:23Z</time></trkpt><trkpt lat="44.57015741790987" lon="9.275819175371218"><ele>584.0</ele><time>2026-05-02T13:42:24Z</time></trkpt><trkpt lat="44.5703329396098" lon="9.275825925548187"><ele>585.6666666666666</ele><time>2026-05-02T13:42:25Z</time></trkpt><trkpt lat="44.57049479194453" lon="9.275820022084202"><ele>587.3333333333334</ele><time>2026-05-02T13:42:26Z</time></trkpt><trkpt lat="44.57062885024509" lon="9.275889182671941"><ele>589.0</ele><time>2026-05-02T13:42:27Z</time></trkpt><trkpt lat="44.57076436008205" lon="9.275987053160033"><ele>589.0</ele><time>2026-05-02T13:42:28Z</time></trkpt><trkpt lat="44.570899839030254" lon="9.276078069646301"><ele>589.0</ele><time>2026-05-02T13:42:29Z</time></trkpt><trkpt lat="44.571012168227284" lon="9.276161767344874"><ele>589.0</ele><time>2026-05-02T13:42:30Z</time></trkpt><trkpt lat="44.57111096475552" lon="9.276202543690127"><ele>589.0</ele><time>2026-05-02T13:42:31Z</time></trkpt><trkpt lat="44.57121623457291" lon="9.27619774418489"><ele>589.0</ele><time>2026-05-02T13:42:32Z</time></trkpt><trkpt lat="44.571335140670044" lon="9.276166083851344"><ele>589.0</ele><time>2026-05-02T13:42:33Z</time></trkpt><trkpt lat="44.571444778061505" lon="9.27602044315484"><ele>589.0</ele><time>2026-05-02T13:42:34Z</time></trkpt><trkpt lat="44.57156483057741" lon="9.275873557943294"><ele>589.0</ele><time>2026-05-02T13:42:35Z</time></trkpt><trkpt lat="44.571681132458586" lon="9.275721297222487"><ele>589.0</ele><time>2026-05-02T13:42:36Z</time></trkpt><trkpt lat="44.57183280906743" lon="9.275603875131246"><ele>589.0</ele><time>2026-05-02T13:42:37Z</time></trkpt><trkpt lat="44.57199012505646" lon="9.275487677268643"><ele>589.0</ele><time>2026-05-02T13:42:38Z</time></trkpt><trkpt lat="44.57216231523053" lon="9.275383624115989"><ele>588.3333333333334</ele><time>2026-05-02T13:42:39Z</time></trkpt><trkpt lat="44.572336451343986" lon="9.275255997355593"><ele>587.6666666666666</ele><time>2026-05-02T13:42:40Z</time></trkpt><trkpt lat="44.57252195513897" lon="9.275112889146195"><ele>587.0</ele><time>2026-05-02T13:42:41Z</time></trkpt><trkpt lat="44.57270532322737" lon="9.274953573594312"><ele>586.3333333333333</ele><time>2026-05-02T13:42:42Z</time></trkpt><trkpt lat="44.57288727312499" lon="9.274810225875584"><ele>585.6666666666666</ele><time>2026-05-02T13:42:43Z</time></trkpt><trkpt lat="44.57305464503026" lon="9.274665456070103"><ele>585.0</ele><time>2026-05-02T13:42:44Z</time></trkpt><trkpt lat="44.57321291550443" lon="9.27449741934467"><ele>585.0</ele><time>2026-05-02T13:42:45Z</time></trkpt><trkpt lat="44.57336670200673" lon="9.274312803215182"><ele>585.0</ele><time>2026-05-02T13:42:46Z</time></trkpt><trkpt lat="44.57352032927858" lon="9.27412503071301"><ele>585.0</ele><time>2026-05-02T13:42:47Z</time></trkpt><trkpt lat="44.57366983188358" lon="9.27397394517301"><ele>585.6666666666666</ele><time>2026-05-02T13:42:48Z</time></trkpt><trkpt lat="44.57378245478739" lon="9.27381128284008"><ele>586.3333333333333</ele><time>2026-05-02T13:42:49Z</time></trkpt><trkpt lat="44.57389511788619" lon="9.273675786344677"><ele>587.0</ele><time>2026-05-02T13:42:50Z</time></trkpt><trkpt lat="44.57400662881018" lon="9.273545091236276"><ele>587.0</ele><time>2026-05-02T13:42:51Z</time></trkpt><trkpt lat="44.57411982562995" lon="9.273418175687489"><ele>587.0</ele><time>2026-05-02T13:42:52Z</time></trkpt><trkpt lat="44.574234727960146" lon="9.273288295386806"><ele>587.0</ele><time>2026-05-02T13:42:53Z</time></trkpt><trkpt lat="44.57434724020036" lon="9.273155022547764"><ele>587.0</ele><time>2026-05-02T13:42:54Z</time></trkpt><trkpt lat="44.57443769398377" lon="9.273015436669597"><ele>589.0</ele><time>2026-05-02T13:42:55Z</time></trkpt><trkpt lat="44.57450822595826" lon="9.2728607474925"><ele>591.0</ele><time>2026-05-02T13:42:55.999Z</time></trkpt><trkpt lat="44.57455565759783" lon="9.272693362253246"><ele>593.0</ele><time>2026-05-02T13:42:56.999Z</time></trkpt><trkpt lat="44.57460609699936" lon="9.272545181090328"><ele>595.0</ele><time>2026-05-02T13:42:57.999Z</time></trkpt><trkpt lat="44.5746442720334" lon="9.272408738592862"><ele>595.0</ele><time>2026-05-02T13:42:58.999Z</time></trkpt><trkpt lat="44.57468049782569" lon="9.272285087170793"><ele>595.0</ele><time>2026-05-02T13:42:59.999Z</time></trkpt><trkpt lat="44.57471874700857" lon="9.27216128091839"><ele>595.0</ele><time>2026-05-02T13:43:00.999Z</time></trkpt><trkpt lat="44.574744945190325" lon="9.272026868018957"><ele>595.0</ele><time>2026-05-02T13:43:01.999Z</time></trkpt><trkpt lat="44.57479147604808" lon="9.27190670837879"><ele>595.0</ele><time>2026-05-02T13:43:02.999Z</time></trkpt><trkpt lat="44.574840770654134" lon="9.271790122523884"><ele>593.6666666666667</ele><time>2026-05-02T13:43:03.999Z</time></trkpt><trkpt lat="44.57489278024199" lon="9.271687335884293"><ele>592.3333333333334</ele><time>2026-05-02T13:43:04.999Z</time></trkpt><trkpt lat="44.57494159590453" lon="9.271605540278017"><ele>591.0</ele><time>2026-05-02T13:43:05.999Z</time></trkpt><trkpt lat="44.5749848025378" lon="9.271530578757885"><ele>589.6666666666666</ele><time>2026-05-02T13:43:06.999Z</time></trkpt><trkpt lat="44.57502130982811" lon="9.271458029577731"><ele>588.3333333333333</ele><time>2026-05-02T13:43:07.999Z</time></trkpt><trkpt lat="44.57507692639811" lon="9.271339086705712"><ele>587.0</ele><time>2026-05-02T13:43:09.999Z</time></trkpt><trkpt lat="44.575127907851154" lon="9.27124068270176"><ele>586.8000000000001</ele><time>2026-05-02T13:43:11.999Z</time></trkpt><trkpt lat="44.57519088614184" lon="9.271159931427412"><ele>586.6</ele><time>2026-05-02T13:43:13.999Z</time></trkpt><trkpt lat="44.57525194167994" lon="9.271055385532218"><ele>586.4000000000001</ele><time>2026-05-02T13:43:15.999Z</time></trkpt><trkpt lat="44.57533921992801" lon="9.270917509272833"><ele>586.2</ele><time>2026-05-02T13:43:18Z</time></trkpt><trkpt lat="44.57539164649074" lon="9.270840084474278"><ele>586.0</ele><time>2026-05-02T13:43:19Z</time></trkpt><trkpt lat="44.575438988794026" lon="9.270767038390916"><ele>586.0</ele><time>2026-05-02T13:43:20Z</time></trkpt><trkpt lat="44.575503084252375" lon="9.27070288373039"><ele>586.0</ele><time>2026-05-02T13:43:21Z</time></trkpt><trkpt lat="44.57557479317834" lon="9.270633940252784"><ele>586.0</ele><time>2026-05-02T13:43:22Z</time></trkpt><trkpt lat="44.57564146305992" lon="9.270574964168716"><ele>586.0</ele><time>2026-05-02T13:43:23Z</time></trkpt><trkpt lat="44.57571017749224" lon="9.270537977999343"><ele>586.0</ele><time>2026-05-02T13:43:24Z</time></trkpt><trkpt lat="44.57578882529806" lon="9.27051509677968"><ele>586.0</ele><time>2026-05-02T13:43:25Z</time></trkpt><trkpt lat="44.575885402535725" lon="9.270496720323658"><ele>584.25</ele><time>2026-05-02T13:43:26Z</time></trkpt><trkpt lat="44.57600373854061" lon="9.27047400952747"><ele>582.5</ele><time>2026-05-02T13:43:27Z</time></trkpt><trkpt lat="44.576138808911686" lon="9.270440445428797"><ele>580.75</ele><time>2026-05-02T13:43:28Z</time></trkpt><trkpt lat="44.57626697511638" lon="9.270396219770989"><ele>579.0</ele><time>2026-05-02T13:43:29Z</time></trkpt><trkpt lat="44.57639624958266" lon="9.270358816772813"><ele>578.5</ele><time>2026-05-02T13:43:30Z</time></trkpt><trkpt lat="44.57652925505092" lon="9.270315947505656"><ele>578.0</ele><time>2026-05-02T13:43:31Z</time></trkpt><trkpt lat="44.576661472228835" lon="9.270274060112738"><ele>577.5</ele><time>2026-05-02T13:43:32Z</time></trkpt><trkpt lat="44.57679821413771" lon="9.270239152378402"><ele>577.0</ele><time>2026-05-02T13:43:33Z</time></trkpt><trkpt lat="44.576935323383765" lon="9.270218202848271"><ele>576.3333333333334</ele><time>2026-05-02T13:43:34Z</time></trkpt><trkpt lat="44.57708413876754" lon="9.270219270184258"><ele>575.6666666666666</ele><time>2026-05-02T13:43:35Z</time></trkpt><trkpt lat="44.57724479078525" lon="9.270251642987743"><ele>575.0</ele><time>2026-05-02T13:43:36Z</time></trkpt><trkpt lat="44.57740391093513" lon="9.27028298431018"><ele>575.0</ele><time>2026-05-02T13:43:37Z</time></trkpt><trkpt lat="44.577557387688906" lon="9.270297973469887"><ele>575.0</ele><time>2026-05-02T13:43:38Z</time></trkpt><trkpt lat="44.5777126320533" lon="9.27029639046948"><ele>575.0</ele><time>2026-05-02T13:43:39Z</time></trkpt><trkpt lat="44.577876936353746" lon="9.270274176025612"><ele>575.0</ele><time>2026-05-02T13:43:40Z</time></trkpt><trkpt lat="44.57804927610475" lon="9.270238063106403"><ele>575.0</ele><time>2026-05-02T13:43:41Z</time></trkpt><trkpt lat="44.578219880619855" lon="9.270197592169017"><ele>575.0</ele><time>2026-05-02T13:43:42Z</time></trkpt><trkpt lat="44.5783733395261" lon="9.270147979221969"><ele>575.0</ele><time>2026-05-02T13:43:43Z</time></trkpt><trkpt lat="44.57852227751271" lon="9.2700990308989"><ele>575.0</ele><time>2026-05-02T13:43:44Z</time></trkpt><trkpt lat="44.57867281964587" lon="9.27005744071011"><ele>575.0</ele><time>2026-05-02T13:43:45Z</time></trkpt><trkpt lat="44.57881495227883" lon="9.27002279913501"><ele>575.3333333333333</ele><time>2026-05-02T13:43:46Z</time></trkpt><trkpt lat="44.57896644807069" lon="9.269992803118528"><ele>575.6666666666666</ele><time>2026-05-02T13:43:47Z</time></trkpt><trkpt lat="44.57913675228916" lon="9.270010278869067"><ele>576.0</ele><time>2026-05-02T13:43:48Z</time></trkpt><trkpt lat="44.57933620225126" lon="9.270029596754277"><ele>576.0</ele><time>2026-05-02T13:43:49Z</time></trkpt><trkpt lat="44.57955116558477" lon="9.270049295582101"><ele>576.0</ele><time>2026-05-02T13:43:50Z</time></trkpt><trkpt lat="44.57976844167975" lon="9.270063326927506"><ele>576.0</ele><time>2026-05-02T13:43:51Z</time></trkpt><trkpt lat="44.579975159844984" lon="9.27007932401299"><ele>576.0</ele><time>2026-05-02T13:43:52Z</time></trkpt><trkpt lat="44.58017308386867" lon="9.270104629512346"><ele>576.0</ele><time>2026-05-02T13:43:53Z</time></trkpt><trkpt lat="44.58037012238999" lon="9.270136098113225"><ele>576.0</ele><time>2026-05-02T13:43:54Z</time></trkpt><trkpt lat="44.580563741914766" lon="9.270165478533778"><ele>575.0</ele><time>2026-05-02T13:43:55Z</time></trkpt><trkpt lat="44.580752789320314" lon="9.270193426708945"><ele>574.0</ele><time>2026-05-02T13:43:56Z</time></trkpt><trkpt lat="44.580927909131844" lon="9.270231414321568"><ele>573.0</ele><time>2026-05-02T13:43:57Z</time></trkpt><trkpt lat="44.58109138596656" lon="9.270281189490834"><ele>571.0</ele><time>2026-05-02T13:43:58Z</time></trkpt><trkpt lat="44.581245609371145" lon="9.270343824715583"><ele>569.0</ele><time>2026-05-02T13:43:59Z</time></trkpt><trkpt lat="44.58139775579207" lon="9.270423247258789"><ele>567.0</ele><time>2026-05-02T13:44:00Z</time></trkpt><trkpt lat="44.58154938781005" lon="9.270526199142541"><ele>571.0</ele><time>2026-05-02T13:44:01Z</time></trkpt><trkpt lat="44.5817042546598" lon="9.27064055101914"><ele>575.0</ele><time>2026-05-02T13:44:02Z</time></trkpt><trkpt lat="44.581855284365695" lon="9.270745513332491"><ele>579.0</ele><time>2026-05-02T13:44:03Z</time></trkpt><trkpt lat="44.58199803213662" lon="9.27084178214059"><ele>575.3333333333334</ele><time>2026-05-02T13:44:04Z</time></trkpt><trkpt lat="44.58213849400054" lon="9.270936844122772"><ele>571.6666666666667</ele><time>2026-05-02T13:44:05Z</time></trkpt><trkpt lat="44.58228804650723" lon="9.271040260191745"><ele>568.0</ele><time>2026-05-02T13:44:06Z</time></trkpt><trkpt lat="44.582443880114795" lon="9.271151228001386"><ele>568.0</ele><time>2026-05-02T13:44:07Z</time></trkpt><trkpt lat="44.58260857050179" lon="9.271267112580224"><ele>568.0</ele><time>2026-05-02T13:44:08Z</time></trkpt><trkpt lat="44.58278254816663" lon="9.271386044963345"><ele>568.0</ele><time>2026-05-02T13:44:09Z</time></trkpt><trkpt lat="44.5829568203908" lon="9.271507694359256"><ele>569.3333333333334</ele><time>2026-05-02T13:44:10Z</time></trkpt><trkpt lat="44.58312974987708" lon="9.271634983170692"><ele>570.6666666666666</ele><time>2026-05-02T13:44:11Z</time></trkpt><trkpt lat="44.583294716773835" lon="9.271773045922723"><ele>572.0</ele><time>2026-05-02T13:44:12Z</time></trkpt><trkpt lat="44.58344817733183" lon="9.27193092314108"><ele>572.0</ele><time>2026-05-02T13:44:13Z</time></trkpt><trkpt lat="44.583583531150936" lon="9.272127623523415"><ele>572.0</ele><time>2026-05-02T13:44:14Z</time></trkpt><trkpt lat="44.58370468702021" lon="9.272364510371961"><ele>572.0</ele><time>2026-05-02T13:44:15Z</time></trkpt><trkpt lat="44.58382114983561" lon="9.272595735352722"><ele>571.0</ele><time>2026-05-02T13:44:16Z</time></trkpt><trkpt lat="44.58393812168386" lon="9.272804333260348"><ele>570.0</ele><time>2026-05-02T13:44:17Z</time></trkpt><trkpt lat="44.58405815225927" lon="9.273006159811992"><ele>569.0</ele><time>2026-05-02T13:44:18Z</time></trkpt><trkpt lat="44.5841737358846" lon="9.273212319963687"><ele>571.3333333333333</ele><time>2026-05-02T13:44:19Z</time></trkpt><trkpt lat="44.584291561980585" lon="9.273420091569973"><ele>573.6666666666666</ele><time>2026-05-02T13:44:20Z</time></trkpt><trkpt lat="44.584409992847405" lon="9.273625813172105"><ele>576.0</ele><time>2026-05-02T13:44:21Z</time></trkpt><trkpt lat="44.58451748663561" lon="9.27384176666"><ele>572.0</ele><time>2026-05-02T13:44:22Z</time></trkpt><trkpt lat="44.58461253560588" lon="9.274081738776035"><ele>568.0</ele><time>2026-05-02T13:44:23Z</time></trkpt><trkpt lat="44.58469826072762" lon="9.274336793612035"><ele>564.0</ele><time>2026-05-02T13:44:24Z</time></trkpt><trkpt lat="44.58478435648565" lon="9.274584399315975"><ele>565.3333333333334</ele><time>2026-05-02T13:44:25Z</time></trkpt><trkpt lat="44.58486887621136" lon="9.274804180967902"><ele>566.6666666666667</ele><time>2026-05-02T13:44:26Z</time></trkpt><trkpt lat="44.58495540387569" lon="9.275018660079903"><ele>568.0</ele><time>2026-05-02T13:44:27Z</time></trkpt><trkpt lat="44.585035805882164" lon="9.27523436687188"><ele>568.0</ele><time>2026-05-02T13:44:28Z</time></trkpt><trkpt lat="44.585107007133644" lon="9.275441148394458"><ele>568.0</ele><time>2026-05-02T13:44:29Z</time></trkpt><trkpt lat="44.585167564319164" lon="9.275639873753798"><ele>568.0</ele><time>2026-05-02T13:44:30Z</time></trkpt><trkpt lat="44.5852101337857" lon="9.275857490603963"><ele>569.6666666666667</ele><time>2026-05-02T13:44:31Z</time></trkpt><trkpt lat="44.5852299261245" lon="9.276103530680116"><ele>571.3333333333334</ele><time>2026-05-02T13:44:32Z</time></trkpt><trkpt lat="44.585238339594326" lon="9.276346175548179"><ele>573.0</ele><time>2026-05-02T13:44:33Z</time></trkpt><trkpt lat="44.58524349370235" lon="9.276583635159664"><ele>573.0</ele><time>2026-05-02T13:44:34Z</time></trkpt><trkpt lat="44.58524869969763" lon="9.276801009649182"><ele>573.0</ele><time>2026-05-02T13:44:35Z</time></trkpt><trkpt lat="44.585259557712526" lon="9.277004157079622"><ele>573.0</ele><time>2026-05-02T13:44:36Z</time></trkpt><trkpt lat="44.5852866280057" lon="9.277201982625504"><ele>573.0</ele><time>2026-05-02T13:44:37Z</time></trkpt><trkpt lat="44.58534447647601" lon="9.277393737369458"><ele>568.0</ele><time>2026-05-02T13:44:38Z</time></trkpt><trkpt lat="44.585426354351384" lon="9.27758247500936"><ele>563.0</ele><time>2026-05-02T13:44:39Z</time></trkpt><trkpt lat="44.585519762899004" lon="9.27776773166287"><ele>558.0</ele><time>2026-05-02T13:44:40Z</time></trkpt><trkpt lat="44.58561213862932" lon="9.277948250096507"><ele>559.5</ele><time>2026-05-02T13:44:41Z</time></trkpt><trkpt lat="44.5856964505792" lon="9.278123757873859"><ele>561.0</ele><time>2026-05-02T13:44:42Z</time></trkpt><trkpt lat="44.585775463283575" lon="9.278290095340209"><ele>562.5</ele><time>2026-05-02T13:44:43Z</time></trkpt><trkpt lat="44.585851328415245" lon="9.278442467243227"><ele>564.0</ele><time>2026-05-02T13:44:44Z</time></trkpt><trkpt lat="44.585915854063465" lon="9.278583403853839"><ele>564.0</ele><time>2026-05-02T13:44:45Z</time></trkpt><trkpt lat="44.585971655116" lon="9.278720970594682"><ele>564.0</ele><time>2026-05-02T13:44:46Z</time></trkpt><trkpt lat="44.586018745916796" lon="9.278852268608288"><ele>564.0</ele><time>2026-05-02T13:44:47Z</time></trkpt><trkpt lat="44.5860621481987" lon="9.278992278481423"><ele>564.0</ele><time>2026-05-02T13:44:48Z</time></trkpt><trkpt lat="44.586084206958176" lon="9.279165613366702"><ele>565.8333333333334</ele><time>2026-05-02T13:44:49Z</time></trkpt><trkpt lat="44.586119871617896" lon="9.279315460161286"><ele>567.6666666666666</ele><time>2026-05-02T13:44:50Z</time></trkpt><trkpt lat="44.58615391761838" lon="9.279436106546706"><ele>569.5</ele><time>2026-05-02T13:44:51Z</time></trkpt><trkpt lat="44.58617989357612" lon="9.279516899081264"><ele>571.3333333333333</ele><time>2026-05-02T13:44:52Z</time></trkpt><trkpt lat="44.58621479664885" lon="9.279622910290865"><ele>573.1666666666666</ele><time>2026-05-02T13:44:54Z</time></trkpt><trkpt lat="44.58625112976989" lon="9.279726235852376"><ele>575.0</ele><time>2026-05-02T13:44:56Z</time></trkpt><trkpt lat="44.586294132326024" lon="9.279845239776437"><ele>571.0</ele><time>2026-05-02T13:44:58Z</time></trkpt><trkpt lat="44.58635290718761" lon="9.280001203988203"><ele>567.0</ele><time>2026-05-02T13:45:00Z</time></trkpt><trkpt lat="44.58639603808133" lon="9.280088460019668"><ele>563.0</ele><time>2026-05-02T13:45:01Z</time></trkpt><trkpt lat="44.586429842403355" lon="9.280186487379874"><ele>559.0</ele><time>2026-05-02T13:45:02Z</time></trkpt><trkpt lat="44.58646858603031" lon="9.280283369356336"><ele>555.0</ele><time>2026-05-02T13:45:03Z</time></trkpt><trkpt lat="44.586508098988176" lon="9.280382118527012"><ele>551.0</ele><time>2026-05-02T13:45:04Z</time></trkpt><trkpt lat="44.58655064227618" lon="9.280485966320402"><ele>551.0</ele><time>2026-05-02T13:45:05Z</time></trkpt><trkpt lat="44.58659638742151" lon="9.280597951960322"><ele>551.0</ele><time>2026-05-02T13:45:06Z</time></trkpt><trkpt lat="44.586646707580975" lon="9.28072817876828"><ele>551.0</ele><time>2026-05-02T13:45:07Z</time></trkpt><trkpt lat="44.586705304581685" lon="9.280887861297522"><ele>551.0</ele><time>2026-05-02T13:45:08Z</time></trkpt><trkpt lat="44.58676289084057" lon="9.281035286069587"><ele>551.0</ele><time>2026-05-02T13:45:09Z</time></trkpt><trkpt lat="44.586819435173865" lon="9.281163700041157"><ele>552.8</ele><time>2026-05-02T13:45:10Z</time></trkpt><trkpt lat="44.58688733010527" lon="9.281277271566854"><ele>554.6</ele><time>2026-05-02T13:45:11Z</time></trkpt><trkpt lat="44.58695737369173" lon="9.281374293647824"><ele>556.4</ele><time>2026-05-02T13:45:12Z</time></trkpt><trkpt lat="44.58702421628497" lon="9.281464810797209"><ele>558.2</ele><time>2026-05-02T13:45:13Z</time></trkpt><trkpt lat="44.58709167428767" lon="9.281553464587832"><ele>560.0</ele><time>2026-05-02T13:45:14Z</time></trkpt><trkpt lat="44.587154243908515" lon="9.281637642774294"><ele>560.0</ele><time>2026-05-02T13:45:15Z</time></trkpt><trkpt lat="44.587218463213695" lon="9.28171854338726"><ele>560.0</ele><time>2026-05-02T13:45:16Z</time></trkpt><trkpt lat="44.587288485056696" lon="9.281791294874964"><ele>560.0</ele><time>2026-05-02T13:45:17Z</time></trkpt><trkpt lat="44.587358016370914" lon="9.28185654773117"><ele>560.0</ele><time>2026-05-02T13:45:18Z</time></trkpt><trkpt lat="44.587423682042214" lon="9.28190742783157"><ele>560.0</ele><time>2026-05-02T13:45:19Z</time></trkpt><trkpt lat="44.58748323830374" lon="9.281956265508999"><ele>560.0</ele><time>2026-05-02T13:45:20Z</time></trkpt><trkpt lat="44.58754453086151" lon="9.282004054438417"><ele>560.0</ele><time>2026-05-02T13:45:21Z</time></trkpt><trkpt lat="44.58761005227376" lon="9.282051625262392"><ele>560.0</ele><time>2026-05-02T13:45:22Z</time></trkpt><trkpt lat="44.587679961238614" lon="9.282085784602495"><ele>560.0</ele><time>2026-05-02T13:45:23Z</time></trkpt><trkpt lat="44.58775924649684" lon="9.282096026223549"><ele>560.0</ele><time>2026-05-02T13:45:24Z</time></trkpt><trkpt lat="44.58783938781718" lon="9.282095722224566"><ele>560.0</ele><time>2026-05-02T13:45:25Z</time></trkpt><trkpt lat="44.58791708747432" lon="9.282072195692031"><ele>560.0</ele><time>2026-05-02T13:45:26Z</time></trkpt><trkpt lat="44.58799804288355" lon="9.282030668136002"><ele>560.0</ele><time>2026-05-02T13:45:27Z</time></trkpt><trkpt lat="44.58807340949519" lon="9.281982584545242"><ele>560.0</ele><time>2026-05-02T13:45:28Z</time></trkpt><trkpt lat="44.58814278107258" lon="9.281936352875904"><ele>560.0</ele><time>2026-05-02T13:45:29Z</time></trkpt><trkpt lat="44.588211805435265" lon="9.281891598353047"><ele>560.0</ele><time>2026-05-02T13:45:30Z</time></trkpt><trkpt lat="44.588279925481636" lon="9.281850786263467"><ele>560.0</ele><time>2026-05-02T13:45:31Z</time></trkpt><trkpt lat="44.588346381966176" lon="9.281814032679279"><ele>560.0</ele><time>2026-05-02T13:45:32Z</time></trkpt><trkpt lat="44.58841540461583" lon="9.281781237213643"><ele>560.0</ele><time>2026-05-02T13:45:33Z</time></trkpt><trkpt lat="44.588486792697864" lon="9.281761676420166"><ele>560.0</ele><time>2026-05-02T13:45:34Z</time></trkpt><trkpt lat="44.58855889829147" lon="9.281762974110741"><ele>560.0</ele><time>2026-05-02T13:45:35Z</time></trkpt><trkpt lat="44.588632828034356" lon="9.281787386234539"><ele>560.0</ele><time>2026-05-02T13:45:36Z</time></trkpt><trkpt lat="44.58869644920265" lon="9.281826782368283"><ele>560.0</ele><time>2026-05-02T13:45:37Z</time></trkpt><trkpt lat="44.588758972183534" lon="9.281887126676718"><ele>560.0</ele><time>2026-05-02T13:45:38Z</time></trkpt><trkpt lat="44.588832514572324" lon="9.281980566344727"><ele>560.0</ele><time>2026-05-02T13:45:39Z</time></trkpt><trkpt lat="44.58890991124347" lon="9.282115422313897"><ele>560.0</ele><time>2026-05-02T13:45:40Z</time></trkpt><trkpt lat="44.58897235127405" lon="9.282253035138513"><ele>560.0</ele><time>2026-05-02T13:45:41Z</time></trkpt><trkpt lat="44.589039630933904" lon="9.282418147476887"><ele>560.0</ele><time>2026-05-02T13:45:42Z</time></trkpt><trkpt lat="44.589091447346654" lon="9.282570511889396"><ele>560.0</ele><time>2026-05-02T13:45:43Z</time></trkpt><trkpt lat="44.58913279739047" lon="9.28271251393286"><ele>560.0</ele><time>2026-05-02T13:45:44Z</time></trkpt><trkpt lat="44.58916737049055" lon="9.28284005631332"><ele>560.0</ele><time>2026-05-02T13:45:45Z</time></trkpt><trkpt lat="44.58920316556667" lon="9.282973943794605"><ele>560.0</ele><time>2026-05-02T13:45:46Z</time></trkpt><trkpt lat="44.58923329724646" lon="9.283118561599206"><ele>560.0</ele><time>2026-05-02T13:45:47Z</time></trkpt><trkpt lat="44.589249597950804" lon="9.283277725274178"><ele>561.6</ele><time>2026-05-02T13:45:48Z</time></trkpt><trkpt lat="44.58925164981457" lon="9.28344047505514"><ele>563.2</ele><time>2026-05-02T13:45:49Z</time></trkpt><trkpt lat="44.58924491304277" lon="9.283599745435668"><ele>564.8</ele><time>2026-05-02T13:45:50Z</time></trkpt><trkpt lat="44.58923281311634" lon="9.28374591796093"><ele>566.4</ele><time>2026-05-02T13:45:51Z</time></trkpt><trkpt lat="44.58922307123244" lon="9.283886798080024"><ele>568.0</ele><time>2026-05-02T13:45:52Z</time></trkpt><trkpt lat="44.58922745611223" lon="9.284025115296721"><ele>568.0</ele><time>2026-05-02T13:45:53Z</time></trkpt><trkpt lat="44.58924930776017" lon="9.284194838713546"><ele>568.0</ele><time>2026-05-02T13:45:54Z</time></trkpt><trkpt lat="44.58933175257589" lon="9.284415283780579"><ele>568.0</ele><time>2026-05-02T13:45:55Z</time></trkpt><trkpt lat="44.589445008397824" lon="9.284712701767768"><ele>561.0</ele><time>2026-05-02T13:45:56Z</time></trkpt><trkpt lat="44.58953742401809" lon="9.284967304508086"><ele>554.0</ele><time>2026-05-02T13:45:57Z</time></trkpt><trkpt lat="44.589627486139605" lon="9.285173418723696"><ele>547.0</ele><time>2026-05-02T13:45:58Z</time></trkpt><trkpt lat="44.58970047010123" lon="9.285367738186087"><ele>547.0</ele><time>2026-05-02T13:45:59Z</time></trkpt><trkpt lat="44.589787781106025" lon="9.285549738428365"><ele>547.0</ele><time>2026-05-02T13:46:00Z</time></trkpt><trkpt lat="44.58992462644807" lon="9.285692727180093"><ele>547.0</ele><time>2026-05-02T13:46:01Z</time></trkpt><trkpt lat="44.590057814113635" lon="9.285817033586747"><ele>547.0</ele><time>2026-05-02T13:46:02Z</time></trkpt><trkpt lat="44.59017090470071" lon="9.28594372744691"><ele>547.0</ele><time>2026-05-02T13:46:03Z</time></trkpt><trkpt lat="44.59025161435691" lon="9.286095688016006"><ele>547.0</ele><time>2026-05-02T13:46:04Z</time></trkpt><trkpt lat="44.59031372987349" lon="9.286271923255592"><ele>547.0</ele><time>2026-05-02T13:46:05Z</time></trkpt><trkpt lat="44.59037983178778" lon="9.286448310427634"><ele>547.0</ele><time>2026-05-02T13:46:06Z</time></trkpt><trkpt lat="44.59043751067069" lon="9.286625185908196"><ele>547.0</ele><time>2026-05-02T13:46:07Z</time></trkpt><trkpt lat="44.590491780895626" lon="9.286804559133973"><ele>547.0</ele><time>2026-05-02T13:46:08Z</time></trkpt><trkpt lat="44.590544742301574" lon="9.28698128585976"><ele>547.0</ele><time>2026-05-02T13:46:09Z</time></trkpt><trkpt lat="44.59059450554087" lon="9.287147340631416"><ele>548.5</ele><time>2026-05-02T13:46:10Z</time></trkpt><trkpt lat="44.590643404355994" lon="9.287310510906131"><ele>550.0</ele><time>2026-05-02T13:46:11Z</time></trkpt><trkpt lat="44.59069167467033" lon="9.287471583954146"><ele>551.5</ele><time>2026-05-02T13:46:12Z</time></trkpt><trkpt lat="44.59073631029493" lon="9.287622683897922"><ele>553.0</ele><time>2026-05-02T13:46:13Z</time></trkpt><trkpt lat="44.590793046207295" lon="9.28774925212923"><ele>553.0</ele><time>2026-05-02T13:46:14Z</time></trkpt><trkpt lat="44.59083472846292" lon="9.287892270008127"><ele>553.0</ele><time>2026-05-02T13:46:15Z</time></trkpt><trkpt lat="44.59087136865072" lon="9.288023670076194"><ele>553.0</ele><time>2026-05-02T13:46:16Z</time></trkpt><trkpt lat="44.59090245365364" lon="9.288144142121562"><ele>553.0</ele><time>2026-05-02T13:46:17Z</time></trkpt><trkpt lat="44.59094608776962" lon="9.288262959276814"><ele>553.0</ele><time>2026-05-02T13:46:18Z</time></trkpt><trkpt lat="44.59101842083747" lon="9.288360083292256"><ele>552.25</ele><time>2026-05-02T13:46:19Z</time></trkpt><trkpt lat="44.5911211642192" lon="9.288446568431144"><ele>551.5</ele><time>2026-05-02T13:46:20Z</time></trkpt><trkpt lat="44.59123068600367" lon="9.288517641980713"><ele>550.75</ele><time>2026-05-02T13:46:21Z</time></trkpt><trkpt lat="44.591339465745236" lon="9.288579931962339"><ele>550.0</ele><time>2026-05-02T13:46:22Z</time></trkpt><trkpt lat="44.59144636560984" lon="9.288629779364761"><ele>550.0</ele><time>2026-05-02T13:46:23Z</time></trkpt><trkpt lat="44.59153414699269" lon="9.28868077031807"><ele>550.0</ele><time>2026-05-02T13:46:24Z</time></trkpt><trkpt lat="44.591624182309474" lon="9.288726391743007"><ele>550.0</ele><time>2026-05-02T13:46:25Z</time></trkpt><trkpt lat="44.591731902614384" lon="9.288768313671143"><ele>550.0</ele><time>2026-05-02T13:46:26Z</time></trkpt><trkpt lat="44.5918373920875" lon="9.288800371439226"><ele>550.0</ele><time>2026-05-02T13:46:27Z</time></trkpt><trkpt lat="44.59194757286995" lon="9.288789261300641"><ele>548.6</ele><time>2026-05-02T13:46:28Z</time></trkpt><trkpt lat="44.592056755707766" lon="9.288788637453134"><ele>547.2</ele><time>2026-05-02T13:46:29Z</time></trkpt><trkpt lat="44.59215689427378" lon="9.288754228378965"><ele>545.8</ele><time>2026-05-02T13:46:30Z</time></trkpt><trkpt lat="44.59224807609368" lon="9.288696916015647"><ele>544.4</ele><time>2026-05-02T13:46:31Z</time></trkpt><trkpt lat="44.59233839182559" lon="9.288672964863979"><ele>543.0</ele><time>2026-05-02T13:46:32Z</time></trkpt><trkpt lat="44.592433645793115" lon="9.288651986514028"><ele>543.0</ele><time>2026-05-02T13:46:33Z</time></trkpt><trkpt lat="44.59253564392099" lon="9.288646155026491"><ele>543.0</ele><time>2026-05-02T13:46:34Z</time></trkpt><trkpt lat="44.5926346159751" lon="9.28870159096651"><ele>543.0</ele><time>2026-05-02T13:46:35Z</time></trkpt><trkpt lat="44.5927244291428" lon="9.288763496297364"><ele>543.0</ele><time>2026-05-02T13:46:36Z</time></trkpt><trkpt lat="44.592815027411234" lon="9.288838404059284"><ele>543.0</ele><time>2026-05-02T13:46:37Z</time></trkpt><trkpt lat="44.59287974114082" lon="9.288976618297548"><ele>544.3333333333334</ele><time>2026-05-02T13:46:38Z</time></trkpt><trkpt lat="44.59295098367869" lon="9.289123080726755"><ele>545.6666666666667</ele><time>2026-05-02T13:46:39Z</time></trkpt><trkpt lat="44.593030962794536" lon="9.289291693986598"><ele>547.0</ele><time>2026-05-02T13:46:40Z</time></trkpt><trkpt lat="44.593142281851314" lon="9.289531958867816"><ele>555.0</ele><time>2026-05-02T13:46:41Z</time></trkpt><trkpt lat="44.59329900117646" lon="9.28985131740489"><ele>563.0</ele><time>2026-05-02T13:46:42Z</time></trkpt><trkpt lat="44.59348462828733" lon="9.290178018697494"><ele>563.0</ele><time>2026-05-02T13:46:43Z</time></trkpt><trkpt lat="44.59364623651629" lon="9.290450820463947"><ele>563.0</ele><time>2026-05-02T13:46:44Z</time></trkpt><trkpt lat="44.59377939000806" lon="9.290706232110756"><ele>560.0</ele><time>2026-05-02T13:46:45Z</time></trkpt><trkpt lat="44.59387017773749" lon="9.290986727675346"><ele>557.0</ele><time>2026-05-02T13:46:46Z</time></trkpt><trkpt lat="44.59396943813506" lon="9.291277491580606"><ele>554.0</ele><time>2026-05-02T13:46:47Z</time></trkpt><trkpt lat="44.594028873272435" lon="9.29154767111722"><ele>554.0</ele><time>2026-05-02T13:46:48Z</time></trkpt><trkpt lat="44.59409453790421" lon="9.291769843953283"><ele>554.0</ele><time>2026-05-02T13:46:49Z</time></trkpt><trkpt lat="44.59416738062709" lon="9.291954717047618"><ele>554.0</ele><time>2026-05-02T13:46:50Z</time></trkpt><trkpt lat="44.59426315612597" lon="9.292093391690951"><ele>554.0</ele><time>2026-05-02T13:46:51Z</time></trkpt><trkpt lat="44.59437861952961" lon="9.292208622253067"><ele>554.0</ele><time>2026-05-02T13:46:52Z</time></trkpt><trkpt lat="44.59453272795187" lon="9.292305393457235"><ele>554.0</ele><time>2026-05-02T13:46:53Z</time></trkpt><trkpt lat="44.59466980854635" lon="9.292335316568042"><ele>554.0</ele><time>2026-05-02T13:46:54Z</time></trkpt><trkpt lat="44.594812838476784" lon="9.29234933914536"><ele>554.25</ele><time>2026-05-02T13:46:55Z</time></trkpt><trkpt lat="44.59494927503309" lon="9.292396908216846"><ele>554.5</ele><time>2026-05-02T13:46:56Z</time></trkpt><trkpt lat="44.59503129497624" lon="9.29252955420868"><ele>554.75</ele><time>2026-05-02T13:46:57Z</time></trkpt><trkpt lat="44.595133295018336" lon="9.29265860067054"><ele>555.0</ele><time>2026-05-02T13:46:58Z</time></trkpt><trkpt lat="44.59525500722455" lon="9.292740847064763"><ele>548.6666666666666</ele><time>2026-05-02T13:46:59Z</time></trkpt><trkpt lat="44.59541681545902" lon="9.292745975904282"><ele>542.3333333333333</ele><time>2026-05-02T13:47:00Z</time></trkpt><trkpt lat="44.59561457905292" lon="9.292826379264477"><ele>536.0</ele><time>2026-05-02T13:47:01Z</time></trkpt><trkpt lat="44.59587113390181" lon="9.29290473293392"><ele>536.0</ele><time>2026-05-02T13:47:02Z</time></trkpt><trkpt lat="44.59614900229571" lon="9.292987614089826"><ele>536.0</ele><time>2026-05-02T13:47:03Z</time></trkpt><trkpt lat="44.596417054479225" lon="9.293048358091985"><ele>543.5</ele><time>2026-05-02T13:47:04Z</time></trkpt><trkpt lat="44.59665747818008" lon="9.293128922847723"><ele>551.0</ele><time>2026-05-02T13:47:05Z</time></trkpt><trkpt lat="44.59688688269538" lon="9.293220333555375"><ele>548.6666666666666</ele><time>2026-05-02T13:47:06Z</time></trkpt><trkpt lat="44.59708733930064" lon="9.293323035777002"><ele>546.3333333333334</ele><time>2026-05-02T13:47:07Z</time></trkpt><trkpt lat="44.597264594783496" lon="9.293443792236982"><ele>544.0</ele><time>2026-05-02T13:47:08Z</time></trkpt><trkpt lat="44.597426195269115" lon="9.29355834833818"><ele>544.0</ele><time>2026-05-02T13:47:09Z</time></trkpt><trkpt lat="44.597577312280016" lon="9.293645748301447"><ele>544.0</ele><time>2026-05-02T13:47:10Z</time></trkpt><trkpt lat="44.597731212448096" lon="9.293693621737914"><ele>544.0</ele><time>2026-05-02T13:47:11Z</time></trkpt><trkpt lat="44.597900111415555" lon="9.29368490968372"><ele>544.6666666666667</ele><time>2026-05-02T13:47:12Z</time></trkpt><trkpt lat="44.5980740186622" lon="9.29362711226261"><ele>545.3333333333334</ele><time>2026-05-02T13:47:13Z</time></trkpt><trkpt lat="44.598260283788505" lon="9.293536400858196"><ele>546.0</ele><time>2026-05-02T13:47:14Z</time></trkpt><trkpt lat="44.5984451545867" lon="9.293425192787266"><ele>546.0</ele><time>2026-05-02T13:47:15Z</time></trkpt><trkpt lat="44.59863479007578" lon="9.293303622943997"><ele>546.0</ele><time>2026-05-02T13:47:16Z</time></trkpt><trkpt lat="44.59883004171341" lon="9.293188796042664"><ele>546.0</ele><time>2026-05-02T13:47:17Z</time></trkpt><trkpt lat="44.59901506433128" lon="9.293084857514147"><ele>542.3333333333334</ele><time>2026-05-02T13:47:18Z</time></trkpt><trkpt lat="44.59918222153126" lon="9.292995161507704"><ele>538.6666666666667</ele><time>2026-05-02T13:47:19Z</time></trkpt><trkpt lat="44.59933370980453" lon="9.292909101210144"><ele>535.0</ele><time>2026-05-02T13:47:20Z</time></trkpt><trkpt lat="44.59945278605827" lon="9.292812430543744"><ele>545.0</ele><time>2026-05-02T13:47:21Z</time></trkpt><trkpt lat="44.599541550205615" lon="9.292683492346407"><ele>555.0</ele><time>2026-05-02T13:47:22Z</time></trkpt><trkpt lat="44.59961012607224" lon="9.292501046973847"><ele>565.0</ele><time>2026-05-02T13:47:23Z</time></trkpt><trkpt lat="44.599677832408396" lon="9.292259898789858"><ele>558.0</ele><time>2026-05-02T13:47:24Z</time></trkpt><trkpt lat="44.599786661201215" lon="9.292002615517482"><ele>551.0</ele><time>2026-05-02T13:47:25Z</time></trkpt><trkpt lat="44.599882029659256" lon="9.29173354299766"><ele>544.0</ele><time>2026-05-02T13:47:26Z</time></trkpt><trkpt lat="44.60000460368718" lon="9.291467432408833"><ele>544.6666666666667</ele><time>2026-05-02T13:47:27Z</time></trkpt><trkpt lat="44.600125036654866" lon="9.29121118069133"><ele>545.3333333333334</ele><time>2026-05-02T13:47:28Z</time></trkpt><trkpt lat="44.60023869764234" lon="9.290992238744918"><ele>546.0</ele><time>2026-05-02T13:47:29Z</time></trkpt><trkpt lat="44.6003398222789" lon="9.290818264868127"><ele>546.0</ele><time>2026-05-02T13:47:30Z</time></trkpt><trkpt lat="44.60044679807242" lon="9.290680837867074"><ele>546.0</ele><time>2026-05-02T13:47:31Z</time></trkpt><trkpt lat="44.60058063877798" lon="9.290582930992084"><ele>546.0</ele><time>2026-05-02T13:47:32Z</time></trkpt><trkpt lat="44.60075879083144" lon="9.290503609407091"><ele>541.0</ele><time>2026-05-02T13:47:33Z</time></trkpt><trkpt lat="44.60096678689944" lon="9.290426674736233"><ele>536.0</ele><time>2026-05-02T13:47:34Z</time></trkpt><trkpt lat="44.60116818723962" lon="9.290349344398258"><ele>531.0</ele><time>2026-05-02T13:47:35Z</time></trkpt><trkpt lat="44.601350831185165" lon="9.290303246570218"><ele>531.0</ele><time>2026-05-02T13:47:36Z</time></trkpt><trkpt lat="44.60153280178783" lon="9.290316034635952"><ele>531.0</ele><time>2026-05-02T13:47:37Z</time></trkpt><trkpt lat="44.60172719602229" lon="9.290387064728863"><ele>531.0</ele><time>2026-05-02T13:47:38Z</time></trkpt><trkpt lat="44.601941127163755" lon="9.29050140140889"><ele>531.0</ele><time>2026-05-02T13:47:39Z</time></trkpt><trkpt lat="44.602135794800915" lon="9.290610767667015"><ele>531.0</ele><time>2026-05-02T13:47:40Z</time></trkpt><trkpt lat="44.60230372134375" lon="9.290689707485042"><ele>531.0</ele><time>2026-05-02T13:47:41Z</time></trkpt><trkpt lat="44.6024569093149" lon="9.290766035192272"><ele>531.0</ele><time>2026-05-02T13:47:42Z</time></trkpt><trkpt lat="44.60260027317945" lon="9.29084199669651"><ele>531.0</ele><time>2026-05-02T13:47:43Z</time></trkpt><trkpt lat="44.60274479720035" lon="9.290912028106488"><ele>531.0</ele><time>2026-05-02T13:47:44Z</time></trkpt><trkpt lat="44.60289447822451" lon="9.290985108177836"><ele>528.0</ele><time>2026-05-02T13:47:45Z</time></trkpt><trkpt lat="44.60305737626151" lon="9.29106184130913"><ele>525.0</ele><time>2026-05-02T13:47:46Z</time></trkpt><trkpt lat="44.6032227870113" lon="9.291141008026921"><ele>522.0</ele><time>2026-05-02T13:47:47Z</time></trkpt><trkpt lat="44.603394399568025" lon="9.291230680777927"><ele>522.0</ele><time>2026-05-02T13:47:48Z</time></trkpt><trkpt lat="44.60357050486752" lon="9.291323408804116"><ele>522.0</ele><time>2026-05-02T13:47:49Z</time></trkpt><trkpt lat="44.60372889894599" lon="9.291407135786194"><ele>522.0</ele><time>2026-05-02T13:47:50Z</time></trkpt><trkpt lat="44.60387440512384" lon="9.291481906478902"><ele>522.75</ele><time>2026-05-02T13:47:51Z</time></trkpt><trkpt lat="44.60400546492332" lon="9.291547006083583"><ele>523.5</ele><time>2026-05-02T13:47:52Z</time></trkpt><trkpt lat="44.6041295414421" lon="9.291605604596416"><ele>524.25</ele><time>2026-05-02T13:47:53Z</time></trkpt><trkpt lat="44.60424392255956" lon="9.291661529645516"><ele>525.0</ele><time>2026-05-02T13:47:54Z</time></trkpt><trkpt lat="44.604346684718806" lon="9.29171311114273"><ele>525.0</ele><time>2026-05-02T13:47:55Z</time></trkpt><trkpt lat="44.60443689746768" lon="9.291759530029267"><ele>525.0</ele><time>2026-05-02T13:47:56Z</time></trkpt><trkpt lat="44.60451583284676" lon="9.291802837982509"><ele>525.0</ele><time>2026-05-02T13:47:57Z</time></trkpt><trkpt lat="44.60458842198551" lon="9.291854982209184"><ele>525.0</ele><time>2026-05-02T13:47:58Z</time></trkpt><trkpt lat="44.604663209666064" lon="9.29192318374521"><ele>525.0</ele><time>2026-05-02T13:47:59Z</time></trkpt><trkpt lat="44.60474636407005" lon="9.292011273183979"><ele>525.0</ele><time>2026-05-02T13:48:00Z</time></trkpt><trkpt lat="44.60482995046245" lon="9.292119874859772"><ele>525.0</ele><time>2026-05-02T13:48:01Z</time></trkpt><trkpt lat="44.604902851310975" lon="9.292243806923409"><ele>525.0</ele><time>2026-05-02T13:48:02Z</time></trkpt><trkpt lat="44.604951007617835" lon="9.292382786132295"><ele>525.0</ele><time>2026-05-02T13:48:03Z</time></trkpt><trkpt lat="44.60502161427145" lon="9.292488752639064"><ele>525.0</ele><time>2026-05-02T13:48:04Z</time></trkpt><trkpt lat="44.605074497708195" lon="9.292604517989151"><ele>525.0</ele><time>2026-05-02T13:48:05Z</time></trkpt><trkpt lat="44.605124051495594" lon="9.292714261688644"><ele>525.0</ele><time>2026-05-02T13:48:06Z</time></trkpt><trkpt lat="44.60517746944289" lon="9.292832274011667"><ele>525.0</ele><time>2026-05-02T13:48:07Z</time></trkpt><trkpt lat="44.60523928071313" lon="9.29296940754886"><ele>525.0</ele><time>2026-05-02T13:48:08Z</time></trkpt><trkpt lat="44.60530824287459" lon="9.293119697509074"><ele>525.0</ele><time>2026-05-02T13:48:09Z</time></trkpt><trkpt lat="44.6053856134096" lon="9.293277644998327"><ele>524.6666666666666</ele><time>2026-05-02T13:48:10Z</time></trkpt><trkpt lat="44.605463385484704" lon="9.293444232751577"><ele>524.3333333333333</ele><time>2026-05-02T13:48:11Z</time></trkpt><trkpt lat="44.605552654598796" lon="9.293628739595164"><ele>524.0</ele><time>2026-05-02T13:48:12Z</time></trkpt><trkpt lat="44.605644919103206" lon="9.293814863839534"><ele>524.0</ele><time>2026-05-02T13:48:13Z</time></trkpt><trkpt lat="44.60573654818822" lon="9.29399903465215"><ele>524.0</ele><time>2026-05-02T13:48:14Z</time></trkpt><trkpt lat="44.60582920140999" lon="9.294183378640476"><ele>524.0</ele><time>2026-05-02T13:48:15Z</time></trkpt><trkpt lat="44.60591970444869" lon="9.29436084423828"><ele>524.0</ele><time>2026-05-02T13:48:16Z</time></trkpt><trkpt lat="44.60600776104639" lon="9.294537121497278"><ele>524.0</ele><time>2026-05-02T13:48:17Z</time></trkpt><trkpt lat="44.60608995505923" lon="9.294701212609233"><ele>524.0</ele><time>2026-05-02T13:48:18Z</time></trkpt><trkpt lat="44.6061699016112" lon="9.294863198232926"><ele>524.0</ele><time>2026-05-02T13:48:19Z</time></trkpt><trkpt lat="44.60624444378565" lon="9.295015306732191"><ele>525.25</ele><time>2026-05-02T13:48:20Z</time></trkpt><trkpt lat="44.606316465720724" lon="9.295164715946303"><ele>526.5</ele><time>2026-05-02T13:48:21Z</time></trkpt><trkpt lat="44.60638539072261" lon="9.29530736379955"><ele>527.75</ele><time>2026-05-02T13:48:22Z</time></trkpt><trkpt lat="44.60645323164019" lon="9.295443285069974"><ele>529.0</ele><time>2026-05-02T13:48:23Z</time></trkpt><trkpt lat="44.60651665926277" lon="9.2955769444469"><ele>529.2</ele><time>2026-05-02T13:48:24Z</time></trkpt><trkpt lat="44.606577165869005" lon="9.295699011870628"><ele>529.4</ele><time>2026-05-02T13:48:25Z</time></trkpt><trkpt lat="44.606633720777" lon="9.295817383930329"><ele>529.6</ele><time>2026-05-02T13:48:26Z</time></trkpt><trkpt lat="44.60669215792728" lon="9.295931163377936"><ele>529.8</ele><time>2026-05-02T13:48:27Z</time></trkpt><trkpt lat="44.606749209865534" lon="9.296048579143362"><ele>530.0</ele><time>2026-05-02T13:48:28Z</time></trkpt><trkpt lat="44.60679445539183" lon="9.296166073651488"><ele>530.0</ele><time>2026-05-02T13:48:29Z</time></trkpt><trkpt lat="44.606822450638276" lon="9.296293013028007"><ele>530.0</ele><time>2026-05-02T13:48:30Z</time></trkpt><trkpt lat="44.60683920813608" lon="9.296417603066642"><ele>530.0</ele><time>2026-05-02T13:48:31Z</time></trkpt><trkpt lat="44.60685161905974" lon="9.296528680763824"><ele>530.0</ele><time>2026-05-02T13:48:32Z</time></trkpt><trkpt lat="44.606865231549214" lon="9.296624292074165"><ele>530.0</ele><time>2026-05-02T13:48:33Z</time></trkpt><trkpt lat="44.6068776324277" lon="9.296714485501886"><ele>530.0</ele><time>2026-05-02T13:48:34Z</time></trkpt><trkpt lat="44.606909133474865" lon="9.296833459130784"><ele>528.6666666666666</ele><time>2026-05-02T13:48:35Z</time></trkpt><trkpt lat="44.606974691912605" lon="9.29699175763239"><ele>527.3333333333334</ele><time>2026-05-02T13:48:36Z</time></trkpt><trkpt lat="44.60707564742989" lon="9.297182365126217"><ele>526.0</ele><time>2026-05-02T13:48:37Z</time></trkpt><trkpt lat="44.607180666785474" lon="9.297350150533381"><ele>528.0</ele><time>2026-05-02T13:48:38Z</time></trkpt><trkpt lat="44.607286925316444" lon="9.297541261508924"><ele>530.0</ele><time>2026-05-02T13:48:39Z</time></trkpt><trkpt lat="44.607368911277675" lon="9.297702584436154"><ele>532.0</ele><time>2026-05-02T13:48:40Z</time></trkpt><trkpt lat="44.60745719318256" lon="9.297822053773672"><ele>534.0</ele><time>2026-05-02T13:48:41Z</time></trkpt><trkpt lat="44.607578208552546" lon="9.29791895770242"><ele>534.0</ele><time>2026-05-02T13:48:42Z</time></trkpt><trkpt lat="44.6077272742712" lon="9.29800246153439"><ele>534.0</ele><time>2026-05-02T13:48:43Z</time></trkpt><trkpt lat="44.60784797758885" lon="9.29806342291669"><ele>534.0</ele><time>2026-05-02T13:48:44Z</time></trkpt><trkpt lat="44.60794985509316" lon="9.298131078223598"><ele>534.0</ele><time>2026-05-02T13:48:45Z</time></trkpt><trkpt lat="44.60802804115357" lon="9.298248300172197"><ele>540.3333333333334</ele><time>2026-05-02T13:48:46Z</time></trkpt><trkpt lat="44.608081824376505" lon="9.29842525859838"><ele>546.6666666666667</ele><time>2026-05-02T13:48:47Z</time></trkpt><trkpt lat="44.6081126175642" lon="9.298637554082875"><ele>553.0</ele><time>2026-05-02T13:48:48Z</time></trkpt><trkpt lat="44.60813659657303" lon="9.29888034129572"><ele>551.0</ele><time>2026-05-02T13:48:49Z</time></trkpt><trkpt lat="44.60818379355919" lon="9.299163846443882"><ele>549.0</ele><time>2026-05-02T13:48:50Z</time></trkpt><trkpt lat="44.60823166569369" lon="9.299477318810892"><ele>547.0</ele><time>2026-05-02T13:48:51Z</time></trkpt><trkpt lat="44.608271073958164" lon="9.299802300119499"><ele>545.0</ele><time>2026-05-02T13:48:52Z</time></trkpt><trkpt lat="44.608303036970305" lon="9.300116096371317"><ele>543.0</ele><time>2026-05-02T13:48:53Z</time></trkpt><trkpt lat="44.608315237257976" lon="9.300420705291566"><ele>541.0</ele><time>2026-05-02T13:48:54Z</time></trkpt><trkpt lat="44.608313284633404" lon="9.300713590899411"><ele>538.3333333333334</ele><time>2026-05-02T13:48:55Z</time></trkpt><trkpt lat="44.60831904583215" lon="9.300997336124977"><ele>535.6666666666666</ele><time>2026-05-02T13:48:56Z</time></trkpt><trkpt lat="44.60834200672057" lon="9.301278196197623"><ele>533.0</ele><time>2026-05-02T13:48:57Z</time></trkpt><trkpt lat="44.60837952248102" lon="9.301550918243981"><ele>532.0</ele><time>2026-05-02T13:48:58Z</time></trkpt><trkpt lat="44.608411058620085" lon="9.301798016808934"><ele>531.0</ele><time>2026-05-02T13:48:59Z</time></trkpt><trkpt lat="44.608435457013684" lon="9.30202686646635"><ele>530.0</ele><time>2026-05-02T13:49:00Z</time></trkpt><trkpt lat="44.6084585062586" lon="9.30221690383205"><ele>530.5</ele><time>2026-05-02T13:49:01Z</time></trkpt><trkpt lat="44.608481098308054" lon="9.302400316831854"><ele>531.0</ele><time>2026-05-02T13:49:02Z</time></trkpt><trkpt lat="44.60849369194669" lon="9.302561733335025"><ele>531.5</ele><time>2026-05-02T13:49:03Z</time></trkpt><trkpt lat="44.60848098412796" lon="9.302712103437306"><ele>532.0</ele><time>2026-05-02T13:49:04Z</time></trkpt><trkpt lat="44.60840709387933" lon="9.302849398293189"><ele>532.0</ele><time>2026-05-02T13:49:05Z</time></trkpt><trkpt lat="44.608349384679364" lon="9.302995320561845"><ele>532.0</ele><time>2026-05-02T13:49:06Z</time></trkpt><trkpt lat="44.60830664638904" lon="9.303128152735814"><ele>532.0</ele><time>2026-05-02T13:49:07Z</time></trkpt><trkpt lat="44.60825451907339" lon="9.303257494645656"><ele>532.0</ele><time>2026-05-02T13:49:08Z</time></trkpt><trkpt lat="44.608194195379134" lon="9.30339110995059"><ele>532.0</ele><time>2026-05-02T13:49:09Z</time></trkpt><trkpt lat="44.608111844738055" lon="9.303530217831142"><ele>532.25</ele><time>2026-05-02T13:49:10Z</time></trkpt><trkpt lat="44.608011480658355" lon="9.303659772509668"><ele>532.5</ele><time>2026-05-02T13:49:11Z</time></trkpt><trkpt lat="44.607898363315535" lon="9.303784130361768"><ele>532.75</ele><time>2026-05-02T13:49:12Z</time></trkpt><trkpt lat="44.607780781216576" lon="9.303902603913473"><ele>533.0</ele><time>2026-05-02T13:49:13Z</time></trkpt><trkpt lat="44.607678379347966" lon="9.30400162759883"><ele>533.0</ele><time>2026-05-02T13:49:14Z</time></trkpt><trkpt lat="44.607579422935345" lon="9.304086217582686"><ele>533.0</ele><time>2026-05-02T13:49:15Z</time></trkpt><trkpt lat="44.60747402664" lon="9.304163128028753"><ele>533.0</ele><time>2026-05-02T13:49:16Z</time></trkpt><trkpt lat="44.60735409603771" lon="9.304222657669467"><ele>533.0</ele><time>2026-05-02T13:49:17Z</time></trkpt><trkpt lat="44.60722432531903" lon="9.304253598108376"><ele>533.0</ele><time>2026-05-02T13:49:18Z</time></trkpt><trkpt lat="44.60710834523941" lon="9.304260136064153"><ele>533.0</ele><time>2026-05-02T13:49:19Z</time></trkpt><trkpt lat="44.60700577058069" lon="9.304260043537893"><ele>533.0</ele><time>2026-05-02T13:49:20Z</time></trkpt><trkpt lat="44.606909808704245" lon="9.30426897627946"><ele>533.0</ele><time>2026-05-02T13:49:21Z</time></trkpt><trkpt lat="44.60682056051616" lon="9.304310247707168"><ele>533.0</ele><time>2026-05-02T13:49:22Z</time></trkpt><trkpt lat="44.60674574633686" lon="9.304393746838452"><ele>531.5</ele><time>2026-05-02T13:49:23Z</time></trkpt><trkpt lat="44.606689668435514" lon="9.304512418790617"><ele>530.0</ele><time>2026-05-02T13:49:24Z</time></trkpt><trkpt lat="44.60666017438887" lon="9.304660693814684"><ele>528.5</ele><time>2026-05-02T13:49:25Z</time></trkpt><trkpt lat="44.606662567908764" lon="9.304821822069995"><ele>527.0</ele><time>2026-05-02T13:49:26Z</time></trkpt><trkpt lat="44.60668198649134" lon="9.304997658749175"><ele>527.0</ele><time>2026-05-02T13:49:27Z</time></trkpt><trkpt lat="44.60669292537544" lon="9.305228837336799"><ele>527.0</ele><time>2026-05-02T13:49:28Z</time></trkpt><trkpt lat="44.60672436348778" lon="9.305472740786756"><ele>527.0</ele><time>2026-05-02T13:49:29Z</time></trkpt><trkpt lat="44.60677289816927" lon="9.305726509465469"><ele>527.0</ele><time>2026-05-02T13:49:30Z</time></trkpt><trkpt lat="44.60680799895681" lon="9.305950321917855"><ele>527.0</ele><time>2026-05-02T13:49:31Z</time></trkpt><trkpt lat="44.60685356467983" lon="9.306149370455394"><ele>527.0</ele><time>2026-05-02T13:49:32Z</time></trkpt><trkpt lat="44.60691748114544" lon="9.30633469751136"><ele>526.6666666666666</ele><time>2026-05-02T13:49:33Z</time></trkpt><trkpt lat="44.60702500639251" lon="9.306519416285008"><ele>526.3333333333334</ele><time>2026-05-02T13:49:34Z</time></trkpt><trkpt lat="44.60715978181329" lon="9.306686141045295"><ele>526.0</ele><time>2026-05-02T13:49:35Z</time></trkpt><trkpt lat="44.60728853599167" lon="9.306812477370825"><ele>526.0</ele><time>2026-05-02T13:49:36Z</time></trkpt><trkpt lat="44.60740872788822" lon="9.306911764559345"><ele>526.0</ele><time>2026-05-02T13:49:37Z</time></trkpt><trkpt lat="44.6075510760161" lon="9.306971530900235"><ele>526.0</ele><time>2026-05-02T13:49:38Z</time></trkpt><trkpt lat="44.607723592681396" lon="9.306985578853595"><ele>526.6666666666667</ele><time>2026-05-02T13:49:39Z</time></trkpt><trkpt lat="44.607919384482926" lon="9.306974375608485"><ele>527.3333333333334</ele><time>2026-05-02T13:49:40Z</time></trkpt><trkpt lat="44.60811184025149" lon="9.3069806745831"><ele>528.0</ele><time>2026-05-02T13:49:41Z</time></trkpt><trkpt lat="44.60827862519332" lon="9.307023288821233"><ele>528.0</ele><time>2026-05-02T13:49:42Z</time></trkpt><trkpt lat="44.60843510529181" lon="9.307062188154239"><ele>528.0</ele><time>2026-05-02T13:49:43Z</time></trkpt><trkpt lat="44.608589851279035" lon="9.307073302121651"><ele>528.0</ele><time>2026-05-02T13:49:44Z</time></trkpt><trkpt lat="44.60875482007263" lon="9.307034067537122"><ele>528.6666666666666</ele><time>2026-05-02T13:49:45Z</time></trkpt><trkpt lat="44.60893593499514" lon="9.30695910499543"><ele>529.3333333333333</ele><time>2026-05-02T13:49:46Z</time></trkpt><trkpt lat="44.60912207987328" lon="9.306882917825225"><ele>530.0</ele><time>2026-05-02T13:49:47Z</time></trkpt><trkpt lat="44.60930760742713" lon="9.306822461592668"><ele>531.6666666666666</ele><time>2026-05-02T13:49:48Z</time></trkpt><trkpt lat="44.60949333216999" lon="9.306777858523322"><ele>533.3333333333334</ele><time>2026-05-02T13:49:49Z</time></trkpt><trkpt lat="44.609666267773164" lon="9.30674111462266"><ele>535.0</ele><time>2026-05-02T13:49:50Z</time></trkpt><trkpt lat="44.609827083184996" lon="9.306713536724535"><ele>535.0</ele><time>2026-05-02T13:49:51Z</time></trkpt><trkpt lat="44.6099739729574" lon="9.306690911339064"><ele>535.0</ele><time>2026-05-02T13:49:52Z</time></trkpt><trkpt lat="44.61011521834629" lon="9.306692777964106"><ele>535.0</ele><time>2026-05-02T13:49:53Z</time></trkpt><trkpt lat="44.61025678079657" lon="9.306754001090118"><ele>535.0</ele><time>2026-05-02T13:49:54Z</time></trkpt><trkpt lat="44.610390912098836" lon="9.306855727615881"><ele>532.0</ele><time>2026-05-02T13:49:55Z</time></trkpt><trkpt lat="44.610501622095946" lon="9.306954248137593"><ele>529.0</ele><time>2026-05-02T13:49:56Z</time></trkpt><trkpt lat="44.61057354565981" lon="9.307066869139295"><ele>526.0</ele><time>2026-05-02T13:49:57Z</time></trkpt><trkpt lat="44.61060085666402" lon="9.307203359035505"><ele>523.0</ele><time>2026-05-02T13:49:58Z</time></trkpt><trkpt lat="44.610591162217354" lon="9.30736018566268"><ele>523.0</ele><time>2026-05-02T13:49:59Z</time></trkpt><trkpt lat="44.610579426379466" lon="9.307522328759697"><ele>523.0</ele><time>2026-05-02T13:50:00Z</time></trkpt><trkpt lat="44.610603355179336" lon="9.307673123929648"><ele>523.0</ele><time>2026-05-02T13:50:01Z</time></trkpt><trkpt lat="44.61066486905698" lon="9.307820071582475"><ele>523.0</ele><time>2026-05-02T13:50:02Z</time></trkpt><trkpt lat="44.61075320611928" lon="9.30796600458969"><ele>520.75</ele><time>2026-05-02T13:50:03Z</time></trkpt><trkpt lat="44.61084168036454" lon="9.30809549739838"><ele>518.5</ele><time>2026-05-02T13:50:04Z</time></trkpt><trkpt lat="44.61092330095267" lon="9.308228987583899"><ele>516.25</ele><time>2026-05-02T13:50:05Z</time></trkpt><trkpt lat="44.61100059820712" lon="9.308360986365159"><ele>514.0</ele><time>2026-05-02T13:50:06Z</time></trkpt><trkpt lat="44.61107109469754" lon="9.3084864529733"><ele>514.0</ele><time>2026-05-02T13:50:07Z</time></trkpt><trkpt lat="44.61113655009805" lon="9.308602190730328"><ele>514.0</ele><time>2026-05-02T13:50:08Z</time></trkpt><trkpt lat="44.611198674669374" lon="9.308711628914144"><ele>514.0</ele><time>2026-05-02T13:50:09Z</time></trkpt><trkpt lat="44.61124016950638" lon="9.308826750562305"><ele>514.0</ele><time>2026-05-02T13:50:10Z</time></trkpt><trkpt lat="44.611242717099515" lon="9.3089588005826"><ele>514.0</ele><time>2026-05-02T13:50:11Z</time></trkpt><trkpt lat="44.61119827463806" lon="9.30911477379933"><ele>514.0</ele><time>2026-05-02T13:50:12Z</time></trkpt><trkpt lat="44.61116640199875" lon="9.309318778362696"><ele>514.0</ele><time>2026-05-02T13:50:13Z</time></trkpt><trkpt lat="44.611136389408" lon="9.309512185114418"><ele>514.0</ele><time>2026-05-02T13:50:14Z</time></trkpt><trkpt lat="44.611119502878324" lon="9.309722776427519"><ele>514.0</ele><time>2026-05-02T13:50:15Z</time></trkpt><trkpt lat="44.61109390390557" lon="9.309904173326567"><ele>514.25</ele><time>2026-05-02T13:50:16Z</time></trkpt><trkpt lat="44.61103378425518" lon="9.310078903074537"><ele>514.5</ele><time>2026-05-02T13:50:17Z</time></trkpt><trkpt lat="44.610935566922905" lon="9.310241593724111"><ele>514.75</ele><time>2026-05-02T13:50:18Z</time></trkpt><trkpt lat="44.61083115519707" lon="9.310402458084532"><ele>515.0</ele><time>2026-05-02T13:50:19Z</time></trkpt><trkpt lat="44.610724357762926" lon="9.310561900242334"><ele>519.0</ele><time>2026-05-02T13:50:20Z</time></trkpt><trkpt lat="44.610622369214255" lon="9.310715734797288"><ele>523.0</ele><time>2026-05-02T13:50:21Z</time></trkpt><trkpt lat="44.61053119145981" lon="9.310857858500935"><ele>527.0</ele><time>2026-05-02T13:50:22Z</time></trkpt><trkpt lat="44.61044777137472" lon="9.310997491862961"><ele>531.0</ele><time>2026-05-02T13:50:23Z</time></trkpt><trkpt lat="44.61036605060666" lon="9.311128987682359"><ele>527.0</ele><time>2026-05-02T13:50:24Z</time></trkpt><trkpt lat="44.61028645879328" lon="9.311253767755096"><ele>523.0</ele><time>2026-05-02T13:50:25Z</time></trkpt><trkpt lat="44.61021264729167" lon="9.311376099918009"><ele>519.0</ele><time>2026-05-02T13:50:26Z</time></trkpt><trkpt lat="44.610150596326555" lon="9.311495684119157"><ele>515.0</ele><time>2026-05-02T13:50:27Z</time></trkpt><trkpt lat="44.61010219078951" lon="9.311635569970003"><ele>511.0</ele><time>2026-05-02T13:50:28Z</time></trkpt><trkpt lat="44.61008906125007" lon="9.311800558118378"><ele>511.0</ele><time>2026-05-02T13:50:29Z</time></trkpt><trkpt lat="44.61010744121488" lon="9.311980549722598"><ele>511.0</ele><time>2026-05-02T13:50:30Z</time></trkpt><trkpt lat="44.61015397407762" lon="9.312166165319534"><ele>511.0</ele><time>2026-05-02T13:50:31Z</time></trkpt><trkpt lat="44.610226412794155" lon="9.312358896254935"><ele>511.0</ele><time>2026-05-02T13:50:32Z</time></trkpt><trkpt lat="44.61029888757609" lon="9.312567987664176"><ele>516.3333333333334</ele><time>2026-05-02T13:50:33Z</time></trkpt><trkpt lat="44.610343733480555" lon="9.312795814915273"><ele>521.6666666666666</ele><time>2026-05-02T13:50:34Z</time></trkpt><trkpt lat="44.610389458963716" lon="9.313014525208395"><ele>527.0</ele><time>2026-05-02T13:50:35Z</time></trkpt><trkpt lat="44.61042916134824" lon="9.31321237441615"><ele>527.0</ele><time>2026-05-02T13:50:36Z</time></trkpt><trkpt lat="44.610482824666576" lon="9.313402625654167"><ele>527.0</ele><time>2026-05-02T13:50:37Z</time></trkpt><trkpt lat="44.61048320012329" lon="9.31362229084823"><ele>527.0</ele><time>2026-05-02T13:50:38Z</time></trkpt><trkpt lat="44.61048643606053" lon="9.313845819956747"><ele>527.0</ele><time>2026-05-02T13:50:39Z</time></trkpt><trkpt lat="44.610503972199574" lon="9.314052932336493"><ele>527.0</ele><time>2026-05-02T13:50:40Z</time></trkpt><trkpt lat="44.61050337543719" lon="9.314253194669572"><ele>527.0</ele><time>2026-05-02T13:50:41Z</time></trkpt><trkpt lat="44.61050912999508" lon="9.314456912623605"><ele>527.0</ele><time>2026-05-02T13:50:42Z</time></trkpt><trkpt lat="44.61051491510654" lon="9.31467147397677"><ele>524.3333333333333</ele><time>2026-05-02T13:50:43Z</time></trkpt><trkpt lat="44.61056040755708" lon="9.314889150262639"><ele>521.6666666666666</ele><time>2026-05-02T13:50:44Z</time></trkpt><trkpt lat="44.61062999476668" lon="9.31509322120235"><ele>519.0</ele><time>2026-05-02T13:50:45Z</time></trkpt><trkpt lat="44.610681692635744" lon="9.315307107271822"><ele>519.0</ele><time>2026-05-02T13:50:46Z</time></trkpt><trkpt lat="44.610736157741016" lon="9.315516557887664"><ele>519.0</ele><time>2026-05-02T13:50:47Z</time></trkpt><trkpt lat="44.610787136671455" lon="9.31571997281106"><ele>519.0</ele><time>2026-05-02T13:50:48Z</time></trkpt><trkpt lat="44.61082180450463" lon="9.315913126346445"><ele>518.75</ele><time>2026-05-02T13:50:49Z</time></trkpt><trkpt lat="44.610839663937455" lon="9.316108005559263"><ele>518.5</ele><time>2026-05-02T13:50:50Z</time></trkpt><trkpt lat="44.61084001058798" lon="9.316286334309064"><ele>518.25</ele><time>2026-05-02T13:50:51Z</time></trkpt><trkpt lat="44.610818833265455" lon="9.316448885890054"><ele>518.0</ele><time>2026-05-02T13:50:52Z</time></trkpt><trkpt lat="44.610766330403266" lon="9.316594826167451"><ele>517.75</ele><time>2026-05-02T13:50:53Z</time></trkpt><trkpt lat="44.61071478294153" lon="9.316744428323323"><ele>517.5</ele><time>2026-05-02T13:50:54Z</time></trkpt><trkpt lat="44.610735259461556" lon="9.316930575197265"><ele>517.25</ele><time>2026-05-02T13:50:55Z</time></trkpt><trkpt lat="44.610758399979055" lon="9.31712838401969"><ele>517.0</ele><time>2026-05-02T13:50:56Z</time></trkpt><trkpt lat="44.610775543106634" lon="9.317322158560104"><ele>516.0</ele><time>2026-05-02T13:50:57Z</time></trkpt><trkpt lat="44.61076307678423" lon="9.317503790730973"><ele>515.0</ele><time>2026-05-02T13:50:58Z</time></trkpt><trkpt lat="44.610746881178386" lon="9.317677676926111"><ele>514.0</ele><time>2026-05-02T13:50:59Z</time></trkpt><trkpt lat="44.6107475482494" lon="9.31780417954506"><ele>513.0</ele><time>2026-05-02T13:51:00Z</time></trkpt><trkpt lat="44.61076152328982" lon="9.317932792190005"><ele>512.0</ele><time>2026-05-02T13:51:01Z</time></trkpt><trkpt lat="44.61078830975839" lon="9.318045200081901"><ele>510.0</ele><time>2026-05-02T13:51:02Z</time></trkpt><trkpt lat="44.61085632063557" lon="9.318149881832383"><ele>508.0</ele><time>2026-05-02T13:51:03Z</time></trkpt><trkpt lat="44.61095587181245" lon="9.318215932854534"><ele>506.0</ele><time>2026-05-02T13:51:04Z</time></trkpt><trkpt lat="44.611080362747344" lon="9.318252629638113"><ele>504.0</ele><time>2026-05-02T13:51:05Z</time></trkpt><trkpt lat="44.61121132491521" lon="9.318311437581992"><ele>511.25</ele><time>2026-05-02T13:51:06Z</time></trkpt><trkpt lat="44.611313341521225" lon="9.318426900424777"><ele>518.5</ele><time>2026-05-02T13:51:07Z</time></trkpt><trkpt lat="44.61141810150987" lon="9.318516654916559"><ele>525.75</ele><time>2026-05-02T13:51:08Z</time></trkpt><trkpt lat="44.61151057197003" lon="9.318604339747523"><ele>533.0</ele><time>2026-05-02T13:51:09Z</time></trkpt><trkpt lat="44.61160156804486" lon="9.318683190463746"><ele>533.0</ele><time>2026-05-02T13:51:10Z</time></trkpt><trkpt lat="44.61168597981629" lon="9.318758590687825"><ele>533.0</ele><time>2026-05-02T13:51:11Z</time></trkpt><trkpt lat="44.61176428665075" lon="9.3188269666854"><ele>533.0</ele><time>2026-05-02T13:51:12Z</time></trkpt><trkpt lat="44.61182988804095" lon="9.318896172263386"><ele>533.0</ele><time>2026-05-02T13:51:13Z</time></trkpt><trkpt lat="44.611888406356655" lon="9.318973787910549"><ele>533.0</ele><time>2026-05-02T13:51:14Z</time></trkpt><trkpt lat="44.611903924126054" lon="9.319092331948353"><ele>533.0</ele><time>2026-05-02T13:51:15Z</time></trkpt><trkpt lat="44.61187405327908" lon="9.319216302829256"><ele>531.0</ele><time>2026-05-02T13:51:16Z</time></trkpt><trkpt lat="44.61187405327854" lon="9.319370887978385"><ele>529.0</ele><time>2026-05-02T13:51:17Z</time></trkpt><trkpt lat="44.61187541764488" lon="9.319527685515279"><ele>527.0</ele><time>2026-05-02T13:51:18Z</time></trkpt><trkpt lat="44.611895612738174" lon="9.319673900450928"><ele>525.0</ele><time>2026-05-02T13:51:19Z</time></trkpt><trkpt lat="44.61191574593656" lon="9.319796374213514"><ele>523.0</ele><time>2026-05-02T13:51:20Z</time></trkpt><trkpt lat="44.61198059436114" lon="9.319903330652688"><ele>518.5</ele><time>2026-05-02T13:51:21Z</time></trkpt><trkpt lat="44.61208281688266" lon="9.319983582951378"><ele>514.0</ele><time>2026-05-02T13:51:22Z</time></trkpt><trkpt lat="44.612203054022224" lon="9.320066502273509"><ele>509.5</ele><time>2026-05-02T13:51:23Z</time></trkpt><trkpt lat="44.61233096712543" lon="9.320161528015666"><ele>505.0</ele><time>2026-05-02T13:51:24Z</time></trkpt><trkpt lat="44.61244172687376" lon="9.320255389383254"><ele>505.0</ele><time>2026-05-02T13:51:25Z</time></trkpt><trkpt lat="44.612546922753594" lon="9.320345551744854"><ele>505.0</ele><time>2026-05-02T13:51:26Z</time></trkpt><trkpt lat="44.612647782008914" lon="9.320436298101676"><ele>505.0</ele><time>2026-05-02T13:51:27Z</time></trkpt><trkpt lat="44.61276478080473" lon="9.320533670201801"><ele>505.0</ele><time>2026-05-02T13:51:28Z</time></trkpt><trkpt lat="44.612827200160034" lon="9.320650397159397"><ele>504.25</ele><time>2026-05-02T13:51:29Z</time></trkpt><trkpt lat="44.61286699443671" lon="9.320798910339246"><ele>503.5</ele><time>2026-05-02T13:51:30Z</time></trkpt><trkpt lat="44.61290567735955" lon="9.320986088454692"><ele>502.75</ele><time>2026-05-02T13:51:31Z</time></trkpt><trkpt lat="44.61294801772493" lon="9.321189121695367"><ele>502.0</ele><time>2026-05-02T13:51:32Z</time></trkpt><trkpt lat="44.61298022276181" lon="9.321355230244613"><ele>505.0</ele><time>2026-05-02T13:51:33Z</time></trkpt><trkpt lat="44.613007481084814" lon="9.321496383531391"><ele>508.00000000000006</ele><time>2026-05-02T13:51:34Z</time></trkpt><trkpt lat="44.61304045774977" lon="9.321619352974768"><ele>511.00000000000006</ele><time>2026-05-02T13:51:34.999Z</time></trkpt><trkpt lat="44.613109812811324" lon="9.321692488125956"><ele>514.0</ele><time>2026-05-02T13:51:35.999Z</time></trkpt><trkpt lat="44.6131965424367" lon="9.321727784049466"><ele>517.0</ele><time>2026-05-02T13:51:36.999Z</time></trkpt><trkpt lat="44.61331279152134" lon="9.321730674782966"><ele>517.0</ele><time>2026-05-02T13:51:37.999Z</time></trkpt><trkpt lat="44.61344278766626" lon="9.321680343137963"><ele>517.0</ele><time>2026-05-02T13:51:38.999Z</time></trkpt><trkpt lat="44.613581747597884" lon="9.321614420786252"><ele>517.0</ele><time>2026-05-02T13:51:40Z</time></trkpt><trkpt lat="44.61371703905325" lon="9.321563308174431"><ele>517.0</ele><time>2026-05-02T13:51:41Z</time></trkpt><trkpt lat="44.613856670016894" lon="9.321525351947589"><ele>518.0</ele><time>2026-05-02T13:51:42Z</time></trkpt><trkpt lat="44.61399512339092" lon="9.321491112583336"><ele>519.0</ele><time>2026-05-02T13:51:43Z</time></trkpt><trkpt lat="44.61412468187816" lon="9.321464196106456"><ele>520.0</ele><time>2026-05-02T13:51:44Z</time></trkpt><trkpt lat="44.614257042441025" lon="9.321434400785984"><ele>521.0</ele><time>2026-05-02T13:51:45Z</time></trkpt><trkpt lat="44.614381838179234" lon="9.321404702739567"><ele>518.5</ele><time>2026-05-02T13:51:46Z</time></trkpt><trkpt lat="44.61450149507733" lon="9.321383275026847"><ele>516.0</ele><time>2026-05-02T13:51:47Z</time></trkpt><trkpt lat="44.61462258768739" lon="9.32138647903234"><ele>513.5</ele><time>2026-05-02T13:51:48Z</time></trkpt><trkpt lat="44.614744581434934" lon="9.321437539017927"><ele>511.0</ele><time>2026-05-02T13:51:49Z</time></trkpt><trkpt lat="44.614837994024676" lon="9.32153281843154"><ele>511.0</ele><time>2026-05-02T13:51:50Z</time></trkpt><trkpt lat="44.61494660037649" lon="9.321637429682099"><ele>511.0</ele><time>2026-05-02T13:51:51Z</time></trkpt><trkpt lat="44.615061278156055" lon="9.321743492933244"><ele>511.0</ele><time>2026-05-02T13:51:52Z</time></trkpt><trkpt lat="44.61520214888285" lon="9.32181479236324"><ele>511.0</ele><time>2026-05-02T13:51:53Z</time></trkpt><trkpt lat="44.61536360434768" lon="9.321847817924347"><ele>510.33333333333337</ele><time>2026-05-02T13:51:54Z</time></trkpt><trkpt lat="44.61554010518077" lon="9.321847984399676"><ele>509.66666666666663</ele><time>2026-05-02T13:51:55Z</time></trkpt><trkpt lat="44.615721321875284" lon="9.321833663402865"><ele>509.0</ele><time>2026-05-02T13:51:56Z</time></trkpt><trkpt lat="44.61587900074893" lon="9.321836112002648"><ele>509.0</ele><time>2026-05-02T13:51:57Z</time></trkpt><trkpt lat="44.616019640544636" lon="9.321804792363793"><ele>509.0</ele><time>2026-05-02T13:51:58Z</time></trkpt><trkpt lat="44.61615404411819" lon="9.321799268268288"><ele>509.0</ele><time>2026-05-02T13:51:59Z</time></trkpt><trkpt lat="44.61627439383168" lon="9.321796402424143"><ele>509.0</ele><time>2026-05-02T13:52:00Z</time></trkpt><trkpt lat="44.616385290507225" lon="9.321796265186373"><ele>507.25</ele><time>2026-05-02T13:52:01Z</time></trkpt><trkpt lat="44.6164982018262" lon="9.321797382049159"><ele>505.5</ele><time>2026-05-02T13:52:02Z</time></trkpt><trkpt lat="44.61661038125562" lon="9.321836298156079"><ele>503.75</ele><time>2026-05-02T13:52:03Z</time></trkpt><trkpt lat="44.61672502672816" lon="9.321844057795353"><ele>502.0</ele><time>2026-05-02T13:52:04Z</time></trkpt><trkpt lat="44.6168353363982" lon="9.321896622507998"><ele>502.0</ele><time>2026-05-02T13:52:05Z</time></trkpt><trkpt lat="44.61695465378036" lon="9.321963921641677"><ele>502.0</ele><time>2026-05-02T13:52:06Z</time></trkpt><trkpt lat="44.61707066739403" lon="9.322043145778014"><ele>502.0</ele><time>2026-05-02T13:52:07Z</time></trkpt><trkpt lat="44.617182991985786" lon="9.32214068537987"><ele>502.0</ele><time>2026-05-02T13:52:08Z</time></trkpt><trkpt lat="44.617280412101415" lon="9.322280895510502"><ele>498.0</ele><time>2026-05-02T13:52:09Z</time></trkpt><trkpt lat="44.617396400021114" lon="9.322432644192158"><ele>494.0</ele><time>2026-05-02T13:52:10Z</time></trkpt><trkpt lat="44.61752363334078" lon="9.322604358410242"><ele>490.0</ele><time>2026-05-02T13:52:11Z</time></trkpt><trkpt lat="44.617662276884644" lon="9.322765722630406"><ele>490.0</ele><time>2026-05-02T13:52:12Z</time></trkpt><trkpt lat="44.61779030334023" lon="9.322938992866218"><ele>490.0</ele><time>2026-05-02T13:52:13Z</time></trkpt><trkpt lat="44.617911941951334" lon="9.323101507461036"><ele>490.0</ele><time>2026-05-02T13:52:14Z</time></trkpt><trkpt lat="44.61803017996967" lon="9.323261162861154"><ele>492.25</ele><time>2026-05-02T13:52:15Z</time></trkpt><trkpt lat="44.618142262544886" lon="9.323411202942708"><ele>494.5</ele><time>2026-05-02T13:52:16Z</time></trkpt><trkpt lat="44.61824542958638" lon="9.323545011126182"><ele>496.75</ele><time>2026-05-02T13:52:17Z</time></trkpt><trkpt lat="44.618337151532494" lon="9.323668318388924"><ele>499.0</ele><time>2026-05-02T13:52:18Z</time></trkpt><trkpt lat="44.61842126347154" lon="9.323787365989958"><ele>500.25</ele><time>2026-05-02T13:52:19Z</time></trkpt><trkpt lat="44.618519302396514" lon="9.323924815033896"><ele>501.5</ele><time>2026-05-02T13:52:20Z</time></trkpt><trkpt lat="44.61862392198502" lon="9.324067192404723"><ele>502.75</ele><time>2026-05-02T13:52:21Z</time></trkpt><trkpt lat="44.61872167419569" lon="9.32419943488225"><ele>504.0</ele><time>2026-05-02T13:52:22Z</time></trkpt><trkpt lat="44.61881182335686" lon="9.324319996561282"><ele>504.0</ele><time>2026-05-02T13:52:23Z</time></trkpt><trkpt lat="44.61889603823074" lon="9.324434554957822"><ele>504.0</ele><time>2026-05-02T13:52:24Z</time></trkpt><trkpt lat="44.6189806617154" lon="9.324548691130104"><ele>504.0</ele><time>2026-05-02T13:52:25Z</time></trkpt><trkpt lat="44.619061702621444" lon="9.32465982105771"><ele>504.0</ele><time>2026-05-02T13:52:26Z</time></trkpt><trkpt lat="44.619136526777496" lon="9.324760017675503"><ele>501.6</ele><time>2026-05-02T13:52:27Z</time></trkpt><trkpt lat="44.61920782615103" lon="9.324860284899163"><ele>499.2</ele><time>2026-05-02T13:52:28Z</time></trkpt><trkpt lat="44.61927453753185" lon="9.324956426758273"><ele>496.80000000000007</ele><time>2026-05-02T13:52:29Z</time></trkpt><trkpt lat="44.61934349061132" lon="9.325048778585565"><ele>494.40000000000003</ele><time>2026-05-02T13:52:30Z</time></trkpt><trkpt lat="44.61941412955755" lon="9.325142844751719"><ele>492.0</ele><time>2026-05-02T13:52:31Z</time></trkpt><trkpt lat="44.61948341088544" lon="9.325238908156996"><ele>491.20000000000005</ele><time>2026-05-02T13:52:32Z</time></trkpt><trkpt lat="44.61955192604746" lon="9.325334971060242"><ele>490.40000000000003</ele><time>2026-05-02T13:52:33Z</time></trkpt><trkpt lat="44.61962019594565" lon="9.325428115689315"><ele>489.59999999999997</ele><time>2026-05-02T13:52:34Z</time></trkpt><trkpt lat="44.61969776503942" lon="9.325532483680693"><ele>488.79999999999995</ele><time>2026-05-02T13:52:35Z</time></trkpt><trkpt lat="44.61978175263281" lon="9.325643421153291"><ele>488.0</ele><time>2026-05-02T13:52:36Z</time></trkpt><trkpt lat="44.61986600058232" lon="9.325751735643978"><ele>488.0</ele><time>2026-05-02T13:52:37Z</time></trkpt><trkpt lat="44.61994993907859" lon="9.32584881736023"><ele>487.99999999999994</ele><time>2026-05-02T13:52:38Z</time></trkpt><trkpt lat="44.620023864985406" lon="9.325946007526204"><ele>487.99999999999994</ele><time>2026-05-02T13:52:39Z</time></trkpt><trkpt lat="44.62008720811241" lon="9.32603718100947"><ele>488.0</ele><time>2026-05-02T13:52:40Z</time></trkpt><trkpt lat="44.620149005064704" lon="9.32612665076361"><ele>488.0</ele><time>2026-05-02T13:52:41Z</time></trkpt><trkpt lat="44.620203760829725" lon="9.32620509230453"><ele>488.0</ele><time>2026-05-02T13:52:42Z</time></trkpt><trkpt lat="44.620256248758665" lon="9.326271547741294"><ele>487.99999999999994</ele><time>2026-05-02T13:52:43Z</time></trkpt><trkpt lat="44.62032840413482" lon="9.326378449926574"><ele>487.99999999999994</ele><time>2026-05-02T13:52:45Z</time></trkpt><trkpt lat="44.620272536877515" lon="9.326316424387981"><ele>488.0</ele><time>2026-05-02T13:54:07Z</time></trkpt><trkpt lat="44.62018245376586" lon="9.326183158414398"><ele>488.0</ele><time>2026-05-02T13:54:09Z</time></trkpt><trkpt lat="44.62013923202667" lon="9.326076359926498"><ele>488.0</ele><time>2026-05-02T13:54:10Z</time></trkpt><trkpt lat="44.62008756495466" lon="9.325992662610082"><ele>487.99999999999994</ele><time>2026-05-02T13:54:11Z</time></trkpt><trkpt lat="44.62002679094005" lon="9.32590097159683"><ele>487.99999999999994</ele><time>2026-05-02T13:54:12Z</time></trkpt><trkpt lat="44.61995449739644" lon="9.325801156678805"><ele>488.0</ele><time>2026-05-02T13:54:13Z</time></trkpt><trkpt lat="44.61987258290472" lon="9.325690231817255"><ele>488.0</ele><time>2026-05-02T13:54:14Z</time></trkpt><trkpt lat="44.619785754151266" lon="9.325569925563904"><ele>488.0</ele><time>2026-05-02T13:54:15Z</time></trkpt><trkpt lat="44.619701746240274" lon="9.325452796478997"><ele>487.99999999999994</ele><time>2026-05-02T13:54:16Z</time></trkpt><trkpt lat="44.61962282446553" lon="9.325345296356483"><ele>487.99999999999994</ele><time>2026-05-02T13:54:17Z</time></trkpt><trkpt lat="44.61954579097056" lon="9.325240037532323"><ele>488.0</ele><time>2026-05-02T13:54:18Z</time></trkpt><trkpt lat="44.61947074273647" lon="9.325135608477908"><ele>488.0</ele><time>2026-05-02T13:54:19Z</time></trkpt><trkpt lat="44.61939683290956" lon="9.32503312590402"><ele>488.66666666666663</ele><time>2026-05-02T13:54:20Z</time></trkpt><trkpt lat="44.61932375717628" lon="9.32493577888373"><ele>489.3333333333333</ele><time>2026-05-02T13:54:21Z</time></trkpt><trkpt lat="44.619257354634996" lon="9.324849262213593"><ele>490.0</ele><time>2026-05-02T13:54:22Z</time></trkpt><trkpt lat="44.61919764041575" lon="9.324772431996994"><ele>490.66666666666663</ele><time>2026-05-02T13:54:23Z</time></trkpt><trkpt lat="44.61914318042163" lon="9.324704153565149"><ele>491.3333333333333</ele><time>2026-05-02T13:54:24Z</time></trkpt><trkpt lat="44.61909045139368" lon="9.324644066976607"><ele>492.0</ele><time>2026-05-02T13:54:25Z</time></trkpt><trkpt lat="44.61901363932204" lon="9.324542807166223"><ele>494.40000000000003</ele><time>2026-05-02T13:54:27Z</time></trkpt><trkpt lat="44.61895996799953" lon="9.324455141089373"><ele>496.80000000000007</ele><time>2026-05-02T13:54:29Z</time></trkpt><trkpt lat="44.61892844202031" lon="9.324347708635738"><ele>499.2</ele><time>2026-05-02T13:54:32Z</time></trkpt><trkpt lat="44.618856516315205" lon="9.324289849691757"><ele>501.6</ele><time>2026-05-02T13:54:42Z</time></trkpt><trkpt lat="44.61876996252019" lon="9.324204639750562"><ele>504.0</ele><time>2026-05-02T13:54:44Z</time></trkpt><trkpt lat="44.618686967500324" lon="9.324073366752094"><ele>503.1666666666667</ele><time>2026-05-02T13:54:46Z</time></trkpt><trkpt lat="44.61863947206089" lon="9.324005091365036"><ele>502.33333333333337</ele><time>2026-05-02T13:54:47Z</time></trkpt><trkpt lat="44.61858590822557" lon="9.323939905876113"><ele>501.5</ele><time>2026-05-02T13:54:48Z</time></trkpt><trkpt lat="44.618532189046704" lon="9.32387379608345"><ele>500.6666666666667</ele><time>2026-05-02T13:54:49Z</time></trkpt><trkpt lat="44.61845334918447" lon="9.323773994426128"><ele>499.83333333333337</ele><time>2026-05-02T13:54:51Z</time></trkpt><trkpt lat="44.61837465630052" lon="9.32366209948589"><ele>499.0</ele><time>2026-05-02T13:54:53Z</time></trkpt><trkpt lat="44.61832413177426" lon="9.323594389411605"><ele>499.00000000000006</ele><time>2026-05-02T13:54:53.999Z</time></trkpt><trkpt lat="44.618272149329144" lon="9.32352700881048"><ele>499.0</ele><time>2026-05-02T13:54:54.999Z</time></trkpt><trkpt lat="44.61822504670503" lon="9.323465566332422"><ele>499.00000000000006</ele><time>2026-05-02T13:54:55.999Z</time></trkpt><trkpt lat="44.61817705627615" lon="9.32339868645044"><ele>499.00000000000006</ele><time>2026-05-02T13:54:56.999Z</time></trkpt><trkpt lat="44.618127309679934" lon="9.323329622737871"><ele>499.0</ele><time>2026-05-02T13:54:57.999Z</time></trkpt><trkpt lat="44.61807552421099" lon="9.323259162310304"><ele>499.00000000000006</ele><time>2026-05-02T13:54:58.999Z</time></trkpt><trkpt lat="44.61802404146144" lon="9.323189387328116"><ele>499.00000000000006</ele><time>2026-05-02T13:54:59.999Z</time></trkpt><trkpt lat="44.61797461999345" lon="9.323126669779398"><ele>499.00000000000006</ele><time>2026-05-02T13:55:00.999Z</time></trkpt><trkpt lat="44.61792650242109" lon="9.32306540152262"><ele>499.0</ele><time>2026-05-02T13:55:01.999Z</time></trkpt><trkpt lat="44.61787841532255" lon="9.323001352423413"><ele>499.00000000000006</ele><time>2026-05-02T13:55:02.999Z</time></trkpt><trkpt lat="44.61782951823034" lon="9.322936219275446"><ele>499.00000000000006</ele><time>2026-05-02T13:55:03.999Z</time></trkpt><trkpt lat="44.61778110909712" lon="9.322866713670836"><ele>499.0</ele><time>2026-05-02T13:55:04.999Z</time></trkpt><trkpt lat="44.61772941452866" lon="9.322795433321337"><ele>499.00000000000006</ele><time>2026-05-02T13:55:05.999Z</time></trkpt><trkpt lat="44.617676633873046" lon="9.322721730315738"><ele>499.00000000000006</ele><time>2026-05-02T13:55:06.999Z</time></trkpt><trkpt lat="44.61761943489249" lon="9.322644898619057"><ele>497.50000000000006</ele><time>2026-05-02T13:55:07.999Z</time></trkpt><trkpt lat="44.617559436776446" lon="9.322564212170212"><ele>496.0</ele><time>2026-05-02T13:55:08.999Z</time></trkpt><trkpt lat="44.61749907300632" lon="9.322483031636182"><ele>494.5</ele><time>2026-05-02T13:55:09.999Z</time></trkpt><trkpt lat="44.61744005014711" lon="9.322407262417611"><ele>493.0</ele><time>2026-05-02T13:55:10.999Z</time></trkpt><trkpt lat="44.61738492037938" lon="9.32233610002613"><ele>491.50000000000006</ele><time>2026-05-02T13:55:11.999Z</time></trkpt><trkpt lat="44.61733006220854" lon="9.322268788216665"><ele>490.0</ele><time>2026-05-02T13:55:12.999Z</time></trkpt><trkpt lat="44.617274907207076" lon="9.322201329616972"><ele>490.00000000000006</ele><time>2026-05-02T13:55:13.999Z</time></trkpt><trkpt lat="44.61721706009564" lon="9.322132468175136"><ele>490.0</ele><time>2026-05-02T13:55:14.999Z</time></trkpt><trkpt lat="44.61715405903993" lon="9.322068093060393"><ele>490.0</ele><time>2026-05-02T13:55:15.999Z</time></trkpt><trkpt lat="44.61708896582753" lon="9.322018192315378"><ele>490.0</ele><time>2026-05-02T13:55:16.999Z</time></trkpt><trkpt lat="44.61702696808399" lon="9.32198057015499"><ele>490.00000000000006</ele><time>2026-05-02T13:55:17.999Z</time></trkpt><trkpt lat="44.616922612526544" lon="9.321923027575751"><ele>490.0</ele><time>2026-05-02T13:55:19.999Z</time></trkpt><trkpt lat="44.61684280449" lon="9.321890591140356"><ele>490.0</ele><time>2026-05-02T13:55:21.999Z</time></trkpt><trkpt lat="44.616891994801854" lon="9.321832121010333"><ele>490.0</ele><time>2026-05-02T13:55:37.999Z</time></trkpt><trkpt lat="44.61696318784754" lon="9.321847009024939"><ele>490.0</ele><time>2026-05-02T13:55:47.999Z</time></trkpt><trkpt lat="44.61704592987143" lon="9.321875826816362"><ele>490.0</ele><time>2026-05-02T13:55:50.999Z</time></trkpt><trkpt lat="44.617102351937184" lon="9.321917926374987"><ele>490.0</ele><time>2026-05-02T13:55:53Z</time></trkpt><trkpt lat="44.617169918358485" lon="9.321974510377371"><ele>490.0</ele><time>2026-05-02T13:55:56Z</time></trkpt><trkpt lat="44.61723596057297" lon="9.322036800699104"><ele>490.0</ele><time>2026-05-02T13:56:00Z</time></trkpt><trkpt lat="44.617289774778165" lon="9.322093244865265"><ele>490.0</ele><time>2026-05-02T13:56:04Z</time></trkpt><trkpt lat="44.617547133362855" lon="9.321943103685458"><ele>490.0</ele><time>2026-05-02T14:00:10Z</time></trkpt><trkpt lat="44.61761671810342" lon="9.321956616365975"><ele>490.0</ele><time>2026-05-02T14:00:16Z</time></trkpt><trkpt lat="44.61768306728647" lon="9.321940244503894"><ele>490.0</ele><time>2026-05-02T14:00:21Z</time></trkpt><trkpt lat="44.61774929171214" lon="9.321942262656721"><ele>490.0</ele><time>2026-05-02T14:00:27Z</time></trkpt><trkpt lat="44.61781459338985" lon="9.321950224835494"><ele>490.0</ele><time>2026-05-02T14:00:34Z</time></trkpt><trkpt lat="44.617882515314335" lon="9.321962933069807"><ele>490.0</ele><time>2026-05-02T14:00:51Z</time></trkpt><trkpt lat="44.61793989077786" lon="9.322002311847154"><ele>490.0</ele><time>2026-05-02T14:00:57Z</time></trkpt><trkpt lat="44.617940069133" lon="9.322093895536154"><ele>490.0</ele><time>2026-05-02T14:01:04Z</time></trkpt><trkpt lat="44.61792689464056" lon="9.32218730247004"><ele>490.0</ele><time>2026-05-02T14:01:12Z</time></trkpt><trkpt lat="44.617930607374475" lon="9.32228653109974"><ele>490.0</ele><time>2026-05-02T14:01:20Z</time></trkpt><trkpt lat="44.61790660996583" lon="9.322372737016147"><ele>490.0</ele><time>2026-05-02T14:01:59.999Z</time></trkpt><trkpt lat="44.61792966048683" lon="9.322260563445454"><ele>490.0</ele><time>2026-05-02T14:15:27Z</time></trkpt><trkpt lat="44.617935904755505" lon="9.322165686260224"><ele>490.0</ele><time>2026-05-02T14:15:35Z</time></trkpt><trkpt lat="44.61794855790814" lon="9.322073985948531"><ele>490.0</ele><time>2026-05-02T14:15:44Z</time></trkpt><trkpt lat="44.6179111489546" lon="9.322001833016902"><ele>490.0</ele><time>2026-05-02T14:15:50Z</time></trkpt><trkpt lat="44.61784645523525" lon="9.321962204578048"><ele>490.0</ele><time>2026-05-02T14:16:04Z</time></trkpt><trkpt lat="44.617783697365354" lon="9.321907399031295"><ele>490.0</ele><time>2026-05-02T14:16:11Z</time></trkpt><trkpt lat="44.617720005030954" lon="9.321939867975464"><ele>490.0</ele><time>2026-05-02T14:16:21Z</time></trkpt><trkpt lat="44.6176500640169" lon="9.321920128843384"><ele>490.0</ele><time>2026-05-02T14:16:29Z</time></trkpt><trkpt lat="44.617583772991" lon="9.32189361444316"><ele>490.0</ele><time>2026-05-02T14:16:39Z</time></trkpt><trkpt lat="44.61751916708551" lon="9.321863055450658"><ele>490.0</ele><time>2026-05-02T14:16:44Z</time></trkpt><trkpt lat="44.61748329064587" lon="9.321785992244973"><ele>490.0</ele><time>2026-05-02T14:16:53Z</time></trkpt><trkpt lat="44.61743306501817" lon="9.321723391316759"><ele>490.0</ele><time>2026-05-02T14:17:16Z</time></trkpt><trkpt lat="44.61738457830957" lon="9.321646746310838"><ele>490.0</ele><time>2026-05-02T14:17:46Z</time></trkpt><trkpt lat="44.617393695489774" lon="9.321742299667028"><ele>490.0</ele><time>2026-05-02T14:18:28Z</time></trkpt><trkpt lat="44.61738806646988" lon="9.321841070812814"><ele>490.0</ele><time>2026-05-02T14:20:19Z</time></trkpt><trkpt lat="44.617406960534595" lon="9.321930620172779"><ele>490.0</ele><time>2026-05-02T14:20:23Z</time></trkpt><trkpt lat="44.61733229632614" lon="9.322005922797338"><ele>490.0</ele><time>2026-05-02T14:21:31Z</time></trkpt><trkpt lat="44.61723081715114" lon="9.321962566481046"><ele>490.0</ele><time>2026-05-02T14:21:33Z</time></trkpt><trkpt lat="44.617091746401265" lon="9.321893647528622"><ele>490.00000000000006</ele><time>2026-05-02T14:21:35Z</time></trkpt><trkpt lat="44.61702938544895" lon="9.321862668960055"><ele>490.0</ele><time>2026-05-02T14:21:36Z</time></trkpt><trkpt lat="44.61696630068333" lon="9.3218460463895"><ele>490.0</ele><time>2026-05-02T14:21:39Z</time></trkpt><trkpt lat="44.61688596648973" lon="9.321827328211398"><ele>490.0</ele><time>2026-05-02T14:21:41Z</time></trkpt><trkpt lat="44.616818217082745" lon="9.321823067933625"><ele>490.00000000000006</ele><time>2026-05-02T14:22:03Z</time></trkpt><trkpt lat="44.61676070682216" lon="9.321895945354875"><ele>490.0</ele><time>2026-05-02T14:22:11.999Z</time></trkpt><trkpt lat="44.61684947803197" lon="9.321954328340237"><ele>490.0</ele><time>2026-05-02T14:22:14.999Z</time></trkpt><trkpt lat="44.61691837448393" lon="9.321982713413368"><ele>490.0</ele><time>2026-05-02T14:22:15.999Z</time></trkpt><trkpt lat="44.617003253809855" lon="9.322027420648554"><ele>490.0</ele><time>2026-05-02T14:22:16.999Z</time></trkpt><trkpt lat="44.61710011581545" lon="9.322090193269906"><ele>490.0</ele><time>2026-05-02T14:22:17.999Z</time></trkpt><trkpt lat="44.617191095537585" lon="9.322171535946463"><ele>490.0</ele><time>2026-05-02T14:22:18.999Z</time></trkpt><trkpt lat="44.61729226490231" lon="9.322283544982476"><ele>490.0</ele><time>2026-05-02T14:22:19.999Z</time></trkpt><trkpt lat="44.617387483670875" lon="9.322409197101367"><ele>490.0</ele><time>2026-05-02T14:22:20.999Z</time></trkpt><trkpt lat="44.61748419510274" lon="9.322539228938448"><ele>490.0</ele><time>2026-05-02T14:22:21.999Z</time></trkpt><trkpt lat="44.61758459951711" lon="9.322677863462832"><ele>490.0</ele><time>2026-05-02T14:22:22.999Z</time></trkpt><trkpt lat="44.617690603806864" lon="9.322825591617557"><ele>490.0</ele><time>2026-05-02T14:22:23.999Z</time></trkpt><trkpt lat="44.61779679241237" lon="9.322969498469028"><ele>490.0</ele><time>2026-05-02T14:22:24.999Z</time></trkpt><trkpt lat="44.61789970735894" lon="9.323095882667289"><ele>490.0</ele><time>2026-05-02T14:22:25.999Z</time></trkpt><trkpt lat="44.61799483749645" lon="9.323216044019617"><ele>490.0</ele><time>2026-05-02T14:22:26.999Z</time></trkpt><trkpt lat="44.618081902784" lon="9.323328072754864"><ele>492.25</ele><time>2026-05-02T14:22:27.999Z</time></trkpt><trkpt lat="44.61817831578455" lon="9.323451940278733"><ele>494.5</ele><time>2026-05-02T14:22:28.999Z</time></trkpt><trkpt lat="44.61827093394322" lon="9.323579533537313"><ele>496.75</ele><time>2026-05-02T14:22:29.999Z</time></trkpt><trkpt lat="44.618365704832634" lon="9.323706528383232"><ele>499.0</ele><time>2026-05-02T14:22:30.999Z</time></trkpt><trkpt lat="44.61845968508667" lon="9.323836669118542"><ele>500.25</ele><time>2026-05-02T14:22:31.999Z</time></trkpt><trkpt lat="44.6185510814666" lon="9.323966100655321"><ele>501.5</ele><time>2026-05-02T14:22:32.999Z</time></trkpt><trkpt lat="44.618643849520375" lon="9.32409122699579"><ele>502.75</ele><time>2026-05-02T14:22:33.999Z</time></trkpt><trkpt lat="44.61873503590825" lon="9.324214501737675"><ele>504.0</ele><time>2026-05-02T14:22:34.999Z</time></trkpt><trkpt lat="44.61882248471348" lon="9.324333750687654"><ele>504.0</ele><time>2026-05-02T14:22:35.999Z</time></trkpt><trkpt lat="44.61890963617855" lon="9.324449244234035"><ele>504.0</ele><time>2026-05-02T14:22:36.999Z</time></trkpt><trkpt lat="44.618998041334024" lon="9.324563264674527"><ele>504.0</ele><time>2026-05-02T14:22:37.999Z</time></trkpt><trkpt lat="44.61908300196906" lon="9.324678303785717"><ele>504.0</ele><time>2026-05-02T14:22:38.999Z</time></trkpt><trkpt lat="44.61916863910353" lon="9.3247968058417"><ele>501.0</ele><time>2026-05-02T14:22:39.999Z</time></trkpt><trkpt lat="44.619259892107586" lon="9.324918265494313"><ele>498.0</ele><time>2026-05-02T14:22:40.999Z</time></trkpt><trkpt lat="44.61935654810956" lon="9.325044530396955"><ele>495.0</ele><time>2026-05-02T14:22:41.999Z</time></trkpt><trkpt lat="44.61945214335161" lon="9.325177969172465"><ele>492.0</ele><time>2026-05-02T14:22:42.999Z</time></trkpt><trkpt lat="44.6195445952366" lon="9.325304604997665"><ele>491.0</ele><time>2026-05-02T14:22:43.999Z</time></trkpt><trkpt lat="44.61963859484251" lon="9.325429383614496"><ele>490.0</ele><time>2026-05-02T14:22:44.999Z</time></trkpt><trkpt lat="44.61972955723378" lon="9.325553489245415"><ele>489.0</ele><time>2026-05-02T14:22:45.999Z</time></trkpt><trkpt lat="44.61982096911419" lon="9.325676829122319"><ele>488.0</ele><time>2026-05-02T14:22:46.999Z</time></trkpt><trkpt lat="44.61991412257097" lon="9.325799892984397"><ele>488.0</ele><time>2026-05-02T14:22:47.999Z</time></trkpt><trkpt lat="44.62000656743889" lon="9.32592429126903"><ele>488.0</ele><time>2026-05-02T14:22:48.999Z</time></trkpt><trkpt lat="44.62009887333308" lon="9.326051013265342"><ele>488.0</ele><time>2026-05-02T14:22:49.999Z</time></trkpt><trkpt lat="44.62019096125058" lon="9.326177243242947"><ele>488.0</ele><time>2026-05-02T14:22:50.999Z</time></trkpt><trkpt lat="44.62027824386459" lon="9.326305886946113"><ele>487.0</ele><time>2026-05-02T14:22:51.999Z</time></trkpt><trkpt lat="44.62036140030649" lon="9.326442257768951"><ele>486.0</ele><time>2026-05-02T14:22:52.999Z</time></trkpt><trkpt lat="44.620443981079916" lon="9.326582282666852"><ele>485.0</ele><time>2026-05-02T14:22:53.999Z</time></trkpt><trkpt lat="44.62052227202673" lon="9.32672704831122"><ele>484.0</ele><time>2026-05-02T14:22:54.999Z</time></trkpt><trkpt lat="44.6205961782326" lon="9.326875745281779"><ele>484.0</ele><time>2026-05-02T14:22:55.999Z</time></trkpt><trkpt lat="44.62066565730457" lon="9.327029251640441"><ele>484.0</ele><time>2026-05-02T14:22:56.999Z</time></trkpt><trkpt lat="44.62073778494999" lon="9.32718365089259"><ele>484.0</ele><time>2026-05-02T14:22:57.999Z</time></trkpt><trkpt lat="44.620805294112245" lon="9.327335887532382"><ele>484.0</ele><time>2026-05-02T14:22:58.999Z</time></trkpt><trkpt lat="44.62086755937936" lon="9.327492595851357"><ele>483.75</ele><time>2026-05-02T14:22:59.999Z</time></trkpt><trkpt lat="44.62093289168843" lon="9.327645887806401"><ele>483.5</ele><time>2026-05-02T14:23:00.999Z</time></trkpt><trkpt lat="44.62099782137006" lon="9.327800292299797"><ele>483.25</ele><time>2026-05-02T14:23:01.999Z</time></trkpt><trkpt lat="44.6210634035669" lon="9.327957418587559"><ele>483.0</ele><time>2026-05-02T14:23:02.999Z</time></trkpt><trkpt lat="44.62112829178445" lon="9.328112678822343"><ele>484.75</ele><time>2026-05-02T14:23:03.999Z</time></trkpt><trkpt lat="44.62119293158148" lon="9.328269603497183"><ele>486.5</ele><time>2026-05-02T14:23:04.999Z</time></trkpt><trkpt lat="44.62125788688008" lon="9.328425599430288"><ele>488.25</ele><time>2026-05-02T14:23:05.999Z</time></trkpt><trkpt lat="44.62132094274798" lon="9.328582575337137"><ele>490.0</ele><time>2026-05-02T14:23:07Z</time></trkpt><trkpt lat="44.621382293219504" lon="9.328739823386364"><ele>489.0</ele><time>2026-05-02T14:23:08Z</time></trkpt><trkpt lat="44.62144457729678" lon="9.328895748018489"><ele>488.0</ele><time>2026-05-02T14:23:09Z</time></trkpt><trkpt lat="44.621513715036656" lon="9.329046058885204"><ele>487.0</ele><time>2026-05-02T14:23:10Z</time></trkpt><trkpt lat="44.62158812331625" lon="9.329197574836423"><ele>486.0</ele><time>2026-05-02T14:23:11Z</time></trkpt><trkpt lat="44.62166248700797" lon="9.329343674931167"><ele>486.0</ele><time>2026-05-02T14:23:12Z</time></trkpt><trkpt lat="44.621743587757095" lon="9.329484662302114"><ele>486.0</ele><time>2026-05-02T14:23:13Z</time></trkpt><trkpt lat="44.62182882737947" lon="9.329618776136366"><ele>486.0</ele><time>2026-05-02T14:23:14Z</time></trkpt><trkpt lat="44.62191614495522" lon="9.329750473959407"><ele>486.0</ele><time>2026-05-02T14:23:15Z</time></trkpt><trkpt lat="44.622004910114796" lon="9.329882094409239"><ele>485.25</ele><time>2026-05-02T14:23:16Z</time></trkpt><trkpt lat="44.6220959569519" lon="9.33000870553527"><ele>484.5</ele><time>2026-05-02T14:23:17Z</time></trkpt><trkpt lat="44.622190968226235" lon="9.330128127718995"><ele>483.75</ele><time>2026-05-02T14:23:18Z</time></trkpt><trkpt lat="44.622287993694336" lon="9.330243404090599"><ele>483.0</ele><time>2026-05-02T14:23:19Z</time></trkpt><trkpt lat="44.62238913182761" lon="9.330355236797372"><ele>483.0</ele><time>2026-05-02T14:23:20Z</time></trkpt><trkpt lat="44.62249537346017" lon="9.330456010936782"><ele>483.0</ele><time>2026-05-02T14:23:21Z</time></trkpt><trkpt lat="44.62260510333787" lon="9.330550856550815"><ele>483.0</ele><time>2026-05-02T14:23:22Z</time></trkpt><trkpt lat="44.62271521812841" lon="9.330646852479585"><ele>483.0</ele><time>2026-05-02T14:23:23Z</time></trkpt><trkpt lat="44.6228275445591" lon="9.330740816492703"><ele>481.75</ele><time>2026-05-02T14:23:24Z</time></trkpt><trkpt lat="44.622941977281926" lon="9.330823893478643"><ele>480.5</ele><time>2026-05-02T14:23:25Z</time></trkpt><trkpt lat="44.623069330618115" lon="9.330912950096405"><ele>479.25</ele><time>2026-05-02T14:23:26Z</time></trkpt><trkpt lat="44.623221242329905" lon="9.33099296743068"><ele>478.0</ele><time>2026-05-02T14:23:27Z</time></trkpt><trkpt lat="44.623382058614105" lon="9.331081735407516"><ele>478.0</ele><time>2026-05-02T14:23:28Z</time></trkpt><trkpt lat="44.62354546256604" lon="9.331184610607185"><ele>478.0</ele><time>2026-05-02T14:23:29Z</time></trkpt><trkpt lat="44.62371119139686" lon="9.331278052056922"><ele>478.0</ele><time>2026-05-02T14:23:30Z</time></trkpt><trkpt lat="44.623876072962844" lon="9.331370630487081"><ele>479.33333333333337</ele><time>2026-05-02T14:23:31Z</time></trkpt><trkpt lat="44.624042119158354" lon="9.331468486416387"><ele>480.66666666666663</ele><time>2026-05-02T14:23:32Z</time></trkpt><trkpt lat="44.62422592589553" lon="9.331561891061801"><ele>482.0</ele><time>2026-05-02T14:23:33Z</time></trkpt><trkpt lat="44.62442163327275" lon="9.33166057903231"><ele>481.3333333333333</ele><time>2026-05-02T14:23:34Z</time></trkpt><trkpt lat="44.6246099854078" lon="9.3317744734662"><ele>480.66666666666663</ele><time>2026-05-02T14:23:35Z</time></trkpt><trkpt lat="44.624799549368014" lon="9.331887125872043"><ele>480.0</ele><time>2026-05-02T14:23:36Z</time></trkpt><trkpt lat="44.62499223577651" lon="9.331995832034858"><ele>480.0</ele><time>2026-05-02T14:23:37Z</time></trkpt><trkpt lat="44.625187060774124" lon="9.332105000704292"><ele>480.0</ele><time>2026-05-02T14:23:38Z</time></trkpt><trkpt lat="44.62538259422908" lon="9.332217082528391"><ele>480.0</ele><time>2026-05-02T14:23:39Z</time></trkpt><trkpt lat="44.625575586430834" lon="9.332319029771398"><ele>478.0</ele><time>2026-05-02T14:23:40Z</time></trkpt><trkpt lat="44.62575551476353" lon="9.332418579980189"><ele>476.0</ele><time>2026-05-02T14:23:41Z</time></trkpt><trkpt lat="44.62593509081044" lon="9.332513900556695"><ele>474.0</ele><time>2026-05-02T14:23:42Z</time></trkpt><trkpt lat="44.6261353382498" lon="9.332603629336084"><ele>476.5</ele><time>2026-05-02T14:23:43Z</time></trkpt><trkpt lat="44.626350207916" lon="9.332688362158294"><ele>479.0</ele><time>2026-05-02T14:23:44Z</time></trkpt><trkpt lat="44.626575436752255" lon="9.332764663545428"><ele>479.0</ele><time>2026-05-02T14:23:45Z</time></trkpt><trkpt lat="44.62680571766854" lon="9.332832292971679"><ele>479.0</ele><time>2026-05-02T14:23:46Z</time></trkpt><trkpt lat="44.62704052774461" lon="9.332891245547572"><ele>476.0</ele><time>2026-05-02T14:23:47Z</time></trkpt><trkpt lat="44.627282119401414" lon="9.33293825761131"><ele>473.0</ele><time>2026-05-02T14:23:48Z</time></trkpt><trkpt lat="44.62752685445386" lon="9.332967833616117"><ele>473.0</ele><time>2026-05-02T14:23:49Z</time></trkpt><trkpt lat="44.62777581091932" lon="9.332992542734068"><ele>473.0</ele><time>2026-05-02T14:23:50Z</time></trkpt><trkpt lat="44.628024132595804" lon="9.333014013161916"><ele>473.0</ele><time>2026-05-02T14:23:51Z</time></trkpt><trkpt lat="44.62827034317856" lon="9.333033237941176"><ele>473.0</ele><time>2026-05-02T14:23:52Z</time></trkpt><trkpt lat="44.62850235815524" lon="9.333051577521895"><ele>475.3333333333333</ele><time>2026-05-02T14:23:53Z</time></trkpt><trkpt lat="44.628719965916474" lon="9.333072023502814"><ele>477.66666666666663</ele><time>2026-05-02T14:23:54Z</time></trkpt><trkpt lat="44.628929182708255" lon="9.333090876474039"><ele>480.0</ele><time>2026-05-02T14:23:55Z</time></trkpt><trkpt lat="44.62913276553437" lon="9.333098036672036"><ele>480.0</ele><time>2026-05-02T14:23:56Z</time></trkpt><trkpt lat="44.629342317608604" lon="9.333076746428022"><ele>480.0</ele><time>2026-05-02T14:23:57Z</time></trkpt><trkpt lat="44.62955123732637" lon="9.333033679676308"><ele>480.0</ele><time>2026-05-02T14:23:58Z</time></trkpt><trkpt lat="44.62976509780522" lon="9.332966489030479"><ele>481.66666666666663</ele><time>2026-05-02T14:23:59Z</time></trkpt><trkpt lat="44.62997738109607" lon="9.332873163457352"><ele>483.3333333333333</ele><time>2026-05-02T14:24:00Z</time></trkpt><trkpt lat="44.63018969609908" lon="9.332760918873515"><ele>485.0</ele><time>2026-05-02T14:24:00.999Z</time></trkpt><trkpt lat="44.63039897878888" lon="9.332625789522819"><ele>485.0</ele><time>2026-05-02T14:24:01.999Z</time></trkpt><trkpt lat="44.63060618015159" lon="9.332477770227705"><ele>485.0</ele><time>2026-05-02T14:24:02.999Z</time></trkpt><trkpt lat="44.6308154397155" lon="9.332325762540725"><ele>482.5</ele><time>2026-05-02T14:24:03.999Z</time></trkpt><trkpt lat="44.6310264475209" lon="9.332169788691932"><ele>480.0</ele><time>2026-05-02T14:24:04.999Z</time></trkpt><trkpt lat="44.63123854373267" lon="9.332002177704629"><ele>480.0</ele><time>2026-05-02T14:24:05.999Z</time></trkpt><trkpt lat="44.631447541653024" lon="9.331816422150856"><ele>480.0</ele><time>2026-05-02T14:24:06.999Z</time></trkpt><trkpt lat="44.631652005070904" lon="9.33162503039892"><ele>480.0</ele><time>2026-05-02T14:24:07.999Z</time></trkpt><trkpt lat="44.631855864691744" lon="9.331425636690966"><ele>480.0</ele><time>2026-05-02T14:24:08.999Z</time></trkpt><trkpt lat="44.632058554825456" lon="9.331222446972419"><ele>478.0</ele><time>2026-05-02T14:24:09.999Z</time></trkpt><trkpt lat="44.63225915263438" lon="9.331018875856975"><ele>476.0</ele><time>2026-05-02T14:24:10.999Z</time></trkpt><trkpt lat="44.63245990745001" lon="9.330822536159431"><ele>476.0</ele><time>2026-05-02T14:24:11.999Z</time></trkpt><trkpt lat="44.632661279814904" lon="9.330637352347706"><ele>476.0</ele><time>2026-05-02T14:24:12.999Z</time></trkpt><trkpt lat="44.63286160798707" lon="9.330455398194909"><ele>474.0</ele><time>2026-05-02T14:24:13.999Z</time></trkpt><trkpt lat="44.633067568243945" lon="9.330280484907334"><ele>472.0</ele><time>2026-05-02T14:24:14.999Z</time></trkpt><trkpt lat="44.633284654992025" lon="9.330123636819353"><ele>472.0</ele><time>2026-05-02T14:24:15.999Z</time></trkpt><trkpt lat="44.633508364148824" lon="9.329983091067662"><ele>472.0</ele><time>2026-05-02T14:24:16.999Z</time></trkpt><trkpt lat="44.63372869724493" lon="9.329838046056693"><ele>470.5</ele><time>2026-05-02T14:24:17.999Z</time></trkpt><trkpt lat="44.63394706356747" lon="9.32968917396633"><ele>469.0</ele><time>2026-05-02T14:24:18.999Z</time></trkpt><trkpt lat="44.634164723033265" lon="9.329541684743262"><ele>469.0</ele><time>2026-05-02T14:24:19.999Z</time></trkpt><trkpt lat="44.63437741624914" lon="9.329394816291051"><ele>469.0</ele><time>2026-05-02T14:24:20.999Z</time></trkpt><trkpt lat="44.63458429630029" lon="9.329248006609191"><ele>467.6666666666667</ele><time>2026-05-02T14:24:21.999Z</time></trkpt><trkpt lat="44.634775547628955" lon="9.329110283571978"><ele>466.33333333333337</ele><time>2026-05-02T14:24:22.999Z</time></trkpt><trkpt lat="44.63495671494825" lon="9.328983546979504"><ele>465.0</ele><time>2026-05-02T14:24:23.999Z</time></trkpt><trkpt lat="44.635132376224554" lon="9.328866818448407"><ele>465.66666666666663</ele><time>2026-05-02T14:24:24.999Z</time></trkpt><trkpt lat="44.63530567985992" lon="9.328749954603976"><ele>466.3333333333333</ele><time>2026-05-02T14:24:25.999Z</time></trkpt><trkpt lat="44.63548620550912" lon="9.328652329920189"><ele>467.0</ele><time>2026-05-02T14:24:26.999Z</time></trkpt><trkpt lat="44.635675569757545" lon="9.328583864774911"><ele>467.0</ele><time>2026-05-02T14:24:27.999Z</time></trkpt><trkpt lat="44.63586452437754" lon="9.328535888023186"><ele>467.0</ele><time>2026-05-02T14:24:28.999Z</time></trkpt><trkpt lat="44.63606173676045" lon="9.328524215209123"><ele>467.0</ele><time>2026-05-02T14:24:29.999Z</time></trkpt><trkpt lat="44.63626405747018" lon="9.328545471893975"><ele>465.66666666666663</ele><time>2026-05-02T14:24:30.999Z</time></trkpt><trkpt lat="44.636460306320615" lon="9.328591585146564"><ele>464.33333333333337</ele><time>2026-05-02T14:24:31.999Z</time></trkpt><trkpt lat="44.636659035234096" lon="9.328670289030345"><ele>463.0</ele><time>2026-05-02T14:24:32.999Z</time></trkpt><trkpt lat="44.63685699734517" lon="9.328785847597697"><ele>464.6666666666667</ele><time>2026-05-02T14:24:33.999Z</time></trkpt><trkpt lat="44.63705370928596" lon="9.328927160256239"><ele>466.33333333333337</ele><time>2026-05-02T14:24:34.999Z</time></trkpt><trkpt lat="44.63725091383425" lon="9.329072549603232"><ele>468.0</ele><time>2026-05-02T14:24:35.999Z</time></trkpt><trkpt lat="44.637448753021076" lon="9.32921625081656"><ele>468.0</ele><time>2026-05-02T14:24:36.999Z</time></trkpt><trkpt lat="44.63764459571659" lon="9.329362977750282"><ele>468.0</ele><time>2026-05-02T14:24:37.999Z</time></trkpt><trkpt lat="44.637836853109" lon="9.32950425477047"><ele>468.0</ele><time>2026-05-02T14:24:38.999Z</time></trkpt><trkpt lat="44.63802559850922" lon="9.329636427736622"><ele>469.66666666666663</ele><time>2026-05-02T14:24:39.999Z</time></trkpt><trkpt lat="44.63820728558622" lon="9.329761067795483"><ele>471.3333333333333</ele><time>2026-05-02T14:24:40.999Z</time></trkpt><trkpt lat="44.638378665492006" lon="9.329870585553108"><ele>473.0</ele><time>2026-05-02T14:24:41.999Z</time></trkpt><trkpt lat="44.63855648120197" lon="9.3299566410483"><ele>469.0</ele><time>2026-05-02T14:24:42.999Z</time></trkpt><trkpt lat="44.63873896058155" lon="9.330019126699048"><ele>465.0</ele><time>2026-05-02T14:24:43.999Z</time></trkpt><trkpt lat="44.63892630028504" lon="9.330049622649025"><ele>461.0</ele><time>2026-05-02T14:24:44.999Z</time></trkpt><trkpt lat="44.639121208257635" lon="9.330052004943173"><ele>461.0</ele><time>2026-05-02T14:24:45.999Z</time></trkpt><trkpt lat="44.6393227970232" lon="9.330029348765272"><ele>461.0</ele><time>2026-05-02T14:24:46.999Z</time></trkpt><trkpt lat="44.63952974196214" lon="9.329980074140854"><ele>461.0</ele><time>2026-05-02T14:24:47.999Z</time></trkpt><trkpt lat="44.63974477139957" lon="9.329916794254338"><ele>460.3333333333333</ele><time>2026-05-02T14:24:48.999Z</time></trkpt><trkpt lat="44.63996856802716" lon="9.329856717504512"><ele>459.66666666666663</ele><time>2026-05-02T14:24:49.999Z</time></trkpt><trkpt lat="44.640186436105125" lon="9.329807051361012"><ele>459.0</ele><time>2026-05-02T14:24:50.999Z</time></trkpt><trkpt lat="44.640394182832104" lon="9.329754229820065"><ele>462.0</ele><time>2026-05-02T14:24:51.999Z</time></trkpt><trkpt lat="44.640595927762725" lon="9.329701093138128"><ele>465.0</ele><time>2026-05-02T14:24:52.999Z</time></trkpt><trkpt lat="44.640786536796625" lon="9.32965132915871"><ele>468.0</ele><time>2026-05-02T14:24:53.999Z</time></trkpt><trkpt lat="44.64096207003734" lon="9.32960496783677"><ele>468.0</ele><time>2026-05-02T14:24:54.999Z</time></trkpt><trkpt lat="44.64112335937153" lon="9.329562633903365"><ele>468.0</ele><time>2026-05-02T14:24:55.999Z</time></trkpt><trkpt lat="44.6412746830131" lon="9.32952131005705"><ele>468.0</ele><time>2026-05-02T14:24:56.999Z</time></trkpt><trkpt lat="44.6414145749142" lon="9.32948444028058"><ele>467.0</ele><time>2026-05-02T14:24:57.999Z</time></trkpt><trkpt lat="44.641542413329184" lon="9.329451005467007"><ele>466.0</ele><time>2026-05-02T14:24:58.999Z</time></trkpt><trkpt lat="44.64167072159913" lon="9.329417758708106"><ele>465.0</ele><time>2026-05-02T14:24:59.999Z</time></trkpt><trkpt lat="44.641832340631474" lon="9.329376868326586"><ele>464.0</ele><time>2026-05-02T14:25:00.999Z</time></trkpt><trkpt lat="44.642005351978874" lon="9.32932979215814"><ele>463.0</ele><time>2026-05-02T14:25:01.999Z</time></trkpt><trkpt lat="44.64217072770633" lon="9.32927960525239"><ele>462.0</ele><time>2026-05-02T14:25:02.999Z</time></trkpt><trkpt lat="44.642337179306246" lon="9.329228104963594"><ele>461.0</ele><time>2026-05-02T14:25:03.999Z</time></trkpt><trkpt lat="44.642503083553684" lon="9.329179513218927"><ele>461.0</ele><time>2026-05-02T14:25:04.999Z</time></trkpt><trkpt lat="44.642675512194955" lon="9.329131068670529"><ele>461.0</ele><time>2026-05-02T14:25:05.999Z</time></trkpt><trkpt lat="44.642862947493896" lon="9.329086674269504"><ele>461.0</ele><time>2026-05-02T14:25:06.999Z</time></trkpt><trkpt lat="44.643060858132024" lon="9.329035436691337"><ele>460.3333333333333</ele><time>2026-05-02T14:25:07.999Z</time></trkpt><trkpt lat="44.64326066095989" lon="9.328980435323022"><ele>459.66666666666663</ele><time>2026-05-02T14:25:08.999Z</time></trkpt><trkpt lat="44.64344268210962" lon="9.328929687700445"><ele>459.0</ele><time>2026-05-02T14:25:09.999Z</time></trkpt><trkpt lat="44.64361460507185" lon="9.328888315567935"><ele>462.33333333333337</ele><time>2026-05-02T14:25:10.999Z</time></trkpt><trkpt lat="44.64378112589988" lon="9.32884724976139"><ele>465.6666666666667</ele><time>2026-05-02T14:25:11.999Z</time></trkpt><trkpt lat="44.643953382553875" lon="9.328798736859516"><ele>469.0</ele><time>2026-05-02T14:25:13Z</time></trkpt><trkpt lat="44.644140083424524" lon="9.328744967899636"><ele>469.0</ele><time>2026-05-02T14:25:14Z</time></trkpt><trkpt lat="44.644320673144044" lon="9.328696908860197"><ele>469.0</ele><time>2026-05-02T14:25:15Z</time></trkpt><trkpt lat="44.64449250118442" lon="9.328653433116312"><ele>469.0</ele><time>2026-05-02T14:25:16Z</time></trkpt><trkpt lat="44.64465019222899" lon="9.328613262519793"><ele>468.33333333333337</ele><time>2026-05-02T14:25:17Z</time></trkpt><trkpt lat="44.64479817992904" lon="9.32856801906758"><ele>467.66666666666663</ele><time>2026-05-02T14:25:18Z</time></trkpt><trkpt lat="44.64495071864387" lon="9.328513931518104"><ele>467.0</ele><time>2026-05-02T14:25:19Z</time></trkpt><trkpt lat="44.64509594786273" lon="9.328449129394125"><ele>467.0</ele><time>2026-05-02T14:25:20Z</time></trkpt><trkpt lat="44.64523449265642" lon="9.328371194960756"><ele>467.0</ele><time>2026-05-02T14:25:21Z</time></trkpt><trkpt lat="44.645371375846054" lon="9.328284555032445"><ele>467.0</ele><time>2026-05-02T14:25:22Z</time></trkpt><trkpt lat="44.64550752721889" lon="9.32819555247456"><ele>467.0</ele><time>2026-05-02T14:25:23Z</time></trkpt><trkpt lat="44.64563683347022" lon="9.328101121935317"><ele>467.66666666666663</ele><time>2026-05-02T14:25:24Z</time></trkpt><trkpt lat="44.64576799483235" lon="9.32800640590246"><ele>468.33333333333337</ele><time>2026-05-02T14:25:25Z</time></trkpt><trkpt lat="44.64591157508448" lon="9.327911656825929"><ele>469.0</ele><time>2026-05-02T14:25:26Z</time></trkpt><trkpt lat="44.646060517439494" lon="9.32781490868928"><ele>463.33333333333337</ele><time>2026-05-02T14:25:27Z</time></trkpt><trkpt lat="44.64620283544266" lon="9.327706192377432"><ele>457.66666666666663</ele><time>2026-05-02T14:25:28Z</time></trkpt><trkpt lat="44.646346631248164" lon="9.327595055351932"><ele>452.0</ele><time>2026-05-02T14:25:29Z</time></trkpt><trkpt lat="44.64649024487515" lon="9.327495871683837"><ele>452.0</ele><time>2026-05-02T14:25:30Z</time></trkpt><trkpt lat="44.64662699027248" lon="9.327389107118348"><ele>452.0</ele><time>2026-05-02T14:25:31Z</time></trkpt><trkpt lat="44.6467636665974" lon="9.327266743743229"><ele>452.0</ele><time>2026-05-02T14:25:32Z</time></trkpt><trkpt lat="44.64689277931066" lon="9.327132367645937"><ele>451.25</ele><time>2026-05-02T14:25:33Z</time></trkpt><trkpt lat="44.64700546820199" lon="9.327001761035865"><ele>450.5</ele><time>2026-05-02T14:25:34Z</time></trkpt><trkpt lat="44.647111665757315" lon="9.326870586537792"><ele>449.75</ele><time>2026-05-02T14:25:35Z</time></trkpt><trkpt lat="44.64721356555424" lon="9.326725225027312"><ele>449.0</ele><time>2026-05-02T14:25:36Z</time></trkpt><trkpt lat="44.64731237990193" lon="9.3265597334931"><ele>449.0</ele><time>2026-05-02T14:25:37Z</time></trkpt><trkpt lat="44.64740711845155" lon="9.326378304929586"><ele>449.0</ele><time>2026-05-02T14:25:38Z</time></trkpt><trkpt lat="44.64750009486325" lon="9.326185703758297"><ele>449.0</ele><time>2026-05-02T14:25:39Z</time></trkpt><trkpt lat="44.6475860492548" lon="9.325981596630465"><ele>449.0</ele><time>2026-05-02T14:25:40Z</time></trkpt><trkpt lat="44.64766253872125" lon="9.325769677085443"><ele>449.0</ele><time>2026-05-02T14:25:41Z</time></trkpt><trkpt lat="44.647730428618836" lon="9.32554297526026"><ele>449.0</ele><time>2026-05-02T14:25:42Z</time></trkpt><trkpt lat="44.647795481172565" lon="9.325308926668384"><ele>450.66666666666663</ele><time>2026-05-02T14:25:43Z</time></trkpt><trkpt lat="44.647862154259485" lon="9.325076752874184"><ele>452.33333333333337</ele><time>2026-05-02T14:25:44Z</time></trkpt><trkpt lat="44.64793146440236" lon="9.324843912646779"><ele>454.0</ele><time>2026-05-02T14:25:45Z</time></trkpt><trkpt lat="44.64799757380161" lon="9.32462343679256"><ele>454.0</ele><time>2026-05-02T14:25:46Z</time></trkpt><trkpt lat="44.6480625680244" lon="9.324408373339207"><ele>454.0</ele><time>2026-05-02T14:25:47Z</time></trkpt><trkpt lat="44.64812550345996" lon="9.32419576014001"><ele>454.0</ele><time>2026-05-02T14:25:48Z</time></trkpt><trkpt lat="44.64818766191146" lon="9.323981746733152"><ele>451.0</ele><time>2026-05-02T14:25:49Z</time></trkpt><trkpt lat="44.6482510549808" lon="9.32377022881573"><ele>448.0</ele><time>2026-05-02T14:25:50Z</time></trkpt><trkpt lat="44.648310410274846" lon="9.323573017634251"><ele>445.0</ele><time>2026-05-02T14:25:51Z</time></trkpt><trkpt lat="44.648366193514406" lon="9.323379705635258"><ele>445.0</ele><time>2026-05-02T14:25:52Z</time></trkpt><trkpt lat="44.64842118816421" lon="9.32319192698126"><ele>445.0</ele><time>2026-05-02T14:25:53Z</time></trkpt><trkpt lat="44.64847731016863" lon="9.32301018009745"><ele>445.0</ele><time>2026-05-02T14:25:54Z</time></trkpt><trkpt lat="44.64854131933441" lon="9.322830906254318"><ele>445.0</ele><time>2026-05-02T14:25:55Z</time></trkpt><trkpt lat="44.64860959479697" lon="9.322650283081037"><ele>451.0</ele><time>2026-05-02T14:25:56Z</time></trkpt><trkpt lat="44.64865158382777" lon="9.322438894268904"><ele>457.0</ele><time>2026-05-02T14:25:57Z</time></trkpt><trkpt lat="44.64872148363353" lon="9.322239935786754"><ele>463.0</ele><time>2026-05-02T14:25:58Z</time></trkpt><trkpt lat="44.64880139877946" lon="9.322045793718283"><ele>463.0</ele><time>2026-05-02T14:25:59Z</time></trkpt><trkpt lat="44.648888904692974" lon="9.321850681590828"><ele>463.0</ele><time>2026-05-02T14:26:00Z</time></trkpt><trkpt lat="44.64898273077329" lon="9.32166044601122"><ele>463.0</ele><time>2026-05-02T14:26:01Z</time></trkpt><trkpt lat="44.649073871382456" lon="9.321485753892594"><ele>460.25</ele><time>2026-05-02T14:26:02Z</time></trkpt><trkpt lat="44.64914798445854" lon="9.321334498471055"><ele>457.5</ele><time>2026-05-02T14:26:03Z</time></trkpt><trkpt lat="44.649218530190495" lon="9.321196900268086"><ele>454.75</ele><time>2026-05-02T14:26:04Z</time></trkpt><trkpt lat="44.649293101458866" lon="9.321062487196055"><ele>452.0</ele><time>2026-05-02T14:26:05Z</time></trkpt><trkpt lat="44.64935848763784" lon="9.320936556423437"><ele>452.0</ele><time>2026-05-02T14:26:06Z</time></trkpt><trkpt lat="44.649438465776846" lon="9.320830689250787"><ele>452.0</ele><time>2026-05-02T14:26:07Z</time></trkpt><trkpt lat="44.649576960716566" lon="9.320762207410889"><ele>452.0</ele><time>2026-05-02T14:26:08Z</time></trkpt><trkpt lat="44.6497280950205" lon="9.320645603165689"><ele>452.0</ele><time>2026-05-02T14:26:08.999Z</time></trkpt><trkpt lat="44.64986755307619" lon="9.320561553233068"><ele>451.0</ele><time>2026-05-02T14:26:09.999Z</time></trkpt><trkpt lat="44.64998661158257" lon="9.320489877407127"><ele>450.00000000000006</ele><time>2026-05-02T14:26:10.999Z</time></trkpt><trkpt lat="44.65008692016027" lon="9.320437662741254"><ele>449.00000000000006</ele><time>2026-05-02T14:26:11.999Z</time></trkpt><trkpt lat="44.650170911496964" lon="9.32043625582751"><ele>448.0</ele><time>2026-05-02T14:26:12.999Z</time></trkpt><trkpt lat="44.65025402531022" lon="9.320501704415994"><ele>447.0</ele><time>2026-05-02T14:26:13.999Z</time></trkpt><trkpt lat="44.650304618490495" lon="9.32058678421972"><ele>451.40000000000003</ele><time>2026-05-02T14:26:14.999Z</time></trkpt><trkpt lat="44.65030160444183" lon="9.320705356416992"><ele>455.80000000000007</ele><time>2026-05-02T14:26:15.999Z</time></trkpt><trkpt lat="44.65030625001539" lon="9.32084667228979"><ele>460.2</ele><time>2026-05-02T14:26:16.999Z</time></trkpt><trkpt lat="44.650351245330555" lon="9.32098110170231"><ele>464.6</ele><time>2026-05-02T14:26:17.999Z</time></trkpt><trkpt lat="44.65043919699996" lon="9.321098278212574"><ele>469.0</ele><time>2026-05-02T14:26:18.999Z</time></trkpt><trkpt lat="44.650557719313646" lon="9.321184620346772"><ele>469.0</ele><time>2026-05-02T14:26:19.999Z</time></trkpt><trkpt lat="44.65067559143104" lon="9.321254841073728"><ele>469.0</ele><time>2026-05-02T14:26:20.999Z</time></trkpt><trkpt lat="44.650786763364316" lon="9.321294453055824"><ele>469.0</ele><time>2026-05-02T14:26:21.999Z</time></trkpt><trkpt lat="44.65088484705769" lon="9.321303490781531"><ele>469.0</ele><time>2026-05-02T14:26:22.999Z</time></trkpt><trkpt lat="44.6509672041997" lon="9.32132224422225"><ele>469.0</ele><time>2026-05-02T14:26:23.999Z</time></trkpt><trkpt lat="44.65104325237034" lon="9.321394092458018"><ele>470.2</ele><time>2026-05-02T14:26:24.999Z</time></trkpt><trkpt lat="44.65109876154229" lon="9.321549146401281"><ele>471.4</ele><time>2026-05-02T14:26:25.999Z</time></trkpt><trkpt lat="44.651174631551726" lon="9.321656318625154"><ele>472.6</ele><time>2026-05-02T14:26:26.999Z</time></trkpt><trkpt lat="44.65121355707155" lon="9.321727730227307"><ele>473.8</ele><time>2026-05-02T14:26:27.999Z</time></trkpt><trkpt lat="44.65132331217632" lon="9.321778020384748"><ele>475.0</ele><time>2026-05-02T14:26:29.999Z</time></trkpt><trkpt lat="44.65139486225771" lon="9.321736638661315"><ele>475.75</ele><time>2026-05-02T14:26:30.999Z</time></trkpt><trkpt lat="44.65146397762762" lon="9.321637995746803"><ele>476.5</ele><time>2026-05-02T14:26:31.999Z</time></trkpt><trkpt lat="44.65152983515717" lon="9.32150670021003"><ele>477.25</ele><time>2026-05-02T14:26:32.999Z</time></trkpt><trkpt lat="44.651582050118485" lon="9.321331047301681"><ele>478.0</ele><time>2026-05-02T14:26:33.999Z</time></trkpt><trkpt lat="44.651630932576666" lon="9.321196565501461"><ele>478.00000000000006</ele><time>2026-05-02T14:26:34.999Z</time></trkpt><trkpt lat="44.65165347651489" lon="9.32109080392572"><ele>478.0</ele><time>2026-05-02T14:26:35.999Z</time></trkpt><trkpt lat="44.65164480708861" lon="9.32097429736102"><ele>478.0</ele><time>2026-05-02T14:26:36.999Z</time></trkpt><trkpt lat="44.651599879742534" lon="9.32087132121037"><ele>478.0</ele><time>2026-05-02T14:26:37.999Z</time></trkpt><trkpt lat="44.651523382417864" lon="9.32078295057502"><ele>478.00000000000006</ele><time>2026-05-02T14:26:38.999Z</time></trkpt><trkpt lat="44.65143507189281" lon="9.320720140524477"><ele>478.0</ele><time>2026-05-02T14:26:39.999Z</time></trkpt><trkpt lat="44.651349119952066" lon="9.32067702314784"><ele>478.00000000000006</ele><time>2026-05-02T14:26:40.999Z</time></trkpt><trkpt lat="44.65127714306327" lon="9.320633114122268"><ele>478.0</ele><time>2026-05-02T14:26:41.999Z</time></trkpt><trkpt lat="44.65120714860479" lon="9.320488039955077"><ele>478.0</ele><time>2026-05-02T14:26:43.999Z</time></trkpt><trkpt lat="44.651219619691396" lon="9.320381680026065"><ele>478.0</ele><time>2026-05-02T14:26:44.999Z</time></trkpt><trkpt lat="44.65126933063808" lon="9.320288130662652"><ele>478.00000000000006</ele><time>2026-05-02T14:26:45.999Z</time></trkpt><trkpt lat="44.65133792089938" lon="9.320214458841694"><ele>478.0</ele><time>2026-05-02T14:26:46.999Z</time></trkpt><trkpt lat="44.65140360542695" lon="9.32013153277782"><ele>481.4</ele><time>2026-05-02T14:26:47.999Z</time></trkpt><trkpt lat="44.65142958883849" lon="9.320031080559103"><ele>484.79999999999995</ele><time>2026-05-02T14:26:48.999Z</time></trkpt><trkpt lat="44.65140953255994" lon="9.319911001338122"><ele>488.2</ele><time>2026-05-02T14:26:49.999Z</time></trkpt><trkpt lat="44.65136200352305" lon="9.319796273571681"><ele>491.6</ele><time>2026-05-02T14:26:50.999Z</time></trkpt><trkpt lat="44.65131167922707" lon="9.319664186188165"><ele>495.0</ele><time>2026-05-02T14:26:51.999Z</time></trkpt><trkpt lat="44.651280584078336" lon="9.319519233032082"><ele>498.4</ele><time>2026-05-02T14:26:52.999Z</time></trkpt><trkpt lat="44.65126732205496" lon="9.319355268497036"><ele>501.8</ele><time>2026-05-02T14:26:53.999Z</time></trkpt><trkpt lat="44.65125609555582" lon="9.31919181994588"><ele>505.20000000000005</ele><time>2026-05-02T14:26:54.999Z</time></trkpt><trkpt lat="44.65125175506527" lon="9.319049149219364"><ele>508.6</ele><time>2026-05-02T14:26:55.999Z</time></trkpt><trkpt lat="44.65124155855367" lon="9.318900750641635"><ele>512.0</ele><time>2026-05-02T14:26:56.999Z</time></trkpt><trkpt lat="44.65123472178508" lon="9.318749514259064"><ele>512.0</ele><time>2026-05-02T14:26:57.999Z</time></trkpt><trkpt lat="44.65123320908929" lon="9.318616406979393"><ele>512.0</ele><time>2026-05-02T14:26:58.999Z</time></trkpt><trkpt lat="44.6512284576408" lon="9.318486627957531"><ele>512.0</ele><time>2026-05-02T14:26:59.999Z</time></trkpt><trkpt lat="44.65122786605472" lon="9.318356813271144"><ele>512.0</ele><time>2026-05-02T14:27:00.999Z</time></trkpt><trkpt lat="44.65125333561777" lon="9.31822368391585"><ele>512.0</ele><time>2026-05-02T14:27:01.999Z</time></trkpt><trkpt lat="44.65129497965398" lon="9.31811261965365"><ele>509.0</ele><time>2026-05-02T14:27:02.999Z</time></trkpt><trkpt lat="44.65133846237728" lon="9.318013494648508"><ele>506.00000000000006</ele><time>2026-05-02T14:27:03.999Z</time></trkpt><trkpt lat="44.65137493276516" lon="9.317902516939691"><ele>503.00000000000006</ele><time>2026-05-02T14:27:04.999Z</time></trkpt><trkpt lat="44.65139204835462" lon="9.317774498890813"><ele>500.0</ele><time>2026-05-02T14:27:05.999Z</time></trkpt><trkpt lat="44.65139255309789" lon="9.317629083309388"><ele>497.0</ele><time>2026-05-02T14:27:06.999Z</time></trkpt><trkpt lat="44.65138894062315" lon="9.31749340454051"><ele>497.0</ele><time>2026-05-02T14:27:07.999Z</time></trkpt><trkpt lat="44.65139779624856" lon="9.317366074819937"><ele>497.00000000000006</ele><time>2026-05-02T14:27:08.999Z</time></trkpt><trkpt lat="44.65144840661765" lon="9.317254306596835"><ele>497.00000000000006</ele><time>2026-05-02T14:27:09.999Z</time></trkpt><trkpt lat="44.65153797095892" lon="9.317181264828504"><ele>497.0</ele><time>2026-05-02T14:27:10.999Z</time></trkpt><trkpt lat="44.65164585371771" lon="9.317140443773887"><ele>497.0</ele><time>2026-05-02T14:27:11.999Z</time></trkpt><trkpt lat="44.65174087676735" lon="9.317102159466554"><ele>495.20000000000005</ele><time>2026-05-02T14:27:12.999Z</time></trkpt><trkpt lat="44.651794298011474" lon="9.317013596632549"><ele>493.40000000000003</ele><time>2026-05-02T14:27:13.999Z</time></trkpt><trkpt lat="44.65183413791791" lon="9.316877190597985"><ele>491.59999999999997</ele><time>2026-05-02T14:27:14.999Z</time></trkpt><trkpt lat="44.65187381542613" lon="9.316745410085982"><ele>489.79999999999995</ele><time>2026-05-02T14:27:15.999Z</time></trkpt><trkpt lat="44.65193378873945" lon="9.316644277920782"><ele>488.0</ele><time>2026-05-02T14:27:16.999Z</time></trkpt><trkpt lat="44.65202677618646" lon="9.316569911495003"><ele>489.59999999999997</ele><time>2026-05-02T14:27:17.999Z</time></trkpt><trkpt lat="44.65214695942761" lon="9.316543760221316"><ele>491.19999999999993</ele><time>2026-05-02T14:27:19Z</time></trkpt><trkpt lat="44.652253821521164" lon="9.316522561836372"><ele>492.8</ele><time>2026-05-02T14:27:20Z</time></trkpt><trkpt lat="44.65233928240202" lon="9.316470298912094"><ele>494.4</ele><time>2026-05-02T14:27:21Z</time></trkpt><trkpt lat="44.65241131569328" lon="9.316390022351703"><ele>496.0</ele><time>2026-05-02T14:27:22Z</time></trkpt><trkpt lat="44.652477535740196" lon="9.316255220300562"><ele>496.0</ele><time>2026-05-02T14:27:23Z</time></trkpt><trkpt lat="44.65252979855917" lon="9.316102465478217"><ele>496.0</ele><time>2026-05-02T14:27:24Z</time></trkpt><trkpt lat="44.65259265450513" lon="9.315968787740031"><ele>496.0</ele><time>2026-05-02T14:27:25Z</time></trkpt><trkpt lat="44.6526885938324" lon="9.31588088731778"><ele>496.0</ele><time>2026-05-02T14:27:26Z</time></trkpt><trkpt lat="44.65279962159964" lon="9.31586893428036"><ele>500.0</ele><time>2026-05-02T14:27:27Z</time></trkpt><trkpt lat="44.65292643422312" lon="9.315864679918421"><ele>504.0</ele><time>2026-05-02T14:27:28Z</time></trkpt><trkpt lat="44.65304313987227" lon="9.31587052818639"><ele>508.0</ele><time>2026-05-02T14:27:29Z</time></trkpt><trkpt lat="44.65315766576917" lon="9.315857538784108"><ele>512.0</ele><time>2026-05-02T14:27:30Z</time></trkpt><trkpt lat="44.65326105783515" lon="9.31581037898414"><ele>512.0</ele><time>2026-05-02T14:27:31Z</time></trkpt><trkpt lat="44.6533562715744" lon="9.315722314532906"><ele>512.0</ele><time>2026-05-02T14:27:32Z</time></trkpt><trkpt lat="44.653426912956164" lon="9.315596161950635"><ele>512.0</ele><time>2026-05-02T14:27:33Z</time></trkpt><trkpt lat="44.65347667584822" lon="9.31542920321289"><ele>512.0</ele><time>2026-05-02T14:27:34Z</time></trkpt><trkpt lat="44.65352691746132" lon="9.315263406009434"><ele>513.0</ele><time>2026-05-02T14:27:35Z</time></trkpt><trkpt lat="44.65359542077727" lon="9.315154133630484"><ele>514.0</ele><time>2026-05-02T14:27:36Z</time></trkpt><trkpt lat="44.65369866030549" lon="9.315091923358313"><ele>515.0</ele><time>2026-05-02T14:27:37Z</time></trkpt><trkpt lat="44.65382235444575" lon="9.315095868553566"><ele>516.0</ele><time>2026-05-02T14:27:38Z</time></trkpt><trkpt lat="44.6539356801307" lon="9.315061198497071"><ele>516.0</ele><time>2026-05-02T14:27:39Z</time></trkpt><trkpt lat="44.65402810461249" lon="9.315040517551589"><ele>516.0</ele><time>2026-05-02T14:27:40Z</time></trkpt><trkpt lat="44.654103739739234" lon="9.315014571257207"><ele>516.0</ele><time>2026-05-02T14:27:41Z</time></trkpt><trkpt lat="44.65418731097263" lon="9.314992214482283"><ele>516.0</ele><time>2026-05-02T14:27:42Z</time></trkpt><trkpt lat="44.65427513444578" lon="9.314968961127434"><ele>516.0</ele><time>2026-05-02T14:27:43Z</time></trkpt><trkpt lat="44.65436132829735" lon="9.31491703185513"><ele>516.0</ele><time>2026-05-02T14:27:44Z</time></trkpt><trkpt lat="44.6544312624416" lon="9.314810627942531"><ele>515.5</ele><time>2026-05-02T14:27:45Z</time></trkpt><trkpt lat="44.65447276362804" lon="9.314645658294527"><ele>515.0</ele><time>2026-05-02T14:27:46Z</time></trkpt><trkpt lat="44.65448434783306" lon="9.314481564165526"><ele>514.5</ele><time>2026-05-02T14:27:47Z</time></trkpt><trkpt lat="44.65445049801176" lon="9.31431919008652"><ele>514.0</ele><time>2026-05-02T14:27:48Z</time></trkpt><trkpt lat="44.65438680916605" lon="9.314171936753361"><ele>514.0</ele><time>2026-05-02T14:27:49Z</time></trkpt><trkpt lat="44.65428848607283" lon="9.314036072450344"><ele>514.0</ele><time>2026-05-02T14:27:50Z</time></trkpt><trkpt lat="44.654174991514466" lon="9.313892097355518"><ele>514.0</ele><time>2026-05-02T14:27:51Z</time></trkpt><trkpt lat="44.65407254470767" lon="9.31375326931772"><ele>514.0</ele><time>2026-05-02T14:27:52Z</time></trkpt><trkpt lat="44.65401079842441" lon="9.31362646967614"><ele>515.2</ele><time>2026-05-02T14:27:53Z</time></trkpt><trkpt lat="44.65396474061696" lon="9.313527167761233"><ele>516.4</ele><time>2026-05-02T14:27:54Z</time></trkpt><trkpt lat="44.6539372715858" lon="9.313424566976284"><ele>517.6</ele><time>2026-05-02T14:27:55Z</time></trkpt><trkpt lat="44.65397815726271" lon="9.313307112154948"><ele>518.8</ele><time>2026-05-02T14:27:56Z</time></trkpt><trkpt lat="44.654048972574984" lon="9.313206032795508"><ele>520.0</ele><time>2026-05-02T14:27:57Z</time></trkpt><trkpt lat="44.65415006099725" lon="9.313116607815173"><ele>518.75</ele><time>2026-05-02T14:27:58Z</time></trkpt><trkpt lat="44.65425643433662" lon="9.313009368878866"><ele>517.5</ele><time>2026-05-02T14:27:59Z</time></trkpt><trkpt lat="44.654332469199176" lon="9.312875131958213"><ele>516.25</ele><time>2026-05-02T14:28:00Z</time></trkpt><trkpt lat="44.65438971013355" lon="9.312705281529462"><ele>515.0</ele><time>2026-05-02T14:28:01Z</time></trkpt><trkpt lat="44.65444738808573" lon="9.312534041418159"><ele>513.25</ele><time>2026-05-02T14:28:02Z</time></trkpt><trkpt lat="44.65452874822392" lon="9.31240105980642"><ele>511.5</ele><time>2026-05-02T14:28:03Z</time></trkpt><trkpt lat="44.65462999151026" lon="9.312298337515852"><ele>509.75</ele><time>2026-05-02T14:28:04Z</time></trkpt><trkpt lat="44.65474511986029" lon="9.312227248933507"><ele>508.0</ele><time>2026-05-02T14:28:05Z</time></trkpt><trkpt lat="44.654854571643725" lon="9.312207539605332"><ele>512.5</ele><time>2026-05-02T14:28:06Z</time></trkpt><trkpt lat="44.65494314375024" lon="9.312282824299103"><ele>517.0</ele><time>2026-05-02T14:28:07Z</time></trkpt><trkpt lat="44.65505212366375" lon="9.31236497428263"><ele>521.5</ele><time>2026-05-02T14:28:08Z</time></trkpt><trkpt lat="44.65515653827535" lon="9.312451586454467"><ele>526.0</ele><time>2026-05-02T14:28:09Z</time></trkpt><trkpt lat="44.65526744391738" lon="9.31251579839189"><ele>526.5</ele><time>2026-05-02T14:28:10Z</time></trkpt><trkpt lat="44.65538300002969" lon="9.312561077202622"><ele>527.0</ele><time>2026-05-02T14:28:11Z</time></trkpt><trkpt lat="44.65550220489926" lon="9.312567703105495"><ele>527.5</ele><time>2026-05-02T14:28:12Z</time></trkpt><trkpt lat="44.65563238351314" lon="9.31254413489288"><ele>528.0</ele><time>2026-05-02T14:28:12.999Z</time></trkpt><trkpt lat="44.655755848007715" lon="9.312531956570053"><ele>528.0</ele><time>2026-05-02T14:28:13.999Z</time></trkpt><trkpt lat="44.65587489687461" lon="9.3124742540015"><ele>528.0</ele><time>2026-05-02T14:28:14.999Z</time></trkpt><trkpt lat="44.65599111759079" lon="9.312359416431573"><ele>528.0</ele><time>2026-05-02T14:28:15.999Z</time></trkpt><trkpt lat="44.65608779950622" lon="9.312245165997503"><ele>528.0</ele><time>2026-05-02T14:28:16.999Z</time></trkpt><trkpt lat="44.65618231796159" lon="9.312207278801237"><ele>528.0</ele><time>2026-05-02T14:28:17.999Z</time></trkpt><trkpt lat="44.65626668339997" lon="9.312199098885692"><ele>528.0</ele><time>2026-05-02T14:28:18.999Z</time></trkpt><trkpt lat="44.656356113263755" lon="9.312308956432997"><ele>528.0</ele><time>2026-05-02T14:28:19.999Z</time></trkpt><trkpt lat="44.65644760213235" lon="9.312427078741079"><ele>528.0</ele><time>2026-05-02T14:28:20.999Z</time></trkpt><trkpt lat="44.65652992557217" lon="9.312563281387725"><ele>528.0</ele><time>2026-05-02T14:28:21.999Z</time></trkpt><trkpt lat="44.65661771667174" lon="9.312690928993892"><ele>528.0</ele><time>2026-05-02T14:28:22.999Z</time></trkpt><trkpt lat="44.656704139773424" lon="9.312805707636098"><ele>528.0</ele><time>2026-05-02T14:28:23.999Z</time></trkpt><trkpt lat="44.656777723494415" lon="9.312900004135681"><ele>528.0</ele><time>2026-05-02T14:28:24.999Z</time></trkpt><trkpt lat="44.656844409527174" lon="9.312964619870954"><ele>528.0</ele><time>2026-05-02T14:28:25.999Z</time></trkpt><trkpt lat="44.65691895181272" lon="9.3129956096471"><ele>527.5</ele><time>2026-05-02T14:28:26.999Z</time></trkpt><trkpt lat="44.65699659740005" lon="9.312998927094355"><ele>527.0</ele><time>2026-05-02T14:28:27.999Z</time></trkpt><trkpt lat="44.65706537480297" lon="9.312972499935078"><ele>526.5</ele><time>2026-05-02T14:28:28.999Z</time></trkpt><trkpt lat="44.65712249793132" lon="9.312926841448665"><ele>526.0</ele><time>2026-05-02T14:28:29.999Z</time></trkpt><trkpt lat="44.65718720834219" lon="9.312890090904567"><ele>525.5</ele><time>2026-05-02T14:28:30.999Z</time></trkpt><trkpt lat="44.65724991319489" lon="9.312853943477641"><ele>525.0</ele><time>2026-05-02T14:28:31.999Z</time></trkpt><trkpt lat="44.65734447441024" lon="9.312805102538995"><ele>525.0</ele><time>2026-05-02T14:28:33.999Z</time></trkpt><trkpt lat="44.65741382034421" lon="9.312763300146845"><ele>525.0</ele><time>2026-05-02T14:28:34.999Z</time></trkpt><trkpt lat="44.65751059473705" lon="9.312715528011498"><ele>525.0</ele><time>2026-05-02T14:28:35.999Z</time></trkpt><trkpt lat="44.65763804924987" lon="9.312660358060054"><ele>525.0</ele><time>2026-05-02T14:28:36.999Z</time></trkpt><trkpt lat="44.65778600388884" lon="9.312591606874655"><ele>529.0</ele><time>2026-05-02T14:28:37.999Z</time></trkpt><trkpt lat="44.65793841025973" lon="9.312504045826088"><ele>533.0</ele><time>2026-05-02T14:28:38.999Z</time></trkpt><trkpt lat="44.65810655894081" lon="9.312380286856655"><ele>537.0</ele><time>2026-05-02T14:28:39.999Z</time></trkpt><trkpt lat="44.65828223224606" lon="9.31225711219461"><ele>536.0</ele><time>2026-05-02T14:28:40.999Z</time></trkpt><trkpt lat="44.65846498006779" lon="9.312137178485772"><ele>535.0</ele><time>2026-05-02T14:28:41.999Z</time></trkpt><trkpt lat="44.65865276821027" lon="9.312013854307862"><ele>534.0</ele><time>2026-05-02T14:28:42.999Z</time></trkpt><trkpt lat="44.65883799266559" lon="9.311891189144273"><ele>534.0</ele><time>2026-05-02T14:28:43.999Z</time></trkpt><trkpt lat="44.65902091791093" lon="9.311776412946756"><ele>534.0</ele><time>2026-05-02T14:28:44.999Z</time></trkpt><trkpt lat="44.65919682300748" lon="9.311674860738686"><ele>534.0</ele><time>2026-05-02T14:28:45.999Z</time></trkpt><trkpt lat="44.65936572591681" lon="9.311580132069375"><ele>534.0</ele><time>2026-05-02T14:28:46.999Z</time></trkpt><trkpt lat="44.65951697227883" lon="9.311457794033416"><ele>534.0</ele><time>2026-05-02T14:28:47.999Z</time></trkpt><trkpt lat="44.659646270696264" lon="9.311324958734836"><ele>534.0</ele><time>2026-05-02T14:28:48.999Z</time></trkpt><trkpt lat="44.65976607052888" lon="9.311185785680706"><ele>534.0</ele><time>2026-05-02T14:28:49.999Z</time></trkpt><trkpt lat="44.659890951536994" lon="9.311039134624242"><ele>534.0</ele><time>2026-05-02T14:28:50.999Z</time></trkpt><trkpt lat="44.66002718427912" lon="9.31089758047987"><ele>534.0</ele><time>2026-05-02T14:28:51.999Z</time></trkpt><trkpt lat="44.660166816899974" lon="9.310806002134303"><ele>534.0</ele><time>2026-05-02T14:28:52.999Z</time></trkpt><trkpt lat="44.66029389685963" lon="9.310740242238698"><ele>534.0</ele><time>2026-05-02T14:28:53.999Z</time></trkpt><trkpt lat="44.66039291091031" lon="9.310676231905855"><ele>534.0</ele><time>2026-05-02T14:28:54.999Z</time></trkpt><trkpt lat="44.660465858074865" lon="9.310557903954622"><ele>534.0</ele><time>2026-05-02T14:28:55.999Z</time></trkpt><trkpt lat="44.660522794465365" lon="9.310395200484987"><ele>534.0</ele><time>2026-05-02T14:28:56.999Z</time></trkpt><trkpt lat="44.660562200707226" lon="9.310213327958222"><ele>534.0</ele><time>2026-05-02T14:28:57.999Z</time></trkpt><trkpt lat="44.66060869437751" lon="9.310085043313896"><ele>534.0</ele><time>2026-05-02T14:28:58.999Z</time></trkpt><trkpt lat="44.660686991408895" lon="9.309998188827295"><ele>534.0</ele><time>2026-05-02T14:28:59.999Z</time></trkpt><trkpt lat="44.660787098711296" lon="9.30997144135901"><ele>534.0</ele><time>2026-05-02T14:29:00.999Z</time></trkpt><trkpt lat="44.6608746249274" lon="9.310015668248798"><ele>534.0</ele><time>2026-05-02T14:29:01.999Z</time></trkpt><trkpt lat="44.66094085859463" lon="9.31010360551478"><ele>534.0</ele><time>2026-05-02T14:29:02.999Z</time></trkpt><trkpt lat="44.660990486645304" lon="9.310251634604544"><ele>534.0</ele><time>2026-05-02T14:29:03.999Z</time></trkpt><trkpt lat="44.66104214792952" lon="9.310442415116043"><ele>534.0</ele><time>2026-05-02T14:29:04.999Z</time></trkpt><trkpt lat="44.661084685579375" lon="9.310647683127366"><ele>533.6666666666666</ele><time>2026-05-02T14:29:05.999Z</time></trkpt><trkpt lat="44.66111481216948" lon="9.310868216430753"><ele>533.3333333333333</ele><time>2026-05-02T14:29:06.999Z</time></trkpt><trkpt lat="44.6611390849827" lon="9.311106922645475"><ele>533.0</ele><time>2026-05-02T14:29:07.999Z</time></trkpt><trkpt lat="44.66116711373926" lon="9.311346704611367"><ele>534.3333333333333</ele><time>2026-05-02T14:29:08.999Z</time></trkpt><trkpt lat="44.661220547305" lon="9.311587092100941"><ele>535.6666666666666</ele><time>2026-05-02T14:29:09.999Z</time></trkpt><trkpt lat="44.66129948460095" lon="9.311831786503836"><ele>537.0</ele><time>2026-05-02T14:29:10.999Z</time></trkpt><trkpt lat="44.66139127025208" lon="9.312075928952078"><ele>540.0</ele><time>2026-05-02T14:29:11.999Z</time></trkpt><trkpt lat="44.66146593069137" lon="9.312334986413314"><ele>543.0</ele><time>2026-05-02T14:29:12.999Z</time></trkpt><trkpt lat="44.66156443756987" lon="9.31256628760765"><ele>546.0</ele><time>2026-05-02T14:29:13.999Z</time></trkpt><trkpt lat="44.66163441366848" lon="9.312789817344528"><ele>546.0</ele><time>2026-05-02T14:29:14.999Z</time></trkpt><trkpt lat="44.661703389368625" lon="9.312986385331376"><ele>546.0</ele><time>2026-05-02T14:29:15.999Z</time></trkpt><trkpt lat="44.661763264249934" lon="9.313149499233038"><ele>546.0</ele><time>2026-05-02T14:29:16.999Z</time></trkpt><trkpt lat="44.661808063040404" lon="9.313276048365639"><ele>546.0</ele><time>2026-05-02T14:29:17.999Z</time></trkpt><trkpt lat="44.661855919761756" lon="9.313369942822977"><ele>549.0</ele><time>2026-05-02T14:29:18.999Z</time></trkpt><trkpt lat="44.6619237194375" lon="9.313436448172796"><ele>552.0</ele><time>2026-05-02T14:29:19.999Z</time></trkpt><trkpt lat="44.66201235220009" lon="9.313466379210743"><ele>555.0</ele><time>2026-05-02T14:29:20.999Z</time></trkpt><trkpt lat="44.662116306528574" lon="9.313451400364182"><ele>558.0</ele><time>2026-05-02T14:29:21.999Z</time></trkpt><trkpt lat="44.66222841102792" lon="9.31338585892481"><ele>561.0</ele><time>2026-05-02T14:29:22.999Z</time></trkpt><trkpt lat="44.66234746257536" lon="9.313290091565287"><ele>561.0</ele><time>2026-05-02T14:29:23.999Z</time></trkpt><trkpt lat="44.662446983291076" lon="9.313178850573765"><ele>561.0</ele><time>2026-05-02T14:29:25Z</time></trkpt><trkpt lat="44.662522812290796" lon="9.313035643611432"><ele>561.0</ele><time>2026-05-02T14:29:26Z</time></trkpt><trkpt lat="44.66256225989865" lon="9.3128658997312"><ele>561.0</ele><time>2026-05-02T14:29:27Z</time></trkpt><trkpt lat="44.66259555595479" lon="9.312725031264815"><ele>563.25</ele><time>2026-05-02T14:29:28Z</time></trkpt><trkpt lat="44.66267102071611" lon="9.312601978129228"><ele>565.5</ele><time>2026-05-02T14:29:29Z</time></trkpt><trkpt lat="44.66278104031712" lon="9.312491614120495"><ele>567.75</ele><time>2026-05-02T14:29:30Z</time></trkpt><trkpt lat="44.66291625635099" lon="9.312368862428812"><ele>570.0</ele><time>2026-05-02T14:29:31Z</time></trkpt><trkpt lat="44.66306254145967" lon="9.312235492826964"><ele>560.3333333333334</ele><time>2026-05-02T14:29:32Z</time></trkpt><trkpt lat="44.663221063417616" lon="9.312109322334468"><ele>550.6666666666667</ele><time>2026-05-02T14:29:33Z</time></trkpt><trkpt lat="44.66337438692278" lon="9.312012899537637"><ele>541.0</ele><time>2026-05-02T14:29:34Z</time></trkpt><trkpt lat="44.66350898668858" lon="9.31192559865686"><ele>546.8</ele><time>2026-05-02T14:29:35Z</time></trkpt><trkpt lat="44.663631207027905" lon="9.311832739119655"><ele>552.6</ele><time>2026-05-02T14:29:36Z</time></trkpt><trkpt lat="44.66372328618727" lon="9.311739095892305"><ele>558.4</ele><time>2026-05-02T14:29:37Z</time></trkpt><trkpt lat="44.663796556534336" lon="9.311648969969863"><ele>564.2</ele><time>2026-05-02T14:29:38Z</time></trkpt><trkpt lat="44.66386748540954" lon="9.311560723175216"><ele>570.0</ele><time>2026-05-02T14:29:39Z</time></trkpt><trkpt lat="44.66394273382204" lon="9.31146432332856"><ele>562.75</ele><time>2026-05-02T14:29:40Z</time></trkpt><trkpt lat="44.66403997471123" lon="9.311373324572868"><ele>555.5</ele><time>2026-05-02T14:29:41Z</time></trkpt><trkpt lat="44.66417096166631" lon="9.311313101962456"><ele>548.25</ele><time>2026-05-02T14:29:42Z</time></trkpt><trkpt lat="44.66428747854944" lon="9.311284980867486"><ele>541.0</ele><time>2026-05-02T14:29:43Z</time></trkpt><trkpt lat="44.664388913960615" lon="9.31125909713728"><ele>542.0</ele><time>2026-05-02T14:29:44Z</time></trkpt><trkpt lat="44.664479458957075" lon="9.31123314829752"><ele>543.0</ele><time>2026-05-02T14:29:45Z</time></trkpt><trkpt lat="44.66457291644128" lon="9.311209459527092"><ele>544.0</ele><time>2026-05-02T14:29:46Z</time></trkpt><trkpt lat="44.664652575704004" lon="9.31119761249512"><ele>545.0</ele><time>2026-05-02T14:29:47Z</time></trkpt><trkpt lat="44.664726187462215" lon="9.311200350426985"><ele>546.0</ele><time>2026-05-02T14:29:48Z</time></trkpt><trkpt lat="44.6648047877053" lon="9.311216629955835"><ele>547.0</ele><time>2026-05-02T14:29:49Z</time></trkpt><trkpt lat="44.6648991031467" lon="9.31125391900071"><ele>547.0</ele><time>2026-05-02T14:29:50Z</time></trkpt><trkpt lat="44.66499737643163" lon="9.311317218218912"><ele>547.0</ele><time>2026-05-02T14:29:51Z</time></trkpt><trkpt lat="44.66509431971019" lon="9.311407549794376"><ele>547.0</ele><time>2026-05-02T14:29:52Z</time></trkpt><trkpt lat="44.66518862930732" lon="9.311514475822344"><ele>547.0</ele><time>2026-05-02T14:29:53Z</time></trkpt><trkpt lat="44.66526838539127" lon="9.311621549609782"><ele>545.4</ele><time>2026-05-02T14:29:54Z</time></trkpt><trkpt lat="44.66533529694721" lon="9.311723939876345"><ele>543.8000000000001</ele><time>2026-05-02T14:29:55Z</time></trkpt><trkpt lat="44.66539764435741" lon="9.311826135343306"><ele>542.2</ele><time>2026-05-02T14:29:56Z</time></trkpt><trkpt lat="44.665453733618875" lon="9.311941282556198"><ele>540.6</ele><time>2026-05-02T14:29:57Z</time></trkpt><trkpt lat="44.665495795780274" lon="9.312067021208053"><ele>539.0</ele><time>2026-05-02T14:29:58Z</time></trkpt><trkpt lat="44.66552625025122" lon="9.312191765450017"><ele>542.8</ele><time>2026-05-02T14:29:59Z</time></trkpt><trkpt lat="44.66556464880502" lon="9.312306316318987"><ele>546.5999999999999</ele><time>2026-05-02T14:30:00Z</time></trkpt><trkpt lat="44.66563284646692" lon="9.312401809938793"><ele>550.4</ele><time>2026-05-02T14:30:01Z</time></trkpt><trkpt lat="44.66571740660031" lon="9.312476305633167"><ele>554.1999999999999</ele><time>2026-05-02T14:30:02Z</time></trkpt><trkpt lat="44.66579900642419" lon="9.31253233607104"><ele>558.0</ele><time>2026-05-02T14:30:03Z</time></trkpt><trkpt lat="44.66588180957001" lon="9.31257435250887"><ele>558.0</ele><time>2026-05-02T14:30:04Z</time></trkpt><trkpt lat="44.66596352635911" lon="9.312617368160309"><ele>558.0</ele><time>2026-05-02T14:30:05Z</time></trkpt><trkpt lat="44.66604209516774" lon="9.312684976593912"><ele>558.0</ele><time>2026-05-02T14:30:06Z</time></trkpt><trkpt lat="44.66610566101991" lon="9.312785947760263"><ele>558.0</ele><time>2026-05-02T14:30:07Z</time></trkpt><trkpt lat="44.66614353063655" lon="9.312904343089794"><ele>558.0</ele><time>2026-05-02T14:30:08Z</time></trkpt><trkpt lat="44.66618451175209" lon="9.312988950973917"><ele>558.0</ele><time>2026-05-02T14:30:09Z</time></trkpt><trkpt lat="44.66622641347684" lon="9.313080809142628"><ele>561.25</ele><time>2026-05-02T14:30:10Z</time></trkpt><trkpt lat="44.66632762365542" lon="9.31311603530477"><ele>564.5</ele><time>2026-05-02T14:30:11Z</time></trkpt><trkpt lat="44.66643897542214" lon="9.313068960949153"><ele>567.75</ele><time>2026-05-02T14:30:12Z</time></trkpt><trkpt lat="44.66657357066966" lon="9.313044025248097"><ele>571.0</ele><time>2026-05-02T14:30:13Z</time></trkpt><trkpt lat="44.6667440485224" lon="9.312988169969108"><ele>567.75</ele><time>2026-05-02T14:30:14Z</time></trkpt><trkpt lat="44.66690971910758" lon="9.312935781915376"><ele>564.5</ele><time>2026-05-02T14:30:15Z</time></trkpt><trkpt lat="44.667008816524714" lon="9.312886376705634"><ele>561.25</ele><time>2026-05-02T14:30:16Z</time></trkpt><trkpt lat="44.667142394926714" lon="9.312846198943632"><ele>558.0</ele><time>2026-05-02T14:30:17Z</time></trkpt><trkpt lat="44.66725960476691" lon="9.312794315921524"><ele>558.0</ele><time>2026-05-02T14:30:18Z</time></trkpt><trkpt lat="44.66736363060978" lon="9.312686560225426"><ele>558.0</ele><time>2026-05-02T14:30:19Z</time></trkpt><trkpt lat="44.66745110353003" lon="9.312502737053137"><ele>558.0</ele><time>2026-05-02T14:30:20Z</time></trkpt><trkpt lat="44.66753590798967" lon="9.312268675267884"><ele>554.5</ele><time>2026-05-02T14:30:20.999Z</time></trkpt><trkpt lat="44.66761457094819" lon="9.312048781217856"><ele>551.0</ele><time>2026-05-02T14:30:21.999Z</time></trkpt><trkpt lat="44.667685800379296" lon="9.311894888049668"><ele>547.5</ele><time>2026-05-02T14:30:22.999Z</time></trkpt><trkpt lat="44.667750424154875" lon="9.31177070826461"><ele>544.0</ele><time>2026-05-02T14:30:23.999Z</time></trkpt><trkpt lat="44.667843821701425" lon="9.311723629492581"><ele>544.0</ele><time>2026-05-02T14:30:24.999Z</time></trkpt><trkpt lat="44.66793285339074" lon="9.311741680508096"><ele>544.0</ele><time>2026-05-02T14:30:25.999Z</time></trkpt><trkpt lat="44.668000041158614" lon="9.311850945064005"><ele>544.0</ele><time>2026-05-02T14:30:26.999Z</time></trkpt><trkpt lat="44.66810170956456" lon="9.311972382820313"><ele>544.0</ele><time>2026-05-02T14:30:27.999Z</time></trkpt><trkpt lat="44.66821879863326" lon="9.312064809435446"><ele>544.0</ele><time>2026-05-02T14:30:28.999Z</time></trkpt><trkpt lat="44.668362879909836" lon="9.31212940008511"><ele>544.0</ele><time>2026-05-02T14:30:29.999Z</time></trkpt><trkpt lat="44.66853494473881" lon="9.312140140348083"><ele>544.0</ele><time>2026-05-02T14:30:30.999Z</time></trkpt><trkpt lat="44.66868337721863" lon="9.31210978427149"><ele>549.0</ele><time>2026-05-02T14:30:31.999Z</time></trkpt><trkpt lat="44.66880029736945" lon="9.312054081611572"><ele>554.0</ele><time>2026-05-02T14:30:32.999Z</time></trkpt><trkpt lat="44.668892670010386" lon="9.311942503615898"><ele>559.0</ele><time>2026-05-02T14:30:33.999Z</time></trkpt><trkpt lat="44.668949168459996" lon="9.311778423634014"><ele>564.0</ele><time>2026-05-02T14:30:34.999Z</time></trkpt><trkpt lat="44.66897946693267" lon="9.311551717999174"><ele>557.75</ele><time>2026-05-02T14:30:35.999Z</time></trkpt><trkpt lat="44.668997116393605" lon="9.311313788603375"><ele>551.5</ele><time>2026-05-02T14:30:36.999Z</time></trkpt><trkpt lat="44.669006579460664" lon="9.311146237438411"><ele>545.25</ele><time>2026-05-02T14:30:37.999Z</time></trkpt><trkpt lat="44.66904177551373" lon="9.31101650870212"><ele>539.0</ele><time>2026-05-02T14:30:38.999Z</time></trkpt><trkpt lat="44.66913602466162" lon="9.310917322565764"><ele>539.0</ele><time>2026-05-02T14:30:39.999Z</time></trkpt><trkpt lat="44.66924541428817" lon="9.310877685850782"><ele>539.0</ele><time>2026-05-02T14:30:40.999Z</time></trkpt><trkpt lat="44.66937671714403" lon="9.31086221118271"><ele>539.0</ele><time>2026-05-02T14:30:41.999Z</time></trkpt><trkpt lat="44.66951421042341" lon="9.310839823009633"><ele>539.0</ele><time>2026-05-02T14:30:42.999Z</time></trkpt><trkpt lat="44.66962177687749" lon="9.31079869801664"><ele>542.75</ele><time>2026-05-02T14:30:43.999Z</time></trkpt><trkpt lat="44.66970389441897" lon="9.310748867434002"><ele>546.5</ele><time>2026-05-02T14:30:44.999Z</time></trkpt><trkpt lat="44.669752460945105" lon="9.31063237509747"><ele>550.25</ele><time>2026-05-02T14:30:45.999Z</time></trkpt><trkpt lat="44.669771570747145" lon="9.310464753575193"><ele>554.0</ele><time>2026-05-02T14:30:46.999Z</time></trkpt><trkpt lat="44.66971531337245" lon="9.310243746032542"><ele>554.0</ele><time>2026-05-02T14:30:47.999Z</time></trkpt><trkpt lat="44.669664423382095" lon="9.310048655351672"><ele>554.0</ele><time>2026-05-02T14:30:48.999Z</time></trkpt><trkpt lat="44.66965517547457" lon="9.309874077943885"><ele>554.0</ele><time>2026-05-02T14:30:49.999Z</time></trkpt><trkpt lat="44.669698963436616" lon="9.309704516736819"><ele>554.0</ele><time>2026-05-02T14:30:50.999Z</time></trkpt><trkpt lat="44.66977859134565" lon="9.309556307692393"><ele>546.75</ele><time>2026-05-02T14:30:51.999Z</time></trkpt><trkpt lat="44.66987945816098" lon="9.309448691870408"><ele>539.5</ele><time>2026-05-02T14:30:52.999Z</time></trkpt><trkpt lat="44.66999503471748" lon="9.309402335042208"><ele>532.25</ele><time>2026-05-02T14:30:53.999Z</time></trkpt><trkpt lat="44.670101776280944" lon="9.30943318369998"><ele>525.0</ele><time>2026-05-02T14:30:54.999Z</time></trkpt><trkpt lat="44.67021162520327" lon="9.309554927473245"><ele>527.3333333333334</ele><time>2026-05-02T14:30:55.999Z</time></trkpt><trkpt lat="44.6703569722077" lon="9.309621280852076"><ele>529.6666666666667</ele><time>2026-05-02T14:30:56.999Z</time></trkpt><trkpt lat="44.67051609946813" lon="9.30966800557888"><ele>532.0</ele><time>2026-05-02T14:30:57.999Z</time></trkpt><trkpt lat="44.67067407621652" lon="9.309660600034652"><ele>532.0</ele><time>2026-05-02T14:30:58.999Z</time></trkpt><trkpt lat="44.670823665709044" lon="9.30961714393183"><ele>532.0</ele><time>2026-05-02T14:30:59.999Z</time></trkpt><trkpt lat="44.670940659001815" lon="9.309529621263417"><ele>532.0</ele><time>2026-05-02T14:31:00.999Z</time></trkpt><trkpt lat="44.671032806369354" lon="9.309431113576771"><ele>532.0</ele><time>2026-05-02T14:31:01.999Z</time></trkpt><trkpt lat="44.671124171985234" lon="9.309397912974955"><ele>531.25</ele><time>2026-05-02T14:31:02.999Z</time></trkpt><trkpt lat="44.67122673686624" lon="9.309447809600332"><ele>530.5</ele><time>2026-05-02T14:31:03.999Z</time></trkpt><trkpt lat="44.671344183278215" lon="9.309559618296408"><ele>529.75</ele><time>2026-05-02T14:31:04.999Z</time></trkpt><trkpt lat="44.67146681465748" lon="9.30967965028419"><ele>529.0</ele><time>2026-05-02T14:31:05.999Z</time></trkpt><trkpt lat="44.67159303194603" lon="9.309722197593038"><ele>529.0</ele><time>2026-05-02T14:31:06.999Z</time></trkpt><trkpt lat="44.67175095946156" lon="9.309700889161826"><ele>529.0</ele><time>2026-05-02T14:31:07.999Z</time></trkpt><trkpt lat="44.67190962316755" lon="9.309673639373573"><ele>529.0</ele><time>2026-05-02T14:31:08.999Z</time></trkpt><trkpt lat="44.672051697638175" lon="9.309677657204045"><ele>532.0</ele><time>2026-05-02T14:31:09.999Z</time></trkpt><trkpt lat="44.672176572778966" lon="9.309679574987312"><ele>535.0</ele><time>2026-05-02T14:31:10.999Z</time></trkpt><trkpt lat="44.672300785170606" lon="9.30960665009882"><ele>538.0</ele><time>2026-05-02T14:31:11.999Z</time></trkpt><trkpt lat="44.672440106333376" lon="9.309481529600928"><ele>541.0</ele><time>2026-05-02T14:31:12.999Z</time></trkpt><trkpt lat="44.67258839851225" lon="9.309357033776243"><ele>541.0</ele><time>2026-05-02T14:31:13.999Z</time></trkpt><trkpt lat="44.67272497775759" lon="9.309262855248594"><ele>541.0</ele><time>2026-05-02T14:31:14.999Z</time></trkpt><trkpt lat="44.67282791015826" lon="9.309168370605114"><ele>541.0</ele><time>2026-05-02T14:31:15.999Z</time></trkpt><trkpt lat="44.67290276121743" lon="9.309030970747585"><ele>541.0</ele><time>2026-05-02T14:31:16.999Z</time></trkpt><trkpt lat="44.67297609631488" lon="9.308860986964458"><ele>538.5</ele><time>2026-05-02T14:31:17.999Z</time></trkpt><trkpt lat="44.673052269163875" lon="9.308699985896318"><ele>536.0</ele><time>2026-05-02T14:31:18.999Z</time></trkpt><trkpt lat="44.67312676951381" lon="9.30857431720527"><ele>533.5</ele><time>2026-05-02T14:31:19.999Z</time></trkpt><trkpt lat="44.67320818818932" lon="9.308482028528234"><ele>531.0</ele><time>2026-05-02T14:31:20.999Z</time></trkpt><trkpt lat="44.673306043379114" lon="9.308446520123523"><ele>531.0</ele><time>2026-05-02T14:31:21.999Z</time></trkpt><trkpt lat="44.673424510020645" lon="9.308481986439116"><ele>531.0</ele><time>2026-05-02T14:31:22.999Z</time></trkpt><trkpt lat="44.67356064421101" lon="9.308582765581956"><ele>531.0</ele><time>2026-05-02T14:31:23.999Z</time></trkpt><trkpt lat="44.673700545056256" lon="9.30871512295221"><ele>531.0</ele><time>2026-05-02T14:31:24.999Z</time></trkpt><trkpt lat="44.67382316582963" lon="9.308866423492425"><ele>537.5</ele><time>2026-05-02T14:31:25.999Z</time></trkpt><trkpt lat="44.67392807945654" lon="9.308987477916281"><ele>544.0</ele><time>2026-05-02T14:31:26.999Z</time></trkpt><trkpt lat="44.67404936024147" lon="9.309058705166052"><ele>550.5</ele><time>2026-05-02T14:31:27.999Z</time></trkpt><trkpt lat="44.67417080344253" lon="9.309075698826158"><ele>557.0</ele><time>2026-05-02T14:31:28.999Z</time></trkpt><trkpt lat="44.674311972080524" lon="9.309036217423847"><ele>555.0</ele><time>2026-05-02T14:31:30Z</time></trkpt><trkpt lat="44.67443830717395" lon="9.308981394994593"><ele>553.0</ele><time>2026-05-02T14:31:31Z</time></trkpt><trkpt lat="44.67454964562884" lon="9.308986254092511"><ele>551.0</ele><time>2026-05-02T14:31:32Z</time></trkpt><trkpt lat="44.674649224909565" lon="9.30908264278953"><ele>549.0</ele><time>2026-05-02T14:31:33Z</time></trkpt><trkpt lat="44.67471102820695" lon="9.309242804713039"><ele>549.0</ele><time>2026-05-02T14:31:34Z</time></trkpt><trkpt lat="44.674786296657665" lon="9.309321490057602"><ele>549.0</ele><time>2026-05-02T14:31:35Z</time></trkpt><trkpt lat="44.67486692080971" lon="9.309358073902994"><ele>549.0</ele><time>2026-05-02T14:31:36Z</time></trkpt><trkpt lat="44.67495791023832" lon="9.309336582871348"><ele>549.0</ele><time>2026-05-02T14:31:37Z</time></trkpt><trkpt lat="44.67505549571322" lon="9.309263615725026"><ele>549.0</ele><time>2026-05-02T14:31:38Z</time></trkpt><trkpt lat="44.675175314840374" lon="9.30914794312938"><ele>552.25</ele><time>2026-05-02T14:31:39Z</time></trkpt><trkpt lat="44.675311005160474" lon="9.309028400640889"><ele>555.5</ele><time>2026-05-02T14:31:40Z</time></trkpt><trkpt lat="44.675425223403295" lon="9.308930676564598"><ele>558.75</ele><time>2026-05-02T14:31:41Z</time></trkpt><trkpt lat="44.67550069764818" lon="9.308848543863196"><ele>562.0</ele><time>2026-05-02T14:31:42Z</time></trkpt><trkpt lat="44.67552942735926" lon="9.308739855719605"><ele>562.0</ele><time>2026-05-02T14:31:43Z</time></trkpt><trkpt lat="44.67552906734375" lon="9.308605058510254"><ele>562.0</ele><time>2026-05-02T14:31:44Z</time></trkpt><trkpt lat="44.67545066870512" lon="9.308434592441603"><ele>562.0</ele><time>2026-05-02T14:31:45Z</time></trkpt><trkpt lat="44.675372655097675" lon="9.308240890360382"><ele>562.0</ele><time>2026-05-02T14:31:46Z</time></trkpt><trkpt lat="44.67532526797233" lon="9.30801348790576"><ele>561.5</ele><time>2026-05-02T14:31:47Z</time></trkpt><trkpt lat="44.675277632929756" lon="9.307815957402433"><ele>561.0</ele><time>2026-05-02T14:31:48Z</time></trkpt><trkpt lat="44.67523770604733" lon="9.30764763082345"><ele>560.5</ele><time>2026-05-02T14:31:49Z</time></trkpt><trkpt lat="44.675252774980066" lon="9.30746319765214"><ele>560.0</ele><time>2026-05-02T14:31:50Z</time></trkpt><trkpt lat="44.67526385829353" lon="9.307311431428836"><ele>558.4</ele><time>2026-05-02T14:31:51Z</time></trkpt><trkpt lat="44.67533086428032" lon="9.30719616644813"><ele>556.8</ele><time>2026-05-02T14:31:52Z</time></trkpt><trkpt lat="44.67541235669714" lon="9.307110002806192"><ele>555.2</ele><time>2026-05-02T14:31:53Z</time></trkpt><trkpt lat="44.67552108951157" lon="9.307049847788468"><ele>553.6</ele><time>2026-05-02T14:31:54Z</time></trkpt><trkpt lat="44.67560176535694" lon="9.306960826804735"><ele>552.0</ele><time>2026-05-02T14:31:55Z</time></trkpt><trkpt lat="44.675665915251" lon="9.306882005462453"><ele>552.0</ele><time>2026-05-02T14:31:56Z</time></trkpt><trkpt lat="44.675673408527246" lon="9.30674728398477"><ele>552.0</ele><time>2026-05-02T14:31:57Z</time></trkpt><trkpt lat="44.675656394015114" lon="9.306588662317026"><ele>552.0</ele><time>2026-05-02T14:31:58Z</time></trkpt><trkpt lat="44.67563444369386" lon="9.306411505159861"><ele>552.0</ele><time>2026-05-02T14:31:59Z</time></trkpt><trkpt lat="44.675638584204464" lon="9.306230723282665"><ele>547.3333333333334</ele><time>2026-05-02T14:32:00Z</time></trkpt><trkpt lat="44.67570022813193" lon="9.306046875057993"><ele>542.6666666666667</ele><time>2026-05-02T14:32:01Z</time></trkpt><trkpt lat="44.67578340571686" lon="9.305855379356894"><ele>538.0</ele><time>2026-05-02T14:32:02Z</time></trkpt><trkpt lat="44.6758719658946" lon="9.305688381539538"><ele>535.3333333333334</ele><time>2026-05-02T14:32:03Z</time></trkpt><trkpt lat="44.67597807988097" lon="9.305542391340532"><ele>532.6666666666666</ele><time>2026-05-02T14:32:04Z</time></trkpt><trkpt lat="44.6761390345291" lon="9.305444197905306"><ele>530.0</ele><time>2026-05-02T14:32:05Z</time></trkpt><trkpt lat="44.67628716149819" lon="9.305393279191746"><ele>530.0</ele><time>2026-05-02T14:32:06Z</time></trkpt><trkpt lat="44.67648768077338" lon="9.305360731120961"><ele>530.0</ele><time>2026-05-02T14:32:07Z</time></trkpt><trkpt lat="44.6767335182196" lon="9.305308299570962"><ele>530.5</ele><time>2026-05-02T14:32:08Z</time></trkpt><trkpt lat="44.677004941022325" lon="9.30527005116446"><ele>531.0</ele><time>2026-05-02T14:32:09Z</time></trkpt><trkpt lat="44.677233876559896" lon="9.305232875411694"><ele>531.0</ele><time>2026-05-02T14:32:10Z</time></trkpt><trkpt lat="44.677407521215244" lon="9.30519719675323"><ele>531.0</ele><time>2026-05-02T14:32:11Z</time></trkpt><trkpt lat="44.67753900212021" lon="9.30517647988099"><ele>531.0</ele><time>2026-05-02T14:32:12Z</time></trkpt><trkpt lat="44.67764931963579" lon="9.305131574944511"><ele>531.0</ele><time>2026-05-02T14:32:13Z</time></trkpt><trkpt lat="44.67775619037652" lon="9.305022838765069"><ele>528.25</ele><time>2026-05-02T14:32:13.999Z</time></trkpt><trkpt lat="44.67786311996599" lon="9.304861368282685"><ele>525.5</ele><time>2026-05-02T14:32:14.999Z</time></trkpt><trkpt lat="44.67798447119849" lon="9.30474825895933"><ele>522.75</ele><time>2026-05-02T14:32:15.999Z</time></trkpt><trkpt lat="44.678111816860444" lon="9.304765921293752"><ele>520.0</ele><time>2026-05-02T14:32:16.999Z</time></trkpt><trkpt lat="44.67821684774029" lon="9.304704152898246"><ele>520.0</ele><time>2026-05-02T14:32:17.999Z</time></trkpt><trkpt lat="44.67830880511017" lon="9.30459548472236"><ele>520.0</ele><time>2026-05-02T14:32:19Z</time></trkpt><trkpt lat="44.678370157181085" lon="9.304416783315878"><ele>520.0</ele><time>2026-05-02T14:32:20Z</time></trkpt><trkpt lat="44.67841979149431" lon="9.30421870871059"><ele>520.0</ele><time>2026-05-02T14:32:21Z</time></trkpt><trkpt lat="44.67850812447507" lon="9.304097905655855"><ele>516.0</ele><time>2026-05-02T14:32:22Z</time></trkpt><trkpt lat="44.678626164988124" lon="9.304008813340811"><ele>512.0</ele><time>2026-05-02T14:32:23Z</time></trkpt><trkpt lat="44.67878451893973" lon="9.303924943270864"><ele>508.0</ele><time>2026-05-02T14:32:24Z</time></trkpt><trkpt lat="44.67896433092651" lon="9.303859894513783"><ele>508.0</ele><time>2026-05-02T14:32:25Z</time></trkpt><trkpt lat="44.67914532320793" lon="9.303834220725882"><ele>508.0</ele><time>2026-05-02T14:32:26Z</time></trkpt><trkpt lat="44.67931772392525" lon="9.303793211509747"><ele>508.0</ele><time>2026-05-02T14:32:27Z</time></trkpt><trkpt lat="44.67947710983987" lon="9.303745001758422"><ele>511.33333333333337</ele><time>2026-05-02T14:32:28Z</time></trkpt><trkpt lat="44.6796400034201" lon="9.303638067986771"><ele>514.6666666666666</ele><time>2026-05-02T14:32:29Z</time></trkpt><trkpt lat="44.67978351644573" lon="9.30349437014473"><ele>518.0</ele><time>2026-05-02T14:32:30Z</time></trkpt><trkpt lat="44.67990648693706" lon="9.303398559862401"><ele>518.0</ele><time>2026-05-02T14:32:31Z</time></trkpt><trkpt lat="44.680007845764166" lon="9.303333864746213"><ele>518.0</ele><time>2026-05-02T14:32:32Z</time></trkpt><trkpt lat="44.680106902938405" lon="9.303315052263011"><ele>518.0</ele><time>2026-05-02T14:32:33Z</time></trkpt><trkpt lat="44.68022308750376" lon="9.303345111806577"><ele>518.0</ele><time>2026-05-02T14:32:34Z</time></trkpt><trkpt lat="44.68032627726813" lon="9.303507221735297"><ele>519.6666666666666</ele><time>2026-05-02T14:32:35Z</time></trkpt><trkpt lat="44.68047886160535" lon="9.30366169184246"><ele>521.3333333333334</ele><time>2026-05-02T14:32:36Z</time></trkpt><trkpt lat="44.68062158921094" lon="9.303849856814724"><ele>523.0</ele><time>2026-05-02T14:32:37Z</time></trkpt><trkpt lat="44.680761931576555" lon="9.304005373289318"><ele>523.0</ele><time>2026-05-02T14:32:38Z</time></trkpt><trkpt lat="44.68089280980587" lon="9.30412331202321"><ele>523.0</ele><time>2026-05-02T14:32:39Z</time></trkpt><trkpt lat="44.681026398293994" lon="9.304197575357207"><ele>523.0</ele><time>2026-05-02T14:32:40Z</time></trkpt><trkpt lat="44.68116326327927" lon="9.304224935609744"><ele>523.0</ele><time>2026-05-02T14:32:41Z</time></trkpt><trkpt lat="44.68132996607694" lon="9.304214669417892"><ele>517.3333333333334</ele><time>2026-05-02T14:32:42Z</time></trkpt><trkpt lat="44.68153450943321" lon="9.304166601787113"><ele>511.66666666666663</ele><time>2026-05-02T14:32:43Z</time></trkpt><trkpt lat="44.68175243118192" lon="9.304101712943496"><ele>506.0</ele><time>2026-05-02T14:32:44Z</time></trkpt><trkpt lat="44.68196954151542" lon="9.30404394388429"><ele>504.3333333333333</ele><time>2026-05-02T14:32:45Z</time></trkpt><trkpt lat="44.68216588581906" lon="9.303993775148454"><ele>502.66666666666663</ele><time>2026-05-02T14:32:46Z</time></trkpt><trkpt lat="44.68232280760659" lon="9.303952890450258"><ele>501.0</ele><time>2026-05-02T14:32:47Z</time></trkpt><trkpt lat="44.68244281868165" lon="9.303922722658921"><ele>501.0</ele><time>2026-05-02T14:32:48Z</time></trkpt><trkpt lat="44.682548865102746" lon="9.303952160806809"><ele>501.0</ele><time>2026-05-02T14:32:49Z</time></trkpt><trkpt lat="44.68264814508002" lon="9.304026275528695"><ele>501.0</ele><time>2026-05-02T14:32:50Z</time></trkpt><trkpt lat="44.68271768747889" lon="9.304196077353026"><ele>501.0</ele><time>2026-05-02T14:32:51Z</time></trkpt><trkpt lat="44.682803696756444" lon="9.30442054483262"><ele>497.66666666666663</ele><time>2026-05-02T14:32:52Z</time></trkpt><trkpt lat="44.68291934259363" lon="9.304672589696246"><ele>494.3333333333333</ele><time>2026-05-02T14:32:53Z</time></trkpt><trkpt lat="44.68301048621332" lon="9.30489872979955"><ele>491.0</ele><time>2026-05-02T14:32:54Z</time></trkpt><trkpt lat="44.68306198809798" lon="9.305084086343676"><ele>490.6</ele><time>2026-05-02T14:32:55Z</time></trkpt><trkpt lat="44.68308520971411" lon="9.305239035426048"><ele>490.20000000000005</ele><time>2026-05-02T14:32:56Z</time></trkpt><trkpt lat="44.68306119708941" lon="9.305394871843653"><ele>489.79999999999995</ele><time>2026-05-02T14:32:57Z</time></trkpt><trkpt lat="44.683067076002494" lon="9.305531414531568"><ele>489.4</ele><time>2026-05-02T14:32:58Z</time></trkpt><trkpt lat="44.683102217050234" lon="9.305654764402433"><ele>489.0</ele><time>2026-05-02T14:32:59Z</time></trkpt><trkpt lat="44.68320703008839" lon="9.305773657262513"><ele>491.25</ele><time>2026-05-02T14:33:00Z</time></trkpt><trkpt lat="44.683358642291296" lon="9.305865298639377"><ele>493.5</ele><time>2026-05-02T14:33:01Z</time></trkpt><trkpt lat="44.683491803144804" lon="9.305911226157837"><ele>495.75</ele><time>2026-05-02T14:33:02Z</time></trkpt><trkpt lat="44.683584223696116" lon="9.305977808970496"><ele>498.0</ele><time>2026-05-02T14:33:03Z</time></trkpt><trkpt lat="44.683656609511786" lon="9.306102923562618"><ele>493.75</ele><time>2026-05-02T14:33:04Z</time></trkpt><trkpt lat="44.68372619645901" lon="9.306280041258834"><ele>489.5</ele><time>2026-05-02T14:33:05Z</time></trkpt><trkpt lat="44.68376918535982" lon="9.30647293534805"><ele>485.25</ele><time>2026-05-02T14:33:06Z</time></trkpt><trkpt lat="44.683795548234784" lon="9.306638144147538"><ele>481.0</ele><time>2026-05-02T14:33:07Z</time></trkpt><trkpt lat="44.68377657616933" lon="9.306824562372222"><ele>481.0</ele><time>2026-05-02T14:33:08Z</time></trkpt><trkpt lat="44.68372721796702" lon="9.30704814063689"><ele>481.0</ele><time>2026-05-02T14:33:09Z</time></trkpt><trkpt lat="44.68367786305957" lon="9.307276291827334"><ele>481.0</ele><time>2026-05-02T14:33:10Z</time></trkpt><trkpt lat="44.68362184842729" lon="9.30749055653862"><ele>485.5</ele><time>2026-05-02T14:33:11Z</time></trkpt><trkpt lat="44.68354670153948" lon="9.307669609177013"><ele>490.0</ele><time>2026-05-02T14:33:12Z</time></trkpt><trkpt lat="44.68344451856334" lon="9.307820615842353"><ele>494.5</ele><time>2026-05-02T14:33:13Z</time></trkpt><trkpt lat="44.6833549157291" lon="9.307943426133331"><ele>499.0</ele><time>2026-05-02T14:33:14Z</time></trkpt><trkpt lat="44.68329941947076" lon="9.308053973803498"><ele>497.0</ele><time>2026-05-02T14:33:15Z</time></trkpt><trkpt lat="44.68327934916079" lon="9.308162513340879"><ele>495.0</ele><time>2026-05-02T14:33:16Z</time></trkpt><trkpt lat="44.683288285026215" lon="9.308282865421967"><ele>493.0</ele><time>2026-05-02T14:33:17Z</time></trkpt><trkpt lat="44.683388735746036" lon="9.308370341241686"><ele>491.0</ele><time>2026-05-02T14:33:18Z</time></trkpt><trkpt lat="44.683509159403066" lon="9.308441106768333"><ele>489.0</ele><time>2026-05-02T14:33:19Z</time></trkpt><trkpt lat="44.683631149144524" lon="9.308542539128382"><ele>489.4</ele><time>2026-05-02T14:33:20Z</time></trkpt><trkpt lat="44.68372273849941" lon="9.308604031786562"><ele>489.79999999999995</ele><time>2026-05-02T14:33:21Z</time></trkpt><trkpt lat="44.683795525745765" lon="9.30872554220984"><ele>490.20000000000005</ele><time>2026-05-02T14:33:22Z</time></trkpt><trkpt lat="44.6838593187045" lon="9.30886886275644"><ele>490.6</ele><time>2026-05-02T14:33:23Z</time></trkpt><trkpt lat="44.68391521707947" lon="9.308989561712481"><ele>491.0</ele><time>2026-05-02T14:33:24Z</time></trkpt><trkpt lat="44.68397048010672" lon="9.309094511946652"><ele>491.0</ele><time>2026-05-02T14:33:25Z</time></trkpt><trkpt lat="44.684074135083286" lon="9.309126043061509"><ele>491.0</ele><time>2026-05-02T14:33:26Z</time></trkpt><trkpt lat="44.684197370388056" lon="9.309143361563489"><ele>491.0</ele><time>2026-05-02T14:33:27Z</time></trkpt><trkpt lat="44.684345415741355" lon="9.30914919255888"><ele>491.0</ele><time>2026-05-02T14:33:28Z</time></trkpt><trkpt lat="44.684483233024295" lon="9.309154240686253"><ele>490.75</ele><time>2026-05-02T14:33:29Z</time></trkpt><trkpt lat="44.68460576662604" lon="9.309139207309016"><ele>490.5</ele><time>2026-05-02T14:33:30Z</time></trkpt><trkpt lat="44.68472200885718" lon="9.309070832890217"><ele>490.25</ele><time>2026-05-02T14:33:31Z</time></trkpt><trkpt lat="44.6848433053373" lon="9.308971086270473"><ele>490.0</ele><time>2026-05-02T14:33:32Z</time></trkpt><trkpt lat="44.68498487620782" lon="9.308901056561446"><ele>482.6666666666667</ele><time>2026-05-02T14:33:33Z</time></trkpt><trkpt lat="44.68514821879732" lon="9.30886514003682"><ele>475.33333333333337</ele><time>2026-05-02T14:33:34Z</time></trkpt><trkpt lat="44.68532050293572" lon="9.308854124375285"><ele>468.0</ele><time>2026-05-02T14:33:35Z</time></trkpt><trkpt lat="44.68549877504175" lon="9.308869556759468"><ele>462.66666666666663</ele><time>2026-05-02T14:33:36.001Z</time></trkpt><trkpt lat="44.68566596961676" lon="9.308896084501688"><ele>457.3333333333333</ele><time>2026-05-02T14:33:37.001Z</time></trkpt><trkpt lat="44.685819525062044" lon="9.308894412945975"><ele>452.0</ele><time>2026-05-02T14:33:38.001Z</time></trkpt><trkpt lat="44.685964965652325" lon="9.308860023248577"><ele>456.0</ele><time>2026-05-02T14:33:39.001Z</time></trkpt><trkpt lat="44.68609548838438" lon="9.308838612327587"><ele>460.0</ele><time>2026-05-02T14:33:40.001Z</time></trkpt><trkpt lat="44.68622559007895" lon="9.308855451846634"><ele>464.0</ele><time>2026-05-02T14:33:41.001Z</time></trkpt><trkpt lat="44.686383013461565" lon="9.308909618921833"><ele>468.0</ele><time>2026-05-02T14:33:42.001Z</time></trkpt><trkpt lat="44.686535643741685" lon="9.308974344316885"><ele>468.0</ele><time>2026-05-02T14:33:43.001Z</time></trkpt><trkpt lat="44.68666500252217" lon="9.309026407091817"><ele>468.0</ele><time>2026-05-02T14:33:44.001Z</time></trkpt><trkpt lat="44.68677071405105" lon="9.30908551050737"><ele>468.0</ele><time>2026-05-02T14:33:45.001Z</time></trkpt><trkpt lat="44.68686077287719" lon="9.309198531680568"><ele>468.0</ele><time>2026-05-02T14:33:46.001Z</time></trkpt><trkpt lat="44.6869343487285" lon="9.30935581494081"><ele>468.5</ele><time>2026-05-02T14:33:47.001Z</time></trkpt><trkpt lat="44.68697092512288" lon="9.309535976647988"><ele>469.0</ele><time>2026-05-02T14:33:48.001Z</time></trkpt><trkpt lat="44.686960927481834" lon="9.309727598629522"><ele>469.5</ele><time>2026-05-02T14:33:49.001Z</time></trkpt><trkpt lat="44.68690783664499" lon="9.3099086713507"><ele>470.0</ele><time>2026-05-02T14:33:50.001Z</time></trkpt><trkpt lat="44.68681653324656" lon="9.310052862060536"><ele>470.0</ele><time>2026-05-02T14:33:51.001Z</time></trkpt><trkpt lat="44.68669820544579" lon="9.310154113326915"><ele>470.0</ele><time>2026-05-02T14:33:52.001Z</time></trkpt><trkpt lat="44.686566076014586" lon="9.310202366280306"><ele>470.0</ele><time>2026-05-02T14:33:53.001Z</time></trkpt><trkpt lat="44.68645841773855" lon="9.310234784607525"><ele>470.0</ele><time>2026-05-02T14:33:54.001Z</time></trkpt><trkpt lat="44.68636406041175" lon="9.310314382822792"><ele>470.0</ele><time>2026-05-02T14:33:55.001Z</time></trkpt><trkpt lat="44.68629887507585" lon="9.310439568466624"><ele>470.0</ele><time>2026-05-02T14:33:56.001Z</time></trkpt><trkpt lat="44.68625004978431" lon="9.310623720020383"><ele>470.0</ele><time>2026-05-02T14:33:57.001Z</time></trkpt><trkpt lat="44.68621553127966" lon="9.31083009137177"><ele>470.0</ele><time>2026-05-02T14:33:58.001Z</time></trkpt><trkpt lat="44.68619677740835" lon="9.311036292918045"><ele>466.5</ele><time>2026-05-02T14:33:59.001Z</time></trkpt><trkpt lat="44.686209947391575" lon="9.311211283476034"><ele>463.0</ele><time>2026-05-02T14:34:00.001Z</time></trkpt><trkpt lat="44.68625524451773" lon="9.311371690098964"><ele>459.5</ele><time>2026-05-02T14:34:01.001Z</time></trkpt><trkpt lat="44.68633284939449" lon="9.31150294725349"><ele>456.0</ele><time>2026-05-02T14:34:02.001Z</time></trkpt><trkpt lat="44.686452007126775" lon="9.311607584248726"><ele>456.0</ele><time>2026-05-02T14:34:03.001Z</time></trkpt><trkpt lat="44.6865969016792" lon="9.311707848269076"><ele>456.0</ele><time>2026-05-02T14:34:04.001Z</time></trkpt><trkpt lat="44.68671547743502" lon="9.311869020184133"><ele>456.0</ele><time>2026-05-02T14:34:05Z</time></trkpt><trkpt lat="44.68682005693496" lon="9.312082309985383"><ele>459.33333333333337</ele><time>2026-05-02T14:34:06Z</time></trkpt><trkpt lat="44.686922798110146" lon="9.312301444451606"><ele>462.6666666666667</ele><time>2026-05-02T14:34:07Z</time></trkpt><trkpt lat="44.687014489218484" lon="9.312551529119453"><ele>466.0</ele><time>2026-05-02T14:34:08Z</time></trkpt><trkpt lat="44.68708590673362" lon="9.312803473677876"><ele>460.0</ele><time>2026-05-02T14:34:09Z</time></trkpt><trkpt lat="44.68714441312275" lon="9.31302904201428"><ele>454.0</ele><time>2026-05-02T14:34:10Z</time></trkpt><trkpt lat="44.68719075517167" lon="9.313210481841477"><ele>448.0</ele><time>2026-05-02T14:34:11Z</time></trkpt><trkpt lat="44.687233261767325" lon="9.313356694226028"><ele>442.0</ele><time>2026-05-02T14:34:12Z</time></trkpt><trkpt lat="44.687294141980395" lon="9.313477446057611"><ele>442.0</ele><time>2026-05-02T14:34:13Z</time></trkpt><trkpt lat="44.68742430462844" lon="9.313530494886146"><ele>442.0</ele><time>2026-05-02T14:34:14Z</time></trkpt><trkpt lat="44.687543954100626" lon="9.313566816576646"><ele>442.0</ele><time>2026-05-02T14:34:15Z</time></trkpt><trkpt lat="44.6876263773416" lon="9.31365044205227"><ele>442.0</ele><time>2026-05-02T14:34:16Z</time></trkpt><trkpt lat="44.68768581212604" lon="9.31380194286781"><ele>446.33333333333337</ele><time>2026-05-02T14:34:17Z</time></trkpt><trkpt lat="44.68770913296998" lon="9.314005991123588"><ele>450.66666666666663</ele><time>2026-05-02T14:34:18Z</time></trkpt><trkpt lat="44.687710945901" lon="9.314228878621012"><ele>455.0</ele><time>2026-05-02T14:34:19Z</time></trkpt><trkpt lat="44.687683459853446" lon="9.314436140411662"><ele>455.0</ele><time>2026-05-02T14:34:20Z</time></trkpt><trkpt lat="44.68762247754562" lon="9.314639974503402"><ele>455.0</ele><time>2026-05-02T14:34:21Z</time></trkpt><trkpt lat="44.68753811646275" lon="9.314856157473441"><ele>455.0</ele><time>2026-05-02T14:34:22Z</time></trkpt><trkpt lat="44.687454794585726" lon="9.315026101919626"><ele>453.0</ele><time>2026-05-02T14:34:23Z</time></trkpt><trkpt lat="44.68738444877185" lon="9.315148165545404"><ele>451.0</ele><time>2026-05-02T14:34:24Z</time></trkpt><trkpt lat="44.6873208291733" lon="9.315226381053304"><ele>449.0</ele><time>2026-05-02T14:34:25Z</time></trkpt><trkpt lat="44.68729808808157" lon="9.315345392788652"><ele>447.0</ele><time>2026-05-02T14:34:26Z</time></trkpt><trkpt lat="44.68732979538067" lon="9.315514133791023"><ele>445.0</ele><time>2026-05-02T14:34:27Z</time></trkpt><trkpt lat="44.68735975147285" lon="9.315687537427905"><ele>441.75</ele><time>2026-05-02T14:34:28Z</time></trkpt><trkpt lat="44.687339211232015" lon="9.31585630743967"><ele>438.5</ele><time>2026-05-02T14:34:29Z</time></trkpt><trkpt lat="44.68730548458786" lon="9.316076564673857"><ele>435.25</ele><time>2026-05-02T14:34:30Z</time></trkpt><trkpt lat="44.68728587699637" lon="9.316306909094518"><ele>432.0</ele><time>2026-05-02T14:34:31Z</time></trkpt><trkpt lat="44.68724055935381" lon="9.316515563919252"><ele>429.5</ele><time>2026-05-02T14:34:32Z</time></trkpt><trkpt lat="44.68721255205846" lon="9.316707993696982"><ele>427.0</ele><time>2026-05-02T14:34:33Z</time></trkpt><trkpt lat="44.687193641678675" lon="9.316885600318926"><ele>424.5</ele><time>2026-05-02T14:34:34Z</time></trkpt><trkpt lat="44.68721214791183" lon="9.317063923570842"><ele>422.0</ele><time>2026-05-02T14:34:35Z</time></trkpt><trkpt lat="44.687276445787774" lon="9.317231827682292"><ele>419.0</ele><time>2026-05-02T14:34:36Z</time></trkpt><trkpt lat="44.68728794075974" lon="9.317389972038368"><ele>416.0</ele><time>2026-05-02T14:34:37Z</time></trkpt><trkpt lat="44.687248169553044" lon="9.31753367137655"><ele>413.0</ele><time>2026-05-02T14:34:38Z</time></trkpt><trkpt lat="44.68716962816612" lon="9.317664207766684"><ele>410.0</ele><time>2026-05-02T14:34:39Z</time></trkpt><trkpt lat="44.68706928874076" lon="9.317804909979733"><ele>410.0</ele><time>2026-05-02T14:34:40Z</time></trkpt><trkpt lat="44.686974956869776" lon="9.317951831080306"><ele>410.0</ele><time>2026-05-02T14:34:41Z</time></trkpt><trkpt lat="44.68689058353602" lon="9.318111669432351"><ele>410.0</ele><time>2026-05-02T14:34:42Z</time></trkpt><trkpt lat="44.68684446985632" lon="9.318308879935458"><ele>410.0</ele><time>2026-05-02T14:34:43Z</time></trkpt><trkpt lat="44.6868277187498" lon="9.318495657025242"><ele>412.25</ele><time>2026-05-02T14:34:44Z</time></trkpt><trkpt lat="44.68683771622952" lon="9.318685049632808"><ele>414.5</ele><time>2026-05-02T14:34:45Z</time></trkpt><trkpt lat="44.68688892332124" lon="9.318869228130298"><ele>416.75</ele><time>2026-05-02T14:34:46Z</time></trkpt><trkpt lat="44.68694800610446" lon="9.319051880855747"><ele>419.0</ele><time>2026-05-02T14:34:47Z</time></trkpt><trkpt lat="44.687006111743116" lon="9.31923100498391"><ele>419.0</ele><time>2026-05-02T14:34:48Z</time></trkpt><trkpt lat="44.68706780411603" lon="9.319369013850931"><ele>419.0</ele><time>2026-05-02T14:34:49Z</time></trkpt><trkpt lat="44.68713296436075" lon="9.3194680907824"><ele>419.0</ele><time>2026-05-02T14:34:50Z</time></trkpt><trkpt lat="44.687201671726214" lon="9.31955249660426"><ele>419.0</ele><time>2026-05-02T14:34:51Z</time></trkpt><trkpt lat="44.6873153614503" lon="9.319562553179034"><ele>419.0</ele><time>2026-05-02T14:34:52Z</time></trkpt><trkpt lat="44.68742973634975" lon="9.319491247580144"><ele>419.0</ele><time>2026-05-02T14:34:53Z</time></trkpt><trkpt lat="44.68755622377672" lon="9.319383662502366"><ele>419.0</ele><time>2026-05-02T14:34:54Z</time></trkpt><trkpt lat="44.687658593051935" lon="9.319271766649909"><ele>419.0</ele><time>2026-05-02T14:34:55Z</time></trkpt><trkpt lat="44.687757095920304" lon="9.319226190327885"><ele>419.0</ele><time>2026-05-02T14:34:56Z</time></trkpt><trkpt lat="44.68786711284733" lon="9.319245026615798"><ele>412.75</ele><time>2026-05-02T14:34:57Z</time></trkpt><trkpt lat="44.687962851585986" lon="9.319329058418436"><ele>406.5</ele><time>2026-05-02T14:34:58Z</time></trkpt><trkpt lat="44.688041723809164" lon="9.319452074302713"><ele>400.25</ele><time>2026-05-02T14:34:59Z</time></trkpt><trkpt lat="44.688082429559664" lon="9.319597236191596"><ele>394.0</ele><time>2026-05-02T14:35:00Z</time></trkpt><trkpt lat="44.68808975640112" lon="9.319786680005132"><ele>394.0</ele><time>2026-05-02T14:35:01Z</time></trkpt><trkpt lat="44.6880752227357" lon="9.3200365366638"><ele>394.0</ele><time>2026-05-02T14:35:02Z</time></trkpt><trkpt lat="44.68805980416008" lon="9.320317828048735"><ele>394.0</ele><time>2026-05-02T14:35:03Z</time></trkpt><trkpt lat="44.688056097112465" lon="9.320628183931628"><ele>396.0</ele><time>2026-05-02T14:35:04Z</time></trkpt><trkpt lat="44.688045310510475" lon="9.320938381465666"><ele>398.0</ele><time>2026-05-02T14:35:05Z</time></trkpt><trkpt lat="44.68804042273851" lon="9.321201795467793"><ele>400.0</ele><time>2026-05-02T14:35:06Z</time></trkpt><trkpt lat="44.68801742609693" lon="9.321407485291312"><ele>401.33333333333337</ele><time>2026-05-02T14:35:07Z</time></trkpt><trkpt lat="44.688020169945446" lon="9.321603068164523"><ele>402.66666666666663</ele><time>2026-05-02T14:35:08Z</time></trkpt><trkpt lat="44.68807162733336" lon="9.321824986430848"><ele>404.0</ele><time>2026-05-02T14:35:09Z</time></trkpt><trkpt lat="44.68814890576855" lon="9.321998133233958"><ele>404.0</ele><time>2026-05-02T14:35:10Z</time></trkpt><trkpt lat="44.688202355530265" lon="9.322154020397983"><ele>404.0</ele><time>2026-05-02T14:35:11Z</time></trkpt><trkpt lat="44.68817897287152" lon="9.322306414191166"><ele>404.0</ele><time>2026-05-02T14:35:12Z</time></trkpt><trkpt lat="44.688171959438215" lon="9.322523622191076"><ele>404.0</ele><time>2026-05-02T14:35:13Z</time></trkpt><trkpt lat="44.68818053506625" lon="9.32269514461122"><ele>404.0</ele><time>2026-05-02T14:35:14Z</time></trkpt><trkpt lat="44.68823112052909" lon="9.322838857370481"><ele>404.0</ele><time>2026-05-02T14:35:15Z</time></trkpt><trkpt lat="44.68828557678123" lon="9.322937942567002"><ele>404.0</ele><time>2026-05-02T14:35:16Z</time></trkpt><trkpt lat="44.68837706980618" lon="9.323012043262345"><ele>404.0</ele><time>2026-05-02T14:35:17Z</time></trkpt><trkpt lat="44.68851190970443" lon="9.32307270621179"><ele>400.75</ele><time>2026-05-02T14:35:18Z</time></trkpt><trkpt lat="44.68865804266467" lon="9.32312243333461"><ele>397.5</ele><time>2026-05-02T14:35:19Z</time></trkpt><trkpt lat="44.68877827980407" lon="9.323149307478403"><ele>394.25</ele><time>2026-05-02T14:35:20Z</time></trkpt><trkpt lat="44.68888403464408" lon="9.323196811291439"><ele>391.0</ele><time>2026-05-02T14:35:21Z</time></trkpt><trkpt lat="44.688962114368486" lon="9.323313638417956"><ele>391.0</ele><time>2026-05-02T14:35:22Z</time></trkpt><trkpt lat="44.68903797500519" lon="9.323459525601725"><ele>391.0</ele><time>2026-05-02T14:35:23Z</time></trkpt><trkpt lat="44.689125452176505" lon="9.323611646937334"><ele>391.0</ele><time>2026-05-02T14:35:24Z</time></trkpt><trkpt lat="44.689198386806254" lon="9.323751836036609"><ele>391.0</ele><time>2026-05-02T14:35:25Z</time></trkpt><trkpt lat="44.68925236724193" lon="9.323889370011964"><ele>391.6</ele><time>2026-05-02T14:35:26Z</time></trkpt><trkpt lat="44.68926516680716" lon="9.324038887313822"><ele>392.20000000000005</ele><time>2026-05-02T14:35:27Z</time></trkpt><trkpt lat="44.68926407415161" lon="9.324200132214154"><ele>392.79999999999995</ele><time>2026-05-02T14:35:28Z</time></trkpt><trkpt lat="44.689269753051356" lon="9.324364715161751"><ele>393.4</ele><time>2026-05-02T14:35:29Z</time></trkpt><trkpt lat="44.68927529656275" lon="9.324518403160154"><ele>394.0</ele><time>2026-05-02T14:35:30Z</time></trkpt><trkpt lat="44.68928065716718" lon="9.324657422341595"><ele>393.6</ele><time>2026-05-02T14:35:31Z</time></trkpt><trkpt lat="44.68928831452526" lon="9.324798011184098"><ele>393.2</ele><time>2026-05-02T14:35:32Z</time></trkpt><trkpt lat="44.68929588170429" lon="9.324918041116527"><ele>392.8</ele><time>2026-05-02T14:35:33Z</time></trkpt><trkpt lat="44.689302934519084" lon="9.325033811341273"><ele>392.40000000000003</ele><time>2026-05-02T14:35:34Z</time></trkpt><trkpt lat="44.6893092675766" lon="9.325158421612786"><ele>392.0</ele><time>2026-05-02T14:35:35Z</time></trkpt><trkpt lat="44.68932904728725" lon="9.325291997332831"><ele>392.0</ele><time>2026-05-02T14:35:36Z</time></trkpt><trkpt lat="44.68932236140166" lon="9.325445045201917"><ele>392.0</ele><time>2026-05-02T14:35:37Z</time></trkpt><trkpt lat="44.68932353482664" lon="9.325595070700748"><ele>392.0</ele><time>2026-05-02T14:35:38Z</time></trkpt><trkpt lat="44.689316964686824" lon="9.325735033984627"><ele>392.0</ele><time>2026-05-02T14:35:39Z</time></trkpt><trkpt lat="44.68930435584705" lon="9.325872669743044"><ele>392.0</ele><time>2026-05-02T14:35:40Z</time></trkpt><trkpt lat="44.68929027277961" lon="9.326009596463228"><ele>391.40000000000003</ele><time>2026-05-02T14:35:41Z</time></trkpt><trkpt lat="44.689269993669974" lon="9.326149850599894"><ele>390.8</ele><time>2026-05-02T14:35:42Z</time></trkpt><trkpt lat="44.6892391860881" lon="9.326293363784435"><ele>390.2</ele><time>2026-05-02T14:35:43Z</time></trkpt><trkpt lat="44.68920760366326" lon="9.326446064415022"><ele>389.6</ele><time>2026-05-02T14:35:44Z</time></trkpt><trkpt lat="44.68918300588637" lon="9.326616696990477"><ele>389.0</ele><time>2026-05-02T14:35:45Z</time></trkpt><trkpt lat="44.68916564053989" lon="9.326809202199305"><ele>388.0</ele><time>2026-05-02T14:35:46Z</time></trkpt><trkpt lat="44.68914990862602" lon="9.32701679937873"><ele>387.0</ele><time>2026-05-02T14:35:47Z</time></trkpt><trkpt lat="44.689132810096645" lon="9.327203798804241"><ele>386.0</ele><time>2026-05-02T14:35:48Z</time></trkpt><trkpt lat="44.68910127428502" lon="9.32736908338862"><ele>385.0</ele><time>2026-05-02T14:35:49Z</time></trkpt><trkpt lat="44.6890851571794" lon="9.327552605227478"><ele>382.6666666666667</ele><time>2026-05-02T14:35:50Z</time></trkpt><trkpt lat="44.689063242971905" lon="9.32778323280551"><ele>380.33333333333337</ele><time>2026-05-02T14:35:51Z</time></trkpt><trkpt lat="44.6890248786428" lon="9.328022105017942"><ele>378.0</ele><time>2026-05-02T14:35:52Z</time></trkpt><trkpt lat="44.68896788010652" lon="9.328252235999939"><ele>377.0</ele><time>2026-05-02T14:35:53Z</time></trkpt><trkpt lat="44.688924454591444" lon="9.328453627312857"><ele>376.0</ele><time>2026-05-02T14:35:54Z</time></trkpt><trkpt lat="44.68888667845918" lon="9.328611705196781"><ele>375.0</ele><time>2026-05-02T14:35:55Z</time></trkpt><trkpt lat="44.688871605618" lon="9.328735319414491"><ele>374.0</ele><time>2026-05-02T14:35:56Z</time></trkpt><trkpt lat="44.68888169331579" lon="9.328840280181296"><ele>373.0</ele><time>2026-05-02T14:35:57Z</time></trkpt><trkpt lat="44.68890013234455" lon="9.328938133553192"><ele>371.25</ele><time>2026-05-02T14:35:58Z</time></trkpt><trkpt lat="44.68899618763153" lon="9.328991129070815"><ele>369.5</ele><time>2026-05-02T14:35:59Z</time></trkpt><trkpt lat="44.68909128394153" lon="9.329046994811684"><ele>367.75</ele><time>2026-05-02T14:36:00Z</time></trkpt><trkpt lat="44.689220492992405" lon="9.329124137979013"><ele>366.0</ele><time>2026-05-02T14:36:01Z</time></trkpt><trkpt lat="44.689366075528866" lon="9.329212757991456"><ele>369.0</ele><time>2026-05-02T14:36:02Z</time></trkpt><trkpt lat="44.68951000746361" lon="9.329305157267203"><ele>372.0</ele><time>2026-05-02T14:36:03Z</time></trkpt><trkpt lat="44.6896504214945" lon="9.32938985099384"><ele>375.0</ele><time>2026-05-02T14:36:04Z</time></trkpt><trkpt lat="44.68980197901531" lon="9.329486110756608"><ele>375.0</ele><time>2026-05-02T14:36:05Z</time></trkpt><trkpt lat="44.689951921313636" lon="9.329579686970847"><ele>375.0</ele><time>2026-05-02T14:36:06Z</time></trkpt><trkpt lat="44.69007052709058" lon="9.32965891229229"><ele>375.0</ele><time>2026-05-02T14:36:07Z</time></trkpt><trkpt lat="44.690158921825834" lon="9.32974559371602"><ele>375.0</ele><time>2026-05-02T14:36:08Z</time></trkpt><trkpt lat="44.69021244216066" lon="9.329867770202316"><ele>375.0</ele><time>2026-05-02T14:36:09Z</time></trkpt><trkpt lat="44.69020768202838" lon="9.330034119534504"><ele>375.0</ele><time>2026-05-02T14:36:10Z</time></trkpt><trkpt lat="44.69021205423297" lon="9.33022661920372"><ele>375.0</ele><time>2026-05-02T14:36:11Z</time></trkpt><trkpt lat="44.69021643071119" lon="9.330441772725274"><ele>375.0</ele><time>2026-05-02T14:36:12Z</time></trkpt><trkpt lat="44.6901890092985" lon="9.330653533691871"><ele>375.0</ele><time>2026-05-02T14:36:13Z</time></trkpt><trkpt lat="44.690157894609136" lon="9.330853275887893"><ele>375.0</ele><time>2026-05-02T14:36:14Z</time></trkpt><trkpt lat="44.69014635440231" lon="9.331043440125445"><ele>375.0</ele><time>2026-05-02T14:36:15Z</time></trkpt><trkpt lat="44.69015818786645" lon="9.331240699142205"><ele>375.0</ele><time>2026-05-02T14:36:16Z</time></trkpt><trkpt lat="44.69018353693122" lon="9.331424652415834"><ele>376.0</ele><time>2026-05-02T14:36:17Z</time></trkpt><trkpt lat="44.6902318566942" lon="9.331596893064741"><ele>377.0</ele><time>2026-05-02T14:36:18Z</time></trkpt><trkpt lat="44.69032225590886" lon="9.33176331337303"><ele>378.0</ele><time>2026-05-02T14:36:19Z</time></trkpt><trkpt lat="44.690434188632004" lon="9.331924348535582"><ele>379.0</ele><time>2026-05-02T14:36:20Z</time></trkpt><trkpt lat="44.690522286957055" lon="9.332053525077681"><ele>383.5</ele><time>2026-05-02T14:36:21Z</time></trkpt><trkpt lat="44.6905955370744" lon="9.332164293874794"><ele>388.0</ele><time>2026-05-02T14:36:22Z</time></trkpt><trkpt lat="44.69068645400699" lon="9.332253186923328"><ele>392.5</ele><time>2026-05-02T14:36:23Z</time></trkpt><trkpt lat="44.69080616197742" lon="9.332296874533588"><ele>397.0</ele><time>2026-05-02T14:36:24Z</time></trkpt><trkpt lat="44.69092059640289" lon="9.33230953837468"><ele>397.00000000000006</ele><time>2026-05-02T14:36:25Z</time></trkpt><trkpt lat="44.69100315895841" lon="9.33233104813001"><ele>397.0</ele><time>2026-05-02T14:36:26Z</time></trkpt><trkpt lat="44.69104310245167" lon="9.332406784173113"><ele>397.0</ele><time>2026-05-02T14:36:27Z</time></trkpt><trkpt lat="44.69104268411873" lon="9.332525066100706"><ele>397.0</ele><time>2026-05-02T14:36:28Z</time></trkpt><trkpt lat="44.691001702217065" lon="9.332660787977877"><ele>397.00000000000006</ele><time>2026-05-02T14:36:29Z</time></trkpt><trkpt lat="44.69093313345504" lon="9.332745314363011"><ele>397.0</ele><time>2026-05-02T14:36:30Z</time></trkpt><trkpt lat="44.690840804312685" lon="9.332752371800044"><ele>397.0</ele><time>2026-05-02T14:36:31Z</time></trkpt><trkpt lat="44.69071282523571" lon="9.33272803566781"><ele>397.0</ele><time>2026-05-02T14:36:32Z</time></trkpt><trkpt lat="44.690561028472295" lon="9.332726476676292"><ele>397.0</ele><time>2026-05-02T14:36:33Z</time></trkpt><trkpt lat="44.690424078577315" lon="9.33275265820669"><ele>397.0</ele><time>2026-05-02T14:36:34Z</time></trkpt><trkpt lat="44.69030914919645" lon="9.3328234347303"><ele>396.6</ele><time>2026-05-02T14:36:35Z</time></trkpt><trkpt lat="44.690218324353815" lon="9.332901580749228"><ele>396.20000000000005</ele><time>2026-05-02T14:36:36Z</time></trkpt><trkpt lat="44.6901505553985" lon="9.332979314638274"><ele>395.8</ele><time>2026-05-02T14:36:37Z</time></trkpt><trkpt lat="44.69010685263121" lon="9.333079845612497"><ele>395.4</ele><time>2026-05-02T14:36:38Z</time></trkpt><trkpt lat="44.69008831383983" lon="9.333235366014788"><ele>395.0</ele><time>2026-05-02T14:36:39Z</time></trkpt><trkpt lat="44.69009952620958" lon="9.333429966047131"><ele>395.0</ele><time>2026-05-02T14:36:40Z</time></trkpt><trkpt lat="44.690130205913555" lon="9.333651171526187"><ele>395.0</ele><time>2026-05-02T14:36:41Z</time></trkpt><trkpt lat="44.690154237035514" lon="9.333856788184214"><ele>395.0</ele><time>2026-05-02T14:36:42Z</time></trkpt><trkpt lat="44.69015615407001" lon="9.334053145959523"><ele>395.0</ele><time>2026-05-02T14:36:43Z</time></trkpt><trkpt lat="44.6901513647214" lon="9.334234379211983"><ele>395.5</ele><time>2026-05-02T14:36:44Z</time></trkpt><trkpt lat="44.69017473853401" lon="9.334393773972375"><ele>396.0</ele><time>2026-05-02T14:36:45Z</time></trkpt><trkpt lat="44.69024017537842" lon="9.334557940700464"><ele>396.5</ele><time>2026-05-02T14:36:46Z</time></trkpt><trkpt lat="44.690345157772015" lon="9.334728138801408"><ele>397.0</ele><time>2026-05-02T14:36:47Z</time></trkpt><trkpt lat="44.69043943249338" lon="9.334919875432814"><ele>405.33333333333337</ele><time>2026-05-02T14:36:48Z</time></trkpt><trkpt lat="44.69051703006457" lon="9.335096949225713"><ele>413.66666666666663</ele><time>2026-05-02T14:36:49Z</time></trkpt><trkpt lat="44.69055336913008" lon="9.335285928045426"><ele>422.0</ele><time>2026-05-02T14:36:50Z</time></trkpt><trkpt lat="44.690544806929644" lon="9.33552973683081"><ele>423.3333333333333</ele><time>2026-05-02T14:36:51Z</time></trkpt><trkpt lat="44.69054775472304" lon="9.335781736535214"><ele>424.66666666666663</ele><time>2026-05-02T14:36:52Z</time></trkpt><trkpt lat="44.69054863528274" lon="9.335998159458734"><ele>426.0</ele><time>2026-05-02T14:36:53Z</time></trkpt><trkpt lat="44.69054953443303" lon="9.336204437150673"><ele>425.25</ele><time>2026-05-02T14:36:54Z</time></trkpt><trkpt lat="44.69056567729466" lon="9.336400274258768"><ele>424.5</ele><time>2026-05-02T14:36:55Z</time></trkpt><trkpt lat="44.690540559458704" lon="9.336578069280526"><ele>423.75</ele><time>2026-05-02T14:36:56Z</time></trkpt><trkpt lat="44.690537668894144" lon="9.336765097980178"><ele>423.0</ele><time>2026-05-02T14:36:57Z</time></trkpt><trkpt lat="44.69051001709847" lon="9.336934955818558"><ele>423.0</ele><time>2026-05-02T14:36:58Z</time></trkpt><trkpt lat="44.69049106161144" lon="9.337084806827248"><ele>423.0</ele><time>2026-05-02T14:36:59Z</time></trkpt><trkpt lat="44.69050997745998" lon="9.337223322254937"><ele>423.0</ele><time>2026-05-02T14:37:00Z</time></trkpt><trkpt lat="44.690578890915106" lon="9.337366819294614"><ele>423.0</ele><time>2026-05-02T14:37:01Z</time></trkpt><trkpt lat="44.690684147718834" lon="9.337520881736328"><ele>422.0</ele><time>2026-05-02T14:37:02Z</time></trkpt><trkpt lat="44.690803525129546" lon="9.337675692627638"><ele>421.0</ele><time>2026-05-02T14:37:03Z</time></trkpt><trkpt lat="44.6909209232527" lon="9.337792873035777"><ele>420.0</ele><time>2026-05-02T14:37:04Z</time></trkpt><trkpt lat="44.691060995380774" lon="9.337871630390419"><ele>422.25</ele><time>2026-05-02T14:37:05Z</time></trkpt><trkpt lat="44.6912232651024" lon="9.337913796839915"><ele>424.5</ele><time>2026-05-02T14:37:06Z</time></trkpt><trkpt lat="44.69137234120172" lon="9.33793530668964"><ele>426.75</ele><time>2026-05-02T14:37:07Z</time></trkpt><trkpt lat="44.69150035785592" lon="9.337968467908523"><ele>429.0</ele><time>2026-05-02T14:37:08Z</time></trkpt><trkpt lat="44.69160764668182" lon="9.33801421343661"><ele>427.2</ele><time>2026-05-02T14:37:09Z</time></trkpt><trkpt lat="44.69169816761522" lon="9.338078694054436"><ele>425.4</ele><time>2026-05-02T14:37:10Z</time></trkpt><trkpt lat="44.69173898117263" lon="9.338224825669418"><ele>423.6</ele><time>2026-05-02T14:37:11Z</time></trkpt><trkpt lat="44.691783179250606" lon="9.338370908573863"><ele>421.8</ele><time>2026-05-02T14:37:12Z</time></trkpt><trkpt lat="44.69180135578068" lon="9.338515804039956"><ele>420.0</ele><time>2026-05-02T14:37:13Z</time></trkpt><trkpt lat="44.69179691822085" lon="9.338648752589028"><ele>420.0</ele><time>2026-05-02T14:37:14Z</time></trkpt><trkpt lat="44.69169842354381" lon="9.338753967619875"><ele>420.0</ele><time>2026-05-02T14:37:15Z</time></trkpt><trkpt lat="44.69161123745585" lon="9.338909441448399"><ele>420.0</ele><time>2026-05-02T14:37:16Z</time></trkpt><trkpt lat="44.69151936653618" lon="9.339078956528466"><ele>420.0</ele><time>2026-05-02T14:37:17Z</time></trkpt><trkpt lat="44.691443175353" lon="9.33922421631737"><ele>420.2</ele><time>2026-05-02T14:37:18Z</time></trkpt><trkpt lat="44.691402273225556" lon="9.339353368065405"><ele>420.4</ele><time>2026-05-02T14:37:19Z</time></trkpt><trkpt lat="44.691395833666014" lon="9.339479850539464"><ele>420.6</ele><time>2026-05-02T14:37:20Z</time></trkpt><trkpt lat="44.691433903209415" lon="9.339611181401187"><ele>420.8</ele><time>2026-05-02T14:37:21Z</time></trkpt><trkpt lat="44.691517933373845" lon="9.339743588469435"><ele>421.0</ele><time>2026-05-02T14:37:22Z</time></trkpt><trkpt lat="44.691592456620924" lon="9.339890456756715"><ele>421.6666666666667</ele><time>2026-05-02T14:37:23Z</time></trkpt><trkpt lat="44.69156230060344" lon="9.340064579219472"><ele>422.33333333333337</ele><time>2026-05-02T14:37:24Z</time></trkpt><trkpt lat="44.69150875864754" lon="9.340265667298793"><ele>423.0</ele><time>2026-05-02T14:37:25Z</time></trkpt><trkpt lat="44.69144893487211" lon="9.340515101305273"><ele>422.75</ele><time>2026-05-02T14:37:26Z</time></trkpt><trkpt lat="44.691407015482326" lon="9.340720924646131"><ele>422.5</ele><time>2026-05-02T14:37:27Z</time></trkpt><trkpt lat="44.691380414380134" lon="9.340884038375878"><ele>422.25</ele><time>2026-05-02T14:37:28Z</time></trkpt><trkpt lat="44.69139812067141" lon="9.34106780397404"><ele>422.0</ele><time>2026-05-02T14:37:29Z</time></trkpt><trkpt lat="44.69145134463296" lon="9.341258002120021"><ele>420.75</ele><time>2026-05-02T14:37:30Z</time></trkpt><trkpt lat="44.69150946033637" lon="9.34144808769975"><ele>419.5</ele><time>2026-05-02T14:37:31Z</time></trkpt><trkpt lat="44.691539527725894" lon="9.341627839569274"><ele>418.25</ele><time>2026-05-02T14:37:32Z</time></trkpt><trkpt lat="44.69153104509522" lon="9.34180062456538"><ele>417.0</ele><time>2026-05-02T14:37:33Z</time></trkpt><trkpt lat="44.69147499521013" lon="9.341935625090079"><ele>417.0</ele><time>2026-05-02T14:37:34Z</time></trkpt><trkpt lat="44.69144855366091" lon="9.3420608426904"><ele>417.0</ele><time>2026-05-02T14:37:35Z</time></trkpt><trkpt lat="44.69144670483219" lon="9.342177086066554"><ele>417.0</ele><time>2026-05-02T14:37:36Z</time></trkpt><trkpt lat="44.69148764366558" lon="9.342295315092084"><ele>417.0</ele><time>2026-05-02T14:37:37Z</time></trkpt><trkpt lat="44.69156613028348" lon="9.342390519249033"><ele>417.0</ele><time>2026-05-02T14:37:38Z</time></trkpt><trkpt lat="44.69164971370671" lon="9.342472410047472"><ele>416.0</ele><time>2026-05-02T14:37:39Z</time></trkpt><trkpt lat="44.691774091578274" lon="9.34239991799674"><ele>415.0</ele><time>2026-05-02T14:37:40Z</time></trkpt><trkpt lat="44.69189064392656" lon="9.342341921565753"><ele>414.0</ele><time>2026-05-02T14:37:41Z</time></trkpt><trkpt lat="44.69200493800793" lon="9.342268518237056"><ele>413.0</ele><time>2026-05-02T14:37:42Z</time></trkpt><trkpt lat="44.692104511994216" lon="9.342156586176355"><ele>413.0</ele><time>2026-05-02T14:37:43Z</time></trkpt><trkpt lat="44.69221030573196" lon="9.341955974768293"><ele>413.0</ele><time>2026-05-02T14:37:44Z</time></trkpt><trkpt lat="44.692325339362405" lon="9.341769139266685"><ele>413.0</ele><time>2026-05-02T14:37:45Z</time></trkpt><trkpt lat="44.692449598721744" lon="9.341589248860068"><ele>413.0</ele><time>2026-05-02T14:37:46Z</time></trkpt><trkpt lat="44.69253500709938" lon="9.341416603922726"><ele>413.0</ele><time>2026-05-02T14:37:47Z</time></trkpt><trkpt lat="44.69262848880364" lon="9.341272789959607"><ele>413.0</ele><time>2026-05-02T14:37:48Z</time></trkpt><trkpt lat="44.692747232800045" lon="9.341189398511116"><ele>413.0</ele><time>2026-05-02T14:37:49Z</time></trkpt><trkpt lat="44.692894281174866" lon="9.341164486749392"><ele>412.75</ele><time>2026-05-02T14:37:50Z</time></trkpt><trkpt lat="44.693063435352116" lon="9.341164012887464"><ele>412.5</ele><time>2026-05-02T14:37:51Z</time></trkpt><trkpt lat="44.693214836933514" lon="9.341223236576191"><ele>412.25</ele><time>2026-05-02T14:37:52Z</time></trkpt><trkpt lat="44.69332788200818" lon="9.341292095470006"><ele>412.0</ele><time>2026-05-02T14:37:53Z</time></trkpt><trkpt lat="44.69339635210961" lon="9.341403804190582"><ele>412.0</ele><time>2026-05-02T14:37:54Z</time></trkpt><trkpt lat="44.69340549459321" lon="9.341541726538683"><ele>412.0</ele><time>2026-05-02T14:37:55Z</time></trkpt><trkpt lat="44.69341275160351" lon="9.341695095741173"><ele>412.0</ele><time>2026-05-02T14:37:56Z</time></trkpt><trkpt lat="44.69342924686533" lon="9.341809577416386"><ele>412.0</ele><time>2026-05-02T14:37:57Z</time></trkpt><trkpt lat="44.69339561971566" lon="9.341927624475133"><ele>412.0</ele><time>2026-05-02T14:37:58Z</time></trkpt><trkpt lat="44.69331271056734" lon="9.342045415971414"><ele>412.0</ele><time>2026-05-02T14:37:59Z</time></trkpt><trkpt lat="44.69319006662961" lon="9.342192925786106"><ele>412.0</ele><time>2026-05-02T14:38:00Z</time></trkpt><trkpt lat="44.69306987716074" lon="9.342389739417051"><ele>412.0</ele><time>2026-05-02T14:38:01Z</time></trkpt><trkpt lat="44.692960228435794" lon="9.342587652527087"><ele>410.33333333333337</ele><time>2026-05-02T14:38:02Z</time></trkpt><trkpt lat="44.69286826696366" lon="9.342794133707386"><ele>408.66666666666663</ele><time>2026-05-02T14:38:03Z</time></trkpt><trkpt lat="44.69280372387713" lon="9.343032189765546"><ele>407.0</ele><time>2026-05-02T14:38:04Z</time></trkpt><trkpt lat="44.69275523470484" lon="9.34325702077716"><ele>407.0</ele><time>2026-05-02T14:38:05Z</time></trkpt><trkpt lat="44.69268193528594" lon="9.34343806609891"><ele>407.0</ele><time>2026-05-02T14:38:06Z</time></trkpt><trkpt lat="44.692561390886524" lon="9.343601934774588"><ele>407.0</ele><time>2026-05-02T14:38:07Z</time></trkpt><trkpt lat="44.69242219459002" lon="9.343790206653507"><ele>419.3333333333333</ele><time>2026-05-02T14:38:08Z</time></trkpt><trkpt lat="44.692277921721185" lon="9.343969766317118"><ele>431.66666666666663</ele><time>2026-05-02T14:38:09Z</time></trkpt><trkpt lat="44.692115492169734" lon="9.344121908031825"><ele>444.0</ele><time>2026-05-02T14:38:10Z</time></trkpt><trkpt lat="44.69193831385117" lon="9.344264301624559"><ele>433.66666666666663</ele><time>2026-05-02T14:38:11Z</time></trkpt><trkpt lat="44.69177736701652" lon="9.344419880291627"><ele>423.3333333333333</ele><time>2026-05-02T14:38:12Z</time></trkpt><trkpt lat="44.69164448548241" lon="9.344555453427292"><ele>413.0</ele><time>2026-05-02T14:38:13Z</time></trkpt><trkpt lat="44.691533473608054" lon="9.344649953629009"><ele>413.0</ele><time>2026-05-02T14:38:14Z</time></trkpt><trkpt lat="44.69142020132462" lon="9.34469966975775"><ele>413.0</ele><time>2026-05-02T14:38:15Z</time></trkpt><trkpt lat="44.69131877485264" lon="9.344734850672166"><ele>413.0</ele><time>2026-05-02T14:38:16Z</time></trkpt><trkpt lat="44.69124170310593" lon="9.344826464604925"><ele>413.0</ele><time>2026-05-02T14:38:17Z</time></trkpt><trkpt lat="44.69117723101916" lon="9.344971029239412"><ele>413.0</ele><time>2026-05-02T14:38:18Z</time></trkpt><trkpt lat="44.69114305097532" lon="9.345163086321483"><ele>423.66666666666663</ele><time>2026-05-02T14:38:19Z</time></trkpt><trkpt lat="44.69112333269948" lon="9.345419831649497"><ele>434.33333333333337</ele><time>2026-05-02T14:38:20Z</time></trkpt><trkpt lat="44.69111428058472" lon="9.345664143703186"><ele>445.0</ele><time>2026-05-02T14:38:21Z</time></trkpt><trkpt lat="44.69110337508829" lon="9.345841588928424"><ele>447.25</ele><time>2026-05-02T14:38:22Z</time></trkpt><trkpt lat="44.69110859164825" lon="9.34598168876304"><ele>449.5</ele><time>2026-05-02T14:38:23Z</time></trkpt><trkpt lat="44.69115196194576" lon="9.346131972060306"><ele>451.75</ele><time>2026-05-02T14:38:24Z</time></trkpt><trkpt lat="44.69132505315449" lon="9.34625825409464"><ele>454.0</ele><time>2026-05-02T14:38:25Z</time></trkpt><trkpt lat="44.69145752142466" lon="9.346373874170629"><ele>452.2</ele><time>2026-05-02T14:38:26Z</time></trkpt><trkpt lat="44.69153700044505" lon="9.346450269224228"><ele>450.4</ele><time>2026-05-02T14:38:27Z</time></trkpt><trkpt lat="44.69157828144888" lon="9.346565456467758"><ele>448.6</ele><time>2026-05-02T14:38:28Z</time></trkpt><trkpt lat="44.69157672876345" lon="9.346697635876234"><ele>446.8</ele><time>2026-05-02T14:38:29Z</time></trkpt><trkpt lat="44.69152984174451" lon="9.346809406897275"><ele>445.0</ele><time>2026-05-02T14:38:30Z</time></trkpt><trkpt lat="44.69145922864601" lon="9.346936331008077"><ele>445.0</ele><time>2026-05-02T14:38:31Z</time></trkpt><trkpt lat="44.691402606968516" lon="9.347076417628275"><ele>445.0</ele><time>2026-05-02T14:38:32Z</time></trkpt><trkpt lat="44.69141024662986" lon="9.34724571858529"><ele>445.0</ele><time>2026-05-02T14:38:33Z</time></trkpt><trkpt lat="44.69148433509204" lon="9.347422105159538"><ele>445.0</ele><time>2026-05-02T14:38:34Z</time></trkpt><trkpt lat="44.69155814423451" lon="9.347593428189606"><ele>444.4</ele><time>2026-05-02T14:38:35Z</time></trkpt><trkpt lat="44.69163240863751" lon="9.347739219549167"><ele>443.8</ele><time>2026-05-02T14:38:36Z</time></trkpt><trkpt lat="44.69174636276779" lon="9.347798178673687"><ele>443.20000000000005</ele><time>2026-05-02T14:38:37Z</time></trkpt><trkpt lat="44.69181390772564" lon="9.347869957141684"><ele>442.6</ele><time>2026-05-02T14:38:38Z</time></trkpt><trkpt lat="44.69183306424756" lon="9.347977100795813"><ele>442.0</ele><time>2026-05-02T14:38:39Z</time></trkpt><trkpt lat="44.69181208401963" lon="9.348124099053932"><ele>440.25</ele><time>2026-05-02T14:38:40Z</time></trkpt><trkpt lat="44.69176407843514" lon="9.348307507026693"><ele>438.5</ele><time>2026-05-02T14:38:41Z</time></trkpt><trkpt lat="44.691697085821794" lon="9.348497637183906"><ele>436.75</ele><time>2026-05-02T14:38:42Z</time></trkpt><trkpt lat="44.691605329106" lon="9.34867973234401"><ele>435.0</ele><time>2026-05-02T14:38:43Z</time></trkpt><trkpt lat="44.69152990674165" lon="9.348826779969317"><ele>434.0</ele><time>2026-05-02T14:38:44Z</time></trkpt><trkpt lat="44.691501765257385" lon="9.348952301734963"><ele>433.0</ele><time>2026-05-02T14:38:45Z</time></trkpt><trkpt lat="44.69149401114003" lon="9.349102493169823"><ele>432.0</ele><time>2026-05-02T14:38:46Z</time></trkpt><trkpt lat="44.69155755827502" lon="9.34924915641885"><ele>431.0</ele><time>2026-05-02T14:38:47Z</time></trkpt><trkpt lat="44.69167887944112" lon="9.349354210771459"><ele>431.0</ele><time>2026-05-02T14:38:48Z</time></trkpt><trkpt lat="44.69181888084923" lon="9.349437587232295"><ele>431.0</ele><time>2026-05-02T14:38:49Z</time></trkpt><trkpt lat="44.69191948465191" lon="9.34949632045688"><ele>431.0</ele><time>2026-05-02T14:38:50Z</time></trkpt><trkpt lat="44.6919864778287" lon="9.349598938303446"><ele>431.0</ele><time>2026-05-02T14:38:51Z</time></trkpt><trkpt lat="44.69200270033381" lon="9.349774196316991"><ele>440.25</ele><time>2026-05-02T14:38:52Z</time></trkpt><trkpt lat="44.69204954729209" lon="9.349923665402997"><ele>449.5</ele><time>2026-05-02T14:38:53Z</time></trkpt><trkpt lat="44.69215893205007" lon="9.350048138626807"><ele>458.75</ele><time>2026-05-02T14:38:54Z</time></trkpt><trkpt lat="44.692277102305525" lon="9.350180775105201"><ele>468.0</ele><time>2026-05-02T14:38:55Z</time></trkpt><trkpt lat="44.692361635866376" lon="9.350353227222197"><ele>457.66666666666663</ele><time>2026-05-02T14:38:56Z</time></trkpt><trkpt lat="44.69241850760476" lon="9.350581936858218"><ele>447.3333333333333</ele><time>2026-05-02T14:38:57Z</time></trkpt><trkpt lat="44.69255444153894" lon="9.350758800882263"><ele>437.0</ele><time>2026-05-02T14:38:58Z</time></trkpt><trkpt lat="44.692692146233725" lon="9.35092216905645"><ele>444.5</ele><time>2026-05-02T14:38:59Z</time></trkpt><trkpt lat="44.692805006185665" lon="9.351057448146594"><ele>452.0</ele><time>2026-05-02T14:39:00Z</time></trkpt><trkpt lat="44.692875369331546" lon="9.35118671665417"><ele>459.5</ele><time>2026-05-02T14:39:01Z</time></trkpt><trkpt lat="44.692889619189636" lon="9.351366638762801"><ele>467.0</ele><time>2026-05-02T14:39:02Z</time></trkpt><trkpt lat="44.69292774248345" lon="9.351572460910024"><ele>467.0</ele><time>2026-05-02T14:39:03Z</time></trkpt><trkpt lat="44.69303064455248" lon="9.351761868212543"><ele>467.0</ele><time>2026-05-02T14:39:04Z</time></trkpt><trkpt lat="44.69314394176415" lon="9.35198391690322"><ele>467.0</ele><time>2026-05-02T14:39:05Z</time></trkpt><trkpt lat="44.693240198374426" lon="9.352191288001558"><ele>461.0</ele><time>2026-05-02T14:39:06Z</time></trkpt><trkpt lat="44.693295063775366" lon="9.352363112760672"><ele>455.0</ele><time>2026-05-02T14:39:07Z</time></trkpt><trkpt lat="44.6933099641886" lon="9.352538096415051"><ele>449.0</ele><time>2026-05-02T14:39:08Z</time></trkpt><trkpt lat="44.69327792031107" lon="9.352683902245051"><ele>443.0</ele><time>2026-05-02T14:39:09Z</time></trkpt><trkpt lat="44.693238463496655" lon="9.352875108196812"><ele>443.0</ele><time>2026-05-02T14:39:10Z</time></trkpt><trkpt lat="44.69323125507233" lon="9.353016800264477"><ele>442.99999999999994</ele><time>2026-05-02T14:39:11Z</time></trkpt><trkpt lat="44.69326350705347" lon="9.353148577021672"><ele>442.99999999999994</ele><time>2026-05-02T14:39:12Z</time></trkpt><trkpt lat="44.69335202244127" lon="9.353248322472595"><ele>443.0</ele><time>2026-05-02T14:39:13Z</time></trkpt><trkpt lat="44.6934836886861" lon="9.353266743485511"><ele>443.0</ele><time>2026-05-02T14:39:14Z</time></trkpt><trkpt lat="44.69361408772411" lon="9.353255229170625"><ele>447.0</ele><time>2026-05-02T14:39:15Z</time></trkpt><trkpt lat="44.69372801891137" lon="9.353232083368548"><ele>450.99999999999994</ele><time>2026-05-02T14:39:16Z</time></trkpt><trkpt lat="44.69381427073097" lon="9.353278194704489"><ele>454.99999999999994</ele><time>2026-05-02T14:39:17Z</time></trkpt><trkpt lat="44.69386968199843" lon="9.353374366588858"><ele>459.0</ele><time>2026-05-02T14:39:18Z</time></trkpt><trkpt lat="44.69393119542302" lon="9.353477496244823"><ele>463.0</ele><time>2026-05-02T14:39:19Z</time></trkpt><trkpt lat="44.69402107541232" lon="9.353543448408997"><ele>463.0</ele><time>2026-05-02T14:39:20Z</time></trkpt><trkpt lat="44.694158776614636" lon="9.353518473786666"><ele>463.0</ele><time>2026-05-02T14:39:21Z</time></trkpt><trkpt lat="44.694314094270005" lon="9.353475950653639"><ele>463.0</ele><time>2026-05-02T14:39:22Z</time></trkpt><trkpt lat="44.69443446877374" lon="9.353434169955662"><ele>463.0</ele><time>2026-05-02T14:39:23Z</time></trkpt><trkpt lat="44.694523620374405" lon="9.353426956151647"><ele>466.0</ele><time>2026-05-02T14:39:24Z</time></trkpt><trkpt lat="44.694599437759045" lon="9.353477869643497"><ele>468.99999999999994</ele><time>2026-05-02T14:39:25Z</time></trkpt><trkpt lat="44.69466179358094" lon="9.353576102644682"><ele>471.99999999999994</ele><time>2026-05-02T14:39:26Z</time></trkpt><trkpt lat="44.69468281108797" lon="9.353723975362474"><ele>475.0</ele><time>2026-05-02T14:39:27Z</time></trkpt><trkpt lat="44.69466379892045" lon="9.353908665261182"><ele>478.0</ele><time>2026-05-02T14:39:28Z</time></trkpt><trkpt lat="44.694658975852974" lon="9.354086402195898"><ele>478.0</ele><time>2026-05-02T14:39:29Z</time></trkpt><trkpt lat="44.69469902511538" lon="9.354248198320168"><ele>478.0</ele><time>2026-05-02T14:39:30Z</time></trkpt><trkpt lat="44.69478224885319" lon="9.354407269860333"><ele>478.0</ele><time>2026-05-02T14:39:31Z</time></trkpt><trkpt lat="44.694852901030835" lon="9.35456742429418"><ele>478.0</ele><time>2026-05-02T14:39:32Z</time></trkpt><trkpt lat="44.69486286161551" lon="9.354730409616186"><ele>475.25</ele><time>2026-05-02T14:39:33Z</time></trkpt><trkpt lat="44.694824866841095" lon="9.354913840480597"><ele>472.5</ele><time>2026-05-02T14:39:34Z</time></trkpt><trkpt lat="44.694786606179115" lon="9.355107717143417"><ele>469.75</ele><time>2026-05-02T14:39:35Z</time></trkpt><trkpt lat="44.69475126440436" lon="9.355297787080163"><ele>467.0</ele><time>2026-05-02T14:39:36Z</time></trkpt><trkpt lat="44.69472900180326" lon="9.35546729833382"><ele>467.6</ele><time>2026-05-02T14:39:37Z</time></trkpt><trkpt lat="44.69472298066305" lon="9.355606667786398"><ele>468.20000000000005</ele><time>2026-05-02T14:39:38Z</time></trkpt><trkpt lat="44.6947427961175" lon="9.355729906083374"><ele>468.8</ele><time>2026-05-02T14:39:39Z</time></trkpt><trkpt lat="44.694820153373826" lon="9.355839124217038"><ele>469.4</ele><time>2026-05-02T14:39:40Z</time></trkpt><trkpt lat="44.69488521705845" lon="9.355952848490343"><ele>470.0</ele><time>2026-05-02T14:39:41Z</time></trkpt><trkpt lat="44.69491061331255" lon="9.356072798813871"><ele>470.0</ele><time>2026-05-02T14:39:42Z</time></trkpt><trkpt lat="44.694912234179185" lon="9.356201064608339"><ele>470.0</ele><time>2026-05-02T14:39:43Z</time></trkpt><trkpt lat="44.69486824810738" lon="9.356358395946646"><ele>470.0</ele><time>2026-05-02T14:39:44Z</time></trkpt><trkpt lat="44.694849078553034" lon="9.356542823885434"><ele>470.0</ele><time>2026-05-02T14:39:45Z</time></trkpt><trkpt lat="44.69481328001007" lon="9.356721154969392"><ele>470.75</ele><time>2026-05-02T14:39:46Z</time></trkpt><trkpt lat="44.69475433675982" lon="9.356895524895325"><ele>471.5</ele><time>2026-05-02T14:39:47Z</time></trkpt><trkpt lat="44.694705884111585" lon="9.35706967591171"><ele>472.25</ele><time>2026-05-02T14:39:48Z</time></trkpt><trkpt lat="44.694667511806216" lon="9.357208790723838"><ele>473.0</ele><time>2026-05-02T14:39:49Z</time></trkpt><trkpt lat="44.69464736944042" lon="9.357317008965994"><ele>475.59999999999997</ele><time>2026-05-02T14:39:50Z</time></trkpt><trkpt lat="44.694612276618834" lon="9.357397256019446"><ele>478.19999999999993</ele><time>2026-05-02T14:39:51Z</time></trkpt><trkpt lat="44.69455958542052" lon="9.357483417021154"><ele>480.8</ele><time>2026-05-02T14:39:52Z</time></trkpt><trkpt lat="44.69446554030626" lon="9.357549900538855"><ele>483.4</ele><time>2026-05-02T14:39:53Z</time></trkpt><trkpt lat="44.69435911038059" lon="9.357623737682069"><ele>486.0</ele><time>2026-05-02T14:39:54Z</time></trkpt><trkpt lat="44.69424358984715" lon="9.35770276731137"><ele>482.20000000000005</ele><time>2026-05-02T14:39:55Z</time></trkpt><trkpt lat="44.694137605894575" lon="9.35778705366793"><ele>478.40000000000003</ele><time>2026-05-02T14:39:56Z</time></trkpt><trkpt lat="44.69405174008946" lon="9.35789632791904"><ele>474.6</ele><time>2026-05-02T14:39:57Z</time></trkpt><trkpt lat="44.693988531001224" lon="9.358021048893553"><ele>470.8</ele><time>2026-05-02T14:39:58Z</time></trkpt><trkpt lat="44.69393470394066" lon="9.358138081184366"><ele>467.0</ele><time>2026-05-02T14:39:59Z</time></trkpt><trkpt lat="44.69389746620351" lon="9.358249581635675"><ele>467.0</ele><time>2026-05-02T14:40:00Z</time></trkpt><trkpt lat="44.69389530510593" lon="9.358366402999193"><ele>467.00000000000006</ele><time>2026-05-02T14:40:01Z</time></trkpt><trkpt lat="44.69391656714901" lon="9.358487930333736"><ele>467.00000000000006</ele><time>2026-05-02T14:40:02Z</time></trkpt><trkpt lat="44.69400101052623" lon="9.358589048672256"><ele>467.0</ele><time>2026-05-02T14:40:03Z</time></trkpt><trkpt lat="44.69407344604069" lon="9.358699632521981"><ele>467.0</ele><time>2026-05-02T14:40:04Z</time></trkpt><trkpt lat="44.69414245215926" lon="9.358821437056775"><ele>468.20000000000005</ele><time>2026-05-02T14:40:05Z</time></trkpt><trkpt lat="44.69420945803495" lon="9.358945771405523"><ele>469.40000000000003</ele><time>2026-05-02T14:40:06Z</time></trkpt><trkpt lat="44.6942735078675" lon="9.359060215020019"><ele>470.59999999999997</ele><time>2026-05-02T14:40:07Z</time></trkpt><trkpt lat="44.69433330807383" lon="9.359162945024611"><ele>471.79999999999995</ele><time>2026-05-02T14:40:08Z</time></trkpt><trkpt lat="44.694397969156306" lon="9.359255526267768"><ele>473.0</ele><time>2026-05-02T14:40:09Z</time></trkpt><trkpt lat="44.694473596953" lon="9.359325274429954"><ele>473.0</ele><time>2026-05-02T14:40:10Z</time></trkpt><trkpt lat="44.69456404973138" lon="9.359341511725095"><ele>472.99999999999994</ele><time>2026-05-02T14:40:11Z</time></trkpt><trkpt lat="44.69466027392894" lon="9.359314145434157"><ele>472.99999999999994</ele><time>2026-05-02T14:40:12Z</time></trkpt><trkpt lat="44.694764793617196" lon="9.359273660928574"><ele>473.0</ele><time>2026-05-02T14:40:13Z</time></trkpt><trkpt lat="44.69488509734708" lon="9.359247745952459"><ele>473.0</ele><time>2026-05-02T14:40:14Z</time></trkpt><trkpt lat="44.695004233560795" lon="9.359219594672705"><ele>473.0</ele><time>2026-05-02T14:40:15Z</time></trkpt><trkpt lat="44.69510070102544" lon="9.35918438773314"><ele>472.99999999999994</ele><time>2026-05-02T14:40:16Z</time></trkpt><trkpt lat="44.695187131552984" lon="9.35915635361628"><ele>472.99999999999994</ele><time>2026-05-02T14:40:17Z</time></trkpt><trkpt lat="44.69526966285337" lon="9.35913334929992"><ele>473.0</ele><time>2026-05-02T14:40:18Z</time></trkpt><trkpt lat="44.6953527971017" lon="9.359129782533113"><ele>473.0</ele><time>2026-05-02T14:40:19Z</time></trkpt><trkpt lat="44.69543916835253" lon="9.35918765820875"><ele>474.4</ele><time>2026-05-02T14:40:20Z</time></trkpt><trkpt lat="44.69552576698205" lon="9.35930413429136"><ele>475.79999999999995</ele><time>2026-05-02T14:40:21Z</time></trkpt><trkpt lat="44.69557483599607" lon="9.359449245016657"><ele>477.2</ele><time>2026-05-02T14:40:22Z</time></trkpt><trkpt lat="44.69558976724125" lon="9.359593655743355"><ele>478.6</ele><time>2026-05-02T14:40:23Z</time></trkpt><trkpt lat="44.69558032974339" lon="9.359734427326734"><ele>480.0</ele><time>2026-05-02T14:40:24Z</time></trkpt><trkpt lat="44.69555847812901" lon="9.359886245554426"><ele>480.0</ele><time>2026-05-02T14:40:25Z</time></trkpt><trkpt lat="44.695507647838404" lon="9.360050761115966"><ele>480.0</ele><time>2026-05-02T14:40:26Z</time></trkpt><trkpt lat="44.69546172872233" lon="9.36019348279257"><ele>480.0</ele><time>2026-05-02T14:40:27Z</time></trkpt><trkpt lat="44.695433786746094" lon="9.360325453809372"><ele>480.0</ele><time>2026-05-02T14:40:28Z</time></trkpt><trkpt lat="44.69539485866081" lon="9.36045727595052"><ele>480.0</ele><time>2026-05-02T14:40:29Z</time></trkpt><trkpt lat="44.69536220309191" lon="9.360594392932173"><ele>479.6</ele><time>2026-05-02T14:40:30Z</time></trkpt><trkpt lat="44.695330471760506" lon="9.360723568692787"><ele>479.2</ele><time>2026-05-02T14:40:31Z</time></trkpt><trkpt lat="44.695304243074695" lon="9.36085550648347"><ele>478.79999999999995</ele><time>2026-05-02T14:40:32Z</time></trkpt><trkpt lat="44.695288419802814" lon="9.360987370246356"><ele>478.4</ele><time>2026-05-02T14:40:33Z</time></trkpt><trkpt lat="44.69528913991709" lon="9.361118998737254"><ele>478.0</ele><time>2026-05-02T14:40:34Z</time></trkpt><trkpt lat="44.695287680018595" lon="9.361253525597277"><ele>479.2</ele><time>2026-05-02T14:40:35Z</time></trkpt><trkpt lat="44.69533056345672" lon="9.361379938037029"><ele>480.4</ele><time>2026-05-02T14:40:36Z</time></trkpt><trkpt lat="44.695358033822814" lon="9.361508293506002"><ele>481.59999999999997</ele><time>2026-05-02T14:40:37Z</time></trkpt><trkpt lat="44.69538080679274" lon="9.361641344156789"><ele>482.79999999999995</ele><time>2026-05-02T14:40:38Z</time></trkpt><trkpt lat="44.695373958255445" lon="9.361783494694672"><ele>484.0</ele><time>2026-05-02T14:40:39Z</time></trkpt><trkpt lat="44.69536799853786" lon="9.361929969422558"><ele>484.0</ele><time>2026-05-02T14:40:40Z</time></trkpt><trkpt lat="44.69530565356864" lon="9.362049984404996"><ele>484.0</ele><time>2026-05-02T14:40:41Z</time></trkpt><trkpt lat="44.69521658686763" lon="9.36211976965594"><ele>484.0</ele><time>2026-05-02T14:40:42Z</time></trkpt><trkpt lat="44.69511284155139" lon="9.362152682675756"><ele>484.0</ele><time>2026-05-02T14:40:43Z</time></trkpt><trkpt lat="44.69501151793917" lon="9.362188963150484"><ele>484.0</ele><time>2026-05-02T14:40:44Z</time></trkpt><trkpt lat="44.69492005690927" lon="9.362249618417884"><ele>480.1666666666667</ele><time>2026-05-02T14:40:45Z</time></trkpt><trkpt lat="44.694851428972534" lon="9.36230629476699"><ele>476.33333333333337</ele><time>2026-05-02T14:40:46Z</time></trkpt><trkpt lat="44.694789674276926" lon="9.362356410520324"><ele>472.5</ele><time>2026-05-02T14:40:47Z</time></trkpt><trkpt lat="44.69473394908281" lon="9.362506305413925"><ele>468.66666666666663</ele><time>2026-05-02T14:40:48Z</time></trkpt><trkpt lat="44.69469121297985" lon="9.36259321259266"><ele>464.8333333333333</ele><time>2026-05-02T14:40:49Z</time></trkpt><trkpt lat="44.6946518886795" lon="9.36267668672"><ele>461.0</ele><time>2026-05-02T14:40:50Z</time></trkpt><trkpt lat="44.69460120861377" lon="9.362798448954926"><ele>460.99999999999994</ele><time>2026-05-02T14:40:52Z</time></trkpt><trkpt lat="44.69456792739628" lon="9.362905026303089"><ele>461.0</ele><time>2026-05-02T14:40:54Z</time></trkpt><trkpt lat="44.69457199214045" lon="9.363014010889492"><ele>461.0</ele><time>2026-05-02T14:40:56Z</time></trkpt><trkpt lat="44.69459191314287" lon="9.363143682880755"><ele>461.0</ele><time>2026-05-02T14:40:59Z</time></trkpt><trkpt lat="44.69461147954402" lon="9.363250066053217"><ele>460.99999999999994</ele><time>2026-05-02T14:41:02Z</time></trkpt><trkpt lat="44.69462835180666" lon="9.363385815971762"><ele>461.0</ele><time>2026-05-02T14:41:05Z</time></trkpt><trkpt lat="44.694602318878765" lon="9.363508839028936"><ele>462.49999999999994</ele><time>2026-05-02T14:41:09Z</time></trkpt><trkpt lat="44.69456302690964" lon="9.363578606494794"><ele>464.0</ele><time>2026-05-02T14:41:12Z</time></trkpt><trkpt lat="44.6944871399611" lon="9.3636133072485"><ele>465.5</ele><time>2026-05-02T14:41:17Z</time></trkpt><trkpt lat="44.69439776103427" lon="9.363656268294685"><ele>467.0</ele><time>2026-05-02T14:41:19Z</time></trkpt><trkpt lat="44.69431819485794" lon="9.363697947368044"><ele>468.49999999999994</ele><time>2026-05-02T14:41:21Z</time></trkpt><trkpt lat="44.69425950609902" lon="9.363785683143938"><ele>470.0</ele><time>2026-05-02T14:41:23Z</time></trkpt><trkpt lat="44.69425105339645" lon="9.36395310407542"><ele>465.2</ele><time>2026-05-02T14:41:25Z</time></trkpt><trkpt lat="44.69428962191158" lon="9.364040102166879"><ele>460.4</ele><time>2026-05-02T14:41:26Z</time></trkpt><trkpt lat="44.69438241387555" lon="9.364060317503826"><ele>455.6</ele><time>2026-05-02T14:41:27Z</time></trkpt><trkpt lat="44.69447848543784" lon="9.364051574584206"><ele>450.8</ele><time>2026-05-02T14:41:28Z</time></trkpt><trkpt lat="44.694578330500725" lon="9.364024135422135"><ele>446.0</ele><time>2026-05-02T14:41:29Z</time></trkpt><trkpt lat="44.69467971473503" lon="9.364003416560466"><ele>446.0</ele><time>2026-05-02T14:41:30Z</time></trkpt><trkpt lat="44.694787975694624" lon="9.363985088170864"><ele>446.0</ele><time>2026-05-02T14:41:31Z</time></trkpt><trkpt lat="44.69490253834782" lon="9.363964738425466"><ele>446.0</ele><time>2026-05-02T14:41:32Z</time></trkpt><trkpt lat="44.695012973369494" lon="9.36394230939955"><ele>446.0</ele><time>2026-05-02T14:41:33Z</time></trkpt><trkpt lat="44.69512069158597" lon="9.363923609259773"><ele>446.0</ele><time>2026-05-02T14:41:34Z</time></trkpt><trkpt lat="44.695228082925176" lon="9.363906663159746"><ele>444.4</ele><time>2026-05-02T14:41:35Z</time></trkpt><trkpt lat="44.6953348244112" lon="9.363887498281642"><ele>442.8</ele><time>2026-05-02T14:41:36Z</time></trkpt><trkpt lat="44.69543949143302" lon="9.363867565373507"><ele>441.19999999999993</ele><time>2026-05-02T14:41:37Z</time></trkpt><trkpt lat="44.69554930686952" lon="9.363847433948209"><ele>439.59999999999997</ele><time>2026-05-02T14:41:38Z</time></trkpt><trkpt lat="44.69565918326286" lon="9.363835108299755"><ele>438.0</ele><time>2026-05-02T14:41:39Z</time></trkpt><trkpt lat="44.69576704507217" lon="9.363840474347654"><ele>438.0</ele><time>2026-05-02T14:41:40Z</time></trkpt><trkpt lat="44.695877416763125" lon="9.363874938481578"><ele>438.0</ele><time>2026-05-02T14:41:41Z</time></trkpt><trkpt lat="44.69597546710387" lon="9.363957989855626"><ele>438.0</ele><time>2026-05-02T14:41:42Z</time></trkpt><trkpt lat="44.69609503558837" lon="9.363990725527106"><ele>438.0</ele><time>2026-05-02T14:41:43Z</time></trkpt><trkpt lat="44.69621617870483" lon="9.36402379426257"><ele>439.2</ele><time>2026-05-02T14:41:44Z</time></trkpt><trkpt lat="44.696325838900684" lon="9.364026431936477"><ele>440.4</ele><time>2026-05-02T14:41:45Z</time></trkpt><trkpt lat="44.69642582480117" lon="9.364033677031465"><ele>441.59999999999997</ele><time>2026-05-02T14:41:46Z</time></trkpt><trkpt lat="44.69652429619326" lon="9.364051263845832"><ele>442.79999999999995</ele><time>2026-05-02T14:41:47Z</time></trkpt><trkpt lat="44.69661845926854" lon="9.364064959037698"><ele>444.0</ele><time>2026-05-02T14:41:48Z</time></trkpt><trkpt lat="44.69670089370348" lon="9.3640756374523"><ele>444.0</ele><time>2026-05-02T14:41:49Z</time></trkpt><trkpt lat="44.696771656164614" lon="9.364081905222694"><ele>444.0</ele><time>2026-05-02T14:41:50Z</time></trkpt><trkpt lat="44.69684226244764" lon="9.364081822108762"><ele>444.0</ele><time>2026-05-02T14:41:51Z</time></trkpt><trkpt lat="44.69691684226438" lon="9.364061152956559"><ele>444.0</ele><time>2026-05-02T14:41:52Z</time></trkpt><trkpt lat="44.69698982691031" lon="9.36402294507347"><ele>444.0</ele><time>2026-05-02T14:41:53Z</time></trkpt><trkpt lat="44.697063432792476" lon="9.36398364971894"><ele>444.0</ele><time>2026-05-02T14:41:54Z</time></trkpt><trkpt lat="44.69714166141006" lon="9.363961131382032"><ele>442.5</ele><time>2026-05-02T14:41:55Z</time></trkpt><trkpt lat="44.69722045526058" lon="9.364017878782821"><ele>441.0</ele><time>2026-05-02T14:41:56Z</time></trkpt><trkpt lat="44.69731299105845" lon="9.364048060703357"><ele>439.5</ele><time>2026-05-02T14:41:57Z</time></trkpt><trkpt lat="44.697399167234735" lon="9.364045244596714"><ele>438.0</ele><time>2026-05-02T14:41:58Z</time></trkpt><trkpt lat="44.69747209964651" lon="9.364051296783126"><ele>436.5</ele><time>2026-05-02T14:41:59Z</time></trkpt><trkpt lat="44.697538380519724" lon="9.364058005596878"><ele>435.0</ele><time>2026-05-02T14:42:00Z</time></trkpt><trkpt lat="44.69760462191935" lon="9.364067770074392"><ele>435.00000000000006</ele><time>2026-05-02T14:42:01Z</time></trkpt><trkpt lat="44.69767202544748" lon="9.36407424860633"><ele>435.0</ele><time>2026-05-02T14:42:02Z</time></trkpt><trkpt lat="44.69773564385593" lon="9.364089172181252"><ele>435.0</ele><time>2026-05-02T14:42:03Z</time></trkpt><trkpt lat="44.69783308508457" lon="9.364169880453602"><ele>435.0</ele><time>2026-05-02T14:42:05Z</time></trkpt><trkpt lat="44.69784593806691" lon="9.364258013281106"><ele>435.0</ele><time>2026-05-02T14:42:06Z</time></trkpt><trkpt lat="44.697876195684515" lon="9.36433645914976"><ele>435.00000000000006</ele><time>2026-05-02T14:42:07Z</time></trkpt><trkpt lat="44.697921704894426" lon="9.364407272661698"><ele>435.0</ele><time>2026-05-02T14:42:08Z</time></trkpt><trkpt lat="44.69795432954252" lon="9.364494872219415"><ele>432.0</ele><time>2026-05-02T14:42:09Z</time></trkpt><trkpt lat="44.697990847629036" lon="9.364579564960673"><ele>429.0</ele><time>2026-05-02T14:42:10Z</time></trkpt><trkpt lat="44.69803393614972" lon="9.364650692098833"><ele>426.0</ele><time>2026-05-02T14:42:11Z</time></trkpt><trkpt lat="44.69813562199109" lon="9.364745911430456"><ele>423.0</ele><time>2026-05-02T14:42:13Z</time></trkpt><trkpt lat="44.698189100813984" lon="9.364805020989216"><ele>420.0</ele><time>2026-05-02T14:42:14Z</time></trkpt><trkpt lat="44.69830001991027" lon="9.364825705104787"><ele>417.0</ele><time>2026-05-02T14:42:16Z</time></trkpt><trkpt lat="44.698383224064074" lon="9.364841445130194"><ele>417.0</ele><time>2026-05-02T14:42:18Z</time></trkpt><trkpt lat="44.69850599218415" lon="9.364845623330131"><ele>417.0</ele><time>2026-05-02T14:42:20Z</time></trkpt><trkpt lat="44.698583442657245" lon="9.364879765023444"><ele>417.0</ele><time>2026-05-02T14:42:21Z</time></trkpt><trkpt lat="44.69862961396488" lon="9.364987902797285"><ele>417.0</ele><time>2026-05-02T14:42:22Z</time></trkpt><trkpt lat="44.69867065379181" lon="9.365088147548756"><ele>417.0</ele><time>2026-05-02T14:42:23Z</time></trkpt><trkpt lat="44.69871434107747" lon="9.365186713250417"><ele>418.0</ele><time>2026-05-02T14:42:24Z</time></trkpt><trkpt lat="44.69875433142438" lon="9.365281634203852"><ele>419.0</ele><time>2026-05-02T14:42:25Z</time></trkpt><trkpt lat="44.69879346831797" lon="9.365374529211028"><ele>420.0</ele><time>2026-05-02T14:42:26Z</time></trkpt><trkpt lat="44.69882909345631" lon="9.365468926400698"><ele>421.0</ele><time>2026-05-02T14:42:27Z</time></trkpt><trkpt lat="44.69887124469597" lon="9.365560304298985"><ele>422.0</ele><time>2026-05-02T14:42:28Z</time></trkpt><trkpt lat="44.69885135332265" lon="9.365677004874438"><ele>423.0</ele><time>2026-05-02T14:42:29Z</time></trkpt><trkpt lat="44.698832816359435" lon="9.365776738130252"><ele>423.0</ele><time>2026-05-02T14:42:30Z</time></trkpt><trkpt lat="44.69883922619041" lon="9.365866730453963"><ele>423.0</ele><time>2026-05-02T14:42:31Z</time></trkpt><trkpt lat="44.69885279307325" lon="9.36600613709599"><ele>423.0</ele><time>2026-05-02T14:42:33Z</time></trkpt><trkpt lat="44.69892873100261" lon="9.36606894053785"><ele>423.0</ele><time>2026-05-02T14:42:35Z</time></trkpt><trkpt lat="44.6990050925344" lon="9.366112339533945"><ele>423.0</ele><time>2026-05-02T14:42:39Z</time></trkpt><trkpt lat="44.6990921821116" lon="9.36615741862622"><ele>423.0</ele><time>2026-05-02T14:42:42Z</time></trkpt><trkpt lat="44.699166175120816" lon="9.366217909538223"><ele>423.0</ele><time>2026-05-02T14:42:44Z</time></trkpt><trkpt lat="44.699236029508654" lon="9.366303627650998"><ele>423.0</ele><time>2026-05-02T14:42:46Z</time></trkpt><trkpt lat="44.699346359785515" lon="9.366379822745904"><ele>423.0</ele><time>2026-05-02T14:42:48Z</time></trkpt><trkpt lat="44.69941321951797" lon="9.366359362504948"><ele>423.0</ele><time>2026-05-02T14:42:49Z</time></trkpt><trkpt lat="44.699500879837295" lon="9.366355653247258"><ele>423.0</ele><time>2026-05-02T14:42:50Z</time></trkpt><trkpt lat="44.69959388053719" lon="9.366330639220479"><ele>426.59999999999997</ele><time>2026-05-02T14:42:51Z</time></trkpt><trkpt lat="44.699686263633225" lon="9.36630532253928"><ele>430.2</ele><time>2026-05-02T14:42:52Z</time></trkpt><trkpt lat="44.69977532606273" lon="9.366280915917814"><ele>433.8</ele><time>2026-05-02T14:42:53Z</time></trkpt><trkpt lat="44.69986009711834" lon="9.366257685279104"><ele>437.4</ele><time>2026-05-02T14:42:54Z</time></trkpt><trkpt lat="44.699931750710604" lon="9.366238254840495"><ele>441.0</ele><time>2026-05-02T14:42:55Z</time></trkpt><trkpt lat="44.700036661414735" lon="9.366193893210488"><ele>441.0</ele><time>2026-05-02T14:42:57Z</time></trkpt><trkpt lat="44.70011682662093" lon="9.366171415858156"><ele>441.0</ele><time>2026-05-02T14:42:59Z</time></trkpt><trkpt lat="44.700229017354786" lon="9.366151791017264"><ele>441.0</ele><time>2026-05-02T14:43:01Z</time></trkpt><trkpt lat="44.70034518213461" lon="9.366187446605947"><ele>441.0</ele><time>2026-05-02T14:43:03Z</time></trkpt><trkpt lat="44.70038813669281" lon="9.36626157402005"><ele>441.0</ele><time>2026-05-02T14:43:04Z</time></trkpt><trkpt lat="44.700444056767175" lon="9.366315678799683"><ele>440.14285714285717</ele><time>2026-05-02T14:43:05Z</time></trkpt><trkpt lat="44.700485930570494" lon="9.366395761697056"><ele>439.2857142857143</ele><time>2026-05-02T14:43:06Z</time></trkpt><trkpt lat="44.70051227854558" lon="9.366486272400957"><ele>438.42857142857144</ele><time>2026-05-02T14:43:07Z</time></trkpt><trkpt lat="44.70051720767656" lon="9.366581936628878"><ele>437.57142857142856</ele><time>2026-05-02T14:43:08Z</time></trkpt><trkpt lat="44.70049037750511" lon="9.3666766526542"><ele>436.7142857142857</ele><time>2026-05-02T14:43:09Z</time></trkpt><trkpt lat="44.700454476862475" lon="9.366773981523773"><ele>435.8571428571429</ele><time>2026-05-02T14:43:10Z</time></trkpt><trkpt lat="44.70043416707196" lon="9.366886148103069"><ele>435.0</ele><time>2026-05-02T14:43:11Z</time></trkpt><trkpt lat="44.70042679541462" lon="9.3670181695845"><ele>435.0</ele><time>2026-05-02T14:43:12Z</time></trkpt><trkpt lat="44.700444086051895" lon="9.36715426521874"><ele>435.0</ele><time>2026-05-02T14:43:13Z</time></trkpt><trkpt lat="44.700501107967426" lon="9.367283173040164"><ele>435.0</ele><time>2026-05-02T14:43:14Z</time></trkpt><trkpt lat="44.70058354064679" lon="9.367391844995876"><ele>435.0</ele><time>2026-05-02T14:43:15Z</time></trkpt><trkpt lat="44.70068311999586" lon="9.367480276406928"><ele>435.0</ele><time>2026-05-02T14:43:16Z</time></trkpt><trkpt lat="44.70077094304048" lon="9.367587775410305"><ele>431.0</ele><time>2026-05-02T14:43:17Z</time></trkpt><trkpt lat="44.70085644180593" lon="9.367671780179327"><ele>427.0</ele><time>2026-05-02T14:43:18Z</time></trkpt><trkpt lat="44.70094524411675" lon="9.367734695878914"><ele>423.0</ele><time>2026-05-02T14:43:19Z</time></trkpt><trkpt lat="44.70101708521172" lon="9.367804264165153"><ele>419.0</ele><time>2026-05-02T14:43:20Z</time></trkpt><trkpt lat="44.70107841060802" lon="9.367877224480731"><ele>415.0</ele><time>2026-05-02T14:43:21Z</time></trkpt><trkpt lat="44.701137475082085" lon="9.36796463048518"><ele>417.8</ele><time>2026-05-02T14:43:22Z</time></trkpt><trkpt lat="44.70118852562238" lon="9.36806820944962"><ele>420.6</ele><time>2026-05-02T14:43:23Z</time></trkpt><trkpt lat="44.70123674837958" lon="9.368190325077867"><ele>423.4</ele><time>2026-05-02T14:43:24Z</time></trkpt><trkpt lat="44.70127940159686" lon="9.368328915133816"><ele>426.2</ele><time>2026-05-02T14:43:25Z</time></trkpt><trkpt lat="44.70132086117025" lon="9.368468646753115"><ele>429.0</ele><time>2026-05-02T14:43:26Z</time></trkpt><trkpt lat="44.70137427759715" lon="9.368592086490915"><ele>429.0</ele><time>2026-05-02T14:43:27Z</time></trkpt><trkpt lat="44.70144192306422" lon="9.368692192911654"><ele>429.0</ele><time>2026-05-02T14:43:28Z</time></trkpt><trkpt lat="44.701506194157304" lon="9.368762631362566"><ele>429.0</ele><time>2026-05-02T14:43:29Z</time></trkpt><trkpt lat="44.70159354514101" lon="9.36886598105727"><ele>429.0</ele><time>2026-05-02T14:43:31Z</time></trkpt><trkpt lat="44.70164932880477" lon="9.368969852034416"><ele>429.0</ele><time>2026-05-02T14:43:33Z</time></trkpt><trkpt lat="44.70166974505302" lon="9.369143466260354"><ele>425.3333333333333</ele><time>2026-05-02T14:43:35Z</time></trkpt><trkpt lat="44.701698610928695" lon="9.369252608228738"><ele>421.66666666666663</ele><time>2026-05-02T14:43:36Z</time></trkpt><trkpt lat="44.70171460179764" lon="9.369349141555189"><ele>418.0</ele><time>2026-05-02T14:43:37Z</time></trkpt><trkpt lat="44.70171834468585" lon="9.369441823498367"><ele>414.3333333333333</ele><time>2026-05-02T14:43:38Z</time></trkpt><trkpt lat="44.70176084232254" lon="9.369576379650926"><ele>410.66666666666663</ele><time>2026-05-02T14:43:40Z</time></trkpt><trkpt lat="44.70180234914304" lon="9.369662582990241"><ele>407.0</ele><time>2026-05-02T14:43:42Z</time></trkpt><trkpt lat="44.70184941949208" lon="9.36975212325132"><ele>408.8</ele><time>2026-05-02T14:43:44Z</time></trkpt><trkpt lat="44.70191553568661" lon="9.369853556898658"><ele>410.6</ele><time>2026-05-02T14:43:46Z</time></trkpt><trkpt lat="44.70191882303907" lon="9.36999988534356"><ele>412.40000000000003</ele><time>2026-05-02T14:43:48Z</time></trkpt><trkpt lat="44.701854601678015" lon="9.370140887474696"><ele>414.20000000000005</ele><time>2026-05-02T14:43:50Z</time></trkpt><trkpt lat="44.701811398230745" lon="9.370205756387778"><ele>416.0</ele><time>2026-05-02T14:43:51Z</time></trkpt><trkpt lat="44.70176158831206" lon="9.370284956193347"><ele>410.4</ele><time>2026-05-02T14:43:53Z</time></trkpt><trkpt lat="44.70174830285843" lon="9.370402938021565"><ele>404.8</ele><time>2026-05-02T14:55:02.001Z</time></trkpt><trkpt lat="44.701757947022394" lon="9.37057636733389"><ele>399.2</ele><time>2026-05-02T14:55:04.001Z</time></trkpt><trkpt lat="44.70177053833644" lon="9.370704756710216"><ele>393.59999999999997</ele><time>2026-05-02T14:55:05.001Z</time></trkpt><trkpt lat="44.701802513870945" lon="9.370831175071327"><ele>388.0</ele><time>2026-05-02T14:55:06.001Z</time></trkpt><trkpt lat="44.70187529931655" lon="9.37096297023391"><ele>391.0</ele><time>2026-05-02T14:55:07.001Z</time></trkpt><trkpt lat="44.70198085861345" lon="9.37108465470357"><ele>394.0</ele><time>2026-05-02T14:55:08.001Z</time></trkpt><trkpt lat="44.70210648405363" lon="9.371179061559799"><ele>397.0</ele><time>2026-05-02T14:55:09.001Z</time></trkpt><trkpt lat="44.702242328635045" lon="9.371237123460425"><ele>400.0</ele><time>2026-05-02T14:55:10.001Z</time></trkpt><trkpt lat="44.70236809424258" lon="9.371281556731786"><ele>400.00000000000006</ele><time>2026-05-02T14:55:11.001Z</time></trkpt><trkpt lat="44.702472007268064" lon="9.371312096456865"><ele>400.0</ele><time>2026-05-02T14:55:12.001Z</time></trkpt><trkpt lat="44.70254908768752" lon="9.37133759810522"><ele>400.0</ele><time>2026-05-02T14:55:13.001Z</time></trkpt><trkpt lat="44.70261096320295" lon="9.37136848251814"><ele>400.0</ele><time>2026-05-02T14:55:14.001Z</time></trkpt><trkpt lat="44.70269761056713" lon="9.371418781623108"><ele>400.00000000000006</ele><time>2026-05-02T14:55:16.001Z</time></trkpt><trkpt lat="44.70276300019699" lon="9.371470003157143"><ele>400.0</ele><time>2026-05-02T14:55:19.001Z</time></trkpt><trkpt lat="44.702701855928396" lon="9.371417683095189"><ele>400.0</ele><time>2026-05-02T14:55:44.001Z</time></trkpt><trkpt lat="44.70260530782523" lon="9.371381437238561"><ele>400.0</ele><time>2026-05-02T14:55:45.001Z</time></trkpt><trkpt lat="44.702440990655965" lon="9.371326668621876"><ele>400.0</ele><time>2026-05-02T14:55:46.001Z</time></trkpt><trkpt lat="44.70231035962074" lon="9.371297600693108"><ele>400.0</ele><time>2026-05-02T14:55:47.001Z</time></trkpt><trkpt lat="44.7021794246166" lon="9.371281819800483"><ele>400.0</ele><time>2026-05-02T14:55:48.001Z</time></trkpt><trkpt lat="44.702082547982194" lon="9.371330113377947"><ele>400.0</ele><time>2026-05-02T14:55:49.001Z</time></trkpt><trkpt lat="44.70193273881474" lon="9.371305349138325"><ele>400.0</ele><time>2026-05-02T14:55:50.001Z</time></trkpt><trkpt lat="44.701771933738364" lon="9.371216889364996"><ele>400.0</ele><time>2026-05-02T14:55:51.001Z</time></trkpt><trkpt lat="44.7016761855846" lon="9.371133560059995"><ele>391.33333333333337</ele><time>2026-05-02T14:55:52.001Z</time></trkpt><trkpt lat="44.70150073915199" lon="9.370793339487495"><ele>382.6666666666667</ele><time>2026-05-02T14:55:53.001Z</time></trkpt><trkpt lat="44.70146522549407" lon="9.370651282213485"><ele>374.0</ele><time>2026-05-02T14:55:54.001Z</time></trkpt><trkpt lat="44.70143637642768" lon="9.370535882932021"><ele>381.0</ele><time>2026-05-02T14:55:55.001Z</time></trkpt><trkpt lat="44.70142548211896" lon="9.370433586892721"><ele>388.0</ele><time>2026-05-02T14:55:57.001Z</time></trkpt><trkpt lat="44.70192902569776" lon="9.37003826480314"><ele>388.0</ele><time>2026-05-02T14:55:58.001Z</time></trkpt><trkpt lat="44.701939984285616" lon="9.369918024126687"><ele>388.0</ele><time>2026-05-02T14:55:59.001Z</time></trkpt><trkpt lat="44.70191397382189" lon="9.369802263391076"><ele>388.0</ele><time>2026-05-02T14:56:00.001Z</time></trkpt><trkpt lat="44.701859976012855" lon="9.369708273270254"><ele>388.0</ele><time>2026-05-02T14:56:01.001Z</time></trkpt><trkpt lat="44.701807499762275" lon="9.369605642564382"><ele>388.0</ele><time>2026-05-02T14:56:02.001Z</time></trkpt><trkpt lat="44.7017575891347" lon="9.36948106863843"><ele>391.79999999999995</ele><time>2026-05-02T14:56:03.001Z</time></trkpt><trkpt lat="44.701726268402595" lon="9.36931978679476"><ele>395.6</ele><time>2026-05-02T14:56:04.001Z</time></trkpt><trkpt lat="44.70170650963336" lon="9.369153773387543"><ele>399.4</ele><time>2026-05-02T14:56:05.001Z</time></trkpt><trkpt lat="44.70168250484377" lon="9.36902328261885"><ele>403.20000000000005</ele><time>2026-05-02T14:56:06.001Z</time></trkpt><trkpt lat="44.70163194481685" lon="9.368901460301453"><ele>407.0</ele><time>2026-05-02T14:56:07.001Z</time></trkpt><trkpt lat="44.701539711698864" lon="9.368773038910563"><ele>412.5</ele><time>2026-05-02T14:56:08.001Z</time></trkpt><trkpt lat="44.701428628628" lon="9.368629107035542"><ele>418.0</ele><time>2026-05-02T14:56:09.001Z</time></trkpt><trkpt lat="44.701345409046546" lon="9.36846812703601"><ele>423.5</ele><time>2026-05-02T14:56:10.001Z</time></trkpt><trkpt lat="44.70128539072766" lon="9.368288332595492"><ele>429.0</ele><time>2026-05-02T14:56:11.001Z</time></trkpt><trkpt lat="44.701228554817995" lon="9.368122463627994"><ele>426.2</ele><time>2026-05-02T14:56:12.001Z</time></trkpt><trkpt lat="44.70116025609261" lon="9.367982441074712"><ele>423.4</ele><time>2026-05-02T14:56:13.001Z</time></trkpt><trkpt lat="44.70108541026939" lon="9.367861855899786"><ele>420.6</ele><time>2026-05-02T14:56:14.001Z</time></trkpt><trkpt lat="44.70100133678686" lon="9.367766700911577"><ele>417.8</ele><time>2026-05-02T14:56:15.001Z</time></trkpt><trkpt lat="44.700915713931295" lon="9.367684876999718"><ele>415.0</ele><time>2026-05-02T14:56:16.001Z</time></trkpt><trkpt lat="44.70083185920341" lon="9.3676044620414"><ele>415.0</ele><time>2026-05-02T14:56:17.001Z</time></trkpt><trkpt lat="44.700752273149384" lon="9.367520554888973"><ele>415.0</ele><time>2026-05-02T14:56:18.001Z</time></trkpt><trkpt lat="44.70067861826452" lon="9.367441245444635"><ele>415.0</ele><time>2026-05-02T14:56:19.001Z</time></trkpt><trkpt lat="44.700604290638644" lon="9.367363048988588"><ele>415.0</ele><time>2026-05-02T14:56:20.001Z</time></trkpt><trkpt lat="44.70053516740176" lon="9.367269207095816"><ele>415.0</ele><time>2026-05-02T14:56:21.001Z</time></trkpt><trkpt lat="44.70048526042256" lon="9.367135844669388"><ele>419.0</ele><time>2026-05-02T14:56:22.001Z</time></trkpt><trkpt lat="44.70046402029073" lon="9.36697056835685"><ele>423.0</ele><time>2026-05-02T14:56:23.001Z</time></trkpt><trkpt lat="44.70048357887748" lon="9.366802654715487"><ele>427.0</ele><time>2026-05-02T14:56:24.001Z</time></trkpt><trkpt lat="44.70052870257433" lon="9.366644923161676"><ele>431.0</ele><time>2026-05-02T14:56:25.001Z</time></trkpt><trkpt lat="44.700561690107456" lon="9.36653504086013"><ele>435.0</ele><time>2026-05-02T14:56:26.001Z</time></trkpt><trkpt lat="44.70055939473573" lon="9.366440607392393"><ele>436.5</ele><time>2026-05-02T14:56:27.001Z</time></trkpt><trkpt lat="44.700539050151754" lon="9.366346777202612"><ele>438.0</ele><time>2026-05-02T14:56:28.001Z</time></trkpt><trkpt lat="44.700406511447255" lon="9.36619357510928"><ele>439.5</ele><time>2026-05-02T14:56:29.001Z</time></trkpt><trkpt lat="44.700312771590745" lon="9.366103167279121"><ele>441.0</ele><time>2026-05-02T14:56:30.001Z</time></trkpt><trkpt lat="44.70020464809978" lon="9.366099780746747"><ele>441.0</ele><time>2026-05-02T14:56:31.001Z</time></trkpt><trkpt lat="44.70007323281012" lon="9.366135304678721"><ele>441.0</ele><time>2026-05-02T14:56:32.001Z</time></trkpt><trkpt lat="44.69990833041729" lon="9.366186922134332"><ele>441.0</ele><time>2026-05-02T14:56:33.001Z</time></trkpt><trkpt lat="44.69973077732703" lon="9.36623717441866"><ele>441.0</ele><time>2026-05-02T14:56:34.001Z</time></trkpt><trkpt lat="44.69957054387327" lon="9.366285216163591"><ele>441.0</ele><time>2026-05-02T14:56:35.001Z</time></trkpt><trkpt lat="44.69945005366141" lon="9.366320262461269"><ele>441.0</ele><time>2026-05-02T14:56:36.001Z</time></trkpt><trkpt lat="44.69936621371514" lon="9.36634415750578"><ele>441.0</ele><time>2026-05-02T14:56:37.001Z</time></trkpt><trkpt lat="44.699271065487316" lon="9.366326759373987"><ele>437.4</ele><time>2026-05-02T14:56:38.001Z</time></trkpt><trkpt lat="44.69921048119074" lon="9.366209257213814"><ele>433.8</ele><time>2026-05-02T14:56:39.001Z</time></trkpt><trkpt lat="44.69912298436488" lon="9.366136614198213"><ele>430.2</ele><time>2026-05-02T14:56:40.001Z</time></trkpt><trkpt lat="44.69903075647062" lon="9.366060267084423"><ele>426.59999999999997</ele><time>2026-05-02T14:56:41.001Z</time></trkpt><trkpt lat="44.69894182027711" lon="9.36601890180775"><ele>423.0</ele><time>2026-05-02T14:56:42.001Z</time></trkpt><trkpt lat="44.698880509679114" lon="9.36596128051411"><ele>423.0</ele><time>2026-05-02T14:56:43.001Z</time></trkpt><trkpt lat="44.6988486127518" lon="9.36586553957432"><ele>423.0</ele><time>2026-05-02T14:56:44.001Z</time></trkpt><trkpt lat="44.69884202461857" lon="9.365740342633563"><ele>423.0</ele><time>2026-05-02T14:56:45.001Z</time></trkpt><trkpt lat="44.69888464666007" lon="9.36559930811276"><ele>423.0</ele><time>2026-05-02T14:56:46.001Z</time></trkpt><trkpt lat="44.698878767369784" lon="9.365460642079132"><ele>423.0</ele><time>2026-05-02T14:56:47.001Z</time></trkpt><trkpt lat="44.69883049205524" lon="9.36530392582406"><ele>421.79999999999995</ele><time>2026-05-02T14:56:48.001Z</time></trkpt><trkpt lat="44.69876007882475" lon="9.365157035058768"><ele>420.6</ele><time>2026-05-02T14:56:49.001Z</time></trkpt><trkpt lat="44.69870768183783" lon="9.365033443529219"><ele>419.4</ele><time>2026-05-02T14:56:50.001Z</time></trkpt><trkpt lat="44.698659073301314" lon="9.364928936152031"><ele>418.20000000000005</ele><time>2026-05-02T14:56:51.001Z</time></trkpt><trkpt lat="44.69860127390293" lon="9.364832817157529"><ele>417.0</ele><time>2026-05-02T14:56:52.001Z</time></trkpt><trkpt lat="44.69850952010647" lon="9.36476961381533"><ele>417.0</ele><time>2026-05-02T14:56:53.001Z</time></trkpt><trkpt lat="44.698394119240334" lon="9.364762320835759"><ele>417.0</ele><time>2026-05-02T14:56:54.001Z</time></trkpt><trkpt lat="44.698271997099276" lon="9.364769518529442"><ele>417.0</ele><time>2026-05-02T14:56:55.001Z</time></trkpt><trkpt lat="44.69816728968124" lon="9.364733823136188"><ele>417.0</ele><time>2026-05-02T14:56:56.001Z</time></trkpt><trkpt lat="44.69807004028276" lon="9.36464751368678"><ele>426.0</ele><time>2026-05-02T14:56:57.001Z</time></trkpt><trkpt lat="44.697991637046165" lon="9.364516639043165"><ele>435.0</ele><time>2026-05-02T14:56:58.001Z</time></trkpt><trkpt lat="44.697926203370365" lon="9.36436409192295"><ele>444.00000000000006</ele><time>2026-05-02T14:56:59.001Z</time></trkpt><trkpt lat="44.697877778087545" lon="9.364223842742883"><ele>453.0</ele><time>2026-05-02T14:57:00.001Z</time></trkpt><trkpt lat="44.697831963209794" lon="9.364115206214269"><ele>462.0</ele><time>2026-05-02T14:57:01.001Z</time></trkpt><trkpt lat="44.697763721405146" lon="9.364041733243663"><ele>455.25</ele><time>2026-05-02T14:57:02.001Z</time></trkpt><trkpt lat="44.69766409307022" lon="9.364003415755931"><ele>448.5</ele><time>2026-05-02T14:57:03.001Z</time></trkpt><trkpt lat="44.69754261137824" lon="9.364005752687385"><ele>441.75</ele><time>2026-05-02T14:57:04.001Z</time></trkpt><trkpt lat="44.69739035237548" lon="9.36401069384718"><ele>435.0</ele><time>2026-05-02T14:57:05.001Z</time></trkpt><trkpt lat="44.69721491543542" lon="9.363983399191795"><ele>435.0</ele><time>2026-05-02T14:57:06.001Z</time></trkpt><trkpt lat="44.697073056834306" lon="9.36394909045365"><ele>435.0</ele><time>2026-05-02T14:57:07.001Z</time></trkpt><trkpt lat="44.69696232102563" lon="9.363965744757964"><ele>435.0</ele><time>2026-05-02T14:57:08.001Z</time></trkpt><trkpt lat="44.69685350607037" lon="9.364028047864103"><ele>435.0</ele><time>2026-05-02T14:57:09.001Z</time></trkpt><trkpt lat="44.696737818374515" lon="9.364061606398"><ele>437.25</ele><time>2026-05-02T14:57:10.001Z</time></trkpt><trkpt lat="44.69660574110647" lon="9.36402910343212"><ele>439.5</ele><time>2026-05-02T14:57:11.001Z</time></trkpt><trkpt lat="44.69645900920968" lon="9.363999346608622"><ele>441.75</ele><time>2026-05-02T14:57:12.001Z</time></trkpt><trkpt lat="44.696303159795825" lon="9.363991186931289"><ele>444.0</ele><time>2026-05-02T14:57:13.001Z</time></trkpt><trkpt lat="44.696152479821365" lon="9.363972614535696"><ele>442.5</ele><time>2026-05-02T14:57:14.001Z</time></trkpt><trkpt lat="44.69601561987072" lon="9.363936739108537"><ele>441.0</ele><time>2026-05-02T14:57:15.001Z</time></trkpt><trkpt lat="44.695894020164275" lon="9.36387207075028"><ele>439.5</ele><time>2026-05-02T14:57:16.001Z</time></trkpt><trkpt lat="44.69578136664794" lon="9.363808380232836"><ele>438.0</ele><time>2026-05-02T14:57:17.001Z</time></trkpt><trkpt lat="44.695663900083844" lon="9.363787213969823"><ele>440.0</ele><time>2026-05-02T14:57:18.001Z</time></trkpt><trkpt lat="44.69553799290759" lon="9.363801025513117"><ele>442.0</ele><time>2026-05-02T14:57:19.001Z</time></trkpt><trkpt lat="44.69539490581188" lon="9.36382417959723"><ele>444.0</ele><time>2026-05-02T14:57:20.001Z</time></trkpt><trkpt lat="44.69522315974709" lon="9.363864968839792"><ele>446.0</ele><time>2026-05-02T14:57:21.001Z</time></trkpt><trkpt lat="44.6950249392717" lon="9.36390814525257"><ele>446.0</ele><time>2026-05-02T14:57:22.001Z</time></trkpt><trkpt lat="44.694843550782615" lon="9.363940564346898"><ele>446.0</ele><time>2026-05-02T14:57:23.001Z</time></trkpt><trkpt lat="44.69469995086288" lon="9.363967737627098"><ele>446.0</ele><time>2026-05-02T14:57:24.001Z</time></trkpt><trkpt lat="44.6945778569045" lon="9.363989831690262"><ele>445.99999999999994</ele><time>2026-05-02T14:57:25.001Z</time></trkpt><trkpt lat="44.6944897059477" lon="9.364007176938545"><ele>446.0</ele><time>2026-05-02T14:57:26.001Z</time></trkpt><trkpt lat="44.69441748006706" lon="9.364017737614768"><ele>446.0</ele><time>2026-05-02T14:57:27.001Z</time></trkpt><trkpt lat="44.69435181987762" lon="9.36399786131103"><ele>446.0</ele><time>2026-05-02T14:57:28.001Z</time></trkpt><trkpt lat="44.69429193415073" lon="9.363874252050437"><ele>445.99999999999994</ele><time>2026-05-02T14:57:30.001Z</time></trkpt><trkpt lat="44.69433942295806" lon="9.36373226663746"><ele>446.0</ele><time>2026-05-02T14:57:32.001Z</time></trkpt><trkpt lat="44.69440199073592" lon="9.363685213596478"><ele>449.99999999999994</ele><time>2026-05-02T14:57:33.001Z</time></trkpt><trkpt lat="44.694489003615764" lon="9.363660316734157"><ele>454.0</ele><time>2026-05-02T14:57:34.001Z</time></trkpt><trkpt lat="44.69457577693853" lon="9.363615708322168"><ele>458.0</ele><time>2026-05-02T14:57:35.001Z</time></trkpt><trkpt lat="44.69463550776834" lon="9.36353278489106"><ele>462.0</ele><time>2026-05-02T14:57:36.001Z</time></trkpt><trkpt lat="44.694669074979956" lon="9.363419140876372"><ele>465.99999999999994</ele><time>2026-05-02T14:57:37.001Z</time></trkpt><trkpt lat="44.69466813871674" lon="9.3633006371611"><ele>470.0</ele><time>2026-05-02T14:57:38.001Z</time></trkpt><trkpt lat="44.6946378821995" lon="9.36317601936618"><ele>467.75</ele><time>2026-05-02T14:57:39.001Z</time></trkpt><trkpt lat="44.69460735905103" lon="9.363024021640964"><ele>465.5</ele><time>2026-05-02T14:57:40.001Z</time></trkpt><trkpt lat="44.69460474367422" lon="9.362855193825798"><ele>463.25</ele><time>2026-05-02T14:57:41.001Z</time></trkpt><trkpt lat="44.694674599829064" lon="9.362710114887436"><ele>461.0</ele><time>2026-05-02T14:57:42.001Z</time></trkpt><trkpt lat="44.69475890225023" lon="9.362550889769633"><ele>461.0</ele><time>2026-05-02T14:57:43.001Z</time></trkpt><trkpt lat="44.6948492149854" lon="9.362382225827606"><ele>461.0</ele><time>2026-05-02T14:57:44.001Z</time></trkpt><trkpt lat="44.69495516308209" lon="9.362256633870837"><ele>461.0</ele><time>2026-05-02T14:57:45.001Z</time></trkpt><trkpt lat="44.69508866857521" lon="9.362202631621878"><ele>461.0</ele><time>2026-05-02T14:57:46.001Z</time></trkpt><trkpt lat="44.695215292952184" lon="9.362131091607727"><ele>465.6</ele><time>2026-05-02T14:57:47.001Z</time></trkpt><trkpt lat="44.69531981964998" lon="9.362076315135228"><ele>470.20000000000005</ele><time>2026-05-02T14:57:48.001Z</time></trkpt><trkpt lat="44.69538580524297" lon="9.361988287642822"><ele>474.79999999999995</ele><time>2026-05-02T14:57:49.001Z</time></trkpt><trkpt lat="44.69541877497285" lon="9.361852260047776"><ele>479.4</ele><time>2026-05-02T14:57:50.001Z</time></trkpt><trkpt lat="44.69542278146337" lon="9.361679812935769"><ele>484.0</ele><time>2026-05-02T14:57:51.001Z</time></trkpt><trkpt lat="44.695396026400516" lon="9.361495233678044"><ele>482.79999999999995</ele><time>2026-05-02T14:57:52.001Z</time></trkpt><trkpt lat="44.69535982861841" lon="9.361334922841529"><ele>481.59999999999997</ele><time>2026-05-02T14:57:53.001Z</time></trkpt><trkpt lat="44.69532121863284" lon="9.361186889731421"><ele>480.4</ele><time>2026-05-02T14:57:54.001Z</time></trkpt><trkpt lat="44.695307173147455" lon="9.361035722918597"><ele>479.2</ele><time>2026-05-02T14:57:55.001Z</time></trkpt><trkpt lat="44.69532601546936" lon="9.360897233716349"><ele>478.0</ele><time>2026-05-02T14:57:56.001Z</time></trkpt><trkpt lat="44.69535445541598" lon="9.360735153572437"><ele>478.0</ele><time>2026-05-02T14:57:57.001Z</time></trkpt><trkpt lat="44.695403009625885" lon="9.360546029270553"><ele>478.0</ele><time>2026-05-02T14:57:58.001Z</time></trkpt><trkpt lat="44.69546024935456" lon="9.360327108688406"><ele>478.0</ele><time>2026-05-02T14:57:59.001Z</time></trkpt><trkpt lat="44.69552259697911" lon="9.360113571901374"><ele>478.5</ele><time>2026-05-02T14:58:00.001Z</time></trkpt><trkpt lat="44.69557251452339" lon="9.359943652687107"><ele>479.0</ele><time>2026-05-02T14:58:01.001Z</time></trkpt><trkpt lat="44.6956028832939" lon="9.359791477379966"><ele>479.5</ele><time>2026-05-02T14:58:02.001Z</time></trkpt><trkpt lat="44.69561361764131" lon="9.359640829720348"><ele>480.0</ele><time>2026-05-02T14:58:03.001Z</time></trkpt><trkpt lat="44.695607813972906" lon="9.359500578220242"><ele>480.4</ele><time>2026-05-02T14:58:04.001Z</time></trkpt><trkpt lat="44.695581525839046" lon="9.359368531710356"><ele>480.8</ele><time>2026-05-02T14:58:05.001Z</time></trkpt><trkpt lat="44.695526924392716" lon="9.359251991959361"><ele>481.20000000000005</ele><time>2026-05-02T14:58:06.001Z</time></trkpt><trkpt lat="44.695453081827495" lon="9.35916119214028"><ele>481.6</ele><time>2026-05-02T14:58:07.001Z</time></trkpt><trkpt lat="44.69537359608236" lon="9.359104965804963"><ele>482.0</ele><time>2026-05-02T14:58:08.001Z</time></trkpt><trkpt lat="44.695290264602924" lon="9.359087136974447"><ele>480.20000000000005</ele><time>2026-05-02T14:58:09.001Z</time></trkpt><trkpt lat="44.69519448602619" lon="9.359100319333368"><ele>478.40000000000003</ele><time>2026-05-02T14:58:10.001Z</time></trkpt><trkpt lat="44.69508672898214" lon="9.359138235052164"><ele>476.59999999999997</ele><time>2026-05-02T14:58:11.001Z</time></trkpt><trkpt lat="44.69497351138412" lon="9.359188885127823"><ele>474.79999999999995</ele><time>2026-05-02T14:58:12.001Z</time></trkpt><trkpt lat="44.694860682441806" lon="9.359230014463076"><ele>473.0</ele><time>2026-05-02T14:58:13.001Z</time></trkpt><trkpt lat="44.69475034240013" lon="9.359265508546462"><ele>473.0</ele><time>2026-05-02T14:58:14.001Z</time></trkpt><trkpt lat="44.69464814966142" lon="9.35929816459897"><ele>472.99999999999994</ele><time>2026-05-02T14:58:15.001Z</time></trkpt><trkpt lat="44.69456169496461" lon="9.359316501894957"><ele>472.99999999999994</ele><time>2026-05-02T14:58:16.001Z</time></trkpt><trkpt lat="44.69448487332432" lon="9.359301903344058"><ele>473.0</ele><time>2026-05-02T14:58:17.001Z</time></trkpt><trkpt lat="44.694412907116195" lon="9.359244950297178"><ele>473.0</ele><time>2026-05-02T14:58:18.001Z</time></trkpt><trkpt lat="44.6943479062106" lon="9.359137267413809"><ele>471.79999999999995</ele><time>2026-05-02T14:58:19.001Z</time></trkpt><trkpt lat="44.69428588248709" lon="9.35899999934888"><ele>470.59999999999997</ele><time>2026-05-02T14:58:20.001Z</time></trkpt><trkpt lat="44.69421151895422" lon="9.35887420877088"><ele>469.40000000000003</ele><time>2026-05-02T14:58:21.001Z</time></trkpt><trkpt lat="44.69414015797717" lon="9.358757114167442"><ele>468.20000000000005</ele><time>2026-05-02T14:58:22.001Z</time></trkpt><trkpt lat="44.69407135465949" lon="9.35864882918503"><ele>467.0</ele><time>2026-05-02T14:58:23.001Z</time></trkpt><trkpt lat="44.69401064037962" lon="9.358553221003334"><ele>467.0</ele><time>2026-05-02T14:58:24.001Z</time></trkpt><trkpt lat="44.693964976773515" lon="9.358471277589734"><ele>467.00000000000006</ele><time>2026-05-02T14:58:25.001Z</time></trkpt><trkpt lat="44.69392393728214" lon="9.35831531623647"><ele>467.00000000000006</ele><time>2026-05-02T14:58:27.001Z</time></trkpt><trkpt lat="44.69393502596315" lon="9.358199584375322"><ele>467.0</ele><time>2026-05-02T14:58:28.001Z</time></trkpt><trkpt lat="44.693982805495004" lon="9.358072566762168"><ele>467.0</ele><time>2026-05-02T14:58:29.001Z</time></trkpt><trkpt lat="44.69405260924776" lon="9.357950532084454"><ele>471.75</ele><time>2026-05-02T14:58:30.001Z</time></trkpt><trkpt lat="44.69412784037693" lon="9.357836060104294"><ele>476.5</ele><time>2026-05-02T14:58:31.001Z</time></trkpt><trkpt lat="44.69422912659513" lon="9.35776270890991"><ele>481.25</ele><time>2026-05-02T14:58:32.001Z</time></trkpt><trkpt lat="44.69433426393775" lon="9.357668251428194"><ele>486.0</ele><time>2026-05-02T14:58:33.001Z</time></trkpt><trkpt lat="44.694452500532705" lon="9.35759525937944"><ele>486.0</ele><time>2026-05-02T14:58:34.001Z</time></trkpt><trkpt lat="44.694550991777355" lon="9.357525477030478"><ele>486.0</ele><time>2026-05-02T14:58:35.001Z</time></trkpt><trkpt lat="44.69463144700017" lon="9.357442321123063"><ele>486.0</ele><time>2026-05-02T14:58:36.001Z</time></trkpt><trkpt lat="44.6946930646726" lon="9.357304214701369"><ele>486.0</ele><time>2026-05-02T14:58:37.001Z</time></trkpt><trkpt lat="44.69473966185488" lon="9.357114386609021"><ele>482.75</ele><time>2026-05-02T14:58:38.001Z</time></trkpt><trkpt lat="44.69479000746057" lon="9.35689881190287"><ele>479.5</ele><time>2026-05-02T14:58:39.001Z</time></trkpt><trkpt lat="44.69484050635117" lon="9.35669403859508"><ele>476.25</ele><time>2026-05-02T14:58:40.001Z</time></trkpt><trkpt lat="44.694881303320706" lon="9.356516341179933"><ele>473.0</ele><time>2026-05-02T14:58:41.001Z</time></trkpt><trkpt lat="44.694908781951575" lon="9.356357035850182"><ele>472.4</ele><time>2026-05-02T14:58:42.001Z</time></trkpt><trkpt lat="44.694935695251964" lon="9.356217020480385"><ele>471.79999999999995</ele><time>2026-05-02T14:58:43.001Z</time></trkpt><trkpt lat="44.694956107178925" lon="9.356092594395742"><ele>471.2</ele><time>2026-05-02T14:58:44.001Z</time></trkpt><trkpt lat="44.69494169869675" lon="9.355977833318908"><ele>470.6</ele><time>2026-05-02T14:58:45.001Z</time></trkpt><trkpt lat="44.694891107051795" lon="9.355877212776235"><ele>470.0</ele><time>2026-05-02T14:58:46.001Z</time></trkpt><trkpt lat="44.694826793385964" lon="9.355778931646167"><ele>469.99999999999994</ele><time>2026-05-02T14:58:47.001Z</time></trkpt><trkpt lat="44.694768509272166" lon="9.355677611828645"><ele>470.0</ele><time>2026-05-02T14:58:48.001Z</time></trkpt><trkpt lat="44.69473699352108" lon="9.355570799121068"><ele>470.0</ele><time>2026-05-02T14:58:49.001Z</time></trkpt><trkpt lat="44.69473710450818" lon="9.355458436418838"><ele>470.0</ele><time>2026-05-02T14:58:50.001Z</time></trkpt><trkpt lat="44.69476011587404" lon="9.355337103123528"><ele>469.99999999999994</ele><time>2026-05-02T14:58:51.001Z</time></trkpt><trkpt lat="44.6947910314941" lon="9.355206662657018"><ele>470.0</ele><time>2026-05-02T14:58:52.001Z</time></trkpt><trkpt lat="44.69481979743117" lon="9.355071231374513"><ele>469.4</ele><time>2026-05-02T14:58:53.001Z</time></trkpt><trkpt lat="44.69484452652618" lon="9.354941150987491"><ele>468.8</ele><time>2026-05-02T14:58:54.001Z</time></trkpt><trkpt lat="44.69486730725962" lon="9.354821460882835"><ele>468.20000000000005</ele><time>2026-05-02T14:58:55.001Z</time></trkpt><trkpt lat="44.69488487108978" lon="9.354701961427962"><ele>467.6</ele><time>2026-05-02T14:58:56.001Z</time></trkpt><trkpt lat="44.69488218929614" lon="9.35457921069417"><ele>467.0</ele><time>2026-05-02T14:58:57.001Z</time></trkpt><trkpt lat="44.69483996054465" lon="9.354451301587657"><ele>469.20000000000005</ele><time>2026-05-02T14:58:58.001Z</time></trkpt><trkpt lat="44.694779308011285" lon="9.354322605288436"><ele>471.40000000000003</ele><time>2026-05-02T14:58:59.001Z</time></trkpt><trkpt lat="44.694716918507666" lon="9.354207518347737"><ele>473.59999999999997</ele><time>2026-05-02T14:59:00.001Z</time></trkpt><trkpt lat="44.694674536533775" lon="9.354080559130397"><ele>475.79999999999995</ele><time>2026-05-02T14:59:01.001Z</time></trkpt><trkpt lat="44.69466405128448" lon="9.353943188716269"><ele>478.0</ele><time>2026-05-02T14:59:02.001Z</time></trkpt><trkpt lat="44.69468366824907" lon="9.353819172457715"><ele>483.0</ele><time>2026-05-02T14:59:03.001Z</time></trkpt><trkpt lat="44.69470209173809" lon="9.35372106177045"><ele>487.99999999999994</ele><time>2026-05-02T14:59:04.001Z</time></trkpt><trkpt lat="44.69468670616568" lon="9.353544652105771"><ele>492.99999999999994</ele><time>2026-05-02T14:59:06.001Z</time></trkpt><trkpt lat="44.69463073781664" lon="9.353457107385474"><ele>498.0</ele><time>2026-05-02T14:59:07.001Z</time></trkpt><trkpt lat="44.694543285329544" lon="9.353407691245035"><ele>503.0</ele><time>2026-05-02T14:59:08.001Z</time></trkpt><trkpt lat="44.69445483994438" lon="9.353401925897852"><ele>495.0</ele><time>2026-05-02T14:59:09.001Z</time></trkpt><trkpt lat="44.694356295957164" lon="9.353429258464848"><ele>486.99999999999994</ele><time>2026-05-02T14:59:10.001Z</time></trkpt><trkpt lat="44.69425783968698" lon="9.353457587653011"><ele>478.99999999999994</ele><time>2026-05-02T14:59:11.001Z</time></trkpt><trkpt lat="44.69416126066167" lon="9.35347524642795"><ele>471.0</ele><time>2026-05-02T14:59:12.001Z</time></trkpt><trkpt lat="44.69407762570542" lon="9.353485615554453"><ele>463.0</ele><time>2026-05-02T14:59:13.001Z</time></trkpt><trkpt lat="44.69400222294633" lon="9.353481975660438"><ele>463.00000000000006</ele><time>2026-05-02T14:59:14.001Z</time></trkpt><trkpt lat="44.69393124300726" lon="9.35342855697877"><ele>463.0</ele><time>2026-05-02T14:59:15.001Z</time></trkpt><trkpt lat="44.69389931976846" lon="9.353324955457138"><ele>463.0</ele><time>2026-05-02T14:59:16.001Z</time></trkpt><trkpt lat="44.693848908900215" lon="9.353232559558641"><ele>463.0</ele><time>2026-05-02T14:59:17.001Z</time></trkpt><trkpt lat="44.693772769114304" lon="9.353202924532523"><ele>463.00000000000006</ele><time>2026-05-02T14:59:18.001Z</time></trkpt><trkpt lat="44.69368829315493" lon="9.35319267190573"><ele>463.0</ele><time>2026-05-02T14:59:19.001Z</time></trkpt><trkpt lat="44.693608727131014" lon="9.353191937190878"><ele>459.6666666666667</ele><time>2026-05-02T14:59:20.001Z</time></trkpt><trkpt lat="44.69347996047186" lon="9.35320190884127"><ele>456.33333333333337</ele><time>2026-05-02T14:59:22.001Z</time></trkpt><trkpt lat="44.69340328557176" lon="9.353195060203511"><ele>453.0</ele><time>2026-05-02T14:59:23.001Z</time></trkpt><trkpt lat="44.693341064155206" lon="9.353146997342732"><ele>449.66666666666663</ele><time>2026-05-02T14:59:24.001Z</time></trkpt><trkpt lat="44.69329359641768" lon="9.353071133809465"><ele>446.3333333333333</ele><time>2026-05-02T14:59:25.001Z</time></trkpt><trkpt lat="44.693261688191" lon="9.352980063916622"><ele>443.0</ele><time>2026-05-02T14:59:26.001Z</time></trkpt><trkpt lat="44.69327783990551" lon="9.352875012736746"><ele>443.0</ele><time>2026-05-02T14:59:27.001Z</time></trkpt><trkpt lat="44.69328408039115" lon="9.352755778331877"><ele>442.99999999999994</ele><time>2026-05-02T14:59:28.001Z</time></trkpt><trkpt lat="44.69331799934082" lon="9.352628226224299"><ele>442.99999999999994</ele><time>2026-05-02T14:59:29.001Z</time></trkpt><trkpt lat="44.69334334064052" lon="9.352480793539309"><ele>443.0</ele><time>2026-05-02T14:59:30.001Z</time></trkpt><trkpt lat="44.693330263834724" lon="9.352334513141528"><ele>443.0</ele><time>2026-05-02T14:59:31.001Z</time></trkpt><trkpt lat="44.69329271894663" lon="9.352202096405394"><ele>447.79999999999995</ele><time>2026-05-02T14:59:32.001Z</time></trkpt><trkpt lat="44.6932456064828" lon="9.352084129183815"><ele>452.59999999999997</ele><time>2026-05-02T14:59:33.001Z</time></trkpt><trkpt lat="44.69318567145423" lon="9.351974333214246"><ele>457.40000000000003</ele><time>2026-05-02T14:59:34.001Z</time></trkpt><trkpt lat="44.69312858234004" lon="9.35186397709859"><ele>462.20000000000005</ele><time>2026-05-02T14:59:35.001Z</time></trkpt><trkpt lat="44.69307342161034" lon="9.351748792174131"><ele>467.0</ele><time>2026-05-02T14:59:36.001Z</time></trkpt><trkpt lat="44.693020613446464" lon="9.351641559284607"><ele>466.99999999999994</ele><time>2026-05-02T14:59:37.001Z</time></trkpt><trkpt lat="44.69297518439337" lon="9.35154840883908"><ele>467.0</ele><time>2026-05-02T14:59:38.001Z</time></trkpt><trkpt lat="44.69293164397366" lon="9.35144675857402"><ele>467.0</ele><time>2026-05-02T14:59:39.001Z</time></trkpt><trkpt lat="44.69292683996974" lon="9.351314416387744"><ele>467.0</ele><time>2026-05-02T14:59:40.001Z</time></trkpt><trkpt lat="44.6929049064845" lon="9.351196526016818"><ele>466.99999999999994</ele><time>2026-05-02T14:59:41.001Z</time></trkpt><trkpt lat="44.69287304844968" lon="9.351071242082611"><ele>467.0</ele><time>2026-05-02T14:59:42.001Z</time></trkpt><trkpt lat="44.69278344605236" lon="9.3509607798441"><ele>467.20000000000005</ele><time>2026-05-02T14:59:43.001Z</time></trkpt><trkpt lat="44.69268500710368" lon="9.350865219703868"><ele>467.40000000000003</ele><time>2026-05-02T14:59:44.001Z</time></trkpt><trkpt lat="44.69260391483199" lon="9.350770641049877"><ele>467.59999999999997</ele><time>2026-05-02T14:59:45.001Z</time></trkpt><trkpt lat="44.69253866745464" lon="9.350677672120991"><ele>467.79999999999995</ele><time>2026-05-02T14:59:46.001Z</time></trkpt><trkpt lat="44.69247901956443" lon="9.350586033845214"><ele>468.0</ele><time>2026-05-02T14:59:47.001Z</time></trkpt><trkpt lat="44.69242128952334" lon="9.35048919920379"><ele>468.0</ele><time>2026-05-02T14:59:48.001Z</time></trkpt><trkpt lat="44.69238304128382" lon="9.350374756827973"><ele>467.99999999999994</ele><time>2026-05-02T14:59:49.001Z</time></trkpt><trkpt lat="44.692351416953436" lon="9.350247720924912"><ele>467.99999999999994</ele><time>2026-05-02T14:59:50.001Z</time></trkpt><trkpt lat="44.69230369524878" lon="9.350128547592703"><ele>468.0</ele><time>2026-05-02T14:59:51.001Z</time></trkpt><trkpt lat="44.69223498080693" lon="9.350044485636266"><ele>468.0</ele><time>2026-05-02T14:59:52.001Z</time></trkpt><trkpt lat="44.69216266395476" lon="9.349979211798104"><ele>468.0</ele><time>2026-05-02T14:59:53.001Z</time></trkpt><trkpt lat="44.69209711772573" lon="9.349907698728538"><ele>468.0</ele><time>2026-05-02T14:59:54.001Z</time></trkpt><trkpt lat="44.69204707489744" lon="9.34981616466173"><ele>468.0</ele><time>2026-05-02T14:59:55.001Z</time></trkpt><trkpt lat="44.692021096719216" lon="9.349705330541013"><ele>468.0</ele><time>2026-05-02T14:59:56.001Z</time></trkpt><trkpt lat="44.69200623215453" lon="9.349594277766414"><ele>468.0</ele><time>2026-05-02T14:59:57.001Z</time></trkpt><trkpt lat="44.691975945750244" lon="9.349507011867779"><ele>468.0</ele><time>2026-05-02T14:59:58.001Z</time></trkpt><trkpt lat="44.691919229890196" lon="9.349447800178586"><ele>461.8333333333333</ele><time>2026-05-02T14:59:59.001Z</time></trkpt><trkpt lat="44.691843919719176" lon="9.349406664509612"><ele>455.66666666666663</ele><time>2026-05-02T15:00:00.001Z</time></trkpt><trkpt lat="44.69176533938242" lon="9.34937020834053"><ele>449.5</ele><time>2026-05-02T15:00:01.001Z</time></trkpt><trkpt lat="44.691694468783886" lon="9.349325625774613"><ele>443.3333333333333</ele><time>2026-05-02T15:00:02.001Z</time></trkpt><trkpt lat="44.691633606565624" lon="9.349260854954917"><ele>437.16666666666663</ele><time>2026-05-02T15:00:03.001Z</time></trkpt><trkpt lat="44.691576892094005" lon="9.34918644309316"><ele>431.0</ele><time>2026-05-02T15:00:04.001Z</time></trkpt><trkpt lat="44.691532231536065" lon="9.349106771566024"><ele>431.0</ele><time>2026-05-02T15:00:05.001Z</time></trkpt><trkpt lat="44.6915079295879" lon="9.349001883165553"><ele>431.0</ele><time>2026-05-02T15:00:06.001Z</time></trkpt><trkpt lat="44.691519666246315" lon="9.34887622940487"><ele>431.0</ele><time>2026-05-02T15:00:07.001Z</time></trkpt><trkpt lat="44.69159605287029" lon="9.348772080521611"><ele>431.0</ele><time>2026-05-02T15:00:08.001Z</time></trkpt><trkpt lat="44.691647669636396" lon="9.348650926607684"><ele>431.0</ele><time>2026-05-02T15:00:09.001Z</time></trkpt><trkpt lat="44.69170414737965" lon="9.348567664056757"><ele>431.5714285714286</ele><time>2026-05-02T15:00:10.001Z</time></trkpt><trkpt lat="44.69174479215525" lon="9.34848788775347"><ele>432.1428571428571</ele><time>2026-05-02T15:00:11.001Z</time></trkpt><trkpt lat="44.691779856567514" lon="9.348404846600596"><ele>432.7142857142857</ele><time>2026-05-02T15:00:12.001Z</time></trkpt><trkpt lat="44.6918044519426" lon="9.348314206630139"><ele>433.28571428571433</ele><time>2026-05-02T15:00:13.001Z</time></trkpt><trkpt lat="44.691821960244276" lon="9.348215655311622"><ele>433.8571428571429</ele><time>2026-05-02T15:00:14.001Z</time></trkpt><trkpt lat="44.69184228674765" lon="9.34811306497932"><ele>434.42857142857144</ele><time>2026-05-02T15:00:15.001Z</time></trkpt><trkpt lat="44.69185755350244" lon="9.348013547308764"><ele>435.0</ele><time>2026-05-02T15:00:16.001Z</time></trkpt><trkpt lat="44.69186036338529" lon="9.347922381374108"><ele>436.1666666666667</ele><time>2026-05-02T15:00:17.001Z</time></trkpt><trkpt lat="44.69183846726737" lon="9.347833665445938"><ele>437.33333333333337</ele><time>2026-05-02T15:00:18.001Z</time></trkpt><trkpt lat="44.691791385058565" lon="9.347755205029031"><ele>438.5</ele><time>2026-05-02T15:00:19.001Z</time></trkpt><trkpt lat="44.69172543574472" lon="9.347700385164064"><ele>439.6666666666667</ele><time>2026-05-02T15:00:20.001Z</time></trkpt><trkpt lat="44.69165313835924" lon="9.347670358851277"><ele>440.83333333333337</ele><time>2026-05-02T15:00:21.001Z</time></trkpt><trkpt lat="44.69158507637248" lon="9.347613205698401"><ele>442.0</ele><time>2026-05-02T15:00:22.001Z</time></trkpt><trkpt lat="44.691530566973626" lon="9.347513629628448"><ele>442.00000000000006</ele><time>2026-05-02T15:00:23.001Z</time></trkpt><trkpt lat="44.691498307840995" lon="9.347389453523556"><ele>442.0</ele><time>2026-05-02T15:00:24.001Z</time></trkpt><trkpt lat="44.691462393793756" lon="9.347279785154614"><ele>442.0</ele><time>2026-05-02T15:00:25.001Z</time></trkpt><trkpt lat="44.691437752234584" lon="9.347170322869058"><ele>442.0</ele><time>2026-05-02T15:00:26.001Z</time></trkpt><trkpt lat="44.6914393094608" lon="9.34705877505472"><ele>442.00000000000006</ele><time>2026-05-02T15:00:27.001Z</time></trkpt><trkpt lat="44.6914748998729" lon="9.34694877900736"><ele>442.0</ele><time>2026-05-02T15:00:28.001Z</time></trkpt><trkpt lat="44.69152609407039" lon="9.346843069730065"><ele>442.50000000000006</ele><time>2026-05-02T15:00:29.001Z</time></trkpt><trkpt lat="44.691574676320215" lon="9.346749868772468"><ele>443.0</ele><time>2026-05-02T15:00:30.001Z</time></trkpt><trkpt lat="44.6916061342684" lon="9.346659025483307"><ele>443.5</ele><time>2026-05-02T15:00:31.001Z</time></trkpt><trkpt lat="44.691607913418544" lon="9.346559272360475"><ele>444.0</ele><time>2026-05-02T15:00:32.001Z</time></trkpt><trkpt lat="44.69157529281819" lon="9.346450047602941"><ele>444.50000000000006</ele><time>2026-05-02T15:00:33.001Z</time></trkpt><trkpt lat="44.691509425018985" lon="9.34635930292483"><ele>445.0</ele><time>2026-05-02T15:00:34.001Z</time></trkpt><trkpt lat="44.69142812707237" lon="9.346284297528094"><ele>446.50000000000006</ele><time>2026-05-02T15:00:35.001Z</time></trkpt><trkpt lat="44.691356251248095" lon="9.346209116248847"><ele>448.0</ele><time>2026-05-02T15:00:36.001Z</time></trkpt><trkpt lat="44.69129635852322" lon="9.346144467446242"><ele>449.5</ele><time>2026-05-02T15:00:37.001Z</time></trkpt><trkpt lat="44.691238142040014" lon="9.346074141770247"><ele>451.0</ele><time>2026-05-02T15:00:38.001Z</time></trkpt><trkpt lat="44.69118449393494" lon="9.345982878073093"><ele>452.50000000000006</ele><time>2026-05-02T15:00:39.001Z</time></trkpt><trkpt lat="44.69114946917965" lon="9.345860577315642"><ele>454.0</ele><time>2026-05-02T15:00:40.001Z</time></trkpt><trkpt lat="44.69114147579683" lon="9.34571671306709"><ele>454.0</ele><time>2026-05-02T15:00:41.001Z</time></trkpt><trkpt lat="44.69115299207357" lon="9.34556571045917"><ele>454.0</ele><time>2026-05-02T15:00:42.001Z</time></trkpt><trkpt lat="44.691165722284964" lon="9.345418724362029"><ele>454.0</ele><time>2026-05-02T15:00:43.001Z</time></trkpt><trkpt lat="44.69117682703204" lon="9.345291646431752"><ele>454.0</ele><time>2026-05-02T15:00:44.001Z</time></trkpt><trkpt lat="44.691183982364926" lon="9.345172866860892"><ele>454.0</ele><time>2026-05-02T15:00:45.001Z</time></trkpt><trkpt lat="44.691193894961756" lon="9.345052463358082"><ele>452.2</ele><time>2026-05-02T15:00:46.001Z</time></trkpt><trkpt lat="44.69121583725488" lon="9.344931627942392"><ele>450.4</ele><time>2026-05-02T15:00:47.001Z</time></trkpt><trkpt lat="44.691267155754296" lon="9.3448134531706"><ele>448.6</ele><time>2026-05-02T15:00:48.001Z</time></trkpt><trkpt lat="44.691353096457135" lon="9.344727733950371"><ele>446.8</ele><time>2026-05-02T15:00:49.001Z</time></trkpt><trkpt lat="44.69147452159974" lon="9.344733050823697"><ele>445.0</ele><time>2026-05-02T15:00:50.001Z</time></trkpt><trkpt lat="44.69158330589239" lon="9.344645071734401"><ele>444.6666666666667</ele><time>2026-05-02T15:00:51.001Z</time></trkpt><trkpt lat="44.69169219232142" lon="9.344539543401712"><ele>444.33333333333337</ele><time>2026-05-02T15:00:52.001Z</time></trkpt><trkpt lat="44.691823417260025" lon="9.344393518583157"><ele>444.0</ele><time>2026-05-02T15:00:53.002Z</time></trkpt><trkpt lat="44.691956175373114" lon="9.344271842956688"><ele>444.0</ele><time>2026-05-02T15:00:54.002Z</time></trkpt><trkpt lat="44.69207368529491" lon="9.344194373032053"><ele>444.0</ele><time>2026-05-02T15:00:55.002Z</time></trkpt><trkpt lat="44.692179441303956" lon="9.344120925419036"><ele>444.0</ele><time>2026-05-02T15:00:56.002Z</time></trkpt><trkpt lat="44.692286787375906" lon="9.344018906693918"><ele>444.0</ele><time>2026-05-02T15:00:57.002Z</time></trkpt><trkpt lat="44.69240660835699" lon="9.34384092384623"><ele>449.33333333333337</ele><time>2026-05-02T15:00:58.001Z</time></trkpt><trkpt lat="44.69256003259209" lon="9.343659912471788"><ele>454.6666666666667</ele><time>2026-05-02T15:00:59.001Z</time></trkpt><trkpt lat="44.69268140809159" lon="9.343512261736402"><ele>460.0</ele><time>2026-05-02T15:01:00.001Z</time></trkpt><trkpt lat="44.69276250035756" lon="9.343368563288966"><ele>460.0</ele><time>2026-05-02T15:01:01.001Z</time></trkpt><trkpt lat="44.6928226387091" lon="9.34318083772827"><ele>460.0</ele><time>2026-05-02T15:01:02.001Z</time></trkpt><trkpt lat="44.69285617658893" lon="9.342953183807758"><ele>460.0</ele><time>2026-05-02T15:01:03.001Z</time></trkpt><trkpt lat="44.69290551589666" lon="9.342724495933094"><ele>448.0</ele><time>2026-05-02T15:01:04.001Z</time></trkpt><trkpt lat="44.693028251954544" lon="9.34253189519346"><ele>436.0</ele><time>2026-05-02T15:01:05.001Z</time></trkpt><trkpt lat="44.69313595151819" lon="9.342305552740566"><ele>424.0</ele><time>2026-05-02T15:01:06.001Z</time></trkpt><trkpt lat="44.69325386554796" lon="9.342139370331907"><ele>421.6</ele><time>2026-05-02T15:01:07.001Z</time></trkpt><trkpt lat="44.6933548811243" lon="9.342023059364836"><ele>419.2</ele><time>2026-05-02T15:01:08.001Z</time></trkpt><trkpt lat="44.69343187015428" lon="9.341943141129168"><ele>416.8</ele><time>2026-05-02T15:01:09.001Z</time></trkpt><trkpt lat="44.693469241348325" lon="9.341843655865777"><ele>414.40000000000003</ele><time>2026-05-02T15:01:10.001Z</time></trkpt><trkpt lat="44.693467978639816" lon="9.341709394815654"><ele>412.0</ele><time>2026-05-02T15:01:11.001Z</time></trkpt><trkpt lat="44.69344658043985" lon="9.34154182088047"><ele>417.00000000000006</ele><time>2026-05-02T15:01:12.001Z</time></trkpt><trkpt lat="44.69342774154869" lon="9.341381658517118"><ele>422.0</ele><time>2026-05-02T15:01:13.001Z</time></trkpt><trkpt lat="44.69339664370418" lon="9.341275058529755"><ele>427.0</ele><time>2026-05-02T15:01:14.001Z</time></trkpt><trkpt lat="44.69332984744314" lon="9.341209665946886"><ele>432.0</ele><time>2026-05-02T15:01:15.001Z</time></trkpt><trkpt lat="44.693253488264645" lon="9.341170937499497"><ele>437.00000000000006</ele><time>2026-05-02T15:01:16.001Z</time></trkpt><trkpt lat="44.6931720491578" lon="9.341150712721513"><ele>442.0</ele><time>2026-05-02T15:01:17.001Z</time></trkpt><trkpt lat="44.69307994737531" lon="9.341136046049312"><ele>442.0</ele><time>2026-05-02T15:01:18.001Z</time></trkpt><trkpt lat="44.69298463848513" lon="9.34112314213179"><ele>442.00000000000006</ele><time>2026-05-02T15:01:19.001Z</time></trkpt><trkpt lat="44.692890273972885" lon="9.341124434146595"><ele>442.00000000000006</ele><time>2026-05-02T15:01:20.001Z</time></trkpt><trkpt lat="44.69279415901185" lon="9.341143860712346"><ele>442.0</ele><time>2026-05-02T15:01:21.001Z</time></trkpt><trkpt lat="44.69270028696613" lon="9.341187185740116"><ele>442.0</ele><time>2026-05-02T15:01:22.001Z</time></trkpt><trkpt lat="44.69261119829876" lon="9.341258490283314"><ele>441.25</ele><time>2026-05-02T15:01:23.001Z</time></trkpt><trkpt lat="44.692534989843445" lon="9.341366295601823"><ele>440.5</ele><time>2026-05-02T15:01:24.001Z</time></trkpt><trkpt lat="44.69247012539088" lon="9.341494172622399"><ele>439.75</ele><time>2026-05-02T15:01:25.001Z</time></trkpt><trkpt lat="44.692402805516366" lon="9.341621877858797"><ele>439.0</ele><time>2026-05-02T15:01:26.001Z</time></trkpt><trkpt lat="44.69232362747191" lon="9.34174863732737"><ele>433.79999999999995</ele><time>2026-05-02T15:01:27.001Z</time></trkpt><trkpt lat="44.692239562203255" lon="9.341865985108793"><ele>428.59999999999997</ele><time>2026-05-02T15:01:28.001Z</time></trkpt><trkpt lat="44.69216365291558" lon="9.34197440118224"><ele>423.4</ele><time>2026-05-02T15:01:29.001Z</time></trkpt><trkpt lat="44.69210476024848" lon="9.342084904352973"><ele>418.2</ele><time>2026-05-02T15:01:30.001Z</time></trkpt><trkpt lat="44.69204927420665" lon="9.342192494568486"><ele>413.0</ele><time>2026-05-02T15:01:31.001Z</time></trkpt><trkpt lat="44.69195593852545" lon="9.342274660661769"><ele>410.2</ele><time>2026-05-02T15:01:32.001Z</time></trkpt><trkpt lat="44.69183615735682" lon="9.342310072172028"><ele>407.4</ele><time>2026-05-02T15:01:33.001Z</time></trkpt><trkpt lat="44.69173968711568" lon="9.342357563692767"><ele>404.59999999999997</ele><time>2026-05-02T15:01:34.001Z</time></trkpt><trkpt lat="44.69164267379617" lon="9.342373705922387"><ele>401.79999999999995</ele><time>2026-05-02T15:01:35.001Z</time></trkpt><trkpt lat="44.6915717757425" lon="9.342349975386231"><ele>399.0</ele><time>2026-05-02T15:01:36.001Z</time></trkpt><trkpt lat="44.69151523396599" lon="9.342265489408573"><ele>402.6</ele><time>2026-05-02T15:01:37.001Z</time></trkpt><trkpt lat="44.69149354203226" lon="9.342132387017038"><ele>406.2</ele><time>2026-05-02T15:01:38.001Z</time></trkpt><trkpt lat="44.6914854096837" lon="9.342016459417774"><ele>409.8</ele><time>2026-05-02T15:01:39.001Z</time></trkpt><trkpt lat="44.69151876720702" lon="9.341881447397308"><ele>413.40000000000003</ele><time>2026-05-02T15:01:40.001Z</time></trkpt><trkpt lat="44.69156180131371" lon="9.341722894817662"><ele>417.0</ele><time>2026-05-02T15:01:41.001Z</time></trkpt><trkpt lat="44.69156864399481" lon="9.341524036390986"><ele>418.66666666666663</ele><time>2026-05-02T15:01:42.001Z</time></trkpt><trkpt lat="44.69153066124366" lon="9.341311629116225"><ele>420.3333333333333</ele><time>2026-05-02T15:01:43.001Z</time></trkpt><trkpt lat="44.691473733441285" lon="9.341092224181866"><ele>422.0</ele><time>2026-05-02T15:01:44.001Z</time></trkpt><trkpt lat="44.69142722162599" lon="9.340918491984848"><ele>422.0</ele><time>2026-05-02T15:01:45.001Z</time></trkpt><trkpt lat="44.69142131034139" lon="9.34075531870044"><ele>422.0</ele><time>2026-05-02T15:01:46.001Z</time></trkpt><trkpt lat="44.69146306966328" lon="9.34055419853537"><ele>422.0</ele><time>2026-05-02T15:01:47.001Z</time></trkpt><trkpt lat="44.69152764541317" lon="9.34035808923211"><ele>422.0</ele><time>2026-05-02T15:01:48.001Z</time></trkpt><trkpt lat="44.69157292504174" lon="9.340199054341475"><ele>422.20000000000005</ele><time>2026-05-02T15:01:49.001Z</time></trkpt><trkpt lat="44.69159982825046" lon="9.340060692086396"><ele>422.4</ele><time>2026-05-02T15:01:50.001Z</time></trkpt><trkpt lat="44.691612235783694" lon="9.33993293871525"><ele>422.6</ele><time>2026-05-02T15:01:51.001Z</time></trkpt><trkpt lat="44.69160321165327" lon="9.339815312934258"><ele>422.79999999999995</ele><time>2026-05-02T15:01:52.001Z</time></trkpt><trkpt lat="44.69160055231935" lon="9.339719727795723"><ele>423.0</ele><time>2026-05-02T15:01:53.001Z</time></trkpt><trkpt lat="44.69168600599034" lon="9.339545952527851"><ele>422.59999999999997</ele><time>2026-05-02T15:01:55.001Z</time></trkpt><trkpt lat="44.69174156052776" lon="9.339458242460795"><ele>422.2</ele><time>2026-05-02T15:01:56.001Z</time></trkpt><trkpt lat="44.691815972114284" lon="9.33944741846157"><ele>421.8</ele><time>2026-05-02T15:01:57.001Z</time></trkpt><trkpt lat="44.69194818516712" lon="9.33945717147916"><ele>421.4</ele><time>2026-05-02T15:01:59.001Z</time></trkpt><trkpt lat="44.692027782120896" lon="9.339457225827742"><ele>421.0</ele><time>2026-05-02T15:02:00.001Z</time></trkpt><trkpt lat="44.69211789855917" lon="9.33945241979407"><ele>424.33333333333337</ele><time>2026-05-02T15:02:01.001Z</time></trkpt><trkpt lat="44.69219596334117" lon="9.339445192678"><ele>427.6666666666667</ele><time>2026-05-02T15:02:02.001Z</time></trkpt><trkpt lat="44.69226184839367" lon="9.339416371601452"><ele>431.0</ele><time>2026-05-02T15:02:03.001Z</time></trkpt><trkpt lat="44.6923680750095" lon="9.339399416557509"><ele>434.33333333333337</ele><time>2026-05-02T15:02:05.001Z</time></trkpt><trkpt lat="44.69244419501314" lon="9.339413111616539"><ele>437.6666666666667</ele><time>2026-05-02T15:02:08.001Z</time></trkpt><trkpt lat="44.69251941374413" lon="9.339387157814622"><ele>441.0</ele><time>2026-05-02T15:02:12.001Z</time></trkpt><trkpt lat="44.69258482959071" lon="9.339420567247755"><ele>441.0</ele><time>2026-05-02T15:02:15.001Z</time></trkpt><trkpt lat="44.69203326603433" lon="9.339428542505267"><ele>441.0</ele><time>2026-05-02T15:02:46.001Z</time></trkpt><trkpt lat="44.69193912381789" lon="9.339432031218237"><ele>441.0</ele><time>2026-05-02T15:02:48.001Z</time></trkpt><trkpt lat="44.69185210989623" lon="9.339428628477133"><ele>441.0</ele><time>2026-05-02T15:02:50.001Z</time></trkpt><trkpt lat="44.691773058636414" lon="9.339434088425365"><ele>441.0</ele><time>2026-05-02T15:02:52.001Z</time></trkpt><trkpt lat="44.6917019196502" lon="9.339496271687736"><ele>441.0</ele><time>2026-05-02T15:02:54.001Z</time></trkpt><trkpt lat="44.69163965125328" lon="9.339630007990452"><ele>437.6666666666667</ele><time>2026-05-02T15:02:56.001Z</time></trkpt><trkpt lat="44.69160159571038" lon="9.339708427541941"><ele>434.33333333333337</ele><time>2026-05-02T15:02:58.001Z</time></trkpt><trkpt lat="44.691511772461816" lon="9.339665492045333"><ele>431.0</ele><time>2026-05-02T15:03:01.001Z</time></trkpt><trkpt lat="44.691457725561534" lon="9.339572560022683"><ele>427.6666666666667</ele><time>2026-05-02T15:03:02.001Z</time></trkpt><trkpt lat="44.69142618890425" lon="9.339448529839643"><ele>424.33333333333337</ele><time>2026-05-02T15:03:03.001Z</time></trkpt><trkpt lat="44.6914307002366" lon="9.339334188147282"><ele>421.0</ele><time>2026-05-02T15:03:04.001Z</time></trkpt><trkpt lat="44.691468903536105" lon="9.339218430091062"><ele>421.0</ele><time>2026-05-02T15:03:05.001Z</time></trkpt><trkpt lat="44.69152768184572" lon="9.339099376842896"><ele>421.0</ele><time>2026-05-02T15:03:06.001Z</time></trkpt><trkpt lat="44.69160624714868" lon="9.338976503111631"><ele>421.0</ele><time>2026-05-02T15:03:07.001Z</time></trkpt><trkpt lat="44.691689191343045" lon="9.33883945846761"><ele>421.0</ele><time>2026-05-02T15:03:08.001Z</time></trkpt><trkpt lat="44.69176264478172" lon="9.338729009386098"><ele>420.83333333333337</ele><time>2026-05-02T15:03:09.001Z</time></trkpt><trkpt lat="44.69181688438542" lon="9.338634966536908"><ele>420.6666666666667</ele><time>2026-05-02T15:03:10.001Z</time></trkpt><trkpt lat="44.69184483052609" lon="9.338536596846568"><ele>420.5</ele><time>2026-05-02T15:03:11.001Z</time></trkpt><trkpt lat="44.69184263159039" lon="9.338425309702417"><ele>420.33333333333337</ele><time>2026-05-02T15:03:12.001Z</time></trkpt><trkpt lat="44.691816925234896" lon="9.338302855737258"><ele>420.1666666666667</ele><time>2026-05-02T15:03:13.001Z</time></trkpt><trkpt lat="44.69177275986916" lon="9.338187345473886"><ele>420.0</ele><time>2026-05-02T15:03:14.001Z</time></trkpt><trkpt lat="44.69171059701556" lon="9.338082175254504"><ele>421.8</ele><time>2026-05-02T15:03:15.001Z</time></trkpt><trkpt lat="44.6916372826347" lon="9.337997428241575"><ele>423.6</ele><time>2026-05-02T15:03:16.001Z</time></trkpt><trkpt lat="44.6915571287968" lon="9.337949382638318"><ele>425.4</ele><time>2026-05-02T15:03:17.001Z</time></trkpt><trkpt lat="44.69147398659285" lon="9.337921184502193"><ele>427.2</ele><time>2026-05-02T15:03:18.001Z</time></trkpt><trkpt lat="44.69138973344199" lon="9.337895957584253"><ele>429.0</ele><time>2026-05-02T15:03:19.001Z</time></trkpt><trkpt lat="44.69128663190717" lon="9.33787324550832"><ele>429.0</ele><time>2026-05-02T15:03:20.001Z</time></trkpt><trkpt lat="44.69116140232457" lon="9.337844831801604"><ele>429.0</ele><time>2026-05-02T15:03:21.001Z</time></trkpt><trkpt lat="44.69103593140216" lon="9.3378093392585"><ele>429.0</ele><time>2026-05-02T15:03:22.001Z</time></trkpt><trkpt lat="44.69093822830029" lon="9.337764812817356"><ele>429.0</ele><time>2026-05-02T15:03:23.001Z</time></trkpt><trkpt lat="44.690851788325915" lon="9.337685883666293"><ele>427.5</ele><time>2026-05-02T15:03:24.001Z</time></trkpt><trkpt lat="44.690756930389654" lon="9.337557679327093"><ele>426.0</ele><time>2026-05-02T15:03:25.001Z</time></trkpt><trkpt lat="44.69066204670513" lon="9.337423757510678"><ele>424.5</ele><time>2026-05-02T15:03:26.001Z</time></trkpt><trkpt lat="44.69059134519668" lon="9.337307494668515"><ele>423.0</ele><time>2026-05-02T15:03:27.001Z</time></trkpt><trkpt lat="44.690535163055394" lon="9.337201883565205"><ele>423.0</ele><time>2026-05-02T15:03:28.001Z</time></trkpt><trkpt lat="44.69050307708058" lon="9.33708667556774"><ele>423.0</ele><time>2026-05-02T15:03:29.001Z</time></trkpt><trkpt lat="44.69052993836518" lon="9.336947079431624"><ele>423.0</ele><time>2026-05-02T15:03:30.001Z</time></trkpt><trkpt lat="44.69054950668074" lon="9.336754179147938"><ele>423.0</ele><time>2026-05-02T15:03:31.001Z</time></trkpt><trkpt lat="44.69058540465507" lon="9.336505443058554"><ele>424.0</ele><time>2026-05-02T15:03:32.001Z</time></trkpt><trkpt lat="44.69059200506661" lon="9.336212658707252"><ele>425.0</ele><time>2026-05-02T15:03:33.001Z</time></trkpt><trkpt lat="44.69059172526251" lon="9.335918511686991"><ele>426.0</ele><time>2026-05-02T15:03:34.001Z</time></trkpt><trkpt lat="44.690591347331505" lon="9.335668200839708"><ele>425.0</ele><time>2026-05-02T15:03:35.001Z</time></trkpt><trkpt lat="44.69059038890468" lon="9.335449879275593"><ele>424.0</ele><time>2026-05-02T15:03:36.001Z</time></trkpt><trkpt lat="44.69058920227608" lon="9.335262096097411"><ele>423.0</ele><time>2026-05-02T15:03:37.001Z</time></trkpt><trkpt lat="44.69056474492457" lon="9.335092650774946"><ele>422.0</ele><time>2026-05-02T15:03:38.001Z</time></trkpt><trkpt lat="44.69050291765471" lon="9.33491552470282"><ele>422.0</ele><time>2026-05-02T15:03:39.001Z</time></trkpt><trkpt lat="44.690404576611186" lon="9.334730092604191"><ele>422.0</ele><time>2026-05-02T15:03:40.001Z</time></trkpt><trkpt lat="44.69029922832729" lon="9.334577163181288"><ele>422.0</ele><time>2026-05-02T15:03:41.001Z</time></trkpt><trkpt lat="44.690219571691145" lon="9.334444032385472"><ele>422.0</ele><time>2026-05-02T15:03:42.001Z</time></trkpt><trkpt lat="44.690172929491524" lon="9.334290801925201"><ele>413.66666666666663</ele><time>2026-05-02T15:03:43.001Z</time></trkpt><trkpt lat="44.69016443529928" lon="9.334090771308398"><ele>405.33333333333337</ele><time>2026-05-02T15:03:44.001Z</time></trkpt><trkpt lat="44.69017149726517" lon="9.33385995408414"><ele>397.0</ele><time>2026-05-02T15:03:45.001Z</time></trkpt><trkpt lat="44.690168436512835" lon="9.333619515020004"><ele>397.0</ele><time>2026-05-02T15:03:46.001Z</time></trkpt><trkpt lat="44.69014533659439" lon="9.333413351407273"><ele>397.0</ele><time>2026-05-02T15:03:47.001Z</time></trkpt><trkpt lat="44.69012583995112" lon="9.333243359706806"><ele>397.0</ele><time>2026-05-02T15:03:48.001Z</time></trkpt><trkpt lat="44.690124020646174" lon="9.333116362801954"><ele>397.0</ele><time>2026-05-02T15:03:49.001Z</time></trkpt><trkpt lat="44.690158860139725" lon="9.33300263898996"><ele>397.0</ele><time>2026-05-02T15:03:50.001Z</time></trkpt><trkpt lat="44.69025996526128" lon="9.33293203669711"><ele>397.0</ele><time>2026-05-02T15:03:51.001Z</time></trkpt><trkpt lat="44.690380883292434" lon="9.332835011867083"><ele>397.0</ele><time>2026-05-02T15:03:52.001Z</time></trkpt><trkpt lat="44.69052468531502" lon="9.332754127351905"><ele>397.0</ele><time>2026-05-02T15:03:53.001Z</time></trkpt><trkpt lat="44.69068569653931" lon="9.332766774649043"><ele>397.0</ele><time>2026-05-02T15:03:54.001Z</time></trkpt><trkpt lat="44.69082042049675" lon="9.332748163374065"><ele>397.0</ele><time>2026-05-02T15:03:55.001Z</time></trkpt><trkpt lat="44.69091664149288" lon="9.332747658061203"><ele>397.0</ele><time>2026-05-02T15:03:56.001Z</time></trkpt><trkpt lat="44.69098353337598" lon="9.332729068311071"><ele>397.0</ele><time>2026-05-02T15:03:57.001Z</time></trkpt><trkpt lat="44.69103635742879" lon="9.332657274094249"><ele>397.0</ele><time>2026-05-02T15:03:58.001Z</time></trkpt><trkpt lat="44.691072028329906" lon="9.33253002337119"><ele>397.00000000000006</ele><time>2026-05-02T15:03:59.001Z</time></trkpt><trkpt lat="44.69106680160179" lon="9.332395416942433"><ele>397.0</ele><time>2026-05-02T15:04:00.001Z</time></trkpt><trkpt lat="44.69102371877688" lon="9.332306324698216"><ele>397.0</ele><time>2026-05-02T15:04:01.001Z</time></trkpt><trkpt lat="44.69094899815397" lon="9.332263438344638"><ele>397.0</ele><time>2026-05-02T15:04:02.001Z</time></trkpt><trkpt lat="44.69085729880103" lon="9.332247678283627"><ele>397.00000000000006</ele><time>2026-05-02T15:04:03.001Z</time></trkpt><trkpt lat="44.69076136993992" lon="9.332222952275062"><ele>397.0</ele><time>2026-05-02T15:04:04.001Z</time></trkpt><trkpt lat="44.690650941941946" lon="9.332175435880213"><ele>398.75</ele><time>2026-05-02T15:04:05.001Z</time></trkpt><trkpt lat="44.6905571369024" lon="9.332053626457354"><ele>400.5</ele><time>2026-05-02T15:04:06.001Z</time></trkpt><trkpt lat="44.69045171836357" lon="9.331909497775047"><ele>402.25</ele><time>2026-05-02T15:04:07.001Z</time></trkpt><trkpt lat="44.69036170813828" lon="9.331741877557208"><ele>404.0</ele><time>2026-05-02T15:04:08.001Z</time></trkpt><trkpt lat="44.6902843340148" lon="9.331610411980026"><ele>404.49999999999994</ele><time>2026-05-02T15:04:09.001Z</time></trkpt><trkpt lat="44.690234492787454" lon="9.331499370327842"><ele>405.0</ele><time>2026-05-02T15:04:10.001Z</time></trkpt><trkpt lat="44.69022496863555" lon="9.331406216013583"><ele>405.5</ele><time>2026-05-02T15:04:11.001Z</time></trkpt><trkpt lat="44.69027565451441" lon="9.331278938403955"><ele>406.0</ele><time>2026-05-02T15:04:13.001Z</time></trkpt><trkpt lat="44.69030942587038" lon="9.331203327990252"><ele>406.49999999999994</ele><time>2026-05-02T15:04:16.001Z</time></trkpt><trkpt lat="44.69034299577459" lon="9.331090369688571"><ele>407.0</ele><time>2026-05-02T15:04:19.001Z</time></trkpt><trkpt lat="44.69035336077998" lon="9.330996035523373"><ele>407.00000000000006</ele><time>2026-05-02T15:04:22Z</time></trkpt><trkpt lat="44.690347006033456" lon="9.330885513707301"><ele>407.0</ele><time>2026-05-02T15:04:25Z</time></trkpt><trkpt lat="44.69032988942231" lon="9.330769647913062"><ele>407.0</ele><time>2026-05-02T15:04:28Z</time></trkpt><trkpt lat="44.690357061899626" lon="9.33085139579614"><ele>407.0</ele><time>2026-05-02T15:07:13.001Z</time></trkpt><trkpt lat="44.69035013489857" lon="9.33094756077812"><ele>407.0</ele><time>2026-05-02T15:07:19.001Z</time></trkpt><trkpt lat="44.69034771244889" lon="9.331043132825393"><ele>407.00000000000006</ele><time>2026-05-02T15:07:27Z</time></trkpt><trkpt lat="44.690334642871" lon="9.33113568071844"><ele>407.0</ele><time>2026-05-02T15:07:34Z</time></trkpt><trkpt lat="44.69028101634004" lon="9.330999259012872"><ele>375.0</ele><time>2026-05-02T15:08:34.091Z</time></trkpt><trkpt lat="44.68960355031212" lon="9.331143937660983"><ele>375.0</ele><time>2026-05-02T15:08:48Z</time></trkpt><trkpt lat="44.690230969501414" lon="9.331142692416144"><ele>379.5714285714286</ele><time>2026-05-02T15:08:51Z</time></trkpt><trkpt lat="44.69029344018197" lon="9.331111538575904"><ele>384.1428571428571</ele><time>2026-05-02T15:19:11Z</time></trkpt><trkpt lat="44.69034067829557" lon="9.331047593363468"><ele>388.7142857142857</ele><time>2026-05-02T15:19:19Z</time></trkpt><trkpt lat="44.69035661910643" lon="9.330946649849997"><ele>393.28571428571433</ele><time>2026-05-02T15:19:25Z</time></trkpt><trkpt lat="44.69036652914947" lon="9.330850969470978"><ele>397.8571428571429</ele><time>2026-05-02T15:19:30Z</time></trkpt><trkpt lat="44.690349369722746" lon="9.330753290685541"><ele>402.42857142857144</ele><time>2026-05-02T15:19:38Z</time></trkpt><trkpt lat="44.69037105393265" lon="9.330852925899697"><ele>407.0</ele><time>2026-05-02T15:23:11Z</time></trkpt><trkpt lat="44.690346904463325" lon="9.330942167446121"><ele>407.00000000000006</ele><time>2026-05-02T15:23:13Z</time></trkpt><trkpt lat="44.69031951844298" lon="9.331038503057341"><ele>407.0</ele><time>2026-05-02T15:23:15Z</time></trkpt><trkpt lat="44.690303855206075" lon="9.331138707268236"><ele>407.0</ele><time>2026-05-02T15:23:17Z</time></trkpt><trkpt lat="44.690274098445165" lon="9.331234064665816"><ele>407.0</ele><time>2026-05-02T15:23:19Z</time></trkpt><trkpt lat="44.690208823133645" lon="9.331267653619221"><ele>407.0</ele><time>2026-05-02T15:23:22Z</time></trkpt><trkpt lat="44.690167338438286" lon="9.33115375529932"><ele>407.00000000000006</ele><time>2026-05-02T15:23:29Z</time></trkpt><trkpt lat="44.69016738101919" lon="9.331057817792798"><ele>407.0</ele><time>2026-05-02T15:23:30Z</time></trkpt><trkpt lat="44.690174313468376" lon="9.330961836598535"><ele>401.99999999999994</ele><time>2026-05-02T15:23:31Z</time></trkpt><trkpt lat="44.69018500672645" lon="9.330786691715556"><ele>397.0</ele><time>2026-05-02T15:23:33Z</time></trkpt><trkpt lat="44.69019833327177" lon="9.330693648459457"><ele>392.0</ele><time>2026-05-02T15:23:34Z</time></trkpt><trkpt lat="44.69021555390044" lon="9.330585524674774"><ele>387.0</ele><time>2026-05-02T15:23:35Z</time></trkpt><trkpt lat="44.69022889048468" lon="9.330477451239114"><ele>382.0</ele><time>2026-05-02T15:23:36Z</time></trkpt><trkpt lat="44.690237087075516" lon="9.330372839636507"><ele>377.0</ele><time>2026-05-02T15:23:37Z</time></trkpt><trkpt lat="44.69023800143891" lon="9.330277803293347"><ele>377.0</ele><time>2026-05-02T15:23:38Z</time></trkpt><trkpt lat="44.69023870649765" lon="9.33018780684711"><ele>377.0</ele><time>2026-05-02T15:23:39Z</time></trkpt><trkpt lat="44.69023921529345" lon="9.330088252331027"><ele>377.0</ele><time>2026-05-02T15:23:40Z</time></trkpt><trkpt lat="44.69023945698646" lon="9.329979850542236"><ele>377.0</ele><time>2026-05-02T15:23:41Z</time></trkpt><trkpt lat="44.69022280238498" lon="9.329865488714"><ele>377.0</ele><time>2026-05-02T15:23:42Z</time></trkpt><trkpt lat="44.69018926912887" lon="9.329760249787732"><ele>377.0</ele><time>2026-05-02T15:23:43Z</time></trkpt><trkpt lat="44.69011931163469" lon="9.32966413720401"><ele>376.6</ele><time>2026-05-02T15:23:44Z</time></trkpt><trkpt lat="44.69002945391673" lon="9.329593650193804"><ele>376.20000000000005</ele><time>2026-05-02T15:23:45Z</time></trkpt><trkpt lat="44.689928383197426" lon="9.329518074540154"><ele>375.8</ele><time>2026-05-02T15:23:46Z</time></trkpt><trkpt lat="44.689821438848625" lon="9.329444629802817"><ele>375.4</ele><time>2026-05-02T15:23:47Z</time></trkpt><trkpt lat="44.689717884012964" lon="9.329385911536736"><ele>375.0</ele><time>2026-05-02T15:23:48Z</time></trkpt><trkpt lat="44.68961830793014" lon="9.329323869028734"><ele>375.0</ele><time>2026-05-02T15:23:49Z</time></trkpt><trkpt lat="44.68951636213177" lon="9.329257672861672"><ele>375.0</ele><time>2026-05-02T15:23:50Z</time></trkpt><trkpt lat="44.68941412527515" lon="9.329188875133843"><ele>375.0</ele><time>2026-05-02T15:23:51Z</time></trkpt><trkpt lat="44.68930887261023" lon="9.329126151893671"><ele>375.0</ele><time>2026-05-02T15:23:52Z</time></trkpt><trkpt lat="44.689210231439844" lon="9.329061914252502"><ele>375.0</ele><time>2026-05-02T15:23:53Z</time></trkpt><trkpt lat="44.68911542143308" lon="9.329001156962773"><ele>374.6666666666667</ele><time>2026-05-02T15:23:54Z</time></trkpt><trkpt lat="44.6890343383392" lon="9.328950879714226"><ele>374.3333333333333</ele><time>2026-05-02T15:23:55Z</time></trkpt><trkpt lat="44.68896167184709" lon="9.328894613240577"><ele>374.0</ele><time>2026-05-02T15:23:56Z</time></trkpt><trkpt lat="44.6889150117061" lon="9.328804909154092"><ele>373.66666666666663</ele><time>2026-05-02T15:23:57Z</time></trkpt><trkpt lat="44.688873837339564" lon="9.32871697339036"><ele>373.3333333333333</ele><time>2026-05-02T15:23:58Z</time></trkpt><trkpt lat="44.68891776726519" lon="9.328579506512034"><ele>373.0</ele><time>2026-05-02T15:23:59Z</time></trkpt><trkpt lat="44.688954427772345" lon="9.328450741413132"><ele>373.0</ele><time>2026-05-02T15:24:00Z</time></trkpt><trkpt lat="44.688977725859296" lon="9.328330807540647"><ele>373.0</ele><time>2026-05-02T15:24:01Z</time></trkpt><trkpt lat="44.68900320558959" lon="9.328225468589368"><ele>373.0</ele><time>2026-05-02T15:24:02Z</time></trkpt><trkpt lat="44.68903418616021" lon="9.328126495927124"><ele>373.0</ele><time>2026-05-02T15:24:03Z</time></trkpt><trkpt lat="44.68905853835525" lon="9.328027722269216"><ele>373.0</ele><time>2026-05-02T15:24:04Z</time></trkpt><trkpt lat="44.689079052634355" lon="9.327931563206944"><ele>373.0</ele><time>2026-05-02T15:24:05Z</time></trkpt><trkpt lat="44.689093536139424" lon="9.327841040170957"><ele>373.8333333333333</ele><time>2026-05-02T15:24:06Z</time></trkpt><trkpt lat="44.68910534495678" lon="9.32773795256398"><ele>374.66666666666663</ele><time>2026-05-02T15:24:07Z</time></trkpt><trkpt lat="44.68911757396704" lon="9.327606646005346"><ele>375.5</ele><time>2026-05-02T15:24:08Z</time></trkpt><trkpt lat="44.68912293457413" lon="9.3274725065721"><ele>376.3333333333333</ele><time>2026-05-02T15:24:09Z</time></trkpt><trkpt lat="44.689123999854814" lon="9.327332251338817"><ele>377.1666666666667</ele><time>2026-05-02T15:24:10Z</time></trkpt><trkpt lat="44.68914855873136" lon="9.327216550491933"><ele>378.0</ele><time>2026-05-02T15:24:11Z</time></trkpt><trkpt lat="44.68915912154367" lon="9.32709859006708"><ele>380.33333333333337</ele><time>2026-05-02T15:24:12Z</time></trkpt><trkpt lat="44.689179147373636" lon="9.326910287419041"><ele>382.6666666666667</ele><time>2026-05-02T15:24:13Z</time></trkpt><trkpt lat="44.6891935430799" lon="9.326694030977503"><ele>385.0</ele><time>2026-05-02T15:24:14Z</time></trkpt><trkpt lat="44.68922977916457" lon="9.326474961367527"><ele>386.33333333333337</ele><time>2026-05-02T15:24:15Z</time></trkpt><trkpt lat="44.689286359616396" lon="9.32626444351967"><ele>387.66666666666663</ele><time>2026-05-02T15:24:16Z</time></trkpt><trkpt lat="44.68931602502067" lon="9.326040453192585"><ele>389.0</ele><time>2026-05-02T15:24:17Z</time></trkpt><trkpt lat="44.68933297953075" lon="9.325791450962157"><ele>390.0</ele><time>2026-05-02T15:24:18Z</time></trkpt><trkpt lat="44.68934729758807" lon="9.325536726166053"><ele>391.0</ele><time>2026-05-02T15:24:19Z</time></trkpt><trkpt lat="44.68934693996571" lon="9.325266173759866"><ele>392.0</ele><time>2026-05-02T15:24:20Z</time></trkpt><trkpt lat="44.68933429414174" lon="9.32499641819818"><ele>392.66666666666663</ele><time>2026-05-02T15:24:21Z</time></trkpt><trkpt lat="44.68930683053879" lon="9.324715783460178"><ele>393.33333333333337</ele><time>2026-05-02T15:24:22Z</time></trkpt><trkpt lat="44.689301082759066" lon="9.324445399596232"><ele>394.0</ele><time>2026-05-02T15:24:23Z</time></trkpt><trkpt lat="44.68930068924831" lon="9.324233647711926"><ele>394.0</ele><time>2026-05-02T15:24:24Z</time></trkpt><trkpt lat="44.68929503965593" lon="9.324050873913773"><ele>394.0</ele><time>2026-05-02T15:24:25Z</time></trkpt><trkpt lat="44.68927630493991" lon="9.323884356242067"><ele>394.0</ele><time>2026-05-02T15:24:26Z</time></trkpt><trkpt lat="44.68922393715164" lon="9.323716684155215"><ele>394.0</ele><time>2026-05-02T15:24:27Z</time></trkpt><trkpt lat="44.68914065223039" lon="9.323543240003282"><ele>393.25</ele><time>2026-05-02T15:24:28Z</time></trkpt><trkpt lat="44.689054031642044" lon="9.323388448017296"><ele>392.5</ele><time>2026-05-02T15:24:29Z</time></trkpt><trkpt lat="44.688975128324444" lon="9.323265851728811"><ele>391.75</ele><time>2026-05-02T15:24:30Z</time></trkpt><trkpt lat="44.6889008008345" lon="9.323176442394114"><ele>391.0</ele><time>2026-05-02T15:24:31Z</time></trkpt><trkpt lat="44.68879591858123" lon="9.323102791777785"><ele>389.0</ele><time>2026-05-02T15:24:32Z</time></trkpt><trkpt lat="44.688673670090346" lon="9.323045912598625"><ele>387.0</ele><time>2026-05-02T15:24:33Z</time></trkpt><trkpt lat="44.68854946071585" lon="9.323003149913472"><ele>385.0</ele><time>2026-05-02T15:24:34Z</time></trkpt><trkpt lat="44.68844390898381" lon="9.322951245318775"><ele>383.0</ele><time>2026-05-02T15:24:35Z</time></trkpt><trkpt lat="44.688361047873514" lon="9.32288793403938"><ele>387.2</ele><time>2026-05-02T15:24:36Z</time></trkpt><trkpt lat="44.688290565702516" lon="9.322820387973188"><ele>391.4</ele><time>2026-05-02T15:24:37Z</time></trkpt><trkpt lat="44.68823858225469" lon="9.322728395931632"><ele>395.59999999999997</ele><time>2026-05-02T15:24:38Z</time></trkpt><trkpt lat="44.68821330592349" lon="9.322608717201176"><ele>399.79999999999995</ele><time>2026-05-02T15:24:39Z</time></trkpt><trkpt lat="44.688211875967234" lon="9.322446693258433"><ele>404.0</ele><time>2026-05-02T15:24:40Z</time></trkpt><trkpt lat="44.688219828507044" lon="9.322282291299308"><ele>404.0</ele><time>2026-05-02T15:24:41Z</time></trkpt><trkpt lat="44.68820936283398" lon="9.322134041470926"><ele>404.0</ele><time>2026-05-02T15:24:42Z</time></trkpt><trkpt lat="44.688179800932" lon="9.321997297431704"><ele>404.0</ele><time>2026-05-02T15:24:43Z</time></trkpt><trkpt lat="44.68813118589885" lon="9.321850695271218"><ele>404.0</ele><time>2026-05-02T15:24:44Z</time></trkpt><trkpt lat="44.68808081605134" lon="9.32169919291521"><ele>404.0</ele><time>2026-05-02T15:24:45Z</time></trkpt><trkpt lat="44.68805403817479" lon="9.321529084152642"><ele>402.66666666666663</ele><time>2026-05-02T15:24:46Z</time></trkpt><trkpt lat="44.68805803975135" lon="9.321335739997773"><ele>401.33333333333337</ele><time>2026-05-02T15:24:47Z</time></trkpt><trkpt lat="44.68806758661748" lon="9.321101403588447"><ele>400.0</ele><time>2026-05-02T15:24:48Z</time></trkpt><trkpt lat="44.688069080481895" lon="9.320815189008616"><ele>398.0</ele><time>2026-05-02T15:24:49Z</time></trkpt><trkpt lat="44.68808315673419" lon="9.320528432057827"><ele>396.0</ele><time>2026-05-02T15:24:50Z</time></trkpt><trkpt lat="44.68810279422753" lon="9.320295526340836"><ele>394.0</ele><time>2026-05-02T15:24:51Z</time></trkpt><trkpt lat="44.68812445315124" lon="9.320108533999536"><ele>394.0</ele><time>2026-05-02T15:24:52Z</time></trkpt><trkpt lat="44.68813974118526" lon="9.319946748672274"><ele>394.0</ele><time>2026-05-02T15:24:53Z</time></trkpt><trkpt lat="44.6881357763492" lon="9.31979111013771"><ele>394.0</ele><time>2026-05-02T15:24:54Z</time></trkpt><trkpt lat="44.68813291919177" lon="9.319638974765024"><ele>394.0</ele><time>2026-05-02T15:24:55Z</time></trkpt><trkpt lat="44.68811751727873" lon="9.319537636260296"><ele>394.0</ele><time>2026-05-02T15:24:56Z</time></trkpt><trkpt lat="44.68808760540722" lon="9.319424217747093"><ele>392.79999999999995</ele><time>2026-05-02T15:24:57Z</time></trkpt><trkpt lat="44.68801675752523" lon="9.319301943704204"><ele>391.59999999999997</ele><time>2026-05-02T15:24:58Z</time></trkpt><trkpt lat="44.6879202716441" lon="9.319211287760325"><ele>390.4</ele><time>2026-05-02T15:24:59Z</time></trkpt><trkpt lat="44.68781049379224" lon="9.319160297403139"><ele>389.2</ele><time>2026-05-02T15:25:00Z</time></trkpt><trkpt lat="44.687716301121355" lon="9.319165862423478"><ele>388.0</ele><time>2026-05-02T15:25:01Z</time></trkpt><trkpt lat="44.68762642326056" lon="9.319217938586343"><ele>394.2</ele><time>2026-05-02T15:25:02Z</time></trkpt><trkpt lat="44.6875352624267" lon="9.319309788109171"><ele>400.4</ele><time>2026-05-02T15:25:03Z</time></trkpt><trkpt lat="44.68742300186569" lon="9.31942141531206"><ele>406.59999999999997</ele><time>2026-05-02T15:25:04Z</time></trkpt><trkpt lat="44.6873403689925" lon="9.31949409070695"><ele>412.79999999999995</ele><time>2026-05-02T15:25:05Z</time></trkpt><trkpt lat="44.68724740005604" lon="9.319526787804847"><ele>419.0</ele><time>2026-05-02T15:25:06Z</time></trkpt><trkpt lat="44.687153594493154" lon="9.319494328664417"><ele>419.0</ele><time>2026-05-02T15:25:07Z</time></trkpt><trkpt lat="44.68709382380302" lon="9.319389297701452"><ele>419.0</ele><time>2026-05-02T15:25:08Z</time></trkpt><trkpt lat="44.68704984690029" lon="9.319253880152377"><ele>419.0</ele><time>2026-05-02T15:25:09Z</time></trkpt><trkpt lat="44.6869907259074" lon="9.319070838965406"><ele>419.0</ele><time>2026-05-02T15:25:10Z</time></trkpt><trkpt lat="44.68693072636116" lon="9.318885818382565"><ele>426.0</ele><time>2026-05-02T15:25:11Z</time></trkpt><trkpt lat="44.68688301798983" lon="9.318720777785265"><ele>433.0</ele><time>2026-05-02T15:25:12Z</time></trkpt><trkpt lat="44.68685111796793" lon="9.318561994338689"><ele>440.0</ele><time>2026-05-02T15:25:13Z</time></trkpt><trkpt lat="44.686864932018366" lon="9.318395409714446"><ele>447.0</ele><time>2026-05-02T15:25:14Z</time></trkpt><trkpt lat="44.68689570580493" lon="9.318217038252351"><ele>437.75</ele><time>2026-05-02T15:25:15Z</time></trkpt><trkpt lat="44.68695058836779" lon="9.318040334145284"><ele>428.5</ele><time>2026-05-02T15:25:16Z</time></trkpt><trkpt lat="44.68705218248414" lon="9.317870466946445"><ele>419.25</ele><time>2026-05-02T15:25:17Z</time></trkpt><trkpt lat="44.68713989593894" lon="9.317724991780471"><ele>410.0</ele><time>2026-05-02T15:25:18Z</time></trkpt><trkpt lat="44.68723239079185" lon="9.317612185913465"><ele>410.0</ele><time>2026-05-02T15:25:19Z</time></trkpt><trkpt lat="44.68729113065522" lon="9.317491119476323"><ele>410.0</ele><time>2026-05-02T15:25:20Z</time></trkpt><trkpt lat="44.687315084802435" lon="9.317352016942698"><ele>410.0</ele><time>2026-05-02T15:25:21Z</time></trkpt><trkpt lat="44.68730340586976" lon="9.317199139362007"><ele>410.0</ele><time>2026-05-02T15:25:22Z</time></trkpt><trkpt lat="44.68725361788812" lon="9.317030875691737"><ele>410.0</ele><time>2026-05-02T15:25:23Z</time></trkpt><trkpt lat="44.687221852314444" lon="9.316848242849442"><ele>414.0</ele><time>2026-05-02T15:25:24Z</time></trkpt><trkpt lat="44.68724003853306" lon="9.316638332059345"><ele>418.0</ele><time>2026-05-02T15:25:25Z</time></trkpt><trkpt lat="44.68727624467857" lon="9.316397615499238"><ele>422.0</ele><time>2026-05-02T15:25:26Z</time></trkpt><trkpt lat="44.68732039097983" lon="9.316148537891706"><ele>424.5</ele><time>2026-05-02T15:25:27Z</time></trkpt><trkpt lat="44.68736096981063" lon="9.31592447591803"><ele>427.0</ele><time>2026-05-02T15:25:28Z</time></trkpt><trkpt lat="44.687386474031385" lon="9.315732356693571"><ele>429.5</ele><time>2026-05-02T15:25:29Z</time></trkpt><trkpt lat="44.687385033784494" lon="9.315550873619172"><ele>432.0</ele><time>2026-05-02T15:25:30Z</time></trkpt><trkpt lat="44.6873576371823" lon="9.315382871281809"><ele>435.25</ele><time>2026-05-02T15:25:31Z</time></trkpt><trkpt lat="44.687347958270614" lon="9.315258102432495"><ele>438.5</ele><time>2026-05-02T15:25:32Z</time></trkpt><trkpt lat="44.68739055186672" lon="9.315151138020395"><ele>441.75</ele><time>2026-05-02T15:25:33Z</time></trkpt><trkpt lat="44.687492373063094" lon="9.315050376984047"><ele>445.0</ele><time>2026-05-02T15:25:34Z</time></trkpt><trkpt lat="44.68757289984147" lon="9.31487236558515"><ele>448.33333333333337</ele><time>2026-05-02T15:25:35Z</time></trkpt><trkpt lat="44.68765218115087" lon="9.314669351553759"><ele>451.66666666666663</ele><time>2026-05-02T15:25:36Z</time></trkpt><trkpt lat="44.6877092301204" lon="9.314471176023458"><ele>455.0</ele><time>2026-05-02T15:25:37Z</time></trkpt><trkpt lat="44.68774178257432" lon="9.314263888610059"><ele>455.0</ele><time>2026-05-02T15:25:38Z</time></trkpt><trkpt lat="44.687749092477546" lon="9.314051766949264"><ele>455.0</ele><time>2026-05-02T15:25:39Z</time></trkpt><trkpt lat="44.68773535740612" lon="9.31387621081848"><ele>455.0</ele><time>2026-05-02T15:25:40Z</time></trkpt><trkpt lat="44.687709218294145" lon="9.313739148851457"><ele>455.0</ele><time>2026-05-02T15:25:41Z</time></trkpt><trkpt lat="44.68764847907257" lon="9.313626962644122"><ele>452.4</ele><time>2026-05-02T15:25:42Z</time></trkpt><trkpt lat="44.68755780568846" lon="9.313531169656581"><ele>449.8</ele><time>2026-05-02T15:25:43Z</time></trkpt><trkpt lat="44.68744527304822" lon="9.313471901048949"><ele>447.20000000000005</ele><time>2026-05-02T15:25:44Z</time></trkpt><trkpt lat="44.68733563947741" lon="9.313435872744241"><ele>444.6</ele><time>2026-05-02T15:25:45Z</time></trkpt><trkpt lat="44.68725359652357" lon="9.313361912061279"><ele>442.0</ele><time>2026-05-02T15:25:46Z</time></trkpt><trkpt lat="44.68719990111197" lon="9.313236536535092"><ele>442.0</ele><time>2026-05-02T15:25:47Z</time></trkpt><trkpt lat="44.68716800546383" lon="9.31307957466308"><ele>442.0</ele><time>2026-05-02T15:25:48Z</time></trkpt><trkpt lat="44.68713799829856" lon="9.312914412682588"><ele>442.0</ele><time>2026-05-02T15:25:49Z</time></trkpt><trkpt lat="44.68708950610513" lon="9.31274722716093"><ele>442.0</ele><time>2026-05-02T15:25:50Z</time></trkpt><trkpt lat="44.687033560595616" lon="9.312559256594843"><ele>446.6666666666667</ele><time>2026-05-02T15:25:51Z</time></trkpt><trkpt lat="44.68697078469757" lon="9.312356619544639"><ele>451.33333333333337</ele><time>2026-05-02T15:25:52Z</time></trkpt><trkpt lat="44.68689140549055" lon="9.31214855592578"><ele>456.0</ele><time>2026-05-02T15:25:53Z</time></trkpt><trkpt lat="44.686819740571295" lon="9.311981475430585"><ele>456.0</ele><time>2026-05-02T15:25:54Z</time></trkpt><trkpt lat="44.6867521941642" lon="9.311858928000005"><ele>456.0</ele><time>2026-05-02T15:25:55Z</time></trkpt><trkpt lat="44.68668719078767" lon="9.311767616130018"><ele>456.0</ele><time>2026-05-02T15:25:56Z</time></trkpt><trkpt lat="44.686627742685076" lon="9.311692436974361"><ele>456.0</ele><time>2026-05-02T15:25:57Z</time></trkpt><trkpt lat="44.6865667175236" lon="9.311635881815963"><ele>456.0</ele><time>2026-05-02T15:25:58Z</time></trkpt><trkpt lat="44.68649831785753" lon="9.311591327655432"><ele>456.0</ele><time>2026-05-02T15:25:59Z</time></trkpt><trkpt lat="44.686441510574646" lon="9.311549642246442"><ele>456.0</ele><time>2026-05-02T15:26:00Z</time></trkpt><trkpt lat="44.686346245672" lon="9.3114717287813"><ele>456.0</ele><time>2026-05-02T15:26:02Z</time></trkpt><trkpt lat="44.68627820158515" lon="9.31136083145719"><ele>456.0</ele><time>2026-05-02T15:26:04Z</time></trkpt><trkpt lat="44.68622823115814" lon="9.31120799015608"><ele>456.0</ele><time>2026-05-02T15:26:06Z</time></trkpt><trkpt lat="44.68621448622092" lon="9.311112956380898"><ele>456.0</ele><time>2026-05-02T15:26:07Z</time></trkpt><trkpt lat="44.686216279174424" lon="9.311008032097284"><ele>454.4</ele><time>2026-05-02T15:26:08Z</time></trkpt><trkpt lat="44.68622711030391" lon="9.310900562524631"><ele>452.8</ele><time>2026-05-02T15:26:09Z</time></trkpt><trkpt lat="44.686245315105914" lon="9.310774531186235"><ele>451.19999999999993</ele><time>2026-05-02T15:26:10Z</time></trkpt><trkpt lat="44.68627166845785" lon="9.310646812300412"><ele>449.59999999999997</ele><time>2026-05-02T15:26:11Z</time></trkpt><trkpt lat="44.686306290815395" lon="9.310517787339526"><ele>448.0</ele><time>2026-05-02T15:26:12Z</time></trkpt><trkpt lat="44.686353895577454" lon="9.310402451468326"><ele>452.4</ele><time>2026-05-02T15:26:13Z</time></trkpt><trkpt lat="44.68641588369766" lon="9.31029972097694"><ele>456.79999999999995</ele><time>2026-05-02T15:26:14Z</time></trkpt><trkpt lat="44.686495154491595" lon="9.310229549152027"><ele>461.2</ele><time>2026-05-02T15:26:15Z</time></trkpt><trkpt lat="44.68659129886869" lon="9.310222117041846"><ele>465.6</ele><time>2026-05-02T15:26:16Z</time></trkpt><trkpt lat="44.686676279627136" lon="9.31017964954852"><ele>470.0</ele><time>2026-05-02T15:26:17Z</time></trkpt><trkpt lat="44.68675188060578" lon="9.310160153954818"><ele>470.0</ele><time>2026-05-02T15:26:18Z</time></trkpt><trkpt lat="44.68682559503232" lon="9.31010645204666"><ele>470.0</ele><time>2026-05-02T15:26:19Z</time></trkpt><trkpt lat="44.68689847648382" lon="9.31001400408069"><ele>470.0</ele><time>2026-05-02T15:26:20Z</time></trkpt><trkpt lat="44.68695895653466" lon="9.309883284218012"><ele>470.0</ele><time>2026-05-02T15:26:21Z</time></trkpt><trkpt lat="44.68699740383072" lon="9.30973998092956"><ele>470.0</ele><time>2026-05-02T15:26:22Z</time></trkpt><trkpt lat="44.687010812707015" lon="9.30959294327043"><ele>469.6</ele><time>2026-05-02T15:26:23Z</time></trkpt><trkpt lat="44.68699253964421" lon="9.309447390245772"><ele>469.2</ele><time>2026-05-02T15:26:24Z</time></trkpt><trkpt lat="44.68695228393009" lon="9.30930842283392"><ele>468.79999999999995</ele><time>2026-05-02T15:26:25Z</time></trkpt><trkpt lat="44.686889951197834" lon="9.309181602843154"><ele>468.4</ele><time>2026-05-02T15:26:26Z</time></trkpt><trkpt lat="44.68680887537788" lon="9.309070076137228"><ele>468.0</ele><time>2026-05-02T15:26:27Z</time></trkpt><trkpt lat="44.686711791918555" lon="9.308998441781133"><ele>468.0</ele><time>2026-05-02T15:26:28Z</time></trkpt><trkpt lat="44.68660894395661" lon="9.308953899532082"><ele>467.99999999999994</ele><time>2026-05-02T15:26:29Z</time></trkpt><trkpt lat="44.68650633184643" lon="9.308927289107551"><ele>467.99999999999994</ele><time>2026-05-02T15:26:30Z</time></trkpt><trkpt lat="44.68640354649107" lon="9.308892756935986"><ele>468.0</ele><time>2026-05-02T15:26:31Z</time></trkpt><trkpt lat="44.68629906966766" lon="9.308852252852583"><ele>468.0</ele><time>2026-05-02T15:26:32Z</time></trkpt><trkpt lat="44.686178824747074" lon="9.308813633131173"><ele>462.66666666666663</ele><time>2026-05-02T15:26:33Z</time></trkpt><trkpt lat="44.68605010312435" lon="9.30880668968466"><ele>457.3333333333333</ele><time>2026-05-02T15:26:34Z</time></trkpt><trkpt lat="44.68589293470466" lon="9.308842426938009"><ele>452.0</ele><time>2026-05-02T15:26:35Z</time></trkpt><trkpt lat="44.68570501312709" lon="9.308879458308517"><ele>452.0</ele><time>2026-05-02T15:26:36Z</time></trkpt><trkpt lat="44.68549392452957" lon="9.308839501846615"><ele>452.0</ele><time>2026-05-02T15:26:37Z</time></trkpt><trkpt lat="44.68529412080303" lon="9.308839313651282"><ele>452.0</ele><time>2026-05-02T15:26:38Z</time></trkpt><trkpt lat="44.685134069509914" lon="9.30884362259318"><ele>457.3333333333333</ele><time>2026-05-02T15:26:39Z</time></trkpt><trkpt lat="44.6849938895169" lon="9.308863731933076"><ele>462.66666666666663</ele><time>2026-05-02T15:26:40Z</time></trkpt><trkpt lat="44.68485230771964" lon="9.308924528792462"><ele>468.0</ele><time>2026-05-02T15:26:41Z</time></trkpt><trkpt lat="44.68470587271151" lon="9.309026511550483"><ele>473.5</ele><time>2026-05-02T15:26:42Z</time></trkpt><trkpt lat="44.68458015068108" lon="9.309126045542074"><ele>479.0</ele><time>2026-05-02T15:26:43Z</time></trkpt><trkpt lat="44.68444241092436" lon="9.309121236992338"><ele>484.5</ele><time>2026-05-02T15:26:44Z</time></trkpt><trkpt lat="44.684276148650376" lon="9.30911046128466"><ele>490.0</ele><time>2026-05-02T15:26:45Z</time></trkpt><trkpt lat="44.684114471519365" lon="9.309103080062297"><ele>490.2</ele><time>2026-05-02T15:26:46Z</time></trkpt><trkpt lat="44.68400621794625" lon="9.309066297524533"><ele>490.4</ele><time>2026-05-02T15:26:47Z</time></trkpt><trkpt lat="44.68393853970484" lon="9.308997735201636"><ele>490.6</ele><time>2026-05-02T15:26:48Z</time></trkpt><trkpt lat="44.68388290171751" lon="9.30887043065675"><ele>490.8</ele><time>2026-05-02T15:26:49Z</time></trkpt><trkpt lat="44.683811428881164" lon="9.308693173726827"><ele>491.0</ele><time>2026-05-02T15:26:50Z</time></trkpt><trkpt lat="44.68372807567558" lon="9.308552021186504"><ele>490.6</ele><time>2026-05-02T15:26:51Z</time></trkpt><trkpt lat="44.68361862027929" lon="9.30845916601122"><ele>490.20000000000005</ele><time>2026-05-02T15:26:52Z</time></trkpt><trkpt lat="44.68350067446596" lon="9.308399427918122"><ele>489.79999999999995</ele><time>2026-05-02T15:26:53Z</time></trkpt><trkpt lat="44.683406731498856" lon="9.308342315659312"><ele>489.4</ele><time>2026-05-02T15:26:54Z</time></trkpt><trkpt lat="44.683337833883776" lon="9.30827180345633"><ele>489.0</ele><time>2026-05-02T15:26:55Z</time></trkpt><trkpt lat="44.68330255303551" lon="9.308188676458341"><ele>489.0</ele><time>2026-05-02T15:26:56Z</time></trkpt><trkpt lat="44.68330858789598" lon="9.3080940611442"><ele>489.0</ele><time>2026-05-02T15:26:57Z</time></trkpt><trkpt lat="44.683349861177064" lon="9.30799204757197"><ele>489.0</ele><time>2026-05-02T15:26:58Z</time></trkpt><trkpt lat="44.68343371781448" lon="9.307874453540705"><ele>489.0</ele><time>2026-05-02T15:26:59Z</time></trkpt><trkpt lat="44.68354384607962" lon="9.307733728519727"><ele>489.0</ele><time>2026-05-02T15:27:00Z</time></trkpt><trkpt lat="44.683629522454815" lon="9.307580746587886"><ele>487.25</ele><time>2026-05-02T15:27:01Z</time></trkpt><trkpt lat="44.68368609529087" lon="9.307416275580552"><ele>485.5</ele><time>2026-05-02T15:27:02Z</time></trkpt><trkpt lat="44.683729923887334" lon="9.307239661371588"><ele>483.75</ele><time>2026-05-02T15:27:03Z</time></trkpt><trkpt lat="44.683765856187215" lon="9.307037348089498"><ele>482.0</ele><time>2026-05-02T15:27:04Z</time></trkpt><trkpt lat="44.68379880912415" lon="9.306830935847024"><ele>481.75</ele><time>2026-05-02T15:27:05Z</time></trkpt><trkpt lat="44.68382341445851" lon="9.30666860616627"><ele>481.5</ele><time>2026-05-02T15:27:06Z</time></trkpt><trkpt lat="44.68382252792831" lon="9.306523987537842"><ele>481.25</ele><time>2026-05-02T15:27:07Z</time></trkpt><trkpt lat="44.6837788092291" lon="9.306347259488234"><ele>481.0</ele><time>2026-05-02T15:27:08Z</time></trkpt><trkpt lat="44.68372729815704" lon="9.30616680035258"><ele>478.20000000000005</ele><time>2026-05-02T15:27:09Z</time></trkpt><trkpt lat="44.683685507009514" lon="9.306032502705909"><ele>475.40000000000003</ele><time>2026-05-02T15:27:10Z</time></trkpt><trkpt lat="44.68362921715786" lon="9.305937401502117"><ele>472.6</ele><time>2026-05-02T15:27:11Z</time></trkpt><trkpt lat="44.68353823779723" lon="9.305869852267342"><ele>469.8</ele><time>2026-05-02T15:27:12Z</time></trkpt><trkpt lat="44.68340636638099" lon="9.305835206463643"><ele>467.0</ele><time>2026-05-02T15:27:13Z</time></trkpt><trkpt lat="44.683293664951414" lon="9.30579739813834"><ele>471.40000000000003</ele><time>2026-05-02T15:27:14Z</time></trkpt><trkpt lat="44.68320587788912" lon="9.305733545188541"><ele>475.80000000000007</ele><time>2026-05-02T15:27:15Z</time></trkpt><trkpt lat="44.683133746378864" lon="9.305632336942637"><ele>480.2</ele><time>2026-05-02T15:27:16Z</time></trkpt><trkpt lat="44.68308496174248" lon="9.305502941886656"><ele>484.6</ele><time>2026-05-02T15:27:17Z</time></trkpt><trkpt lat="44.68308538206552" lon="9.305338323159875"><ele>489.0</ele><time>2026-05-02T15:27:18Z</time></trkpt><trkpt lat="44.68310824000585" lon="9.305165023252547"><ele>489.0</ele><time>2026-05-02T15:27:19Z</time></trkpt><trkpt lat="44.68308644404046" lon="9.304995272546767"><ele>489.0</ele><time>2026-05-02T15:27:20Z</time></trkpt><trkpt lat="44.68301442080135" lon="9.304801612401922"><ele>489.0</ele><time>2026-05-02T15:27:21Z</time></trkpt><trkpt lat="44.6829264568018" lon="9.304603145490123"><ele>489.0</ele><time>2026-05-02T15:27:22Z</time></trkpt><trkpt lat="44.68284398502" lon="9.304393605037113"><ele>489.5</ele><time>2026-05-02T15:27:23Z</time></trkpt><trkpt lat="44.68277261593511" lon="9.30421590448933"><ele>490.0</ele><time>2026-05-02T15:27:24Z</time></trkpt><trkpt lat="44.68271110725036" lon="9.304076053027828"><ele>490.5</ele><time>2026-05-02T15:27:25Z</time></trkpt><trkpt lat="44.68264780133012" lon="9.303980681995977"><ele>491.0</ele><time>2026-05-02T15:27:26Z</time></trkpt><trkpt lat="44.68255776173819" lon="9.30392693671863"><ele>493.5</ele><time>2026-05-02T15:27:27Z</time></trkpt><trkpt lat="44.68244462580523" lon="9.303905507058232"><ele>496.0</ele><time>2026-05-02T15:27:28Z</time></trkpt><trkpt lat="44.68230719025117" lon="9.303925958629089"><ele>498.5</ele><time>2026-05-02T15:27:29Z</time></trkpt><trkpt lat="44.68211703766045" lon="9.303982581765855"><ele>501.0</ele><time>2026-05-02T15:27:30Z</time></trkpt><trkpt lat="44.68189790274856" lon="9.304046434657778"><ele>502.66666666666663</ele><time>2026-05-02T15:27:31Z</time></trkpt><trkpt lat="44.68170110337102" lon="9.304074058719275"><ele>504.3333333333333</ele><time>2026-05-02T15:27:32Z</time></trkpt><trkpt lat="44.68152649000263" lon="9.304130524119477"><ele>506.0</ele><time>2026-05-02T15:27:33Z</time></trkpt><trkpt lat="44.68136983340444" lon="9.304166389505367"><ele>506.0</ele><time>2026-05-02T15:27:34Z</time></trkpt><trkpt lat="44.681226829657376" lon="9.304186808836294"><ele>506.0</ele><time>2026-05-02T15:27:35Z</time></trkpt><trkpt lat="44.681088316606896" lon="9.304159536906953"><ele>506.0</ele><time>2026-05-02T15:27:36Z</time></trkpt><trkpt lat="44.68096631759092" lon="9.3041114277722"><ele>506.0</ele><time>2026-05-02T15:27:37Z</time></trkpt><trkpt lat="44.680841091187695" lon="9.304043763850114"><ele>504.3333333333333</ele><time>2026-05-02T15:27:38Z</time></trkpt><trkpt lat="44.680716519522896" lon="9.303895135599268"><ele>502.66666666666663</ele><time>2026-05-02T15:27:39Z</time></trkpt><trkpt lat="44.680587856472336" lon="9.303747582409766"><ele>501.0</ele><time>2026-05-02T15:27:40Z</time></trkpt><trkpt lat="44.68047404516194" lon="9.303604632531805"><ele>501.0</ele><time>2026-05-02T15:27:41Z</time></trkpt><trkpt lat="44.68037512183471" lon="9.30348540582066"><ele>501.0</ele><time>2026-05-02T15:27:42Z</time></trkpt><trkpt lat="44.68028140079185" lon="9.30338459056994"><ele>501.0</ele><time>2026-05-02T15:27:43Z</time></trkpt><trkpt lat="44.680197744980575" lon="9.303312231501948"><ele>501.0</ele><time>2026-05-02T15:27:44Z</time></trkpt><trkpt lat="44.680105136929704" lon="9.30328093408708"><ele>501.0</ele><time>2026-05-02T15:27:45Z</time></trkpt><trkpt lat="44.67999952278316" lon="9.303304958068335"><ele>506.66666666666663</ele><time>2026-05-02T15:27:46Z</time></trkpt><trkpt lat="44.679877605226025" lon="9.303380147514117"><ele>512.3333333333333</ele><time>2026-05-02T15:27:47Z</time></trkpt><trkpt lat="44.67974496499947" lon="9.303492803693086"><ele>518.0</ele><time>2026-05-02T15:27:48Z</time></trkpt><trkpt lat="44.67960681958442" lon="9.303616290326158"><ele>518.0</ele><time>2026-05-02T15:27:49Z</time></trkpt><trkpt lat="44.67948145691564" lon="9.303716288055428"><ele>518.0</ele><time>2026-05-02T15:27:50Z</time></trkpt><trkpt lat="44.679354369772426" lon="9.303777602094511"><ele>518.0</ele><time>2026-05-02T15:27:51Z</time></trkpt><trkpt lat="44.67924486306415" lon="9.303793316039414"><ele>518.0</ele><time>2026-05-02T15:27:52Z</time></trkpt><trkpt lat="44.67911814588249" lon="9.303810147011813"><ele>518.5</ele><time>2026-05-02T15:27:53Z</time></trkpt><trkpt lat="44.67897121491054" lon="9.30382320711061"><ele>519.0</ele><time>2026-05-02T15:27:54Z</time></trkpt><trkpt lat="44.678829804526885" lon="9.303857216993997"><ele>519.5</ele><time>2026-05-02T15:27:55Z</time></trkpt><trkpt lat="44.67869083158214" lon="9.30391962715682"><ele>520.0</ele><time>2026-05-02T15:27:56Z</time></trkpt><trkpt lat="44.67856909590091" lon="9.304006967491286"><ele>520.0</ele><time>2026-05-02T15:27:57Z</time></trkpt><trkpt lat="44.6784614602818" lon="9.304115904740799"><ele>520.0</ele><time>2026-05-02T15:27:57.999Z</time></trkpt><trkpt lat="44.67837557636596" lon="9.304277421988887"><ele>520.0</ele><time>2026-05-02T15:27:58.999Z</time></trkpt><trkpt lat="44.67831818213708" lon="9.304442364136326"><ele>520.0</ele><time>2026-05-02T15:27:59.999Z</time></trkpt><trkpt lat="44.67827280308714" lon="9.304580181404305"><ele>520.0</ele><time>2026-05-02T15:28:00.999Z</time></trkpt><trkpt lat="44.67819908042491" lon="9.304692105692292"><ele>520.0</ele><time>2026-05-02T15:28:01.999Z</time></trkpt><trkpt lat="44.67810024273418" lon="9.304740062473599"><ele>520.0</ele><time>2026-05-02T15:28:02.999Z</time></trkpt><trkpt lat="44.677980934744355" lon="9.30475038453179"><ele>520.0</ele><time>2026-05-02T15:28:03.999Z</time></trkpt><trkpt lat="44.67787953009084" lon="9.304797749574934"><ele>520.0</ele><time>2026-05-02T15:28:04.999Z</time></trkpt><trkpt lat="44.67778401499737" lon="9.304909488421085"><ele>522.75</ele><time>2026-05-02T15:28:05.999Z</time></trkpt><trkpt lat="44.67770536110564" lon="9.30503319926365"><ele>525.5</ele><time>2026-05-02T15:28:06.999Z</time></trkpt><trkpt lat="44.6776170301204" lon="9.3051230131765"><ele>528.25</ele><time>2026-05-02T15:28:07.999Z</time></trkpt><trkpt lat="44.677496724269545" lon="9.30516507348101"><ele>531.0</ele><time>2026-05-02T15:28:08.999Z</time></trkpt><trkpt lat="44.67734267759503" lon="9.30518294967313"><ele>531.0</ele><time>2026-05-02T15:28:10Z</time></trkpt><trkpt lat="44.6771692049285" lon="9.30520415101203"><ele>531.0</ele><time>2026-05-02T15:28:11Z</time></trkpt><trkpt lat="44.676974260303815" lon="9.30523699398273"><ele>531.0</ele><time>2026-05-02T15:28:12Z</time></trkpt><trkpt lat="44.676775461784416" lon="9.30527009356014"><ele>530.6666666666666</ele><time>2026-05-02T15:28:13Z</time></trkpt><trkpt lat="44.67658301520392" lon="9.30529541875369"><ele>530.3333333333333</ele><time>2026-05-02T15:28:14Z</time></trkpt><trkpt lat="44.676421553656404" lon="9.305322598857845"><ele>530.0</ele><time>2026-05-02T15:28:15Z</time></trkpt><trkpt lat="44.67627118628395" lon="9.305353846499287"><ele>530.0</ele><time>2026-05-02T15:28:16Z</time></trkpt><trkpt lat="44.67612892998469" lon="9.305404505674456"><ele>530.0</ele><time>2026-05-02T15:28:17Z</time></trkpt><trkpt lat="44.67599846604865" lon="9.30549410132194"><ele>530.0</ele><time>2026-05-02T15:28:18Z</time></trkpt><trkpt lat="44.675885596819604" lon="9.305625074596092"><ele>530.0</ele><time>2026-05-02T15:28:19Z</time></trkpt><trkpt lat="44.67578266111141" lon="9.305807529242928"><ele>532.0</ele><time>2026-05-02T15:28:20Z</time></trkpt><trkpt lat="44.67569851616206" lon="9.306018257081883"><ele>534.0</ele><time>2026-05-02T15:28:21Z</time></trkpt><trkpt lat="44.67562822988526" lon="9.306181284879543"><ele>536.0</ele><time>2026-05-02T15:28:22Z</time></trkpt><trkpt lat="44.67559516754144" lon="9.306352096673375"><ele>538.0</ele><time>2026-05-02T15:28:23Z</time></trkpt><trkpt lat="44.675616574562" lon="9.30655661371673"><ele>540.8</ele><time>2026-05-02T15:28:24Z</time></trkpt><trkpt lat="44.67561697261973" lon="9.306723144683152"><ele>543.5999999999999</ele><time>2026-05-02T15:28:25Z</time></trkpt><trkpt lat="44.67562820692985" lon="9.30684110372011"><ele>546.4000000000001</ele><time>2026-05-02T15:28:26Z</time></trkpt><trkpt lat="44.675596661202015" lon="9.306923940504085"><ele>549.2</ele><time>2026-05-02T15:28:27Z</time></trkpt><trkpt lat="44.675523284247646" lon="9.307012181877237"><ele>552.0</ele><time>2026-05-02T15:28:28Z</time></trkpt><trkpt lat="44.67542855590136" lon="9.307063481516442"><ele>552.0</ele><time>2026-05-02T15:28:29Z</time></trkpt><trkpt lat="44.67535204037503" lon="9.307120777607027"><ele>552.0</ele><time>2026-05-02T15:28:30Z</time></trkpt><trkpt lat="44.675290401407544" lon="9.307231740787973"><ele>552.0</ele><time>2026-05-02T15:28:31Z</time></trkpt><trkpt lat="44.67522826339328" lon="9.307388055321063"><ele>552.0</ele><time>2026-05-02T15:28:32Z</time></trkpt><trkpt lat="44.67522870178022" lon="9.307576903507842"><ele>552.0</ele><time>2026-05-02T15:28:33Z</time></trkpt><trkpt lat="44.675247911507746" lon="9.307791268222816"><ele>554.6666666666666</ele><time>2026-05-02T15:28:34Z</time></trkpt><trkpt lat="44.67529749769406" lon="9.308018032712267"><ele>557.3333333333333</ele><time>2026-05-02T15:28:35Z</time></trkpt><trkpt lat="44.67535225364944" lon="9.30822915106177"><ele>560.0</ele><time>2026-05-02T15:28:36Z</time></trkpt><trkpt lat="44.67540179483295" lon="9.308402806561965"><ele>560.3333333333333</ele><time>2026-05-02T15:28:37Z</time></trkpt><trkpt lat="44.67545149374112" lon="9.308541975549758"><ele>560.6666666666666</ele><time>2026-05-02T15:28:38Z</time></trkpt><trkpt lat="44.67548709383503" lon="9.308639058633604"><ele>561.0</ele><time>2026-05-02T15:28:39Z</time></trkpt><trkpt lat="44.67549036298041" lon="9.308740782015038"><ele>561.3333333333334</ele><time>2026-05-02T15:28:40Z</time></trkpt><trkpt lat="44.67545810660162" lon="9.30883227748127"><ele>561.6666666666667</ele><time>2026-05-02T15:28:41Z</time></trkpt><trkpt lat="44.675388404127006" lon="9.308923840544088"><ele>562.0</ele><time>2026-05-02T15:28:42Z</time></trkpt><trkpt lat="44.6752723320117" lon="9.309010848487054"><ele>558.75</ele><time>2026-05-02T15:28:43Z</time></trkpt><trkpt lat="44.67513820048716" lon="9.309118356318995"><ele>555.5</ele><time>2026-05-02T15:28:44Z</time></trkpt><trkpt lat="44.67502438870096" lon="9.309206179844448"><ele>552.25</ele><time>2026-05-02T15:28:45Z</time></trkpt><trkpt lat="44.67492998001474" lon="9.30927310512019"><ele>549.0</ele><time>2026-05-02T15:28:46Z</time></trkpt><trkpt lat="44.67485238029129" lon="9.309291546538901"><ele>549.0</ele><time>2026-05-02T15:28:47Z</time></trkpt><trkpt lat="44.674782630311896" lon="9.309252296763738"><ele>549.0</ele><time>2026-05-02T15:28:48Z</time></trkpt><trkpt lat="44.67471946479882" lon="9.309167368205797"><ele>549.0</ele><time>2026-05-02T15:28:49Z</time></trkpt><trkpt lat="44.674656281419345" lon="9.309052266456343"><ele>549.0</ele><time>2026-05-02T15:28:50Z</time></trkpt><trkpt lat="44.6745789855733" lon="9.308973286058562"><ele>549.0</ele><time>2026-05-02T15:28:51Z</time></trkpt><trkpt lat="44.67448075369166" lon="9.308946253489527"><ele>551.0</ele><time>2026-05-02T15:28:52Z</time></trkpt><trkpt lat="44.67435679200801" lon="9.308967137666375"><ele>553.0</ele><time>2026-05-02T15:28:53Z</time></trkpt><trkpt lat="44.674215864551876" lon="9.30901856327021"><ele>555.0</ele><time>2026-05-02T15:28:54Z</time></trkpt><trkpt lat="44.67410821371387" lon="9.309017680977647"><ele>557.0</ele><time>2026-05-02T15:28:55Z</time></trkpt><trkpt lat="44.67398060896202" lon="9.308988089524783"><ele>550.5</ele><time>2026-05-02T15:28:56Z</time></trkpt><trkpt lat="44.67386556124047" lon="9.308892434271364"><ele>544.0</ele><time>2026-05-02T15:28:57Z</time></trkpt><trkpt lat="44.67376925474334" lon="9.308754470379387"><ele>537.5</ele><time>2026-05-02T15:28:58Z</time></trkpt><trkpt lat="44.67363569881372" lon="9.30863048238448"><ele>531.0</ele><time>2026-05-02T15:28:59Z</time></trkpt><trkpt lat="44.673527736646214" lon="9.308505739758536"><ele>531.0</ele><time>2026-05-02T15:29:00Z</time></trkpt><trkpt lat="44.67342073861079" lon="9.308438866260177"><ele>531.0</ele><time>2026-05-02T15:29:01Z</time></trkpt><trkpt lat="44.67333073357619" lon="9.308397543486976"><ele>531.0</ele><time>2026-05-02T15:29:02Z</time></trkpt><trkpt lat="44.67324365247571" lon="9.308398203298209"><ele>531.0</ele><time>2026-05-02T15:29:03Z</time></trkpt><trkpt lat="44.673151692430146" lon="9.308461133939868"><ele>531.0</ele><time>2026-05-02T15:29:04Z</time></trkpt><trkpt lat="44.67305022457043" lon="9.308584909838364"><ele>531.0</ele><time>2026-05-02T15:29:05Z</time></trkpt><trkpt lat="44.67296384553142" lon="9.308756814663623"><ele>531.0</ele><time>2026-05-02T15:29:06Z</time></trkpt><trkpt lat="44.67289405860794" lon="9.308932719560582"><ele>531.0</ele><time>2026-05-02T15:29:07Z</time></trkpt><trkpt lat="44.67281824651058" lon="9.30910980340653"><ele>531.0</ele><time>2026-05-02T15:29:08Z</time></trkpt><trkpt lat="44.67269927750838" lon="9.30923995355527"><ele>534.3333333333334</ele><time>2026-05-02T15:29:09Z</time></trkpt><trkpt lat="44.67255166031158" lon="9.309353863821398"><ele>537.6666666666667</ele><time>2026-05-02T15:29:10Z</time></trkpt><trkpt lat="44.672379304817404" lon="9.309481641895806"><ele>541.0</ele><time>2026-05-02T15:29:11Z</time></trkpt><trkpt lat="44.672249235269724" lon="9.309594053450592"><ele>541.0</ele><time>2026-05-02T15:29:12Z</time></trkpt><trkpt lat="44.67213349237215" lon="9.309672527910983"><ele>541.0</ele><time>2026-05-02T15:29:13Z</time></trkpt><trkpt lat="44.67201408847989" lon="9.309650121266037"><ele>541.0</ele><time>2026-05-02T15:29:14Z</time></trkpt><trkpt lat="44.67187784450097" lon="9.30962852430357"><ele>541.0</ele><time>2026-05-02T15:29:15Z</time></trkpt><trkpt lat="44.671736540573775" lon="9.309636555896416"><ele>538.0</ele><time>2026-05-02T15:29:16Z</time></trkpt><trkpt lat="44.6715941757683" lon="9.30967243494412"><ele>535.0</ele><time>2026-05-02T15:29:17Z</time></trkpt><trkpt lat="44.671479482544775" lon="9.309669942068208"><ele>532.0</ele><time>2026-05-02T15:29:18Z</time></trkpt><trkpt lat="44.671390122668235" lon="9.309570462355314"><ele>529.0</ele><time>2026-05-02T15:29:19Z</time></trkpt><trkpt lat="44.67126030527566" lon="9.309463160213111"><ele>529.0</ele><time>2026-05-02T15:29:20Z</time></trkpt><trkpt lat="44.671153196155885" lon="9.309384691966747"><ele>529.0</ele><time>2026-05-02T15:29:21Z</time></trkpt><trkpt lat="44.67106286254279" lon="9.30934548804384"><ele>529.0</ele><time>2026-05-02T15:29:22Z</time></trkpt><trkpt lat="44.670959115781784" lon="9.30937824179397"><ele>529.0</ele><time>2026-05-02T15:29:23Z</time></trkpt><trkpt lat="44.67085713501836" lon="9.309472600631649"><ele>529.0</ele><time>2026-05-02T15:29:24Z</time></trkpt><trkpt lat="44.6707447759587" lon="9.309584195745886"><ele>530.0</ele><time>2026-05-02T15:29:25Z</time></trkpt><trkpt lat="44.67059618675206" lon="9.309600435643263"><ele>531.0</ele><time>2026-05-02T15:29:26Z</time></trkpt><trkpt lat="44.670441431048225" lon="9.309589330004108"><ele>532.0</ele><time>2026-05-02T15:29:27Z</time></trkpt><trkpt lat="44.67029556129329" lon="9.309553909766372"><ele>530.25</ele><time>2026-05-02T15:29:28Z</time></trkpt><trkpt lat="44.67016301781812" lon="9.309460101345964"><ele>528.5</ele><time>2026-05-02T15:29:29Z</time></trkpt><trkpt lat="44.67004082179287" lon="9.309409538719946"><ele>526.75</ele><time>2026-05-02T15:29:30Z</time></trkpt><trkpt lat="44.66994850943194" lon="9.309375627160957"><ele>525.0</ele><time>2026-05-02T15:29:31Z</time></trkpt><trkpt lat="44.669848254111734" lon="9.309400101905048"><ele>525.0</ele><time>2026-05-02T15:29:32Z</time></trkpt><trkpt lat="44.66975281286315" lon="9.309498811437166"><ele>525.0</ele><time>2026-05-02T15:29:33Z</time></trkpt><trkpt lat="44.669669570526295" lon="9.309663038800016"><ele>525.0</ele><time>2026-05-02T15:29:34Z</time></trkpt><trkpt lat="44.66961821073721" lon="9.309848383601858"><ele>525.0</ele><time>2026-05-02T15:29:35Z</time></trkpt><trkpt lat="44.6696121557305" lon="9.310054916462464"><ele>532.25</ele><time>2026-05-02T15:29:36Z</time></trkpt><trkpt lat="44.66966893944657" lon="9.310287692480449"><ele>539.5</ele><time>2026-05-02T15:29:37Z</time></trkpt><trkpt lat="44.669691492534234" lon="9.310448979955689"><ele>546.75</ele><time>2026-05-02T15:29:38Z</time></trkpt><trkpt lat="44.66970301627995" lon="9.310577441713221"><ele>554.0</ele><time>2026-05-02T15:29:38.999Z</time></trkpt><trkpt lat="44.66969944335321" lon="9.310691203881639"><ele>550.25</ele><time>2026-05-02T15:29:39.999Z</time></trkpt><trkpt lat="44.669624714141925" lon="9.310773751354926"><ele>546.5</ele><time>2026-05-02T15:29:40.999Z</time></trkpt><trkpt lat="44.669515950410165" lon="9.310824314823849"><ele>542.75</ele><time>2026-05-02T15:29:41.999Z</time></trkpt><trkpt lat="44.66936799936187" lon="9.310834368708672"><ele>539.0</ele><time>2026-05-02T15:29:42.999Z</time></trkpt><trkpt lat="44.66922939607341" lon="9.310841420679136"><ele>539.0</ele><time>2026-05-02T15:29:43.999Z</time></trkpt><trkpt lat="44.66912261435957" lon="9.31087825812245"><ele>539.0</ele><time>2026-05-02T15:29:44.999Z</time></trkpt><trkpt lat="44.66903532371112" lon="9.310969607169923"><ele>539.0</ele><time>2026-05-02T15:29:45.999Z</time></trkpt><trkpt lat="44.66897025432787" lon="9.311126922146794"><ele>539.0</ele><time>2026-05-02T15:29:46.999Z</time></trkpt><trkpt lat="44.6689313849526" lon="9.311332310024625"><ele>545.25</ele><time>2026-05-02T15:29:47.999Z</time></trkpt><trkpt lat="44.66890843202716" lon="9.311563125092821"><ele>551.5</ele><time>2026-05-02T15:29:48.999Z</time></trkpt><trkpt lat="44.66888666675189" lon="9.311740159535457"><ele>557.75</ele><time>2026-05-02T15:29:49.999Z</time></trkpt><trkpt lat="44.668855033490104" lon="9.311877886301755"><ele>564.0</ele><time>2026-05-02T15:29:50.999Z</time></trkpt><trkpt lat="44.668797616081676" lon="9.311974182281123"><ele>564.0</ele><time>2026-05-02T15:29:51.999Z</time></trkpt><trkpt lat="44.66870498205768" lon="9.312054533003392"><ele>564.0</ele><time>2026-05-02T15:29:52.999Z</time></trkpt><trkpt lat="44.66856006706163" lon="9.312093371141355"><ele>564.0</ele><time>2026-05-02T15:29:53.999Z</time></trkpt><trkpt lat="44.66839931768541" lon="9.31209367339953"><ele>564.0</ele><time>2026-05-02T15:29:54.999Z</time></trkpt><trkpt lat="44.66825571839962" lon="9.312057841594504"><ele>559.0</ele><time>2026-05-02T15:29:55.999Z</time></trkpt><trkpt lat="44.66813071883201" lon="9.31196424296658"><ele>554.0</ele><time>2026-05-02T15:29:56.999Z</time></trkpt><trkpt lat="44.66802010076246" lon="9.311835347594378"><ele>549.0</ele><time>2026-05-02T15:29:57.999Z</time></trkpt><trkpt lat="44.66793221225859" lon="9.311726275542986"><ele>544.0</ele><time>2026-05-02T15:29:58.999Z</time></trkpt><trkpt lat="44.66784978628888" lon="9.311688675646124"><ele>540.5</ele><time>2026-05-02T15:29:59.999Z</time></trkpt><trkpt lat="44.667758076368976" lon="9.311714213110106"><ele>537.0</ele><time>2026-05-02T15:30:00.999Z</time></trkpt><trkpt lat="44.66767321110596" lon="9.311798049154808"><ele>533.5</ele><time>2026-05-02T15:30:01.999Z</time></trkpt><trkpt lat="44.667596582202776" lon="9.311957240066281"><ele>530.0</ele><time>2026-05-02T15:30:02.999Z</time></trkpt><trkpt lat="44.66750716992563" lon="9.31218347403498"><ele>539.3333333333333</ele><time>2026-05-02T15:30:03.999Z</time></trkpt><trkpt lat="44.66741447280251" lon="9.312424152543239"><ele>548.6666666666666</ele><time>2026-05-02T15:30:04.999Z</time></trkpt><trkpt lat="44.667335269603434" lon="9.312607280779545"><ele>558.0</ele><time>2026-05-02T15:30:05.999Z</time></trkpt><trkpt lat="44.66726402105935" lon="9.312737596974076"><ele>558.0</ele><time>2026-05-02T15:30:06.999Z</time></trkpt><trkpt lat="44.66716659657667" lon="9.31282338500129"><ele>558.0</ele><time>2026-05-02T15:30:07.999Z</time></trkpt><trkpt lat="44.667017194265725" lon="9.312854456469701"><ele>558.0</ele><time>2026-05-02T15:30:08.999Z</time></trkpt><trkpt lat="44.66685481081462" lon="9.312919746148953"><ele>558.0</ele><time>2026-05-02T15:30:09.999Z</time></trkpt><trkpt lat="44.66667985773654" lon="9.312959834734098"><ele>561.25</ele><time>2026-05-02T15:30:10.999Z</time></trkpt><trkpt lat="44.66652276120468" lon="9.313012965780208"><ele>564.5</ele><time>2026-05-02T15:30:11.999Z</time></trkpt><trkpt lat="44.666396295843434" lon="9.313052683098961"><ele>567.75</ele><time>2026-05-02T15:30:12.999Z</time></trkpt><trkpt lat="44.66629674029702" lon="9.313074472147974"><ele>571.0</ele><time>2026-05-02T15:30:13.999Z</time></trkpt><trkpt lat="44.666220066975015" lon="9.313039414909305"><ele>567.75</ele><time>2026-05-02T15:30:15Z</time></trkpt><trkpt lat="44.66616739545953" lon="9.312940883892301"><ele>564.5</ele><time>2026-05-02T15:30:16Z</time></trkpt><trkpt lat="44.66612854332719" lon="9.312798476883732"><ele>561.25</ele><time>2026-05-02T15:30:17Z</time></trkpt><trkpt lat="44.66606686743858" lon="9.312658633338144"><ele>558.0</ele><time>2026-05-02T15:30:18Z</time></trkpt><trkpt lat="44.66595299313714" lon="9.312546092534964"><ele>558.0</ele><time>2026-05-02T15:30:19Z</time></trkpt><trkpt lat="44.66581278751394" lon="9.312473976105107"><ele>558.0</ele><time>2026-05-02T15:30:20Z</time></trkpt><trkpt lat="44.66569089064914" lon="9.312406920955304"><ele>558.0</ele><time>2026-05-02T15:30:21Z</time></trkpt><trkpt lat="44.665593958629" lon="9.312290365195741"><ele>558.0</ele><time>2026-05-02T15:30:22Z</time></trkpt><trkpt lat="44.66552130966928" lon="9.312125049108717"><ele>551.6666666666666</ele><time>2026-05-02T15:30:23Z</time></trkpt><trkpt lat="44.66545989354443" lon="9.311918219628506"><ele>545.3333333333333</ele><time>2026-05-02T15:30:24Z</time></trkpt><trkpt lat="44.665383154278096" lon="9.311718803312193"><ele>539.0</ele><time>2026-05-02T15:30:25Z</time></trkpt><trkpt lat="44.66528183151521" lon="9.311545742549253"><ele>541.6666666666666</ele><time>2026-05-02T15:30:26Z</time></trkpt><trkpt lat="44.665163125736704" lon="9.31140213868473"><ele>544.3333333333334</ele><time>2026-05-02T15:30:27Z</time></trkpt><trkpt lat="44.665033288012914" lon="9.311275413547518"><ele>547.0</ele><time>2026-05-02T15:30:28Z</time></trkpt><trkpt lat="44.66490557285254" lon="9.311196568670303"><ele>547.0</ele><time>2026-05-02T15:30:29Z</time></trkpt><trkpt lat="44.66477537039808" lon="9.311151835239443"><ele>547.0</ele><time>2026-05-02T15:30:30Z</time></trkpt><trkpt lat="44.6646217225843" lon="9.311151887924256"><ele>547.0</ele><time>2026-05-02T15:30:31Z</time></trkpt><trkpt lat="44.664447914788084" lon="9.311186063802104"><ele>545.0</ele><time>2026-05-02T15:30:32Z</time></trkpt><trkpt lat="44.66428004262164" lon="9.3112344875855"><ele>543.0</ele><time>2026-05-02T15:30:33Z</time></trkpt><trkpt lat="44.66413441014556" lon="9.311284703660588"><ele>541.0</ele><time>2026-05-02T15:30:34Z</time></trkpt><trkpt lat="44.6640117016046" lon="9.31134754028292"><ele>550.6666666666667</ele><time>2026-05-02T15:30:35Z</time></trkpt><trkpt lat="44.663896842782314" lon="9.311457604205183"><ele>560.3333333333334</ele><time>2026-05-02T15:30:36Z</time></trkpt><trkpt lat="44.663778160115356" lon="9.3116208415646"><ele>570.0</ele><time>2026-05-02T15:30:37Z</time></trkpt><trkpt lat="44.66363828550527" lon="9.311786110214177"><ele>560.3333333333334</ele><time>2026-05-02T15:30:38Z</time></trkpt><trkpt lat="44.66347502456209" lon="9.311911966189129"><ele>550.6666666666667</ele><time>2026-05-02T15:30:39Z</time></trkpt><trkpt lat="44.66330024210286" lon="9.312010033430555"><ele>541.0</ele><time>2026-05-02T15:30:40Z</time></trkpt><trkpt lat="44.663127613520544" lon="9.312121080948051"><ele>540.6666666666667</ele><time>2026-05-02T15:30:41Z</time></trkpt><trkpt lat="44.66297035744302" lon="9.312259819431631"><ele>540.3333333333334</ele><time>2026-05-02T15:30:42Z</time></trkpt><trkpt lat="44.66283503504162" lon="9.312396476110056"><ele>540.0</ele><time>2026-05-02T15:30:43Z</time></trkpt><trkpt lat="44.66272387656783" lon="9.312512564093282"><ele>540.0</ele><time>2026-05-02T15:30:44Z</time></trkpt><trkpt lat="44.66263550166237" lon="9.312604853819376"><ele>540.0</ele><time>2026-05-02T15:30:45Z</time></trkpt><trkpt lat="44.66256713536504" lon="9.312732335815301"><ele>540.0</ele><time>2026-05-02T15:30:46Z</time></trkpt><trkpt lat="44.662510895238626" lon="9.312913184329835"><ele>540.0</ele><time>2026-05-02T15:30:47Z</time></trkpt><trkpt lat="44.66246882531948" lon="9.313099661301944"><ele>545.25</ele><time>2026-05-02T15:30:48Z</time></trkpt><trkpt lat="44.66237936260425" lon="9.313208677219311"><ele>550.5</ele><time>2026-05-02T15:30:49Z</time></trkpt><trkpt lat="44.66226358284533" lon="9.3132969713507"><ele>555.75</ele><time>2026-05-02T15:30:50Z</time></trkpt><trkpt lat="44.66214900679624" lon="9.313395375275293"><ele>561.0</ele><time>2026-05-02T15:30:51Z</time></trkpt><trkpt lat="44.66204374707604" lon="9.313437195384001"><ele>561.0</ele><time>2026-05-02T15:30:52Z</time></trkpt><trkpt lat="44.66195019898857" lon="9.313432257184527"><ele>561.0</ele><time>2026-05-02T15:30:53Z</time></trkpt><trkpt lat="44.661865776538704" lon="9.31336844692268"><ele>561.0</ele><time>2026-05-02T15:30:54Z</time></trkpt><trkpt lat="44.66179624025519" lon="9.313240116259632"><ele>561.0</ele><time>2026-05-02T15:30:55Z</time></trkpt><trkpt lat="44.66172616489264" lon="9.313021776686215"><ele>553.5</ele><time>2026-05-02T15:30:56Z</time></trkpt><trkpt lat="44.66163548525027" lon="9.312744468050422"><ele>546.0</ele><time>2026-05-02T15:30:57Z</time></trkpt><trkpt lat="44.66151168416806" lon="9.312391322046338"><ele>541.5</ele><time>2026-05-02T15:30:58Z</time></trkpt><trkpt lat="44.66138798068225" lon="9.312024829026084"><ele>537.0</ele><time>2026-05-02T15:30:59Z</time></trkpt><trkpt lat="44.66129388401005" lon="9.311730568041794"><ele>537.0</ele><time>2026-05-02T15:31:00Z</time></trkpt><trkpt lat="44.66121302076311" lon="9.311476887667062"><ele>537.0</ele><time>2026-05-02T15:31:01Z</time></trkpt><trkpt lat="44.661161547225824" lon="9.311192577007258"><ele>537.0</ele><time>2026-05-02T15:31:02Z</time></trkpt><trkpt lat="44.66113569382391" lon="9.31084847136654"><ele>536.0</ele><time>2026-05-02T15:31:03Z</time></trkpt><trkpt lat="44.66110526826012" lon="9.310560859943545"><ele>535.0</ele><time>2026-05-02T15:31:04Z</time></trkpt><trkpt lat="44.661066197966726" lon="9.310331959135729"><ele>534.0</ele><time>2026-05-02T15:31:05Z</time></trkpt><trkpt lat="44.661011321283645" lon="9.310140474712043"><ele>534.0</ele><time>2026-05-02T15:31:06Z</time></trkpt><trkpt lat="44.66095311756961" lon="9.310005800019374"><ele>534.0</ele><time>2026-05-02T15:31:07Z</time></trkpt><trkpt lat="44.6608757389683" lon="9.309926311462371"><ele>534.0</ele><time>2026-05-02T15:31:08Z</time></trkpt><trkpt lat="44.660784284237515" lon="9.309892437169731"><ele>534.0</ele><time>2026-05-02T15:31:09Z</time></trkpt><trkpt lat="44.66068322562314" lon="9.309931342163704"><ele>534.0</ele><time>2026-05-02T15:31:10Z</time></trkpt><trkpt lat="44.660599522033" lon="9.310028840910665"><ele>534.0</ele><time>2026-05-02T15:31:11Z</time></trkpt><trkpt lat="44.66053190843371" lon="9.31018689355141"><ele>534.0</ele><time>2026-05-02T15:31:12Z</time></trkpt><trkpt lat="44.66048140574046" lon="9.31039402003546"><ele>534.0</ele><time>2026-05-02T15:31:13Z</time></trkpt><trkpt lat="44.66044209289939" lon="9.310558840651936"><ele>534.0</ele><time>2026-05-02T15:31:14Z</time></trkpt><trkpt lat="44.66037484775342" lon="9.310661162950268"><ele>534.0</ele><time>2026-05-02T15:31:15Z</time></trkpt><trkpt lat="44.6602423334461" lon="9.310707307647435"><ele>534.0</ele><time>2026-05-02T15:31:16Z</time></trkpt><trkpt lat="44.660074158814496" lon="9.3108294792849"><ele>534.0</ele><time>2026-05-02T15:31:17Z</time></trkpt><trkpt lat="44.6598879919583" lon="9.310979546125571"><ele>534.0</ele><time>2026-05-02T15:31:18Z</time></trkpt><trkpt lat="44.659699027601725" lon="9.311194532448898"><ele>534.0</ele><time>2026-05-02T15:31:19Z</time></trkpt><trkpt lat="44.65951131032106" lon="9.311422399689723"><ele>534.0</ele><time>2026-05-02T15:31:20Z</time></trkpt><trkpt lat="44.65931332250807" lon="9.311594786233002"><ele>534.0</ele><time>2026-05-02T15:31:21Z</time></trkpt><trkpt lat="44.659059415822455" lon="9.311683577983526"><ele>534.0</ele><time>2026-05-02T15:31:22Z</time></trkpt><trkpt lat="44.6587835712096" lon="9.31188189906639"><ele>534.0</ele><time>2026-05-02T15:31:23Z</time></trkpt><trkpt lat="44.6584879108392" lon="9.312068336482943"><ele>535.5</ele><time>2026-05-02T15:31:24Z</time></trkpt><trkpt lat="44.65820165563526" lon="9.312276432626009"><ele>537.0</ele><time>2026-05-02T15:31:25Z</time></trkpt><trkpt lat="44.65795169027287" lon="9.312460625513701"><ele>531.0</ele><time>2026-05-02T15:31:26Z</time></trkpt><trkpt lat="44.65771561535948" lon="9.312612170364064"><ele>525.0</ele><time>2026-05-02T15:31:27Z</time></trkpt><trkpt lat="44.65746835682437" lon="9.31267298048284"><ele>525.0</ele><time>2026-05-02T15:31:28Z</time></trkpt><trkpt lat="44.65727961631278" lon="9.312799178508355"><ele>525.0</ele><time>2026-05-02T15:31:29Z</time></trkpt><trkpt lat="44.65712672415966" lon="9.312867631773171"><ele>525.0</ele><time>2026-05-02T15:31:30Z</time></trkpt><trkpt lat="44.65700810711491" lon="9.312928691262881"><ele>525.75</ele><time>2026-05-02T15:31:31Z</time></trkpt><trkpt lat="44.656906306691155" lon="9.312948002080457"><ele>526.5</ele><time>2026-05-02T15:31:32Z</time></trkpt><trkpt lat="44.65679496284054" lon="9.312875776922086"><ele>527.25</ele><time>2026-05-02T15:31:33Z</time></trkpt><trkpt lat="44.65669010433715" lon="9.31271594746007"><ele>528.0</ele><time>2026-05-02T15:31:34Z</time></trkpt><trkpt lat="44.65657370170309" lon="9.312522794518662"><ele>528.0</ele><time>2026-05-02T15:31:35Z</time></trkpt><trkpt lat="44.656452852245174" lon="9.312365130662602"><ele>528.0</ele><time>2026-05-02T15:31:36Z</time></trkpt><trkpt lat="44.6563545463749" lon="9.312247044513107"><ele>528.0</ele><time>2026-05-02T15:31:37Z</time></trkpt><trkpt lat="44.656263215986506" lon="9.31216926636291"><ele>528.0</ele><time>2026-05-02T15:31:38Z</time></trkpt><trkpt lat="44.65617111602036" lon="9.312158524160306"><ele>528.0</ele><time>2026-05-02T15:31:39Z</time></trkpt><trkpt lat="44.65607049486036" lon="9.312207299884404"><ele>528.0</ele><time>2026-05-02T15:31:40Z</time></trkpt><trkpt lat="44.65594982530986" lon="9.312311812247446"><ele>528.0</ele><time>2026-05-02T15:31:41Z</time></trkpt><trkpt lat="44.65581955880225" lon="9.312447778454391"><ele>528.0</ele><time>2026-05-02T15:31:42Z</time></trkpt><trkpt lat="44.65567602453173" lon="9.312521275399732"><ele>528.0</ele><time>2026-05-02T15:31:43Z</time></trkpt><trkpt lat="44.65551251122884" lon="9.312505276671892"><ele>528.0</ele><time>2026-05-02T15:31:44Z</time></trkpt><trkpt lat="44.655343846242786" lon="9.312495264129211"><ele>528.0</ele><time>2026-05-02T15:31:44.999Z</time></trkpt><trkpt lat="44.65517651706495" lon="9.312423349522605"><ele>527.5</ele><time>2026-05-02T15:31:45.999Z</time></trkpt><trkpt lat="44.6550271291394" lon="9.312313472896161"><ele>527.0</ele><time>2026-05-02T15:31:46.999Z</time></trkpt><trkpt lat="44.65492077289013" lon="9.312223786055144"><ele>526.5</ele><time>2026-05-02T15:31:47.999Z</time></trkpt><trkpt lat="44.65482374032755" lon="9.312178975115062"><ele>526.0</ele><time>2026-05-02T15:31:48.999Z</time></trkpt><trkpt lat="44.65471785254527" lon="9.312205682004546"><ele>526.0</ele><time>2026-05-02T15:31:49.999Z</time></trkpt><trkpt lat="44.654593077283" lon="9.312298214395096"><ele>526.0</ele><time>2026-05-02T15:31:50.999Z</time></trkpt><trkpt lat="44.654463957652105" lon="9.31246804204017"><ele>526.0</ele><time>2026-05-02T15:31:51.999Z</time></trkpt><trkpt lat="44.65436076393709" lon="9.312671849296088"><ele>524.0</ele><time>2026-05-02T15:31:52.999Z</time></trkpt><trkpt lat="44.65429574610649" lon="9.312861472870473"><ele>522.0</ele><time>2026-05-02T15:31:53.999Z</time></trkpt><trkpt lat="44.654196495889906" lon="9.313024199836617"><ele>520.0</ele><time>2026-05-02T15:31:54.999Z</time></trkpt><trkpt lat="44.65407131240908" lon="9.313154905059951"><ele>520.0</ele><time>2026-05-02T15:31:55.999Z</time></trkpt><trkpt lat="44.65398577189529" lon="9.313249838822728"><ele>520.0</ele><time>2026-05-02T15:31:56.999Z</time></trkpt><trkpt lat="44.653930291423784" lon="9.313365179051"><ele>520.0</ele><time>2026-05-02T15:31:57.999Z</time></trkpt><trkpt lat="44.653928604548064" lon="9.313523109921327"><ele>520.0</ele><time>2026-05-02T15:31:58.999Z</time></trkpt><trkpt lat="44.65399804782011" lon="9.313663334087435"><ele>520.0</ele><time>2026-05-02T15:31:59.999Z</time></trkpt><trkpt lat="44.65410424391034" lon="9.313830133619353"><ele>518.0</ele><time>2026-05-02T15:32:00.999Z</time></trkpt><trkpt lat="44.6542416756017" lon="9.313999146999732"><ele>516.0</ele><time>2026-05-02T15:32:01.999Z</time></trkpt><trkpt lat="44.65433354686278" lon="9.314137785907446"><ele>514.0</ele><time>2026-05-02T15:32:02.999Z</time></trkpt><trkpt lat="44.65439817696657" lon="9.314303087012647"><ele>514.0</ele><time>2026-05-02T15:32:03.999Z</time></trkpt><trkpt lat="44.65445150962919" lon="9.314479255244333"><ele>514.0</ele><time>2026-05-02T15:32:04.999Z</time></trkpt><trkpt lat="44.654433918568145" lon="9.31467826096656"><ele>514.0</ele><time>2026-05-02T15:32:05.999Z</time></trkpt><trkpt lat="44.654383829862404" lon="9.31481107799788"><ele>514.0</ele><time>2026-05-02T15:32:06.999Z</time></trkpt><trkpt lat="44.654285493551285" lon="9.314915105100965"><ele>514.6666666666667</ele><time>2026-05-02T15:32:07.999Z</time></trkpt><trkpt lat="44.65413954233573" lon="9.314978057265867"><ele>515.3333333333334</ele><time>2026-05-02T15:32:08.999Z</time></trkpt><trkpt lat="44.653954753966985" lon="9.315018742252738"><ele>516.0</ele><time>2026-05-02T15:32:09.999Z</time></trkpt><trkpt lat="44.65379566635113" lon="9.31505941985799"><ele>516.0</ele><time>2026-05-02T15:32:10.999Z</time></trkpt><trkpt lat="44.65366841300067" lon="9.31509414099009"><ele>516.0</ele><time>2026-05-02T15:32:11.999Z</time></trkpt><trkpt lat="44.65357572498372" lon="9.31515084730751"><ele>516.0</ele><time>2026-05-02T15:32:12.999Z</time></trkpt><trkpt lat="44.653490946834104" lon="9.315279201049917"><ele>516.0</ele><time>2026-05-02T15:32:13.999Z</time></trkpt><trkpt lat="44.653429622723436" lon="9.315459945691387"><ele>515.0</ele><time>2026-05-02T15:32:14.999Z</time></trkpt><trkpt lat="44.65338084150186" lon="9.31561840299262"><ele>514.0</ele><time>2026-05-02T15:32:15.999Z</time></trkpt><trkpt lat="44.65328711343435" lon="9.315740182489488"><ele>513.0</ele><time>2026-05-02T15:32:16.999Z</time></trkpt><trkpt lat="44.653152729323494" lon="9.315812293905454"><ele>512.0</ele><time>2026-05-02T15:32:17.999Z</time></trkpt><trkpt lat="44.652985152634464" lon="9.315835254434544"><ele>512.0</ele><time>2026-05-02T15:32:18.999Z</time></trkpt><trkpt lat="44.65283429929324" lon="9.315811651833565"><ele>512.0</ele><time>2026-05-02T15:32:19.999Z</time></trkpt><trkpt lat="44.652704412072" lon="9.315805053572156"><ele>512.0</ele><time>2026-05-02T15:32:21Z</time></trkpt><trkpt lat="44.652583513433385" lon="9.315892411555948"><ele>512.0</ele><time>2026-05-02T15:32:22Z</time></trkpt><trkpt lat="44.65249479230347" lon="9.315978912554154"><ele>512.25</ele><time>2026-05-02T15:32:23Z</time></trkpt><trkpt lat="44.65242342171341" lon="9.316135168170662"><ele>512.5</ele><time>2026-05-02T15:32:24Z</time></trkpt><trkpt lat="44.65237381511973" lon="9.316311583169574"><ele>512.75</ele><time>2026-05-02T15:32:25Z</time></trkpt><trkpt lat="44.652300133855874" lon="9.316441485936066"><ele>513.0</ele><time>2026-05-02T15:32:26Z</time></trkpt><trkpt lat="44.65215514172389" lon="9.316494335048741"><ele>513.0</ele><time>2026-05-02T15:32:27Z</time></trkpt><trkpt lat="44.65200569418301" lon="9.316556333213905"><ele>513.0</ele><time>2026-05-02T15:32:28Z</time></trkpt><trkpt lat="44.651896357678275" lon="9.316628022445286"><ele>513.0</ele><time>2026-05-02T15:32:29Z</time></trkpt><trkpt lat="44.651819864285685" lon="9.316727119348979"><ele>513.0</ele><time>2026-05-02T15:32:30Z</time></trkpt><trkpt lat="44.65175539148982" lon="9.316883902220734"><ele>506.75</ele><time>2026-05-02T15:32:31Z</time></trkpt><trkpt lat="44.651709841897166" lon="9.317050100498669"><ele>500.5</ele><time>2026-05-02T15:32:32Z</time></trkpt><trkpt lat="44.65163349317879" lon="9.317145885145289"><ele>494.25</ele><time>2026-05-02T15:32:33Z</time></trkpt><trkpt lat="44.651521484723695" lon="9.317152001237032"><ele>488.0</ele><time>2026-05-02T15:32:34Z</time></trkpt><trkpt lat="44.651419196820434" lon="9.317223906914771"><ele>490.25</ele><time>2026-05-02T15:32:35Z</time></trkpt><trkpt lat="44.65135692692268" lon="9.317332362908127"><ele>492.5</ele><time>2026-05-02T15:32:36Z</time></trkpt><trkpt lat="44.651333369564306" lon="9.317486953792292"><ele>494.75</ele><time>2026-05-02T15:32:37Z</time></trkpt><trkpt lat="44.65133770264642" lon="9.317701066722753"><ele>497.0</ele><time>2026-05-02T15:32:38Z</time></trkpt><trkpt lat="44.651338992629945" lon="9.317912010956201"><ele>502.0</ele><time>2026-05-02T15:32:39Z</time></trkpt><trkpt lat="44.6512682204091" lon="9.318116929391577"><ele>507.0</ele><time>2026-05-02T15:32:40Z</time></trkpt><trkpt lat="44.651210222785714" lon="9.318326133049796"><ele>512.0</ele><time>2026-05-02T15:32:41Z</time></trkpt><trkpt lat="44.65118398530293" lon="9.318547241478466"><ele>512.0</ele><time>2026-05-02T15:32:42Z</time></trkpt><trkpt lat="44.65119360658513" lon="9.31881676890496"><ele>512.0</ele><time>2026-05-02T15:32:43Z</time></trkpt><trkpt lat="44.65122743592876" lon="9.319090927434393"><ele>512.0</ele><time>2026-05-02T15:32:44Z</time></trkpt><trkpt lat="44.651247663140865" lon="9.319337331169486"><ele>512.0</ele><time>2026-05-02T15:32:45Z</time></trkpt><trkpt lat="44.65126420449362" lon="9.319562501004574"><ele>512.0</ele><time>2026-05-02T15:32:46Z</time></trkpt><trkpt lat="44.65130451708957" lon="9.3197625659877"><ele>512.0</ele><time>2026-05-02T15:32:47Z</time></trkpt><trkpt lat="44.65135970085611" lon="9.319921510201688"><ele>512.0</ele><time>2026-05-02T15:32:48Z</time></trkpt><trkpt lat="44.65139782954207" lon="9.320032605835404"><ele>508.6</ele><time>2026-05-02T15:32:49Z</time></trkpt><trkpt lat="44.65139357733835" lon="9.32014690325546"><ele>505.20000000000005</ele><time>2026-05-02T15:32:50Z</time></trkpt><trkpt lat="44.6513027578945" lon="9.320233636440152"><ele>501.8</ele><time>2026-05-02T15:32:51Z</time></trkpt><trkpt lat="44.651210369821776" lon="9.32032885350885"><ele>498.4</ele><time>2026-05-02T15:32:52Z</time></trkpt><trkpt lat="44.6511702001492" lon="9.320438513829355"><ele>495.0</ele><time>2026-05-02T15:32:53Z</time></trkpt><trkpt lat="44.65119605520396" lon="9.320566372516328"><ele>491.6</ele><time>2026-05-02T15:32:54Z</time></trkpt><trkpt lat="44.65126053844835" lon="9.320670663496783"><ele>488.2</ele><time>2026-05-02T15:32:55Z</time></trkpt><trkpt lat="44.651355342155675" lon="9.320734934795237"><ele>484.79999999999995</ele><time>2026-05-02T15:32:56Z</time></trkpt><trkpt lat="44.651478924070865" lon="9.32080241271046"><ele>481.4</ele><time>2026-05-02T15:32:57Z</time></trkpt><trkpt lat="44.651565674243166" lon="9.320881472911939"><ele>478.0</ele><time>2026-05-02T15:32:58Z</time></trkpt><trkpt lat="44.651613341028025" lon="9.320996521234672"><ele>478.0</ele><time>2026-05-02T15:32:59Z</time></trkpt><trkpt lat="44.65163870235132" lon="9.321123582490138"><ele>478.0</ele><time>2026-05-02T15:33:00Z</time></trkpt><trkpt lat="44.65156926484297" lon="9.321270635249789"><ele>478.0</ele><time>2026-05-02T15:33:01Z</time></trkpt><trkpt lat="44.65149242309472" lon="9.321447609905361"><ele>478.0</ele><time>2026-05-02T15:33:02Z</time></trkpt><trkpt lat="44.65144767570252" lon="9.321611006927242"><ele>478.0</ele><time>2026-05-02T15:33:03Z</time></trkpt><trkpt lat="44.65139178757878" lon="9.32170966817322"><ele>477.99999999999994</ele><time>2026-05-02T15:33:04Z</time></trkpt><trkpt lat="44.65131321897304" lon="9.321745380847453"><ele>477.99999999999994</ele><time>2026-05-02T15:33:05Z</time></trkpt><trkpt lat="44.651226681535164" lon="9.321715291289529"><ele>478.0</ele><time>2026-05-02T15:33:06Z</time></trkpt><trkpt lat="44.65112219472382" lon="9.321682652826679"><ele>478.0</ele><time>2026-05-02T15:33:07Z</time></trkpt><trkpt lat="44.6510862794482" lon="9.321446123385662"><ele>475.75</ele><time>2026-05-02T15:33:08Z</time></trkpt><trkpt lat="44.65102111381832" lon="9.321317974372473"><ele>473.5</ele><time>2026-05-02T15:33:09Z</time></trkpt><trkpt lat="44.6509269013068" lon="9.32124456773791"><ele>471.25</ele><time>2026-05-02T15:33:10Z</time></trkpt><trkpt lat="44.650778980281665" lon="9.321218653679278"><ele>469.0</ele><time>2026-05-02T15:33:11Z</time></trkpt><trkpt lat="44.65063105914281" lon="9.321185172588018"><ele>469.0</ele><time>2026-05-02T15:33:12Z</time></trkpt><trkpt lat="44.65050348062357" lon="9.321105776252605"><ele>469.0</ele><time>2026-05-02T15:33:13Z</time></trkpt><trkpt lat="44.65040514177434" lon="9.321017573113938"><ele>469.0</ele><time>2026-05-02T15:33:14Z</time></trkpt><trkpt lat="44.65034801791393" lon="9.320928243022147"><ele>469.0</ele><time>2026-05-02T15:33:15Z</time></trkpt><trkpt lat="44.65031996013698" lon="9.320803231689633"><ele>469.0</ele><time>2026-05-02T15:33:16Z</time></trkpt><trkpt lat="44.650301937313515" lon="9.32062966936544"><ele>464.6</ele><time>2026-05-02T15:33:17Z</time></trkpt><trkpt lat="44.65026913083281" lon="9.320488873831085"><ele>460.2</ele><time>2026-05-02T15:33:18Z</time></trkpt><trkpt lat="44.65019786487435" lon="9.32041270466581"><ele>455.80000000000007</ele><time>2026-05-02T15:33:19Z</time></trkpt><trkpt lat="44.65009474302899" lon="9.32039150914284"><ele>451.40000000000003</ele><time>2026-05-02T15:33:20Z</time></trkpt><trkpt lat="44.64997218532231" lon="9.320436918291572"><ele>447.0</ele><time>2026-05-02T15:33:21Z</time></trkpt><trkpt lat="44.649820946424214" lon="9.320539926652808"><ele>448.66666666666663</ele><time>2026-05-02T15:33:22Z</time></trkpt><trkpt lat="44.64964924807608" lon="9.320665575299188"><ele>450.3333333333333</ele><time>2026-05-02T15:33:23Z</time></trkpt><trkpt lat="44.64950157361135" lon="9.32076084865587"><ele>452.0</ele><time>2026-05-02T15:33:24Z</time></trkpt><trkpt lat="44.64937632465663" lon="9.320847509947004"><ele>452.0</ele><time>2026-05-02T15:33:25Z</time></trkpt><trkpt lat="44.64926826911869" lon="9.320999761358868"><ele>452.0</ele><time>2026-05-02T15:33:26Z</time></trkpt><trkpt lat="44.64915618555983" lon="9.32122810510423"><ele>452.0</ele><time>2026-05-02T15:33:27Z</time></trkpt><trkpt lat="44.64901831979076" lon="9.32153201285094"><ele>457.5</ele><time>2026-05-02T15:33:28Z</time></trkpt><trkpt lat="44.648858960110786" lon="9.321863631383952"><ele>463.0</ele><time>2026-05-02T15:33:29Z</time></trkpt><trkpt lat="44.64871532823765" lon="9.322159975102725"><ele>453.5</ele><time>2026-05-02T15:33:30Z</time></trkpt><trkpt lat="44.64860592168461" lon="9.322446605508613"><ele>444.0</ele><time>2026-05-02T15:33:31Z</time></trkpt><trkpt lat="44.6485052071586" lon="9.322794882091184"><ele>444.5</ele><time>2026-05-02T15:33:32Z</time></trkpt><trkpt lat="44.648385220522734" lon="9.323216201192894"><ele>445.0</ele><time>2026-05-02T15:33:33Z</time></trkpt><trkpt lat="44.6482527388171" lon="9.323684670760196"><ele>449.5</ele><time>2026-05-02T15:33:34Z</time></trkpt><trkpt lat="44.64811013668621" lon="9.324174471301255"><ele>454.0</ele><time>2026-05-02T15:33:35Z</time></trkpt><trkpt lat="44.64797285360249" lon="9.324636818981402"><ele>454.5</ele><time>2026-05-02T15:33:36Z</time></trkpt><trkpt lat="44.64785540035877" lon="9.325041114644158"><ele>455.0</ele><time>2026-05-02T15:33:37Z</time></trkpt><trkpt lat="44.64775510980041" lon="9.32537994826854"><ele>452.0</ele><time>2026-05-02T15:33:38Z</time></trkpt><trkpt lat="44.647665782544664" lon="9.325677455863067"><ele>449.0</ele><time>2026-05-02T15:33:39Z</time></trkpt><trkpt lat="44.64756236643359" lon="9.32597957133531"><ele>449.0</ele><time>2026-05-02T15:33:40Z</time></trkpt><trkpt lat="44.64743938111432" lon="9.326273758210386"><ele>449.0</ele><time>2026-05-02T15:33:41Z</time></trkpt><trkpt lat="44.64729445224166" lon="9.32654180692461"><ele>449.0</ele><time>2026-05-02T15:33:42Z</time></trkpt><trkpt lat="44.64713632524805" lon="9.326781742829219"><ele>449.0</ele><time>2026-05-02T15:33:43Z</time></trkpt><trkpt lat="44.6469710097564" lon="9.32699961478526"><ele>450.5</ele><time>2026-05-02T15:33:44Z</time></trkpt><trkpt lat="44.64678554714363" lon="9.32720868772673"><ele>452.0</ele><time>2026-05-02T15:33:45Z</time></trkpt><trkpt lat="44.64656539455463" lon="9.327409538819566"><ele>452.0</ele><time>2026-05-02T15:33:46Z</time></trkpt><trkpt lat="44.64630769590749" lon="9.327609527735031"><ele>452.0</ele><time>2026-05-02T15:33:47Z</time></trkpt><trkpt lat="44.64602054053685" lon="9.327812938823554"><ele>452.5</ele><time>2026-05-02T15:33:48Z</time></trkpt><trkpt lat="44.645748032691934" lon="9.3280043365676"><ele>453.0</ele><time>2026-05-02T15:33:49Z</time></trkpt><trkpt lat="44.64550242801352" lon="9.328175124938225"><ele>460.0</ele><time>2026-05-02T15:33:50Z</time></trkpt><trkpt lat="44.64527539934221" lon="9.328318677738"><ele>467.0</ele><time>2026-05-02T15:33:51Z</time></trkpt><trkpt lat="44.64505584028762" lon="9.32842742247266"><ele>467.0</ele><time>2026-05-02T15:33:52Z</time></trkpt><trkpt lat="44.64481258805362" lon="9.328522957760562"><ele>467.0</ele><time>2026-05-02T15:33:53Z</time></trkpt><trkpt lat="44.64454940608211" lon="9.32860011161582"><ele>468.0</ele><time>2026-05-02T15:33:54Z</time></trkpt><trkpt lat="44.644256674798335" lon="9.328673697700468"><ele>469.0</ele><time>2026-05-02T15:33:55Z</time></trkpt><trkpt lat="44.64393303406654" lon="9.328765483056374"><ele>466.5</ele><time>2026-05-02T15:33:56Z</time></trkpt><trkpt lat="44.64357910135653" lon="9.328859638132984"><ele>464.0</ele><time>2026-05-02T15:33:57Z</time></trkpt><trkpt lat="44.64320764483535" lon="9.328953525393011"><ele>462.5</ele><time>2026-05-02T15:33:58Z</time></trkpt><trkpt lat="44.64283002453683" lon="9.32905174294976"><ele>461.0</ele><time>2026-05-02T15:33:59Z</time></trkpt><trkpt lat="44.642438857955" lon="9.329157127064525"><ele>461.0</ele><time>2026-05-02T15:34:00Z</time></trkpt><trkpt lat="44.642040477843445" lon="9.329264286991721"><ele>461.0</ele><time>2026-05-02T15:34:01Z</time></trkpt><trkpt lat="44.64167439848117" lon="9.329363318193408"><ele>462.5</ele><time>2026-05-02T15:34:02Z</time></trkpt><trkpt lat="44.64134015615093" lon="9.329453845263497"><ele>464.0</ele><time>2026-05-02T15:34:03Z</time></trkpt><trkpt lat="44.64102729291226" lon="9.329537987417464"><ele>466.0</ele><time>2026-05-02T15:34:03.999Z</time></trkpt><trkpt lat="44.64073576573624" lon="9.329613272370505"><ele>468.0</ele><time>2026-05-02T15:34:04.999Z</time></trkpt><trkpt lat="44.64044104825362" lon="9.329692312201136"><ele>463.5</ele><time>2026-05-02T15:34:05.999Z</time></trkpt><trkpt lat="44.64016033835202" lon="9.329766767033954"><ele>459.0</ele><time>2026-05-02T15:34:06.999Z</time></trkpt><trkpt lat="44.63991815642583" lon="9.329830611407072"><ele>459.0</ele><time>2026-05-02T15:34:07.999Z</time></trkpt><trkpt lat="44.639700171549094" lon="9.329882667267333"><ele>459.0</ele><time>2026-05-02T15:34:08.999Z</time></trkpt><trkpt lat="44.63948573533559" lon="9.329936732688742"><ele>459.0</ele><time>2026-05-02T15:34:09.999Z</time></trkpt><trkpt lat="44.639286579783544" lon="9.329975315330804"><ele>459.66666666666663</ele><time>2026-05-02T15:34:10.999Z</time></trkpt><trkpt lat="44.6390761868666" lon="9.330008105804373"><ele>460.3333333333333</ele><time>2026-05-02T15:34:11.999Z</time></trkpt><trkpt lat="44.63886966691316" lon="9.329998185461589"><ele>461.0</ele><time>2026-05-02T15:34:12.999Z</time></trkpt><trkpt lat="44.638651678935794" lon="9.329953729672198"><ele>460.5</ele><time>2026-05-02T15:34:13.999Z</time></trkpt><trkpt lat="44.63842915648077" lon="9.329856007008047"><ele>460.0</ele><time>2026-05-02T15:34:14.999Z</time></trkpt><trkpt lat="44.63819437082838" lon="9.329712573141396"><ele>460.0</ele><time>2026-05-02T15:34:15.999Z</time></trkpt><trkpt lat="44.637949714116324" lon="9.32954408556684"><ele>460.0</ele><time>2026-05-02T15:34:16.999Z</time></trkpt><trkpt lat="44.63771617803652" lon="9.3293595528716"><ele>462.6666666666667</ele><time>2026-05-02T15:34:17.999Z</time></trkpt><trkpt lat="44.6375101855904" lon="9.329200713076437"><ele>465.33333333333337</ele><time>2026-05-02T15:34:18.999Z</time></trkpt><trkpt lat="44.63732063025899" lon="9.329060245355748"><ele>468.0</ele><time>2026-05-02T15:34:19.999Z</time></trkpt><trkpt lat="44.637131376728405" lon="9.3289207958697"><ele>466.33333333333337</ele><time>2026-05-02T15:34:20.999Z</time></trkpt><trkpt lat="44.63694820491588" lon="9.328792441074695"><ele>464.6666666666667</ele><time>2026-05-02T15:34:21.999Z</time></trkpt><trkpt lat="44.636768485371356" lon="9.32867547555538"><ele>463.0</ele><time>2026-05-02T15:34:22.999Z</time></trkpt><trkpt lat="44.63659262496692" lon="9.328583529738951"><ele>463.0</ele><time>2026-05-02T15:34:23.999Z</time></trkpt><trkpt lat="44.63642128511457" lon="9.32851898943709"><ele>463.0</ele><time>2026-05-02T15:34:24.999Z</time></trkpt><trkpt lat="44.63625204696761" lon="9.328483041255957"><ele>463.0</ele><time>2026-05-02T15:34:25.999Z</time></trkpt><trkpt lat="44.6360821245708" lon="9.328466596241384"><ele>464.33333333333337</ele><time>2026-05-02T15:34:27Z</time></trkpt><trkpt lat="44.63591023817772" lon="9.328478635352552"><ele>465.66666666666663</ele><time>2026-05-02T15:34:28Z</time></trkpt><trkpt lat="44.63574318615003" lon="9.328512822028038"><ele>467.0</ele><time>2026-05-02T15:34:29Z</time></trkpt><trkpt lat="44.635575113222394" lon="9.328568314865004"><ele>467.0</ele><time>2026-05-02T15:34:30Z</time></trkpt><trkpt lat="44.63540845481731" lon="9.328643258778126"><ele>467.0</ele><time>2026-05-02T15:34:31Z</time></trkpt><trkpt lat="44.63524688948847" lon="9.328743175578083"><ele>467.0</ele><time>2026-05-02T15:34:32Z</time></trkpt><trkpt lat="44.635088775835825" lon="9.328850085065907"><ele>470.3333333333333</ele><time>2026-05-02T15:34:33Z</time></trkpt><trkpt lat="44.63493327489134" lon="9.328957263625608"><ele>473.66666666666663</ele><time>2026-05-02T15:34:34Z</time></trkpt><trkpt lat="44.63477650888776" lon="9.329060817363683"><ele>477.0</ele><time>2026-05-02T15:34:35Z</time></trkpt><trkpt lat="44.63461907123106" lon="9.329162524732261"><ele>474.33333333333337</ele><time>2026-05-02T15:34:36Z</time></trkpt><trkpt lat="44.63446186019486" lon="9.329267832843138"><ele>471.6666666666667</ele><time>2026-05-02T15:34:37Z</time></trkpt><trkpt lat="44.63430748064476" lon="9.329381189655281"><ele>469.0</ele><time>2026-05-02T15:34:38Z</time></trkpt><trkpt lat="44.63415117452809" lon="9.329496399712788"><ele>469.0</ele><time>2026-05-02T15:34:39Z</time></trkpt><trkpt lat="44.63399686917061" lon="9.329608849091905"><ele>469.0</ele><time>2026-05-02T15:34:40Z</time></trkpt><trkpt lat="44.63384039089775" lon="9.329715778035848"><ele>469.0</ele><time>2026-05-02T15:34:41Z</time></trkpt><trkpt lat="44.63369346740236" lon="9.329809345798692"><ele>470.0</ele><time>2026-05-02T15:34:42Z</time></trkpt><trkpt lat="44.63353057946661" lon="9.32991203862064"><ele>471.0</ele><time>2026-05-02T15:34:43Z</time></trkpt><trkpt lat="44.6333280393471" lon="9.33004083449945"><ele>472.0</ele><time>2026-05-02T15:34:44Z</time></trkpt><trkpt lat="44.63309817379987" lon="9.330199922128914"><ele>472.0</ele><time>2026-05-02T15:34:45Z</time></trkpt><trkpt lat="44.632854591527966" lon="9.330396117192663"><ele>472.0</ele><time>2026-05-02T15:34:46Z</time></trkpt><trkpt lat="44.63263882880393" lon="9.330597966535118"><ele>473.33333333333337</ele><time>2026-05-02T15:34:47Z</time></trkpt><trkpt lat="44.63245236880579" lon="9.330786632509378"><ele>474.66666666666663</ele><time>2026-05-02T15:34:48Z</time></trkpt><trkpt lat="44.63227905683942" lon="9.330962259179856"><ele>476.0</ele><time>2026-05-02T15:34:49Z</time></trkpt><trkpt lat="44.63213402967629" lon="9.331104822123502"><ele>476.0</ele><time>2026-05-02T15:34:50Z</time></trkpt><trkpt lat="44.63200723811223" lon="9.3312304986122"><ele>476.0</ele><time>2026-05-02T15:34:51Z</time></trkpt><trkpt lat="44.63188804537984" lon="9.331349005642169"><ele>476.0</ele><time>2026-05-02T15:34:52Z</time></trkpt><trkpt lat="44.63177689419117" lon="9.331458410774657"><ele>476.0</ele><time>2026-05-02T15:34:53Z</time></trkpt><trkpt lat="44.63168264081904" lon="9.331554777053706"><ele>476.8</ele><time>2026-05-02T15:34:54Z</time></trkpt><trkpt lat="44.63160508047915" lon="9.331639007367903"><ele>477.6</ele><time>2026-05-02T15:34:55Z</time></trkpt><trkpt lat="44.63153136498677" lon="9.331710129131796"><ele>478.4</ele><time>2026-05-02T15:34:56Z</time></trkpt><trkpt lat="44.63144595126812" lon="9.331776319840202"><ele>479.2</ele><time>2026-05-02T15:34:57Z</time></trkpt><trkpt lat="44.631359392637634" lon="9.331847502724504"><ele>480.0</ele><time>2026-05-02T15:34:58Z</time></trkpt><trkpt lat="44.631271824655066" lon="9.331924967603433"><ele>480.0</ele><time>2026-05-02T15:34:59Z</time></trkpt><trkpt lat="44.6311767126481" lon="9.331998329980662"><ele>480.0</ele><time>2026-05-02T15:35:00Z</time></trkpt><trkpt lat="44.63107700603325" lon="9.332074886277677"><ele>480.0</ele><time>2026-05-02T15:35:01Z</time></trkpt><trkpt lat="44.63097303701578" lon="9.332148705355046"><ele>480.0</ele><time>2026-05-02T15:35:02Z</time></trkpt><trkpt lat="44.63086700161022" lon="9.332220610373884"><ele>481.25</ele><time>2026-05-02T15:35:03Z</time></trkpt><trkpt lat="44.630763377579754" lon="9.332294085187394"><ele>482.5</ele><time>2026-05-02T15:35:04Z</time></trkpt><trkpt lat="44.63064424727637" lon="9.332382629029663"><ele>483.75</ele><time>2026-05-02T15:35:05Z</time></trkpt><trkpt lat="44.63050057438792" lon="9.332486396487576"><ele>485.0</ele><time>2026-05-02T15:35:06Z</time></trkpt><trkpt lat="44.63034471326776" lon="9.332597851479484"><ele>480.3333333333333</ele><time>2026-05-02T15:35:07Z</time></trkpt><trkpt lat="44.630164280887676" lon="9.33272235460406"><ele>475.66666666666663</ele><time>2026-05-02T15:35:08Z</time></trkpt><trkpt lat="44.62994282656376" lon="9.332849503608648"><ele>471.0</ele><time>2026-05-02T15:35:09Z</time></trkpt><trkpt lat="44.62970719599112" lon="9.332936778827273"><ele>471.0</ele><time>2026-05-02T15:35:10Z</time></trkpt><trkpt lat="44.62948297567394" lon="9.332995390454755"><ele>471.0</ele><time>2026-05-02T15:35:11Z</time></trkpt><trkpt lat="44.62925018087503" lon="9.333032459902254"><ele>471.33333333333337</ele><time>2026-05-02T15:35:12Z</time></trkpt><trkpt lat="44.62902769052254" lon="9.333043278977508"><ele>471.6666666666667</ele><time>2026-05-02T15:35:13Z</time></trkpt><trkpt lat="44.62883067908863" lon="9.33304047969398"><ele>472.0</ele><time>2026-05-02T15:35:14Z</time></trkpt><trkpt lat="44.62862593268564" lon="9.333028539781214"><ele>472.33333333333337</ele><time>2026-05-02T15:35:15Z</time></trkpt><trkpt lat="44.628411352256435" lon="9.333005410528363"><ele>472.66666666666663</ele><time>2026-05-02T15:35:16Z</time></trkpt><trkpt lat="44.62819568840155" lon="9.33299040419629"><ele>473.0</ele><time>2026-05-02T15:35:17Z</time></trkpt><trkpt lat="44.627970730489785" lon="9.33297335166698"><ele>473.0</ele><time>2026-05-02T15:35:18Z</time></trkpt><trkpt lat="44.62774459162451" lon="9.332954215518017"><ele>473.0</ele><time>2026-05-02T15:35:19Z</time></trkpt><trkpt lat="44.62751937343964" lon="9.332932368408661"><ele>473.0</ele><time>2026-05-02T15:35:20Z</time></trkpt><trkpt lat="44.62728143057268" lon="9.332902392807005"><ele>473.0</ele><time>2026-05-02T15:35:21Z</time></trkpt><trkpt lat="44.627060076272066" lon="9.332859944982186"><ele>475.0</ele><time>2026-05-02T15:35:22Z</time></trkpt><trkpt lat="44.62683147449109" lon="9.332801958339207"><ele>477.0</ele><time>2026-05-02T15:35:23Z</time></trkpt><trkpt lat="44.626619000319145" lon="9.332741898903052"><ele>479.0</ele><time>2026-05-02T15:35:24Z</time></trkpt><trkpt lat="44.62640609122008" lon="9.332673533116726"><ele>479.0</ele><time>2026-05-02T15:35:25Z</time></trkpt><trkpt lat="44.626208945206706" lon="9.332588681501184"><ele>479.0</ele><time>2026-05-02T15:35:26Z</time></trkpt><trkpt lat="44.62601275776533" lon="9.332500027522867"><ele>479.0</ele><time>2026-05-02T15:35:27Z</time></trkpt><trkpt lat="44.62580688049229" lon="9.332401227240398"><ele>479.5</ele><time>2026-05-02T15:35:28Z</time></trkpt><trkpt lat="44.62557650194872" lon="9.332280549308422"><ele>480.0</ele><time>2026-05-02T15:35:29Z</time></trkpt><trkpt lat="44.625280108603285" lon="9.33211598049616"><ele>480.0</ele><time>2026-05-02T15:35:30Z</time></trkpt><trkpt lat="44.62496223955804" lon="9.33193838839724"><ele>480.0</ele><time>2026-05-02T15:35:31Z</time></trkpt><trkpt lat="44.62461983029012" lon="9.331744894043558"><ele>479.5</ele><time>2026-05-02T15:35:32Z</time></trkpt><trkpt lat="44.624260607154646" lon="9.33154266060933"><ele>479.0</ele><time>2026-05-02T15:35:33Z</time></trkpt><trkpt lat="44.62394312455812" lon="9.331362347684983"><ele>479.0</ele><time>2026-05-02T15:35:34Z</time></trkpt><trkpt lat="44.623672354856836" lon="9.331207702737421"><ele>479.0</ele><time>2026-05-02T15:35:35Z</time></trkpt><trkpt lat="44.623424966988416" lon="9.331066071863134"><ele>478.5</ele><time>2026-05-02T15:35:36Z</time></trkpt><trkpt lat="44.62317986138549" lon="9.330923284712183"><ele>478.0</ele><time>2026-05-02T15:35:37Z</time></trkpt><trkpt lat="44.622952610638244" lon="9.330782631356925"><ele>478.5</ele><time>2026-05-02T15:35:38Z</time></trkpt><trkpt lat="44.62272324131581" lon="9.330614371677324"><ele>479.0</ele><time>2026-05-02T15:35:39Z</time></trkpt><trkpt lat="44.62249697791332" lon="9.330412802289116"><ele>481.0</ele><time>2026-05-02T15:35:40Z</time></trkpt><trkpt lat="44.62228711751287" lon="9.330191335198181"><ele>483.0</ele><time>2026-05-02T15:35:41Z</time></trkpt><trkpt lat="44.6220897918136" lon="9.329939400307385"><ele>484.5</ele><time>2026-05-02T15:35:42Z</time></trkpt><trkpt lat="44.62190001352321" lon="9.329677348252146"><ele>486.0</ele><time>2026-05-02T15:35:43Z</time></trkpt><trkpt lat="44.621724719609965" lon="9.329392337197206"><ele>486.0</ele><time>2026-05-02T15:35:44Z</time></trkpt><trkpt lat="44.621571708162115" lon="9.329092470788094"><ele>486.0</ele><time>2026-05-02T15:35:45Z</time></trkpt><trkpt lat="44.621433772826386" lon="9.328786719875314"><ele>488.0</ele><time>2026-05-02T15:35:46Z</time></trkpt><trkpt lat="44.62130633252687" lon="9.32846765586374"><ele>490.0</ele><time>2026-05-02T15:35:47Z</time></trkpt><trkpt lat="44.62117182124454" lon="9.32814642564916"><ele>486.5</ele><time>2026-05-02T15:35:48Z</time></trkpt><trkpt lat="44.62104574821521" lon="9.327851048334345"><ele>483.0</ele><time>2026-05-02T15:35:49Z</time></trkpt><trkpt lat="44.620939637172754" lon="9.327592768797329"><ele>483.0</ele><time>2026-05-02T15:35:50Z</time></trkpt><trkpt lat="44.62084695205673" lon="9.327364716908466"><ele>483.0</ele><time>2026-05-02T15:35:51Z</time></trkpt><trkpt lat="44.620759608216034" lon="9.327158176986732"><ele>483.0</ele><time>2026-05-02T15:35:52Z</time></trkpt><trkpt lat="44.620668180769016" lon="9.32696040010908"><ele>483.25</ele><time>2026-05-02T15:35:53Z</time></trkpt><trkpt lat="44.62058138130873" lon="9.326788818371524"><ele>483.5</ele><time>2026-05-02T15:35:54Z</time></trkpt><trkpt lat="44.6204996511182" lon="9.326641583269465"><ele>483.75</ele><time>2026-05-02T15:35:55Z</time></trkpt><trkpt lat="44.620415516041085" lon="9.326500538886059"><ele>484.0</ele><time>2026-05-02T15:35:56Z</time></trkpt><trkpt lat="44.620321574020956" lon="9.326347513640542"><ele>485.33333333333337</ele><time>2026-05-02T15:35:57Z</time></trkpt><trkpt lat="44.620218758404604" lon="9.326193179653831"><ele>486.66666666666663</ele><time>2026-05-02T15:35:58Z</time></trkpt><trkpt lat="44.6201062634166" lon="9.326033474129241"><ele>488.0</ele><time>2026-05-02T15:35:59Z</time></trkpt><trkpt lat="44.6199878229098" lon="9.32586805705642"><ele>488.0</ele><time>2026-05-02T15:36:00Z</time></trkpt><trkpt lat="44.619869433547244" lon="9.325705501352765"><ele>488.0</ele><time>2026-05-02T15:36:01Z</time></trkpt><trkpt lat="44.619751344845994" lon="9.325546326329123"><ele>488.0</ele><time>2026-05-02T15:36:02Z</time></trkpt><trkpt lat="44.619634552455636" lon="9.325389338262523"><ele>488.0</ele><time>2026-05-02T15:36:03Z</time></trkpt><trkpt lat="44.61952131641626" lon="9.325228310486818"><ele>488.0</ele><time>2026-05-02T15:36:04Z</time></trkpt><trkpt lat="44.619409872731325" lon="9.325082440568242"><ele>488.0</ele><time>2026-05-02T15:36:05Z</time></trkpt><trkpt lat="44.61929978441332" lon="9.324932907393514"><ele>489.3333333333333</ele><time>2026-05-02T15:36:06Z</time></trkpt><trkpt lat="44.61918750043114" lon="9.324779685242698"><ele>490.66666666666663</ele><time>2026-05-02T15:36:07Z</time></trkpt><trkpt lat="44.61907433668278" lon="9.324628353193381"><ele>492.0</ele><time>2026-05-02T15:36:08Z</time></trkpt><trkpt lat="44.618959436994885" lon="9.324476741007043"><ele>492.0</ele><time>2026-05-02T15:36:09Z</time></trkpt><trkpt lat="44.618850845048875" lon="9.324328859672574"><ele>492.0</ele><time>2026-05-02T15:36:10Z</time></trkpt><trkpt lat="44.61874481992125" lon="9.324183612991668"><ele>492.0</ele><time>2026-05-02T15:36:11Z</time></trkpt><trkpt lat="44.61863087581777" lon="9.324029879255901"><ele>494.33333333333337</ele><time>2026-05-02T15:36:12Z</time></trkpt><trkpt lat="44.61851523965834" lon="9.323878229471854"><ele>496.6666666666667</ele><time>2026-05-02T15:36:13Z</time></trkpt><trkpt lat="44.61839795947755" lon="9.32372384617103"><ele>499.0</ele><time>2026-05-02T15:36:14Z</time></trkpt><trkpt lat="44.61827681570405" lon="9.323561183881502"><ele>499.0</ele><time>2026-05-02T15:36:15Z</time></trkpt><trkpt lat="44.61814901153005" lon="9.32338385098173"><ele>499.0</ele><time>2026-05-02T15:36:16Z</time></trkpt><trkpt lat="44.61801370838109" lon="9.32319565113398"><ele>499.0</ele><time>2026-05-02T15:36:17Z</time></trkpt><trkpt lat="44.61787346757033" lon="9.323009280645492"><ele>496.0</ele><time>2026-05-02T15:36:18Z</time></trkpt><trkpt lat="44.617719354073046" lon="9.322803301492511"><ele>493.0</ele><time>2026-05-02T15:36:19Z</time></trkpt><trkpt lat="44.61757772423999" lon="9.322613730280954"><ele>490.0</ele><time>2026-05-02T15:36:20Z</time></trkpt><trkpt lat="44.61745321580572" lon="9.322436444366536"><ele>490.0</ele><time>2026-05-02T15:36:20.999Z</time></trkpt><trkpt lat="44.61732777376385" lon="9.32226954510605"><ele>490.0</ele><time>2026-05-02T15:36:21.999Z</time></trkpt><trkpt lat="44.617200436078" lon="9.322123971054163"><ele>490.0</ele><time>2026-05-02T15:36:22.999Z</time></trkpt><trkpt lat="44.61706205510544" lon="9.322008882325159"><ele>494.0</ele><time>2026-05-02T15:36:23.999Z</time></trkpt><trkpt lat="44.616930857748535" lon="9.321930167092395"><ele>498.0</ele><time>2026-05-02T15:36:24.999Z</time></trkpt><trkpt lat="44.61678636584815" lon="9.321851209436494"><ele>502.0</ele><time>2026-05-02T15:36:25.999Z</time></trkpt><trkpt lat="44.61662017440033" lon="9.321793665581225"><ele>502.0</ele><time>2026-05-02T15:36:26.999Z</time></trkpt><trkpt lat="44.61642838936279" lon="9.321774557667222"><ele>502.0</ele><time>2026-05-02T15:36:27.999Z</time></trkpt><trkpt lat="44.616211295430325" lon="9.321775482287173"><ele>502.0</ele><time>2026-05-02T15:36:28.999Z</time></trkpt><trkpt lat="44.615998899535846" lon="9.321780958192663"><ele>504.33333333333337</ele><time>2026-05-02T15:36:29.999Z</time></trkpt><trkpt lat="44.615793370333826" lon="9.321793507543704"><ele>506.66666666666663</ele><time>2026-05-02T15:36:30.999Z</time></trkpt><trkpt lat="44.615614013987006" lon="9.321803418265748"><ele>509.0</ele><time>2026-05-02T15:36:31.999Z</time></trkpt><trkpt lat="44.61544291354752" lon="9.321803525097542"><ele>509.66666666666663</ele><time>2026-05-02T15:36:33Z</time></trkpt><trkpt lat="44.61528096545501" lon="9.3217860370174"><ele>510.33333333333337</ele><time>2026-05-02T15:36:34Z</time></trkpt><trkpt lat="44.61513666713034" lon="9.321729714870276"><ele>511.0</ele><time>2026-05-02T15:36:35Z</time></trkpt><trkpt lat="44.615012761116574" lon="9.321643581984574"><ele>511.0</ele><time>2026-05-02T15:36:36Z</time></trkpt><trkpt lat="44.61489219298846" lon="9.321526954457099"><ele>511.0</ele><time>2026-05-02T15:36:37Z</time></trkpt><trkpt lat="44.61478555438735" lon="9.321426350537239"><ele>511.0</ele><time>2026-05-02T15:36:38Z</time></trkpt><trkpt lat="44.614669997911356" lon="9.321371366793102"><ele>511.0</ele><time>2026-05-02T15:36:39Z</time></trkpt><trkpt lat="44.61452703708458" lon="9.321360844912563"><ele>508.0</ele><time>2026-05-02T15:36:40Z</time></trkpt><trkpt lat="44.614373500936495" lon="9.321377014667812"><ele>505.0</ele><time>2026-05-02T15:36:41Z</time></trkpt><trkpt lat="44.61421051191645" lon="9.321416746940498"><ele>502.0</ele><time>2026-05-02T15:36:42Z</time></trkpt><trkpt lat="44.61404184064309" lon="9.321458813394376"><ele>507.0</ele><time>2026-05-02T15:36:43Z</time></trkpt><trkpt lat="44.613870920662094" lon="9.321501790541268"><ele>512.0</ele><time>2026-05-02T15:36:44Z</time></trkpt><trkpt lat="44.61371476141777" lon="9.321544871049579"><ele>517.0</ele><time>2026-05-02T15:36:45Z</time></trkpt><trkpt lat="44.61357700978336" lon="9.321586452665807"><ele>517.0</ele><time>2026-05-02T15:36:46Z</time></trkpt><trkpt lat="44.61345256016663" lon="9.321619515879801"><ele>517.0</ele><time>2026-05-02T15:36:47Z</time></trkpt><trkpt lat="44.613339458533126" lon="9.321647400784956"><ele>517.0</ele><time>2026-05-02T15:36:48Z</time></trkpt><trkpt lat="44.6132371692881" lon="9.321658219485727"><ele>517.0</ele><time>2026-05-02T15:36:49Z</time></trkpt><trkpt lat="44.61315017907713" lon="9.321633796525957"><ele>517.0</ele><time>2026-05-02T15:36:50Z</time></trkpt><trkpt lat="44.613073951345235" lon="9.32156658962174"><ele>517.0</ele><time>2026-05-02T15:36:51Z</time></trkpt><trkpt lat="44.613028065659606" lon="9.321466067092539"><ele>517.0</ele><time>2026-05-02T15:36:52Z</time></trkpt><trkpt lat="44.613001287983664" lon="9.321334073192022"><ele>517.0</ele><time>2026-05-02T15:36:53Z</time></trkpt><trkpt lat="44.612976657990274" lon="9.321168031809258"><ele>517.0</ele><time>2026-05-02T15:36:54Z</time></trkpt><trkpt lat="44.61294855074721" lon="9.321005321550853"><ele>517.0</ele><time>2026-05-02T15:36:55Z</time></trkpt><trkpt lat="44.61291481148456" lon="9.320857902353147"><ele>514.6</ele><time>2026-05-02T15:36:56Z</time></trkpt><trkpt lat="44.61287765651444" lon="9.32071989689703"><ele>512.2</ele><time>2026-05-02T15:36:57Z</time></trkpt><trkpt lat="44.61283184142397" lon="9.32059114677903"><ele>509.8</ele><time>2026-05-02T15:36:58Z</time></trkpt><trkpt lat="44.61275311948523" lon="9.320484337682798"><ele>507.4</ele><time>2026-05-02T15:36:59Z</time></trkpt><trkpt lat="44.61265438641875" lon="9.320387207890917"><ele>505.0</ele><time>2026-05-02T15:37:00Z</time></trkpt><trkpt lat="44.61254945041733" lon="9.320294099363139"><ele>505.0</ele><time>2026-05-02T15:37:01Z</time></trkpt><trkpt lat="44.61244941293812" lon="9.320208545567235"><ele>505.0</ele><time>2026-05-02T15:37:02Z</time></trkpt><trkpt lat="44.61235451484219" lon="9.320132367478532"><ele>505.0</ele><time>2026-05-02T15:37:03Z</time></trkpt><trkpt lat="44.612266650205896" lon="9.320058136493067"><ele>505.0</ele><time>2026-05-02T15:37:04Z</time></trkpt><trkpt lat="44.61218444637385" lon="9.319988569256209"><ele>505.0</ele><time>2026-05-02T15:37:05Z</time></trkpt><trkpt lat="44.612103869691175" lon="9.319919346454022"><ele>505.0</ele><time>2026-05-02T15:37:06Z</time></trkpt><trkpt lat="44.61202654876056" lon="9.319849249163772"><ele>505.0</ele><time>2026-05-02T15:37:07Z</time></trkpt><trkpt lat="44.611963349683734" lon="9.319767737176848"><ele>505.0</ele><time>2026-05-02T15:37:08Z</time></trkpt><trkpt lat="44.611919037461426" lon="9.31966119184996"><ele>505.0</ele><time>2026-05-02T15:37:09Z</time></trkpt><trkpt lat="44.61190503706631" lon="9.319526551232727"><ele>505.0</ele><time>2026-05-02T15:37:10Z</time></trkpt><trkpt lat="44.61190519055909" lon="9.319370008568086"><ele>505.00000000000006</ele><time>2026-05-02T15:37:11Z</time></trkpt><trkpt lat="44.611906149726444" lon="9.319229811594049"><ele>505.0</ele><time>2026-05-02T15:37:12Z</time></trkpt><trkpt lat="44.61190513157846" lon="9.31910671492747"><ele>505.0</ele><time>2026-05-02T15:37:13Z</time></trkpt><trkpt lat="44.611897128489794" lon="9.31899656411274"><ele>505.0</ele><time>2026-05-02T15:37:14Z</time></trkpt><trkpt lat="44.61186416619169" lon="9.318904458558745"><ele>505.00000000000006</ele><time>2026-05-02T15:37:15Z</time></trkpt><trkpt lat="44.6118081423342" lon="9.318831379664639"><ele>505.0</ele><time>2026-05-02T15:37:16Z</time></trkpt><trkpt lat="44.611733667408046" lon="9.318766100840124"><ele>510.6</ele><time>2026-05-02T15:37:17Z</time></trkpt><trkpt lat="44.611651559101034" lon="9.318696427523703"><ele>516.2</ele><time>2026-05-02T15:37:18Z</time></trkpt><trkpt lat="44.611562422805456" lon="9.318617615653803"><ele>521.8</ele><time>2026-05-02T15:37:19Z</time></trkpt><trkpt lat="44.611468593990445" lon="9.318529614918397"><ele>527.4</ele><time>2026-05-02T15:37:20Z</time></trkpt><trkpt lat="44.611375046482785" lon="9.318435256083257"><ele>533.0</ele><time>2026-05-02T15:37:21Z</time></trkpt><trkpt lat="44.61128321559017" lon="9.31834430688643"><ele>533.0</ele><time>2026-05-02T15:37:22Z</time></trkpt><trkpt lat="44.61119218113143" lon="9.318264057309054"><ele>533.0</ele><time>2026-05-02T15:37:23Z</time></trkpt><trkpt lat="44.61110107225764" lon="9.318199361949425"><ele>533.0</ele><time>2026-05-02T15:37:24Z</time></trkpt><trkpt lat="44.61101406664923" lon="9.318148403485717"><ele>533.0</ele><time>2026-05-02T15:37:25Z</time></trkpt><trkpt lat="44.61093428384835" lon="9.318097868924129"><ele>533.0</ele><time>2026-05-02T15:37:26Z</time></trkpt><trkpt lat="44.61086629213372" lon="9.318041202919067"><ele>528.8</ele><time>2026-05-02T15:37:27Z</time></trkpt><trkpt lat="44.610814760154184" lon="9.317953303888158"><ele>524.5999999999999</ele><time>2026-05-02T15:37:28Z</time></trkpt><trkpt lat="44.610784593549" lon="9.31782751790903"><ele>520.4000000000001</ele><time>2026-05-02T15:37:29Z</time></trkpt><trkpt lat="44.61077783450701" lon="9.31766662205772"><ele>516.2</ele><time>2026-05-02T15:37:30Z</time></trkpt><trkpt lat="44.6107933685296" lon="9.317460267321126"><ele>512.0</ele><time>2026-05-02T15:37:31Z</time></trkpt><trkpt lat="44.61079452075215" lon="9.317249251333141"><ele>513.25</ele><time>2026-05-02T15:37:32Z</time></trkpt><trkpt lat="44.61077304898941" lon="9.317066282982664"><ele>514.5</ele><time>2026-05-02T15:37:33Z</time></trkpt><trkpt lat="44.610754301245656" lon="9.316910823775952"><ele>515.75</ele><time>2026-05-02T15:37:34Z</time></trkpt><trkpt lat="44.610755647442545" lon="9.316757098853309"><ele>517.0</ele><time>2026-05-02T15:37:35Z</time></trkpt><trkpt lat="44.610788121617496" lon="9.31660755696139"><ele>517.0</ele><time>2026-05-02T15:37:36Z</time></trkpt><trkpt lat="44.610835831903245" lon="9.316471409725931"><ele>517.0</ele><time>2026-05-02T15:37:37Z</time></trkpt><trkpt lat="44.61085566920333" lon="9.316330066638978"><ele>517.0</ele><time>2026-05-02T15:37:38Z</time></trkpt><trkpt lat="44.61085283450405" lon="9.316196635828687"><ele>517.0</ele><time>2026-05-02T15:37:39Z</time></trkpt><trkpt lat="44.61084166001213" lon="9.31607991976301"><ele>517.0</ele><time>2026-05-02T15:37:40Z</time></trkpt><trkpt lat="44.61083056867771" lon="9.31596289617632"><ele>517.2</ele><time>2026-05-02T15:37:41Z</time></trkpt><trkpt lat="44.61082892184483" lon="9.315826944845401"><ele>517.4000000000001</ele><time>2026-05-02T15:37:42Z</time></trkpt><trkpt lat="44.61078397170531" lon="9.315689830199444"><ele>517.5999999999999</ele><time>2026-05-02T15:37:43Z</time></trkpt><trkpt lat="44.61075151502312" lon="9.315538016986363"><ele>517.8</ele><time>2026-05-02T15:37:44Z</time></trkpt><trkpt lat="44.61071186186663" lon="9.315377385828173"><ele>518.0</ele><time>2026-05-02T15:37:45Z</time></trkpt><trkpt lat="44.61067148312056" lon="9.315218030247618"><ele>518.25</ele><time>2026-05-02T15:37:46Z</time></trkpt><trkpt lat="44.61063481084218" lon="9.315062520021433"><ele>518.5</ele><time>2026-05-02T15:37:47Z</time></trkpt><trkpt lat="44.61059895465557" lon="9.314902709863516"><ele>518.75</ele><time>2026-05-02T15:37:48Z</time></trkpt><trkpt lat="44.610562261507106" lon="9.314742317928625"><ele>519.0</ele><time>2026-05-02T15:37:49Z</time></trkpt><trkpt lat="44.61053372634089" lon="9.314574780622166"><ele>521.0</ele><time>2026-05-02T15:37:50Z</time></trkpt><trkpt lat="44.61052277236654" lon="9.314393856216189"><ele>523.0</ele><time>2026-05-02T15:37:51Z</time></trkpt><trkpt lat="44.610522345432784" lon="9.314208701713458"><ele>525.0</ele><time>2026-05-02T15:37:52Z</time></trkpt><trkpt lat="44.61052458822099" lon="9.314014189016152"><ele>527.0</ele><time>2026-05-02T15:37:53Z</time></trkpt><trkpt lat="44.61052313665629" lon="9.31380677343601"><ele>527.0</ele><time>2026-05-02T15:37:54Z</time></trkpt><trkpt lat="44.61051413502932" lon="9.313601740656212"><ele>527.0</ele><time>2026-05-02T15:37:55Z</time></trkpt><trkpt lat="44.61049610109074" lon="9.313398633996282"><ele>527.0</ele><time>2026-05-02T15:37:56Z</time></trkpt><trkpt lat="44.610463783253564" lon="9.313203090075797"><ele>527.0</ele><time>2026-05-02T15:37:57Z</time></trkpt><trkpt lat="44.61042213044858" lon="9.313019253113078"><ele>528.75</ele><time>2026-05-02T15:37:58Z</time></trkpt><trkpt lat="44.610379701434205" lon="9.312837047307498"><ele>530.5</ele><time>2026-05-02T15:37:59Z</time></trkpt><trkpt lat="44.61033476497987" lon="9.312655413905935"><ele>532.25</ele><time>2026-05-02T15:38:00Z</time></trkpt><trkpt lat="44.610288918002276" lon="9.312489789855896"><ele>534.0</ele><time>2026-05-02T15:38:01Z</time></trkpt><trkpt lat="44.6102375055647" lon="9.312341995615043"><ele>529.4</ele><time>2026-05-02T15:38:02Z</time></trkpt><trkpt lat="44.61018856910655" lon="9.312202578214176"><ele>524.8</ele><time>2026-05-02T15:38:03Z</time></trkpt><trkpt lat="44.61014747782031" lon="9.31206600180477"><ele>520.2</ele><time>2026-05-02T15:38:04Z</time></trkpt><trkpt lat="44.61011885912757" lon="9.311926369461045"><ele>515.6</ele><time>2026-05-02T15:38:05Z</time></trkpt><trkpt lat="44.610121975867926" lon="9.311774927011056"><ele>511.0</ele><time>2026-05-02T15:38:06Z</time></trkpt><trkpt lat="44.61014343415578" lon="9.311626038334676"><ele>511.0</ele><time>2026-05-02T15:38:07Z</time></trkpt><trkpt lat="44.610187960978266" lon="9.311487666313925"><ele>511.0</ele><time>2026-05-02T15:38:08Z</time></trkpt><trkpt lat="44.610258272713146" lon="9.311359514652409"><ele>511.0</ele><time>2026-05-02T15:38:09Z</time></trkpt><trkpt lat="44.610351852471624" lon="9.311206784361985"><ele>511.0</ele><time>2026-05-02T15:38:10Z</time></trkpt><trkpt lat="44.61044965509016" lon="9.311044438382945"><ele>512.3333333333334</ele><time>2026-05-02T15:38:11Z</time></trkpt><trkpt lat="44.61054874773894" lon="9.310884370605786"><ele>513.6666666666666</ele><time>2026-05-02T15:38:12Z</time></trkpt><trkpt lat="44.610644910463044" lon="9.310730594327225"><ele>515.0</ele><time>2026-05-02T15:38:13Z</time></trkpt><trkpt lat="44.610749609694814" lon="9.310565529798145"><ele>515.0</ele><time>2026-05-02T15:38:14Z</time></trkpt><trkpt lat="44.61085831864211" lon="9.310403275484274"><ele>515.0</ele><time>2026-05-02T15:38:15Z</time></trkpt><trkpt lat="44.610945803067104" lon="9.310267755045205"><ele>515.0</ele><time>2026-05-02T15:38:16Z</time></trkpt><trkpt lat="44.61102869467609" lon="9.310141450084982"><ele>515.0</ele><time>2026-05-02T15:38:17Z</time></trkpt><trkpt lat="44.6110940046091" lon="9.309982615787263"><ele>515.0</ele><time>2026-05-02T15:38:18Z</time></trkpt><trkpt lat="44.611141013196544" lon="9.30977980849712"><ele>515.0</ele><time>2026-05-02T15:38:19Z</time></trkpt><trkpt lat="44.61116585978026" lon="9.309551798463565"><ele>515.0</ele><time>2026-05-02T15:38:20Z</time></trkpt><trkpt lat="44.61118611827841" lon="9.30934909234878"><ele>518.2</ele><time>2026-05-02T15:38:21Z</time></trkpt><trkpt lat="44.61122209715767" lon="9.309177501221905"><ele>521.4</ele><time>2026-05-02T15:38:22Z</time></trkpt><trkpt lat="44.61125714078712" lon="9.309031338199581"><ele>524.6</ele><time>2026-05-02T15:38:23Z</time></trkpt><trkpt lat="44.61126631558666" lon="9.308895993245134"><ele>527.8</ele><time>2026-05-02T15:38:24Z</time></trkpt><trkpt lat="44.61125683823469" lon="9.308745770601362"><ele>531.0</ele><time>2026-05-02T15:38:25Z</time></trkpt><trkpt lat="44.611157789908034" lon="9.308592614165361"><ele>528.3333333333334</ele><time>2026-05-02T15:38:26Z</time></trkpt><trkpt lat="44.61104666378792" lon="9.308407416974756"><ele>525.6666666666667</ele><time>2026-05-02T15:38:27Z</time></trkpt><trkpt lat="44.61092217380386" lon="9.308216023067908"><ele>523.0</ele><time>2026-05-02T15:38:28Z</time></trkpt><trkpt lat="44.610828977334116" lon="9.30803149871576"><ele>523.0</ele><time>2026-05-02T15:38:29Z</time></trkpt><trkpt lat="44.610740531442204" lon="9.307887271060611"><ele>523.0</ele><time>2026-05-02T15:38:30Z</time></trkpt><trkpt lat="44.61064126922674" lon="9.307738850584336"><ele>523.0</ele><time>2026-05-02T15:38:30.999Z</time></trkpt><trkpt lat="44.61060631515676" lon="9.307583251038093"><ele>523.0</ele><time>2026-05-02T15:38:31.999Z</time></trkpt><trkpt lat="44.6106048140202" lon="9.307407477585501"><ele>529.5</ele><time>2026-05-02T15:38:32.999Z</time></trkpt><trkpt lat="44.610617389321675" lon="9.307204191290293"><ele>536.0</ele><time>2026-05-02T15:38:33.999Z</time></trkpt><trkpt lat="44.610602955524634" lon="9.307061113746785"><ele>542.5</ele><time>2026-05-02T15:38:34.999Z</time></trkpt><trkpt lat="44.610559567965055" lon="9.306943060600382"><ele>549.0</ele><time>2026-05-02T15:38:35.999Z</time></trkpt><trkpt lat="44.61046795895012" lon="9.306824378681302"><ele>549.0</ele><time>2026-05-02T15:38:36.999Z</time></trkpt><trkpt lat="44.61033713983096" lon="9.306717676672474"><ele>549.0</ele><time>2026-05-02T15:38:38Z</time></trkpt><trkpt lat="44.61018051301156" lon="9.306633457090665"><ele>549.0</ele><time>2026-05-02T15:38:39Z</time></trkpt><trkpt lat="44.6100261387212" lon="9.306608549848496"><ele>544.3333333333334</ele><time>2026-05-02T15:38:40Z</time></trkpt><trkpt lat="44.60984563225805" lon="9.306626498916398"><ele>539.6666666666667</ele><time>2026-05-02T15:38:41Z</time></trkpt><trkpt lat="44.609629631661974" lon="9.306675210567388"><ele>535.0</ele><time>2026-05-02T15:38:42Z</time></trkpt><trkpt lat="44.60937971063662" lon="9.30673643853941"><ele>532.5</ele><time>2026-05-02T15:38:43Z</time></trkpt><trkpt lat="44.60912398490481" lon="9.306826263685211"><ele>530.0</ele><time>2026-05-02T15:38:44Z</time></trkpt><trkpt lat="44.60892613452777" lon="9.306911177590871"><ele>530.0</ele><time>2026-05-02T15:38:45Z</time></trkpt><trkpt lat="44.608758850717685" lon="9.306993306884964"><ele>530.0</ele><time>2026-05-02T15:38:46Z</time></trkpt><trkpt lat="44.60861424015746" lon="9.30704986307511"><ele>530.0</ele><time>2026-05-02T15:38:47Z</time></trkpt><trkpt lat="44.6084772691749" lon="9.307032531078281"><ele>529.3333333333333</ele><time>2026-05-02T15:38:48Z</time></trkpt><trkpt lat="44.6083110811868" lon="9.306995984496712"><ele>528.6666666666666</ele><time>2026-05-02T15:38:49Z</time></trkpt><trkpt lat="44.60812906092008" lon="9.306974988910667"><ele>528.0</ele><time>2026-05-02T15:38:50Z</time></trkpt><trkpt lat="44.607926305328874" lon="9.306956203502715"><ele>527.3333333333334</ele><time>2026-05-02T15:38:51Z</time></trkpt><trkpt lat="44.607747540342466" lon="9.306956874801834"><ele>526.6666666666667</ele><time>2026-05-02T15:38:52Z</time></trkpt><trkpt lat="44.60760031599748" lon="9.30696217287731"><ele>526.0</ele><time>2026-05-02T15:38:53Z</time></trkpt><trkpt lat="44.607457221946156" lon="9.306916251078052"><ele>526.0</ele><time>2026-05-02T15:38:54Z</time></trkpt><trkpt lat="44.60731458218579" lon="9.306811366783128"><ele>526.0</ele><time>2026-05-02T15:38:55Z</time></trkpt><trkpt lat="44.607180472539476" lon="9.306651443621451"><ele>526.0</ele><time>2026-05-02T15:38:56Z</time></trkpt><trkpt lat="44.607046524640666" lon="9.306519799971618"><ele>526.3333333333334</ele><time>2026-05-02T15:38:57Z</time></trkpt><trkpt lat="44.606947595505154" lon="9.306361076504844"><ele>526.6666666666666</ele><time>2026-05-02T15:38:58Z</time></trkpt><trkpt lat="44.60687249365271" lon="9.306156659061816"><ele>527.0</ele><time>2026-05-02T15:38:59Z</time></trkpt><trkpt lat="44.60682971221395" lon="9.305911594623414"><ele>527.0</ele><time>2026-05-02T15:39:00Z</time></trkpt><trkpt lat="44.60677851424327" lon="9.305662544344454"><ele>527.0</ele><time>2026-05-02T15:39:01Z</time></trkpt><trkpt lat="44.60673905461354" lon="9.30543842788342"><ele>527.0</ele><time>2026-05-02T15:39:02Z</time></trkpt><trkpt lat="44.60671174194232" lon="9.305240969348958"><ele>527.0</ele><time>2026-05-02T15:39:03Z</time></trkpt><trkpt lat="44.60669567906794" lon="9.305071925290582"><ele>527.0</ele><time>2026-05-02T15:39:04Z</time></trkpt><trkpt lat="44.606680729273705" lon="9.304909793864704"><ele>527.0</ele><time>2026-05-02T15:39:05Z</time></trkpt><trkpt lat="44.606674735470115" lon="9.304731938393752"><ele>527.0</ele><time>2026-05-02T15:39:06Z</time></trkpt><trkpt lat="44.60669654403428" lon="9.3045498224752"><ele>528.5</ele><time>2026-05-02T15:39:07Z</time></trkpt><trkpt lat="44.60676865295725" lon="9.30439293402047"><ele>530.0</ele><time>2026-05-02T15:39:08Z</time></trkpt><trkpt lat="44.60687599465122" lon="9.304285840926847"><ele>531.5</ele><time>2026-05-02T15:39:09Z</time></trkpt><trkpt lat="44.60700684072719" lon="9.304292741850306"><ele>533.0</ele><time>2026-05-02T15:39:10Z</time></trkpt><trkpt lat="44.60714554499842" lon="9.304304732107969"><ele>533.0</ele><time>2026-05-02T15:39:11Z</time></trkpt><trkpt lat="44.60730773088138" lon="9.304275721019026"><ele>533.0</ele><time>2026-05-02T15:39:12Z</time></trkpt><trkpt lat="44.60748749253074" lon="9.304202299378307"><ele>533.0</ele><time>2026-05-02T15:39:13Z</time></trkpt><trkpt lat="44.60765810609503" lon="9.304077085236006"><ele>533.0</ele><time>2026-05-02T15:39:14Z</time></trkpt><trkpt lat="44.607822200251825" lon="9.30391600352788"><ele>533.0</ele><time>2026-05-02T15:39:15Z</time></trkpt><trkpt lat="44.60797234281855" lon="9.303756798921643"><ele>533.0</ele><time>2026-05-02T15:39:16Z</time></trkpt><trkpt lat="44.60809936479226" lon="9.303603314014428"><ele>533.3333333333333</ele><time>2026-05-02T15:39:17Z</time></trkpt><trkpt lat="44.608211623408586" lon="9.303435627642092"><ele>533.6666666666666</ele><time>2026-05-02T15:39:18Z</time></trkpt><trkpt lat="44.6083069249463" lon="9.303230231145717"><ele>534.0</ele><time>2026-05-02T15:39:19Z</time></trkpt><trkpt lat="44.60838329939981" lon="9.303006339143096"><ele>533.5</ele><time>2026-05-02T15:39:20Z</time></trkpt><trkpt lat="44.608452276128524" lon="9.302819559631855"><ele>533.0</ele><time>2026-05-02T15:39:21Z</time></trkpt><trkpt lat="44.608505618989966" lon="9.30265970828788"><ele>532.5</ele><time>2026-05-02T15:39:22Z</time></trkpt><trkpt lat="44.60852605397367" lon="9.302500454715817"><ele>532.0</ele><time>2026-05-02T15:39:23Z</time></trkpt><trkpt lat="44.6085010424838" lon="9.302303653204278"><ele>531.3333333333334</ele><time>2026-05-02T15:39:24Z</time></trkpt><trkpt lat="44.60846283415822" lon="9.302067635592737"><ele>530.6666666666666</ele><time>2026-05-02T15:39:25Z</time></trkpt><trkpt lat="44.608430103099835" lon="9.301813631503034"><ele>530.0</ele><time>2026-05-02T15:39:26Z</time></trkpt><trkpt lat="44.60840691326747" lon="9.301567238413872"><ele>531.0</ele><time>2026-05-02T15:39:27Z</time></trkpt><trkpt lat="44.6083707842894" lon="9.30130826735383"><ele>532.0</ele><time>2026-05-02T15:39:28Z</time></trkpt><trkpt lat="44.60834017245871" lon="9.30102953401316"><ele>533.0</ele><time>2026-05-02T15:39:29Z</time></trkpt><trkpt lat="44.60833378790942" lon="9.300746121556658"><ele>535.6666666666666</ele><time>2026-05-02T15:39:30Z</time></trkpt><trkpt lat="44.60833682492157" lon="9.300473590689535"><ele>538.3333333333334</ele><time>2026-05-02T15:39:31Z</time></trkpt><trkpt lat="44.608334280547815" lon="9.300208226692462"><ele>541.0</ele><time>2026-05-02T15:39:32Z</time></trkpt><trkpt lat="44.60831033441018" lon="9.299938022591723"><ele>543.0</ele><time>2026-05-02T15:39:33Z</time></trkpt><trkpt lat="44.608271212308516" lon="9.299653639311366"><ele>545.0</ele><time>2026-05-02T15:39:34Z</time></trkpt><trkpt lat="44.60823061882576" lon="9.299349940262601"><ele>547.0</ele><time>2026-05-02T15:39:35Z</time></trkpt><trkpt lat="44.608192437359264" lon="9.299058978971855"><ele>549.0</ele><time>2026-05-02T15:39:36Z</time></trkpt><trkpt lat="44.6081575117408" lon="9.298800997922926"><ele>551.0</ele><time>2026-05-02T15:39:37Z</time></trkpt><trkpt lat="44.60812574159227" lon="9.298571297870058"><ele>553.0</ele><time>2026-05-02T15:39:38Z</time></trkpt><trkpt lat="44.6080958014842" lon="9.298386605774857"><ele>553.0</ele><time>2026-05-02T15:39:39Z</time></trkpt><trkpt lat="44.6080559723144" lon="9.2982378852333"><ele>553.0</ele><time>2026-05-02T15:39:40Z</time></trkpt><trkpt lat="44.60797684610815" lon="9.298115633924967"><ele>553.0</ele><time>2026-05-02T15:39:41Z</time></trkpt><trkpt lat="44.60786534127485" lon="9.298022093685042"><ele>553.0</ele><time>2026-05-02T15:39:42Z</time></trkpt><trkpt lat="44.607717210892744" lon="9.297957359987787"><ele>548.25</ele><time>2026-05-02T15:39:43Z</time></trkpt><trkpt lat="44.60756478978278" lon="9.297886578527901"><ele>543.5</ele><time>2026-05-02T15:39:44Z</time></trkpt><trkpt lat="44.60744495171202" lon="9.29778934309599"><ele>538.75</ele><time>2026-05-02T15:39:45Z</time></trkpt><trkpt lat="44.60735651955411" lon="9.297621782913124"><ele>534.0</ele><time>2026-05-02T15:39:46Z</time></trkpt><trkpt lat="44.60723409757423" lon="9.297425642847145"><ele>531.3333333333334</ele><time>2026-05-02T15:39:47Z</time></trkpt><trkpt lat="44.60711936801325" lon="9.29720179121239"><ele>528.6666666666667</ele><time>2026-05-02T15:39:48Z</time></trkpt><trkpt lat="44.607018972704026" lon="9.2970161360943"><ele>526.0</ele><time>2026-05-02T15:39:49Z</time></trkpt><trkpt lat="44.60693157916085" lon="9.296837541342695"><ele>526.0</ele><time>2026-05-02T15:39:50Z</time></trkpt><trkpt lat="44.60687207388766" lon="9.296631662402195"><ele>526.0</ele><time>2026-05-02T15:39:51Z</time></trkpt><trkpt lat="44.606845569154316" lon="9.296388830955308"><ele>526.0</ele><time>2026-05-02T15:39:52Z</time></trkpt><trkpt lat="44.60682768873264" lon="9.296171888977664"><ele>527.0</ele><time>2026-05-02T15:39:53Z</time></trkpt><trkpt lat="44.606764071750526" lon="9.29598442096935"><ele>528.0</ele><time>2026-05-02T15:39:54Z</time></trkpt><trkpt lat="44.60666351846384" lon="9.295788208573228"><ele>529.0</ele><time>2026-05-02T15:39:55Z</time></trkpt><trkpt lat="44.60654840311508" lon="9.295582447844884"><ele>529.0</ele><time>2026-05-02T15:39:56Z</time></trkpt><trkpt lat="44.60643873583808" lon="9.295355368662944"><ele>529.0</ele><time>2026-05-02T15:39:57Z</time></trkpt><trkpt lat="44.60632690354658" lon="9.295119555976594"><ele>529.0</ele><time>2026-05-02T15:39:58Z</time></trkpt><trkpt lat="44.60621025645" lon="9.294881727245217"><ele>527.3333333333334</ele><time>2026-05-02T15:39:59Z</time></trkpt><trkpt lat="44.60609409342439" lon="9.29464926740957"><ele>525.6666666666666</ele><time>2026-05-02T15:40:00Z</time></trkpt><trkpt lat="44.60598073967161" lon="9.294421579454552"><ele>524.0</ele><time>2026-05-02T15:40:01Z</time></trkpt><trkpt lat="44.605870286214525" lon="9.294194785900173"><ele>524.0</ele><time>2026-05-02T15:40:02Z</time></trkpt><trkpt lat="44.6057630839865" lon="9.293974558503626"><ele>524.0</ele><time>2026-05-02T15:40:03Z</time></trkpt><trkpt lat="44.60565990692392" lon="9.293761520523168"><ele>524.0</ele><time>2026-05-02T15:40:04Z</time></trkpt><trkpt lat="44.60556002081685" lon="9.293554828035743"><ele>524.0</ele><time>2026-05-02T15:40:05Z</time></trkpt><trkpt lat="44.60546588813553" lon="9.293356552922594"><ele>524.0</ele><time>2026-05-02T15:40:06Z</time></trkpt><trkpt lat="44.605377406909795" lon="9.29317805996146"><ele>524.0</ele><time>2026-05-02T15:40:07Z</time></trkpt><trkpt lat="44.60529433938398" lon="9.293012656507988"><ele>524.1666666666666</ele><time>2026-05-02T15:40:08Z</time></trkpt><trkpt lat="44.60522974238595" lon="9.292882702856248"><ele>524.3333333333333</ele><time>2026-05-02T15:40:09Z</time></trkpt><trkpt lat="44.60518754739085" lon="9.292790157573823"><ele>524.5</ele><time>2026-05-02T15:40:10Z</time></trkpt><trkpt lat="44.60515505208736" lon="9.292709247566783"><ele>524.6666666666666</ele><time>2026-05-02T15:40:11Z</time></trkpt><trkpt lat="44.60511791009992" lon="9.29262204714551"><ele>524.8333333333334</ele><time>2026-05-02T15:40:12Z</time></trkpt><trkpt lat="44.60508255775702" lon="9.292540387347879"><ele>525.0</ele><time>2026-05-02T15:40:13Z</time></trkpt><trkpt lat="44.605022514157795" lon="9.292415310020083"><ele>525.0</ele><time>2026-05-02T15:40:15Z</time></trkpt><trkpt lat="44.6049586873918" lon="9.292288703448964"><ele>525.0</ele><time>2026-05-02T15:40:17Z</time></trkpt><trkpt lat="44.604915681678534" lon="9.29219934364512"><ele>525.0</ele><time>2026-05-02T15:40:18Z</time></trkpt><trkpt lat="44.60485560161327" lon="9.292092542150169"><ele>525.0</ele><time>2026-05-02T15:40:19Z</time></trkpt><trkpt lat="44.60476883788013" lon="9.29196326624077"><ele>525.0</ele><time>2026-05-02T15:40:20Z</time></trkpt><trkpt lat="44.60467202193442" lon="9.291853153204428"><ele>525.0</ele><time>2026-05-02T15:40:21Z</time></trkpt><trkpt lat="44.60455625217563" lon="9.291770925524265"><ele>525.0</ele><time>2026-05-02T15:40:22Z</time></trkpt><trkpt lat="44.60442574397108" lon="9.291706569850973"><ele>525.0</ele><time>2026-05-02T15:40:23Z</time></trkpt><trkpt lat="44.60430211455655" lon="9.291648389577183"><ele>525.0</ele><time>2026-05-02T15:40:24Z</time></trkpt><trkpt lat="44.60419134361427" lon="9.29159355054149"><ele>525.0</ele><time>2026-05-02T15:40:25Z</time></trkpt><trkpt lat="44.604084745461115" lon="9.291539310697692"><ele>525.0</ele><time>2026-05-02T15:40:26Z</time></trkpt><trkpt lat="44.60397143884794" lon="9.291486694803153"><ele>525.0</ele><time>2026-05-02T15:40:27Z</time></trkpt><trkpt lat="44.60385118836458" lon="9.291430513402377"><ele>525.0</ele><time>2026-05-02T15:40:28Z</time></trkpt><trkpt lat="44.603723875078224" lon="9.291365000648941"><ele>524.25</ele><time>2026-05-02T15:40:29Z</time></trkpt><trkpt lat="44.60358806545964" lon="9.29129363590775"><ele>523.5</ele><time>2026-05-02T15:40:30Z</time></trkpt><trkpt lat="44.6034475906554" lon="9.29121940643206"><ele>522.75</ele><time>2026-05-02T15:40:31Z</time></trkpt><trkpt lat="44.60331260659198" lon="9.29115372593321"><ele>522.0</ele><time>2026-05-02T15:40:32Z</time></trkpt><trkpt lat="44.60317406590841" lon="9.29109228328775"><ele>522.0</ele><time>2026-05-02T15:40:33Z</time></trkpt><trkpt lat="44.603021288455245" lon="9.291018725438306"><ele>522.0</ele><time>2026-05-02T15:40:34Z</time></trkpt><trkpt lat="44.60285696923058" lon="9.290934537699657"><ele>522.0</ele><time>2026-05-02T15:40:35Z</time></trkpt><trkpt lat="44.602668867440535" lon="9.290838944409213"><ele>521.3333333333334</ele><time>2026-05-02T15:40:36Z</time></trkpt><trkpt lat="44.60247195360696" lon="9.2907387137772"><ele>520.6666666666667</ele><time>2026-05-02T15:40:37Z</time></trkpt><trkpt lat="44.602272755521874" lon="9.290641282467694"><ele>520.0</ele><time>2026-05-02T15:40:38Z</time></trkpt><trkpt lat="44.60207605068941" lon="9.290537939322983"><ele>523.6666666666667</ele><time>2026-05-02T15:40:39Z</time></trkpt><trkpt lat="44.60189730227213" lon="9.290442215979862"><ele>527.3333333333334</ele><time>2026-05-02T15:40:40Z</time></trkpt><trkpt lat="44.60172521030564" lon="9.290359943800041"><ele>531.0</ele><time>2026-05-02T15:40:41Z</time></trkpt><trkpt lat="44.601555714252" lon="9.29029416262986"><ele>531.0</ele><time>2026-05-02T15:40:41.999Z</time></trkpt><trkpt lat="44.601390169137375" lon="9.290264522269252"><ele>531.0</ele><time>2026-05-02T15:40:42.999Z</time></trkpt><trkpt lat="44.60122378641437" lon="9.290289619889228"><ele>531.0</ele><time>2026-05-02T15:40:44Z</time></trkpt><trkpt lat="44.60105254330131" lon="9.290340260398205"><ele>531.0</ele><time>2026-05-02T15:40:45Z</time></trkpt><trkpt lat="44.60088297460524" lon="9.290410595777399"><ele>531.0</ele><time>2026-05-02T15:40:46Z</time></trkpt><trkpt lat="44.600712511919234" lon="9.290488642854692"><ele>531.0</ele><time>2026-05-02T15:40:47Z</time></trkpt><trkpt lat="44.60055737528447" lon="9.290566397350924"><ele>531.3333333333334</ele><time>2026-05-02T15:40:48Z</time></trkpt><trkpt lat="44.60043027575945" lon="9.290659418078008"><ele>531.6666666666667</ele><time>2026-05-02T15:40:49Z</time></trkpt><trkpt lat="44.600317191808074" lon="9.290802280001863"><ele>532.0</ele><time>2026-05-02T15:40:50Z</time></trkpt><trkpt lat="44.6002070029333" lon="9.29099082927932"><ele>532.0</ele><time>2026-05-02T15:40:51Z</time></trkpt><trkpt lat="44.60010087681469" lon="9.29122385099191"><ele>532.0</ele><time>2026-05-02T15:40:52Z</time></trkpt><trkpt lat="44.599996168882626" lon="9.291456285063713"><ele>532.0</ele><time>2026-05-02T15:40:53Z</time></trkpt><trkpt lat="44.59990046086373" lon="9.291671090345247"><ele>536.0</ele><time>2026-05-02T15:40:54Z</time></trkpt><trkpt lat="44.59981514011096" lon="9.291868280147368"><ele>540.0</ele><time>2026-05-02T15:40:55Z</time></trkpt><trkpt lat="44.599740185297954" lon="9.292059156795629"><ele>544.0</ele><time>2026-05-02T15:40:56Z</time></trkpt><trkpt lat="44.599674993974574" lon="9.292240520399247"><ele>541.75</ele><time>2026-05-02T15:40:57Z</time></trkpt><trkpt lat="44.59961372128883" lon="9.292414881413434"><ele>539.5</ele><time>2026-05-02T15:40:58Z</time></trkpt><trkpt lat="44.59955026158078" lon="9.292585040482358"><ele>537.25</ele><time>2026-05-02T15:40:59Z</time></trkpt><trkpt lat="44.599477344427" lon="9.292746575909742"><ele>535.0</ele><time>2026-05-02T15:41:00Z</time></trkpt><trkpt lat="44.59935238898257" lon="9.292840741427346"><ele>535.0</ele><time>2026-05-02T15:41:01Z</time></trkpt><trkpt lat="44.599207916112746" lon="9.29293760456153"><ele>535.0</ele><time>2026-05-02T15:41:02Z</time></trkpt><trkpt lat="44.59903449307673" lon="9.293056410662201"><ele>535.0</ele><time>2026-05-02T15:41:03Z</time></trkpt><trkpt lat="44.59884756686065" lon="9.293147593703678"><ele>538.6666666666667</ele><time>2026-05-02T15:41:04Z</time></trkpt><trkpt lat="44.598686363470335" lon="9.293255868816134"><ele>542.3333333333334</ele><time>2026-05-02T15:41:05Z</time></trkpt><trkpt lat="44.5985379657891" lon="9.293316789603384"><ele>546.0</ele><time>2026-05-02T15:41:06Z</time></trkpt><trkpt lat="44.59841569005427" lon="9.293409995099328"><ele>546.0</ele><time>2026-05-02T15:41:07Z</time></trkpt><trkpt lat="44.59829435555486" lon="9.293478160133377"><ele>546.0</ele><time>2026-05-02T15:41:08Z</time></trkpt><trkpt lat="44.59817776058417" lon="9.29354176629572"><ele>546.0</ele><time>2026-05-02T15:41:09Z</time></trkpt><trkpt lat="44.59805839618886" lon="9.293597138631776"><ele>546.0</ele><time>2026-05-02T15:41:10Z</time></trkpt><trkpt lat="44.59793449668707" lon="9.293632878065175"><ele>545.5</ele><time>2026-05-02T15:41:11Z</time></trkpt><trkpt lat="44.59780856662666" lon="9.293646697416714"><ele>545.0</ele><time>2026-05-02T15:41:12Z</time></trkpt><trkpt lat="44.59767455657445" lon="9.293638440757274"><ele>544.5</ele><time>2026-05-02T15:41:13Z</time></trkpt><trkpt lat="44.59753461826488" lon="9.293591175396319"><ele>544.0</ele><time>2026-05-02T15:41:14Z</time></trkpt><trkpt lat="44.59739242168148" lon="9.293495347246123"><ele>544.0</ele><time>2026-05-02T15:41:15Z</time></trkpt><trkpt lat="44.59723512486593" lon="9.293389245251538"><ele>544.0</ele><time>2026-05-02T15:41:16Z</time></trkpt><trkpt lat="44.59707212046727" lon="9.29329797227623"><ele>544.0</ele><time>2026-05-02T15:41:17Z</time></trkpt><trkpt lat="44.59687742256935" lon="9.293180296065644"><ele>547.5</ele><time>2026-05-02T15:41:18Z</time></trkpt><trkpt lat="44.59662938187372" lon="9.293090020269123"><ele>551.0</ele><time>2026-05-02T15:41:19Z</time></trkpt><trkpt lat="44.596338904344684" lon="9.293019285921998"><ele>543.5</ele><time>2026-05-02T15:41:20Z</time></trkpt><trkpt lat="44.596049888455795" lon="9.292926283970491"><ele>536.0</ele><time>2026-05-02T15:41:21Z</time></trkpt><trkpt lat="44.59579570494005" lon="9.29284508509735"><ele>536.0</ele><time>2026-05-02T15:41:22Z</time></trkpt><trkpt lat="44.595573335694894" lon="9.292777667762353"><ele>536.0</ele><time>2026-05-02T15:41:23Z</time></trkpt><trkpt lat="44.595396289865064" lon="9.292724896276923"><ele>536.0</ele><time>2026-05-02T15:41:24Z</time></trkpt><trkpt lat="44.595245220283395" lon="9.292669755979718"><ele>540.75</ele><time>2026-05-02T15:41:25Z</time></trkpt><trkpt lat="44.59511026366212" lon="9.29259256984464"><ele>545.5</ele><time>2026-05-02T15:41:26Z</time></trkpt><trkpt lat="44.595015975246305" lon="9.292454504847756"><ele>550.25</ele><time>2026-05-02T15:41:27Z</time></trkpt><trkpt lat="44.594910564188936" lon="9.292351094069584"><ele>555.0</ele><time>2026-05-02T15:41:28Z</time></trkpt><trkpt lat="44.594793614751794" lon="9.292297388831606"><ele>555.0</ele><time>2026-05-02T15:41:29Z</time></trkpt><trkpt lat="44.59465200040506" lon="9.292273842027864"><ele>555.0</ele><time>2026-05-02T15:41:30Z</time></trkpt><trkpt lat="44.59449504366101" lon="9.292227451694693"><ele>555.0</ele><time>2026-05-02T15:41:31Z</time></trkpt><trkpt lat="44.59435714808724" lon="9.292122494162303"><ele>554.6666666666666</ele><time>2026-05-02T15:41:32Z</time></trkpt><trkpt lat="44.594236038408006" lon="9.291980773190602"><ele>554.3333333333333</ele><time>2026-05-02T15:41:33Z</time></trkpt><trkpt lat="44.59414475476459" lon="9.291820413590639"><ele>554.0</ele><time>2026-05-02T15:41:34Z</time></trkpt><trkpt lat="44.59407433665509" lon="9.291611676290852"><ele>549.0</ele><time>2026-05-02T15:41:35Z</time></trkpt><trkpt lat="44.594012695468784" lon="9.291348691259596"><ele>544.0</ele><time>2026-05-02T15:41:36Z</time></trkpt><trkpt lat="44.59394477051796" lon="9.291082615039153"><ele>539.0</ele><time>2026-05-02T15:41:37Z</time></trkpt><trkpt lat="44.59385504874847" lon="9.290810619689513"><ele>538.0</ele><time>2026-05-02T15:41:38Z</time></trkpt><trkpt lat="44.59372433670005" lon="9.29052593687842"><ele>537.0</ele><time>2026-05-02T15:41:39Z</time></trkpt><trkpt lat="44.593572689985585" lon="9.290248097424634"><ele>540.3333333333334</ele><time>2026-05-02T15:41:40Z</time></trkpt><trkpt lat="44.59342464526035" lon="9.289989580750603"><ele>543.6666666666667</ele><time>2026-05-02T15:41:41Z</time></trkpt><trkpt lat="44.59329527319282" lon="9.28976635352951"><ele>547.0</ele><time>2026-05-02T15:41:42Z</time></trkpt><trkpt lat="44.593188099292085" lon="9.289547233503422"><ele>547.0</ele><time>2026-05-02T15:41:43Z</time></trkpt><trkpt lat="44.59309843842828" lon="9.289344834240179"><ele>547.0</ele><time>2026-05-02T15:41:44Z</time></trkpt><trkpt lat="44.59301972851465" lon="9.289163818031213"><ele>547.0</ele><time>2026-05-02T15:41:45Z</time></trkpt><trkpt lat="44.592939182988815" lon="9.289001420235476"><ele>546.0</ele><time>2026-05-02T15:41:46Z</time></trkpt><trkpt lat="44.59284963540261" lon="9.288849574780423"><ele>545.0</ele><time>2026-05-02T15:41:47Z</time></trkpt><trkpt lat="44.59274437002888" lon="9.288725924726156"><ele>544.0</ele><time>2026-05-02T15:41:48Z</time></trkpt><trkpt lat="44.59261347483327" lon="9.288651590439178"><ele>543.0</ele><time>2026-05-02T15:41:49Z</time></trkpt><trkpt lat="44.59247011783567" lon="9.28862821101467"><ele>543.0</ele><time>2026-05-02T15:41:50Z</time></trkpt><trkpt lat="44.59231113930473" lon="9.288652674720598"><ele>543.0</ele><time>2026-05-02T15:41:51Z</time></trkpt><trkpt lat="44.592140815989026" lon="9.288718460379306"><ele>543.0</ele><time>2026-05-02T15:41:52Z</time></trkpt><trkpt lat="44.591983318176915" lon="9.288776553737"><ele>544.75</ele><time>2026-05-02T15:41:53Z</time></trkpt><trkpt lat="44.59184740238706" lon="9.288788055637715"><ele>546.5</ele><time>2026-05-02T15:41:54Z</time></trkpt><trkpt lat="44.59171380081255" lon="9.288734466052482"><ele>548.25</ele><time>2026-05-02T15:41:55Z</time></trkpt><trkpt lat="44.59156647782886" lon="9.288653103563465"><ele>550.0</ele><time>2026-05-02T15:41:56Z</time></trkpt><trkpt lat="44.591374377132944" lon="9.288539622884375"><ele>550.0</ele><time>2026-05-02T15:41:57Z</time></trkpt><trkpt lat="44.59121207617675" lon="9.28846459330392"><ele>550.0</ele><time>2026-05-02T15:41:58Z</time></trkpt><trkpt lat="44.591049304087115" lon="9.28833744263638"><ele>550.0</ele><time>2026-05-02T15:41:59Z</time></trkpt><trkpt lat="44.59094361878797" lon="9.288173652997559"><ele>551.0</ele><time>2026-05-02T15:42:00Z</time></trkpt><trkpt lat="44.59086872524149" lon="9.287950879762512"><ele>552.0</ele><time>2026-05-02T15:42:01Z</time></trkpt><trkpt lat="44.590804610246835" lon="9.287686549684794"><ele>553.0</ele><time>2026-05-02T15:42:02Z</time></trkpt><trkpt lat="44.59072731478911" lon="9.287435176883877"><ele>551.0</ele><time>2026-05-02T15:42:03Z</time></trkpt><trkpt lat="44.59065686365862" lon="9.287174769750253"><ele>549.0</ele><time>2026-05-02T15:42:04Z</time></trkpt><trkpt lat="44.59056983397273" lon="9.28690332605207"><ele>547.0</ele><time>2026-05-02T15:42:05Z</time></trkpt><trkpt lat="44.59048881506748" lon="9.286646799419447"><ele>545.6666666666667</ele><time>2026-05-02T15:42:06Z</time></trkpt><trkpt lat="44.59041309495823" lon="9.286409966173292"><ele>544.3333333333334</ele><time>2026-05-02T15:42:07Z</time></trkpt><trkpt lat="44.59033689614155" lon="9.286201750119787"><ele>543.0</ele><time>2026-05-02T15:42:08Z</time></trkpt><trkpt lat="44.5902537376862" lon="9.286019589769033"><ele>548.3333333333334</ele><time>2026-05-02T15:42:09Z</time></trkpt><trkpt lat="44.59014804738058" lon="9.285857193160602"><ele>553.6666666666667</ele><time>2026-05-02T15:42:10Z</time></trkpt><trkpt lat="44.590017502359025" lon="9.285715934530657"><ele>559.0</ele><time>2026-05-02T15:42:11Z</time></trkpt><trkpt lat="44.589884933837965" lon="9.285595462821233"><ele>555.0</ele><time>2026-05-02T15:42:12Z</time></trkpt><trkpt lat="44.58977498564353" lon="9.285435446939474"><ele>551.0</ele><time>2026-05-02T15:42:13Z</time></trkpt><trkpt lat="44.58968029198116" lon="9.28524026834947"><ele>547.0</ele><time>2026-05-02T15:42:14Z</time></trkpt><trkpt lat="44.589593288522615" lon="9.28500305886321"><ele>554.0</ele><time>2026-05-02T15:42:15Z</time></trkpt><trkpt lat="44.589498475431554" lon="9.284735993708189"><ele>561.0</ele><time>2026-05-02T15:42:16Z</time></trkpt><trkpt lat="44.589402308002285" lon="9.284493774369087"><ele>568.0</ele><time>2026-05-02T15:42:17Z</time></trkpt><trkpt lat="44.58931740578381" lon="9.284277025140048"><ele>568.0</ele><time>2026-05-02T15:42:18Z</time></trkpt><trkpt lat="44.58926440244429" lon="9.284066490824701"><ele>568.0</ele><time>2026-05-02T15:42:19Z</time></trkpt><trkpt lat="44.58926187162974" lon="9.283834199485176"><ele>568.0</ele><time>2026-05-02T15:42:20Z</time></trkpt><trkpt lat="44.58928053790387" lon="9.283569930244683"><ele>568.0</ele><time>2026-05-02T15:42:21Z</time></trkpt><trkpt lat="44.58928145192604" lon="9.283283536964722"><ele>568.0</ele><time>2026-05-02T15:42:22Z</time></trkpt><trkpt lat="44.589242285910295" lon="9.283017106690755"><ele>568.0</ele><time>2026-05-02T15:42:23Z</time></trkpt><trkpt lat="44.58918613413197" lon="9.282775691729247"><ele>566.0</ele><time>2026-05-02T15:42:24Z</time></trkpt><trkpt lat="44.58912950394483" lon="9.282582339615704"><ele>564.0</ele><time>2026-05-02T15:42:25Z</time></trkpt><trkpt lat="44.58907622556972" lon="9.282416649530619"><ele>562.0</ele><time>2026-05-02T15:42:26Z</time></trkpt><trkpt lat="44.58902713539405" lon="9.282278190162819"><ele>560.0</ele><time>2026-05-02T15:42:27Z</time></trkpt><trkpt lat="44.588986769260316" lon="9.282169034752384"><ele>560.0</ele><time>2026-05-02T15:42:28Z</time></trkpt><trkpt lat="44.58895033588177" lon="9.282087499377727"><ele>560.0</ele><time>2026-05-02T15:42:29Z</time></trkpt><trkpt lat="44.588896177067404" lon="9.28199635229649"><ele>560.0</ele><time>2026-05-02T15:42:31Z</time></trkpt><trkpt lat="44.58885249977089" lon="9.281925922275736"><ele>560.0</ele><time>2026-05-02T15:42:34Z</time></trkpt><trkpt lat="44.58879419472957" lon="9.281866845728715"><ele>560.0</ele><time>2026-05-02T15:42:37Z</time></trkpt><trkpt lat="44.588738566476785" lon="9.281814269938646"><ele>560.0</ele><time>2026-05-02T15:45:32Z</time></trkpt><trkpt lat="44.58864130272351" lon="9.281736511958707"><ele>560.0</ele><time>2026-05-02T15:45:34Z</time></trkpt><trkpt lat="44.588564505721614" lon="9.281711863938442"><ele>560.0</ele><time>2026-05-02T15:45:35Z</time></trkpt><trkpt lat="44.58846149278109" lon="9.281719969928487"><ele>560.0</ele><time>2026-05-02T15:45:36Z</time></trkpt><trkpt lat="44.588350786701234" lon="9.281769367116803"><ele>560.0</ele><time>2026-05-02T15:45:37Z</time></trkpt><trkpt lat="44.588245785610255" lon="9.281837142970268"><ele>560.0</ele><time>2026-05-02T15:45:38Z</time></trkpt><trkpt lat="44.58812453473851" lon="9.28191740517457"><ele>560.0</ele><time>2026-05-02T15:45:39Z</time></trkpt><trkpt lat="44.588018581618485" lon="9.281983115058207"><ele>560.0</ele><time>2026-05-02T15:45:40Z</time></trkpt><trkpt lat="44.58792739870402" lon="9.282035533531293"><ele>560.0</ele><time>2026-05-02T15:45:41Z</time></trkpt><trkpt lat="44.58783737606548" lon="9.282060671827328"><ele>560.0</ele><time>2026-05-02T15:45:42Z</time></trkpt><trkpt lat="44.587741008673554" lon="9.282054347176086"><ele>560.0</ele><time>2026-05-02T15:45:43Z</time></trkpt><trkpt lat="44.58764176930308" lon="9.282016780309684"><ele>560.0</ele><time>2026-05-02T15:45:44Z</time></trkpt><trkpt lat="44.58754260647978" lon="9.28194805618889"><ele>560.0</ele><time>2026-05-02T15:45:45Z</time></trkpt><trkpt lat="44.58743420564949" lon="9.281860772552097"><ele>560.0</ele><time>2026-05-02T15:45:46Z</time></trkpt><trkpt lat="44.587320040968805" lon="9.281759229030424"><ele>560.0</ele><time>2026-05-02T15:45:47Z</time></trkpt><trkpt lat="44.5872041437348" lon="9.281647033977976"><ele>560.0</ele><time>2026-05-02T15:45:48Z</time></trkpt><trkpt lat="44.58709799180393" lon="9.281516287546818"><ele>560.0</ele><time>2026-05-02T15:45:49Z</time></trkpt><trkpt lat="44.586985398710375" lon="9.28136620757035"><ele>560.0</ele><time>2026-05-02T15:45:50Z</time></trkpt><trkpt lat="44.58687445336764" lon="9.281203511656342"><ele>560.6666666666666</ele><time>2026-05-02T15:45:51Z</time></trkpt><trkpt lat="44.58678802031869" lon="9.281030055425134"><ele>561.3333333333334</ele><time>2026-05-02T15:45:52Z</time></trkpt><trkpt lat="44.58671089955005" lon="9.280839680987327"><ele>562.0</ele><time>2026-05-02T15:45:53Z</time></trkpt><trkpt lat="44.58662931390091" lon="9.280627737878557"><ele>558.3333333333334</ele><time>2026-05-02T15:45:54Z</time></trkpt><trkpt lat="44.58654768202282" lon="9.280410880832385"><ele>554.6666666666666</ele><time>2026-05-02T15:45:55Z</time></trkpt><trkpt lat="44.58646510847102" lon="9.28019233542189"><ele>551.0</ele><time>2026-05-02T15:45:56Z</time></trkpt><trkpt lat="44.586382982001915" lon="9.279981072722055"><ele>551.0</ele><time>2026-05-02T15:45:57Z</time></trkpt><trkpt lat="44.586296854323166" lon="9.279779908528605"><ele>551.0</ele><time>2026-05-02T15:45:58Z</time></trkpt><trkpt lat="44.58623256117477" lon="9.279558112563786"><ele>551.0</ele><time>2026-05-02T15:45:59Z</time></trkpt><trkpt lat="44.58616227152746" lon="9.279331118329003"><ele>555.3333333333333</ele><time>2026-05-02T15:46:00Z</time></trkpt><trkpt lat="44.58610666808668" lon="9.279089399535122"><ele>559.6666666666666</ele><time>2026-05-02T15:46:01Z</time></trkpt><trkpt lat="44.58604527303538" lon="9.278835219475551"><ele>564.0</ele><time>2026-05-02T15:46:02Z</time></trkpt><trkpt lat="44.585955190746276" lon="9.27858676696358"><ele>564.0</ele><time>2026-05-02T15:46:03Z</time></trkpt><trkpt lat="44.58584096958723" lon="9.278338007222104"><ele>564.0</ele><time>2026-05-02T15:46:04Z</time></trkpt><trkpt lat="44.58571445223947" lon="9.278094321781543"><ele>564.0</ele><time>2026-05-02T15:46:05Z</time></trkpt><trkpt lat="44.58560069832357" lon="9.277881616498004"><ele>562.0</ele><time>2026-05-02T15:46:06Z</time></trkpt><trkpt lat="44.58550377867589" lon="9.277685938672269"><ele>560.0</ele><time>2026-05-02T15:46:07Z</time></trkpt><trkpt lat="44.58542059955054" lon="9.277505373751431"><ele>558.0</ele><time>2026-05-02T15:46:08Z</time></trkpt><trkpt lat="44.585353969828944" lon="9.277320767264701"><ele>563.0</ele><time>2026-05-02T15:46:09Z</time></trkpt><trkpt lat="44.585312301810276" lon="9.277114393252766"><ele>568.0</ele><time>2026-05-02T15:46:10Z</time></trkpt><trkpt lat="44.58529222741237" lon="9.276885243319258"><ele>573.0</ele><time>2026-05-02T15:46:11Z</time></trkpt><trkpt lat="44.5852875575934" lon="9.27665902251629"><ele>574.0</ele><time>2026-05-02T15:46:12Z</time></trkpt><trkpt lat="44.58528315784974" lon="9.276422471423803"><ele>575.0</ele><time>2026-05-02T15:46:13Z</time></trkpt><trkpt lat="44.58527300814324" lon="9.276183394341531"><ele>576.0</ele><time>2026-05-02T15:46:14Z</time></trkpt><trkpt lat="44.58525550779146" lon="9.275956466534456"><ele>576.0</ele><time>2026-05-02T15:46:15Z</time></trkpt><trkpt lat="44.58521995861221" lon="9.275730669337122"><ele>576.0</ele><time>2026-05-02T15:46:16Z</time></trkpt><trkpt lat="44.585156620386385" lon="9.275507482735685"><ele>576.0</ele><time>2026-05-02T15:46:17Z</time></trkpt><trkpt lat="44.585077103369734" lon="9.275279973220128"><ele>573.3333333333334</ele><time>2026-05-02T15:46:18Z</time></trkpt><trkpt lat="44.58498819155573" lon="9.275046281607452"><ele>570.6666666666667</ele><time>2026-05-02T15:46:19Z</time></trkpt><trkpt lat="44.58489857063515" lon="9.274800290722768"><ele>568.0</ele><time>2026-05-02T15:46:20Z</time></trkpt><trkpt lat="44.58481571359482" lon="9.274556741523677"><ele>566.6666666666667</ele><time>2026-05-02T15:46:21Z</time></trkpt><trkpt lat="44.58473730727772" lon="9.274333155288712"><ele>565.3333333333334</ele><time>2026-05-02T15:46:22Z</time></trkpt><trkpt lat="44.58465625473584" lon="9.274103754892165"><ele>564.0</ele><time>2026-05-02T15:46:23Z</time></trkpt><trkpt lat="44.584570640679175" lon="9.273882971544865"><ele>568.0</ele><time>2026-05-02T15:46:24Z</time></trkpt><trkpt lat="44.584465948560755" lon="9.273661369915713"><ele>572.0</ele><time>2026-05-02T15:46:25Z</time></trkpt><trkpt lat="44.58434755789153" lon="9.273430060866714"><ele>576.0</ele><time>2026-05-02T15:46:26Z</time></trkpt><trkpt lat="44.58421785765638" lon="9.273195185084303"><ele>573.6666666666666</ele><time>2026-05-02T15:46:27Z</time></trkpt><trkpt lat="44.584089681307326" lon="9.272957942458776"><ele>571.3333333333333</ele><time>2026-05-02T15:46:28Z</time></trkpt><trkpt lat="44.583960011711135" lon="9.272719302646653"><ele>569.0</ele><time>2026-05-02T15:46:29Z</time></trkpt><trkpt lat="44.583832168099036" lon="9.272487166159276"><ele>569.0</ele><time>2026-05-02T15:46:30Z</time></trkpt><trkpt lat="44.583711877353544" lon="9.272275168972133"><ele>569.0</ele><time>2026-05-02T15:46:31Z</time></trkpt><trkpt lat="44.583592216932736" lon="9.272078153961573"><ele>569.0</ele><time>2026-05-02T15:46:32Z</time></trkpt><trkpt lat="44.583453909688686" lon="9.271899527922375"><ele>570.0</ele><time>2026-05-02T15:46:33Z</time></trkpt><trkpt lat="44.583292775718355" lon="9.271732339922188"><ele>571.0</ele><time>2026-05-02T15:46:34Z</time></trkpt><trkpt lat="44.58310827795343" lon="9.271580048137473"><ele>572.0</ele><time>2026-05-02T15:46:35Z</time></trkpt><trkpt lat="44.58291626279019" lon="9.27144602810945"><ele>570.6666666666666</ele><time>2026-05-02T15:46:36Z</time></trkpt><trkpt lat="44.582729383527244" lon="9.27131565213836"><ele>569.3333333333334</ele><time>2026-05-02T15:46:37Z</time></trkpt><trkpt lat="44.582545470583256" lon="9.271185904250489"><ele>568.0</ele><time>2026-05-02T15:46:38Z</time></trkpt><trkpt lat="44.582364005700285" lon="9.271055138612702"><ele>568.0</ele><time>2026-05-02T15:46:39Z</time></trkpt><trkpt lat="44.582189209925744" lon="9.270926885981106"><ele>568.0</ele><time>2026-05-02T15:46:40Z</time></trkpt><trkpt lat="44.582017256644875" lon="9.270805047127661"><ele>568.0</ele><time>2026-05-02T15:46:41Z</time></trkpt><trkpt lat="44.58184166511679" lon="9.27067929453271"><ele>567.6666666666667</ele><time>2026-05-02T15:46:42Z</time></trkpt><trkpt lat="44.58166339923365" lon="9.270558430651194"><ele>567.3333333333334</ele><time>2026-05-02T15:46:43Z</time></trkpt><trkpt lat="44.58148220295138" lon="9.270436325421429"><ele>567.0</ele><time>2026-05-02T15:46:44Z</time></trkpt><trkpt lat="44.581288368389814" lon="9.270318895013318"><ele>569.0</ele><time>2026-05-02T15:46:45Z</time></trkpt><trkpt lat="44.5810787723461" lon="9.270232537860444"><ele>571.0</ele><time>2026-05-02T15:46:46Z</time></trkpt><trkpt lat="44.58085213935127" lon="9.270177922097337"><ele>573.0</ele><time>2026-05-02T15:46:47Z</time></trkpt><trkpt lat="44.58061663367815" lon="9.270140291834077"><ele>573.0</ele><time>2026-05-02T15:46:47.999Z</time></trkpt><trkpt lat="44.58037191231259" lon="9.270109035146264"><ele>573.0</ele><time>2026-05-02T15:46:48.999Z</time></trkpt><trkpt lat="44.58013043113499" lon="9.270074718821672"><ele>574.5</ele><time>2026-05-02T15:46:49.999Z</time></trkpt><trkpt lat="44.57989431529036" lon="9.27004233041091"><ele>576.0</ele><time>2026-05-02T15:46:50.999Z</time></trkpt><trkpt lat="44.579674846884636" lon="9.270013848117852"><ele>576.0</ele><time>2026-05-02T15:46:51.999Z</time></trkpt><trkpt lat="44.57947553477839" lon="9.269987119580366"><ele>576.0</ele><time>2026-05-02T15:46:52.999Z</time></trkpt><trkpt lat="44.57927999784752" lon="9.269962924852726"><ele>576.0</ele><time>2026-05-02T15:46:53.999Z</time></trkpt><trkpt lat="44.5790834589289" lon="9.269951581872817"><ele>576.0</ele><time>2026-05-02T15:46:54.999Z</time></trkpt><trkpt lat="44.57888576387698" lon="9.269969707475438"><ele>576.0</ele><time>2026-05-02T15:46:55.999Z</time></trkpt><trkpt lat="44.5786886583873" lon="9.270021825931737"><ele>576.0</ele><time>2026-05-02T15:46:56.999Z</time></trkpt><trkpt lat="44.57848145183034" lon="9.270087183643577"><ele>575.6666666666666</ele><time>2026-05-02T15:46:57.999Z</time></trkpt><trkpt lat="44.5782785496951" lon="9.27014989885633"><ele>575.3333333333333</ele><time>2026-05-02T15:46:58.999Z</time></trkpt><trkpt lat="44.57809034340089" lon="9.270201583080576"><ele>575.0</ele><time>2026-05-02T15:47:00Z</time></trkpt><trkpt lat="44.57791643882063" lon="9.270240426204511"><ele>575.0</ele><time>2026-05-02T15:47:01Z</time></trkpt><trkpt lat="44.577742003972645" lon="9.270265024171492"><ele>575.0</ele><time>2026-05-02T15:47:02Z</time></trkpt><trkpt lat="44.57756286032844" lon="9.27026588543982"><ele>575.0</ele><time>2026-05-02T15:47:03Z</time></trkpt><trkpt lat="44.57739686329572" lon="9.270245679643082"><ele>575.0</ele><time>2026-05-02T15:47:04Z</time></trkpt><trkpt lat="44.577249026344695" lon="9.270220457717834"><ele>575.0</ele><time>2026-05-02T15:47:05Z</time></trkpt><trkpt lat="44.57710802489596" lon="9.270200799780037"><ele>575.0</ele><time>2026-05-02T15:47:06Z</time></trkpt><trkpt lat="44.57697212729923" lon="9.270189872509176"><ele>575.0</ele><time>2026-05-02T15:47:07Z</time></trkpt><trkpt lat="44.576840259622244" lon="9.270195938223429"><ele>575.5</ele><time>2026-05-02T15:47:08Z</time></trkpt><trkpt lat="44.576708861349736" lon="9.270228441437059"><ele>576.0</ele><time>2026-05-02T15:47:09Z</time></trkpt><trkpt lat="44.57657705024159" lon="9.270272850163535"><ele>576.5</ele><time>2026-05-02T15:47:10Z</time></trkpt><trkpt lat="44.57644030737017" lon="9.270315075225271"><ele>577.0</ele><time>2026-05-02T15:47:11Z</time></trkpt><trkpt lat="44.57630051778603" lon="9.270355991160889"><ele>577.5</ele><time>2026-05-02T15:47:12Z</time></trkpt><trkpt lat="44.576164046212604" lon="9.27039651981408"><ele>578.0</ele><time>2026-05-02T15:47:13Z</time></trkpt><trkpt lat="44.57603229320432" lon="9.270441592983174"><ele>578.5</ele><time>2026-05-02T15:47:14Z</time></trkpt><trkpt lat="44.57591089274573" lon="9.27047521230359"><ele>579.0</ele><time>2026-05-02T15:47:15Z</time></trkpt><trkpt lat="44.57579459323098" lon="9.27049008739506"><ele>579.0</ele><time>2026-05-02T15:47:16Z</time></trkpt><trkpt lat="44.575685752090166" lon="9.270515452689153"><ele>579.0</ele><time>2026-05-02T15:47:17Z</time></trkpt><trkpt lat="44.57558818451371" lon="9.270577598031181"><ele>579.0</ele><time>2026-05-02T15:47:18Z</time></trkpt><trkpt lat="44.57548775788038" lon="9.270670630491335"><ele>579.0</ele><time>2026-05-02T15:47:19Z</time></trkpt><trkpt lat="44.57539313517864" lon="9.270787465987299"><ele>579.5</ele><time>2026-05-02T15:47:20Z</time></trkpt><trkpt lat="44.575303815003366" lon="9.270920526094523"><ele>580.0</ele><time>2026-05-02T15:47:21Z</time></trkpt><trkpt lat="44.57521794948169" lon="9.271059156581156"><ele>580.5</ele><time>2026-05-02T15:47:22Z</time></trkpt><trkpt lat="44.575135566364175" lon="9.271206336531286"><ele>581.0</ele><time>2026-05-02T15:47:23Z</time></trkpt><trkpt lat="44.57505075722239" lon="9.271353857931135"><ele>582.5</ele><time>2026-05-02T15:47:24Z</time></trkpt><trkpt lat="44.57496292374945" lon="9.271506574878979"><ele>584.0</ele><time>2026-05-02T15:47:25Z</time></trkpt><trkpt lat="44.574879760369235" lon="9.271675120097456"><ele>585.5</ele><time>2026-05-02T15:47:26Z</time></trkpt><trkpt lat="44.5748011449487" lon="9.271846180781374"><ele>587.0</ele><time>2026-05-02T15:47:27Z</time></trkpt><trkpt lat="44.57473020603225" lon="9.27202624162565"><ele>587.0</ele><time>2026-05-02T15:47:28Z</time></trkpt><trkpt lat="44.574669775730776" lon="9.272218013398218"><ele>587.0</ele><time>2026-05-02T15:47:29Z</time></trkpt><trkpt lat="44.574619039101385" lon="9.27241221031561"><ele>587.0</ele><time>2026-05-02T15:47:30Z</time></trkpt><trkpt lat="44.57456321138355" lon="9.27260043755912"><ele>587.0</ele><time>2026-05-02T15:47:31Z</time></trkpt><trkpt lat="44.57450223021726" lon="9.272785958614794"><ele>587.0</ele><time>2026-05-02T15:47:32Z</time></trkpt><trkpt lat="44.57443425872892" lon="9.272962713816005"><ele>587.0</ele><time>2026-05-02T15:47:33Z</time></trkpt><trkpt lat="44.5743480921597" lon="9.273121002913337"><ele>587.0</ele><time>2026-05-02T15:47:34Z</time></trkpt><trkpt lat="44.57424082430255" lon="9.273252698723347"><ele>587.0</ele><time>2026-05-02T15:47:35Z</time></trkpt><trkpt lat="44.5741316100977" lon="9.273368514576804"><ele>587.0</ele><time>2026-05-02T15:47:36Z</time></trkpt><trkpt lat="44.57402381548121" lon="9.27348732556029"><ele>587.0</ele><time>2026-05-02T15:47:37Z</time></trkpt><trkpt lat="44.57391259390657" lon="9.27361781541167"><ele>587.0</ele><time>2026-05-02T15:47:38Z</time></trkpt><trkpt lat="44.573799376284065" lon="9.273756041427408"><ele>587.0</ele><time>2026-05-02T15:47:39Z</time></trkpt><trkpt lat="44.57368405557838" lon="9.273895629994339"><ele>586.3333333333333</ele><time>2026-05-02T15:47:40Z</time></trkpt><trkpt lat="44.57356664025811" lon="9.274039400796516"><ele>585.6666666666666</ele><time>2026-05-02T15:47:41Z</time></trkpt><trkpt lat="44.57344699337834" lon="9.274181347533444"><ele>585.0</ele><time>2026-05-02T15:47:42Z</time></trkpt><trkpt lat="44.573322402476045" lon="9.274325649664593"><ele>585.0</ele><time>2026-05-02T15:47:43Z</time></trkpt><trkpt lat="44.57320211742089" lon="9.274468971807298"><ele>585.0</ele><time>2026-05-02T15:47:44Z</time></trkpt><trkpt lat="44.573076925962994" lon="9.274608233289463"><ele>585.0</ele><time>2026-05-02T15:47:45Z</time></trkpt><trkpt lat="44.57294288011946" lon="9.274739724914262"><ele>585.6666666666666</ele><time>2026-05-02T15:47:46Z</time></trkpt><trkpt lat="44.57280566336467" lon="9.27486333731325"><ele>586.3333333333333</ele><time>2026-05-02T15:47:47Z</time></trkpt><trkpt lat="44.57266070031325" lon="9.27497905048413"><ele>587.0</ele><time>2026-05-02T15:47:48Z</time></trkpt><trkpt lat="44.572513739959376" lon="9.275089159615362"><ele>587.0</ele><time>2026-05-02T15:47:49Z</time></trkpt><trkpt lat="44.57237272779289" lon="9.275195828517871"><ele>587.0</ele><time>2026-05-02T15:47:50Z</time></trkpt><trkpt lat="44.57223345798089" lon="9.27529756330604"><ele>587.0</ele><time>2026-05-02T15:47:51Z</time></trkpt><trkpt lat="44.57209536807976" lon="9.275390769710922"><ele>587.6666666666666</ele><time>2026-05-02T15:47:52Z</time></trkpt><trkpt lat="44.57195491257249" lon="9.275473788191896"><ele>588.3333333333334</ele><time>2026-05-02T15:47:53Z</time></trkpt><trkpt lat="44.57181113310447" lon="9.275576195413894"><ele>589.0</ele><time>2026-05-02T15:47:54Z</time></trkpt><trkpt lat="44.57166649945178" lon="9.275721152132254"><ele>589.0</ele><time>2026-05-02T15:47:55Z</time></trkpt><trkpt lat="44.5715489063866" lon="9.275852702559362"><ele>589.0</ele><time>2026-05-02T15:47:56Z</time></trkpt><trkpt lat="44.571445696270814" lon="9.275976782082086"><ele>589.0</ele><time>2026-05-02T15:47:57Z</time></trkpt><trkpt lat="44.57135823982011" lon="9.276072724642212"><ele>589.0</ele><time>2026-05-02T15:47:58Z</time></trkpt><trkpt lat="44.57126077927955" lon="9.276143473769128"><ele>589.0</ele><time>2026-05-02T15:47:59Z</time></trkpt><trkpt lat="44.571146828076074" lon="9.27615040775524"><ele>589.0</ele><time>2026-05-02T15:48:00Z</time></trkpt><trkpt lat="44.57102378747408" lon="9.276111783754196"><ele>589.0</ele><time>2026-05-02T15:48:01Z</time></trkpt><trkpt lat="44.570890552400165" lon="9.27600821275496"><ele>589.0</ele><time>2026-05-02T15:48:02Z</time></trkpt><trkpt lat="44.57076391663435" lon="9.275912687448304"><ele>589.0</ele><time>2026-05-02T15:48:03Z</time></trkpt><trkpt lat="44.5706263004243" lon="9.275829428535003"><ele>589.0</ele><time>2026-05-02T15:48:04Z</time></trkpt><trkpt lat="44.57046752781206" lon="9.27577757168364"><ele>589.0</ele><time>2026-05-02T15:48:05Z</time></trkpt><trkpt lat="44.570280998513205" lon="9.275758289494112"><ele>587.3333333333334</ele><time>2026-05-02T15:48:06Z</time></trkpt><trkpt lat="44.570087090443565" lon="9.275755462358042"><ele>585.6666666666666</ele><time>2026-05-02T15:48:07Z</time></trkpt><trkpt lat="44.569911447412586" lon="9.275790789358497"><ele>584.0</ele><time>2026-05-02T15:48:08Z</time></trkpt><trkpt lat="44.569736263628435" lon="9.275858560620222"><ele>584.0</ele><time>2026-05-02T15:48:09Z</time></trkpt><trkpt lat="44.5695738470648" lon="9.275960035031693"><ele>584.0</ele><time>2026-05-02T15:48:10Z</time></trkpt><trkpt lat="44.56944115370232" lon="9.2760893807901"><ele>584.0</ele><time>2026-05-02T15:48:11Z</time></trkpt><trkpt lat="44.56932263461684" lon="9.276252233322205"><ele>583.3333333333333</ele><time>2026-05-02T15:48:12Z</time></trkpt><trkpt lat="44.569231269668904" lon="9.276436557057734"><ele>582.6666666666666</ele><time>2026-05-02T15:48:13Z</time></trkpt><trkpt lat="44.569167625177606" lon="9.276648502414826"><ele>582.0</ele><time>2026-05-02T15:48:14Z</time></trkpt><trkpt lat="44.56910870787785" lon="9.276879855544006"><ele>582.0</ele><time>2026-05-02T15:48:15Z</time></trkpt><trkpt lat="44.56903384754449" lon="9.277095924393425"><ele>582.0</ele><time>2026-05-02T15:48:16Z</time></trkpt><trkpt lat="44.568926606989706" lon="9.27727309380717"><ele>582.0</ele><time>2026-05-02T15:48:17Z</time></trkpt><trkpt lat="44.56877944937625" lon="9.277430181039206"><ele>582.0</ele><time>2026-05-02T15:48:18Z</time></trkpt><trkpt lat="44.5686069341223" lon="9.277607793180595"><ele>582.0</ele><time>2026-05-02T15:48:19Z</time></trkpt><trkpt lat="44.56842815514796" lon="9.277803905974215"><ele>582.0</ele><time>2026-05-02T15:48:20Z</time></trkpt><trkpt lat="44.56824296671404" lon="9.278008076870776"><ele>584.0</ele><time>2026-05-02T15:48:21Z</time></trkpt><trkpt lat="44.56805298157618" lon="9.27821283750143"><ele>586.0</ele><time>2026-05-02T15:48:22Z</time></trkpt><trkpt lat="44.56785811016303" lon="9.27842616294797"><ele>586.0</ele><time>2026-05-02T15:48:23Z</time></trkpt><trkpt lat="44.56765478445476" lon="9.27863260846349"><ele>586.0</ele><time>2026-05-02T15:48:24Z</time></trkpt><trkpt lat="44.567442824326164" lon="9.278825988869286"><ele>595.5</ele><time>2026-05-02T15:48:25Z</time></trkpt><trkpt lat="44.56723750199701" lon="9.278986781641247"><ele>605.0</ele><time>2026-05-02T15:48:26Z</time></trkpt><trkpt lat="44.56704228112653" lon="9.279126135280947"><ele>599.3333333333333</ele><time>2026-05-02T15:48:27Z</time></trkpt><trkpt lat="44.566860395937034" lon="9.279263387310072"><ele>593.6666666666666</ele><time>2026-05-02T15:48:28Z</time></trkpt><trkpt lat="44.566697162668945" lon="9.279390258029814"><ele>588.0</ele><time>2026-05-02T15:48:29Z</time></trkpt><trkpt lat="44.56654669698514" lon="9.279510531396024"><ele>588.0</ele><time>2026-05-02T15:48:30Z</time></trkpt><trkpt lat="44.5664174292053" lon="9.279627704702092"><ele>588.0</ele><time>2026-05-02T15:48:31Z</time></trkpt><trkpt lat="44.56630847119301" lon="9.279781558818138"><ele>588.0</ele><time>2026-05-02T15:48:32Z</time></trkpt><trkpt lat="44.56621094494926" lon="9.279982341442144"><ele>588.3333333333334</ele><time>2026-05-02T15:48:33Z</time></trkpt><trkpt lat="44.566115448970265" lon="9.280221146423845"><ele>588.6666666666667</ele><time>2026-05-02T15:48:34Z</time></trkpt><trkpt lat="44.56602292255548" lon="9.280467147640373"><ele>589.0</ele><time>2026-05-02T15:48:35Z</time></trkpt><trkpt lat="44.565937649509735" lon="9.280676192966904"><ele>590.25</ele><time>2026-05-02T15:48:36Z</time></trkpt><trkpt lat="44.56586270162132" lon="9.28083997258733"><ele>591.5</ele><time>2026-05-02T15:48:37Z</time></trkpt><trkpt lat="44.56578293525329" lon="9.280970475126034"><ele>592.75</ele><time>2026-05-02T15:48:38Z</time></trkpt><trkpt lat="44.565695457618986" lon="9.28106253183217"><ele>594.0</ele><time>2026-05-02T15:48:39Z</time></trkpt><trkpt lat="44.565610782049895" lon="9.28112384071991"><ele>594.0</ele><time>2026-05-02T15:48:40Z</time></trkpt><trkpt lat="44.5655340372652" lon="9.281140174532483"><ele>594.0</ele><time>2026-05-02T15:48:41Z</time></trkpt><trkpt lat="44.56545470853677" lon="9.28111360640119"><ele>594.0</ele><time>2026-05-02T15:48:42Z</time></trkpt><trkpt lat="44.56537666162073" lon="9.28105535355402"><ele>594.0</ele><time>2026-05-02T15:48:43Z</time></trkpt><trkpt lat="44.56529793113805" lon="9.280981136773221"><ele>594.0</ele><time>2026-05-02T15:48:44Z</time></trkpt><trkpt lat="44.56521158811724" lon="9.280901987531225"><ele>594.0</ele><time>2026-05-02T15:48:44.999Z</time></trkpt><trkpt lat="44.56512125544672" lon="9.280822548546247"><ele>593.4</ele><time>2026-05-02T15:48:45.999Z</time></trkpt><trkpt lat="44.565031952068935" lon="9.280753176856269"><ele>592.8</ele><time>2026-05-02T15:48:46.999Z</time></trkpt><trkpt lat="44.564940922905976" lon="9.28072236600562"><ele>592.2</ele><time>2026-05-02T15:48:47.999Z</time></trkpt><trkpt lat="44.56486107786301" lon="9.2807419750739"><ele>591.6</ele><time>2026-05-02T15:48:48.999Z</time></trkpt><trkpt lat="44.564785597005184" lon="9.280802493720087"><ele>591.0</ele><time>2026-05-02T15:48:49.999Z</time></trkpt><trkpt lat="44.56469692301039" lon="9.280909939075539"><ele>591.0</ele><time>2026-05-02T15:48:50.999Z</time></trkpt><trkpt lat="44.56459845360962" lon="9.281034115771067"><ele>591.0</ele><time>2026-05-02T15:48:51.999Z</time></trkpt><trkpt lat="44.564495131990256" lon="9.281169609955814"><ele>591.0</ele><time>2026-05-02T15:48:52.999Z</time></trkpt><trkpt lat="44.56438383294062" lon="9.281307349461027"><ele>591.0</ele><time>2026-05-02T15:48:53.999Z</time></trkpt><trkpt lat="44.56425897409643" lon="9.281442670185136"><ele>590.6666666666666</ele><time>2026-05-02T15:48:54.999Z</time></trkpt><trkpt lat="44.56412497335927" lon="9.281581215910178"><ele>590.3333333333333</ele><time>2026-05-02T15:48:55.999Z</time></trkpt><trkpt lat="44.56397592954312" lon="9.281728395589347"><ele>590.0</ele><time>2026-05-02T15:48:56.999Z</time></trkpt><trkpt lat="44.56381319817222" lon="9.281883726878615"><ele>589.6666666666666</ele><time>2026-05-02T15:48:57.999Z</time></trkpt><trkpt lat="44.56365568532364" lon="9.282032250951664"><ele>589.3333333333334</ele><time>2026-05-02T15:48:58.999Z</time></trkpt><trkpt lat="44.563496451209495" lon="9.282182995387183"><ele>589.0</ele><time>2026-05-02T15:48:59.999Z</time></trkpt><trkpt lat="44.56333455532799" lon="9.282336522062746"><ele>589.0</ele><time>2026-05-02T15:49:00.999Z</time></trkpt><trkpt lat="44.56317172512346" lon="9.282494928751126"><ele>589.0</ele><time>2026-05-02T15:49:01.999Z</time></trkpt><trkpt lat="44.56299418568741" lon="9.282664466010104"><ele>589.0</ele><time>2026-05-02T15:49:02.999Z</time></trkpt><trkpt lat="44.56280899679068" lon="9.282837109503696"><ele>589.6666666666667</ele><time>2026-05-02T15:49:03.999Z</time></trkpt><trkpt lat="44.56262471835218" lon="9.28301073976455"><ele>590.3333333333334</ele><time>2026-05-02T15:49:04.999Z</time></trkpt><trkpt lat="44.562438305358135" lon="9.28318053348533"><ele>591.0</ele><time>2026-05-02T15:49:06Z</time></trkpt><trkpt lat="44.56224769609298" lon="9.28333587008438"><ele>591.0</ele><time>2026-05-02T15:49:07Z</time></trkpt><trkpt lat="44.562057203747365" lon="9.283466214745655"><ele>591.0</ele><time>2026-05-02T15:49:08Z</time></trkpt><trkpt lat="44.561859598997955" lon="9.283569569276594"><ele>591.0</ele><time>2026-05-02T15:49:09Z</time></trkpt><trkpt lat="44.561646370741194" lon="9.28364024137306"><ele>599.0</ele><time>2026-05-02T15:49:10Z</time></trkpt><trkpt lat="44.56142732562459" lon="9.283692495133812"><ele>607.0</ele><time>2026-05-02T15:49:11Z</time></trkpt><trkpt lat="44.56121295189595" lon="9.283733767638319"><ele>615.0</ele><time>2026-05-02T15:49:12Z</time></trkpt><trkpt lat="44.561001716786954" lon="9.283768347627706"><ele>619.3333333333334</ele><time>2026-05-02T15:49:13Z</time></trkpt><trkpt lat="44.56079285219484" lon="9.2838058253633"><ele>623.6666666666667</ele><time>2026-05-02T15:49:14Z</time></trkpt><trkpt lat="44.560585030083566" lon="9.283834278680523"><ele>628.0</ele><time>2026-05-02T15:49:15Z</time></trkpt><trkpt lat="44.56038085691245" lon="9.283834416856207"><ele>628.0</ele><time>2026-05-02T15:49:16Z</time></trkpt><trkpt lat="44.56019628099461" lon="9.283812245034781"><ele>628.0</ele><time>2026-05-02T15:49:17Z</time></trkpt><trkpt lat="44.560030441205086" lon="9.283791776002506"><ele>628.0</ele><time>2026-05-02T15:49:18Z</time></trkpt><trkpt lat="44.55987209653623" lon="9.283778059082714"><ele>628.0</ele><time>2026-05-02T15:49:19Z</time></trkpt><trkpt lat="44.559732603819306" lon="9.283765936249784"><ele>628.0</ele><time>2026-05-02T15:49:20Z</time></trkpt><trkpt lat="44.55960388433276" lon="9.28374124135469"><ele>628.0</ele><time>2026-05-02T15:49:21Z</time></trkpt><trkpt lat="44.55948079948667" lon="9.28365758377898"><ele>628.0</ele><time>2026-05-02T15:49:22Z</time></trkpt><trkpt lat="44.55936687540367" lon="9.283525177257332"><ele>624.25</ele><time>2026-05-02T15:49:23Z</time></trkpt><trkpt lat="44.559291503048996" lon="9.283369981995325"><ele>620.5</ele><time>2026-05-02T15:49:24Z</time></trkpt><trkpt lat="44.55924831689797" lon="9.283199042850203"><ele>616.75</ele><time>2026-05-02T15:49:25Z</time></trkpt><trkpt lat="44.55924112983529" lon="9.28301930493351"><ele>613.0</ele><time>2026-05-02T15:49:26Z</time></trkpt><trkpt lat="44.55924425432449" lon="9.282844755796706"><ele>613.0</ele><time>2026-05-02T15:49:27Z</time></trkpt><trkpt lat="44.55923267726022" lon="9.282673510618503"><ele>613.0</ele><time>2026-05-02T15:49:28Z</time></trkpt><trkpt lat="44.559193586526476" lon="9.282517526086451"><ele>613.0</ele><time>2026-05-02T15:49:29Z</time></trkpt><trkpt lat="44.55914152836507" lon="9.282373979662916"><ele>613.0</ele><time>2026-05-02T15:49:30Z</time></trkpt><trkpt lat="44.55907164449757" lon="9.282250660453322"><ele>611.25</ele><time>2026-05-02T15:49:31Z</time></trkpt><trkpt lat="44.55898700254441" lon="9.282137219393807"><ele>609.5</ele><time>2026-05-02T15:49:32Z</time></trkpt><trkpt lat="44.558887871404664" lon="9.282053061224932"><ele>607.75</ele><time>2026-05-02T15:49:33Z</time></trkpt><trkpt lat="44.5587826968497" lon="9.281987501533974"><ele>606.0</ele><time>2026-05-02T15:49:34Z</time></trkpt><trkpt lat="44.55867857181813" lon="9.281944582110043"><ele>606.0</ele><time>2026-05-02T15:49:35Z</time></trkpt><trkpt lat="44.55857210320678" lon="9.281923241764764"><ele>606.0</ele><time>2026-05-02T15:49:36Z</time></trkpt><trkpt lat="44.55845061982286" lon="9.28193649370779"><ele>606.0</ele><time>2026-05-02T15:49:37Z</time></trkpt><trkpt lat="44.55832198994327" lon="9.281979165417711"><ele>606.0</ele><time>2026-05-02T15:49:38Z</time></trkpt><trkpt lat="44.558196996949775" lon="9.282039842204826"><ele>606.0</ele><time>2026-05-02T15:49:39Z</time></trkpt><trkpt lat="44.558086481543775" lon="9.282113305298823"><ele>606.0</ele><time>2026-05-02T15:49:40Z</time></trkpt><trkpt lat="44.557980828885306" lon="9.282189191770172"><ele>606.0</ele><time>2026-05-02T15:49:41Z</time></trkpt><trkpt lat="44.557873756645684" lon="9.282253154772357"><ele>606.0</ele><time>2026-05-02T15:49:42Z</time></trkpt><trkpt lat="44.55776424607631" lon="9.282315903838406"><ele>604.25</ele><time>2026-05-02T15:49:43Z</time></trkpt><trkpt lat="44.55765554012519" lon="9.282388363313022"><ele>602.5</ele><time>2026-05-02T15:49:44Z</time></trkpt><trkpt lat="44.55754309755897" lon="9.28246119230157"><ele>600.75</ele><time>2026-05-02T15:49:45Z</time></trkpt><trkpt lat="44.55743521581848" lon="9.28252924846904"><ele>599.0</ele><time>2026-05-02T15:49:46Z</time></trkpt><trkpt lat="44.557340817117684" lon="9.282585546507704"><ele>599.0</ele><time>2026-05-02T15:49:47Z</time></trkpt><trkpt lat="44.557254381930846" lon="9.282636232757541"><ele>599.0</ele><time>2026-05-02T15:49:48Z</time></trkpt><trkpt lat="44.55717487800857" lon="9.282687705412611"><ele>599.0</ele><time>2026-05-02T15:49:49Z</time></trkpt><trkpt lat="44.55709472382327" lon="9.28273894429561"><ele>599.0</ele><time>2026-05-02T15:49:50Z</time></trkpt><trkpt lat="44.55701418014709" lon="9.282802325685346"><ele>599.0</ele><time>2026-05-02T15:49:51Z</time></trkpt><trkpt lat="44.556917213901535" lon="9.282860469101688"><ele>599.2</ele><time>2026-05-02T15:49:52Z</time></trkpt><trkpt lat="44.556815119984265" lon="9.282920246766622"><ele>599.4</ele><time>2026-05-02T15:49:53Z</time></trkpt><trkpt lat="44.55673027632218" lon="9.282979731695061"><ele>599.6</ele><time>2026-05-02T15:49:54Z</time></trkpt><trkpt lat="44.55664463042753" lon="9.283028597992047"><ele>599.8</ele><time>2026-05-02T15:49:55Z</time></trkpt><trkpt lat="44.556548775086604" lon="9.28308566789171"><ele>600.0</ele><time>2026-05-02T15:49:56Z</time></trkpt><trkpt lat="44.556449799450434" lon="9.283155578210325"><ele>600.0</ele><time>2026-05-02T15:49:57Z</time></trkpt><trkpt lat="44.55634867639624" lon="9.28322918287218"><ele>600.0</ele><time>2026-05-02T15:49:58Z</time></trkpt><trkpt lat="44.55624410519467" lon="9.28329811819631"><ele>600.0</ele><time>2026-05-02T15:49:59Z</time></trkpt><trkpt lat="44.556134592039655" lon="9.28336179749957"><ele>600.0</ele><time>2026-05-02T15:50:00Z</time></trkpt><trkpt lat="44.556025124321344" lon="9.283424928441647"><ele>601.75</ele><time>2026-05-02T15:50:01Z</time></trkpt><trkpt lat="44.55591933944346" lon="9.283484360076722"><ele>603.5</ele><time>2026-05-02T15:50:02Z</time></trkpt><trkpt lat="44.55581515154703" lon="9.283532169389082"><ele>605.25</ele><time>2026-05-02T15:50:03Z</time></trkpt><trkpt lat="44.55570428759561" lon="9.28354220135556"><ele>607.0</ele><time>2026-05-02T15:50:04Z</time></trkpt><trkpt lat="44.5555924172682" lon="9.283505140163173"><ele>607.0</ele><time>2026-05-02T15:50:05Z</time></trkpt><trkpt lat="44.55550370185463" lon="9.283442108148604"><ele>607.0</ele><time>2026-05-02T15:50:06Z</time></trkpt><trkpt lat="44.555434967337604" lon="9.283352885846263"><ele>607.0</ele><time>2026-05-02T15:50:07Z</time></trkpt><trkpt lat="44.55537838116658" lon="9.283249314496945"><ele>607.0</ele><time>2026-05-02T15:50:08Z</time></trkpt><trkpt lat="44.5553272950019" lon="9.28311625666453"><ele>607.0</ele><time>2026-05-02T15:50:09Z</time></trkpt><trkpt lat="44.55527591130826" lon="9.282960386231057"><ele>605.75</ele><time>2026-05-02T15:50:10Z</time></trkpt><trkpt lat="44.55523361234569" lon="9.282792795349268"><ele>604.5</ele><time>2026-05-02T15:50:11Z</time></trkpt><trkpt lat="44.55519050284875" lon="9.282636942477609"><ele>603.25</ele><time>2026-05-02T15:50:12Z</time></trkpt><trkpt lat="44.55512634212054" lon="9.282477956221063"><ele>602.0</ele><time>2026-05-02T15:50:13Z</time></trkpt><trkpt lat="44.55503822361816" lon="9.282327374555367"><ele>609.3333333333333</ele><time>2026-05-02T15:50:14Z</time></trkpt><trkpt lat="44.55491679075217" lon="9.282153812147596"><ele>616.6666666666666</ele><time>2026-05-02T15:50:15Z</time></trkpt><trkpt lat="44.55478320097703" lon="9.281930714548706"><ele>624.0</ele><time>2026-05-02T15:50:16Z</time></trkpt><trkpt lat="44.55463948100374" lon="9.281757663925692"><ele>624.6666666666666</ele><time>2026-05-02T15:50:17Z</time></trkpt><trkpt lat="44.554529819326966" lon="9.281580200174153"><ele>625.3333333333333</ele><time>2026-05-02T15:50:18Z</time></trkpt><trkpt lat="44.55444465665364" lon="9.281408886824627"><ele>626.0</ele><time>2026-05-02T15:50:19Z</time></trkpt><trkpt lat="44.554369753770565" lon="9.281245612191194"><ele>626.0</ele><time>2026-05-02T15:50:20Z</time></trkpt><trkpt lat="44.554276603939435" lon="9.281101371097606"><ele>626.0</ele><time>2026-05-02T15:50:21Z</time></trkpt><trkpt lat="44.554155193737394" lon="9.280976889583387"><ele>626.0</ele><time>2026-05-02T15:50:22Z</time></trkpt><trkpt lat="44.55400690829275" lon="9.280879415436518"><ele>626.0</ele><time>2026-05-02T15:50:23Z</time></trkpt><trkpt lat="44.55384609869544" lon="9.280790993746576"><ele>626.0</ele><time>2026-05-02T15:50:24Z</time></trkpt><trkpt lat="44.55367326455992" lon="9.280696729561784"><ele>626.0</ele><time>2026-05-02T15:50:25Z</time></trkpt><trkpt lat="44.55350174585829" lon="9.280587755505856"><ele>623.6666666666666</ele><time>2026-05-02T15:50:26Z</time></trkpt><trkpt lat="44.55332756289656" lon="9.280476811019268"><ele>621.3333333333334</ele><time>2026-05-02T15:50:27Z</time></trkpt><trkpt lat="44.55314468222545" lon="9.280364195400658"><ele>619.0</ele><time>2026-05-02T15:50:28Z</time></trkpt><trkpt lat="44.55295852940804" lon="9.280247857033789"><ele>616.6666666666667</ele><time>2026-05-02T15:50:29Z</time></trkpt><trkpt lat="44.55277004944023" lon="9.280117825903657"><ele>614.3333333333334</ele><time>2026-05-02T15:50:30Z</time></trkpt><trkpt lat="44.55258052479011" lon="9.279964174309667"><ele>612.0</ele><time>2026-05-02T15:50:31Z</time></trkpt><trkpt lat="44.55239739300688" lon="9.279812015210114"><ele>611.0</ele><time>2026-05-02T15:50:32Z</time></trkpt><trkpt lat="44.55223354731514" lon="9.279678426861835"><ele>610.0</ele><time>2026-05-02T15:50:33Z</time></trkpt><trkpt lat="44.552083630117146" lon="9.279557646099336"><ele>609.0</ele><time>2026-05-02T15:50:34Z</time></trkpt><trkpt lat="44.551928575806215" lon="9.27943757167799"><ele>609.0</ele><time>2026-05-02T15:50:34.999Z</time></trkpt><trkpt lat="44.551781779604624" lon="9.279318945078533"><ele>609.0</ele><time>2026-05-02T15:50:35.999Z</time></trkpt><trkpt lat="44.55165116451036" lon="9.279203817796663"><ele>609.0</ele><time>2026-05-02T15:50:36.999Z</time></trkpt><trkpt lat="44.551541847980296" lon="9.279063169772963"><ele>610.5</ele><time>2026-05-02T15:50:37.999Z</time></trkpt><trkpt lat="44.55146836336732" lon="9.278904589829498"><ele>612.0</ele><time>2026-05-02T15:50:38.999Z</time></trkpt><trkpt lat="44.551414072237456" lon="9.278706006432039"><ele>613.5</ele><time>2026-05-02T15:50:39.999Z</time></trkpt><trkpt lat="44.551399657592675" lon="9.278480691286576"><ele>615.0</ele><time>2026-05-02T15:50:40.999Z</time></trkpt><trkpt lat="44.55140864201029" lon="9.27820574000471"><ele>619.0</ele><time>2026-05-02T15:50:41.999Z</time></trkpt><trkpt lat="44.55143184273365" lon="9.277870540946457"><ele>623.0</ele><time>2026-05-02T15:50:42.999Z</time></trkpt><trkpt lat="44.55145786423764" lon="9.277534183447157"><ele>622.3333333333333</ele><time>2026-05-02T15:50:43.999Z</time></trkpt><trkpt lat="44.55148223278938" lon="9.277230209289934"><ele>621.6666666666666</ele><time>2026-05-02T15:50:44.999Z</time></trkpt><trkpt lat="44.55153289730851" lon="9.276920190764631"><ele>621.0</ele><time>2026-05-02T15:50:45.999Z</time></trkpt><trkpt lat="44.55160948626954" lon="9.276609008636672"><ele>618.0</ele><time>2026-05-02T15:50:46.999Z</time></trkpt><trkpt lat="44.55167968611619" lon="9.276333634780144"><ele>615.0</ele><time>2026-05-02T15:50:47.999Z</time></trkpt><trkpt lat="44.55173953941514" lon="9.276085782071819"><ele>612.0</ele><time>2026-05-02T15:50:48.999Z</time></trkpt><trkpt lat="44.551790911702035" lon="9.275848921847222"><ele>612.0</ele><time>2026-05-02T15:50:49.999Z</time></trkpt><trkpt lat="44.55183859027213" lon="9.27563146153907"><ele>612.0</ele><time>2026-05-02T15:50:50.999Z</time></trkpt><trkpt lat="44.551878618202636" lon="9.27544819504767"><ele>612.0</ele><time>2026-05-02T15:50:51.999Z</time></trkpt><trkpt lat="44.551900853302904" lon="9.275303667072997"><ele>612.0</ele><time>2026-05-02T15:50:52.999Z</time></trkpt><trkpt lat="44.55189389780278" lon="9.275174579447892"><ele>613.25</ele><time>2026-05-02T15:50:53.999Z</time></trkpt><trkpt lat="44.55185945906123" lon="9.275049024078942"><ele>614.5</ele><time>2026-05-02T15:50:54.999Z</time></trkpt><trkpt lat="44.551795417184685" lon="9.274913532297049"><ele>615.75</ele><time>2026-05-02T15:50:55.999Z</time></trkpt><trkpt lat="44.551703013450236" lon="9.274768486150567"><ele>617.0</ele><time>2026-05-02T15:50:56.999Z</time></trkpt><trkpt lat="44.551611568917025" lon="9.274634184305654"><ele>620.5</ele><time>2026-05-02T15:50:57.999Z</time></trkpt><trkpt lat="44.55152595665216" lon="9.274495331314895"><ele>624.0</ele><time>2026-05-02T15:50:58.999Z</time></trkpt><trkpt lat="44.55147814639263" lon="9.274321976818193"><ele>627.5</ele><time>2026-05-02T15:50:59.999Z</time></trkpt><trkpt lat="44.551452822830015" lon="9.274120871977887"><ele>631.0</ele><time>2026-05-02T15:51:00.999Z</time></trkpt><trkpt lat="44.55141153401529" lon="9.273911241037712"><ele>625.3333333333334</ele><time>2026-05-02T15:51:01.999Z</time></trkpt><trkpt lat="44.551340622419474" lon="9.27370078690037"><ele>619.6666666666666</ele><time>2026-05-02T15:51:02.999Z</time></trkpt><trkpt lat="44.55125712307772" lon="9.273513289939189"><ele>614.0</ele><time>2026-05-02T15:51:03.999Z</time></trkpt><trkpt lat="44.55115700741603" lon="9.273317564507806"><ele>614.0</ele><time>2026-05-02T15:51:04.999Z</time></trkpt><trkpt lat="44.55104118396989" lon="9.273119125078425"><ele>614.0</ele><time>2026-05-02T15:51:05.999Z</time></trkpt><trkpt lat="44.55092135154888" lon="9.272912819221139"><ele>614.0</ele><time>2026-05-02T15:51:06.999Z</time></trkpt><trkpt lat="44.55080450991275" lon="9.272705094084342"><ele>621.6666666666666</ele><time>2026-05-02T15:51:07.999Z</time></trkpt><trkpt lat="44.55068847674641" lon="9.272503720384607"><ele>629.3333333333334</ele><time>2026-05-02T15:51:08.999Z</time></trkpt><trkpt lat="44.550576359729654" lon="9.272330799973755"><ele>637.0</ele><time>2026-05-02T15:51:09.999Z</time></trkpt><trkpt lat="44.55044283661195" lon="9.272169632764438"><ele>636.3333333333334</ele><time>2026-05-02T15:51:10.999Z</time></trkpt><trkpt lat="44.55027948443786" lon="9.272030133513544"><ele>635.6666666666666</ele><time>2026-05-02T15:51:12Z</time></trkpt><trkpt lat="44.55008680832164" lon="9.271897968863264"><ele>635.0</ele><time>2026-05-02T15:51:13Z</time></trkpt><trkpt lat="44.549881238381026" lon="9.271753154848149"><ele>635.0</ele><time>2026-05-02T15:51:14Z</time></trkpt><trkpt lat="44.549679029838785" lon="9.271601402928404"><ele>635.0</ele><time>2026-05-02T15:51:15Z</time></trkpt><trkpt lat="44.54947394504888" lon="9.271446601398944"><ele>634.5</ele><time>2026-05-02T15:51:16Z</time></trkpt><trkpt lat="44.549265353005815" lon="9.271307099874264"><ele>634.0</ele><time>2026-05-02T15:51:17Z</time></trkpt><trkpt lat="44.54905259010957" lon="9.271193183319818"><ele>634.0</ele><time>2026-05-02T15:51:18Z</time></trkpt><trkpt lat="44.54883457956385" lon="9.271103677044508"><ele>634.0</ele><time>2026-05-02T15:51:19Z</time></trkpt><trkpt lat="44.54861319569403" lon="9.271017361849271"><ele>628.3333333333334</ele><time>2026-05-02T15:51:20Z</time></trkpt><trkpt lat="44.548409435705445" lon="9.270915707728586"><ele>622.6666666666666</ele><time>2026-05-02T15:51:21Z</time></trkpt><trkpt lat="44.548231045411335" lon="9.270797684847693"><ele>617.0</ele><time>2026-05-02T15:51:22Z</time></trkpt><trkpt lat="44.54806978742359" lon="9.27067816245223"><ele>616.3333333333333</ele><time>2026-05-02T15:51:23Z</time></trkpt><trkpt lat="44.54792617114916" lon="9.27056275897162"><ele>615.6666666666666</ele><time>2026-05-02T15:51:24Z</time></trkpt><trkpt lat="44.54780190301532" lon="9.270442464412076"><ele>615.0</ele><time>2026-05-02T15:51:25Z</time></trkpt><trkpt lat="44.547683411189155" lon="9.27028595567284"><ele>615.0</ele><time>2026-05-02T15:51:26Z</time></trkpt><trkpt lat="44.547581033930165" lon="9.270110757681238"><ele>615.0</ele><time>2026-05-02T15:51:27Z</time></trkpt><trkpt lat="44.54748432093397" lon="9.269913770604724"><ele>615.0</ele><time>2026-05-02T15:51:28Z</time></trkpt><trkpt lat="44.54739914769025" lon="9.269689508938482"><ele>618.6666666666666</ele><time>2026-05-02T15:51:29Z</time></trkpt><trkpt lat="44.547330933134" lon="9.26945661757694"><ele>622.3333333333333</ele><time>2026-05-02T15:51:30Z</time></trkpt><trkpt lat="44.54726351113751" lon="9.26925447345877"><ele>626.0</ele><time>2026-05-02T15:51:31Z</time></trkpt><trkpt lat="44.547204008467716" lon="9.269069902653028"><ele>624.5</ele><time>2026-05-02T15:51:32Z</time></trkpt><trkpt lat="44.54714901874908" lon="9.268894611031206"><ele>623.0</ele><time>2026-05-02T15:51:33Z</time></trkpt><trkpt lat="44.54707350897149" lon="9.26872515815534"><ele>621.5</ele><time>2026-05-02T15:51:34Z</time></trkpt><trkpt lat="44.54696400834598" lon="9.26855983267288"><ele>620.0</ele><time>2026-05-02T15:51:35Z</time></trkpt><trkpt lat="44.54683011166862" lon="9.268393159358993"><ele>620.0</ele><time>2026-05-02T15:51:36Z</time></trkpt><trkpt lat="44.5466924985317" lon="9.2682246330825"><ele>620.0</ele><time>2026-05-02T15:51:37Z</time></trkpt><trkpt lat="44.54655006758055" lon="9.26804688927779"><ele>620.0</ele><time>2026-05-02T15:51:38Z</time></trkpt><trkpt lat="44.54639601070166" lon="9.267851001436172"><ele>621.6666666666666</ele><time>2026-05-02T15:51:39Z</time></trkpt><trkpt lat="44.54625179136974" lon="9.267669736047376"><ele>623.3333333333334</ele><time>2026-05-02T15:51:40Z</time></trkpt><trkpt lat="44.546121914528406" lon="9.267512758493194"><ele>625.0</ele><time>2026-05-02T15:51:41Z</time></trkpt><trkpt lat="44.54601138213906" lon="9.267351401905879"><ele>623.3333333333334</ele><time>2026-05-02T15:51:42Z</time></trkpt><trkpt lat="44.545932724998494" lon="9.267158861261807"><ele>621.6666666666666</ele><time>2026-05-02T15:51:43Z</time></trkpt><trkpt lat="44.54588093554391" lon="9.266926900325144"><ele>620.0</ele><time>2026-05-02T15:51:44Z</time></trkpt><trkpt lat="44.545853381593936" lon="9.266653921971276"><ele>622.0</ele><time>2026-05-02T15:51:45Z</time></trkpt><trkpt lat="44.54582734486278" lon="9.266364019773357"><ele>624.0</ele><time>2026-05-02T15:51:46Z</time></trkpt><trkpt lat="44.54577559723082" lon="9.266063376745764"><ele>626.0</ele><time>2026-05-02T15:51:47Z</time></trkpt><trkpt lat="44.54569960208015" lon="9.265755682725766"><ele>630.0</ele><time>2026-05-02T15:51:48Z</time></trkpt><trkpt lat="44.54561838335091" lon="9.265435096507952"><ele>634.0</ele><time>2026-05-02T15:51:49Z</time></trkpt><trkpt lat="44.545540440750386" lon="9.265112268997317"><ele>634.0</ele><time>2026-05-02T15:51:50Z</time></trkpt><trkpt lat="44.545462487686216" lon="9.264802135175488"><ele>634.0</ele><time>2026-05-02T15:51:51Z</time></trkpt><trkpt lat="44.54537880567666" lon="9.264503649579268"><ele>634.0</ele><time>2026-05-02T15:51:52Z</time></trkpt><trkpt lat="44.54528785091951" lon="9.26421872566364"><ele>634.0</ele><time>2026-05-02T15:51:53Z</time></trkpt><trkpt lat="44.54519460092764" lon="9.263938347490267"><ele>634.0</ele><time>2026-05-02T15:51:54Z</time></trkpt><trkpt lat="44.54510057617463" lon="9.263663679979208"><ele>634.0</ele><time>2026-05-02T15:51:55Z</time></trkpt><trkpt lat="44.54500506809915" lon="9.263387352749346"><ele>634.0</ele><time>2026-05-02T15:51:56Z</time></trkpt><trkpt lat="44.544912709161345" lon="9.263120559033476"><ele>634.0</ele><time>2026-05-02T15:51:57Z</time></trkpt><trkpt lat="44.54482783633916" lon="9.262875489821377"><ele>639.0</ele><time>2026-05-02T15:51:58Z</time></trkpt><trkpt lat="44.544746662415584" lon="9.262644262794423"><ele>644.0</ele><time>2026-05-02T15:51:59Z</time></trkpt><trkpt lat="44.54467364730376" lon="9.262433391992992"><ele>649.0</ele><time>2026-05-02T15:52:00Z</time></trkpt><trkpt lat="44.544614618439084" lon="9.262249290840543"><ele>649.0</ele><time>2026-05-02T15:52:01Z</time></trkpt><trkpt lat="44.5445733523955" lon="9.262114499998908"><ele>649.0</ele><time>2026-05-02T15:52:02Z</time></trkpt><trkpt lat="44.544540838244174" lon="9.26200424633574"><ele>649.0</ele><time>2026-05-02T15:52:03Z</time></trkpt><trkpt lat="44.54451576855764" lon="9.261908510012507"><ele>649.0</ele><time>2026-05-02T15:52:04Z</time></trkpt><trkpt lat="44.54448010357269" lon="9.261755719114252"><ele>649.0</ele><time>2026-05-02T15:52:06Z</time></trkpt><trkpt lat="44.54445644219787" lon="9.261637050855867"><ele>644.8333333333334</ele><time>2026-05-02T15:52:09Z</time></trkpt><trkpt lat="44.544433582296435" lon="9.261537200235916"><ele>640.6666666666667</ele><time>2026-05-02T15:52:12Z</time></trkpt><trkpt lat="44.54440679878755" lon="9.261386473838725"><ele>636.5</ele><time>2026-05-02T15:52:40.999Z</time></trkpt><trkpt lat="44.54438490850435" lon="9.261284385740423"><ele>632.3333333333334</ele><time>2026-05-02T15:52:41.999Z</time></trkpt><trkpt lat="44.544361981319014" lon="9.2611640010253"><ele>628.1666666666666</ele><time>2026-05-02T15:52:42.999Z</time></trkpt><trkpt lat="44.544338949407496" lon="9.26104410750702"><ele>624.0</ele><time>2026-05-02T15:52:43.999Z</time></trkpt><trkpt lat="44.54431144445531" lon="9.260900952482269"><ele>624.0</ele><time>2026-05-02T15:52:44.999Z</time></trkpt><trkpt lat="44.544274670874486" lon="9.260753267560677"><ele>624.0</ele><time>2026-05-02T15:52:45.999Z</time></trkpt><trkpt lat="44.5442364140598" lon="9.260622915688725"><ele>624.0</ele><time>2026-05-02T15:52:46.999Z</time></trkpt><trkpt lat="44.544186038884654" lon="9.260515854707641"><ele>624.0</ele><time>2026-05-02T15:52:47.999Z</time></trkpt><trkpt lat="44.54410891779388" lon="9.260444756343157"><ele>624.0</ele><time>2026-05-02T15:52:48.999Z</time></trkpt><trkpt lat="44.54400832387797" lon="9.260396723511622"><ele>623.6</ele><time>2026-05-02T15:52:49.999Z</time></trkpt><trkpt lat="44.543899106145396" lon="9.260357052137179"><ele>623.2</ele><time>2026-05-02T15:52:50.999Z</time></trkpt><trkpt lat="44.54379456030625" lon="9.260310794275501"><ele>622.8000000000001</ele><time>2026-05-02T15:52:51.999Z</time></trkpt><trkpt lat="44.54370401754535" lon="9.26026967539439"><ele>622.4</ele><time>2026-05-02T15:52:52.999Z</time></trkpt><trkpt lat="44.543605317207636" lon="9.260228070378638"><ele>622.0</ele><time>2026-05-02T15:52:53.999Z</time></trkpt><trkpt lat="44.54350473423301" lon="9.260187513867427"><ele>622.0</ele><time>2026-05-02T15:52:54.999Z</time></trkpt><trkpt lat="44.54337936489888" lon="9.260143715229155"><ele>622.0</ele><time>2026-05-02T15:52:55.999Z</time></trkpt><trkpt lat="44.54325144340459" lon="9.260091324565172"><ele>622.0</ele><time>2026-05-02T15:52:56.999Z</time></trkpt><trkpt lat="44.54312994327522" lon="9.260035401785563"><ele>622.0</ele><time>2026-05-02T15:52:57.999Z</time></trkpt><trkpt lat="44.54300797887878" lon="9.259976835271504"><ele>622.5</ele><time>2026-05-02T15:52:58.999Z</time></trkpt><trkpt lat="44.54287766847484" lon="9.259914326730351"><ele>623.0</ele><time>2026-05-02T15:52:59.999Z</time></trkpt><trkpt lat="44.54274171876563" lon="9.25984893339658"><ele>623.5</ele><time>2026-05-02T15:53:00.999Z</time></trkpt><trkpt lat="44.54260912033637" lon="9.25979295539763"><ele>624.0</ele><time>2026-05-02T15:53:01.999Z</time></trkpt><trkpt lat="44.54247049410844" lon="9.259739715289161"><ele>624.0</ele><time>2026-05-02T15:53:02.999Z</time></trkpt><trkpt lat="44.54232678892271" lon="9.25970875137143"><ele>624.0</ele><time>2026-05-02T15:53:03.999Z</time></trkpt><trkpt lat="44.54218853493185" lon="9.259716622218939"><ele>624.0</ele><time>2026-05-02T15:53:04.999Z</time></trkpt><trkpt lat="44.54205345517419" lon="9.25978468359183"><ele>624.0</ele><time>2026-05-02T15:53:05.999Z</time></trkpt><trkpt lat="44.54192900710694" lon="9.259892444615542"><ele>625.0</ele><time>2026-05-02T15:53:06.999Z</time></trkpt><trkpt lat="44.54181616219867" lon="9.260048778613111"><ele>626.0</ele><time>2026-05-02T15:53:07.999Z</time></trkpt><trkpt lat="44.541708154355554" lon="9.2602155726816"><ele>627.0</ele><time>2026-05-02T15:53:08.999Z</time></trkpt><trkpt lat="44.54159868899334" lon="9.260376270695222"><ele>627.0</ele><time>2026-05-02T15:53:09.999Z</time></trkpt><trkpt lat="44.54147955312764" lon="9.260531905698267"><ele>627.0</ele><time>2026-05-02T15:53:10.999Z</time></trkpt><trkpt lat="44.541334583241806" lon="9.260663062521047"><ele>627.0</ele><time>2026-05-02T15:53:11.999Z</time></trkpt><trkpt lat="44.54117727248366" lon="9.260759362456573"><ele>628.6666666666666</ele><time>2026-05-02T15:53:12.999Z</time></trkpt><trkpt lat="44.54100654162853" lon="9.260829740453225"><ele>630.3333333333333</ele><time>2026-05-02T15:53:13.999Z</time></trkpt><trkpt lat="44.54082393582268" lon="9.2608717650351"><ele>632.0</ele><time>2026-05-02T15:53:14.999Z</time></trkpt><trkpt lat="44.54063372056401" lon="9.260891995948452"><ele>632.0</ele><time>2026-05-02T15:53:15.999Z</time></trkpt><trkpt lat="44.540426620942405" lon="9.260896859883697"><ele>632.0</ele><time>2026-05-02T15:53:16.999Z</time></trkpt><trkpt lat="44.54021291310227" lon="9.26090157420838"><ele>632.0</ele><time>2026-05-02T15:53:18Z</time></trkpt><trkpt lat="44.5399835078852" lon="9.26091484686158"><ele>637.0</ele><time>2026-05-02T15:53:19Z</time></trkpt><trkpt lat="44.53974718020469" lon="9.26092614182726"><ele>642.0</ele><time>2026-05-02T15:53:20Z</time></trkpt><trkpt lat="44.53950586558836" lon="9.260936759803691"><ele>645.0</ele><time>2026-05-02T15:53:21Z</time></trkpt><trkpt lat="44.53927132257724" lon="9.26094404052753"><ele>648.0</ele><time>2026-05-02T15:53:22Z</time></trkpt><trkpt lat="44.53903223502104" lon="9.26094610317468"><ele>648.0</ele><time>2026-05-02T15:53:23Z</time></trkpt><trkpt lat="44.5387895363409" lon="9.260949732276874"><ele>648.0</ele><time>2026-05-02T15:53:24Z</time></trkpt><trkpt lat="44.538544189774754" lon="9.260954961135619"><ele>643.5</ele><time>2026-05-02T15:53:25Z</time></trkpt><trkpt lat="44.53829464079604" lon="9.260958537280276"><ele>639.0</ele><time>2026-05-02T15:53:26Z</time></trkpt><trkpt lat="44.538043453721805" lon="9.260963170822764"><ele>637.5</ele><time>2026-05-02T15:53:27Z</time></trkpt><trkpt lat="44.53778999819144" lon="9.260969473270084"><ele>636.0</ele><time>2026-05-02T15:53:28Z</time></trkpt><trkpt lat="44.53753603535752" lon="9.26097421179467"><ele>636.0</ele><time>2026-05-02T15:53:29Z</time></trkpt><trkpt lat="44.537280973779374" lon="9.260984930800976"><ele>636.0</ele><time>2026-05-02T15:53:30Z</time></trkpt><trkpt lat="44.53702803923566" lon="9.261006818412373"><ele>637.5</ele><time>2026-05-02T15:53:31Z</time></trkpt><trkpt lat="44.53678443100394" lon="9.261051243755597"><ele>639.0</ele><time>2026-05-02T15:53:32Z</time></trkpt><trkpt lat="44.53655058704317" lon="9.26109370085082"><ele>639.0</ele><time>2026-05-02T15:53:33Z</time></trkpt><trkpt lat="44.53633429935146" lon="9.26113178998215"><ele>639.0</ele><time>2026-05-02T15:53:34Z</time></trkpt><trkpt lat="44.53613448505456" lon="9.261154872777391"><ele>639.0</ele><time>2026-05-02T15:53:35Z</time></trkpt><trkpt lat="44.535949622227804" lon="9.261152171398335"><ele>645.6666666666666</ele><time>2026-05-02T15:53:36Z</time></trkpt><trkpt lat="44.53578295558168" lon="9.26112722932055"><ele>652.3333333333333</ele><time>2026-05-02T15:53:37Z</time></trkpt><trkpt lat="44.53563149063619" lon="9.261125814512218"><ele>659.0</ele><time>2026-05-02T15:53:38Z</time></trkpt><trkpt lat="44.535473276862994" lon="9.26118426743289"><ele>662.0</ele><time>2026-05-02T15:53:39Z</time></trkpt><trkpt lat="44.53529952070356" lon="9.261294971959192"><ele>665.0</ele><time>2026-05-02T15:53:40Z</time></trkpt><trkpt lat="44.53512162379189" lon="9.261439012931096"><ele>668.0</ele><time>2026-05-02T15:53:41Z</time></trkpt><trkpt lat="44.53494120884339" lon="9.261584383871018"><ele>658.0</ele><time>2026-05-02T15:53:42Z</time></trkpt><trkpt lat="44.534794526337876" lon="9.261738181788996"><ele>648.0</ele><time>2026-05-02T15:53:43Z</time></trkpt><trkpt lat="44.534631714029295" lon="9.261828709324481"><ele>638.0</ele><time>2026-05-02T15:53:44Z</time></trkpt><trkpt lat="44.534460716737335" lon="9.26190395079194"><ele>638.0</ele><time>2026-05-02T15:53:45Z</time></trkpt><trkpt lat="44.53430995788786" lon="9.261950670585016"><ele>638.0</ele><time>2026-05-02T15:53:46Z</time></trkpt><trkpt lat="44.53416764770927" lon="9.261966610813102"><ele>638.0</ele><time>2026-05-02T15:53:47Z</time></trkpt><trkpt lat="44.534039663931054" lon="9.261926402316508"><ele>638.0</ele><time>2026-05-02T15:53:48Z</time></trkpt><trkpt lat="44.533939079729194" lon="9.261834510428281"><ele>638.0</ele><time>2026-05-02T15:53:49Z</time></trkpt><trkpt lat="44.53387792310861" lon="9.261676798152086"><ele>638.0</ele><time>2026-05-02T15:53:50Z</time></trkpt><trkpt lat="44.53384187589457" lon="9.261471311572626"><ele>638.0</ele><time>2026-05-02T15:53:51Z</time></trkpt><trkpt lat="44.53383080428505" lon="9.261199947083496"><ele>644.5</ele><time>2026-05-02T15:53:52Z</time></trkpt><trkpt lat="44.5338423854107" lon="9.260873918416834"><ele>651.0</ele><time>2026-05-02T15:53:53Z</time></trkpt><trkpt lat="44.53385151547251" lon="9.260525813384888"><ele>654.5</ele><time>2026-05-02T15:53:54Z</time></trkpt><trkpt lat="44.533836976170896" lon="9.26016121536782"><ele>658.0</ele><time>2026-05-02T15:53:55Z</time></trkpt><trkpt lat="44.53383194972911" lon="9.259792728553649"><ele>658.5</ele><time>2026-05-02T15:53:56Z</time></trkpt><trkpt lat="44.533837785289265" lon="9.25944969557825"><ele>659.0</ele><time>2026-05-02T15:53:57Z</time></trkpt><trkpt lat="44.533873011834764" lon="9.25912884280021"><ele>659.6666666666666</ele><time>2026-05-02T15:53:58Z</time></trkpt><trkpt lat="44.533888218887704" lon="9.25882689599447"><ele>660.3333333333334</ele><time>2026-05-02T15:53:59Z</time></trkpt><trkpt lat="44.53387033447422" lon="9.258519211506133"><ele>661.0</ele><time>2026-05-02T15:54:00Z</time></trkpt><trkpt lat="44.53384434942342" lon="9.258240364330103"><ele>660.3333333333334</ele><time>2026-05-02T15:54:01Z</time></trkpt><trkpt lat="44.53382723366458" lon="9.257976220210042"><ele>659.6666666666666</ele><time>2026-05-02T15:54:02Z</time></trkpt><trkpt lat="44.533859059547765" lon="9.257697509887763"><ele>659.0</ele><time>2026-05-02T15:54:03Z</time></trkpt><trkpt lat="44.533893672594964" lon="9.257373790389337"><ele>659.0</ele><time>2026-05-02T15:54:04Z</time></trkpt><trkpt lat="44.5339323362042" lon="9.257057580644572"><ele>659.0</ele><time>2026-05-02T15:54:05Z</time></trkpt><trkpt lat="44.53396295757869" lon="9.256763812066207"><ele>659.0</ele><time>2026-05-02T15:54:06Z</time></trkpt><trkpt lat="44.53398298368466" lon="9.256502749852329"><ele>659.0</ele><time>2026-05-02T15:54:07Z</time></trkpt><trkpt lat="44.53399835588364" lon="9.256281971955977"><ele>659.0</ele><time>2026-05-02T15:54:08Z</time></trkpt><trkpt lat="44.534020820292945" lon="9.256108689852379"><ele>659.0</ele><time>2026-05-02T15:54:09Z</time></trkpt><trkpt lat="44.53404849755859" lon="9.255960035065204"><ele>659.0</ele><time>2026-05-02T15:54:10Z</time></trkpt><trkpt lat="44.53406790610346" lon="9.255829983756279"><ele>659.0</ele><time>2026-05-02T15:54:11Z</time></trkpt><trkpt lat="44.53404920444778" lon="9.25567245592898"><ele>659.0</ele><time>2026-05-02T15:54:12Z</time></trkpt><trkpt lat="44.533982012889375" lon="9.255505297347556"><ele>659.0</ele><time>2026-05-02T15:54:13Z</time></trkpt><trkpt lat="44.53387451356804" lon="9.255331240552781"><ele>659.0</ele><time>2026-05-02T15:54:14Z</time></trkpt><trkpt lat="44.53374895255642" lon="9.255137380167573"><ele>661.0</ele><time>2026-05-02T15:54:15Z</time></trkpt><trkpt lat="44.53359836931743" lon="9.254945882810231"><ele>663.0</ele><time>2026-05-02T15:54:16Z</time></trkpt><trkpt lat="44.53341532435835" lon="9.254750507939884"><ele>665.0</ele><time>2026-05-02T15:54:17Z</time></trkpt><trkpt lat="44.533228010009246" lon="9.254578419340742"><ele>665.0</ele><time>2026-05-02T15:54:18Z</time></trkpt><trkpt lat="44.53307259955461" lon="9.254431847101992"><ele>665.0</ele><time>2026-05-02T15:54:19Z</time></trkpt><trkpt lat="44.53294054725486" lon="9.254319824262636"><ele>665.0</ele><time>2026-05-02T15:54:20Z</time></trkpt><trkpt lat="44.53281769355924" lon="9.254232403410882"><ele>659.6666666666666</ele><time>2026-05-02T15:54:21Z</time></trkpt><trkpt lat="44.53267563535388" lon="9.254183466967909"><ele>654.3333333333334</ele><time>2026-05-02T15:54:22Z</time></trkpt><trkpt lat="44.53246933020413" lon="9.254147596400115"><ele>649.0</ele><time>2026-05-02T15:54:23Z</time></trkpt><trkpt lat="44.5322656683371" lon="9.254142823781546"><ele>649.0</ele><time>2026-05-02T15:54:24Z</time></trkpt><trkpt lat="44.532084451679296" lon="9.254163731822612"><ele>649.0</ele><time>2026-05-02T15:54:25Z</time></trkpt><trkpt lat="44.53191782964714" lon="9.25422855997764"><ele>649.0</ele><time>2026-05-02T15:54:26Z</time></trkpt><trkpt lat="44.53173935787714" lon="9.254349622809174"><ele>653.6666666666667</ele><time>2026-05-02T15:54:27Z</time></trkpt><trkpt lat="44.53155441880851" lon="9.254513029038874"><ele>658.3333333333334</ele><time>2026-05-02T15:54:28Z</time></trkpt><trkpt lat="44.53137408685542" lon="9.25471337971263"><ele>663.0</ele><time>2026-05-02T15:54:29Z</time></trkpt><trkpt lat="44.53120183018134" lon="9.254968112485537"><ele>665.0</ele><time>2026-05-02T15:54:30Z</time></trkpt><trkpt lat="44.53104116478287" lon="9.255231232272088"><ele>667.0</ele><time>2026-05-02T15:54:31Z</time></trkpt><trkpt lat="44.53090963678522" lon="9.255470942006209"><ele>661.0</ele><time>2026-05-02T15:54:32Z</time></trkpt><trkpt lat="44.53078567551589" lon="9.255714442635606"><ele>655.0</ele><time>2026-05-02T15:54:33Z</time></trkpt><trkpt lat="44.530678833776776" lon="9.255957034230354"><ele>649.0</ele><time>2026-05-02T15:54:33.999Z</time></trkpt><trkpt lat="44.53059073489072" lon="9.256192926065344"><ele>649.0</ele><time>2026-05-02T15:54:34.999Z</time></trkpt><trkpt lat="44.53052244311649" lon="9.256400232707279"><ele>649.0</ele><time>2026-05-02T15:54:35.999Z</time></trkpt><trkpt lat="44.53046908878501" lon="9.256591636780081"><ele>649.0</ele><time>2026-05-02T15:54:36.999Z</time></trkpt><trkpt lat="44.53042592887928" lon="9.256791660788915"><ele>647.6666666666667</ele><time>2026-05-02T15:54:37.999Z</time></trkpt><trkpt lat="44.530413833738905" lon="9.257031486201404"><ele>646.3333333333334</ele><time>2026-05-02T15:54:38.999Z</time></trkpt><trkpt lat="44.53041622669678" lon="9.257325597537411"><ele>645.0</ele><time>2026-05-02T15:54:39.999Z</time></trkpt><trkpt lat="44.53040698744603" lon="9.257618716441108"><ele>645.0</ele><time>2026-05-02T15:54:40.999Z</time></trkpt><trkpt lat="44.53039213476148" lon="9.257924957367488"><ele>645.0</ele><time>2026-05-02T15:54:41.999Z</time></trkpt><trkpt lat="44.53039245414905" lon="9.258237280158033"><ele>645.0</ele><time>2026-05-02T15:54:42.999Z</time></trkpt><trkpt lat="44.53040934578332" lon="9.258551920055499"><ele>645.3333333333334</ele><time>2026-05-02T15:54:43.999Z</time></trkpt><trkpt lat="44.53042842549971" lon="9.258847567767615"><ele>645.6666666666667</ele><time>2026-05-02T15:54:44.999Z</time></trkpt><trkpt lat="44.53042686960409" lon="9.259114900617831"><ele>646.0</ele><time>2026-05-02T15:54:45.999Z</time></trkpt><trkpt lat="44.53045385025987" lon="9.259361529313757"><ele>646.3333333333334</ele><time>2026-05-02T15:54:46.999Z</time></trkpt><trkpt lat="44.53045502013833" lon="9.259597601508506"><ele>646.6666666666666</ele><time>2026-05-02T15:54:47.999Z</time></trkpt><trkpt lat="44.5304269500428" lon="9.259816688305133"><ele>647.0</ele><time>2026-05-02T15:54:48.999Z</time></trkpt><trkpt lat="44.53036177873532" lon="9.260025664784473"><ele>647.3333333333333</ele><time>2026-05-02T15:54:49.999Z</time></trkpt><trkpt lat="44.530248622513724" lon="9.260207319079514"><ele>647.6666666666666</ele><time>2026-05-02T15:54:50.999Z</time></trkpt><trkpt lat="44.530107698089736" lon="9.26034897620174"><ele>648.0</ele><time>2026-05-02T15:54:51.999Z</time></trkpt><trkpt lat="44.529953181811884" lon="9.260434380490002"><ele>648.0</ele><time>2026-05-02T15:54:52.999Z</time></trkpt><trkpt lat="44.52978200983559" lon="9.260462218506603"><ele>648.0</ele><time>2026-05-02T15:54:53.999Z</time></trkpt><trkpt lat="44.52959436997705" lon="9.260433517912443"><ele>648.0</ele><time>2026-05-02T15:54:54.999Z</time></trkpt><trkpt lat="44.52942363039431" lon="9.26034646047391"><ele>653.3333333333334</ele><time>2026-05-02T15:54:55.999Z</time></trkpt><trkpt lat="44.52923634862709" lon="9.260232070244406"><ele>658.6666666666667</ele><time>2026-05-02T15:54:56.999Z</time></trkpt><trkpt lat="44.52903836082191" lon="9.260161755034977"><ele>664.0</ele><time>2026-05-02T15:54:57.999Z</time></trkpt><trkpt lat="44.52884578444351" lon="9.260110719722208"><ele>660.0</ele><time>2026-05-02T15:54:58.999Z</time></trkpt><trkpt lat="44.52865906469246" lon="9.26007967972846"><ele>656.0</ele><time>2026-05-02T15:54:59.999Z</time></trkpt><trkpt lat="44.528496141727274" lon="9.26001660582055"><ele>652.0</ele><time>2026-05-02T15:55:00.999Z</time></trkpt><trkpt lat="44.52834816680079" lon="9.259868366530066"><ele>654.0</ele><time>2026-05-02T15:55:01.999Z</time></trkpt><trkpt lat="44.528171537844905" lon="9.259686729403153"><ele>656.0</ele><time>2026-05-02T15:55:02.999Z</time></trkpt><trkpt lat="44.528009641828575" lon="9.259475443589038"><ele>658.0</ele><time>2026-05-02T15:55:03.999Z</time></trkpt><trkpt lat="44.527859010035854" lon="9.25928480387875"><ele>658.0</ele><time>2026-05-02T15:55:04.999Z</time></trkpt><trkpt lat="44.527709690247804" lon="9.25913170192993"><ele>658.0</ele><time>2026-05-02T15:55:05.999Z</time></trkpt><trkpt lat="44.52753567391414" lon="9.259008985115644"><ele>658.0</ele><time>2026-05-02T15:55:06.999Z</time></trkpt><trkpt lat="44.52735902926172" lon="9.25890561461985"><ele>658.0</ele><time>2026-05-02T15:55:07.999Z</time></trkpt><trkpt lat="44.527199496003945" lon="9.258804097464688"><ele>658.0</ele><time>2026-05-02T15:55:08.999Z</time></trkpt><trkpt lat="44.52705076395491" lon="9.258682906814037"><ele>658.0</ele><time>2026-05-02T15:55:09.999Z</time></trkpt><trkpt lat="44.526912104698575" lon="9.258547564688481"><ele>658.0</ele><time>2026-05-02T15:55:10.999Z</time></trkpt><trkpt lat="44.52677941045648" lon="9.25840500794707"><ele>658.0</ele><time>2026-05-02T15:55:11.999Z</time></trkpt><trkpt lat="44.52665830614434" lon="9.258217818499887"><ele>658.0</ele><time>2026-05-02T15:55:12.999Z</time></trkpt><trkpt lat="44.52654814208208" lon="9.25799013538417"><ele>661.0</ele><time>2026-05-02T15:55:13.999Z</time></trkpt><trkpt lat="44.52647020406821" lon="9.257740200896434"><ele>664.0</ele><time>2026-05-02T15:55:14.999Z</time></trkpt><trkpt lat="44.52641255185538" lon="9.257480628108906"><ele>667.0</ele><time>2026-05-02T15:55:15.999Z</time></trkpt><trkpt lat="44.52639566382262" lon="9.257210078423055"><ele>667.0</ele><time>2026-05-02T15:55:16.999Z</time></trkpt><trkpt lat="44.526405511014886" lon="9.25693027168293"><ele>667.0</ele><time>2026-05-02T15:55:17.999Z</time></trkpt><trkpt lat="44.52645244006981" lon="9.256670962735216"><ele>667.0</ele><time>2026-05-02T15:55:18.999Z</time></trkpt><trkpt lat="44.526533493464825" lon="9.256417423416677"><ele>664.6666666666667</ele><time>2026-05-02T15:55:19.999Z</time></trkpt><trkpt lat="44.52664005081507" lon="9.256160369898769"><ele>662.3333333333334</ele><time>2026-05-02T15:55:20.999Z</time></trkpt><trkpt lat="44.526773994892935" lon="9.255888824110764"><ele>660.0</ele><time>2026-05-02T15:55:21.999Z</time></trkpt><trkpt lat="44.526908365393346" lon="9.255599479974466"><ele>657.0</ele><time>2026-05-02T15:55:22.999Z</time></trkpt><trkpt lat="44.527057693786745" lon="9.255264282373684"><ele>654.0</ele><time>2026-05-02T15:55:24Z</time></trkpt><trkpt lat="44.52722525896879" lon="9.25492365691353"><ele>655.5</ele><time>2026-05-02T15:55:25Z</time></trkpt><trkpt lat="44.527395218097205" lon="9.254618389218578"><ele>657.0</ele><time>2026-05-02T15:55:26Z</time></trkpt><trkpt lat="44.52755108889642" lon="9.254347524914277"><ele>657.0</ele><time>2026-05-02T15:55:27Z</time></trkpt><trkpt lat="44.527695864585716" lon="9.254095220981467"><ele>657.0</ele><time>2026-05-02T15:55:28Z</time></trkpt><trkpt lat="44.52783766089971" lon="9.253835703326812"><ele>663.3333333333334</ele><time>2026-05-02T15:55:29Z</time></trkpt><trkpt lat="44.527972419891434" lon="9.253587770123856"><ele>669.6666666666667</ele><time>2026-05-02T15:55:30Z</time></trkpt><trkpt lat="44.52808906505936" lon="9.25337264832179"><ele>676.0</ele><time>2026-05-02T15:55:31Z</time></trkpt><trkpt lat="44.52818785722607" lon="9.25319567200489"><ele>674.6666666666667</ele><time>2026-05-02T15:55:32Z</time></trkpt><trkpt lat="44.52827011942497" lon="9.25303213738019"><ele>673.3333333333334</ele><time>2026-05-02T15:55:33Z</time></trkpt><trkpt lat="44.528322526504624" lon="9.252839344902217"><ele>672.0</ele><time>2026-05-02T15:55:34Z</time></trkpt><trkpt lat="44.52834916719668" lon="9.252590154208983"><ele>672.0</ele><time>2026-05-02T15:55:35Z</time></trkpt><trkpt lat="44.528337980458105" lon="9.252302665340826"><ele>672.0</ele><time>2026-05-02T15:55:36Z</time></trkpt><trkpt lat="44.528321177099514" lon="9.25205197794604"><ele>672.0</ele><time>2026-05-02T15:55:37Z</time></trkpt><trkpt lat="44.52827851825147" lon="9.251829044787584"><ele>672.6666666666666</ele><time>2026-05-02T15:55:38Z</time></trkpt><trkpt lat="44.52820123649922" lon="9.251608644298312"><ele>673.3333333333333</ele><time>2026-05-02T15:55:39Z</time></trkpt><trkpt lat="44.528115616659804" lon="9.251413631677226"><ele>674.0</ele><time>2026-05-02T15:55:40Z</time></trkpt><trkpt lat="44.52801405087249" lon="9.251258819025344"><ele>669.5</ele><time>2026-05-02T15:55:41Z</time></trkpt><trkpt lat="44.52789106869502" lon="9.251128476393184"><ele>665.0</ele><time>2026-05-02T15:55:42Z</time></trkpt><trkpt lat="44.52777810049809" lon="9.251027467750461"><ele>660.5</ele><time>2026-05-02T15:55:43Z</time></trkpt><trkpt lat="44.52767430490716" lon="9.25095391509965"><ele>656.0</ele><time>2026-05-02T15:55:44Z</time></trkpt><trkpt lat="44.52757987438085" lon="9.250856551499941"><ele>656.0</ele><time>2026-05-02T15:55:45Z</time></trkpt><trkpt lat="44.52747713928421" lon="9.250755663044698"><ele>656.0</ele><time>2026-05-02T15:55:46Z</time></trkpt><trkpt lat="44.52738568648912" lon="9.25064030735116"><ele>656.0</ele><time>2026-05-02T15:55:47Z</time></trkpt><trkpt lat="44.5273039944189" lon="9.250521972765863"><ele>656.0</ele><time>2026-05-02T15:55:48Z</time></trkpt><trkpt lat="44.52722070351776" lon="9.250402632927344"><ele>656.75</ele><time>2026-05-02T15:55:49Z</time></trkpt><trkpt lat="44.52712425750879" lon="9.250268234705723"><ele>657.5</ele><time>2026-05-02T15:55:50Z</time></trkpt><trkpt lat="44.527023116371986" lon="9.250123027129321"><ele>658.25</ele><time>2026-05-02T15:55:51Z</time></trkpt><trkpt lat="44.52693644054059" lon="9.249998281092973"><ele>659.0</ele><time>2026-05-02T15:55:52Z</time></trkpt><trkpt lat="44.52684545685706" lon="9.249894703076794"><ele>660.5</ele><time>2026-05-02T15:55:53Z</time></trkpt><trkpt lat="44.526763314356565" lon="9.249769401491339"><ele>662.0</ele><time>2026-05-02T15:55:54Z</time></trkpt><trkpt lat="44.526683263327065" lon="9.249644621374435"><ele>663.5</ele><time>2026-05-02T15:55:55Z</time></trkpt><trkpt lat="44.52660698371339" lon="9.249524996124967"><ele>665.0</ele><time>2026-05-02T15:55:56Z</time></trkpt><trkpt lat="44.526529578933406" lon="9.249408972010366"><ele>665.0</ele><time>2026-05-02T15:55:57Z</time></trkpt><trkpt lat="44.52645257022815" lon="9.249290388639219"><ele>665.0</ele><time>2026-05-02T15:55:58Z</time></trkpt><trkpt lat="44.52638125709001" lon="9.249177486584749"><ele>665.0</ele><time>2026-05-02T15:55:59Z</time></trkpt><trkpt lat="44.52631398434565" lon="9.249056000017369"><ele>665.0</ele><time>2026-05-02T15:56:00Z</time></trkpt><trkpt lat="44.526252879468515" lon="9.248923737355746"><ele>665.0</ele><time>2026-05-02T15:56:01Z</time></trkpt><trkpt lat="44.526191554950884" lon="9.248787967608306"><ele>664.6</ele><time>2026-05-02T15:56:02Z</time></trkpt><trkpt lat="44.526129678664496" lon="9.248656233309866"><ele>664.2</ele><time>2026-05-02T15:56:03Z</time></trkpt><trkpt lat="44.52606747765828" lon="9.24852808313765"><ele>663.8</ele><time>2026-05-02T15:56:04Z</time></trkpt><trkpt lat="44.526006351247275" lon="9.248402958597802"><ele>663.4</ele><time>2026-05-02T15:56:05Z</time></trkpt><trkpt lat="44.525947396794315" lon="9.248274408166987"><ele>663.0</ele><time>2026-05-02T15:56:06Z</time></trkpt><trkpt lat="44.525884408085325" lon="9.248136629621486"><ele>664.0</ele><time>2026-05-02T15:56:07Z</time></trkpt><trkpt lat="44.52581782296973" lon="9.247991515787527"><ele>665.0</ele><time>2026-05-02T15:56:08Z</time></trkpt><trkpt lat="44.52575230322681" lon="9.247856216504754"><ele>666.0</ele><time>2026-05-02T15:56:09Z</time></trkpt><trkpt lat="44.525685405512014" lon="9.247727001313946"><ele>667.0</ele><time>2026-05-02T15:56:10Z</time></trkpt><trkpt lat="44.525613677502555" lon="9.247586764951334"><ele>667.0</ele><time>2026-05-02T15:56:11Z</time></trkpt><trkpt lat="44.525529963067235" lon="9.247443491384468"><ele>667.0</ele><time>2026-05-02T15:56:12Z</time></trkpt><trkpt lat="44.52545685471381" lon="9.247311771611962"><ele>667.0</ele><time>2026-05-02T15:56:13Z</time></trkpt><trkpt lat="44.52539149523526" lon="9.247193607379643"><ele>667.0</ele><time>2026-05-02T15:56:14Z</time></trkpt><trkpt lat="44.5253244204124" lon="9.247064514074237"><ele>665.5</ele><time>2026-05-02T15:56:15Z</time></trkpt><trkpt lat="44.52526353087351" lon="9.246920051355806"><ele>664.0</ele><time>2026-05-02T15:56:16Z</time></trkpt><trkpt lat="44.52522134849392" lon="9.246774541384308"><ele>662.5</ele><time>2026-05-02T15:56:17Z</time></trkpt><trkpt lat="44.525191092649436" lon="9.246627619795724"><ele>661.0</ele><time>2026-05-02T15:56:18Z</time></trkpt><trkpt lat="44.52520291424683" lon="9.246463926564765"><ele>660.3333333333334</ele><time>2026-05-02T15:56:19Z</time></trkpt><trkpt lat="44.52524821036863" lon="9.246244830529914"><ele>659.6666666666666</ele><time>2026-05-02T15:56:20Z</time></trkpt><trkpt lat="44.52530492887831" lon="9.246027827620512"><ele>659.0</ele><time>2026-05-02T15:56:21Z</time></trkpt><trkpt lat="44.52533255504411" lon="9.245792951503441"><ele>658.6666666666666</ele><time>2026-05-02T15:56:22Z</time></trkpt><trkpt lat="44.5253475604665" lon="9.245554169310402"><ele>658.3333333333334</ele><time>2026-05-02T15:56:23Z</time></trkpt><trkpt lat="44.52537499850562" lon="9.245323968508885"><ele>658.0</ele><time>2026-05-02T15:56:24Z</time></trkpt><trkpt lat="44.525445991384174" lon="9.245053557471543"><ele>667.0</ele><time>2026-05-02T15:56:25Z</time></trkpt><trkpt lat="44.52552948463265" lon="9.24471908211583"><ele>676.0</ele><time>2026-05-02T15:56:26Z</time></trkpt><trkpt lat="44.52563922690743" lon="9.24440206733384"><ele>676.0</ele><time>2026-05-02T15:56:27Z</time></trkpt><trkpt lat="44.525727794045615" lon="9.244117691685913"><ele>676.0</ele><time>2026-05-02T15:56:28Z</time></trkpt><trkpt lat="44.52579667958624" lon="9.243859294597419"><ele>676.0</ele><time>2026-05-02T15:56:29Z</time></trkpt><trkpt lat="44.52585790501085" lon="9.24362266194708"><ele>673.6666666666667</ele><time>2026-05-02T15:56:30Z</time></trkpt><trkpt lat="44.52595410159555" lon="9.243429079638123"><ele>671.3333333333334</ele><time>2026-05-02T15:56:31Z</time></trkpt><trkpt lat="44.52605080938518" lon="9.243245405196365"><ele>669.0</ele><time>2026-05-02T15:56:32Z</time></trkpt><trkpt lat="44.52613964545509" lon="9.243052942742343"><ele>667.3333333333334</ele><time>2026-05-02T15:56:33Z</time></trkpt><trkpt lat="44.526194421762035" lon="9.242800849111225"><ele>665.6666666666667</ele><time>2026-05-02T15:56:34Z</time></trkpt><trkpt lat="44.526244458713755" lon="9.242523266944444"><ele>664.0</ele><time>2026-05-02T15:56:35Z</time></trkpt><trkpt lat="44.52626462145272" lon="9.242294215962113"><ele>665.3333333333334</ele><time>2026-05-02T15:56:35.999Z</time></trkpt><trkpt lat="44.52628760506478" lon="9.241939410610353"><ele>666.6666666666666</ele><time>2026-05-02T15:56:36.999Z</time></trkpt><trkpt lat="44.52631704924186" lon="9.241688663349256"><ele>668.0</ele><time>2026-05-02T15:56:37.999Z</time></trkpt><trkpt lat="44.52634600979436" lon="9.241455300345978"><ele>668.0</ele><time>2026-05-02T15:56:38.999Z</time></trkpt><trkpt lat="44.52633175082096" lon="9.24123349513823"><ele>668.0</ele><time>2026-05-02T15:56:39.999Z</time></trkpt><trkpt lat="44.5262722613014" lon="9.240978803347117"><ele>668.0</ele><time>2026-05-02T15:56:40.999Z</time></trkpt><trkpt lat="44.526178903473486" lon="9.240685052238044"><ele>667.6666666666666</ele><time>2026-05-02T15:56:41.999Z</time></trkpt><trkpt lat="44.52608939824751" lon="9.24041744035059"><ele>667.3333333333334</ele><time>2026-05-02T15:56:42.999Z</time></trkpt><trkpt lat="44.52602897750748" lon="9.240191278862804"><ele>667.0</ele><time>2026-05-02T15:56:43.999Z</time></trkpt><trkpt lat="44.52602824653284" lon="9.23997718970566"><ele>668.3333333333334</ele><time>2026-05-02T15:56:44.999Z</time></trkpt><trkpt lat="44.52608258835818" lon="9.23977588712939"><ele>669.6666666666666</ele><time>2026-05-02T15:56:45.999Z</time></trkpt><trkpt lat="44.52616431817317" lon="9.239540594689428"><ele>671.0</ele><time>2026-05-02T15:56:46.999Z</time></trkpt><trkpt lat="44.526270192703485" lon="9.239251123433919"><ele>676.0</ele><time>2026-05-02T15:56:47.999Z</time></trkpt><trkpt lat="44.52636289150641" lon="9.23898591117875"><ele>681.0</ele><time>2026-05-02T15:56:48.999Z</time></trkpt><trkpt lat="44.52644010119173" lon="9.238780158027954"><ele>686.0</ele><time>2026-05-02T15:56:49.999Z</time></trkpt><trkpt lat="44.52645624018806" lon="9.238559421335182"><ele>688.0</ele><time>2026-05-02T15:56:50.999Z</time></trkpt><trkpt lat="44.52642874154988" lon="9.238328621734198"><ele>690.0</ele><time>2026-05-02T15:56:51.999Z</time></trkpt><trkpt lat="44.526364067085716" lon="9.238103919758863"><ele>692.0</ele><time>2026-05-02T15:56:52.999Z</time></trkpt><trkpt lat="44.52626512259835" lon="9.237891330375737"><ele>681.5</ele><time>2026-05-02T15:56:53.999Z</time></trkpt><trkpt lat="44.526115310422355" lon="9.237669288342756"><ele>671.0</ele><time>2026-05-02T15:56:54.999Z</time></trkpt><trkpt lat="44.525936687879636" lon="9.237437225610526"><ele>682.5</ele><time>2026-05-02T15:56:55.999Z</time></trkpt><trkpt lat="44.52574252154972" lon="9.237228194090726"><ele>694.0</ele><time>2026-05-02T15:56:56.999Z</time></trkpt><trkpt lat="44.525549489487" lon="9.237061243251633"><ele>694.0</ele><time>2026-05-02T15:56:57.999Z</time></trkpt><trkpt lat="44.52539887398886" lon="9.23689282218379"><ele>694.0</ele><time>2026-05-02T15:56:58.999Z</time></trkpt><trkpt lat="44.52527616506145" lon="9.236663350351476"><ele>694.0</ele><time>2026-05-02T15:56:59.999Z</time></trkpt><trkpt lat="44.52515820222257" lon="9.236420211407273"><ele>696.3333333333334</ele><time>2026-05-02T15:57:00.999Z</time></trkpt><trkpt lat="44.525037311563885" lon="9.236240399332253"><ele>698.6666666666666</ele><time>2026-05-02T15:57:01.999Z</time></trkpt><trkpt lat="44.52490353501312" lon="9.236100981435152"><ele>701.0</ele><time>2026-05-02T15:57:02.999Z</time></trkpt><trkpt lat="44.52472953144831" lon="9.235996127641863"><ele>696.0</ele><time>2026-05-02T15:57:03.999Z</time></trkpt><trkpt lat="44.524516927890616" lon="9.235916787170558"><ele>691.0</ele><time>2026-05-02T15:57:04.999Z</time></trkpt><trkpt lat="44.52424666249449" lon="9.23583209600461"><ele>691.0</ele><time>2026-05-02T15:57:05.999Z</time></trkpt><trkpt lat="44.52393618568911" lon="9.23573710942686"><ele>691.0</ele><time>2026-05-02T15:57:06.999Z</time></trkpt><trkpt lat="44.523613539612626" lon="9.235630257700633"><ele>695.0</ele><time>2026-05-02T15:57:07.999Z</time></trkpt><trkpt lat="44.52334666614606" lon="9.235551778746192"><ele>699.0</ele><time>2026-05-02T15:57:08.999Z</time></trkpt><trkpt lat="44.5231235227496" lon="9.235469725474259"><ele>699.0</ele><time>2026-05-02T15:57:09.999Z</time></trkpt><trkpt lat="44.522922169865716" lon="9.235379394888474"><ele>699.0</ele><time>2026-05-02T15:57:10.999Z</time></trkpt><trkpt lat="44.52272643938277" lon="9.235213844850886"><ele>699.0</ele><time>2026-05-02T15:57:11.999Z</time></trkpt><trkpt lat="44.52253116878553" lon="9.23502510406551"><ele>703.5</ele><time>2026-05-02T15:57:12.999Z</time></trkpt><trkpt lat="44.5223446004026" lon="9.234804901007019"><ele>708.0</ele><time>2026-05-02T15:57:13.999Z</time></trkpt><trkpt lat="44.52217235126816" lon="9.234592588418101"><ele>701.6666666666666</ele><time>2026-05-02T15:57:14.999Z</time></trkpt><trkpt lat="44.5220167314358" lon="9.234420821429358"><ele>695.3333333333333</ele><time>2026-05-02T15:57:15.999Z</time></trkpt><trkpt lat="44.52190828834456" lon="9.23425275008479"><ele>689.0</ele><time>2026-05-02T15:57:16.999Z</time></trkpt><trkpt lat="44.521857399713674" lon="9.2340460056688"><ele>693.0</ele><time>2026-05-02T15:57:17.999Z</time></trkpt><trkpt lat="44.521846169410075" lon="9.233850461011432"><ele>697.0</ele><time>2026-05-02T15:57:18.999Z</time></trkpt><trkpt lat="44.52182794604588" lon="9.233545903094495"><ele>701.0</ele><time>2026-05-02T15:57:19.999Z</time></trkpt><trkpt lat="44.521782393861876" lon="9.233192013540206"><ele>703.0</ele><time>2026-05-02T15:57:20.999Z</time></trkpt><trkpt lat="44.5217546166151" lon="9.232920501790998"><ele>705.0</ele><time>2026-05-02T15:57:21.999Z</time></trkpt><trkpt lat="44.5217315202411" lon="9.23269485511276"><ele>707.0</ele><time>2026-05-02T15:57:22.999Z</time></trkpt><trkpt lat="44.521689753121926" lon="9.232488207493558"><ele>713.6666666666666</ele><time>2026-05-02T15:57:23.999Z</time></trkpt><trkpt lat="44.5216114393421" lon="9.232296362640705"><ele>720.3333333333334</ele><time>2026-05-02T15:57:24.999Z</time></trkpt><trkpt lat="44.521492529617504" lon="9.232111907348342"><ele>727.0</ele><time>2026-05-02T15:57:25.999Z</time></trkpt><trkpt lat="44.52134370842445" lon="9.231927434629768"><ele>721.3333333333334</ele><time>2026-05-02T15:57:26.999Z</time></trkpt><trkpt lat="44.52117342287976" lon="9.23173495715192"><ele>715.6666666666666</ele><time>2026-05-02T15:57:27.999Z</time></trkpt><trkpt lat="44.52100432768541" lon="9.231593522831083"><ele>710.0</ele><time>2026-05-02T15:57:28.999Z</time></trkpt><trkpt lat="44.520819792046986" lon="9.23149241073829"><ele>712.0</ele><time>2026-05-02T15:57:30Z</time></trkpt><trkpt lat="44.52063351918605" lon="9.231357805734287"><ele>714.0</ele><time>2026-05-02T15:57:31Z</time></trkpt><trkpt lat="44.520453179066195" lon="9.231142323912295"><ele>716.0</ele><time>2026-05-02T15:57:32Z</time></trkpt><trkpt lat="44.52026614090322" lon="9.230874100756333"><ele>726.3333333333333</ele><time>2026-05-02T15:57:33Z</time></trkpt><trkpt lat="44.520094177886854" lon="9.230638486080089"><ele>736.6666666666666</ele><time>2026-05-02T15:57:34Z</time></trkpt><trkpt lat="44.519958038720894" lon="9.230436159845103"><ele>747.0</ele><time>2026-05-02T15:57:35Z</time></trkpt><trkpt lat="44.51984016902558" lon="9.230263268329864"><ele>747.0</ele><time>2026-05-02T15:57:36Z</time></trkpt><trkpt lat="44.5196978499707" lon="9.230147479867984"><ele>747.0</ele><time>2026-05-02T15:57:37Z</time></trkpt><trkpt lat="44.519534339810114" lon="9.230066385170195"><ele>747.0</ele><time>2026-05-02T15:57:38Z</time></trkpt><trkpt lat="44.519343607722284" lon="9.229980086404808"><ele>749.0</ele><time>2026-05-02T15:57:39Z</time></trkpt><trkpt lat="44.51914020917288" lon="9.22988351674724"><ele>751.0</ele><time>2026-05-02T15:57:40Z</time></trkpt><trkpt lat="44.51893539065347" lon="9.229791733920498"><ele>753.0</ele><time>2026-05-02T15:57:41Z</time></trkpt><trkpt lat="44.518762550556254" lon="9.22970252749975"><ele>748.3333333333334</ele><time>2026-05-02T15:57:42Z</time></trkpt><trkpt lat="44.518599845481596" lon="9.229621656847419"><ele>743.6666666666667</ele><time>2026-05-02T15:57:43Z</time></trkpt><trkpt lat="44.518447167889846" lon="9.229548864213076"><ele>739.0</ele><time>2026-05-02T15:57:44Z</time></trkpt><trkpt lat="44.51828978252731" lon="9.229482021120281"><ele>739.0</ele><time>2026-05-02T15:57:45Z</time></trkpt><trkpt lat="44.51814672283158" lon="9.229430977075628"><ele>739.0</ele><time>2026-05-02T15:57:46Z</time></trkpt><trkpt lat="44.51800827763014" lon="9.22942474742982"><ele>739.0</ele><time>2026-05-02T15:57:47Z</time></trkpt><trkpt lat="44.51785570492189" lon="9.229456434395393"><ele>739.0</ele><time>2026-05-02T15:57:48Z</time></trkpt><trkpt lat="44.51768866214997" lon="9.22949218424674"><ele>744.3333333333334</ele><time>2026-05-02T15:57:49Z</time></trkpt><trkpt lat="44.51753233357173" lon="9.229521763862417"><ele>749.6666666666666</ele><time>2026-05-02T15:57:50Z</time></trkpt><trkpt lat="44.51738057076646" lon="9.229525038822473"><ele>755.0</ele><time>2026-05-02T15:57:51Z</time></trkpt><trkpt lat="44.51721439994181" lon="9.229522614061699"><ele>757.0</ele><time>2026-05-02T15:57:52Z</time></trkpt><trkpt lat="44.517003755141815" lon="9.229518637922967"><ele>759.0</ele><time>2026-05-02T15:57:53Z</time></trkpt><trkpt lat="44.51682385332467" lon="9.2296052124538"><ele>761.0</ele><time>2026-05-02T15:57:54Z</time></trkpt><trkpt lat="44.516676947081294" lon="9.229665775182943"><ele>761.0</ele><time>2026-05-02T15:57:55Z</time></trkpt><trkpt lat="44.51655132139821" lon="9.229719316586065"><ele>761.0</ele><time>2026-05-02T15:57:56Z</time></trkpt><trkpt lat="44.516431522023105" lon="9.229721842939554"><ele>761.0</ele><time>2026-05-02T15:57:57Z</time></trkpt><trkpt lat="44.51632293591586" lon="9.229705992736095"><ele>761.0</ele><time>2026-05-02T15:57:58Z</time></trkpt><trkpt lat="44.51621355342796" lon="9.229651643710618"><ele>754.25</ele><time>2026-05-02T15:57:59Z</time></trkpt><trkpt lat="44.51609889269158" lon="9.229579308123373"><ele>747.5</ele><time>2026-05-02T15:58:00Z</time></trkpt><trkpt lat="44.51601528650469" lon="9.229451772646497"><ele>740.75</ele><time>2026-05-02T15:58:01Z</time></trkpt><trkpt lat="44.51597220679546" lon="9.229290279073851"><ele>734.0</ele><time>2026-05-02T15:58:02Z</time></trkpt><trkpt lat="44.515917906973414" lon="9.229136771424592"><ele>734.0</ele><time>2026-05-02T15:58:03Z</time></trkpt><trkpt lat="44.51588645719428" lon="9.2289975659339"><ele>734.0</ele><time>2026-05-02T15:58:04Z</time></trkpt><trkpt lat="44.51585374091637" lon="9.228862988377609"><ele>734.0</ele><time>2026-05-02T15:58:05Z</time></trkpt><trkpt lat="44.515824610469" lon="9.228724170402556"><ele>734.0</ele><time>2026-05-02T15:58:06Z</time></trkpt><trkpt lat="44.515885999855435" lon="9.228501405347183"><ele>734.0</ele><time>2026-05-02T15:58:08Z</time></trkpt><trkpt lat="44.51591590216638" lon="9.228343178276571"><ele>734.0</ele><time>2026-05-02T15:58:09Z</time></trkpt><trkpt lat="44.51594467007439" lon="9.228190953491355"><ele>734.0</ele><time>2026-05-02T15:58:10Z</time></trkpt><trkpt lat="44.51597863948732" lon="9.228024607124896"><ele>734.0</ele><time>2026-05-02T15:58:11Z</time></trkpt><trkpt lat="44.51602472042506" lon="9.227825333062585"><ele>734.3333333333333</ele><time>2026-05-02T15:58:12Z</time></trkpt><trkpt lat="44.51608821431405" lon="9.227575475715243"><ele>734.6666666666666</ele><time>2026-05-02T15:58:13Z</time></trkpt><trkpt lat="44.516159156743306" lon="9.227315519009847"><ele>735.0</ele><time>2026-05-02T15:58:14Z</time></trkpt><trkpt lat="44.51623033859571" lon="9.227057657338632"><ele>748.3333333333333</ele><time>2026-05-02T15:58:15Z</time></trkpt><trkpt lat="44.51629575027141" lon="9.226821789261304"><ele>761.6666666666666</ele><time>2026-05-02T15:58:16Z</time></trkpt><trkpt lat="44.51634613645057" lon="9.226613463148821"><ele>775.0</ele><time>2026-05-02T15:58:17Z</time></trkpt><trkpt lat="44.51636723398202" lon="9.22639205431619"><ele>775.0</ele><time>2026-05-02T15:58:18Z</time></trkpt><trkpt lat="44.51637393752036" lon="9.226194510714057"><ele>775.0</ele><time>2026-05-02T15:58:19Z</time></trkpt><trkpt lat="44.51638376462061" lon="9.22602320862923"><ele>775.0</ele><time>2026-05-02T15:58:20Z</time></trkpt><trkpt lat="44.51641438223538" lon="9.225855410612104"><ele>775.0</ele><time>2026-05-02T15:58:21Z</time></trkpt><trkpt lat="44.51646239035288" lon="9.22569947961938"><ele>775.8</ele><time>2026-05-02T15:58:22Z</time></trkpt><trkpt lat="44.51652085186204" lon="9.225526131165026"><ele>776.6</ele><time>2026-05-02T15:58:23Z</time></trkpt><trkpt lat="44.516573744771634" lon="9.225404828743288"><ele>777.4000000000001</ele><time>2026-05-02T15:58:24Z</time></trkpt><trkpt lat="44.51661192413197" lon="9.225308556663942"><ele>778.2</ele><time>2026-05-02T15:58:25Z</time></trkpt><trkpt lat="44.516648814545775" lon="9.225215534320869"><ele>779.0</ele><time>2026-05-02T15:58:26Z</time></trkpt><trkpt lat="44.51668235078125" lon="9.225122053638747"><ele>779.0</ele><time>2026-05-02T15:58:27Z</time></trkpt><trkpt lat="44.51669519919802" lon="9.224999367869424"><ele>779.0</ele><time>2026-05-02T15:58:28Z</time></trkpt><trkpt lat="44.51666498495989" lon="9.224859103813783"><ele>779.0</ele><time>2026-05-02T15:58:29Z</time></trkpt><trkpt lat="44.516575430216875" lon="9.2247473187186"><ele>779.0</ele><time>2026-05-02T15:58:30Z</time></trkpt><trkpt lat="44.51646034433219" lon="9.224699834549487"><ele>779.0</ele><time>2026-05-02T15:58:31Z</time></trkpt><trkpt lat="44.51634013385376" lon="9.224784134833401"><ele>775.3333333333334</ele><time>2026-05-02T15:58:32Z</time></trkpt><trkpt lat="44.51624013867948" lon="9.224771393750203"><ele>771.6666666666667</ele><time>2026-05-02T15:58:33Z</time></trkpt><trkpt lat="44.51616014029439" lon="9.224741163816528"><ele>768.0</ele><time>2026-05-02T15:58:34Z</time></trkpt><trkpt lat="44.51607897826722" lon="9.224696748927556"><ele>764.3333333333334</ele><time>2026-05-02T15:58:35Z</time></trkpt><trkpt lat="44.51598834892839" lon="9.224641898134"><ele>760.6666666666667</ele><time>2026-05-02T15:58:36Z</time></trkpt><trkpt lat="44.51592165960736" lon="9.224583745699702"><ele>757.0</ele><time>2026-05-02T15:58:36.999Z</time></trkpt><trkpt lat="44.51587337440354" lon="9.224517095433718"><ele>757.0</ele><time>2026-05-02T15:58:37.999Z</time></trkpt><trkpt lat="44.51584328271619" lon="9.224427622878304"><ele>757.0</ele><time>2026-05-02T15:58:38.999Z</time></trkpt><trkpt lat="44.51581124371887" lon="9.224286188698883"><ele>757.0</ele><time>2026-05-02T15:58:39.999Z</time></trkpt><trkpt lat="44.515799094885956" lon="9.22413089071302"><ele>757.0</ele><time>2026-05-02T15:58:40.999Z</time></trkpt><trkpt lat="44.51580327568546" lon="9.223989696462157"><ele>757.0</ele><time>2026-05-02T15:58:41.999Z</time></trkpt><trkpt lat="44.51581573360389" lon="9.22386040655016"><ele>760.4000000000001</ele><time>2026-05-02T15:58:42.999Z</time></trkpt><trkpt lat="44.515824036775754" lon="9.223755786643915"><ele>763.8000000000001</ele><time>2026-05-02T15:58:43.999Z</time></trkpt><trkpt lat="44.51581911408252" lon="9.223638446793025"><ele>767.2</ele><time>2026-05-02T15:58:44.999Z</time></trkpt><trkpt lat="44.51573332355682" lon="9.223501530819803"><ele>770.6</ele><time>2026-05-02T15:58:45.999Z</time></trkpt><trkpt lat="44.51559676296258" lon="9.223466505548169"><ele>774.0</ele><time>2026-05-02T15:58:46.999Z</time></trkpt><trkpt lat="44.51551454348312" lon="9.223406771052156"><ele>774.0</ele><time>2026-05-02T15:58:47.999Z</time></trkpt><trkpt lat="44.51546130663752" lon="9.223349992014624"><ele>774.0</ele><time>2026-05-02T15:58:48.999Z</time></trkpt><trkpt lat="44.51541773395704" lon="9.223235899977611"><ele>774.0</ele><time>2026-05-02T15:58:50.999Z</time></trkpt><trkpt lat="44.51542944999336" lon="9.22312170751088"><ele>774.0</ele><time>2026-05-02T15:58:52.999Z</time></trkpt><trkpt lat="44.51547373799954" lon="9.223034475171335"><ele>774.0</ele><time>2026-05-02T15:58:53.999Z</time></trkpt><trkpt lat="44.51553835467383" lon="9.222937730531902"><ele>774.0</ele><time>2026-05-02T15:58:54.999Z</time></trkpt><trkpt lat="44.515618069582786" lon="9.222877287060978"><ele>773.8333333333334</ele><time>2026-05-02T15:58:55.999Z</time></trkpt><trkpt lat="44.51568958168871" lon="9.222800923838747"><ele>773.6666666666667</ele><time>2026-05-02T15:58:56.999Z</time></trkpt><trkpt lat="44.51575010677422" lon="9.22271955078026"><ele>773.5</ele><time>2026-05-02T15:58:57.999Z</time></trkpt><trkpt lat="44.515809996449775" lon="9.222629940130695"><ele>773.3333333333334</ele><time>2026-05-02T15:58:58.999Z</time></trkpt><trkpt lat="44.51586177206075" lon="9.22252100676346"><ele>773.1666666666667</ele><time>2026-05-02T15:58:59.999Z</time></trkpt><trkpt lat="44.51590234586789" lon="9.222431835130406"><ele>773.0</ele><time>2026-05-02T15:59:00.999Z</time></trkpt><trkpt lat="44.51589948336392" lon="9.222302831427209"><ele>780.75</ele><time>2026-05-02T15:59:01.999Z</time></trkpt><trkpt lat="44.51586207136783" lon="9.22218270246047"><ele>788.5</ele><time>2026-05-02T15:59:02.999Z</time></trkpt><trkpt lat="44.515758670206274" lon="9.222113518103285"><ele>796.25</ele><time>2026-05-02T15:59:03.999Z</time></trkpt><trkpt lat="44.51563569402553" lon="9.222104530355269"><ele>804.0</ele><time>2026-05-02T15:59:04.999Z</time></trkpt><trkpt lat="44.515501581572906" lon="9.222152462347392"><ele>800.6666666666667</ele><time>2026-05-02T15:59:05.999Z</time></trkpt><trkpt lat="44.515335634680184" lon="9.222171105376598"><ele>797.3333333333334</ele><time>2026-05-02T15:59:06.999Z</time></trkpt><trkpt lat="44.51517917727111" lon="9.222159646284153"><ele>794.0</ele><time>2026-05-02T15:59:07.999Z</time></trkpt><trkpt lat="44.51503014694249" lon="9.222113238867456"><ele>794.0</ele><time>2026-05-02T15:59:08.999Z</time></trkpt><trkpt lat="44.514832121843014" lon="9.22213223266348"><ele>794.0</ele><time>2026-05-02T15:59:09.999Z</time></trkpt><trkpt lat="44.51464650042617" lon="9.222203156053629"><ele>794.0</ele><time>2026-05-02T15:59:10.999Z</time></trkpt><trkpt lat="44.51437899559557" lon="9.222237006681086"><ele>794.6666666666667</ele><time>2026-05-02T15:59:11.999Z</time></trkpt><trkpt lat="44.51421681759658" lon="9.222217848920119"><ele>795.3333333333333</ele><time>2026-05-02T15:59:12.999Z</time></trkpt><trkpt lat="44.51401188581986" lon="9.222213745714448"><ele>796.0</ele><time>2026-05-02T15:59:13.999Z</time></trkpt><trkpt lat="44.51374501283663" lon="9.222201997878493"><ele>797.0</ele><time>2026-05-02T15:59:14.999Z</time></trkpt><trkpt lat="44.51348457628429" lon="9.222164226494026"><ele>798.0</ele><time>2026-05-02T15:59:15.999Z</time></trkpt><trkpt lat="44.513244504887666" lon="9.22210973108032"><ele>798.0</ele><time>2026-05-02T15:59:16.999Z</time></trkpt><trkpt lat="44.513026933723495" lon="9.222125442340944"><ele>798.0</ele><time>2026-05-02T15:59:17.999Z</time></trkpt><trkpt lat="44.51285917824473" lon="9.222178894879157"><ele>798.0</ele><time>2026-05-02T15:59:18.999Z</time></trkpt><trkpt lat="44.51268881487013" lon="9.222165892935402"><ele>795.2</ele><time>2026-05-02T15:59:19.999Z</time></trkpt><trkpt lat="44.5126271103191" lon="9.22219073400457"><ele>792.4</ele><time>2026-05-02T15:59:20.999Z</time></trkpt><trkpt lat="44.51248851085777" lon="9.222152603629297"><ele>789.6</ele><time>2026-05-02T15:59:21.999Z</time></trkpt><trkpt lat="44.51240962584316" lon="9.222109583163242"><ele>786.8000000000001</ele><time>2026-05-02T15:59:22.999Z</time></trkpt><trkpt lat="44.512336586552046" lon="9.221950650361775"><ele>784.0</ele><time>2026-05-02T15:59:23.999Z</time></trkpt><trkpt lat="44.51221993463715" lon="9.221790997210693"><ele>778.0</ele><time>2026-05-02T15:59:24.999Z</time></trkpt><trkpt lat="44.51207113674136" lon="9.221545224575113"><ele>772.0</ele><time>2026-05-02T15:59:25.999Z</time></trkpt><trkpt lat="44.51192949852228" lon="9.221348946227842"><ele>766.0</ele><time>2026-05-02T15:59:26.999Z</time></trkpt><trkpt lat="44.511820656312736" lon="9.22114037417622"><ele>766.0</ele><time>2026-05-02T15:59:27.999Z</time></trkpt><trkpt lat="44.51172008062391" lon="9.220921955986388"><ele>766.0</ele><time>2026-05-02T15:59:28.999Z</time></trkpt><trkpt lat="44.51157512624493" lon="9.22072872150763"><ele>766.0</ele><time>2026-05-02T15:59:29.999Z</time></trkpt><trkpt lat="44.511435100964256" lon="9.22054102280108"><ele>768.0</ele><time>2026-05-02T15:59:30.999Z</time></trkpt><trkpt lat="44.51130649508053" lon="9.220367989224043"><ele>770.0</ele><time>2026-05-02T15:59:31.999Z</time></trkpt><trkpt lat="44.51123984669279" lon="9.220216370269034"><ele>772.0</ele><time>2026-05-02T15:59:32.999Z</time></trkpt><trkpt lat="44.511195107478656" lon="9.220114593150539"><ele>774.0</ele><time>2026-05-02T15:59:33.999Z</time></trkpt><trkpt lat="44.5112383745256" lon="9.219998756591606"><ele>774.0</ele><time>2026-05-02T15:59:34.999Z</time></trkpt><trkpt lat="44.51127478512158" lon="9.21992635240391"><ele>774.0</ele><time>2026-05-02T15:59:36Z</time></trkpt><trkpt lat="44.5113918621395" lon="9.21986905676218"><ele>774.0</ele><time>2026-05-02T15:59:37Z</time></trkpt><trkpt lat="44.51151848609341" lon="9.219759523067793"><ele>774.0</ele><time>2026-05-02T15:59:38Z</time></trkpt><trkpt lat="44.511739788657415" lon="9.21962055995861"><ele>765.5</ele><time>2026-05-02T15:59:39Z</time></trkpt><trkpt lat="44.511978350536836" lon="9.219456735987082"><ele>757.0</ele><time>2026-05-02T15:59:40Z</time></trkpt><trkpt lat="44.51216626242696" lon="9.219330473678099"><ele>757.0</ele><time>2026-05-02T15:59:41Z</time></trkpt><trkpt lat="44.5123419637943" lon="9.21929188598582"><ele>757.0</ele><time>2026-05-02T15:59:42Z</time></trkpt><trkpt lat="44.51255103254733" lon="9.21926362193245"><ele>757.0</ele><time>2026-05-02T15:59:43Z</time></trkpt><trkpt lat="44.51279265976226" lon="9.219264936400917"><ele>759.0</ele><time>2026-05-02T15:59:44Z</time></trkpt><trkpt lat="44.51298812136155" lon="9.21930368781605"><ele>761.0</ele><time>2026-05-02T15:59:45Z</time></trkpt><trkpt lat="44.51315309134734" lon="9.219322808036543"><ele>763.0</ele><time>2026-05-02T15:59:46Z</time></trkpt><trkpt lat="44.5133191014579" lon="9.219312731200514"><ele>763.0</ele><time>2026-05-02T15:59:47Z</time></trkpt><trkpt lat="44.51348350472884" lon="9.219256933834721"><ele>763.0</ele><time>2026-05-02T15:59:48Z</time></trkpt><trkpt lat="44.51364427948356" lon="9.219180466892212"><ele>763.0</ele><time>2026-05-02T15:59:49Z</time></trkpt><trkpt lat="44.513800776884764" lon="9.219072666659478"><ele>758.0</ele><time>2026-05-02T15:59:50Z</time></trkpt><trkpt lat="44.513953678150976" lon="9.21896035260137"><ele>753.0</ele><time>2026-05-02T15:59:51Z</time></trkpt><trkpt lat="44.51409712622814" lon="9.218818885906547"><ele>748.0</ele><time>2026-05-02T15:59:52Z</time></trkpt><trkpt lat="44.51422063197162" lon="9.218705455318139"><ele>748.0</ele><time>2026-05-02T15:59:53Z</time></trkpt><trkpt lat="44.5143179315193" lon="9.218623965370757"><ele>748.0</ele><time>2026-05-02T15:59:54Z</time></trkpt><trkpt lat="44.51440689895127" lon="9.218497560946357"><ele>748.0</ele><time>2026-05-02T15:59:55Z</time></trkpt><trkpt lat="44.5144344902851" lon="9.218334524147451"><ele>748.0</ele><time>2026-05-02T15:59:56Z</time></trkpt><trkpt lat="44.51447036208379" lon="9.218156304497514"><ele>745.25</ele><time>2026-05-02T15:59:57Z</time></trkpt><trkpt lat="44.51455484038427" lon="9.217977539145746"><ele>742.5</ele><time>2026-05-02T15:59:58Z</time></trkpt><trkpt lat="44.51459656644341" lon="9.217819073359204"><ele>739.75</ele><time>2026-05-02T15:59:59Z</time></trkpt><trkpt lat="44.51459713366881" lon="9.217642625700318"><ele>737.0</ele><time>2026-05-02T16:00:00Z</time></trkpt><trkpt lat="44.514581037267256" lon="9.217454022556815"><ele>738.25</ele><time>2026-05-02T16:00:01Z</time></trkpt><trkpt lat="44.514563655917605" lon="9.217265302385744"><ele>739.5</ele><time>2026-05-02T16:00:02Z</time></trkpt><trkpt lat="44.51455126297512" lon="9.217101291975013"><ele>740.75</ele><time>2026-05-02T16:00:03Z</time></trkpt><trkpt lat="44.5145523676987" lon="9.216953290173702"><ele>742.0</ele><time>2026-05-02T16:00:04Z</time></trkpt><trkpt lat="44.51453434783929" lon="9.216756673761228"><ele>747.75</ele><time>2026-05-02T16:00:05Z</time></trkpt><trkpt lat="44.5146031972097" lon="9.216622766618555"><ele>753.5</ele><time>2026-05-02T16:00:06Z</time></trkpt><trkpt lat="44.51466344216921" lon="9.216467233475878"><ele>759.25</ele><time>2026-05-02T16:00:07Z</time></trkpt><trkpt lat="44.514721761678025" lon="9.21631419084086"><ele>765.0</ele><time>2026-05-02T16:00:08Z</time></trkpt><trkpt lat="44.514779316572714" lon="9.216172827692244"><ele>765.0</ele><time>2026-05-02T16:00:09Z</time></trkpt><trkpt lat="44.514848363938995" lon="9.216029735662794"><ele>765.0</ele><time>2026-05-02T16:00:10Z</time></trkpt><trkpt lat="44.514934133027396" lon="9.2159424809414"><ele>765.0</ele><time>2026-05-02T16:00:11Z</time></trkpt><trkpt lat="44.51501242476167" lon="9.215879321669153"><ele>765.0</ele><time>2026-05-02T16:00:12Z</time></trkpt><trkpt lat="44.51505909427352" lon="9.215806752350982"><ele>765.0</ele><time>2026-05-02T16:00:13Z</time></trkpt><trkpt lat="44.51505927602923" lon="9.21569783973221"><ele>768.0</ele><time>2026-05-02T16:00:14Z</time></trkpt><trkpt lat="44.51501794206369" lon="9.215589528974837"><ele>771.0</ele><time>2026-05-02T16:00:15Z</time></trkpt><trkpt lat="44.51495497000519" lon="9.21550817124972"><ele>774.0</ele><time>2026-05-02T16:00:16Z</time></trkpt><trkpt lat="44.51486049140801" lon="9.215476329409906"><ele>777.0</ele><time>2026-05-02T16:00:17Z</time></trkpt><trkpt lat="44.514752702150176" lon="9.215531617932273"><ele>780.0</ele><time>2026-05-02T16:00:18Z</time></trkpt><trkpt lat="44.51466460788904" lon="9.215600542882715"><ele>780.0</ele><time>2026-05-02T16:00:19Z</time></trkpt><trkpt lat="44.514596628304865" lon="9.21564331791647"><ele>780.0</ele><time>2026-05-02T16:00:20Z</time></trkpt><trkpt lat="44.51453404802855" lon="9.215680837656892"><ele>780.0</ele><time>2026-05-02T16:00:21Z</time></trkpt><trkpt lat="44.514464090540926" lon="9.215710317208428"><ele>780.0</ele><time>2026-05-02T16:00:22Z</time></trkpt><trkpt lat="44.514369382405604" lon="9.215735970714123"><ele>780.0</ele><time>2026-05-02T16:00:23Z</time></trkpt><trkpt lat="44.51425979121625" lon="9.21575373376157"><ele>780.0</ele><time>2026-05-02T16:00:24Z</time></trkpt><trkpt lat="44.51414195792012" lon="9.21579092327186"><ele>776.0</ele><time>2026-05-02T16:00:25Z</time></trkpt><trkpt lat="44.51402237547071" lon="9.215844160391823"><ele>772.0</ele><time>2026-05-02T16:00:26Z</time></trkpt><trkpt lat="44.51391945529136" lon="9.215860923040017"><ele>768.0</ele><time>2026-05-02T16:00:27Z</time></trkpt><trkpt lat="44.51383232237024" lon="9.215831140712876"><ele>764.0</ele><time>2026-05-02T16:00:28Z</time></trkpt><trkpt lat="44.51374861513578" lon="9.215745786772615"><ele>760.0</ele><time>2026-05-02T16:00:29Z</time></trkpt><trkpt lat="44.51364805171187" lon="9.21564951893562"><ele>757.4</ele><time>2026-05-02T16:00:30Z</time></trkpt><trkpt lat="44.51355478655854" lon="9.2155588225949"><ele>754.8</ele><time>2026-05-02T16:00:31Z</time></trkpt><trkpt lat="44.51347264703251" lon="9.215468221626871"><ele>752.2</ele><time>2026-05-02T16:00:32Z</time></trkpt><trkpt lat="44.51340500462272" lon="9.215378542328446"><ele>749.6</ele><time>2026-05-02T16:00:33Z</time></trkpt><trkpt lat="44.51339669062419" lon="9.215256208257333"><ele>747.0</ele><time>2026-05-02T16:00:34Z</time></trkpt><trkpt lat="44.513438067450096" lon="9.215148092981115"><ele>747.0</ele><time>2026-05-02T16:00:35Z</time></trkpt><trkpt lat="44.51351246967932" lon="9.21504514413462"><ele>747.0</ele><time>2026-05-02T16:00:36Z</time></trkpt><trkpt lat="44.51360751532104" lon="9.214947413429314"><ele>747.0</ele><time>2026-05-02T16:00:37Z</time></trkpt><trkpt lat="44.513727948484465" lon="9.214829794032404"><ele>747.0</ele><time>2026-05-02T16:00:38Z</time></trkpt><trkpt lat="44.51386626636694" lon="9.214708431104999"><ele>747.75</ele><time>2026-05-02T16:00:38.999Z</time></trkpt><trkpt lat="44.513994230472285" lon="9.214582252957033"><ele>748.5</ele><time>2026-05-02T16:00:39.999Z</time></trkpt><trkpt lat="44.514114629554115" lon="9.214458479053665"><ele>749.25</ele><time>2026-05-02T16:00:40.999Z</time></trkpt><trkpt lat="44.51422341493522" lon="9.214343573806602"><ele>750.0</ele><time>2026-05-02T16:00:41.999Z</time></trkpt><trkpt lat="44.51431739172438" lon="9.21422982987061"><ele>750.0</ele><time>2026-05-02T16:00:42.999Z</time></trkpt><trkpt lat="44.51439968878561" lon="9.214105996155464"><ele>750.0</ele><time>2026-05-02T16:00:43.999Z</time></trkpt><trkpt lat="44.51446120707677" lon="9.213971110257365"><ele>750.0</ele><time>2026-05-02T16:00:44.999Z</time></trkpt><trkpt lat="44.51452658450923" lon="9.213846504422456"><ele>750.0</ele><time>2026-05-02T16:00:45.999Z</time></trkpt><trkpt lat="44.514583771005846" lon="9.213736295448921"><ele>750.0</ele><time>2026-05-02T16:00:46.999Z</time></trkpt><trkpt lat="44.5146345626959" lon="9.213638202971405"><ele>751.8333333333334</ele><time>2026-05-02T16:00:47.999Z</time></trkpt><trkpt lat="44.5146578447455" lon="9.213530616574369"><ele>753.6666666666666</ele><time>2026-05-02T16:00:48.999Z</time></trkpt><trkpt lat="44.514664650091326" lon="9.213411342425227"><ele>755.5</ele><time>2026-05-02T16:00:49.999Z</time></trkpt><trkpt lat="44.5146388138439" lon="9.2132997293836"><ele>757.3333333333333</ele><time>2026-05-02T16:00:50.999Z</time></trkpt><trkpt lat="44.51458179444938" lon="9.21318853162971"><ele>759.1666666666666</ele><time>2026-05-02T16:00:51.999Z</time></trkpt><trkpt lat="44.51449787252896" lon="9.213114108754619"><ele>761.0</ele><time>2026-05-02T16:00:52.999Z</time></trkpt><trkpt lat="44.51440089353314" lon="9.213061941200337"><ele>759.5</ele><time>2026-05-02T16:00:53.999Z</time></trkpt><trkpt lat="44.51428246884712" lon="9.21308145790622"><ele>758.0</ele><time>2026-05-02T16:00:54.999Z</time></trkpt><trkpt lat="44.514165039810166" lon="9.213187858936857"><ele>756.5</ele><time>2026-05-02T16:00:55.999Z</time></trkpt><trkpt lat="44.5140094495415" lon="9.213329177327573"><ele>755.0</ele><time>2026-05-02T16:00:56.999Z</time></trkpt><trkpt lat="44.51383209322488" lon="9.213483916202003"><ele>762.6666666666666</ele><time>2026-05-02T16:00:57.999Z</time></trkpt><trkpt lat="44.51365249779479" lon="9.21361450290057"><ele>770.3333333333333</ele><time>2026-05-02T16:00:58.999Z</time></trkpt><trkpt lat="44.51344504420756" lon="9.213749847489764"><ele>778.0</ele><time>2026-05-02T16:00:59.999Z</time></trkpt><trkpt lat="44.513210259615875" lon="9.213898516660693"><ele>770.3333333333333</ele><time>2026-05-02T16:01:00.999Z</time></trkpt><trkpt lat="44.51298883850742" lon="9.214024890543337"><ele>762.6666666666666</ele><time>2026-05-02T16:01:01.999Z</time></trkpt><trkpt lat="44.51281249600711" lon="9.214177417193827"><ele>755.0</ele><time>2026-05-02T16:01:02.999Z</time></trkpt><trkpt lat="44.51267352751751" lon="9.21431301934488"><ele>755.0</ele><time>2026-05-02T16:01:03.999Z</time></trkpt><trkpt lat="44.51253922713679" lon="9.214426861177072"><ele>755.0</ele><time>2026-05-02T16:01:04.999Z</time></trkpt><trkpt lat="44.51241884509212" lon="9.21446097866585"><ele>755.0</ele><time>2026-05-02T16:01:06.999Z</time></trkpt><trkpt lat="44.51232697931817" lon="9.214337579766314"><ele>755.0</ele><time>2026-05-02T16:01:08.999Z</time></trkpt><trkpt lat="44.51228454012515" lon="9.214171036823318"><ele>759.3333333333333</ele><time>2026-05-02T16:01:09.999Z</time></trkpt><trkpt lat="44.51229437074635" lon="9.213858087851934"><ele>763.6666666666666</ele><time>2026-05-02T16:01:10.999Z</time></trkpt><trkpt lat="44.51230718736656" lon="9.213544399500885"><ele>768.0</ele><time>2026-05-02T16:01:11.999Z</time></trkpt><trkpt lat="44.5123212051736" lon="9.213247437473921"><ele>765.75</ele><time>2026-05-02T16:01:12.999Z</time></trkpt><trkpt lat="44.51233846599327" lon="9.213076701900773"><ele>763.5</ele><time>2026-05-02T16:01:13.999Z</time></trkpt><trkpt lat="44.51238697886362" lon="9.212882526513274"><ele>761.25</ele><time>2026-05-02T16:01:14.999Z</time></trkpt><trkpt lat="44.51250028014457" lon="9.212734422811629"><ele>759.0</ele><time>2026-05-02T16:01:15.999Z</time></trkpt><trkpt lat="44.51262890465122" lon="9.212587978043754"><ele>759.0</ele><time>2026-05-02T16:01:16.999Z</time></trkpt><trkpt lat="44.512744658010796" lon="9.212371815333478"><ele>759.0</ele><time>2026-05-02T16:01:17.999Z</time></trkpt><trkpt lat="44.512828528259725" lon="9.21212751878422"><ele>759.0</ele><time>2026-05-02T16:01:18.999Z</time></trkpt><trkpt lat="44.51286840933632" lon="9.21187833759441"><ele>775.5</ele><time>2026-05-02T16:01:19.999Z</time></trkpt><trkpt lat="44.51291902396891" lon="9.2115928909999"><ele>792.0</ele><time>2026-05-02T16:01:20.999Z</time></trkpt><trkpt lat="44.51296299836074" lon="9.211181556306958"><ele>792.0</ele><time>2026-05-02T16:01:21.999Z</time></trkpt><trkpt lat="44.513009165462016" lon="9.210829516159212"><ele>792.0</ele><time>2026-05-02T16:01:22.999Z</time></trkpt><trkpt lat="44.51305068865478" lon="9.210550178395463"><ele>792.3333333333333</ele><time>2026-05-02T16:01:23.999Z</time></trkpt><trkpt lat="44.51309965712185" lon="9.21025874570749"><ele>792.6666666666666</ele><time>2026-05-02T16:01:24.999Z</time></trkpt><trkpt lat="44.513139976733626" lon="9.210011380905232"><ele>793.0</ele><time>2026-05-02T16:01:25.999Z</time></trkpt><trkpt lat="44.513171341071704" lon="9.209811926063136"><ele>793.6666666666666</ele><time>2026-05-02T16:01:26.999Z</time></trkpt><trkpt lat="44.51319941295136" lon="9.209692960684603"><ele>794.3333333333333</ele><time>2026-05-02T16:01:27.999Z</time></trkpt><trkpt lat="44.51319668774371" lon="9.209527464971321"><ele>795.0</ele><time>2026-05-02T16:01:29.999Z</time></trkpt><trkpt lat="44.51316858649751" lon="9.209442424660903"><ele>795.6666666666667</ele><time>2026-05-02T16:01:30.999Z</time></trkpt><trkpt lat="44.513097796833804" lon="9.20938147158048"><ele>796.3333333333334</ele><time>2026-05-02T16:01:31.999Z</time></trkpt><trkpt lat="44.51302090764568" lon="9.209376388507655"><ele>797.0</ele><time>2026-05-02T16:01:32.999Z</time></trkpt><trkpt lat="44.512927745981145" lon="9.209434836531766"><ele>794.4000000000001</ele><time>2026-05-02T16:01:33.999Z</time></trkpt><trkpt lat="44.5128439068624" lon="9.20957729029374"><ele>791.8000000000001</ele><time>2026-05-02T16:01:34.999Z</time></trkpt><trkpt lat="44.51277328182278" lon="9.209685562656396"><ele>789.2</ele><time>2026-05-02T16:01:35.999Z</time></trkpt><trkpt lat="44.512707590623016" lon="9.209756812223608"><ele>786.6</ele><time>2026-05-02T16:01:36.999Z</time></trkpt><trkpt lat="44.512636454693265" lon="9.209790151900364"><ele>784.0</ele><time>2026-05-02T16:01:37.999Z</time></trkpt><trkpt lat="44.51256606927144" lon="9.209753078400123"><ele>784.0</ele><time>2026-05-02T16:01:38.999Z</time></trkpt><trkpt lat="44.512513459689856" lon="9.209673776577683"><ele>784.0</ele><time>2026-05-02T16:01:39.999Z</time></trkpt><trkpt lat="44.51246517277216" lon="9.209561235423484"><ele>784.0</ele><time>2026-05-02T16:01:40.999Z</time></trkpt><trkpt lat="44.512425953525835" lon="9.209442175188869"><ele>784.0</ele><time>2026-05-02T16:01:42Z</time></trkpt><trkpt lat="44.51237371551682" lon="9.209242594160902"><ele>784.0</ele><time>2026-05-02T16:01:43Z</time></trkpt><trkpt lat="44.512304357319124" lon="9.209010451028286"><ele>785.0</ele><time>2026-05-02T16:01:44Z</time></trkpt><trkpt lat="44.51221312948945" lon="9.2087935302884"><ele>786.0</ele><time>2026-05-02T16:01:45Z</time></trkpt><trkpt lat="44.51209632218551" lon="9.208603126145466"><ele>787.0</ele><time>2026-05-02T16:01:46Z</time></trkpt><trkpt lat="44.511984299893705" lon="9.208435275578434"><ele>787.0</ele><time>2026-05-02T16:01:47Z</time></trkpt><trkpt lat="44.511887439178466" lon="9.208299337263925"><ele>787.0</ele><time>2026-05-02T16:01:48Z</time></trkpt><trkpt lat="44.51179248416625" lon="9.208178741946275"><ele>787.0</ele><time>2026-05-02T16:01:49Z</time></trkpt><trkpt lat="44.51166783140894" lon="9.208090410057206"><ele>787.0</ele><time>2026-05-02T16:01:50Z</time></trkpt><trkpt lat="44.5115208655346" lon="9.208077923574955"><ele>798.0</ele><time>2026-05-02T16:01:51Z</time></trkpt><trkpt lat="44.51135434984699" lon="9.208113376947189"><ele>809.0</ele><time>2026-05-02T16:01:52Z</time></trkpt><trkpt lat="44.51116623610511" lon="9.20810319101409"><ele>820.0</ele><time>2026-05-02T16:01:53Z</time></trkpt><trkpt lat="44.5109743775184" lon="9.208092964175153"><ele>820.0</ele><time>2026-05-02T16:01:54Z</time></trkpt><trkpt lat="44.510794158241225" lon="9.208158192563316"><ele>820.0</ele><time>2026-05-02T16:01:55Z</time></trkpt><trkpt lat="44.51061168369852" lon="9.208136309635472"><ele>820.0</ele><time>2026-05-02T16:01:56Z</time></trkpt><trkpt lat="44.510424838905685" lon="9.208224032796556"><ele>812.6666666666666</ele><time>2026-05-02T16:01:57Z</time></trkpt><trkpt lat="44.510268611915" lon="9.208415821893043"><ele>805.3333333333333</ele><time>2026-05-02T16:01:58Z</time></trkpt><trkpt lat="44.51010987965731" lon="9.208548733279628"><ele>798.0</ele><time>2026-05-02T16:01:59Z</time></trkpt><trkpt lat="44.5099739865396" lon="9.20869870417121"><ele>798.0</ele><time>2026-05-02T16:02:00Z</time></trkpt><trkpt lat="44.50986207578908" lon="9.208842128539953"><ele>798.0</ele><time>2026-05-02T16:02:01Z</time></trkpt><trkpt lat="44.50972226018948" lon="9.208882851588342"><ele>798.0</ele><time>2026-05-02T16:02:02Z</time></trkpt><trkpt lat="44.509638087401804" lon="9.208972606448972"><ele>798.0</ele><time>2026-05-02T16:02:03Z</time></trkpt><trkpt lat="44.509565270680206" lon="9.209014904253904"><ele>795.0</ele><time>2026-05-02T16:02:04Z</time></trkpt><trkpt lat="44.509498710558255" lon="9.20901149979289"><ele>792.0</ele><time>2026-05-02T16:02:05Z</time></trkpt><trkpt lat="44.509430046314904" lon="9.2089702834567"><ele>789.0</ele><time>2026-05-02T16:02:06Z</time></trkpt><trkpt lat="44.509370145611" lon="9.208882440451886"><ele>786.0</ele><time>2026-05-02T16:02:07Z</time></trkpt><trkpt lat="44.50931582795876" lon="9.20878110480991"><ele>783.0</ele><time>2026-05-02T16:02:08Z</time></trkpt><trkpt lat="44.50929235405554" lon="9.208640188058498"><ele>780.0</ele><time>2026-05-02T16:02:09Z</time></trkpt><trkpt lat="44.50932301730919" lon="9.208490844475591"><ele>780.0</ele><time>2026-05-02T16:02:10Z</time></trkpt><trkpt lat="44.50940996786252" lon="9.208338955523464"><ele>780.0</ele><time>2026-05-02T16:02:11Z</time></trkpt><trkpt lat="44.50951521896215" lon="9.208222505128994"><ele>780.0</ele><time>2026-05-02T16:02:12Z</time></trkpt><trkpt lat="44.50960167822592" lon="9.208128726362725"><ele>780.0</ele><time>2026-05-02T16:02:13Z</time></trkpt><trkpt lat="44.5096528323152" lon="9.208015179121745"><ele>784.0</ele><time>2026-05-02T16:02:14Z</time></trkpt><trkpt lat="44.5096779888348" lon="9.207897126602312"><ele>788.0</ele><time>2026-05-02T16:02:15Z</time></trkpt><trkpt lat="44.50966148472961" lon="9.207810673852235"><ele>792.0</ele><time>2026-05-02T16:02:16Z</time></trkpt><trkpt lat="44.50960041761709" lon="9.20771229404649"><ele>796.0</ele><time>2026-05-02T16:02:17Z</time></trkpt><trkpt lat="44.509493919646985" lon="9.207674888920652"><ele>800.0</ele><time>2026-05-02T16:02:18Z</time></trkpt><trkpt lat="44.50939081795726" lon="9.207691359909788"><ele>800.0</ele><time>2026-05-02T16:02:19Z</time></trkpt><trkpt lat="44.50926846575317" lon="9.207694637107117"><ele>800.0</ele><time>2026-05-02T16:02:20Z</time></trkpt><trkpt lat="44.509107999316534" lon="9.207656614632583"><ele>800.0</ele><time>2026-05-02T16:02:21Z</time></trkpt><trkpt lat="44.508964072680435" lon="9.207581248029646"><ele>800.0</ele><time>2026-05-02T16:02:22Z</time></trkpt><trkpt lat="44.508827554674234" lon="9.207506481183716"><ele>793.75</ele><time>2026-05-02T16:02:23Z</time></trkpt><trkpt lat="44.50870816823245" lon="9.207412064929388"><ele>787.5</ele><time>2026-05-02T16:02:24Z</time></trkpt><trkpt lat="44.5086245977961" lon="9.207291275083712"><ele>781.25</ele><time>2026-05-02T16:02:25Z</time></trkpt><trkpt lat="44.50856610856279" lon="9.207129231986496"><ele>775.0</ele><time>2026-05-02T16:02:26Z</time></trkpt><trkpt lat="44.508511972194356" lon="9.206954656158617"><ele>775.0</ele><time>2026-05-02T16:02:27Z</time></trkpt><trkpt lat="44.50849115780019" lon="9.206741780520804"><ele>775.0</ele><time>2026-05-02T16:02:29Z</time></trkpt><trkpt lat="44.50855299591417" lon="9.206552424640007"><ele>775.0</ele><time>2026-05-02T16:02:30Z</time></trkpt><trkpt lat="44.50862287360766" lon="9.206338821179699"><ele>773.3333333333333</ele><time>2026-05-02T16:02:31Z</time></trkpt><trkpt lat="44.508729710888794" lon="9.206129518727554"><ele>771.6666666666667</ele><time>2026-05-02T16:02:32Z</time></trkpt><trkpt lat="44.50882460207585" lon="9.205915839093024"><ele>770.0</ele><time>2026-05-02T16:02:33Z</time></trkpt><trkpt lat="44.50891624349844" lon="9.205737305955255"><ele>775.0</ele><time>2026-05-02T16:02:34Z</time></trkpt><trkpt lat="44.50902208674906" lon="9.205538314738323"><ele>780.0</ele><time>2026-05-02T16:02:35Z</time></trkpt><trkpt lat="44.50913567184638" lon="9.205326398295329"><ele>785.0</ele><time>2026-05-02T16:02:36Z</time></trkpt><trkpt lat="44.50924120146783" lon="9.205117446869762"><ele>785.0</ele><time>2026-05-02T16:02:37Z</time></trkpt><trkpt lat="44.509347371269946" lon="9.20493707461424"><ele>785.0</ele><time>2026-05-02T16:02:38Z</time></trkpt><trkpt lat="44.50949196765125" lon="9.20478294726624"><ele>785.0</ele><time>2026-05-02T16:02:39Z</time></trkpt><trkpt lat="44.50954122532574" lon="9.20457915444467"><ele>780.3333333333334</ele><time>2026-05-02T16:02:40Z</time></trkpt><trkpt lat="44.50955289906048" lon="9.204337234156183"><ele>775.6666666666667</ele><time>2026-05-02T16:02:41Z</time></trkpt><trkpt lat="44.50956458512959" lon="9.204084621641785"><ele>771.0</ele><time>2026-05-02T16:02:42Z</time></trkpt><trkpt lat="44.50959582365553" lon="9.203861943404963"><ele>777.25</ele><time>2026-05-02T16:02:43Z</time></trkpt><trkpt lat="44.509624076581055" lon="9.20365481588106"><ele>783.5</ele><time>2026-05-02T16:02:43.999Z</time></trkpt><trkpt lat="44.50962166873587" lon="9.203451224891243"><ele>789.75</ele><time>2026-05-02T16:02:44.999Z</time></trkpt><trkpt lat="44.509591920596655" lon="9.203248735156514"><ele>796.0</ele><time>2026-05-02T16:02:45.999Z</time></trkpt><trkpt lat="44.50958815298449" lon="9.20305166645711"><ele>796.0</ele><time>2026-05-02T16:02:46.999Z</time></trkpt><trkpt lat="44.509633296540386" lon="9.202860541246087"><ele>796.0</ele><time>2026-05-02T16:02:47.999Z</time></trkpt><trkpt lat="44.50969193704551" lon="9.202672666165306"><ele>796.0</ele><time>2026-05-02T16:02:48.999Z</time></trkpt><trkpt lat="44.50982019994407" lon="9.202380310713838"><ele>787.0</ele><time>2026-05-02T16:02:49.999Z</time></trkpt><trkpt lat="44.50993427242919" lon="9.202133009243687"><ele>778.0</ele><time>2026-05-02T16:02:50.999Z</time></trkpt><trkpt lat="44.5100437207725" lon="9.201871052768823"><ele>769.0</ele><time>2026-05-02T16:02:51.999Z</time></trkpt><trkpt lat="44.51014602692212" lon="9.201604488327197"><ele>767.6666666666666</ele><time>2026-05-02T16:02:52.999Z</time></trkpt><trkpt lat="44.510234137728176" lon="9.201347492711736"><ele>766.3333333333333</ele><time>2026-05-02T16:02:53.999Z</time></trkpt><trkpt lat="44.51032000164158" lon="9.201112882828824"><ele>765.0</ele><time>2026-05-02T16:02:54.999Z</time></trkpt><trkpt lat="44.51040271517973" lon="9.200900607571516"><ele>775.0</ele><time>2026-05-02T16:02:55.999Z</time></trkpt><trkpt lat="44.51046836726482" lon="9.200728232928247"><ele>785.0</ele><time>2026-05-02T16:02:56.999Z</time></trkpt><trkpt lat="44.51052416715557" lon="9.200567655438697"><ele>795.0</ele><time>2026-05-02T16:02:57.999Z</time></trkpt><trkpt lat="44.510542012274925" lon="9.200381569941515"><ele>805.0</ele><time>2026-05-02T16:02:58.999Z</time></trkpt><trkpt lat="44.51051613951014" lon="9.200177766601216"><ele>805.0</ele><time>2026-05-02T16:02:59.999Z</time></trkpt><trkpt lat="44.51049504140745" lon="9.199979400451916"><ele>805.0</ele><time>2026-05-02T16:03:00.999Z</time></trkpt><trkpt lat="44.51045560254493" lon="9.19978585992117"><ele>805.0</ele><time>2026-05-02T16:03:01.999Z</time></trkpt><trkpt lat="44.51038943387651" lon="9.199634153243904"><ele>805.0</ele><time>2026-05-02T16:03:02.999Z</time></trkpt><trkpt lat="44.51031031657286" lon="9.199511297585113"><ele>800.8</ele><time>2026-05-02T16:03:03.999Z</time></trkpt><trkpt lat="44.510242500686054" lon="9.199408822837286"><ele>796.6</ele><time>2026-05-02T16:03:04.999Z</time></trkpt><trkpt lat="44.5101870141465" lon="9.199308957662506"><ele>792.4000000000001</ele><time>2026-05-02T16:03:05.999Z</time></trkpt><trkpt lat="44.51012376337678" lon="9.199207235964991"><ele>788.2</ele><time>2026-05-02T16:03:06.999Z</time></trkpt><trkpt lat="44.510062346717525" lon="9.199103681783752"><ele>784.0</ele><time>2026-05-02T16:03:07.999Z</time></trkpt><trkpt lat="44.51000913148064" lon="9.19901069261376"><ele>783.4285714285714</ele><time>2026-05-02T16:03:08.999Z</time></trkpt><trkpt lat="44.509956615767415" lon="9.198928856874511"><ele>782.8571428571429</ele><time>2026-05-02T16:03:09.999Z</time></trkpt><trkpt lat="44.50991088612422" lon="9.198859808634644"><ele>782.2857142857142</ele><time>2026-05-02T16:03:10.999Z</time></trkpt><trkpt lat="44.509846214996365" lon="9.198772536259934"><ele>781.7142857142858</ele><time>2026-05-02T16:03:12.999Z</time></trkpt><trkpt lat="44.50977357736611" lon="9.198765821868554"><ele>781.1428571428571</ele><time>2026-05-02T16:03:14.999Z</time></trkpt><trkpt lat="44.509702887243904" lon="9.198773668995935"><ele>780.5714285714286</ele><time>2026-05-02T16:03:17.999Z</time></trkpt><trkpt lat="44.50963653223102" lon="9.198773750357478"><ele>780.0</ele><time>2026-05-02T16:03:29.999Z</time></trkpt><trkpt lat="44.509563008295395" lon="9.198745842139559"><ele>780.0</ele><time>2026-05-02T16:03:31.999Z</time></trkpt><trkpt lat="44.50949148891304" lon="9.198728256063415"><ele>780.0</ele><time>2026-05-02T16:03:33.999Z</time></trkpt><trkpt lat="44.50941534081138" lon="9.198721537057812"><ele>780.0</ele><time>2026-05-02T16:04:45Z</time></trkpt><trkpt lat="44.50935077787788" lon="9.1987250789262"><ele>780.0</ele><time>2026-05-02T16:04:46Z</time></trkpt><trkpt lat="44.509280895358046" lon="9.198731650834867"><ele>780.0</ele><time>2026-05-02T16:04:47Z</time></trkpt><trkpt lat="44.50915469600066" lon="9.198748571168812"><ele>780.0</ele><time>2026-05-02T16:04:48.999Z</time></trkpt><trkpt lat="44.50908711098658" lon="9.19871265324841"><ele>780.0</ele><time>2026-05-02T16:04:49.999Z</time></trkpt><trkpt lat="44.50902538775411" lon="9.198673193579596"><ele>780.0</ele><time>2026-05-02T16:04:50.999Z</time></trkpt><trkpt lat="44.508971960051966" lon="9.198601262591502"><ele>780.0</ele><time>2026-05-02T16:04:51.999Z</time></trkpt><trkpt lat="44.50893124152768" lon="9.198508886926312"><ele>780.0</ele><time>2026-05-02T16:04:52.999Z</time></trkpt><trkpt lat="44.50891312761579" lon="9.198401582718214"><ele>780.0</ele><time>2026-05-02T16:04:53.999Z</time></trkpt><trkpt lat="44.50890912006076" lon="9.19827303353834"><ele>780.0</ele><time>2026-05-02T16:04:54.999Z</time></trkpt><trkpt lat="44.50889836486325" lon="9.198144756943337"><ele>779.3333333333334</ele><time>2026-05-02T16:04:55.999Z</time></trkpt><trkpt lat="44.50887818170351" lon="9.197999358519803"><ele>778.6666666666667</ele><time>2026-05-02T16:04:56.999Z</time></trkpt><trkpt lat="44.50886104048619" lon="9.19786126936644"><ele>778.0</ele><time>2026-05-02T16:04:57.999Z</time></trkpt><trkpt lat="44.5088468271533" lon="9.197733557530233"><ele>777.3333333333334</ele><time>2026-05-02T16:04:58.999Z</time></trkpt><trkpt lat="44.50884805836785" lon="9.19762178804812"><ele>776.6666666666667</ele><time>2026-05-02T16:04:59.999Z</time></trkpt><trkpt lat="44.50887526237844" lon="9.1975362998298"><ele>776.0</ele><time>2026-05-02T16:05:00.999Z</time></trkpt><trkpt lat="44.50897561270171" lon="9.19744406919753"><ele>776.0000000000001</ele><time>2026-05-02T16:05:02.999Z</time></trkpt><trkpt lat="44.509049449169204" lon="9.197423867210809"><ele>776.0</ele><time>2026-05-02T16:05:03.999Z</time></trkpt><trkpt lat="44.50913827182627" lon="9.197411415331358"><ele>776.0</ele><time>2026-05-02T16:05:04.999Z</time></trkpt><trkpt lat="44.50923890388598" lon="9.197400370641326"><ele>776.0</ele><time>2026-05-02T16:05:05.999Z</time></trkpt><trkpt lat="44.50932588840637" lon="9.197386333897242"><ele>776.0000000000001</ele><time>2026-05-02T16:05:06.999Z</time></trkpt><trkpt lat="44.50939415096614" lon="9.19736779994981"><ele>776.0</ele><time>2026-05-02T16:05:07.999Z</time></trkpt><trkpt lat="44.50948531128673" lon="9.197227891235416"><ele>775.1999999999999</ele><time>2026-05-02T16:05:09.999Z</time></trkpt><trkpt lat="44.50947364065136" lon="9.197062420274827"><ele>774.4</ele><time>2026-05-02T16:05:10.999Z</time></trkpt><trkpt lat="44.509415208367585" lon="9.196934679873236"><ele>773.6</ele><time>2026-05-02T16:05:11.999Z</time></trkpt><trkpt lat="44.509332414958195" lon="9.196863722087372"><ele>772.8</ele><time>2026-05-02T16:05:12.999Z</time></trkpt><trkpt lat="44.509216391374316" lon="9.19686730183189"><ele>772.0</ele><time>2026-05-02T16:05:13.999Z</time></trkpt><trkpt lat="44.50912988743121" lon="9.196817368275518"><ele>772.0</ele><time>2026-05-02T16:05:14.999Z</time></trkpt><trkpt lat="44.50903122645754" lon="9.196765252435132"><ele>772.0</ele><time>2026-05-02T16:05:16.999Z</time></trkpt><trkpt lat="44.50901285055552" lon="9.196660331405111"><ele>772.0</ele><time>2026-05-02T16:05:17.999Z</time></trkpt><trkpt lat="44.50902197400959" lon="9.196520105260646"><ele>772.0</ele><time>2026-05-02T16:05:18.999Z</time></trkpt><trkpt lat="44.50902883329657" lon="9.196357111179015"><ele>772.0</ele><time>2026-05-02T16:05:19.999Z</time></trkpt><trkpt lat="44.50905562286093" lon="9.196170516986584"><ele>771.75</ele><time>2026-05-02T16:05:20.999Z</time></trkpt><trkpt lat="44.50906581266549" lon="9.195985042915096"><ele>771.5</ele><time>2026-05-02T16:05:21.999Z</time></trkpt><trkpt lat="44.50903724223669" lon="9.19579727110726"><ele>771.25</ele><time>2026-05-02T16:05:22.999Z</time></trkpt><trkpt lat="44.50898518402721" lon="9.195597324824163"><ele>771.0</ele><time>2026-05-02T16:05:23.999Z</time></trkpt><trkpt lat="44.50893638044622" lon="9.195406548929139"><ele>770.8</ele><time>2026-05-02T16:05:24.999Z</time></trkpt><trkpt lat="44.50889465341869" lon="9.195240208493747"><ele>770.5999999999999</ele><time>2026-05-02T16:05:25.999Z</time></trkpt><trkpt lat="44.508872174572375" lon="9.195100115782948"><ele>770.4</ele><time>2026-05-02T16:05:26.999Z</time></trkpt><trkpt lat="44.508884728148054" lon="9.194975648163577"><ele>770.2</ele><time>2026-05-02T16:05:27.999Z</time></trkpt><trkpt lat="44.50894465602062" lon="9.194864181512784"><ele>770.0</ele><time>2026-05-02T16:05:28.999Z</time></trkpt><trkpt lat="44.509037947383014" lon="9.194776004561339"><ele>773.4</ele><time>2026-05-02T16:05:29.999Z</time></trkpt><trkpt lat="44.50914822000366" lon="9.194718127279458"><ele>776.8</ele><time>2026-05-02T16:05:30.999Z</time></trkpt><trkpt lat="44.50926422245391" lon="9.194665320546417"><ele>780.2</ele><time>2026-05-02T16:05:31.999Z</time></trkpt><trkpt lat="44.50935336204723" lon="9.194600010520267"><ele>783.6</ele><time>2026-05-02T16:05:32.999Z</time></trkpt><trkpt lat="44.50941108949105" lon="9.194502706086187"><ele>787.0</ele><time>2026-05-02T16:05:33.999Z</time></trkpt><trkpt lat="44.509470498885605" lon="9.194385990480598"><ele>787.0</ele><time>2026-05-02T16:05:34.999Z</time></trkpt><trkpt lat="44.50953311054873" lon="9.194244850313936"><ele>787.0</ele><time>2026-05-02T16:05:35.999Z</time></trkpt><trkpt lat="44.509591904461175" lon="9.194088499099976"><ele>787.0</ele><time>2026-05-02T16:05:36.999Z</time></trkpt><trkpt lat="44.50964262417575" lon="9.193907650647617"><ele>787.0</ele><time>2026-05-02T16:05:37.999Z</time></trkpt><trkpt lat="44.5096772800146" lon="9.19369001441617"><ele>785.6666666666666</ele><time>2026-05-02T16:05:38.999Z</time></trkpt><trkpt lat="44.50969042381314" lon="9.193446821837593"><ele>784.3333333333333</ele><time>2026-05-02T16:05:39.999Z</time></trkpt><trkpt lat="44.50968723343859" lon="9.19319792948196"><ele>783.0</ele><time>2026-05-02T16:05:40.999Z</time></trkpt><trkpt lat="44.50967623779407" lon="9.19295420539999"><ele>783.0</ele><time>2026-05-02T16:05:41.999Z</time></trkpt><trkpt lat="44.50966508405798" lon="9.192709632095076"><ele>783.0</ele><time>2026-05-02T16:05:42.999Z</time></trkpt><trkpt lat="44.50966774629926" lon="9.192482461372506"><ele>783.0</ele><time>2026-05-02T16:05:43.999Z</time></trkpt><trkpt lat="44.50967473487049" lon="9.192252300833326"><ele>784.0</ele><time>2026-05-02T16:05:44.999Z</time></trkpt><trkpt lat="44.50970173264242" lon="9.192046713111417"><ele>785.0</ele><time>2026-05-02T16:05:45.999Z</time></trkpt><trkpt lat="44.509739331955615" lon="9.191847096278781"><ele>786.0</ele><time>2026-05-02T16:05:46.999Z</time></trkpt><trkpt lat="44.50978271467022" lon="9.191641107451051"><ele>787.0</ele><time>2026-05-02T16:05:47.999Z</time></trkpt><trkpt lat="44.50983008567226" lon="9.191406558954109"><ele>782.0</ele><time>2026-05-02T16:05:48.999Z</time></trkpt><trkpt lat="44.5099202141169" lon="9.19093910006274"><ele>777.0</ele><time>2026-05-02T16:05:49.999Z</time></trkpt><trkpt lat="44.509929495746576" lon="9.190604196829161"><ele>777.0</ele><time>2026-05-02T16:05:50.999Z</time></trkpt><trkpt lat="44.509898132062546" lon="9.190303899750138"><ele>777.0</ele><time>2026-05-02T16:05:51.999Z</time></trkpt><trkpt lat="44.50981753835371" lon="9.190006053995122"><ele>777.0</ele><time>2026-05-02T16:05:54Z</time></trkpt><trkpt lat="44.50971054234252" lon="9.189756241135631"><ele>780.3333333333333</ele><time>2026-05-02T16:05:55Z</time></trkpt><trkpt lat="44.50958251580467" lon="9.189534175264141"><ele>783.6666666666666</ele><time>2026-05-02T16:05:56Z</time></trkpt><trkpt lat="44.50942327616029" lon="9.189340344972324"><ele>787.0</ele><time>2026-05-02T16:05:57Z</time></trkpt><trkpt lat="44.509257396553885" lon="9.189177542152223"><ele>787.6666666666666</ele><time>2026-05-02T16:05:58Z</time></trkpt><trkpt lat="44.50909514243122" lon="9.189019532637626"><ele>788.3333333333333</ele><time>2026-05-02T16:05:59Z</time></trkpt><trkpt lat="44.508967058260275" lon="9.188841043938472"><ele>789.0</ele><time>2026-05-02T16:06:00Z</time></trkpt><trkpt lat="44.50883868908435" lon="9.188644810186451"><ele>793.0</ele><time>2026-05-02T16:06:01Z</time></trkpt><trkpt lat="44.50872603394854" lon="9.188453329598078"><ele>797.0</ele><time>2026-05-02T16:06:02Z</time></trkpt><trkpt lat="44.508633898418886" lon="9.188229622316378"><ele>801.0</ele><time>2026-05-02T16:06:03Z</time></trkpt><trkpt lat="44.50856080705852" lon="9.187978235163941"><ele>801.0</ele><time>2026-05-02T16:06:04Z</time></trkpt><trkpt lat="44.50850258406468" lon="9.18771643191587"><ele>801.0</ele><time>2026-05-02T16:06:05Z</time></trkpt><trkpt lat="44.508474468209755" lon="9.187454288687633"><ele>801.0</ele><time>2026-05-02T16:06:06Z</time></trkpt><trkpt lat="44.508505125388545" lon="9.187211104244795"><ele>803.0</ele><time>2026-05-02T16:06:07Z</time></trkpt><trkpt lat="44.50855357650143" lon="9.186955537208997"><ele>805.0</ele><time>2026-05-02T16:06:08Z</time></trkpt><trkpt lat="44.508606111794016" lon="9.186690725847109"><ele>807.0</ele><time>2026-05-02T16:06:09Z</time></trkpt><trkpt lat="44.50865343836555" lon="9.186428078949202"><ele>809.3333333333333</ele><time>2026-05-02T16:06:10Z</time></trkpt><trkpt lat="44.508687834893145" lon="9.186161068705088"><ele>811.6666666666666</ele><time>2026-05-02T16:06:11Z</time></trkpt><trkpt lat="44.50871789317653" lon="9.185879907309912"><ele>814.0</ele><time>2026-05-02T16:06:12Z</time></trkpt><trkpt lat="44.508728654589554" lon="9.185610074348514"><ele>807.0</ele><time>2026-05-02T16:06:13Z</time></trkpt><trkpt lat="44.50876699410291" lon="9.185331893526223"><ele>800.0</ele><time>2026-05-02T16:06:14Z</time></trkpt><trkpt lat="44.508806147380675" lon="9.185046226467051"><ele>793.0</ele><time>2026-05-02T16:06:15Z</time></trkpt><trkpt lat="44.50884336240342" lon="9.184744001982047"><ele>793.0</ele><time>2026-05-02T16:06:16Z</time></trkpt><trkpt lat="44.50888780549908" lon="9.184441608593383"><ele>793.0</ele><time>2026-05-02T16:06:17Z</time></trkpt><trkpt lat="44.5089263714121" lon="9.18415499915512"><ele>793.0</ele><time>2026-05-02T16:06:18Z</time></trkpt><trkpt lat="44.50896189710529" lon="9.183892804042252"><ele>794.6666666666666</ele><time>2026-05-02T16:06:19Z</time></trkpt><trkpt lat="44.50899880262881" lon="9.183627898955853"><ele>796.3333333333333</ele><time>2026-05-02T16:06:20Z</time></trkpt><trkpt lat="44.50903570830885" lon="9.183357172348902"><ele>798.0</ele><time>2026-05-02T16:06:21Z</time></trkpt><trkpt lat="44.50907374558187" lon="9.183078727393726"><ele>800.6666666666667</ele><time>2026-05-02T16:06:22Z</time></trkpt><trkpt lat="44.50911386355793" lon="9.182787210114926"><ele>803.3333333333334</ele><time>2026-05-02T16:06:23Z</time></trkpt><trkpt lat="44.50915298251315" lon="9.18248942983089"><ele>806.0</ele><time>2026-05-02T16:06:24Z</time></trkpt><trkpt lat="44.50918915435258" lon="9.182194899143338"><ele>813.0</ele><time>2026-05-02T16:06:25Z</time></trkpt><trkpt lat="44.50922706520213" lon="9.181894261719915"><ele>820.0</ele><time>2026-05-02T16:06:26Z</time></trkpt><trkpt lat="44.5092647222294" lon="9.18158728650315"><ele>827.0</ele><time>2026-05-02T16:06:27Z</time></trkpt><trkpt lat="44.509327838782454" lon="9.181295043460095"><ele>834.6666666666667</ele><time>2026-05-02T16:06:28Z</time></trkpt><trkpt lat="44.5093774179273" lon="9.18100215916875"><ele>842.3333333333333</ele><time>2026-05-02T16:06:29Z</time></trkpt><trkpt lat="44.50942879399178" lon="9.180703134970011"><ele>850.0</ele><time>2026-05-02T16:06:30Z</time></trkpt><trkpt lat="44.50948738016786" lon="9.180375688104556"><ele>859.0</ele><time>2026-05-02T16:06:31.068Z</time></trkpt><trkpt lat="44.509541814252074" lon="9.180075381554422"><ele>868.0</ele><time>2026-05-02T16:06:32.059Z</time></trkpt><trkpt lat="44.51007128625268" lon="9.177403956347904"><ele>859.0</ele><time>2026-05-02T16:06:35.214Z</time></trkpt><trkpt lat="44.51026038661147" lon="9.176564242226233"><ele>882.0</ele><time>2026-05-02T16:06:36.214Z</time></trkpt><trkpt lat="44.510452720044206" lon="9.17572595245574"><ele>888.0</ele><time>2026-05-02T16:06:37.214Z</time></trkpt><trkpt lat="44.51065205600265" lon="9.174890858374686"><ele>873.0</ele><time>2026-05-02T16:06:38.214Z</time></trkpt><trkpt lat="44.51085155886789" lon="9.174055863971493"><ele>872.5</ele><time>2026-05-02T16:06:39.214Z</time></trkpt><trkpt lat="44.5109643" lon="9.173584"><ele>872.0</ele><time>2026-05-02T16:06:40.214Z</time></trkpt><trkpt lat="44.51380305294431" lon="9.161848566870148"><ele>827.6666666666667</ele><time>2026-05-02T16:07:25.999Z</time></trkpt><trkpt lat="44.513836730134784" lon="9.161564641281236"><ele>783.3333333333334</ele><time>2026-05-02T16:07:26.999Z</time></trkpt><trkpt lat="44.513890767928025" lon="9.16130013853299"><ele>739.0</ele><time>2026-05-02T16:07:27.999Z</time></trkpt><trkpt lat="44.51394961975547" lon="9.161021861188152"><ele>733.6666666666667</ele><time>2026-05-02T16:07:28.999Z</time></trkpt><trkpt lat="44.513973670239686" lon="9.160744861562513"><ele>728.3333333333334</ele><time>2026-05-02T16:07:29.999Z</time></trkpt><trkpt lat="44.5139997166096" lon="9.160452170600177"><ele>723.0</ele><time>2026-05-02T16:07:30.999Z</time></trkpt><trkpt lat="44.514009917856825" lon="9.160146554132218"><ele>725.6666666666666</ele><time>2026-05-02T16:07:31.999Z</time></trkpt><trkpt lat="44.51401273829073" lon="9.159844487768938"><ele>728.3333333333333</ele><time>2026-05-02T16:07:32.999Z</time></trkpt><trkpt lat="44.5140031428776" lon="9.159540930779784"><ele>731.0</ele><time>2026-05-02T16:07:33.999Z</time></trkpt><trkpt lat="44.513979388666634" lon="9.15923904727634"><ele>735.3333333333333</ele><time>2026-05-02T16:07:34.999Z</time></trkpt><trkpt lat="44.51394860512042" lon="9.158936393284817"><ele>739.6666666666666</ele><time>2026-05-02T16:07:35.999Z</time></trkpt><trkpt lat="44.51390295484978" lon="9.15862469684648"><ele>744.0</ele><time>2026-05-02T16:07:36.999Z</time></trkpt><trkpt lat="44.51384618193606" lon="9.158317592575575"><ele>742.5</ele><time>2026-05-02T16:07:37.999Z</time></trkpt><trkpt lat="44.51377629975433" lon="9.158017001289718"><ele>741.0</ele><time>2026-05-02T16:07:38.999Z</time></trkpt><trkpt lat="44.51369548005815" lon="9.157723329863005"><ele>741.0</ele><time>2026-05-02T16:07:39.999Z</time></trkpt><trkpt lat="44.51360539335953" lon="9.157432921124894"><ele>741.0</ele><time>2026-05-02T16:07:40.999Z</time></trkpt><trkpt lat="44.5135044649567" lon="9.1571465882849"><ele>742.5</ele><time>2026-05-02T16:07:41.999Z</time></trkpt><trkpt lat="44.513396650869375" lon="9.156860434387012"><ele>744.0</ele><time>2026-05-02T16:07:42.999Z</time></trkpt><trkpt lat="44.513291282480225" lon="9.156576977478638"><ele>744.0</ele><time>2026-05-02T16:07:43.999Z</time></trkpt><trkpt lat="44.51318659934233" lon="9.15629009378283"><ele>744.0</ele><time>2026-05-02T16:07:44.999Z</time></trkpt><trkpt lat="44.51302448626678" lon="9.156029332516873"><ele>744.0</ele><time>2026-05-02T16:07:45.999Z</time></trkpt><trkpt lat="44.51291390060371" lon="9.155829341787586"><ele>744.0</ele><time>2026-05-02T16:07:46.999Z</time></trkpt><trkpt lat="44.5127526590383" lon="9.155619061017521"><ele>744.0</ele><time>2026-05-02T16:07:47.999Z</time></trkpt><trkpt lat="44.51248225576103" lon="9.155418771985921"><ele>746.0</ele><time>2026-05-02T16:07:48.999Z</time></trkpt><trkpt lat="44.51228645954525" lon="9.155218318197285"><ele>748.0</ele><time>2026-05-02T16:07:49.999Z</time></trkpt><trkpt lat="44.51208988928229" lon="9.15502933877454"><ele>750.0</ele><time>2026-05-02T16:07:50.999Z</time></trkpt><trkpt lat="44.511893760021046" lon="9.154850982501888"><ele>752.0</ele><time>2026-05-02T16:07:51.999Z</time></trkpt><trkpt lat="44.51168808194259" lon="9.154671504451258"><ele>752.0</ele><time>2026-05-02T16:07:52.999Z</time></trkpt><trkpt lat="44.51146100114215" lon="9.154543767186082"><ele>752.0</ele><time>2026-05-02T16:07:53.999Z</time></trkpt><trkpt lat="44.51123264243316" lon="9.154410431047447"><ele>743.5</ele><time>2026-05-02T16:07:54.999Z</time></trkpt><trkpt lat="44.51099825665127" lon="9.154290460448054"><ele>735.0</ele><time>2026-05-02T16:07:55.999Z</time></trkpt><trkpt lat="44.510759318895275" lon="9.154196270074316"><ele>735.0</ele><time>2026-05-02T16:07:56.999Z</time></trkpt><trkpt lat="44.51053313682181" lon="9.154082579399136"><ele>735.0</ele><time>2026-05-02T16:07:57.999Z</time></trkpt><trkpt lat="44.51031729995812" lon="9.154003327782954"><ele>736.6666666666666</ele><time>2026-05-02T16:07:58.999Z</time></trkpt><trkpt lat="44.51010944566063" lon="9.153928336568148"><ele>738.3333333333333</ele><time>2026-05-02T16:08:00Z</time></trkpt><trkpt lat="44.50990569056784" lon="9.15385482419811"><ele>740.0</ele><time>2026-05-02T16:08:01Z</time></trkpt><trkpt lat="44.50969974190453" lon="9.1537805211861"><ele>739.0</ele><time>2026-05-02T16:08:02Z</time></trkpt><trkpt lat="44.50949808361433" lon="9.153705574822526"><ele>738.0</ele><time>2026-05-02T16:08:03Z</time></trkpt><trkpt lat="44.50929290703145" lon="9.153628614202178"><ele>737.0</ele><time>2026-05-02T16:08:04Z</time></trkpt><trkpt lat="44.509079308748554" lon="9.15356534439974"><ele>737.0</ele><time>2026-05-02T16:08:05Z</time></trkpt><trkpt lat="44.5088676623228" lon="9.15346074287548"><ele>737.0</ele><time>2026-05-02T16:08:06Z</time></trkpt><trkpt lat="44.50872099259125" lon="9.153409945126556"><ele>737.0</ele><time>2026-05-02T16:08:07Z</time></trkpt><trkpt lat="44.50850213232282" lon="9.153281379231066"><ele>742.5</ele><time>2026-05-02T16:08:08Z</time></trkpt><trkpt lat="44.508279405899174" lon="9.153148658843024"><ele>748.0</ele><time>2026-05-02T16:08:09Z</time></trkpt><trkpt lat="44.50805689958683" lon="9.152995896032081"><ele>740.5</ele><time>2026-05-02T16:08:10Z</time></trkpt><trkpt lat="44.507704453264054" lon="9.152727845445238"><ele>733.0</ele><time>2026-05-02T16:08:11Z</time></trkpt><trkpt lat="44.50748833145433" lon="9.152490614514074"><ele>730.5</ele><time>2026-05-02T16:08:12Z</time></trkpt><trkpt lat="44.50731386827303" lon="9.152321103978405"><ele>728.0</ele><time>2026-05-02T16:08:13Z</time></trkpt><trkpt lat="44.50709827848185" lon="9.15211228332423"><ele>727.5</ele><time>2026-05-02T16:08:14Z</time></trkpt><trkpt lat="44.50687281353451" lon="9.151894454974299"><ele>727.0</ele><time>2026-05-02T16:08:15Z</time></trkpt><trkpt lat="44.506655400077726" lon="9.15168405739616"><ele>732.5</ele><time>2026-05-02T16:08:16Z</time></trkpt><trkpt lat="44.50642636856308" lon="9.151481020587678"><ele>738.0</ele><time>2026-05-02T16:08:17Z</time></trkpt><trkpt lat="44.50621145805572" lon="9.151254723320118"><ele>747.0</ele><time>2026-05-02T16:08:18Z</time></trkpt><trkpt lat="44.50599269850162" lon="9.151043007534316"><ele>756.0</ele><time>2026-05-02T16:08:19Z</time></trkpt><trkpt lat="44.50577005754261" lon="9.150824598137811"><ele>757.5</ele><time>2026-05-02T16:08:20Z</time></trkpt><trkpt lat="44.50554214500265" lon="9.150606466972832"><ele>759.0</ele><time>2026-05-02T16:08:21Z</time></trkpt><trkpt lat="44.50531922900788" lon="9.150390430501833"><ele>750.5</ele><time>2026-05-02T16:08:22Z</time></trkpt><trkpt lat="44.50509082586265" lon="9.150174697001853"><ele>742.0</ele><time>2026-05-02T16:08:23Z</time></trkpt><trkpt lat="44.504845845442624" lon="9.149936631440656"><ele>740.5</ele><time>2026-05-02T16:08:24.071Z</time></trkpt><trkpt lat="44.5046480689098" lon="9.14973452257172"><ele>739.0</ele><time>2026-05-02T16:08:25.063Z</time></trkpt><trkpt lat="44.50437058922991" lon="9.149463427845147"><ele>725.5</ele><time>2026-05-02T16:08:27Z</time></trkpt><trkpt lat="44.504206896250096" lon="9.149294906775197"><ele>712.0</ele><time>2026-05-02T16:08:28Z</time></trkpt><trkpt lat="44.50402461523366" lon="9.149062118317106"><ele>706.0</ele><time>2026-05-02T16:08:29Z</time></trkpt><trkpt lat="44.50384373589569" lon="9.14882267812459"><ele>700.0</ele><time>2026-05-02T16:08:30Z</time></trkpt><trkpt lat="44.50367760564463" lon="9.148566690069678"><ele>700.0</ele><time>2026-05-02T16:08:31Z</time></trkpt><trkpt lat="44.503518649700254" lon="9.148299695263242"><ele>700.0</ele><time>2026-05-02T16:08:32Z</time></trkpt><trkpt lat="44.50337249302354" lon="9.148021226815734"><ele>707.5</ele><time>2026-05-02T16:08:33Z</time></trkpt><trkpt lat="44.50323791402375" lon="9.147726194814618"><ele>715.0</ele><time>2026-05-02T16:08:34Z</time></trkpt><trkpt lat="44.503107830957106" lon="9.147409561923771"><ele>717.5</ele><time>2026-05-02T16:08:35Z</time></trkpt><trkpt lat="44.502987873035714" lon="9.147076964107177"><ele>720.0</ele><time>2026-05-02T16:08:36Z</time></trkpt><trkpt lat="44.50289356589408" lon="9.146729290136022"><ele>713.5</ele><time>2026-05-02T16:08:37Z</time></trkpt><trkpt lat="44.502795892115145" lon="9.146377225112191"><ele>707.0</ele><time>2026-05-02T16:08:38Z</time></trkpt><trkpt lat="44.50269161353516" lon="9.146025627581233"><ele>710.5</ele><time>2026-05-02T16:08:39Z</time></trkpt><trkpt lat="44.502599340366096" lon="9.145660494605657"><ele>714.0</ele><time>2026-05-02T16:08:40Z</time></trkpt><trkpt lat="44.502502374886696" lon="9.145306868714702"><ele>714.0</ele><time>2026-05-02T16:08:41Z</time></trkpt><trkpt lat="44.502407175837675" lon="9.144949838444505"><ele>714.0</ele><time>2026-05-02T16:08:42Z</time></trkpt><trkpt lat="44.50231336197774" lon="9.144590221939154"><ele>719.5</ele><time>2026-05-02T16:08:43Z</time></trkpt><trkpt lat="44.50222146082866" lon="9.14424162691606"><ele>725.0</ele><time>2026-05-02T16:08:44Z</time></trkpt><trkpt lat="44.50212784826772" lon="9.143895066720209"><ele>731.0</ele><time>2026-05-02T16:08:45Z</time></trkpt><trkpt lat="44.50203197515057" lon="9.143541559905431"><ele>737.0</ele><time>2026-05-02T16:08:46Z</time></trkpt><trkpt lat="44.50193712683186" lon="9.143186067742153"><ele>739.5</ele><time>2026-05-02T16:08:47Z</time></trkpt><trkpt lat="44.50183659708776" lon="9.142806081479817"><ele>742.0</ele><time>2026-05-02T16:08:48.071Z</time></trkpt><trkpt lat="44.501743552113474" lon="9.142464764888311"><ele>740.0</ele><time>2026-05-02T16:08:49.055Z</time></trkpt><trkpt lat="44.50164417321252" lon="9.142121479795556"><ele>738.0</ele><time>2026-05-02T16:08:50.055Z</time></trkpt><trkpt lat="44.5015444193099" lon="9.141772797215209"><ele>702.0</ele><time>2026-05-02T16:08:51.059Z</time></trkpt><trkpt lat="44.50076101647544" lon="9.140110422499063"><ele>676.0</ele><time>2026-05-02T16:08:54.213Z</time></trkpt><trkpt lat="44.50017656241161" lon="9.139023413966699"><ele>676.0</ele><time>2026-05-02T16:09:00Z</time></trkpt><trkpt lat="44.500029411563226" lon="9.138756184538384"><ele>676.0</ele><time>2026-05-02T16:09:00.999Z</time></trkpt><trkpt lat="44.499903484830874" lon="9.138507017541698"><ele>676.0</ele><time>2026-05-02T16:09:01.999Z</time></trkpt><trkpt lat="44.499770866789426" lon="9.138272997500584"><ele>676.0</ele><time>2026-05-02T16:09:02.999Z</time></trkpt><trkpt lat="44.49961988528576" lon="9.138027432123302"><ele>676.0</ele><time>2026-05-02T16:09:03.999Z</time></trkpt><trkpt lat="44.49947041715524" lon="9.13780484586169"><ele>675.3333333333334</ele><time>2026-05-02T16:09:04.999Z</time></trkpt><trkpt lat="44.499337430945545" lon="9.137567431168915"><ele>674.6666666666666</ele><time>2026-05-02T16:09:05.999Z</time></trkpt><trkpt lat="44.49918743420276" lon="9.13734273812546"><ele>674.0</ele><time>2026-05-02T16:09:06.999Z</time></trkpt><trkpt lat="44.49903120977203" lon="9.13711889874486"><ele>670.0</ele><time>2026-05-02T16:09:07.999Z</time></trkpt><trkpt lat="44.49886116031922" lon="9.136884977593615"><ele>666.0</ele><time>2026-05-02T16:09:08.999Z</time></trkpt><trkpt lat="44.498673929469106" lon="9.136634454271025"><ele>661.0</ele><time>2026-05-02T16:09:09.999Z</time></trkpt><trkpt lat="44.49849350208699" lon="9.136402785653885"><ele>656.0</ele><time>2026-05-02T16:09:10.999Z</time></trkpt><trkpt lat="44.49830935207419" lon="9.136175228932343"><ele>656.0</ele><time>2026-05-02T16:09:11.999Z</time></trkpt><trkpt lat="44.4981341214751" lon="9.13593097283679"><ele>656.0</ele><time>2026-05-02T16:09:12.999Z</time></trkpt><trkpt lat="44.4979565425966" lon="9.135694584705917"><ele>652.5</ele><time>2026-05-02T16:09:13.999Z</time></trkpt><trkpt lat="44.49777300140053" lon="9.135460030816168"><ele>649.0</ele><time>2026-05-02T16:09:14.999Z</time></trkpt><trkpt lat="44.49758646228499" lon="9.135227500906042"><ele>649.0</ele><time>2026-05-02T16:09:15.999Z</time></trkpt><trkpt lat="44.49740449649014" lon="9.13499585468487"><ele>649.0</ele><time>2026-05-02T16:09:16.999Z</time></trkpt><trkpt lat="44.49721559840993" lon="9.134763687070688"><ele>649.0</ele><time>2026-05-02T16:09:17.999Z</time></trkpt><trkpt lat="44.49703362744968" lon="9.134536634292948"><ele>649.0</ele><time>2026-05-02T16:09:18.999Z</time></trkpt><trkpt lat="44.496845155990414" lon="9.134311470137975"><ele>649.0</ele><time>2026-05-02T16:09:19.999Z</time></trkpt><trkpt lat="44.496654264479886" lon="9.134091021176172"><ele>649.0</ele><time>2026-05-02T16:09:20.999Z</time></trkpt><trkpt lat="44.49645822152204" lon="9.133874410415213"><ele>653.5</ele><time>2026-05-02T16:09:21.999Z</time></trkpt><trkpt lat="44.4962495977934" lon="9.133650246207292"><ele>658.0</ele><time>2026-05-02T16:09:22.999Z</time></trkpt><trkpt lat="44.49604760489236" lon="9.133415085452981"><ele>658.5</ele><time>2026-05-02T16:09:23.999Z</time></trkpt><trkpt lat="44.495848378805675" lon="9.133190536313732"><ele>659.0</ele><time>2026-05-02T16:09:24.999Z</time></trkpt><trkpt lat="44.49565437021603" lon="9.132967240241614"><ele>659.0</ele><time>2026-05-02T16:09:25.999Z</time></trkpt><trkpt lat="44.495441474441215" lon="9.13277767523044"><ele>659.0</ele><time>2026-05-02T16:09:26.999Z</time></trkpt><trkpt lat="44.495220118493165" lon="9.132584376611632"><ele>654.0</ele><time>2026-05-02T16:09:27.999Z</time></trkpt><trkpt lat="44.49497655219185" lon="9.132373731521747"><ele>649.0</ele><time>2026-05-02T16:09:29.069Z</time></trkpt><trkpt lat="44.49476310917068" lon="9.132189138236765"><ele>641.5</ele><time>2026-05-02T16:09:30.064Z</time></trkpt><trkpt lat="44.494553927160226" lon="9.13201019425926"><ele>634.0</ele><time>2026-05-02T16:09:31.058Z</time></trkpt><trkpt lat="44.49434449392996" lon="9.131831355855226"><ele>634.0</ele><time>2026-05-02T16:09:32.04Z</time></trkpt><trkpt lat="44.49391046868237" lon="9.131617798645788"><ele>628.0</ele><time>2026-05-02T16:09:33.999Z</time></trkpt><trkpt lat="44.49375226015369" lon="9.131475605470174"><ele>622.0</ele><time>2026-05-02T16:09:34.999Z</time></trkpt><trkpt lat="44.49361074846757" lon="9.131334426372986"><ele>616.0</ele><time>2026-05-02T16:09:35.999Z</time></trkpt><trkpt lat="44.493495660515855" lon="9.131227844771328"><ele>616.0</ele><time>2026-05-02T16:09:36.999Z</time></trkpt><trkpt lat="44.49339246232696" lon="9.131095427677934"><ele>616.0</ele><time>2026-05-02T16:09:37.999Z</time></trkpt><trkpt lat="44.49332826268823" lon="9.130937490029048"><ele>616.0</ele><time>2026-05-02T16:09:38.999Z</time></trkpt><trkpt lat="44.49327991757162" lon="9.130755216518716"><ele>616.0</ele><time>2026-05-02T16:09:39.999Z</time></trkpt><trkpt lat="44.49323169167193" lon="9.130537219731275"><ele>612.25</ele><time>2026-05-02T16:09:40.999Z</time></trkpt><trkpt lat="44.49317910236373" lon="9.130345790462538"><ele>608.5</ele><time>2026-05-02T16:09:41.999Z</time></trkpt><trkpt lat="44.4931240909857" lon="9.130182057509753"><ele>604.75</ele><time>2026-05-02T16:09:42.999Z</time></trkpt><trkpt lat="44.49306214748156" lon="9.13006243248141"><ele>601.0</ele><time>2026-05-02T16:09:43.999Z</time></trkpt><trkpt lat="44.49299143862858" lon="9.129967743666958"><ele>598.6</ele><time>2026-05-02T16:09:44.999Z</time></trkpt><trkpt lat="44.49290312288978" lon="9.129907636791279"><ele>596.2</ele><time>2026-05-02T16:09:45.999Z</time></trkpt><trkpt lat="44.49279806565723" lon="9.129875158087913"><ele>593.8</ele><time>2026-05-02T16:09:46.999Z</time></trkpt><trkpt lat="44.49270063613355" lon="9.129894843223903"><ele>591.4</ele><time>2026-05-02T16:09:47.999Z</time></trkpt><trkpt lat="44.49261671562157" lon="9.12995519163135"><ele>589.0</ele><time>2026-05-02T16:09:48.999Z</time></trkpt><trkpt lat="44.49253030505023" lon="9.130034575979016"><ele>589.0</ele><time>2026-05-02T16:09:49.999Z</time></trkpt><trkpt lat="44.49248884998675" lon="9.13020531856407"><ele>589.0</ele><time>2026-05-02T16:09:50.999Z</time></trkpt><trkpt lat="44.492453898960164" lon="9.13036454360684"><ele>589.0</ele><time>2026-05-02T16:09:51.999Z</time></trkpt><trkpt lat="44.49240309822482" lon="9.130496043410693"><ele>589.0</ele><time>2026-05-02T16:09:52.999Z</time></trkpt><trkpt lat="44.49231526302429" lon="9.130599751315668"><ele>589.0</ele><time>2026-05-02T16:09:53.999Z</time></trkpt><trkpt lat="44.492210355378994" lon="9.130652849577833"><ele>589.0</ele><time>2026-05-02T16:09:54.999Z</time></trkpt><trkpt lat="44.49210921732334" lon="9.13067327321244"><ele>589.0</ele><time>2026-05-02T16:09:55.999Z</time></trkpt><trkpt lat="44.492018839293166" lon="9.130715771677728"><ele>589.0</ele><time>2026-05-02T16:09:56.999Z</time></trkpt><trkpt lat="44.4918900010012" lon="9.130695145690737"><ele>589.0</ele><time>2026-05-02T16:09:57.999Z</time></trkpt><trkpt lat="44.49174680932533" lon="9.130717674225224"><ele>590.0</ele><time>2026-05-02T16:09:58.999Z</time></trkpt><trkpt lat="44.491575492115565" lon="9.130745460803446"><ele>591.0</ele><time>2026-05-02T16:09:59.999Z</time></trkpt><trkpt lat="44.491377597886775" lon="9.130769957058563"><ele>592.0</ele><time>2026-05-02T16:10:00.999Z</time></trkpt><trkpt lat="44.49118339377924" lon="9.130784997760555"><ele>601.3333333333334</ele><time>2026-05-02T16:10:01.999Z</time></trkpt><trkpt lat="44.490977339588426" lon="9.130804557552118"><ele>610.6666666666666</ele><time>2026-05-02T16:10:02.999Z</time></trkpt><trkpt lat="44.49075713599274" lon="9.13082870077481"><ele>620.0</ele><time>2026-05-02T16:10:03.999Z</time></trkpt><trkpt lat="44.49052752416396" lon="9.130856050600592"><ele>624.5</ele><time>2026-05-02T16:10:04.999Z</time></trkpt><trkpt lat="44.49030411509763" lon="9.13088137931457"><ele>629.0</ele><time>2026-05-02T16:10:06Z</time></trkpt><trkpt lat="44.49006892272646" lon="9.130905162347332"><ele>629.0</ele><time>2026-05-02T16:10:07Z</time></trkpt><trkpt lat="44.48982822081853" lon="9.130929127397943"><ele>629.0</ele><time>2026-05-02T16:10:08Z</time></trkpt><trkpt lat="44.489580742454756" lon="9.130955578869205"><ele>630.6666666666666</ele><time>2026-05-02T16:10:09Z</time></trkpt><trkpt lat="44.4893524071111" lon="9.130979421138761"><ele>632.3333333333334</ele><time>2026-05-02T16:10:10Z</time></trkpt><trkpt lat="44.48913763725044" lon="9.130998421245433"><ele>634.0</ele><time>2026-05-02T16:10:11Z</time></trkpt><trkpt lat="44.48891859869948" lon="9.130999359388765"><ele>636.5</ele><time>2026-05-02T16:10:12Z</time></trkpt><trkpt lat="44.48868943695874" lon="9.130958623356053"><ele>639.0</ele><time>2026-05-02T16:10:13Z</time></trkpt><trkpt lat="44.488455102455674" lon="9.130886210107956"><ele>639.0</ele><time>2026-05-02T16:10:14Z</time></trkpt><trkpt lat="44.48821506592761" lon="9.130787210783517"><ele>639.0</ele><time>2026-05-02T16:10:15Z</time></trkpt><trkpt lat="44.48797827729726" lon="9.130670139273585"><ele>630.0</ele><time>2026-05-02T16:10:16Z</time></trkpt><trkpt lat="44.48774997863919" lon="9.130524196765052"><ele>621.0</ele><time>2026-05-02T16:10:17Z</time></trkpt><trkpt lat="44.48752675051009" lon="9.130367202558755"><ele>621.0</ele><time>2026-05-02T16:10:18Z</time></trkpt><trkpt lat="44.48730821569881" lon="9.130215865606566"><ele>621.0</ele><time>2026-05-02T16:10:19Z</time></trkpt><trkpt lat="44.48709733230565" lon="9.130079171351138"><ele>620.6666666666666</ele><time>2026-05-02T16:10:20Z</time></trkpt><trkpt lat="44.48691023038795" lon="9.129954766654885"><ele>620.3333333333333</ele><time>2026-05-02T16:10:21Z</time></trkpt><trkpt lat="44.486723193859824" lon="9.129831328619645"><ele>620.0</ele><time>2026-05-02T16:10:22Z</time></trkpt><trkpt lat="44.48654369986315" lon="9.12971064163276"><ele>620.0</ele><time>2026-05-02T16:10:23Z</time></trkpt><trkpt lat="44.4863841523772" lon="9.12959530434283"><ele>620.0</ele><time>2026-05-02T16:10:24Z</time></trkpt><trkpt lat="44.48623459455941" lon="9.129464754076551"><ele>620.0</ele><time>2026-05-02T16:10:25Z</time></trkpt><trkpt lat="44.48610361817786" lon="9.129308679420761"><ele>623.6666666666666</ele><time>2026-05-02T16:10:26Z</time></trkpt><trkpt lat="44.48598614183354" lon="9.129143876770915"><ele>627.3333333333334</ele><time>2026-05-02T16:10:27Z</time></trkpt><trkpt lat="44.48588845518724" lon="9.128987865967328"><ele>631.0</ele><time>2026-05-02T16:10:28Z</time></trkpt><trkpt lat="44.48579027562788" lon="9.12881979132892"><ele>631.0</ele><time>2026-05-02T16:10:29Z</time></trkpt><trkpt lat="44.485702377479726" lon="9.12866400394025"><ele>631.0</ele><time>2026-05-02T16:10:30Z</time></trkpt><trkpt lat="44.48561570286183" lon="9.128515718955164"><ele>631.0</ele><time>2026-05-02T16:10:31Z</time></trkpt><trkpt lat="44.485528307360205" lon="9.128323212542512"><ele>631.0</ele><time>2026-05-02T16:10:32Z</time></trkpt><trkpt lat="44.485407841146625" lon="9.128147592425469"><ele>632.3333333333334</ele><time>2026-05-02T16:10:33Z</time></trkpt><trkpt lat="44.48529148424328" lon="9.127937507302166"><ele>633.6666666666666</ele><time>2026-05-02T16:10:34Z</time></trkpt><trkpt lat="44.48517071354815" lon="9.127711666783892"><ele>635.0</ele><time>2026-05-02T16:10:35Z</time></trkpt><trkpt lat="44.48504517602042" lon="9.127474380829904"><ele>633.3333333333333</ele><time>2026-05-02T16:10:36Z</time></trkpt><trkpt lat="44.48490779348642" lon="9.127226182541774"><ele>631.6666666666666</ele><time>2026-05-02T16:10:37Z</time></trkpt><trkpt lat="44.484764749512976" lon="9.126986580446845"><ele>630.0</ele><time>2026-05-02T16:10:38Z</time></trkpt><trkpt lat="44.48460547468304" lon="9.12674427777252"><ele>631.5</ele><time>2026-05-02T16:10:39Z</time></trkpt><trkpt lat="44.484454675947816" lon="9.126481559836858"><ele>633.0</ele><time>2026-05-02T16:10:40Z</time></trkpt><trkpt lat="44.48429865188037" lon="9.126212323261582"><ele>633.0</ele><time>2026-05-02T16:10:41Z</time></trkpt><trkpt lat="44.4841297523228" lon="9.12595132879839"><ele>633.0</ele><time>2026-05-02T16:10:42Z</time></trkpt><trkpt lat="44.483982719701395" lon="9.125661609430663"><ele>630.5</ele><time>2026-05-02T16:10:43Z</time></trkpt><trkpt lat="44.48382675720019" lon="9.12537652480489"><ele>628.0</ele><time>2026-05-02T16:10:44Z</time></trkpt><trkpt lat="44.4836693603252" lon="9.125095289664127"><ele>635.0</ele><time>2026-05-02T16:10:45Z</time></trkpt><trkpt lat="44.48351918831026" lon="9.124825248935174"><ele>642.0</ele><time>2026-05-02T16:10:46Z</time></trkpt><trkpt lat="44.48337166810478" lon="9.124562957093831"><ele>642.0</ele><time>2026-05-02T16:10:47Z</time></trkpt><trkpt lat="44.48322509710818" lon="9.124312235029207"><ele>642.0</ele><time>2026-05-02T16:10:48Z</time></trkpt><trkpt lat="44.48308049197343" lon="9.124071943340505"><ele>645.3333333333334</ele><time>2026-05-02T16:10:49Z</time></trkpt><trkpt lat="44.48292887638907" lon="9.123842493433115"><ele>648.6666666666667</ele><time>2026-05-02T16:10:50Z</time></trkpt><trkpt lat="44.48275861110126" lon="9.123647164511238"><ele>652.0</ele><time>2026-05-02T16:10:51Z</time></trkpt><trkpt lat="44.482570023011036" lon="9.123482858329456"><ele>652.0</ele><time>2026-05-02T16:10:52Z</time></trkpt><trkpt lat="44.48240196046035" lon="9.12329250306816"><ele>652.0</ele><time>2026-05-02T16:10:53Z</time></trkpt><trkpt lat="44.482221310414396" lon="9.123119969506492"><ele>652.0</ele><time>2026-05-02T16:10:54Z</time></trkpt><trkpt lat="44.48194482816068" lon="9.12308710498564"><ele>665.0</ele><time>2026-05-02T16:10:55Z</time></trkpt><trkpt lat="44.48170426066542" lon="9.122951677606215"><ele>678.0</ele><time>2026-05-02T16:10:56Z</time></trkpt><trkpt lat="44.48146512485795" lon="9.12281587599708"><ele>694.0</ele><time>2026-05-02T16:10:57Z</time></trkpt><trkpt lat="44.48122463390696" lon="9.122681318338438"><ele>710.0</ele><time>2026-05-02T16:10:58Z</time></trkpt><trkpt lat="44.48098497490106" lon="9.1225485430013"><ele>710.0</ele><time>2026-05-02T16:10:59Z</time></trkpt><trkpt lat="44.48072826269214" lon="9.122404157357005"><ele>710.0</ele><time>2026-05-02T16:11:00.072Z</time></trkpt><trkpt lat="44.48048558193137" lon="9.1222665353227"><ele>714.5</ele><time>2026-05-02T16:11:01.059Z</time></trkpt><trkpt lat="44.48023745326166" lon="9.122127227853031"><ele>719.0</ele><time>2026-05-02T16:11:02.059Z</time></trkpt><trkpt lat="44.479998116947904" lon="9.121993431452557"><ele>719.0</ele><time>2026-05-02T16:11:03.059Z</time></trkpt><trkpt lat="44.47977524293709" lon="9.121868324668394"><ele>719.0</ele><time>2026-05-02T16:11:04.052Z</time></trkpt><trkpt lat="44.479553822674724" lon="9.121743373363103"><ele>639.0</ele><time>2026-05-02T16:11:05.043Z</time></trkpt><trkpt lat="44.47061037956814" lon="9.116731503198388"><ele>639.0</ele><time>2026-05-02T16:12:06.999Z</time></trkpt><trkpt lat="44.4705039013627" lon="9.116632760705635"><ele>639.0</ele><time>2026-05-02T16:12:08.999Z</time></trkpt><trkpt lat="44.47040711973229" lon="9.116590396929741"><ele>639.0</ele><time>2026-05-02T16:12:09.999Z</time></trkpt><trkpt lat="44.470303147591444" lon="9.116554232910733"><ele>639.0</ele><time>2026-05-02T16:12:10.999Z</time></trkpt><trkpt lat="44.47018835550087" lon="9.116525485715076"><ele>633.5</ele><time>2026-05-02T16:12:11.999Z</time></trkpt><trkpt lat="44.47007098917006" lon="9.116503030000636"><ele>628.0</ele><time>2026-05-02T16:12:13Z</time></trkpt><trkpt lat="44.469963717092405" lon="9.116473177905057"><ele>622.5</ele><time>2026-05-02T16:12:14Z</time></trkpt><trkpt lat="44.4698547111118" lon="9.11643854291482"><ele>617.0</ele><time>2026-05-02T16:12:15Z</time></trkpt><trkpt lat="44.46974243316178" lon="9.11640744095"><ele>617.0</ele><time>2026-05-02T16:12:16Z</time></trkpt><trkpt lat="44.4696201988634" lon="9.116362742276873"><ele>617.0</ele><time>2026-05-02T16:12:17Z</time></trkpt><trkpt lat="44.46950851698654" lon="9.1162962312437"><ele>617.0</ele><time>2026-05-02T16:12:18Z</time></trkpt><trkpt lat="44.469414674386215" lon="9.116230465804774"><ele>617.0</ele><time>2026-05-02T16:12:19Z</time></trkpt><trkpt lat="44.469322979207504" lon="9.11616521385645"><ele>616.8333333333333</ele><time>2026-05-02T16:12:20Z</time></trkpt><trkpt lat="44.46923592285879" lon="9.116105199030956"><ele>616.6666666666666</ele><time>2026-05-02T16:12:21Z</time></trkpt><trkpt lat="44.46915651365177" lon="9.116055627278627"><ele>616.5</ele><time>2026-05-02T16:12:22Z</time></trkpt><trkpt lat="44.4690814381909" lon="9.116016047526186"><ele>616.3333333333334</ele><time>2026-05-02T16:12:23Z</time></trkpt><trkpt lat="44.46900572010615" lon="9.115977581451487"><ele>616.1666666666667</ele><time>2026-05-02T16:12:24Z</time></trkpt><trkpt lat="44.46893025459505" lon="9.115942724426253"><ele>616.0</ele><time>2026-05-02T16:12:25Z</time></trkpt><trkpt lat="44.468854489516886" lon="9.115914934403383"><ele>616.0</ele><time>2026-05-02T16:12:26Z</time></trkpt><trkpt lat="44.468781115390804" lon="9.115866280054702"><ele>616.0</ele><time>2026-05-02T16:12:27Z</time></trkpt><trkpt lat="44.468698347753076" lon="9.115832222324467"><ele>616.0</ele><time>2026-05-02T16:12:28Z</time></trkpt><trkpt lat="44.46860390237868" lon="9.115792964152321"><ele>616.0</ele><time>2026-05-02T16:12:29Z</time></trkpt><trkpt lat="44.468494449978" lon="9.115750177087595"><ele>616.0</ele><time>2026-05-02T16:12:30Z</time></trkpt><trkpt lat="44.468378740626015" lon="9.11570628733908"><ele>617.2</ele><time>2026-05-02T16:12:31Z</time></trkpt><trkpt lat="44.46827256145673" lon="9.115685333359314"><ele>618.4000000000001</ele><time>2026-05-02T16:12:32Z</time></trkpt><trkpt lat="44.46818134221406" lon="9.115648794453302"><ele>619.6</ele><time>2026-05-02T16:12:33Z</time></trkpt><trkpt lat="44.46809804398992" lon="9.115579318139735"><ele>620.8000000000001</ele><time>2026-05-02T16:12:34Z</time></trkpt><trkpt lat="44.468007733500556" lon="9.115511428941286"><ele>622.0</ele><time>2026-05-02T16:12:35Z</time></trkpt><trkpt lat="44.46793650660836" lon="9.115379342918995"><ele>622.0</ele><time>2026-05-02T16:12:36Z</time></trkpt><trkpt lat="44.467882841177136" lon="9.115217234900621"><ele>622.0</ele><time>2026-05-02T16:12:37Z</time></trkpt><trkpt lat="44.4678529430078" lon="9.115053080155485"><ele>622.0</ele><time>2026-05-02T16:12:38Z</time></trkpt><trkpt lat="44.46783910638333" lon="9.114897622073881"><ele>622.0</ele><time>2026-05-02T16:12:39Z</time></trkpt><trkpt lat="44.46780959284065" lon="9.114744072721827"><ele>616.0</ele><time>2026-05-02T16:12:40Z</time></trkpt><trkpt lat="44.4677414127356" lon="9.114573370468948"><ele>610.0</ele><time>2026-05-02T16:12:41Z</time></trkpt><trkpt lat="44.46765350397066" lon="9.114391606423162"><ele>604.0</ele><time>2026-05-02T16:12:42Z</time></trkpt><trkpt lat="44.46757035701909" lon="9.114226186394214"><ele>598.0</ele><time>2026-05-02T16:12:43Z</time></trkpt><trkpt lat="44.46749780913973" lon="9.114067850270633"><ele>595.0</ele><time>2026-05-02T16:12:44Z</time></trkpt><trkpt lat="44.467433014679514" lon="9.113921934667472"><ele>592.0</ele><time>2026-05-02T16:12:45Z</time></trkpt><trkpt lat="44.46736017710814" lon="9.11378984328353"><ele>589.0</ele><time>2026-05-02T16:12:46Z</time></trkpt><trkpt lat="44.4672911322678" lon="9.113647535814792"><ele>586.0</ele><time>2026-05-02T16:12:47Z</time></trkpt><trkpt lat="44.46721957555481" lon="9.11351141472445"><ele>586.0</ele><time>2026-05-02T16:12:48Z</time></trkpt><trkpt lat="44.467164103164826" lon="9.113343907471329"><ele>586.0</ele><time>2026-05-02T16:12:49Z</time></trkpt><trkpt lat="44.46709089195068" lon="9.113204428128547"><ele>586.0</ele><time>2026-05-02T16:12:50Z</time></trkpt><trkpt lat="44.46702033513382" lon="9.113068464103995"><ele>586.0</ele><time>2026-05-02T16:12:51Z</time></trkpt><trkpt lat="44.46695799536811" lon="9.112930300904067"><ele>586.25</ele><time>2026-05-02T16:12:52Z</time></trkpt><trkpt lat="44.46689329464412" lon="9.112787315941896"><ele>586.5</ele><time>2026-05-02T16:12:53Z</time></trkpt><trkpt lat="44.46682831546418" lon="9.112657799915834"><ele>586.75</ele><time>2026-05-02T16:12:54Z</time></trkpt><trkpt lat="44.46676326810491" lon="9.112522575175285"><ele>587.0</ele><time>2026-05-02T16:12:55Z</time></trkpt><trkpt lat="44.46669860512321" lon="9.112390954053858"><ele>587.0</ele><time>2026-05-02T16:12:56Z</time></trkpt><trkpt lat="44.466635275734504" lon="9.1122542145045"><ele>587.0</ele><time>2026-05-02T16:12:57Z</time></trkpt><trkpt lat="44.466560227200915" lon="9.11209116383187"><ele>587.0</ele><time>2026-05-02T16:12:58Z</time></trkpt><trkpt lat="44.466493349043056" lon="9.111922288440919"><ele>587.0</ele><time>2026-05-02T16:12:59Z</time></trkpt><trkpt lat="44.46645182742667" lon="9.1117477814742"><ele>584.5</ele><time>2026-05-02T16:13:00Z</time></trkpt><trkpt lat="44.46641528766982" lon="9.111569592051024"><ele>582.0</ele><time>2026-05-02T16:13:01Z</time></trkpt><trkpt lat="44.4663741440572" lon="9.111378216360347"><ele>579.5</ele><time>2026-05-02T16:13:02Z</time></trkpt><trkpt lat="44.46632559759692" lon="9.111174498666466"><ele>577.0</ele><time>2026-05-02T16:13:03Z</time></trkpt><trkpt lat="44.46628044758918" lon="9.110990541717499"><ele>582.25</ele><time>2026-05-02T16:13:04Z</time></trkpt><trkpt lat="44.46623300144236" lon="9.110810281101656"><ele>587.5</ele><time>2026-05-02T16:13:05Z</time></trkpt><trkpt lat="44.466187842488715" lon="9.110626715015316"><ele>592.75</ele><time>2026-05-02T16:13:06Z</time></trkpt><trkpt lat="44.46613839102313" lon="9.110432697790243"><ele>598.0</ele><time>2026-05-02T16:13:07Z</time></trkpt><trkpt lat="44.466094824871725" lon="9.110244293011156"><ele>598.0</ele><time>2026-05-02T16:13:07.999Z</time></trkpt><trkpt lat="44.466049757745196" lon="9.110072565492304"><ele>598.0</ele><time>2026-05-02T16:13:08.999Z</time></trkpt><trkpt lat="44.46600629771931" lon="9.109899960107771"><ele>598.0</ele><time>2026-05-02T16:13:09.999Z</time></trkpt><trkpt lat="44.46600038112175" lon="9.109705556407091"><ele>598.0</ele><time>2026-05-02T16:13:10.999Z</time></trkpt><trkpt lat="44.46600856774828" lon="9.109483271174016"><ele>597.6666666666667</ele><time>2026-05-02T16:13:11.999Z</time></trkpt><trkpt lat="44.466039675182635" lon="9.10925815908321"><ele>597.3333333333334</ele><time>2026-05-02T16:13:12.999Z</time></trkpt><trkpt lat="44.4661257725867" lon="9.109054098323746"><ele>597.0</ele><time>2026-05-02T16:13:13.999Z</time></trkpt><trkpt lat="44.46621734781477" lon="9.10885489120961"><ele>589.5</ele><time>2026-05-02T16:13:14.999Z</time></trkpt><trkpt lat="44.46629607715784" lon="9.108659096474979"><ele>582.0</ele><time>2026-05-02T16:13:15.999Z</time></trkpt><trkpt lat="44.46638513951699" lon="9.108491950356303"><ele>574.5</ele><time>2026-05-02T16:13:16.999Z</time></trkpt><trkpt lat="44.466446989223265" lon="9.108323578797544"><ele>567.0</ele><time>2026-05-02T16:13:17.999Z</time></trkpt><trkpt lat="44.46648101824639" lon="9.108127682369142"><ele>567.0</ele><time>2026-05-02T16:13:18.999Z</time></trkpt><trkpt lat="44.466501241372" lon="9.107916565279703"><ele>567.0</ele><time>2026-05-02T16:13:19.999Z</time></trkpt><trkpt lat="44.466516948808035" lon="9.10772524005627"><ele>567.0</ele><time>2026-05-02T16:13:20.999Z</time></trkpt><trkpt lat="44.46652690728076" lon="9.107546979134593"><ele>567.0</ele><time>2026-05-02T16:13:21.999Z</time></trkpt><trkpt lat="44.46651105264495" lon="9.107373057896423"><ele>567.75</ele><time>2026-05-02T16:13:22.999Z</time></trkpt><trkpt lat="44.46645328720364" lon="9.10721954164616"><ele>568.5</ele><time>2026-05-02T16:13:23.999Z</time></trkpt><trkpt lat="44.46636690547942" lon="9.10708471077018"><ele>569.25</ele><time>2026-05-02T16:13:24.999Z</time></trkpt><trkpt lat="44.46625060864927" lon="9.10698693939516"><ele>570.0</ele><time>2026-05-02T16:13:25.999Z</time></trkpt><trkpt lat="44.466106489590345" lon="9.106925045296043"><ele>570.0</ele><time>2026-05-02T16:13:26.999Z</time></trkpt><trkpt lat="44.46594700022444" lon="9.106884665404781"><ele>570.0</ele><time>2026-05-02T16:13:27.999Z</time></trkpt><trkpt lat="44.46579351938197" lon="9.106828852520843"><ele>570.0</ele><time>2026-05-02T16:13:28.999Z</time></trkpt><trkpt lat="44.4656539406314" lon="9.106777999347447"><ele>570.0</ele><time>2026-05-02T16:13:29.999Z</time></trkpt><trkpt lat="44.465524436118805" lon="9.106727336932469"><ele>570.0</ele><time>2026-05-02T16:13:30.999Z</time></trkpt><trkpt lat="44.46542730125118" lon="9.106623688445183"><ele>570.0</ele><time>2026-05-02T16:13:31.999Z</time></trkpt><trkpt lat="44.46533752712561" lon="9.10648783808221"><ele>570.0</ele><time>2026-05-02T16:13:32.999Z</time></trkpt><trkpt lat="44.46528916617091" lon="9.106317053281453"><ele>577.5</ele><time>2026-05-02T16:13:33.999Z</time></trkpt><trkpt lat="44.465256691949" lon="9.106117771742337"><ele>585.0</ele><time>2026-05-02T16:13:34.999Z</time></trkpt><trkpt lat="44.46527695669195" lon="9.105923585623596"><ele>592.5</ele><time>2026-05-02T16:13:35.999Z</time></trkpt><trkpt lat="44.4653283159805" lon="9.105719323330849"><ele>600.0</ele><time>2026-05-02T16:13:36.999Z</time></trkpt><trkpt lat="44.46542327609118" lon="9.105554145989686"><ele>588.3333333333334</ele><time>2026-05-02T16:13:37.999Z</time></trkpt><trkpt lat="44.46550780410639" lon="9.105363097266535"><ele>576.6666666666667</ele><time>2026-05-02T16:13:38.999Z</time></trkpt><trkpt lat="44.465600440176566" lon="9.105204866869792"><ele>565.0</ele><time>2026-05-02T16:13:39.999Z</time></trkpt><trkpt lat="44.4656957369657" lon="9.105050229243146"><ele>566.5</ele><time>2026-05-02T16:13:40.999Z</time></trkpt><trkpt lat="44.4657829347092" lon="9.104906660685218"><ele>568.0</ele><time>2026-05-02T16:13:41.999Z</time></trkpt><trkpt lat="44.465867525647035" lon="9.104759044778799"><ele>569.5</ele><time>2026-05-02T16:13:42.999Z</time></trkpt><trkpt lat="44.46593913772016" lon="9.104594513613701"><ele>571.0</ele><time>2026-05-02T16:13:43.999Z</time></trkpt><trkpt lat="44.465984031324574" lon="9.104410426467595"><ele>571.0</ele><time>2026-05-02T16:13:44.999Z</time></trkpt><trkpt lat="44.46598255756035" lon="9.10421244539875"><ele>571.0</ele><time>2026-05-02T16:13:45.999Z</time></trkpt><trkpt lat="44.46597389967385" lon="9.104014251014247"><ele>571.0</ele><time>2026-05-02T16:13:46.999Z</time></trkpt><trkpt lat="44.46593703358031" lon="9.103825947183402"><ele>571.0</ele><time>2026-05-02T16:13:47.999Z</time></trkpt><trkpt lat="44.465879204628514" lon="9.103654669926266"><ele>567.5</ele><time>2026-05-02T16:13:48.999Z</time></trkpt><trkpt lat="44.46580099917556" lon="9.103502185571916"><ele>564.0</ele><time>2026-05-02T16:13:49.999Z</time></trkpt><trkpt lat="44.46571450201562" lon="9.103369094451772"><ele>560.5</ele><time>2026-05-02T16:13:50.999Z</time></trkpt><trkpt lat="44.46560787825868" lon="9.103263433437315"><ele>557.0</ele><time>2026-05-02T16:13:51.999Z</time></trkpt><trkpt lat="44.465487569919134" lon="9.103174680270362"><ele>557.75</ele><time>2026-05-02T16:13:52.999Z</time></trkpt><trkpt lat="44.46536201585257" lon="9.103091792800202"><ele>558.5</ele><time>2026-05-02T16:13:53.999Z</time></trkpt><trkpt lat="44.4652465356622" lon="9.103006712691927"><ele>559.25</ele><time>2026-05-02T16:13:54.999Z</time></trkpt><trkpt lat="44.4651405148113" lon="9.102925321029806"><ele>560.0</ele><time>2026-05-02T16:13:55.999Z</time></trkpt><trkpt lat="44.465039311406194" lon="9.102845703592253"><ele>560.0</ele><time>2026-05-02T16:13:56.999Z</time></trkpt><trkpt lat="44.46494590760292" lon="9.102776621152731"><ele>560.0</ele><time>2026-05-02T16:13:57.999Z</time></trkpt><trkpt lat="44.464853477789205" lon="9.102709720426096"><ele>560.0</ele><time>2026-05-02T16:13:58.999Z</time></trkpt><trkpt lat="44.464758237086976" lon="9.102645593430205"><ele>560.0</ele><time>2026-05-02T16:13:59.999Z</time></trkpt><trkpt lat="44.46466104407026" lon="9.102578565491617"><ele>560.0</ele><time>2026-05-02T16:14:00.999Z</time></trkpt><trkpt lat="44.46456279388131" lon="9.102503549413271"><ele>562.75</ele><time>2026-05-02T16:14:01.999Z</time></trkpt><trkpt lat="44.464465377398035" lon="9.102424297638663"><ele>565.5</ele><time>2026-05-02T16:14:02.999Z</time></trkpt><trkpt lat="44.464361979029896" lon="9.102346407715242"><ele>568.25</ele><time>2026-05-02T16:14:03.999Z</time></trkpt><trkpt lat="44.464253831415164" lon="9.102259166426682"><ele>571.0</ele><time>2026-05-02T16:14:04.999Z</time></trkpt><trkpt lat="44.46412572176665" lon="9.102165430823634"><ele>567.75</ele><time>2026-05-02T16:14:05.999Z</time></trkpt><trkpt lat="44.46399206364" lon="9.102061269590378"><ele>564.5</ele><time>2026-05-02T16:14:06.999Z</time></trkpt><trkpt lat="44.46387453850878" lon="9.10197119995833"><ele>561.25</ele><time>2026-05-02T16:14:07.999Z</time></trkpt><trkpt lat="44.46375348138568" lon="9.10187678109666"><ele>558.0</ele><time>2026-05-02T16:14:08.999Z</time></trkpt><trkpt lat="44.46362291611834" lon="9.101783313703004"><ele>558.0</ele><time>2026-05-02T16:14:09.999Z</time></trkpt><trkpt lat="44.46348186764347" lon="9.101686399541807"><ele>558.0</ele><time>2026-05-02T16:14:10.999Z</time></trkpt><trkpt lat="44.463340058347256" lon="9.101559802003377"><ele>558.0</ele><time>2026-05-02T16:14:11.999Z</time></trkpt><trkpt lat="44.46318771183277" lon="9.101446412854163"><ele>557.3333333333334</ele><time>2026-05-02T16:14:12.999Z</time></trkpt><trkpt lat="44.463032213089086" lon="9.101332761026296"><ele>556.6666666666667</ele><time>2026-05-02T16:14:13.999Z</time></trkpt><trkpt lat="44.46286844117355" lon="9.101212481904119"><ele>556.0</ele><time>2026-05-02T16:14:14.999Z</time></trkpt><trkpt lat="44.46268120241275" lon="9.101073248123413"><ele>556.0</ele><time>2026-05-02T16:14:15.999Z</time></trkpt><trkpt lat="44.46248846761362" lon="9.10092966766085"><ele>556.0</ele><time>2026-05-02T16:14:16.999Z</time></trkpt><trkpt lat="44.462319583931055" lon="9.100803405778178"><ele>556.0</ele><time>2026-05-02T16:14:18Z</time></trkpt><trkpt lat="44.46216712146879" lon="9.100689420505574"><ele>556.75</ele><time>2026-05-02T16:14:19Z</time></trkpt><trkpt lat="44.46202591704482" lon="9.100593771927603"><ele>557.5</ele><time>2026-05-02T16:14:20Z</time></trkpt><trkpt lat="44.46190688397647" lon="9.10047128662151"><ele>558.25</ele><time>2026-05-02T16:14:21Z</time></trkpt><trkpt lat="44.4618359835419" lon="9.100315071505912"><ele>559.0</ele><time>2026-05-02T16:14:22Z</time></trkpt><trkpt lat="44.461779354189275" lon="9.100149869663241"><ele>559.0</ele><time>2026-05-02T16:14:23Z</time></trkpt><trkpt lat="44.46176347259582" lon="9.099970454848302"><ele>559.0</ele><time>2026-05-02T16:14:24Z</time></trkpt><trkpt lat="44.461774780618114" lon="9.099797691990315"><ele>559.0</ele><time>2026-05-02T16:14:25Z</time></trkpt><trkpt lat="44.46178686341603" lon="9.099630704315054"><ele>559.0</ele><time>2026-05-02T16:14:26Z</time></trkpt><trkpt lat="44.46177734162797" lon="9.099461521531001"><ele>555.8</ele><time>2026-05-02T16:14:27Z</time></trkpt><trkpt lat="44.46175024698554" lon="9.099310008275996"><ele>552.5999999999999</ele><time>2026-05-02T16:14:28Z</time></trkpt><trkpt lat="44.4617054721112" lon="9.099180580550517"><ele>549.4</ele><time>2026-05-02T16:14:29Z</time></trkpt><trkpt lat="44.46164349042717" lon="9.099074779297778"><ele>546.1999999999999</ele><time>2026-05-02T16:14:30Z</time></trkpt><trkpt lat="44.46156396444735" lon="9.09898340652921"><ele>543.0</ele><time>2026-05-02T16:14:31Z</time></trkpt><trkpt lat="44.46146025734257" lon="9.098907725392687"><ele>544.5</ele><time>2026-05-02T16:14:32Z</time></trkpt><trkpt lat="44.4613465268385" lon="9.098863296070064"><ele>546.0</ele><time>2026-05-02T16:14:33Z</time></trkpt><trkpt lat="44.46124969362079" lon="9.098786961221121"><ele>547.5</ele><time>2026-05-02T16:14:34Z</time></trkpt><trkpt lat="44.46115287365749" lon="9.098709695302968"><ele>549.0</ele><time>2026-05-02T16:14:35Z</time></trkpt><trkpt lat="44.46105885517993" lon="9.09860423430188"><ele>549.0</ele><time>2026-05-02T16:14:36Z</time></trkpt><trkpt lat="44.46098293392373" lon="9.098472136899932"><ele>549.0</ele><time>2026-05-02T16:14:37Z</time></trkpt><trkpt lat="44.46090694789369" lon="9.098320315493824"><ele>549.0</ele><time>2026-05-02T16:14:38Z</time></trkpt><trkpt lat="44.46087077293109" lon="9.098139592327765"><ele>549.0</ele><time>2026-05-02T16:14:39Z</time></trkpt><trkpt lat="44.46085641155144" lon="9.097951156752382"><ele>546.0</ele><time>2026-05-02T16:14:40Z</time></trkpt><trkpt lat="44.460871932880934" lon="9.097765004637845"><ele>543.0</ele><time>2026-05-02T16:14:41Z</time></trkpt><trkpt lat="44.46090645670132" lon="9.097533278183848"><ele>540.0</ele><time>2026-05-02T16:14:42Z</time></trkpt><trkpt lat="44.46095691494394" lon="9.097279886914666"><ele>540.0</ele><time>2026-05-02T16:14:43Z</time></trkpt><trkpt lat="44.461008870016926" lon="9.0970442138031"><ele>540.0</ele><time>2026-05-02T16:14:44Z</time></trkpt><trkpt lat="44.46105390519291" lon="9.096834223986352"><ele>540.0</ele><time>2026-05-02T16:14:45Z</time></trkpt><trkpt lat="44.46109148913715" lon="9.096631522110528"><ele>534.3333333333334</ele><time>2026-05-02T16:14:46Z</time></trkpt><trkpt lat="44.46110585581736" lon="9.096418976823326"><ele>528.6666666666667</ele><time>2026-05-02T16:14:47Z</time></trkpt><trkpt lat="44.461086124857744" lon="9.096209164399228"><ele>523.0</ele><time>2026-05-02T16:14:48Z</time></trkpt><trkpt lat="44.46103569297489" lon="9.096010024159204"><ele>523.0</ele><time>2026-05-02T16:14:49Z</time></trkpt><trkpt lat="44.46096491527782" lon="9.095827536027677"><ele>523.0</ele><time>2026-05-02T16:14:50Z</time></trkpt><trkpt lat="44.46085240998608" lon="9.095644115112846"><ele>523.0</ele><time>2026-05-02T16:14:51Z</time></trkpt><trkpt lat="44.46071768634983" lon="9.095435349815236"><ele>522.6666666666667</ele><time>2026-05-02T16:14:52Z</time></trkpt><trkpt lat="44.4605555037148" lon="9.095236546678743"><ele>522.3333333333334</ele><time>2026-05-02T16:14:53Z</time></trkpt><trkpt lat="44.46043181742352" lon="9.095006261898504"><ele>522.0</ele><time>2026-05-02T16:14:54Z</time></trkpt><trkpt lat="44.4603258374206" lon="9.094798376181627"><ele>515.3333333333334</ele><time>2026-05-02T16:14:55Z</time></trkpt><trkpt lat="44.46021563511689" lon="9.094616843108188"><ele>508.6666666666667</ele><time>2026-05-02T16:14:56Z</time></trkpt><trkpt lat="44.460108153211046" lon="9.094467745556685"><ele>502.0</ele><time>2026-05-02T16:14:57Z</time></trkpt><trkpt lat="44.45999124671722" lon="9.09433949768651"><ele>502.0</ele><time>2026-05-02T16:14:58Z</time></trkpt><trkpt lat="44.459855931779465" lon="9.094247301275457"><ele>502.0</ele><time>2026-05-02T16:14:59Z</time></trkpt><trkpt lat="44.45969717553969" lon="9.094206046577167"><ele>502.0</ele><time>2026-05-02T16:15:00Z</time></trkpt><trkpt lat="44.45953740005904" lon="9.094211313292735"><ele>502.5</ele><time>2026-05-02T16:15:01Z</time></trkpt><trkpt lat="44.45939092158902" lon="9.09421896663743"><ele>503.0</ele><time>2026-05-02T16:15:02Z</time></trkpt><trkpt lat="44.4592549395587" lon="9.094173625410328"><ele>503.5</ele><time>2026-05-02T16:15:03Z</time></trkpt><trkpt lat="44.459128927937634" lon="9.094055698683217"><ele>504.0</ele><time>2026-05-02T16:15:04Z</time></trkpt><trkpt lat="44.45899751914305" lon="9.093963264979754"><ele>499.0</ele><time>2026-05-02T16:15:05Z</time></trkpt><trkpt lat="44.45888901696203" lon="9.093860168197164"><ele>494.0</ele><time>2026-05-02T16:15:06Z</time></trkpt><trkpt lat="44.458791422330584" lon="9.093767972443867"><ele>489.0</ele><time>2026-05-02T16:15:07Z</time></trkpt><trkpt lat="44.45870589803316" lon="9.093682566920519"><ele>484.0</ele><time>2026-05-02T16:15:08Z</time></trkpt><trkpt lat="44.45863646729702" lon="9.093574902161539"><ele>493.5</ele><time>2026-05-02T16:15:09Z</time></trkpt><trkpt lat="44.458589365087484" lon="9.093435864373005"><ele>503.0</ele><time>2026-05-02T16:15:10Z</time></trkpt><trkpt lat="44.45856266420393" lon="9.093262806598037"><ele>512.5</ele><time>2026-05-02T16:15:11Z</time></trkpt><trkpt lat="44.45857033843564" lon="9.09307977273768"><ele>522.0</ele><time>2026-05-02T16:15:12Z</time></trkpt><trkpt lat="44.45861812265267" lon="9.092918279671387"><ele>522.0</ele><time>2026-05-02T16:15:12.999Z</time></trkpt><trkpt lat="44.45869205065388" lon="9.092774697344993"><ele>522.0</ele><time>2026-05-02T16:15:13.999Z</time></trkpt><trkpt lat="44.45878182128825" lon="9.09263979237892"><ele>522.0</ele><time>2026-05-02T16:15:14.999Z</time></trkpt><trkpt lat="44.458857980384174" lon="9.09249826191923"><ele>522.0</ele><time>2026-05-02T16:15:15.999Z</time></trkpt><trkpt lat="44.45892668063379" lon="9.09235323882862"><ele>513.0</ele><time>2026-05-02T16:15:16.999Z</time></trkpt><trkpt lat="44.458984117387224" lon="9.092196954939006"><ele>504.0</ele><time>2026-05-02T16:15:17.999Z</time></trkpt><trkpt lat="44.45902844084996" lon="9.092028723191882"><ele>495.0</ele><time>2026-05-02T16:15:18.999Z</time></trkpt><trkpt lat="44.45904644631053" lon="9.091851160510824"><ele>486.0</ele><time>2026-05-02T16:15:19.999Z</time></trkpt><trkpt lat="44.45903523514887" lon="9.091662026141282"><ele>481.33333333333337</ele><time>2026-05-02T16:15:20.999Z</time></trkpt><trkpt lat="44.45900131386153" lon="9.091458313051648"><ele>476.6666666666667</ele><time>2026-05-02T16:15:21.999Z</time></trkpt><trkpt lat="44.45893660516093" lon="9.09122065383997"><ele>472.0</ele><time>2026-05-02T16:15:22.999Z</time></trkpt><trkpt lat="44.4588690583392" lon="9.090948705652787"><ele>468.0</ele><time>2026-05-02T16:15:23.999Z</time></trkpt><trkpt lat="44.45882407381994" lon="9.090669778231339"><ele>464.0</ele><time>2026-05-02T16:15:24.999Z</time></trkpt><trkpt lat="44.458781514362656" lon="9.09042090743781"><ele>460.0</ele><time>2026-05-02T16:15:25.999Z</time></trkpt><trkpt lat="44.45873502638087" lon="9.090199365028807"><ele>467.0</ele><time>2026-05-02T16:15:26.999Z</time></trkpt><trkpt lat="44.45870084631948" lon="9.089997685362746"><ele>474.0</ele><time>2026-05-02T16:15:27.999Z</time></trkpt><trkpt lat="44.458690930753754" lon="9.089800751708545"><ele>481.0</ele><time>2026-05-02T16:15:28.999Z</time></trkpt><trkpt lat="44.458715606434076" lon="9.089601141374681"><ele>488.0</ele><time>2026-05-02T16:15:29.999Z</time></trkpt><trkpt lat="44.45877130073884" lon="9.089414369528868"><ele>482.25</ele><time>2026-05-02T16:15:30.999Z</time></trkpt><trkpt lat="44.45882255256108" lon="9.089229424396086"><ele>476.5</ele><time>2026-05-02T16:15:31.999Z</time></trkpt><trkpt lat="44.458825439546686" lon="9.089025087126238"><ele>470.75</ele><time>2026-05-02T16:15:32.999Z</time></trkpt><trkpt lat="44.45878612581862" lon="9.088816351708575"><ele>465.0</ele><time>2026-05-02T16:15:33.999Z</time></trkpt><trkpt lat="44.45869818968516" lon="9.088641923789124"><ele>465.0</ele><time>2026-05-02T16:15:34.999Z</time></trkpt><trkpt lat="44.45858071346343" lon="9.088503034512987"><ele>465.0</ele><time>2026-05-02T16:15:35.999Z</time></trkpt><trkpt lat="44.45843177340525" lon="9.088393899894674"><ele>465.0</ele><time>2026-05-02T16:15:36.999Z</time></trkpt><trkpt lat="44.458250571424166" lon="9.088316304887847"><ele>460.33333333333337</ele><time>2026-05-02T16:15:37.999Z</time></trkpt><trkpt lat="44.45804524233925" lon="9.088256928603272"><ele>455.6666666666667</ele><time>2026-05-02T16:15:38.999Z</time></trkpt><trkpt lat="44.4578386043461" lon="9.088182812788416"><ele>451.0</ele><time>2026-05-02T16:15:39.999Z</time></trkpt><trkpt lat="44.45765614194205" lon="9.088104111542957"><ele>451.0</ele><time>2026-05-02T16:15:40.999Z</time></trkpt><trkpt lat="44.45749283806931" lon="9.088031452645225"><ele>451.0</ele><time>2026-05-02T16:15:41.999Z</time></trkpt><trkpt lat="44.45733632638219" lon="9.087960852515717"><ele>451.0</ele><time>2026-05-02T16:15:42.999Z</time></trkpt><trkpt lat="44.45719790355873" lon="9.087857237420344"><ele>449.0</ele><time>2026-05-02T16:15:43.999Z</time></trkpt><trkpt lat="44.45707826916834" lon="9.08769696488102"><ele>447.0</ele><time>2026-05-02T16:15:44.999Z</time></trkpt><trkpt lat="44.45698292692902" lon="9.087480500560625"><ele>445.0</ele><time>2026-05-02T16:15:45.999Z</time></trkpt><trkpt lat="44.45692165272628" lon="9.087267685048523"><ele>445.0</ele><time>2026-05-02T16:15:46.999Z</time></trkpt><trkpt lat="44.45685264153284" lon="9.087085055172732"><ele>445.0</ele><time>2026-05-02T16:15:47.999Z</time></trkpt><trkpt lat="44.45675572732781" lon="9.086929656580928"><ele>445.0</ele><time>2026-05-02T16:15:48.999Z</time></trkpt><trkpt lat="44.45662823267393" lon="9.08679428154242"><ele>445.0</ele><time>2026-05-02T16:15:49.999Z</time></trkpt><trkpt lat="44.45647708950026" lon="9.08669551939723"><ele>445.0</ele><time>2026-05-02T16:15:50.999Z</time></trkpt><trkpt lat="44.45629805448021" lon="9.08662867136704"><ele>445.0</ele><time>2026-05-02T16:15:51.999Z</time></trkpt><trkpt lat="44.45609658136917" lon="9.086597838515043"><ele>433.0</ele><time>2026-05-02T16:15:52.999Z</time></trkpt><trkpt lat="44.45586946921532" lon="9.086594571187199"><ele>421.0</ele><time>2026-05-02T16:15:53.999Z</time></trkpt><trkpt lat="44.45564137170903" lon="9.086588523133722"><ele>419.0</ele><time>2026-05-02T16:15:54.999Z</time></trkpt><trkpt lat="44.45543276113626" lon="9.086577176045258"><ele>417.0</ele><time>2026-05-02T16:15:55.999Z</time></trkpt><trkpt lat="44.45522781329132" lon="9.086559019881774"><ele>415.0</ele><time>2026-05-02T16:15:56.999Z</time></trkpt><trkpt lat="44.45502605074994" lon="9.086534042225326"><ele>415.0</ele><time>2026-05-02T16:15:57.999Z</time></trkpt><trkpt lat="44.454835698317" lon="9.086521502039247"><ele>415.0</ele><time>2026-05-02T16:15:58.999Z</time></trkpt><trkpt lat="44.45465408248885" lon="9.086513886892295"><ele>415.0</ele><time>2026-05-02T16:15:59.999Z</time></trkpt><trkpt lat="44.45449006746816" lon="9.086507250595549"><ele>414.0</ele><time>2026-05-02T16:16:00.999Z</time></trkpt><trkpt lat="44.45435116785788" lon="9.086513178574833"><ele>413.0</ele><time>2026-05-02T16:16:01.999Z</time></trkpt><trkpt lat="44.45423351047634" lon="9.086545504631598"><ele>412.0</ele><time>2026-05-02T16:16:02.999Z</time></trkpt><trkpt lat="44.4541172003492" lon="9.086631716393402"><ele>411.0</ele><time>2026-05-02T16:16:03.999Z</time></trkpt><trkpt lat="44.45400457999269" lon="9.086759100370788"><ele>416.5</ele><time>2026-05-02T16:16:04.999Z</time></trkpt><trkpt lat="44.45390620403882" lon="9.086868157544451"><ele>422.0</ele><time>2026-05-02T16:16:05.999Z</time></trkpt><trkpt lat="44.45380082940996" lon="9.086943773641389"><ele>427.5</ele><time>2026-05-02T16:16:06.999Z</time></trkpt><trkpt lat="44.453679013103795" lon="9.086973851664066"><ele>433.0</ele><time>2026-05-02T16:16:07.999Z</time></trkpt><trkpt lat="44.45354112115436" lon="9.086950813645318"><ele>433.0</ele><time>2026-05-02T16:16:08.999Z</time></trkpt><trkpt lat="44.45340715836703" lon="9.08687174123122"><ele>433.0</ele><time>2026-05-02T16:16:09.999Z</time></trkpt><trkpt lat="44.4532953974562" lon="9.08674302325648"><ele>433.0</ele><time>2026-05-02T16:16:10.999Z</time></trkpt><trkpt lat="44.45320059555626" lon="9.0866326252127"><ele>433.0</ele><time>2026-05-02T16:16:11.999Z</time></trkpt><trkpt lat="44.453098274351206" lon="9.086555846035221"><ele>431.0</ele><time>2026-05-02T16:16:12.999Z</time></trkpt><trkpt lat="44.452990002967475" lon="9.086526969879282"><ele>429.0</ele><time>2026-05-02T16:16:13.999Z</time></trkpt><trkpt lat="44.452867465619846" lon="9.086509367487338"><ele>427.0</ele><time>2026-05-02T16:16:14.999Z</time></trkpt><trkpt lat="44.45274674014674" lon="9.08657514543868"><ele>425.0</ele><time>2026-05-02T16:16:15.999Z</time></trkpt><trkpt lat="44.452629598293" lon="9.0866504089641"><ele>425.0</ele><time>2026-05-02T16:16:16.999Z</time></trkpt><trkpt lat="44.452520143853945" lon="9.0867395337852"><ele>425.0</ele><time>2026-05-02T16:16:17.999Z</time></trkpt><trkpt lat="44.45240984491266" lon="9.086820909804338"><ele>425.0</ele><time>2026-05-02T16:16:18.999Z</time></trkpt><trkpt lat="44.45229659816313" lon="9.086874432704645"><ele>425.0</ele><time>2026-05-02T16:16:19.999Z</time></trkpt><trkpt lat="44.45217694045567" lon="9.08686740938731"><ele>423.8</ele><time>2026-05-02T16:16:20.999Z</time></trkpt><trkpt lat="44.452065420787086" lon="9.086797333544451"><ele>422.6</ele><time>2026-05-02T16:16:21.999Z</time></trkpt><trkpt lat="44.451975419436884" lon="9.086714845980294"><ele>421.4</ele><time>2026-05-02T16:16:22.999Z</time></trkpt><trkpt lat="44.45189099961464" lon="9.086643025919363"><ele>420.2</ele><time>2026-05-02T16:16:24Z</time></trkpt><trkpt lat="44.45181166426396" lon="9.086581843941412"><ele>419.0</ele><time>2026-05-02T16:16:25Z</time></trkpt><trkpt lat="44.451737476785745" lon="9.086533757615136"><ele>418.99999999999994</ele><time>2026-05-02T16:16:26Z</time></trkpt><trkpt lat="44.45166343814565" lon="9.0865064536014"><ele>419.0</ele><time>2026-05-02T16:16:27Z</time></trkpt><trkpt lat="44.451591626416985" lon="9.086508154225331"><ele>419.0</ele><time>2026-05-02T16:16:28Z</time></trkpt><trkpt lat="44.45151964270975" lon="9.086534557224809"><ele>419.0</ele><time>2026-05-02T16:16:29Z</time></trkpt><trkpt lat="44.451452075267" lon="9.086584458086575"><ele>418.99999999999994</ele><time>2026-05-02T16:16:30Z</time></trkpt><trkpt lat="44.451383755853016" lon="9.08662855856933"><ele>419.0</ele><time>2026-05-02T16:16:31Z</time></trkpt><trkpt lat="44.45131314016258" lon="9.086665607907568"><ele>417.8333333333333</ele><time>2026-05-02T16:16:32Z</time></trkpt><trkpt lat="44.45123778053695" lon="9.086700704122093"><ele>416.66666666666663</ele><time>2026-05-02T16:16:33Z</time></trkpt><trkpt lat="44.45116245836847" lon="9.086731746898131"><ele>415.5</ele><time>2026-05-02T16:16:34Z</time></trkpt><trkpt lat="44.45109611060589" lon="9.086749426656231"><ele>414.33333333333337</ele><time>2026-05-02T16:16:35Z</time></trkpt><trkpt lat="44.450984268451826" lon="9.086745390743484"><ele>413.1666666666667</ele><time>2026-05-02T16:16:37Z</time></trkpt><trkpt lat="44.450914919431" lon="9.086753223503154"><ele>412.0</ele><time>2026-05-02T16:16:39Z</time></trkpt><trkpt lat="44.4508494110876" lon="9.086768159559936"><ele>412.00000000000006</ele><time>2026-05-02T16:16:42Z</time></trkpt><trkpt lat="44.45078037902068" lon="9.08674780027639"><ele>412.0</ele><time>2026-05-02T16:17:02Z</time></trkpt><trkpt lat="44.45070680859742" lon="9.086715001396716"><ele>412.0</ele><time>2026-05-02T16:17:03Z</time></trkpt><trkpt lat="44.450632394597456" lon="9.08668485830055"><ele>412.0</ele><time>2026-05-02T16:17:04Z</time></trkpt><trkpt lat="44.45056831985071" lon="9.086685632571964"><ele>412.00000000000006</ele><time>2026-05-02T16:17:05Z</time></trkpt><trkpt lat="44.45045354321584" lon="9.086724274915834"><ele>412.0</ele><time>2026-05-02T16:17:07Z</time></trkpt><trkpt lat="44.45035702480843" lon="9.086825520421359"><ele>410.0</ele><time>2026-05-02T16:17:09Z</time></trkpt><trkpt lat="44.45030034382824" lon="9.08688082081895"><ele>408.0</ele><time>2026-05-02T16:17:10Z</time></trkpt><trkpt lat="44.45022929136646" lon="9.086914090954531"><ele>406.0</ele><time>2026-05-02T16:17:11Z</time></trkpt><trkpt lat="44.450141205759735" lon="9.086931460022933"><ele>404.0</ele><time>2026-05-02T16:17:12Z</time></trkpt><trkpt lat="44.45003305272616" lon="9.086933362999018"><ele>402.0</ele><time>2026-05-02T16:17:13Z</time></trkpt><trkpt lat="44.449914358399504" lon="9.08693533874671"><ele>402.0</ele><time>2026-05-02T16:17:14Z</time></trkpt><trkpt lat="44.44979585527978" lon="9.086937295533856"><ele>402.0</ele><time>2026-05-02T16:17:15Z</time></trkpt><trkpt lat="44.44967431387722" lon="9.086938379954164"><ele>402.0</ele><time>2026-05-02T16:17:16Z</time></trkpt><trkpt lat="44.4495570463335" lon="9.086932432558239"><ele>402.0</ele><time>2026-05-02T16:17:17Z</time></trkpt><trkpt lat="44.449445956071386" lon="9.086909764822794"><ele>401.40000000000003</ele><time>2026-05-02T16:17:18Z</time></trkpt><trkpt lat="44.44934719525333" lon="9.086863422112232"><ele>400.8</ele><time>2026-05-02T16:17:19Z</time></trkpt><trkpt lat="44.44926105257725" lon="9.086815975290415"><ele>400.2</ele><time>2026-05-02T16:17:19.999Z</time></trkpt><trkpt lat="44.44918065704121" lon="9.086774096722651"><ele>399.6</ele><time>2026-05-02T16:17:20.999Z</time></trkpt><trkpt lat="44.4491001891611" lon="9.086746540975037"><ele>399.0</ele><time>2026-05-02T16:17:21.999Z</time></trkpt><trkpt lat="44.449011474591885" lon="9.086723710351333"><ele>399.0</ele><time>2026-05-02T16:17:22.999Z</time></trkpt><trkpt lat="44.448916033454296" lon="9.086712520212213"><ele>399.0</ele><time>2026-05-02T16:17:23.999Z</time></trkpt><trkpt lat="44.448819265273535" lon="9.086713604682283"><ele>399.0</ele><time>2026-05-02T16:17:24.999Z</time></trkpt><trkpt lat="44.448723425610034" lon="9.086729645693964"><ele>399.0</ele><time>2026-05-02T16:17:25.999Z</time></trkpt><trkpt lat="44.448637923714045" lon="9.086754040990966"><ele>399.0</ele><time>2026-05-02T16:17:26.999Z</time></trkpt><trkpt lat="44.4485538519069" lon="9.086781581939618"><ele>397.6666666666667</ele><time>2026-05-02T16:17:27.999Z</time></trkpt><trkpt lat="44.44847421201933" lon="9.086812292654992"><ele>396.33333333333337</ele><time>2026-05-02T16:17:28.999Z</time></trkpt><trkpt lat="44.44839213683645" lon="9.086852945312366"><ele>395.0</ele><time>2026-05-02T16:17:29.999Z</time></trkpt><trkpt lat="44.44830175096567" lon="9.08690047282327"><ele>393.6666666666667</ele><time>2026-05-02T16:17:30.999Z</time></trkpt><trkpt lat="44.4482144233594" lon="9.086941588436815"><ele>392.33333333333337</ele><time>2026-05-02T16:17:31.999Z</time></trkpt><trkpt lat="44.44813389456859" lon="9.086975528360018"><ele>391.0</ele><time>2026-05-02T16:17:32.999Z</time></trkpt><trkpt lat="44.44804770169664" lon="9.087007054712794"><ele>385.6</ele><time>2026-05-02T16:17:33.999Z</time></trkpt><trkpt lat="44.44795913290397" lon="9.087046249529116"><ele>380.20000000000005</ele><time>2026-05-02T16:17:34.999Z</time></trkpt><trkpt lat="44.44786816725729" lon="9.087088943906915"><ele>374.79999999999995</ele><time>2026-05-02T16:17:35.999Z</time></trkpt><trkpt lat="44.44778138235305" lon="9.087145290179544"><ele>369.4</ele><time>2026-05-02T16:17:36.999Z</time></trkpt><trkpt lat="44.447698214479146" lon="9.087232496229802"><ele>364.0</ele><time>2026-05-02T16:17:37.999Z</time></trkpt><trkpt lat="44.44758997317105" lon="9.087336391672212"><ele>368.75</ele><time>2026-05-02T16:17:38.999Z</time></trkpt><trkpt lat="44.44748176769619" lon="9.087466984537947"><ele>373.5</ele><time>2026-05-02T16:17:39.999Z</time></trkpt><trkpt lat="44.44737281582524" lon="9.08759873636672"><ele>378.25</ele><time>2026-05-02T16:17:40.999Z</time></trkpt><trkpt lat="44.44727193825108" lon="9.08774555620783"><ele>383.0</ele><time>2026-05-02T16:17:41.999Z</time></trkpt><trkpt lat="44.447163557257085" lon="9.087875512376272"><ele>382.25</ele><time>2026-05-02T16:17:42.999Z</time></trkpt><trkpt lat="44.4470645581486" lon="9.08799825153636"><ele>381.5</ele><time>2026-05-02T16:17:43.999Z</time></trkpt><trkpt lat="44.44695713453748" lon="9.088092277832901"><ele>380.75</ele><time>2026-05-02T16:17:44.999Z</time></trkpt><trkpt lat="44.44685870494562" lon="9.08821617390262"><ele>380.0</ele><time>2026-05-02T16:17:45.999Z</time></trkpt><trkpt lat="44.44673339915073" lon="9.088325664713444"><ele>380.0</ele><time>2026-05-02T16:17:46.999Z</time></trkpt><trkpt lat="44.44660463714879" lon="9.08843790429554"><ele>380.0</ele><time>2026-05-02T16:17:47.999Z</time></trkpt><trkpt lat="44.446469442216824" lon="9.08854654269354"><ele>380.0</ele><time>2026-05-02T16:17:48.999Z</time></trkpt><trkpt lat="44.44634047632364" lon="9.088651024512993"><ele>375.75</ele><time>2026-05-02T16:17:49.999Z</time></trkpt><trkpt lat="44.446221173379534" lon="9.088754831643762"><ele>371.5</ele><time>2026-05-02T16:17:50.999Z</time></trkpt><trkpt lat="44.44609835501414" lon="9.088855344038071"><ele>367.25</ele><time>2026-05-02T16:17:51.999Z</time></trkpt><trkpt lat="44.44596282115014" lon="9.088953807789286"><ele>363.0</ele><time>2026-05-02T16:17:52.999Z</time></trkpt><trkpt lat="44.44582132222606" lon="9.089034625068614"><ele>363.0</ele><time>2026-05-02T16:17:53.999Z</time></trkpt><trkpt lat="44.44566439071544" lon="9.089060081847148"><ele>363.0</ele><time>2026-05-02T16:17:54.999Z</time></trkpt><trkpt lat="44.44550602668353" lon="9.08902751444891"><ele>363.0</ele><time>2026-05-02T16:17:55.999Z</time></trkpt><trkpt lat="44.4453619560535" lon="9.088961293668035"><ele>362.75</ele><time>2026-05-02T16:17:56.999Z</time></trkpt><trkpt lat="44.445230083241576" lon="9.088861610370092"><ele>362.5</ele><time>2026-05-02T16:17:57.999Z</time></trkpt><trkpt lat="44.44511210331772" lon="9.088752148164634"><ele>362.25</ele><time>2026-05-02T16:17:58.999Z</time></trkpt><trkpt lat="44.445000370507415" lon="9.08865145639692"><ele>362.0</ele><time>2026-05-02T16:17:59.999Z</time></trkpt><trkpt lat="44.44490347242782" lon="9.088564854803648"><ele>362.0</ele><time>2026-05-02T16:18:00.999Z</time></trkpt><trkpt lat="44.4448132909254" lon="9.088490601421523"><ele>362.0</ele><time>2026-05-02T16:18:01.999Z</time></trkpt><trkpt lat="44.444725984381" lon="9.088450840513525"><ele>362.0</ele><time>2026-05-02T16:18:02.999Z</time></trkpt><trkpt lat="44.44464324163062" lon="9.08843029354122"><ele>362.0</ele><time>2026-05-02T16:18:03.999Z</time></trkpt><trkpt lat="44.444560033690244" lon="9.088450018188913"><ele>362.0</ele><time>2026-05-02T16:18:04.999Z</time></trkpt><trkpt lat="44.444478305515396" lon="9.088516176609723"><ele>359.0</ele><time>2026-05-02T16:18:05.999Z</time></trkpt><trkpt lat="44.4444021209788" lon="9.088613294110027"><ele>356.0</ele><time>2026-05-02T16:18:06.999Z</time></trkpt><trkpt lat="44.444330071342" lon="9.088703160640284"><ele>353.0</ele><time>2026-05-02T16:18:07.999Z</time></trkpt><trkpt lat="44.44426275429413" lon="9.088790482093666"><ele>350.0</ele><time>2026-05-02T16:18:08.999Z</time></trkpt><trkpt lat="44.444193821644994" lon="9.088878893074503"><ele>347.0</ele><time>2026-05-02T16:18:09.999Z</time></trkpt><trkpt lat="44.444123281456136" lon="9.088971715430102"><ele>347.0</ele><time>2026-05-02T16:18:10.999Z</time></trkpt><trkpt lat="44.44405437629923" lon="9.08907178596288"><ele>347.0</ele><time>2026-05-02T16:18:11.999Z</time></trkpt><trkpt lat="44.44399147807476" lon="9.089199336348313"><ele>347.0</ele><time>2026-05-02T16:18:12.999Z</time></trkpt><trkpt lat="44.44393143698375" lon="9.089357787500226"><ele>347.0</ele><time>2026-05-02T16:18:13.999Z</time></trkpt><trkpt lat="44.44391419665511" lon="9.089543220359797"><ele>350.75</ele><time>2026-05-02T16:18:14.999Z</time></trkpt><trkpt lat="44.44390343518395" lon="9.089702507364875"><ele>354.5</ele><time>2026-05-02T16:18:15.999Z</time></trkpt><trkpt lat="44.44388644485999" lon="9.08986153937329"><ele>358.25</ele><time>2026-05-02T16:18:16.999Z</time></trkpt><trkpt lat="44.443825268004645" lon="9.090032567115218"><ele>362.0</ele><time>2026-05-02T16:18:17.999Z</time></trkpt><trkpt lat="44.443740383902735" lon="9.090238069397278"><ele>357.0</ele><time>2026-05-02T16:18:18.999Z</time></trkpt><trkpt lat="44.44365136057137" lon="9.090453592758971"><ele>352.0</ele><time>2026-05-02T16:18:19.999Z</time></trkpt><trkpt lat="44.44357037561008" lon="9.090651807319462"><ele>347.0</ele><time>2026-05-02T16:18:20.999Z</time></trkpt><trkpt lat="44.44349416107452" lon="9.090838618517132"><ele>347.0</ele><time>2026-05-02T16:18:21.999Z</time></trkpt><trkpt lat="44.44343921002715" lon="9.091021582891672"><ele>347.0</ele><time>2026-05-02T16:18:22.999Z</time></trkpt><trkpt lat="44.4433691727544" lon="9.091173603192281"><ele>347.0</ele><time>2026-05-02T16:18:23.999Z</time></trkpt><trkpt lat="44.443279344101335" lon="9.091287124453526"><ele>347.0</ele><time>2026-05-02T16:18:24.999Z</time></trkpt><trkpt lat="44.44317628694305" lon="9.091352441192813"><ele>347.0</ele><time>2026-05-02T16:18:25.999Z</time></trkpt><trkpt lat="44.443080093815965" lon="9.091395663715698"><ele>347.0</ele><time>2026-05-02T16:18:26.999Z</time></trkpt><trkpt lat="44.442992757310115" lon="9.091428164888077"><ele>347.0</ele><time>2026-05-02T16:18:27.999Z</time></trkpt><trkpt lat="44.4429146964794" lon="9.091454052905851"><ele>347.0</ele><time>2026-05-02T16:18:28.999Z</time></trkpt><trkpt lat="44.4428461256715" lon="9.091465118365646"><ele>347.0</ele><time>2026-05-02T16:18:30Z</time></trkpt><trkpt lat="44.44277107228677" lon="9.09145064906109"><ele>347.0</ele><time>2026-05-02T16:18:31Z</time></trkpt><trkpt lat="44.442693811409406" lon="9.091384694429086"><ele>347.25</ele><time>2026-05-02T16:18:32Z</time></trkpt><trkpt lat="44.4426185952628" lon="9.091269974414605"><ele>347.5</ele><time>2026-05-02T16:18:33Z</time></trkpt><trkpt lat="44.442550025718695" lon="9.09115162027593"><ele>347.75</ele><time>2026-05-02T16:18:34Z</time></trkpt><trkpt lat="44.44247782004141" lon="9.09102177761828"><ele>348.0</ele><time>2026-05-02T16:18:35Z</time></trkpt><trkpt lat="44.44240790684124" lon="9.090871095014476"><ele>347.59999999999997</ele><time>2026-05-02T16:18:36Z</time></trkpt><trkpt lat="44.44237007550415" lon="9.090694679667845"><ele>347.2</ele><time>2026-05-02T16:18:37Z</time></trkpt><trkpt lat="44.44236899938322" lon="9.090522257827462"><ele>346.8</ele><time>2026-05-02T16:18:38Z</time></trkpt><trkpt lat="44.442385027649564" lon="9.090401694293552"><ele>346.4</ele><time>2026-05-02T16:18:39Z</time></trkpt><trkpt lat="44.442406609202834" lon="9.090266175136872"><ele>346.0</ele><time>2026-05-02T16:18:41Z</time></trkpt><trkpt lat="44.442452827521656" lon="9.090091528487148"><ele>346.0</ele><time>2026-05-02T16:18:43Z</time></trkpt><trkpt lat="44.442481162413856" lon="9.089980347345318"><ele>346.0</ele><time>2026-05-02T16:18:44Z</time></trkpt><trkpt lat="44.44250293078457" lon="9.089852486857506"><ele>346.0</ele><time>2026-05-02T16:18:45Z</time></trkpt><trkpt lat="44.44251890872772" lon="9.08971273137688"><ele>346.0</ele><time>2026-05-02T16:18:46Z</time></trkpt><trkpt lat="44.4425139583915" lon="9.089571465931773"><ele>346.0</ele><time>2026-05-02T16:18:47Z</time></trkpt><trkpt lat="44.44248226813684" lon="9.089413593862105"><ele>344.5</ele><time>2026-05-02T16:18:48Z</time></trkpt><trkpt lat="44.442422603005454" lon="9.089247878876007"><ele>343.0</ele><time>2026-05-02T16:18:49Z</time></trkpt><trkpt lat="44.44234480317968" lon="9.089072360490318"><ele>341.5</ele><time>2026-05-02T16:18:50Z</time></trkpt><trkpt lat="44.442255473815905" lon="9.08888777597702"><ele>340.0</ele><time>2026-05-02T16:18:51Z</time></trkpt><trkpt lat="44.44216161925385" lon="9.088701656847283"><ele>347.3333333333333</ele><time>2026-05-02T16:18:52Z</time></trkpt><trkpt lat="44.442080455342825" lon="9.088493978775068"><ele>354.6666666666667</ele><time>2026-05-02T16:18:53Z</time></trkpt><trkpt lat="44.44202640995916" lon="9.088246224540097"><ele>362.0</ele><time>2026-05-02T16:18:54Z</time></trkpt><trkpt lat="44.44198521448734" lon="9.08797072258522"><ele>362.0</ele><time>2026-05-02T16:18:55Z</time></trkpt><trkpt lat="44.441944023558506" lon="9.087695151617153"><ele>362.0</ele><time>2026-05-02T16:18:56Z</time></trkpt><trkpt lat="44.44190461409807" lon="9.087453070204715"><ele>362.0</ele><time>2026-05-02T16:18:57Z</time></trkpt><trkpt lat="44.44186282760503" lon="9.087230461764578"><ele>357.33333333333337</ele><time>2026-05-02T16:18:58Z</time></trkpt><trkpt lat="44.441813206680905" lon="9.08702005334119"><ele>352.6666666666667</ele><time>2026-05-02T16:18:59Z</time></trkpt><trkpt lat="44.441738563630736" lon="9.086814850736344"><ele>348.0</ele><time>2026-05-02T16:19:00Z</time></trkpt><trkpt lat="44.441635042477394" lon="9.086613618188421"><ele>348.0</ele><time>2026-05-02T16:19:01Z</time></trkpt><trkpt lat="44.441506811174236" lon="9.086421180264225"><ele>348.0</ele><time>2026-05-02T16:19:02Z</time></trkpt><trkpt lat="44.44136788383838" lon="9.086246636232676"><ele>348.0</ele><time>2026-05-02T16:19:03Z</time></trkpt><trkpt lat="44.44124733461893" lon="9.08608421613425"><ele>348.0</ele><time>2026-05-02T16:19:04Z</time></trkpt><trkpt lat="44.44113912870096" lon="9.08590298624568"><ele>348.0</ele><time>2026-05-02T16:19:05Z</time></trkpt><trkpt lat="44.44104925278682" lon="9.085703101678185"><ele>348.0</ele><time>2026-05-02T16:19:06Z</time></trkpt><trkpt lat="44.44097202223169" lon="9.085472087322414"><ele>342.3333333333333</ele><time>2026-05-02T16:19:07Z</time></trkpt><trkpt lat="44.44090552551749" lon="9.085234829304374"><ele>336.66666666666663</ele><time>2026-05-02T16:19:08Z</time></trkpt><trkpt lat="44.44084359606508" lon="9.084998038181306"><ele>331.0</ele><time>2026-05-02T16:19:09Z</time></trkpt><trkpt lat="44.440773303288715" lon="9.084761473755506"><ele>328.66666666666663</ele><time>2026-05-02T16:19:10Z</time></trkpt><trkpt lat="44.440705045850066" lon="9.084525687059541"><ele>326.3333333333333</ele><time>2026-05-02T16:19:11Z</time></trkpt><trkpt lat="44.44064459180769" lon="9.084289823033451"><ele>324.0</ele><time>2026-05-02T16:19:12Z</time></trkpt><trkpt lat="44.44057909174905" lon="9.084067945929359"><ele>327.0</ele><time>2026-05-02T16:19:13Z</time></trkpt><trkpt lat="44.44049337901168" lon="9.08385304232383"><ele>330.0</ele><time>2026-05-02T16:19:14Z</time></trkpt><trkpt lat="44.44038620287387" lon="9.083648593626657"><ele>333.0</ele><time>2026-05-02T16:19:15Z</time></trkpt><trkpt lat="44.440253485447734" lon="9.083453941189447"><ele>327.0</ele><time>2026-05-02T16:19:16Z</time></trkpt><trkpt lat="44.440101208398026" lon="9.083257051854305"><ele>321.0</ele><time>2026-05-02T16:19:17Z</time></trkpt><trkpt lat="44.43993850609181" lon="9.083071933465375"><ele>315.0</ele><time>2026-05-02T16:19:18Z</time></trkpt><trkpt lat="44.43977441628864" lon="9.08290369879382"><ele>312.6666666666667</ele><time>2026-05-02T16:19:19Z</time></trkpt><trkpt lat="44.43961959295613" lon="9.082737566398686"><ele>310.33333333333337</ele><time>2026-05-02T16:19:20Z</time></trkpt><trkpt lat="44.43947794643117" lon="9.082579164552568"><ele>308.0</ele><time>2026-05-02T16:19:21Z</time></trkpt><trkpt lat="44.439341444016875" lon="9.08241894164286"><ele>308.0</ele><time>2026-05-02T16:19:22Z</time></trkpt><trkpt lat="44.43921707568447" lon="9.08224813545733"><ele>308.0</ele><time>2026-05-02T16:19:23Z</time></trkpt><trkpt lat="44.43910772011151" lon="9.082052282351812"><ele>308.0</ele><time>2026-05-02T16:19:24Z</time></trkpt><trkpt lat="44.439002503108576" lon="9.08183062302273"><ele>305.6666666666667</ele><time>2026-05-02T16:19:25Z</time></trkpt><trkpt lat="44.43890452422934" lon="9.081595162710316"><ele>303.3333333333333</ele><time>2026-05-02T16:19:25.999Z</time></trkpt><trkpt lat="44.43880947433742" lon="9.081352007825"><ele>301.0</ele><time>2026-05-02T16:19:26.999Z</time></trkpt><trkpt lat="44.438714226267656" lon="9.081108263935958"><ele>301.0</ele><time>2026-05-02T16:19:27.999Z</time></trkpt><trkpt lat="44.43861923391719" lon="9.080878104226791"><ele>301.0</ele><time>2026-05-02T16:19:28.999Z</time></trkpt><trkpt lat="44.43853055359245" lon="9.080661088163806"><ele>301.0</ele><time>2026-05-02T16:19:29.999Z</time></trkpt><trkpt lat="44.438450009792234" lon="9.080453898700819"><ele>302.66666666666663</ele><time>2026-05-02T16:19:30.999Z</time></trkpt><trkpt lat="44.43838019653907" lon="9.080253299508191"><ele>304.3333333333333</ele><time>2026-05-02T16:19:31.999Z</time></trkpt><trkpt lat="44.43832729280128" lon="9.080056416953894"><ele>306.0</ele><time>2026-05-02T16:19:32.999Z</time></trkpt><trkpt lat="44.43829035758106" lon="9.079850412989114"><ele>306.3333333333333</ele><time>2026-05-02T16:19:33.999Z</time></trkpt><trkpt lat="44.438270262812146" lon="9.079636922523914"><ele>306.66666666666663</ele><time>2026-05-02T16:19:34.999Z</time></trkpt><trkpt lat="44.43826007135753" lon="9.079400117162281"><ele>307.0</ele><time>2026-05-02T16:19:35.999Z</time></trkpt><trkpt lat="44.438252350610185" lon="9.079170490081635"><ele>309.25</ele><time>2026-05-02T16:19:36.999Z</time></trkpt><trkpt lat="44.43824696402447" lon="9.078954302690281"><ele>311.5</ele><time>2026-05-02T16:19:37.999Z</time></trkpt><trkpt lat="44.43825262641754" lon="9.078752126154917"><ele>313.75</ele><time>2026-05-02T16:19:38.999Z</time></trkpt><trkpt lat="44.438286844009525" lon="9.07856732989258"><ele>316.0</ele><time>2026-05-02T16:19:39.999Z</time></trkpt><trkpt lat="44.43834869028798" lon="9.078391893968723"><ele>321.0</ele><time>2026-05-02T16:19:40.999Z</time></trkpt><trkpt lat="44.43842831890227" lon="9.07822457232116"><ele>326.0</ele><time>2026-05-02T16:19:41.999Z</time></trkpt><trkpt lat="44.438521452654555" lon="9.078060603189146"><ele>331.0</ele><time>2026-05-02T16:19:42.999Z</time></trkpt><trkpt lat="44.43861427268772" lon="9.077895054962333"><ele>336.0</ele><time>2026-05-02T16:19:43.999Z</time></trkpt><trkpt lat="44.438691473423724" lon="9.077687596471153"><ele>336.0</ele><time>2026-05-02T16:19:44.999Z</time></trkpt><trkpt lat="44.438790430267915" lon="9.077486073364549"><ele>336.0</ele><time>2026-05-02T16:19:45.999Z</time></trkpt><trkpt lat="44.438888651059344" lon="9.077279406971392"><ele>336.0</ele><time>2026-05-02T16:19:46.999Z</time></trkpt><trkpt lat="44.438986682498445" lon="9.077074955182464"><ele>335.5</ele><time>2026-05-02T16:19:47.999Z</time></trkpt><trkpt lat="44.43907812452646" lon="9.076895962549944"><ele>335.0</ele><time>2026-05-02T16:19:48.999Z</time></trkpt><trkpt lat="44.439191031845425" lon="9.076761025645258"><ele>334.5</ele><time>2026-05-02T16:19:49.999Z</time></trkpt><trkpt lat="44.43931429574676" lon="9.076667118525824"><ele>334.0</ele><time>2026-05-02T16:19:50.999Z</time></trkpt><trkpt lat="44.439459193251885" lon="9.07657810848"><ele>334.0</ele><time>2026-05-02T16:19:51.999Z</time></trkpt><trkpt lat="44.43960605887528" lon="9.076470621947406"><ele>334.0</ele><time>2026-05-02T16:19:52.999Z</time></trkpt><trkpt lat="44.43973894477198" lon="9.076402194283654"><ele>334.0</ele><time>2026-05-02T16:19:53.999Z</time></trkpt><trkpt lat="44.439859276826226" lon="9.076291008833921"><ele>325.5</ele><time>2026-05-02T16:19:54.999Z</time></trkpt><trkpt lat="44.43995764500577" lon="9.076144000429517"><ele>317.0</ele><time>2026-05-02T16:19:55.999Z</time></trkpt><trkpt lat="44.440042305484695" lon="9.075980739082937"><ele>308.5</ele><time>2026-05-02T16:19:56.999Z</time></trkpt><trkpt lat="44.440103905897836" lon="9.075795320615406"><ele>300.0</ele><time>2026-05-02T16:19:57.999Z</time></trkpt><trkpt lat="44.44013618741178" lon="9.075595228901053"><ele>300.0</ele><time>2026-05-02T16:19:58.999Z</time></trkpt><trkpt lat="44.44013542528104" lon="9.07538037372226"><ele>300.0</ele><time>2026-05-02T16:19:59.999Z</time></trkpt><trkpt lat="44.44010330615997" lon="9.075165225208467"><ele>300.0</ele><time>2026-05-02T16:20:00.999Z</time></trkpt><trkpt lat="44.4400411141758" lon="9.074948162278552"><ele>300.3333333333333</ele><time>2026-05-02T16:20:01.999Z</time></trkpt><trkpt lat="44.4399690184204" lon="9.074740285857665"><ele>300.66666666666663</ele><time>2026-05-02T16:20:02.999Z</time></trkpt><trkpt lat="44.43993835084413" lon="9.074532369900384"><ele>301.0</ele><time>2026-05-02T16:20:03.999Z</time></trkpt><trkpt lat="44.43993736868138" lon="9.074329163543773"><ele>301.0</ele><time>2026-05-02T16:20:04.999Z</time></trkpt><trkpt lat="44.43997453646748" lon="9.074118777995398"><ele>301.0</ele><time>2026-05-02T16:20:05.999Z</time></trkpt><trkpt lat="44.44003025885248" lon="9.073916559573107"><ele>301.0</ele><time>2026-05-02T16:20:06.999Z</time></trkpt><trkpt lat="44.44009092907065" lon="9.073715455282588"><ele>305.3333333333333</ele><time>2026-05-02T16:20:07.999Z</time></trkpt><trkpt lat="44.44013984507515" lon="9.073524369750752"><ele>309.6666666666667</ele><time>2026-05-02T16:20:08.999Z</time></trkpt><trkpt lat="44.44018599595681" lon="9.073328849818468"><ele>314.0</ele><time>2026-05-02T16:20:09.999Z</time></trkpt><trkpt lat="44.44025339130997" lon="9.073120932813962"><ele>320.0</ele><time>2026-05-02T16:20:10.999Z</time></trkpt><trkpt lat="44.44035377767842" lon="9.07291854461414"><ele>326.0</ele><time>2026-05-02T16:20:11.999Z</time></trkpt><trkpt lat="44.44049508711147" lon="9.072742109868116"><ele>332.0</ele><time>2026-05-02T16:20:12.999Z</time></trkpt><trkpt lat="44.44063343475096" lon="9.072603719130964"><ele>320.25</ele><time>2026-05-02T16:20:13.999Z</time></trkpt><trkpt lat="44.44073671763774" lon="9.07248522576652"><ele>308.5</ele><time>2026-05-02T16:20:14.999Z</time></trkpt><trkpt lat="44.4408104843566" lon="9.07234155516832"><ele>296.75</ele><time>2026-05-02T16:20:15.999Z</time></trkpt><trkpt lat="44.440855376308036" lon="9.072171468192025"><ele>285.0</ele><time>2026-05-02T16:20:16.999Z</time></trkpt><trkpt lat="44.440854550769394" lon="9.071963241659713"><ele>285.0</ele><time>2026-05-02T16:20:17.999Z</time></trkpt><trkpt lat="44.44082071666031" lon="9.07172712168124"><ele>285.0</ele><time>2026-05-02T16:20:18.999Z</time></trkpt><trkpt lat="44.44076231576656" lon="9.071475104390824"><ele>285.0</ele><time>2026-05-02T16:20:19.999Z</time></trkpt><trkpt lat="44.440710685998056" lon="9.071236311390287"><ele>285.75</ele><time>2026-05-02T16:20:20.999Z</time></trkpt><trkpt lat="44.44067537958713" lon="9.071032760375521"><ele>286.5</ele><time>2026-05-02T16:20:21.999Z</time></trkpt><trkpt lat="44.44064747895894" lon="9.070846062623893"><ele>287.25</ele><time>2026-05-02T16:20:22.999Z</time></trkpt><trkpt lat="44.44063461626926" lon="9.070665337039244"><ele>288.0</ele><time>2026-05-02T16:20:23.999Z</time></trkpt><trkpt lat="44.44065952836303" lon="9.07048422802439"><ele>288.0</ele><time>2026-05-02T16:20:24.999Z</time></trkpt><trkpt lat="44.44072627087268" lon="9.070315534179104"><ele>288.0</ele><time>2026-05-02T16:20:25.999Z</time></trkpt><trkpt lat="44.44083877476145" lon="9.07016810259693"><ele>288.0</ele><time>2026-05-02T16:20:26.999Z</time></trkpt><trkpt lat="44.44097340882694" lon="9.070033333206874"><ele>290.6666666666667</ele><time>2026-05-02T16:20:27.999Z</time></trkpt><trkpt lat="44.44109485447362" lon="9.069870789495186"><ele>293.33333333333337</ele><time>2026-05-02T16:20:28.999Z</time></trkpt><trkpt lat="44.441170630627255" lon="9.069688337952073"><ele>296.0</ele><time>2026-05-02T16:20:29.999Z</time></trkpt><trkpt lat="44.44122115895961" lon="9.069495298085105"><ele>296.0</ele><time>2026-05-02T16:20:30.999Z</time></trkpt><trkpt lat="44.44123242291961" lon="9.069287059305045"><ele>296.0</ele><time>2026-05-02T16:20:31.999Z</time></trkpt><trkpt lat="44.441199853402374" lon="9.069078868842963"><ele>296.0</ele><time>2026-05-02T16:20:32.999Z</time></trkpt><trkpt lat="44.441139143583705" lon="9.068880807353077"><ele>295.75</ele><time>2026-05-02T16:20:33.999Z</time></trkpt><trkpt lat="44.44108612310315" lon="9.068708894416263"><ele>295.5</ele><time>2026-05-02T16:20:35Z</time></trkpt><trkpt lat="44.441069491621484" lon="9.06853376873468"><ele>295.25</ele><time>2026-05-02T16:20:36Z</time></trkpt><trkpt lat="44.441092703138644" lon="9.068345302182259"><ele>295.0</ele><time>2026-05-02T16:20:37Z</time></trkpt><trkpt lat="44.4411570971352" lon="9.06815025817951"><ele>299.0</ele><time>2026-05-02T16:20:38Z</time></trkpt><trkpt lat="44.441251583694935" lon="9.067941213490979"><ele>303.0</ele><time>2026-05-02T16:20:39Z</time></trkpt><trkpt lat="44.44136851380711" lon="9.06771485636958"><ele>307.0</ele><time>2026-05-02T16:20:40Z</time></trkpt><trkpt lat="44.441504961266354" lon="9.067490359084882"><ele>296.66666666666663</ele><time>2026-05-02T16:20:41Z</time></trkpt><trkpt lat="44.44166218880522" lon="9.067299108091277"><ele>286.3333333333333</ele><time>2026-05-02T16:20:42Z</time></trkpt><trkpt lat="44.44181698290183" lon="9.067136580330525"><ele>276.0</ele><time>2026-05-02T16:20:43Z</time></trkpt><trkpt lat="44.44194799029416" lon="9.066978606800255"><ele>276.0</ele><time>2026-05-02T16:20:44Z</time></trkpt><trkpt lat="44.4420575630356" lon="9.066824983434882"><ele>276.0</ele><time>2026-05-02T16:20:45Z</time></trkpt><trkpt lat="44.44213586250713" lon="9.066664686249808"><ele>276.0</ele><time>2026-05-02T16:20:46Z</time></trkpt><trkpt lat="44.44217505435576" lon="9.066472611102197"><ele>276.0</ele><time>2026-05-02T16:20:47Z</time></trkpt><trkpt lat="44.4421798325706" lon="9.066257662975715"><ele>276.0</ele><time>2026-05-02T16:20:48Z</time></trkpt><trkpt lat="44.442130482713985" lon="9.066022509190004"><ele>276.0</ele><time>2026-05-02T16:20:49Z</time></trkpt><trkpt lat="44.442063304087256" lon="9.06577813308997"><ele>276.0</ele><time>2026-05-02T16:20:50Z</time></trkpt><trkpt lat="44.44200091516388" lon="9.065555543504491"><ele>276.25</ele><time>2026-05-02T16:20:51Z</time></trkpt><trkpt lat="44.44195507805431" lon="9.06535754768096"><ele>276.5</ele><time>2026-05-02T16:20:52Z</time></trkpt><trkpt lat="44.44193289735169" lon="9.065184104421967"><ele>276.75</ele><time>2026-05-02T16:20:53Z</time></trkpt><trkpt lat="44.44194909758171" lon="9.065001159039937"><ele>277.0</ele><time>2026-05-02T16:20:54Z</time></trkpt><trkpt lat="44.44201783349137" lon="9.064835598004569"><ele>277.0</ele><time>2026-05-02T16:20:55Z</time></trkpt><trkpt lat="44.44211347199838" lon="9.064708563767299"><ele>277.0</ele><time>2026-05-02T16:20:56Z</time></trkpt><trkpt lat="44.4422280583766" lon="9.064612654024899"><ele>277.0</ele><time>2026-05-02T16:20:57Z</time></trkpt><trkpt lat="44.44234236959738" lon="9.06452735749531"><ele>277.0</ele><time>2026-05-02T16:20:58Z</time></trkpt><trkpt lat="44.44243092841137" lon="9.06443067511137"><ele>268.5</ele><time>2026-05-02T16:20:59Z</time></trkpt><trkpt lat="44.442490185386255" lon="9.06431690619288"><ele>260.0</ele><time>2026-05-02T16:21:00Z</time></trkpt><trkpt lat="44.44251433525199" lon="9.06417911647979"><ele>251.5</ele><time>2026-05-02T16:21:01Z</time></trkpt><trkpt lat="44.442496101278515" lon="9.064005575185716"><ele>243.0</ele><time>2026-05-02T16:21:02Z</time></trkpt><trkpt lat="44.44245500978055" lon="9.063797266870006"><ele>241.33333333333331</ele><time>2026-05-02T16:21:03Z</time></trkpt><trkpt lat="44.44241366585975" lon="9.063586904994914"><ele>239.66666666666666</ele><time>2026-05-02T16:21:04Z</time></trkpt><trkpt lat="44.44237389218449" lon="9.063368717284288"><ele>238.0</ele><time>2026-05-02T16:21:05Z</time></trkpt><trkpt lat="44.442338617986806" lon="9.063156731766433"><ele>235.75</ele><time>2026-05-02T16:21:06Z</time></trkpt><trkpt lat="44.44230507803846" lon="9.062954219795367"><ele>233.5</ele><time>2026-05-02T16:21:07Z</time></trkpt><trkpt lat="44.44227050086198" lon="9.062757845696689"><ele>231.25</ele><time>2026-05-02T16:21:08Z</time></trkpt><trkpt lat="44.44223983259271" lon="9.06256312710225"><ele>229.0</ele><time>2026-05-02T16:21:09Z</time></trkpt><trkpt lat="44.44221486967468" lon="9.06236718235226"><ele>228.33333333333331</ele><time>2026-05-02T16:21:10Z</time></trkpt><trkpt lat="44.44221013582908" lon="9.06216275106789"><ele>227.66666666666669</ele><time>2026-05-02T16:21:11Z</time></trkpt><trkpt lat="44.44223650086546" lon="9.06195147729932"><ele>227.0</ele><time>2026-05-02T16:21:12Z</time></trkpt><trkpt lat="44.4422745401427" lon="9.061740519832089"><ele>226.33333333333334</ele><time>2026-05-02T16:21:13Z</time></trkpt><trkpt lat="44.44232507112286" lon="9.061530881658097"><ele>225.66666666666669</ele><time>2026-05-02T16:21:14Z</time></trkpt><trkpt lat="44.44236680868011" lon="9.06132310392194"><ele>225.0</ele><time>2026-05-02T16:21:15Z</time></trkpt><trkpt lat="44.442377928348655" lon="9.061131057130883"><ele>225.0</ele><time>2026-05-02T16:21:16Z</time></trkpt><trkpt lat="44.44236158742374" lon="9.060927061382042"><ele>225.0</ele><time>2026-05-02T16:21:17Z</time></trkpt><trkpt lat="44.442328033351615" lon="9.060713836004778"><ele>225.0</ele><time>2026-05-02T16:21:18Z</time></trkpt><trkpt lat="44.442293396724004" lon="9.060501534364171"><ele>224.0</ele><time>2026-05-02T16:21:19Z</time></trkpt><trkpt lat="44.44225884330819" lon="9.060303393504393"><ele>223.0</ele><time>2026-05-02T16:21:20Z</time></trkpt><trkpt lat="44.44222372260414" lon="9.060115737207854"><ele>222.0</ele><time>2026-05-02T16:21:21Z</time></trkpt><trkpt lat="44.44219593668541" lon="9.059915014353955"><ele>221.0</ele><time>2026-05-02T16:21:22Z</time></trkpt><trkpt lat="44.44219699122409" lon="9.059697824711186"><ele>220.33333333333334</ele><time>2026-05-02T16:21:23Z</time></trkpt><trkpt lat="44.44221566605518" lon="9.059464573691942"><ele>219.66666666666669</ele><time>2026-05-02T16:21:24Z</time></trkpt><trkpt lat="44.44224397914608" lon="9.059226454683552"><ele>219.0</ele><time>2026-05-02T16:21:25Z</time></trkpt><trkpt lat="44.4422787562949" lon="9.058983788671904"><ele>219.0</ele><time>2026-05-02T16:21:26Z</time></trkpt><trkpt lat="44.442332101921366" lon="9.058745884282114"><ele>219.0</ele><time>2026-05-02T16:21:27Z</time></trkpt><trkpt lat="44.44240820921536" lon="9.058537737224608"><ele>219.0</ele><time>2026-05-02T16:21:27.999Z</time></trkpt><trkpt lat="44.44248866840204" lon="9.05835080700319"><ele>222.5</ele><time>2026-05-02T16:21:28.999Z</time></trkpt><trkpt lat="44.44256475965757" lon="9.058178518142787"><ele>226.0</ele><time>2026-05-02T16:21:29.999Z</time></trkpt><trkpt lat="44.44263457718435" lon="9.058015540157463"><ele>229.5</ele><time>2026-05-02T16:21:30.999Z</time></trkpt><trkpt lat="44.442698917672395" lon="9.057856864874154"><ele>233.0</ele><time>2026-05-02T16:21:31.999Z</time></trkpt><trkpt lat="44.44274966408379" lon="9.057693892197872"><ele>233.0</ele><time>2026-05-02T16:21:32.999Z</time></trkpt><trkpt lat="44.4427707595326" lon="9.057512934603093"><ele>233.0</ele><time>2026-05-02T16:21:33.999Z</time></trkpt><trkpt lat="44.44276254679894" lon="9.057306463691267"><ele>233.0</ele><time>2026-05-02T16:21:34.999Z</time></trkpt><trkpt lat="44.44274428170339" lon="9.057093609325984"><ele>233.0</ele><time>2026-05-02T16:21:35.999Z</time></trkpt><trkpt lat="44.44272900976555" lon="9.056865083407684"><ele>237.66666666666669</ele><time>2026-05-02T16:21:36.999Z</time></trkpt><trkpt lat="44.44273574125902" lon="9.05663000592553"><ele>242.33333333333331</ele><time>2026-05-02T16:21:37.999Z</time></trkpt><trkpt lat="44.44274954339514" lon="9.056394839401333"><ele>247.0</ele><time>2026-05-02T16:21:38.999Z</time></trkpt><trkpt lat="44.44276768631928" lon="9.05617821948659"><ele>247.0</ele><time>2026-05-02T16:21:39.999Z</time></trkpt><trkpt lat="44.4427944897441" lon="9.055962138140394"><ele>247.0</ele><time>2026-05-02T16:21:40.999Z</time></trkpt><trkpt lat="44.44284659945173" lon="9.05574279761008"><ele>247.0</ele><time>2026-05-02T16:21:41.999Z</time></trkpt><trkpt lat="44.442930543892324" lon="9.05553847928559"><ele>229.66666666666666</ele><time>2026-05-02T16:21:42.999Z</time></trkpt><trkpt lat="44.443008061825815" lon="9.05533212082395"><ele>212.33333333333331</ele><time>2026-05-02T16:21:43.999Z</time></trkpt><trkpt lat="44.443059210025396" lon="9.055115612247594"><ele>195.0</ele><time>2026-05-02T16:21:44.999Z</time></trkpt><trkpt lat="44.44311035242192" lon="9.054907614872272"><ele>193.75</ele><time>2026-05-02T16:21:45.999Z</time></trkpt><trkpt lat="44.44318299510722" lon="9.054727965083266"><ele>192.5</ele><time>2026-05-02T16:21:46.999Z</time></trkpt><trkpt lat="44.443256466788355" lon="9.054564373720925"><ele>191.25</ele><time>2026-05-02T16:21:47.999Z</time></trkpt><trkpt lat="44.44331094468247" lon="9.054410046038214"><ele>190.0</ele><time>2026-05-02T16:21:48.999Z</time></trkpt><trkpt lat="44.44332771217492" lon="9.054257540110731"><ele>188.25</ele><time>2026-05-02T16:21:49.999Z</time></trkpt><trkpt lat="44.44330123515707" lon="9.054101931983555"><ele>186.5</ele><time>2026-05-02T16:21:50.999Z</time></trkpt><trkpt lat="44.44323427227668" lon="9.053946649395057"><ele>184.75</ele><time>2026-05-02T16:21:51.999Z</time></trkpt><trkpt lat="44.44313396827077" lon="9.053817629395567"><ele>183.0</ele><time>2026-05-02T16:21:52.999Z</time></trkpt><trkpt lat="44.443000904301755" lon="9.053736598190708"><ele>183.33333333333334</ele><time>2026-05-02T16:21:53.999Z</time></trkpt><trkpt lat="44.44284284375444" lon="9.053675807360124"><ele>183.66666666666669</ele><time>2026-05-02T16:21:54.999Z</time></trkpt><trkpt lat="44.4426781331856" lon="9.053601677473402"><ele>184.0</ele><time>2026-05-02T16:21:55.999Z</time></trkpt><trkpt lat="44.44252454358683" lon="9.053512698056172"><ele>184.0</ele><time>2026-05-02T16:21:56.999Z</time></trkpt><trkpt lat="44.442383412091495" lon="9.053382320803237"><ele>184.0</ele><time>2026-05-02T16:21:57.999Z</time></trkpt><trkpt lat="44.442242328862605" lon="9.053261696867416"><ele>184.0</ele><time>2026-05-02T16:21:58.999Z</time></trkpt><trkpt lat="44.44212204603039" lon="9.053121066329554"><ele>187.25</ele><time>2026-05-02T16:21:59.999Z</time></trkpt><trkpt lat="44.442011704812444" lon="9.05299236219612"><ele>190.5</ele><time>2026-05-02T16:22:00.999Z</time></trkpt><trkpt lat="44.44190311131261" lon="9.052874382982592"><ele>193.75</ele><time>2026-05-02T16:22:01.999Z</time></trkpt><trkpt lat="44.4418028077171" lon="9.052769634186202"><ele>197.0</ele><time>2026-05-02T16:22:02.999Z</time></trkpt><trkpt lat="44.44172274395242" lon="9.052653088353358"><ele>197.0</ele><time>2026-05-02T16:22:03.999Z</time></trkpt><trkpt lat="44.4416827505478" lon="9.052512614776118"><ele>197.0</ele><time>2026-05-02T16:22:04.999Z</time></trkpt><trkpt lat="44.44168802535946" lon="9.052323355436972"><ele>197.0</ele><time>2026-05-02T16:22:05.999Z</time></trkpt><trkpt lat="44.441725138779596" lon="9.052119736824372"><ele>197.0</ele><time>2026-05-02T16:22:06.999Z</time></trkpt><trkpt lat="44.441755730750465" lon="9.051924666556992"><ele>192.25</ele><time>2026-05-02T16:22:07.999Z</time></trkpt><trkpt lat="44.44176783725511" lon="9.05174738257901"><ele>187.5</ele><time>2026-05-02T16:22:08.999Z</time></trkpt><trkpt lat="44.441749129903485" lon="9.051574639464599"><ele>182.75</ele><time>2026-05-02T16:22:09.999Z</time></trkpt><trkpt lat="44.44167617115235" lon="9.051399891103843"><ele>178.0</ele><time>2026-05-02T16:22:10.999Z</time></trkpt><trkpt lat="44.44156540103421" lon="9.051229939420915"><ele>177.0</ele><time>2026-05-02T16:22:11.999Z</time></trkpt><trkpt lat="44.44143931613941" lon="9.051061452668646"><ele>176.0</ele><time>2026-05-02T16:22:12.999Z</time></trkpt><trkpt lat="44.44132710523374" lon="9.050895331872626"><ele>175.0</ele><time>2026-05-02T16:22:13.999Z</time></trkpt><trkpt lat="44.441226992878235" lon="9.050739123155173"><ele>173.75</ele><time>2026-05-02T16:22:14.999Z</time></trkpt><trkpt lat="44.44113420505823" lon="9.050594316365492"><ele>172.5</ele><time>2026-05-02T16:22:15.999Z</time></trkpt><trkpt lat="44.44104656527378" lon="9.050455150244735"><ele>171.25</ele><time>2026-05-02T16:22:16.999Z</time></trkpt><trkpt lat="44.44096108370563" lon="9.050308147513109"><ele>170.0</ele><time>2026-05-02T16:22:17.999Z</time></trkpt><trkpt lat="44.44088653413723" lon="9.050140926057392"><ele>168.66666666666666</ele><time>2026-05-02T16:22:18.999Z</time></trkpt><trkpt lat="44.44082306302065" lon="9.049950874400855"><ele>167.33333333333334</ele><time>2026-05-02T16:22:19.999Z</time></trkpt><trkpt lat="44.440755629434456" lon="9.049760521272068"><ele>166.0</ele><time>2026-05-02T16:22:20.999Z</time></trkpt><trkpt lat="44.44068680223792" lon="9.049566315610221"><ele>166.0</ele><time>2026-05-02T16:22:21.999Z</time></trkpt><trkpt lat="44.44061896488759" lon="9.049368367458674"><ele>166.0</ele><time>2026-05-02T16:22:22.999Z</time></trkpt><trkpt lat="44.440553888115836" lon="9.049174392196493"><ele>166.0</ele><time>2026-05-02T16:22:23.999Z</time></trkpt><trkpt lat="44.44049830058979" lon="9.048989922901887"><ele>164.5</ele><time>2026-05-02T16:22:24.999Z</time></trkpt><trkpt lat="44.44046912890066" lon="9.04880043297343"><ele>163.0</ele><time>2026-05-02T16:22:25.999Z</time></trkpt><trkpt lat="44.44047822243745" lon="9.048588064131206"><ele>161.5</ele><time>2026-05-02T16:22:26.999Z</time></trkpt><trkpt lat="44.44052228764357" lon="9.048379259882081"><ele>160.0</ele><time>2026-05-02T16:22:27.999Z</time></trkpt><trkpt lat="44.44059515513211" lon="9.0481670853084"><ele>159.66666666666669</ele><time>2026-05-02T16:22:28.999Z</time></trkpt><trkpt lat="44.44067080856537" lon="9.047942038856297"><ele>159.33333333333334</ele><time>2026-05-02T16:22:29.999Z</time></trkpt><trkpt lat="44.44072868313472" lon="9.047683732041303"><ele>159.0</ele><time>2026-05-02T16:22:30.999Z</time></trkpt><trkpt lat="44.44077142324446" lon="9.047393555886766"><ele>161.33333333333334</ele><time>2026-05-02T16:22:31.999Z</time></trkpt><trkpt lat="44.44081640758332" lon="9.047085419930378"><ele>163.66666666666669</ele><time>2026-05-02T16:22:32.999Z</time></trkpt><trkpt lat="44.44086032636517" lon="9.046782670103392"><ele>166.0</ele><time>2026-05-02T16:22:33.999Z</time></trkpt><trkpt lat="44.44089954570847" lon="9.046507165190805"><ele>169.66666666666669</ele><time>2026-05-02T16:22:34.999Z</time></trkpt><trkpt lat="44.44093842562879" lon="9.046240539490388"><ele>173.33333333333334</ele><time>2026-05-02T16:22:35.999Z</time></trkpt><trkpt lat="44.440977808873114" lon="9.045981502515913"><ele>177.0</ele><time>2026-05-02T16:22:36.999Z</time></trkpt><trkpt lat="44.44101593123937" lon="9.04572993657944"><ele>180.0</ele><time>2026-05-02T16:22:37.999Z</time></trkpt><trkpt lat="44.441050917152474" lon="9.045478939173444"><ele>183.0</ele><time>2026-05-02T16:22:38.999Z</time></trkpt><trkpt lat="44.44108619515616" lon="9.045230995818363"><ele>186.0</ele><time>2026-05-02T16:22:39.999Z</time></trkpt><trkpt lat="44.44112425767506" lon="9.044984307428013"><ele>187.66666666666666</ele><time>2026-05-02T16:22:41Z</time></trkpt><trkpt lat="44.44116863106141" lon="9.044737574534363"><ele>189.33333333333331</ele><time>2026-05-02T16:22:42Z</time></trkpt><trkpt lat="44.44123761865701" lon="9.044488525258963"><ele>191.0</ele><time>2026-05-02T16:22:43Z</time></trkpt><trkpt lat="44.441332830193204" lon="9.044266354247606"><ele>181.66666666666666</ele><time>2026-05-02T16:22:44Z</time></trkpt><trkpt lat="44.441428904528756" lon="9.044067429222993"><ele>172.33333333333334</ele><time>2026-05-02T16:22:45Z</time></trkpt><trkpt lat="44.441505149762285" lon="9.043851814002997"><ele>163.0</ele><time>2026-05-02T16:22:46Z</time></trkpt><trkpt lat="44.441559580228564" lon="9.04359480338084"><ele>163.0</ele><time>2026-05-02T16:22:47Z</time></trkpt><trkpt lat="44.441614142621646" lon="9.043333925845001"><ele>163.0</ele><time>2026-05-02T16:22:48Z</time></trkpt><trkpt lat="44.44166744333587" lon="9.043094814560824"><ele>163.0</ele><time>2026-05-02T16:22:49Z</time></trkpt><trkpt lat="44.4417158905467" lon="9.042873812880936"><ele>164.25</ele><time>2026-05-02T16:22:50Z</time></trkpt><trkpt lat="44.441758249514194" lon="9.042665010674224"><ele>165.5</ele><time>2026-05-02T16:22:51Z</time></trkpt><trkpt lat="44.44179341559934" lon="9.042479998284099"><ele>166.75</ele><time>2026-05-02T16:22:52Z</time></trkpt><trkpt lat="44.441828421588696" lon="9.042326659082601"><ele>168.0</ele><time>2026-05-02T16:22:53Z</time></trkpt><trkpt lat="44.44189466307828" lon="9.042197803575519"><ele>169.25</ele><time>2026-05-02T16:22:54Z</time></trkpt><trkpt lat="44.44199837458658" lon="9.042091310462888"><ele>170.5</ele><time>2026-05-02T16:22:55Z</time></trkpt><trkpt lat="44.44213742393163" lon="9.04202047856977"><ele>171.75</ele><time>2026-05-02T16:22:56Z</time></trkpt><trkpt lat="44.442293039611094" lon="9.041983749664809"><ele>173.0</ele><time>2026-05-02T16:22:57Z</time></trkpt><trkpt lat="44.44243439652481" lon="9.041958890076637"><ele>173.0</ele><time>2026-05-02T16:22:58Z</time></trkpt><trkpt lat="44.44255978116807" lon="9.041932699045393"><ele>173.0</ele><time>2026-05-02T16:22:59Z</time></trkpt><trkpt lat="44.44267984416393" lon="9.041910683714672"><ele>173.0</ele><time>2026-05-02T16:23:00Z</time></trkpt><trkpt lat="44.4428055096212" lon="9.041880372166377"><ele>173.0</ele><time>2026-05-02T16:23:01Z</time></trkpt><trkpt lat="44.442937412218406" lon="9.041852312733795"><ele>169.25</ele><time>2026-05-02T16:23:02Z</time></trkpt><trkpt lat="44.44306633262941" lon="9.041835271855339"><ele>165.5</ele><time>2026-05-02T16:23:03Z</time></trkpt><trkpt lat="44.443192797858984" lon="9.04181971672646"><ele>161.75</ele><time>2026-05-02T16:23:04Z</time></trkpt><trkpt lat="44.44330485048508" lon="9.04180801576002"><ele>158.0</ele><time>2026-05-02T16:23:05Z</time></trkpt><trkpt lat="44.443411588246065" lon="9.041787236278227"><ele>158.0</ele><time>2026-05-02T16:23:06Z</time></trkpt><trkpt lat="44.443517342063" lon="9.041731743519305"><ele>158.0</ele><time>2026-05-02T16:23:07Z</time></trkpt><trkpt lat="44.44362483761024" lon="9.041628648066986"><ele>158.0</ele><time>2026-05-02T16:23:08Z</time></trkpt><trkpt lat="44.44373744436946" lon="9.041475782027362"><ele>158.0</ele><time>2026-05-02T16:23:09Z</time></trkpt><trkpt lat="44.4438505637342" lon="9.041290977147854"><ele>157.0</ele><time>2026-05-02T16:23:10Z</time></trkpt><trkpt lat="44.443969095679485" lon="9.041084725724744"><ele>156.0</ele><time>2026-05-02T16:23:11Z</time></trkpt><trkpt lat="44.44409562237311" lon="9.040877678283646"><ele>155.0</ele><time>2026-05-02T16:23:12Z</time></trkpt><trkpt lat="44.44422095014416" lon="9.040687063558407"><ele>162.66666666666666</ele><time>2026-05-02T16:23:13Z</time></trkpt><trkpt lat="44.444338135085765" lon="9.040516442669475"><ele>170.33333333333334</ele><time>2026-05-02T16:23:14Z</time></trkpt><trkpt lat="44.444452600260355" lon="9.040353772638783"><ele>178.0</ele><time>2026-05-02T16:23:15Z</time></trkpt><trkpt lat="44.44457147513558" lon="9.040188289470038"><ele>177.0</ele><time>2026-05-02T16:23:16Z</time></trkpt><trkpt lat="44.444699263326314" lon="9.039999385423561"><ele>176.0</ele><time>2026-05-02T16:23:17Z</time></trkpt><trkpt lat="44.444848500697724" lon="9.039793433180714"><ele>175.0</ele><time>2026-05-02T16:23:18Z</time></trkpt><trkpt lat="44.44499928036167" lon="9.039610605753554"><ele>175.0</ele><time>2026-05-02T16:23:19Z</time></trkpt><trkpt lat="44.445142356586594" lon="9.039438449117943"><ele>175.0</ele><time>2026-05-02T16:23:20Z</time></trkpt><trkpt lat="44.44527827435947" lon="9.039273291995048"><ele>175.0</ele><time>2026-05-02T16:23:21Z</time></trkpt><trkpt lat="44.445406211371406" lon="9.039131316566891"><ele>174.5</ele><time>2026-05-02T16:23:22Z</time></trkpt><trkpt lat="44.445519813593755" lon="9.039006299931001"><ele>174.0</ele><time>2026-05-02T16:23:23Z</time></trkpt><trkpt lat="44.44562567161056" lon="9.038878334527118"><ele>173.5</ele><time>2026-05-02T16:23:24Z</time></trkpt><trkpt lat="44.4457383665482" lon="9.03874523374961"><ele>173.0</ele><time>2026-05-02T16:23:25Z</time></trkpt><trkpt lat="44.44587539565652" lon="9.038579449472918"><ele>173.0</ele><time>2026-05-02T16:23:26Z</time></trkpt><trkpt lat="44.446011769016074" lon="9.03842218770824"><ele>173.0</ele><time>2026-05-02T16:23:27Z</time></trkpt><trkpt lat="44.446143027808446" lon="9.038274434363265"><ele>173.0</ele><time>2026-05-02T16:23:28Z</time></trkpt><trkpt lat="44.44627489489482" lon="9.038132611244029"><ele>180.66666666666666</ele><time>2026-05-02T16:23:29Z</time></trkpt><trkpt lat="44.446428283516184" lon="9.038021655856125"><ele>188.33333333333331</ele><time>2026-05-02T16:23:30Z</time></trkpt><trkpt lat="44.44659615633282" lon="9.03794463855016"><ele>196.0</ele><time>2026-05-02T16:23:31Z</time></trkpt><trkpt lat="44.446754572069395" lon="9.037892302506108"><ele>196.0</ele><time>2026-05-02T16:23:31.999Z</time></trkpt><trkpt lat="44.446903540379644" lon="9.037849099497755"><ele>196.0</ele><time>2026-05-02T16:23:32.999Z</time></trkpt><trkpt lat="44.447049697433236" lon="9.037823187883234"><ele>196.0</ele><time>2026-05-02T16:23:33.999Z</time></trkpt><trkpt lat="44.447186476203484" lon="9.037843609323357"><ele>196.0</ele><time>2026-05-02T16:23:34.999Z</time></trkpt><trkpt lat="44.44731261861395" lon="9.03787343161364"><ele>191.5</ele><time>2026-05-02T16:23:35.999Z</time></trkpt><trkpt lat="44.44743480386777" lon="9.037884550968489"><ele>187.0</ele><time>2026-05-02T16:23:36.999Z</time></trkpt><trkpt lat="44.44755579022752" lon="9.037870381923813"><ele>182.5</ele><time>2026-05-02T16:23:37.999Z</time></trkpt><trkpt lat="44.44767333809691" lon="9.037825388107573"><ele>178.0</ele><time>2026-05-02T16:23:38.999Z</time></trkpt><trkpt lat="44.44778902662337" lon="9.037767186960195"><ele>178.0</ele><time>2026-05-02T16:23:39.999Z</time></trkpt><trkpt lat="44.44790692053288" lon="9.037707017476095"><ele>178.0</ele><time>2026-05-02T16:23:40.999Z</time></trkpt><trkpt lat="44.44802561706367" lon="9.03764356443798"><ele>178.0</ele><time>2026-05-02T16:23:41.999Z</time></trkpt><trkpt lat="44.44814622696028" lon="9.037584284507975"><ele>178.0</ele><time>2026-05-02T16:23:42.999Z</time></trkpt><trkpt lat="44.44826651072062" lon="9.037526763801326"><ele>173.20000000000002</ele><time>2026-05-02T16:23:43.999Z</time></trkpt><trkpt lat="44.44839100868462" lon="9.037491170909982"><ele>168.4</ele><time>2026-05-02T16:23:44.999Z</time></trkpt><trkpt lat="44.448504743495185" lon="9.037495106505386"><ele>163.60000000000002</ele><time>2026-05-02T16:23:45.999Z</time></trkpt><trkpt lat="44.448607517430936" lon="9.037509414216945"><ele>158.8</ele><time>2026-05-02T16:23:46.999Z</time></trkpt><trkpt lat="44.44870832366578" lon="9.037519048989902"><ele>154.0</ele><time>2026-05-02T16:23:47.999Z</time></trkpt><trkpt lat="44.44880576560012" lon="9.0375209185858"><ele>152.33333333333334</ele><time>2026-05-02T16:23:48.999Z</time></trkpt><trkpt lat="44.44889092828541" lon="9.03751980574897"><ele>150.66666666666669</ele><time>2026-05-02T16:23:49.999Z</time></trkpt><trkpt lat="44.44896698690283" lon="9.037511807057083"><ele>149.0</ele><time>2026-05-02T16:23:50.999Z</time></trkpt><trkpt lat="44.44904271349888" lon="9.037474430868185"><ele>147.33333333333334</ele><time>2026-05-02T16:23:51.999Z</time></trkpt><trkpt lat="44.44911174639124" lon="9.037401988845247"><ele>145.66666666666666</ele><time>2026-05-02T16:23:52.999Z</time></trkpt><trkpt lat="44.449168302457565" lon="9.037308693809724"><ele>144.0</ele><time>2026-05-02T16:23:53.999Z</time></trkpt><trkpt lat="44.449205369609125" lon="9.03717397607228"><ele>144.0</ele><time>2026-05-02T16:23:54.999Z</time></trkpt><trkpt lat="44.449211878623224" lon="9.037011632512112"><ele>144.0</ele><time>2026-05-02T16:23:55.999Z</time></trkpt><trkpt lat="44.44919297225135" lon="9.036862308803368"><ele>144.0</ele><time>2026-05-02T16:23:56.999Z</time></trkpt><trkpt lat="44.449127899934005" lon="9.03673676683934"><ele>144.0</ele><time>2026-05-02T16:23:57.999Z</time></trkpt><trkpt lat="44.449069767449906" lon="9.036611857891197"><ele>144.0</ele><time>2026-05-02T16:23:58.999Z</time></trkpt><trkpt lat="44.44901899294915" lon="9.036483657999007"><ele>143.0</ele><time>2026-05-02T16:23:59.999Z</time></trkpt><trkpt lat="44.44898463442983" lon="9.03633934127905"><ele>142.0</ele><time>2026-05-02T16:24:00.999Z</time></trkpt><trkpt lat="44.44898707835377" lon="9.036174724442049"><ele>141.0</ele><time>2026-05-02T16:24:01.999Z</time></trkpt><trkpt lat="44.44901434230121" lon="9.035995104867037"><ele>140.0</ele><time>2026-05-02T16:24:02.999Z</time></trkpt><trkpt lat="44.44904993918948" lon="9.035815090060167"><ele>140.75</ele><time>2026-05-02T16:24:03.999Z</time></trkpt><trkpt lat="44.449078043677396" lon="9.0356514011112"><ele>141.5</ele><time>2026-05-02T16:24:04.999Z</time></trkpt><trkpt lat="44.44909660600475" lon="9.035482420518601"><ele>142.25</ele><time>2026-05-02T16:24:05.999Z</time></trkpt><trkpt lat="44.44911447946412" lon="9.0353057923508"><ele>143.0</ele><time>2026-05-02T16:24:06.999Z</time></trkpt><trkpt lat="44.44913873936792" lon="9.035127641680948"><ele>148.25</ele><time>2026-05-02T16:24:07.999Z</time></trkpt><trkpt lat="44.44916999913737" lon="9.034947301456214"><ele>153.5</ele><time>2026-05-02T16:24:08.999Z</time></trkpt><trkpt lat="44.4492133859371" lon="9.034774070763671"><ele>158.75</ele><time>2026-05-02T16:24:09.999Z</time></trkpt><trkpt lat="44.44926897004167" lon="9.034608214703203"><ele>164.0</ele><time>2026-05-02T16:24:10.999Z</time></trkpt><trkpt lat="44.449325161037976" lon="9.034451352592225"><ele>164.0</ele><time>2026-05-02T16:24:11.999Z</time></trkpt><trkpt lat="44.449378888155444" lon="9.034302366946259"><ele>164.0</ele><time>2026-05-02T16:24:12.999Z</time></trkpt><trkpt lat="44.449435954439735" lon="9.03415210682196"><ele>164.0</ele><time>2026-05-02T16:24:13.999Z</time></trkpt><trkpt lat="44.4495206758457" lon="9.034022834452752"><ele>164.0</ele><time>2026-05-02T16:24:14.999Z</time></trkpt><trkpt lat="44.449624064956126" lon="9.033913197254607"><ele>157.0</ele><time>2026-05-02T16:24:15.999Z</time></trkpt><trkpt lat="44.449729781144505" lon="9.033805562638035"><ele>150.0</ele><time>2026-05-02T16:24:16.999Z</time></trkpt><trkpt lat="44.449828054267336" lon="9.033693697383809"><ele>143.0</ele><time>2026-05-02T16:24:17.999Z</time></trkpt><trkpt lat="44.449929489921" lon="9.033585928942191"><ele>136.0</ele><time>2026-05-02T16:24:18.999Z</time></trkpt><trkpt lat="44.45003328373697" lon="9.033495215780452"><ele>136.0</ele><time>2026-05-02T16:24:19.999Z</time></trkpt><trkpt lat="44.4501407059337" lon="9.033413708216338"><ele>136.0</ele><time>2026-05-02T16:24:20.999Z</time></trkpt><trkpt lat="44.45027374050212" lon="9.033328023309897"><ele>136.0</ele><time>2026-05-02T16:24:21.999Z</time></trkpt><trkpt lat="44.45040569533747" lon="9.033250176649664"><ele>136.0</ele><time>2026-05-02T16:24:22.999Z</time></trkpt><trkpt lat="44.450528469257584" lon="9.033194827391446"><ele>133.75</ele><time>2026-05-02T16:24:23.999Z</time></trkpt><trkpt lat="44.45064355534413" lon="9.033153147253943"><ele>131.5</ele><time>2026-05-02T16:24:24.999Z</time></trkpt><trkpt lat="44.45075324262195" lon="9.033113719795045"><ele>129.25</ele><time>2026-05-02T16:24:25.999Z</time></trkpt><trkpt lat="44.450864281596324" lon="9.033077560852167"><ele>127.0</ele><time>2026-05-02T16:24:26.999Z</time></trkpt><trkpt lat="44.45097678442038" lon="9.03304421177678"><ele>127.0</ele><time>2026-05-02T16:24:27.999Z</time></trkpt><trkpt lat="44.451079860318394" lon="9.033009642387897"><ele>126.99999999999999</ele><time>2026-05-02T16:24:28.999Z</time></trkpt><trkpt lat="44.451176388896485" lon="9.032964100098859"><ele>126.99999999999999</ele><time>2026-05-02T16:24:29.999Z</time></trkpt><trkpt lat="44.45126254529401" lon="9.032894738979229"><ele>127.0</ele><time>2026-05-02T16:24:30.999Z</time></trkpt><trkpt lat="44.45133738953609" lon="9.032802481321017"><ele>127.0</ele><time>2026-05-02T16:24:31.999Z</time></trkpt><trkpt lat="44.45138929996623" lon="9.032681873741065"><ele>126.0</ele><time>2026-05-02T16:24:32.999Z</time></trkpt><trkpt lat="44.45141058887439" lon="9.032520257767398"><ele>125.0</ele><time>2026-05-02T16:24:33.999Z</time></trkpt><trkpt lat="44.45140661138198" lon="9.032358878984086"><ele>124.0</ele><time>2026-05-02T16:24:34.999Z</time></trkpt><trkpt lat="44.45139186588734" lon="9.032165147967303"><ele>123.0</ele><time>2026-05-02T16:24:36.999Z</time></trkpt><trkpt lat="44.451322234799385" lon="9.032046088006386"><ele>123.0</ele><time>2026-05-02T16:24:37.999Z</time></trkpt><trkpt lat="44.451233221870204" lon="9.0319528002731"><ele>123.0</ele><time>2026-05-02T16:24:38.999Z</time></trkpt><trkpt lat="44.45113205156867" lon="9.031878934433287"><ele>123.0</ele><time>2026-05-02T16:24:39.999Z</time></trkpt><trkpt lat="44.45102886375291" lon="9.031804816428886"><ele>123.0</ele><time>2026-05-02T16:24:40.999Z</time></trkpt><trkpt lat="44.45092210867722" lon="9.03172989566427"><ele>123.0</ele><time>2026-05-02T16:24:41.999Z</time></trkpt><trkpt lat="44.45081921835145" lon="9.031646808143723"><ele>123.0</ele><time>2026-05-02T16:24:42.999Z</time></trkpt><trkpt lat="44.450716141571405" lon="9.031555925722117"><ele>123.0</ele><time>2026-05-02T16:24:43.999Z</time></trkpt><trkpt lat="44.450607541999425" lon="9.031460785380194"><ele>123.0</ele><time>2026-05-02T16:24:44.999Z</time></trkpt><trkpt lat="44.45047999859655" lon="9.03134624351045"><ele>127.75</ele><time>2026-05-02T16:24:46Z</time></trkpt><trkpt lat="44.45037233113167" lon="9.031201477863592"><ele>132.5</ele><time>2026-05-02T16:24:47Z</time></trkpt><trkpt lat="44.45028491347034" lon="9.03104036152113"><ele>137.25</ele><time>2026-05-02T16:24:48Z</time></trkpt><trkpt lat="44.45021975982837" lon="9.030864337362868"><ele>142.0</ele><time>2026-05-02T16:24:49Z</time></trkpt><trkpt lat="44.45017736690158" lon="9.030677739437946"><ele>142.0</ele><time>2026-05-02T16:24:50Z</time></trkpt><trkpt lat="44.45016117080624" lon="9.030491869691001"><ele>142.0</ele><time>2026-05-02T16:24:51Z</time></trkpt><trkpt lat="44.45017202877223" lon="9.030299821158534"><ele>142.0</ele><time>2026-05-02T16:24:52Z</time></trkpt><trkpt lat="44.450199116017195" lon="9.030115219961873"><ele>142.0</ele><time>2026-05-02T16:24:53Z</time></trkpt><trkpt lat="44.450251046168844" lon="9.029947794804523"><ele>143.25</ele><time>2026-05-02T16:24:54Z</time></trkpt><trkpt lat="44.450316759696655" lon="9.029791303789168"><ele>144.5</ele><time>2026-05-02T16:24:55Z</time></trkpt><trkpt lat="44.450394605008526" lon="9.029643024072797"><ele>145.75</ele><time>2026-05-02T16:24:56Z</time></trkpt><trkpt lat="44.45049569650127" lon="9.029525278949711"><ele>147.0</ele><time>2026-05-02T16:24:57Z</time></trkpt><trkpt lat="44.45058895200091" lon="9.029419689428876"><ele>140.79999999999998</ele><time>2026-05-02T16:24:58Z</time></trkpt><trkpt lat="44.450666952142974" lon="9.029313675303221"><ele>134.6</ele><time>2026-05-02T16:24:59Z</time></trkpt><trkpt lat="44.45074021218265" lon="9.02921299814586"><ele>128.39999999999998</ele><time>2026-05-02T16:25:00Z</time></trkpt><trkpt lat="44.45081549646986" lon="9.029115887727897"><ele>122.19999999999999</ele><time>2026-05-02T16:25:01Z</time></trkpt><trkpt lat="44.45087217017888" lon="9.029007603152634"><ele>116.0</ele><time>2026-05-02T16:25:02Z</time></trkpt><trkpt lat="44.45091902073385" lon="9.028896707727352"><ele>116.0</ele><time>2026-05-02T16:25:03Z</time></trkpt><trkpt lat="44.450946820616686" lon="9.028776430727701"><ele>116.0</ele><time>2026-05-02T16:25:04Z</time></trkpt><trkpt lat="44.45095106125061" lon="9.028640851208412"><ele>116.0</ele><time>2026-05-02T16:25:05Z</time></trkpt><trkpt lat="44.45092820136327" lon="9.028498736724032"><ele>116.0</ele><time>2026-05-02T16:25:06Z</time></trkpt><trkpt lat="44.450870576678284" lon="9.028382847578705"><ele>116.0</ele><time>2026-05-02T16:25:07Z</time></trkpt><trkpt lat="44.45078446269529" lon="9.028285231806429"><ele>116.25</ele><time>2026-05-02T16:25:08Z</time></trkpt><trkpt lat="44.45068997968164" lon="9.028187394734559"><ele>116.5</ele><time>2026-05-02T16:25:09Z</time></trkpt><trkpt lat="44.45059713048604" lon="9.028082954249008"><ele>116.75</ele><time>2026-05-02T16:25:10Z</time></trkpt><trkpt lat="44.450497561848806" lon="9.027999262367516"><ele>117.0</ele><time>2026-05-02T16:25:11Z</time></trkpt><trkpt lat="44.450398231046066" lon="9.027917512626416"><ele>117.0</ele><time>2026-05-02T16:25:12Z</time></trkpt><trkpt lat="44.45028828081678" lon="9.02783778174249"><ele>117.0</ele><time>2026-05-02T16:25:13Z</time></trkpt><trkpt lat="44.45017602875775" lon="9.027739795923765"><ele>117.0</ele><time>2026-05-02T16:25:14Z</time></trkpt><trkpt lat="44.45006596000039" lon="9.02763156575644"><ele>117.0</ele><time>2026-05-02T16:25:15Z</time></trkpt><trkpt lat="44.44995437594219" lon="9.027534190764714"><ele>115.19999999999999</ele><time>2026-05-02T16:25:16Z</time></trkpt><trkpt lat="44.449859495778874" lon="9.02744094005017"><ele>113.39999999999999</ele><time>2026-05-02T16:25:17Z</time></trkpt><trkpt lat="44.44977948312084" lon="9.027356205014586"><ele>111.60000000000001</ele><time>2026-05-02T16:25:18Z</time></trkpt><trkpt lat="44.44970067493033" lon="9.027263060244817"><ele>109.80000000000001</ele><time>2026-05-02T16:25:19Z</time></trkpt><trkpt lat="44.44962246184401" lon="9.027158452204825"><ele>108.0</ele><time>2026-05-02T16:25:20Z</time></trkpt><trkpt lat="44.44953572894748" lon="9.027041987649257"><ele>116.25</ele><time>2026-05-02T16:25:21Z</time></trkpt><trkpt lat="44.44943355142233" lon="9.026908621912924"><ele>124.5</ele><time>2026-05-02T16:25:22Z</time></trkpt><trkpt lat="44.44932630651036" lon="9.026763902403136"><ele>132.75</ele><time>2026-05-02T16:25:23Z</time></trkpt><trkpt lat="44.44923369961397" lon="9.02661980159595"><ele>141.0</ele><time>2026-05-02T16:25:24Z</time></trkpt><trkpt lat="44.44916660731319" lon="9.026476455043278"><ele>142.75</ele><time>2026-05-02T16:25:25Z</time></trkpt><trkpt lat="44.449102577630406" lon="9.026332004871923"><ele>144.5</ele><time>2026-05-02T16:25:26Z</time></trkpt><trkpt lat="44.449035939808624" lon="9.026188175090283"><ele>146.25</ele><time>2026-05-02T16:25:27Z</time></trkpt><trkpt lat="44.44896653366189" lon="9.026043199073527"><ele>148.0</ele><time>2026-05-02T16:25:28Z</time></trkpt><trkpt lat="44.44890173561609" lon="9.025893103676857"><ele>145.25</ele><time>2026-05-02T16:25:29Z</time></trkpt><trkpt lat="44.448819298046345" lon="9.02572355746418"><ele>142.5</ele><time>2026-05-02T16:25:30.068Z</time></trkpt><trkpt lat="44.44875745267623" lon="9.025566866815122"><ele>139.75</ele><time>2026-05-02T16:25:31.064Z</time></trkpt><trkpt lat="44.4487079435573" lon="9.025411904544148"><ele>137.0</ele><time>2026-05-02T16:25:32.06Z</time></trkpt><trkpt lat="44.448661073223725" lon="9.025260558789618"><ele>145.5</ele><time>2026-05-02T16:25:33.055Z</time></trkpt><trkpt lat="44.44863226629104" lon="9.025096068622855"><ele>154.0</ele><time>2026-05-02T16:25:34.054Z</time></trkpt><trkpt lat="44.44850733906399" lon="9.024590525600747"><ele>154.0</ele><time>2026-05-02T16:25:37.206Z</time></trkpt><trkpt lat="44.44849860438868" lon="9.024419581599757"><ele>154.0</ele><time>2026-05-02T16:25:38.206Z</time></trkpt><trkpt lat="44.44846010064401" lon="9.024256963356194"><ele>154.0</ele><time>2026-05-02T16:25:39.206Z</time></trkpt><trkpt lat="44.44845869153045" lon="9.024086173901843"><ele>154.0</ele><time>2026-05-02T16:25:40.206Z</time></trkpt><trkpt lat="44.448445382596105" lon="9.023917473351926"><ele>140.0</ele><time>2026-05-02T16:25:41.206Z</time></trkpt><trkpt lat="44.4484338379733" lon="9.023748544671175"><ele>126.0</ele><time>2026-05-02T16:25:42.206Z</time></trkpt><trkpt lat="44.448417380531545" lon="9.022784329716877"><ele>118.0</ele><time>2026-05-02T16:25:43.999Z</time></trkpt><trkpt lat="44.44842290133542" lon="9.022575600768173"><ele>110.0</ele><time>2026-05-02T16:25:44.999Z</time></trkpt><trkpt lat="44.4484319007451" lon="9.022328708566992"><ele>102.0</ele><time>2026-05-02T16:25:45.999Z</time></trkpt><trkpt lat="44.44844318065505" lon="9.022074407707468"><ele>99.66666666666667</ele><time>2026-05-02T16:25:46.999Z</time></trkpt><trkpt lat="44.448443724678064" lon="9.021820720827039"><ele>97.33333333333334</ele><time>2026-05-02T16:25:47.999Z</time></trkpt><trkpt lat="44.448453894747686" lon="9.021549024403498"><ele>95.0</ele><time>2026-05-02T16:25:48.999Z</time></trkpt><trkpt lat="44.44846759175731" lon="9.02131237757732"><ele>95.0</ele><time>2026-05-02T16:25:49.999Z</time></trkpt><trkpt lat="44.44848290308328" lon="9.0210386410861"><ele>95.0</ele><time>2026-05-02T16:25:50.999Z</time></trkpt><trkpt lat="44.448525618580874" lon="9.020757176076078"><ele>95.0</ele><time>2026-05-02T16:25:51.999Z</time></trkpt><trkpt lat="44.44857725859624" lon="9.020462734570499"><ele>97.0</ele><time>2026-05-02T16:25:52.999Z</time></trkpt><trkpt lat="44.448637493903306" lon="9.020141380043503"><ele>99.0</ele><time>2026-05-02T16:25:53.999Z</time></trkpt><trkpt lat="44.44869363325067" lon="9.01980200782153"><ele>99.0</ele><time>2026-05-02T16:25:54.999Z</time></trkpt><trkpt lat="44.448737514552604" lon="9.01945194527141"><ele>99.0</ele><time>2026-05-02T16:25:55.999Z</time></trkpt><trkpt lat="44.44877088657946" lon="9.019128684599993"><ele>94.33333333333333</ele><time>2026-05-02T16:25:56.999Z</time></trkpt><trkpt lat="44.44879425292485" lon="9.018830114224336"><ele>89.66666666666666</ele><time>2026-05-02T16:25:57.999Z</time></trkpt><trkpt lat="44.4488146144372" lon="9.018530687575561"><ele>85.0</ele><time>2026-05-02T16:25:58.999Z</time></trkpt><trkpt lat="44.44883138651604" lon="9.018227324474697"><ele>84.66666666666666</ele><time>2026-05-02T16:25:59.999Z</time></trkpt><trkpt lat="44.44884176653535" lon="9.017924326674583"><ele>84.33333333333333</ele><time>2026-05-02T16:26:00.999Z</time></trkpt><trkpt lat="44.448841351342836" lon="9.01760940257024"><ele>84.0</ele><time>2026-05-02T16:26:01.999Z</time></trkpt><trkpt lat="44.448842298370415" lon="9.017292827632941"><ele>84.0</ele><time>2026-05-02T16:26:02.999Z</time></trkpt><trkpt lat="44.44883692574544" lon="9.017001185491184"><ele>84.0</ele><time>2026-05-02T16:26:03.999Z</time></trkpt><trkpt lat="44.44883249108705" lon="9.016729556635449"><ele>84.0</ele><time>2026-05-02T16:26:04.999Z</time></trkpt><trkpt lat="44.44883105080309" lon="9.016468215058213"><ele>83.66666666666667</ele><time>2026-05-02T16:26:05.999Z</time></trkpt><trkpt lat="44.448833786347706" lon="9.016224751900268"><ele>83.33333333333334</ele><time>2026-05-02T16:26:06.999Z</time></trkpt><trkpt lat="44.44883783815091" lon="9.016007148563355"><ele>83.0</ele><time>2026-05-02T16:26:07.999Z</time></trkpt><trkpt lat="44.448838214347134" lon="9.015807314163771"><ele>82.5</ele><time>2026-05-02T16:26:08.999Z</time></trkpt><trkpt lat="44.44883825984006" lon="9.015626280279001"><ele>82.0</ele><time>2026-05-02T16:26:09.999Z</time></trkpt><trkpt lat="44.44883667235811" lon="9.01546368449025"><ele>81.5</ele><time>2026-05-02T16:26:10.999Z</time></trkpt><trkpt lat="44.448832663628465" lon="9.01531307817741"><ele>81.0</ele><time>2026-05-02T16:26:11.999Z</time></trkpt><trkpt lat="44.44882243700487" lon="9.015172761038203"><ele>81.0</ele><time>2026-05-02T16:26:12.999Z</time></trkpt><trkpt lat="44.44881487483556" lon="9.01501641739911"><ele>81.0</ele><time>2026-05-02T16:26:13.999Z</time></trkpt><trkpt lat="44.4488066929544" lon="9.014837715125141"><ele>81.0</ele><time>2026-05-02T16:26:14.999Z</time></trkpt><trkpt lat="44.44878538474507" lon="9.014647318454484"><ele>81.0</ele><time>2026-05-02T16:26:15.999Z</time></trkpt><trkpt lat="44.448779712021526" lon="9.014442885244016"><ele>80.66666666666667</ele><time>2026-05-02T16:26:16.999Z</time></trkpt><trkpt lat="44.44879521031872" lon="9.014236404838414"><ele>80.33333333333334</ele><time>2026-05-02T16:26:17.999Z</time></trkpt><trkpt lat="44.448791562078924" lon="9.014017014536334"><ele>80.0</ele><time>2026-05-02T16:26:18.999Z</time></trkpt><trkpt lat="44.44877864808949" lon="9.013783643571536"><ele>80.25</ele><time>2026-05-02T16:26:19.999Z</time></trkpt><trkpt lat="44.448766378109376" lon="9.013574742062438"><ele>80.5</ele><time>2026-05-02T16:26:20.999Z</time></trkpt><trkpt lat="44.44875260088054" lon="9.013381161821048"><ele>80.75</ele><time>2026-05-02T16:26:21.999Z</time></trkpt><trkpt lat="44.448733762153665" lon="9.01318536927085"><ele>81.0</ele><time>2026-05-02T16:26:22.999Z</time></trkpt><trkpt lat="44.44871418031655" lon="9.01298509812324"><ele>81.0</ele><time>2026-05-02T16:26:23.999Z</time></trkpt><trkpt lat="44.44869434878262" lon="9.012781383748626"><ele>81.0</ele><time>2026-05-02T16:26:24.999Z</time></trkpt><trkpt lat="44.4486729534374" lon="9.012582657215882"><ele>81.0</ele><time>2026-05-02T16:26:25.999Z</time></trkpt><trkpt lat="44.44864673192606" lon="9.01238448202645"><ele>81.0</ele><time>2026-05-02T16:26:26.999Z</time></trkpt><trkpt lat="44.448616980065495" lon="9.012187341151675"><ele>81.25</ele><time>2026-05-02T16:26:27.999Z</time></trkpt><trkpt lat="44.44858531975686" lon="9.011989660403241"><ele>81.5</ele><time>2026-05-02T16:26:28.999Z</time></trkpt><trkpt lat="44.44855653430582" lon="9.011790758088665"><ele>81.75</ele><time>2026-05-02T16:26:29.999Z</time></trkpt><trkpt lat="44.448526837004174" lon="9.011602127811713"><ele>82.0</ele><time>2026-05-02T16:26:30.999Z</time></trkpt><trkpt lat="44.44849873585994" lon="9.011432502222652"><ele>81.39999999999999</ele><time>2026-05-02T16:26:31.999Z</time></trkpt><trkpt lat="44.44846989992538" lon="9.011286738939587"><ele>80.8</ele><time>2026-05-02T16:26:32.999Z</time></trkpt><trkpt lat="44.44844258648088" lon="9.011151411291868"><ele>80.2</ele><time>2026-05-02T16:26:33.999Z</time></trkpt><trkpt lat="44.4484184477355" lon="9.011027162743733"><ele>79.6</ele><time>2026-05-02T16:26:34.999Z</time></trkpt><trkpt lat="44.44839584314426" lon="9.010916634637418"><ele>79.0</ele><time>2026-05-02T16:26:35.999Z</time></trkpt><trkpt lat="44.448369980920944" lon="9.010816084058188"><ele>79.0</ele><time>2026-05-02T16:26:36.999Z</time></trkpt><trkpt lat="44.44833840130462" lon="9.010708031406466"><ele>79.0</ele><time>2026-05-02T16:26:37.999Z</time></trkpt><trkpt lat="44.44831497789663" lon="9.010586783484618"><ele>79.0</ele><time>2026-05-02T16:26:38.999Z</time></trkpt><trkpt lat="44.448288495478934" lon="9.010461515016859"><ele>79.0</ele><time>2026-05-02T16:26:39.999Z</time></trkpt><trkpt lat="44.448264963164206" lon="9.010322345833913"><ele>79.0</ele><time>2026-05-02T16:26:40.999Z</time></trkpt><trkpt lat="44.448238799573836" lon="9.01017476704864"><ele>79.0</ele><time>2026-05-02T16:26:41.999Z</time></trkpt><trkpt lat="44.44820906301209" lon="9.010019379856665"><ele>79.0</ele><time>2026-05-02T16:26:42.999Z</time></trkpt><trkpt lat="44.44817132606916" lon="9.009855672713476"><ele>79.0</ele><time>2026-05-02T16:26:43.999Z</time></trkpt><trkpt lat="44.44813572391429" lon="9.009695947287627"><ele>79.0</ele><time>2026-05-02T16:26:44.999Z</time></trkpt><trkpt lat="44.44810303677354" lon="9.009547405666153"><ele>79.0</ele><time>2026-05-02T16:26:45.999Z</time></trkpt><trkpt lat="44.44806518335483" lon="9.009394672666025"><ele>79.0</ele><time>2026-05-02T16:26:46.999Z</time></trkpt><trkpt lat="44.44802384679773" lon="9.009230000476546"><ele>79.0</ele><time>2026-05-02T16:26:47.999Z</time></trkpt><trkpt lat="44.447984078926055" lon="9.00906921076627"><ele>79.0</ele><time>2026-05-02T16:26:48.999Z</time></trkpt><trkpt lat="44.44794194392299" lon="9.00891022428977"><ele>78.75</ele><time>2026-05-02T16:26:49.999Z</time></trkpt><trkpt lat="44.447898683848756" lon="9.008755925104733"><ele>78.5</ele><time>2026-05-02T16:26:50.999Z</time></trkpt><trkpt lat="44.447854764819375" lon="9.008601581698406"><ele>78.25</ele><time>2026-05-02T16:26:52Z</time></trkpt><trkpt lat="44.447809660233524" lon="9.008445439938207"><ele>78.0</ele><time>2026-05-02T16:26:53Z</time></trkpt><trkpt lat="44.44776300838668" lon="9.008290839965486"><ele>78.0</ele><time>2026-05-02T16:26:54Z</time></trkpt><trkpt lat="44.44771595484116" lon="9.008141580624326"><ele>78.0</ele><time>2026-05-02T16:26:55Z</time></trkpt><trkpt lat="44.44766999305556" lon="9.00799700292359"><ele>78.0</ele><time>2026-05-02T16:26:56Z</time></trkpt><trkpt lat="44.44762826951197" lon="9.007866962176962"><ele>78.0</ele><time>2026-05-02T16:26:57Z</time></trkpt><trkpt lat="44.44758768143953" lon="9.007746085352052"><ele>78.0</ele><time>2026-05-02T16:26:58Z</time></trkpt><trkpt lat="44.44754930052596" lon="9.007640049111979"><ele>78.0</ele><time>2026-05-02T16:26:59Z</time></trkpt><trkpt lat="44.44751378651951" lon="9.007538058010907"><ele>78.0</ele><time>2026-05-02T16:27:00Z</time></trkpt><trkpt lat="44.447482881305774" lon="9.007448405513113"><ele>78.0</ele><time>2026-05-02T16:27:01Z</time></trkpt><trkpt lat="44.44744420034937" lon="9.007331596013762"><ele>78.0</ele><time>2026-05-02T16:27:03Z</time></trkpt><trkpt lat="44.44741132863486" lon="9.007230562325644"><ele>78.0</ele><time>2026-05-02T16:27:05Z</time></trkpt><trkpt lat="44.44735968744037" lon="9.007070099156094"><ele>78.0</ele><time>2026-05-02T16:27:35Z</time></trkpt><trkpt lat="44.44732287240188" lon="9.006955611507957"><ele>77.75</ele><time>2026-05-02T16:27:36Z</time></trkpt><trkpt lat="44.44728437795043" lon="9.006837007205945"><ele>77.5</ele><time>2026-05-02T16:27:37Z</time></trkpt><trkpt lat="44.4472309333781" lon="9.006669017605176"><ele>77.25</ele><time>2026-05-02T16:27:38Z</time></trkpt><trkpt lat="44.447169900871465" lon="9.00647344077887"><ele>77.0</ele><time>2026-05-02T16:27:38.999Z</time></trkpt><trkpt lat="44.44710531582147" lon="9.006251302609945"><ele>82.33333333333334</ele><time>2026-05-02T16:27:39.999Z</time></trkpt><trkpt lat="44.44704674089089" lon="9.006011954597408"><ele>87.66666666666667</ele><time>2026-05-02T16:27:40.999Z</time></trkpt><trkpt lat="44.44700036628319" lon="9.005774059826912"><ele>93.0</ele><time>2026-05-02T16:27:41.999Z</time></trkpt><trkpt lat="44.44696371414979" lon="9.005551908747679"><ele>93.0</ele><time>2026-05-02T16:27:42.999Z</time></trkpt><trkpt lat="44.446930387371744" lon="9.005324588611339"><ele>93.0</ele><time>2026-05-02T16:27:43.999Z</time></trkpt><trkpt lat="44.44690079658421" lon="9.005111665444122"><ele>93.0</ele><time>2026-05-02T16:27:44.999Z</time></trkpt><trkpt lat="44.446874781093385" lon="9.004903281919638"><ele>92.66666666666667</ele><time>2026-05-02T16:27:45.999Z</time></trkpt><trkpt lat="44.446845080725346" lon="9.004695968675973"><ele>92.33333333333334</ele><time>2026-05-02T16:27:46.999Z</time></trkpt><trkpt lat="44.446825685908486" lon="9.004485850979231"><ele>92.0</ele><time>2026-05-02T16:27:47.999Z</time></trkpt><trkpt lat="44.44681659649999" lon="9.004275831758132"><ele>91.0</ele><time>2026-05-02T16:27:48.999Z</time></trkpt><trkpt lat="44.446810624382" lon="9.00406948343808"><ele>90.0</ele><time>2026-05-02T16:27:49.999Z</time></trkpt><trkpt lat="44.446813226351225" lon="9.003866779703506"><ele>89.0</ele><time>2026-05-02T16:27:50.999Z</time></trkpt><trkpt lat="44.44682285705322" lon="9.003669007183007"><ele>88.0</ele><time>2026-05-02T16:27:51.999Z</time></trkpt><trkpt lat="44.44683785895048" lon="9.003475598690265"><ele>86.0</ele><time>2026-05-02T16:27:52.999Z</time></trkpt><trkpt lat="44.44685822597495" lon="9.003282396086277"><ele>84.0</ele><time>2026-05-02T16:27:53.999Z</time></trkpt><trkpt lat="44.44688299661204" lon="9.003085083707884"><ele>82.0</ele><time>2026-05-02T16:27:54.999Z</time></trkpt><trkpt lat="44.44690857858641" lon="9.002888921705805"><ele>80.0</ele><time>2026-05-02T16:27:55.999Z</time></trkpt><trkpt lat="44.44693539325713" lon="9.002695571409912"><ele>80.0</ele><time>2026-05-02T16:27:56.999Z</time></trkpt><trkpt lat="44.44695144835351" lon="9.002500471150082"><ele>80.0</ele><time>2026-05-02T16:27:57.999Z</time></trkpt><trkpt lat="44.44697082768592" lon="9.002305567805692"><ele>80.0</ele><time>2026-05-02T16:27:58.999Z</time></trkpt><trkpt lat="44.4469937608831" lon="9.002127664460716"><ele>80.0</ele><time>2026-05-02T16:27:59.999Z</time></trkpt><trkpt lat="44.447010922891025" lon="9.001967756779669"><ele>79.6</ele><time>2026-05-02T16:28:00.999Z</time></trkpt><trkpt lat="44.447028688104375" lon="9.001822812467587"><ele>79.2</ele><time>2026-05-02T16:28:01.999Z</time></trkpt><trkpt lat="44.44704746824305" lon="9.00168821812152"><ele>78.8</ele><time>2026-05-02T16:28:02.999Z</time></trkpt><trkpt lat="44.44706548968796" lon="9.0015670205811"><ele>78.4</ele><time>2026-05-02T16:28:03.999Z</time></trkpt><trkpt lat="44.447081065094814" lon="9.001452287623579"><ele>78.0</ele><time>2026-05-02T16:28:04.999Z</time></trkpt><trkpt lat="44.44709738916975" lon="9.001325694079483"><ele>78.0</ele><time>2026-05-02T16:28:05.999Z</time></trkpt><trkpt lat="44.44711361850292" lon="9.00118656898462"><ele>78.0</ele><time>2026-05-02T16:28:06.999Z</time></trkpt><trkpt lat="44.44714169698019" lon="9.001041154551531"><ele>78.0</ele><time>2026-05-02T16:28:07.999Z</time></trkpt><trkpt lat="44.4471791011016" lon="9.000904409085912"><ele>78.0</ele><time>2026-05-02T16:28:08.999Z</time></trkpt><trkpt lat="44.44721714661294" lon="9.000760613578809"><ele>78.0</ele><time>2026-05-02T16:28:09.999Z</time></trkpt><trkpt lat="44.447265437033536" lon="9.000583416063211"><ele>77.0</ele><time>2026-05-02T16:28:10.999Z</time></trkpt><trkpt lat="44.44731706119335" lon="9.00039554299359"><ele>76.0</ele><time>2026-05-02T16:28:11.999Z</time></trkpt><trkpt lat="44.44736869180502" lon="9.000204624428351"><ele>75.0</ele><time>2026-05-02T16:28:12.999Z</time></trkpt><trkpt lat="44.4474086556626" lon="9.000049622678278"><ele>74.0</ele><time>2026-05-02T16:28:13.999Z</time></trkpt><trkpt lat="44.44744678440877" lon="8.99990426936547"><ele>74.0</ele><time>2026-05-02T16:28:14.999Z</time></trkpt><trkpt lat="44.44749378641724" lon="8.999729059977732"><ele>74.0</ele><time>2026-05-02T16:28:15.999Z</time></trkpt><trkpt lat="44.44754444071809" lon="8.99953939100831"><ele>74.0</ele><time>2026-05-02T16:28:16.999Z</time></trkpt><trkpt lat="44.447618865018036" lon="8.99926536193733"><ele>74.66666666666667</ele><time>2026-05-02T16:28:17.999Z</time></trkpt><trkpt lat="44.447688526830646" lon="8.998999509844067"><ele>75.33333333333333</ele><time>2026-05-02T16:28:18.999Z</time></trkpt><trkpt lat="44.44774687099713" lon="8.998761804788387"><ele>76.0</ele><time>2026-05-02T16:28:19.999Z</time></trkpt><trkpt lat="44.447811900531526" lon="8.998535918942034"><ele>76.0</ele><time>2026-05-02T16:28:20.999Z</time></trkpt><trkpt lat="44.447876600130904" lon="8.998334869557008"><ele>76.0</ele><time>2026-05-02T16:28:21.999Z</time></trkpt><trkpt lat="44.447931612295676" lon="8.998147285028034"><ele>76.0</ele><time>2026-05-02T16:28:22.999Z</time></trkpt><trkpt lat="44.447979691049454" lon="8.997972031897227"><ele>76.0</ele><time>2026-05-02T16:28:23.999Z</time></trkpt><trkpt lat="44.4480231782221" lon="8.99780506000274"><ele>74.25</ele><time>2026-05-02T16:28:24.999Z</time></trkpt><trkpt lat="44.44804964802538" lon="8.997637931090708"><ele>72.5</ele><time>2026-05-02T16:28:25.999Z</time></trkpt><trkpt lat="44.44810755044818" lon="8.997482683979918"><ele>70.75</ele><time>2026-05-02T16:28:26.999Z</time></trkpt><trkpt lat="44.448151908780076" lon="8.997304231137477"><ele>69.0</ele><time>2026-05-02T16:28:27.999Z</time></trkpt><trkpt lat="44.448199822622314" lon="8.997120917985988"><ele>69.0</ele><time>2026-05-02T16:28:28.999Z</time></trkpt><trkpt lat="44.448244377078225" lon="8.996939055466717"><ele>69.0</ele><time>2026-05-02T16:28:29.999Z</time></trkpt><trkpt lat="44.44828918920367" lon="8.99676643082047"><ele>69.0</ele><time>2026-05-02T16:28:30.999Z</time></trkpt><trkpt lat="44.44833562136974" lon="8.996585209087906"><ele>69.0</ele><time>2026-05-02T16:28:31.999Z</time></trkpt><trkpt lat="44.44838589210584" lon="8.996399910098788"><ele>68.75</ele><time>2026-05-02T16:28:32.999Z</time></trkpt><trkpt lat="44.4484357908486" lon="8.996220485028413"><ele>68.5</ele><time>2026-05-02T16:28:33.999Z</time></trkpt><trkpt lat="44.448483548479565" lon="8.996032057348467"><ele>68.25</ele><time>2026-05-02T16:28:34.999Z</time></trkpt><trkpt lat="44.44853057134356" lon="8.995848742312706"><ele>68.0</ele><time>2026-05-02T16:28:35.999Z</time></trkpt><trkpt lat="44.44857714453011" lon="8.995666249158665"><ele>68.0</ele><time>2026-05-02T16:28:36.999Z</time></trkpt><trkpt lat="44.448625445487664" lon="8.995483622290106"><ele>68.0</ele><time>2026-05-02T16:28:37.999Z</time></trkpt><trkpt lat="44.448671751140644" lon="8.995302770796306"><ele>68.0</ele><time>2026-05-02T16:28:38.999Z</time></trkpt><trkpt lat="44.448717756093565" lon="8.995117601072998"><ele>68.0</ele><time>2026-05-02T16:28:39.999Z</time></trkpt><trkpt lat="44.44876640698131" lon="8.994934165488795"><ele>68.5</ele><time>2026-05-02T16:28:40.999Z</time></trkpt><trkpt lat="44.448816425883486" lon="8.994752425400774"><ele>69.0</ele><time>2026-05-02T16:28:41.999Z</time></trkpt><trkpt lat="44.44886463483124" lon="8.99456871039445"><ele>69.5</ele><time>2026-05-02T16:28:42.999Z</time></trkpt><trkpt lat="44.4489121629329" lon="8.994386530559225"><ele>70.0</ele><time>2026-05-02T16:28:43.999Z</time></trkpt><trkpt lat="44.448958551158455" lon="8.99419997548494"><ele>69.5</ele><time>2026-05-02T16:28:44.999Z</time></trkpt><trkpt lat="44.44900770307931" lon="8.994016808240735"><ele>69.0</ele><time>2026-05-02T16:28:45.999Z</time></trkpt><trkpt lat="44.44905874130924" lon="8.993836500922136"><ele>68.5</ele><time>2026-05-02T16:28:46.999Z</time></trkpt><trkpt lat="44.449115977776586" lon="8.993662141713134"><ele>68.0</ele><time>2026-05-02T16:28:47.999Z</time></trkpt><trkpt lat="44.44917319000045" lon="8.993514172625742"><ele>68.0</ele><time>2026-05-02T16:28:48.999Z</time></trkpt><trkpt lat="44.44922703683844" lon="8.993377394129503"><ele>68.0</ele><time>2026-05-02T16:28:49.999Z</time></trkpt><trkpt lat="44.449280326040245" lon="8.993248121749318"><ele>68.0</ele><time>2026-05-02T16:28:50.999Z</time></trkpt><trkpt lat="44.449335486848774" lon="8.993125601388066"><ele>68.0</ele><time>2026-05-02T16:28:51.999Z</time></trkpt><trkpt lat="44.44939545070454" lon="8.993008879155857"><ele>68.0</ele><time>2026-05-02T16:28:52.999Z</time></trkpt><trkpt lat="44.44946231191613" lon="8.992885780030127"><ele>68.25</ele><time>2026-05-02T16:28:53.999Z</time></trkpt><trkpt lat="44.44953290631152" lon="8.992761864248179"><ele>68.5</ele><time>2026-05-02T16:28:54.999Z</time></trkpt><trkpt lat="44.4496035019134" lon="8.992641465727155"><ele>68.75</ele><time>2026-05-02T16:28:55.999Z</time></trkpt><trkpt lat="44.449672042236216" lon="8.992517838532532"><ele>69.0</ele><time>2026-05-02T16:28:56.999Z</time></trkpt><trkpt lat="44.44974396099299" lon="8.992380525321478"><ele>68.0</ele><time>2026-05-02T16:28:58Z</time></trkpt><trkpt lat="44.44982329275882" lon="8.992242453123765"><ele>67.0</ele><time>2026-05-02T16:28:59Z</time></trkpt><trkpt lat="44.44990542830345" lon="8.992107365096894"><ele>66.0</ele><time>2026-05-02T16:29:00Z</time></trkpt><trkpt lat="44.44999148063519" lon="8.991979389895869"><ele>65.0</ele><time>2026-05-02T16:29:01Z</time></trkpt><trkpt lat="44.450088259855534" lon="8.991862545821393"><ele>65.0</ele><time>2026-05-02T16:29:02Z</time></trkpt><trkpt lat="44.4501974356523" lon="8.991770412765918"><ele>65.0</ele><time>2026-05-02T16:29:03Z</time></trkpt><trkpt lat="44.450303874860126" lon="8.991687785379371"><ele>65.0</ele><time>2026-05-02T16:29:04Z</time></trkpt><trkpt lat="44.45042026894045" lon="8.99161864181125"><ele>65.0</ele><time>2026-05-02T16:29:05Z</time></trkpt><trkpt lat="44.450530891567205" lon="8.991547605606069"><ele>67.0</ele><time>2026-05-02T16:29:06Z</time></trkpt><trkpt lat="44.450657843192076" lon="8.991512063969509"><ele>69.0</ele><time>2026-05-02T16:29:07Z</time></trkpt><trkpt lat="44.45078464269991" lon="8.991487230710849"><ele>71.0</ele><time>2026-05-02T16:29:08Z</time></trkpt><trkpt lat="44.45090810161231" lon="8.991471690839834"><ele>73.0</ele><time>2026-05-02T16:29:09Z</time></trkpt><trkpt lat="44.451024140826775" lon="8.991486683147626"><ele>73.0</ele><time>2026-05-02T16:29:10Z</time></trkpt><trkpt lat="44.451143809709514" lon="8.991515783592217"><ele>73.0</ele><time>2026-05-02T16:29:11Z</time></trkpt><trkpt lat="44.451262039222094" lon="8.991544694951692"><ele>73.0</ele><time>2026-05-02T16:29:12Z</time></trkpt><trkpt lat="44.451384093452006" lon="8.991575584256868"><ele>73.0</ele><time>2026-05-02T16:29:13Z</time></trkpt><trkpt lat="44.45151233282762" lon="8.99159969856931"><ele>71.5</ele><time>2026-05-02T16:29:14Z</time></trkpt><trkpt lat="44.45163503864681" lon="8.9915966689346"><ele>70.0</ele><time>2026-05-02T16:29:15Z</time></trkpt><trkpt lat="44.45175114150952" lon="8.991559647376395"><ele>68.5</ele><time>2026-05-02T16:29:16Z</time></trkpt><trkpt lat="44.45186782926204" lon="8.991484246361386"><ele>67.0</ele><time>2026-05-02T16:29:17Z</time></trkpt><trkpt lat="44.45197619917435" lon="8.991386276587122"><ele>67.0</ele><time>2026-05-02T16:29:18Z</time></trkpt><trkpt lat="44.45208466668075" lon="8.9912788705334"><ele>67.0</ele><time>2026-05-02T16:29:19Z</time></trkpt><trkpt lat="44.45218732681272" lon="8.991142366833566"><ele>67.0</ele><time>2026-05-02T16:29:20Z</time></trkpt><trkpt lat="44.45228740994364" lon="8.99099419436043"><ele>67.0</ele><time>2026-05-02T16:29:21Z</time></trkpt><trkpt lat="44.45238047619386" lon="8.990859542738987"><ele>66.25</ele><time>2026-05-02T16:29:22Z</time></trkpt><trkpt lat="44.45248493380284" lon="8.990710871906213"><ele>65.5</ele><time>2026-05-02T16:29:23Z</time></trkpt><trkpt lat="44.45257771561616" lon="8.990558421344627"><ele>64.75</ele><time>2026-05-02T16:29:24Z</time></trkpt><trkpt lat="44.45266308122082" lon="8.990398704481239"><ele>64.0</ele><time>2026-05-02T16:29:25Z</time></trkpt><trkpt lat="44.452749416118934" lon="8.990233130949537"><ele>64.0</ele><time>2026-05-02T16:29:26Z</time></trkpt><trkpt lat="44.4528227733254" lon="8.99005835374415"><ele>64.0</ele><time>2026-05-02T16:29:27Z</time></trkpt><trkpt lat="44.45289182961221" lon="8.989880274447286"><ele>64.0</ele><time>2026-05-02T16:29:28Z</time></trkpt><trkpt lat="44.4529512306403" lon="8.989689673904216"><ele>64.0</ele><time>2026-05-02T16:29:29Z</time></trkpt><trkpt lat="44.45301975909055" lon="8.989507554172704"><ele>63.0</ele><time>2026-05-02T16:29:30Z</time></trkpt><trkpt lat="44.45307737380963" lon="8.989318356770186"><ele>62.0</ele><time>2026-05-02T16:29:31Z</time></trkpt><trkpt lat="44.45312561067425" lon="8.989128014145276"><ele>61.0</ele><time>2026-05-02T16:29:32Z</time></trkpt><trkpt lat="44.45317599544013" lon="8.988922211937906"><ele>60.0</ele><time>2026-05-02T16:29:33Z</time></trkpt><trkpt lat="44.453235525077254" lon="8.988723420004357"><ele>60.0</ele><time>2026-05-02T16:29:34Z</time></trkpt><trkpt lat="44.453288339525635" lon="8.988522801896082"><ele>60.0</ele><time>2026-05-02T16:29:35Z</time></trkpt><trkpt lat="44.453334119638875" lon="8.98832715395063"><ele>60.0</ele><time>2026-05-02T16:29:36Z</time></trkpt><trkpt lat="44.45338580292755" lon="8.98813595659374"><ele>60.0</ele><time>2026-05-02T16:29:37Z</time></trkpt><trkpt lat="44.45343767746031" lon="8.987957063215468"><ele>59.75</ele><time>2026-05-02T16:29:38Z</time></trkpt><trkpt lat="44.453487360144095" lon="8.987766481987562"><ele>59.5</ele><time>2026-05-02T16:29:38.999Z</time></trkpt><trkpt lat="44.453531765127316" lon="8.987571510247697"><ele>59.25</ele><time>2026-05-02T16:29:39.999Z</time></trkpt><trkpt lat="44.45357668469635" lon="8.987387287578276"><ele>59.0</ele><time>2026-05-02T16:29:40.999Z</time></trkpt><trkpt lat="44.45362859233693" lon="8.987204172249728"><ele>62.5</ele><time>2026-05-02T16:29:41.999Z</time></trkpt><trkpt lat="44.453667870060904" lon="8.987020407484797"><ele>66.0</ele><time>2026-05-02T16:29:42.999Z</time></trkpt><trkpt lat="44.45370592595056" lon="8.986844657986197"><ele>69.5</ele><time>2026-05-02T16:29:43.999Z</time></trkpt><trkpt lat="44.453744196358954" lon="8.986680220502222"><ele>73.0</ele><time>2026-05-02T16:29:44.999Z</time></trkpt><trkpt lat="44.45377544747354" lon="8.986506733707863"><ele>69.0</ele><time>2026-05-02T16:29:45.999Z</time></trkpt><trkpt lat="44.45380688903306" lon="8.986319612272268"><ele>65.0</ele><time>2026-05-02T16:29:46.999Z</time></trkpt><trkpt lat="44.45383919947881" lon="8.986120144924229"><ele>61.0</ele><time>2026-05-02T16:29:47.999Z</time></trkpt><trkpt lat="44.453866467827304" lon="8.98592023081204"><ele>57.0</ele><time>2026-05-02T16:29:48.999Z</time></trkpt><trkpt lat="44.45389299295298" lon="8.98571898581797"><ele>56.75</ele><time>2026-05-02T16:29:49.999Z</time></trkpt><trkpt lat="44.453899093907346" lon="8.985519772706153"><ele>56.5</ele><time>2026-05-02T16:29:50.999Z</time></trkpt><trkpt lat="44.453901049038876" lon="8.985318959045488"><ele>56.25</ele><time>2026-05-02T16:29:51.999Z</time></trkpt><trkpt lat="44.45390070667584" lon="8.985124253256604"><ele>56.0</ele><time>2026-05-02T16:29:52.999Z</time></trkpt><trkpt lat="44.45389340579064" lon="8.984934474494558"><ele>56.0</ele><time>2026-05-02T16:29:53.999Z</time></trkpt><trkpt lat="44.4538847210775" lon="8.984741586548832"><ele>56.0</ele><time>2026-05-02T16:29:54.999Z</time></trkpt><trkpt lat="44.453873531617795" lon="8.984532511309219"><ele>56.0</ele><time>2026-05-02T16:29:55.999Z</time></trkpt><trkpt lat="44.45383986959124" lon="8.984322679043212"><ele>56.0</ele><time>2026-05-02T16:29:56.999Z</time></trkpt><trkpt lat="44.453812783922096" lon="8.984135493732293"><ele>56.5</ele><time>2026-05-02T16:29:57.999Z</time></trkpt><trkpt lat="44.45377938172506" lon="8.983952010942627"><ele>57.0</ele><time>2026-05-02T16:29:58.999Z</time></trkpt><trkpt lat="44.453736555441075" lon="8.983769201697951"><ele>57.5</ele><time>2026-05-02T16:29:59.999Z</time></trkpt><trkpt lat="44.45369101549731" lon="8.983579094043215"><ele>58.0</ele><time>2026-05-02T16:30:00.999Z</time></trkpt><trkpt lat="44.453648922382754" lon="8.983382595874744"><ele>57.25</ele><time>2026-05-02T16:30:01.999Z</time></trkpt><trkpt lat="44.45360154305616" lon="8.98318749593141"><ele>56.5</ele><time>2026-05-02T16:30:02.999Z</time></trkpt><trkpt lat="44.453555560316644" lon="8.982993880468602"><ele>55.75</ele><time>2026-05-02T16:30:03.999Z</time></trkpt><trkpt lat="44.45350931871088" lon="8.982805198550032"><ele>55.0</ele><time>2026-05-02T16:30:04.999Z</time></trkpt><trkpt lat="44.45346831718117" lon="8.982633086480712"><ele>54.75</ele><time>2026-05-02T16:30:05.999Z</time></trkpt><trkpt lat="44.45342913790601" lon="8.982463709152503"><ele>54.5</ele><time>2026-05-02T16:30:06.999Z</time></trkpt><trkpt lat="44.45339007222913" lon="8.982297921596256"><ele>54.25</ele><time>2026-05-02T16:30:07.999Z</time></trkpt><trkpt lat="44.45335003860744" lon="8.982127685924297"><ele>54.0</ele><time>2026-05-02T16:30:08.999Z</time></trkpt><trkpt lat="44.453311992666386" lon="8.981963504523554"><ele>54.0</ele><time>2026-05-02T16:30:09.999Z</time></trkpt><trkpt lat="44.45327435936641" lon="8.981804472587665"><ele>54.0</ele><time>2026-05-02T16:30:10.999Z</time></trkpt><trkpt lat="44.45323556159704" lon="8.98164672716689"><ele>54.0</ele><time>2026-05-02T16:30:11.999Z</time></trkpt><trkpt lat="44.45320181914206" lon="8.981486659295838"><ele>54.0</ele><time>2026-05-02T16:30:12.999Z</time></trkpt><trkpt lat="44.45316428417183" lon="8.98132182859355"><ele>53.75</ele><time>2026-05-02T16:30:13.999Z</time></trkpt><trkpt lat="44.45311744879592" lon="8.981162130908377"><ele>53.5</ele><time>2026-05-02T16:30:14.999Z</time></trkpt><trkpt lat="44.45307422801442" lon="8.981000332980384"><ele>53.25</ele><time>2026-05-02T16:30:15.999Z</time></trkpt><trkpt lat="44.45303908528725" lon="8.980835033431545"><ele>53.0</ele><time>2026-05-02T16:30:16.999Z</time></trkpt><trkpt lat="44.453002505303" lon="8.980662994615958"><ele>53.0</ele><time>2026-05-02T16:30:17.999Z</time></trkpt><trkpt lat="44.45296028587238" lon="8.980491029453459"><ele>53.0</ele><time>2026-05-02T16:30:18.999Z</time></trkpt><trkpt lat="44.45291775511594" lon="8.980316317799707"><ele>53.0</ele><time>2026-05-02T16:30:19.999Z</time></trkpt><trkpt lat="44.45287549054601" lon="8.98013196217019"><ele>53.0</ele><time>2026-05-02T16:30:20.999Z</time></trkpt><trkpt lat="44.452829899047664" lon="8.97994596190574"><ele>56.5</ele><time>2026-05-02T16:30:21.999Z</time></trkpt><trkpt lat="44.45278294925825" lon="8.979761845072568"><ele>60.0</ele><time>2026-05-02T16:30:22.999Z</time></trkpt><trkpt lat="44.45273710495028" lon="8.979575623596089"><ele>63.5</ele><time>2026-05-02T16:30:23.999Z</time></trkpt><trkpt lat="44.452686858101416" lon="8.979382039036881"><ele>67.0</ele><time>2026-05-02T16:30:24.999Z</time></trkpt><trkpt lat="44.45263480661274" lon="8.979193665037219"><ele>66.75</ele><time>2026-05-02T16:30:25.999Z</time></trkpt><trkpt lat="44.45257788425574" lon="8.979006760477914"><ele>66.5</ele><time>2026-05-02T16:30:26.999Z</time></trkpt><trkpt lat="44.45251502414786" lon="8.978818495544013"><ele>66.25</ele><time>2026-05-02T16:30:27.999Z</time></trkpt><trkpt lat="44.45244920487239" lon="8.978628903729199"><ele>66.0</ele><time>2026-05-02T16:30:28.999Z</time></trkpt><trkpt lat="44.45238123759795" lon="8.978435729977704"><ele>64.66666666666667</ele><time>2026-05-02T16:30:29.999Z</time></trkpt><trkpt lat="44.45230894312775" lon="8.978243600799734"><ele>63.333333333333336</ele><time>2026-05-02T16:30:30.999Z</time></trkpt><trkpt lat="44.452231802923585" lon="8.978056288309414"><ele>62.0</ele><time>2026-05-02T16:30:31.999Z</time></trkpt><trkpt lat="44.45215226022272" lon="8.977868811384777"><ele>63.333333333333336</ele><time>2026-05-02T16:30:32.999Z</time></trkpt><trkpt lat="44.45207312477163" lon="8.977683968501351"><ele>64.66666666666667</ele><time>2026-05-02T16:30:33.999Z</time></trkpt><trkpt lat="44.45198782712974" lon="8.97750715312072"><ele>66.0</ele><time>2026-05-02T16:30:34.999Z</time></trkpt><trkpt lat="44.45190204360864" lon="8.977325757353654"><ele>66.0</ele><time>2026-05-02T16:30:35.999Z</time></trkpt><trkpt lat="44.451813479402205" lon="8.977145000710056"><ele>66.0</ele><time>2026-05-02T16:30:36.999Z</time></trkpt><trkpt lat="44.45172323376319" lon="8.976967369772556"><ele>66.0</ele><time>2026-05-02T16:30:37.999Z</time></trkpt><trkpt lat="44.45162996434291" lon="8.976795097601977"><ele>63.0</ele><time>2026-05-02T16:30:38.999Z</time></trkpt><trkpt lat="44.45153652386836" lon="8.976627837784484"><ele>60.0</ele><time>2026-05-02T16:30:39.999Z</time></trkpt><trkpt lat="44.45143873734759" lon="8.976457109830378"><ele>57.0</ele><time>2026-05-02T16:30:40.999Z</time></trkpt><trkpt lat="44.45134069868465" lon="8.976297366641585"><ele>55.0</ele><time>2026-05-02T16:30:41.999Z</time></trkpt><trkpt lat="44.45124224899586" lon="8.976136590281323"><ele>53.0</ele><time>2026-05-02T16:30:42.999Z</time></trkpt><trkpt lat="44.45114234253827" lon="8.975984191985381"><ele>51.0</ele><time>2026-05-02T16:30:43.999Z</time></trkpt><trkpt lat="44.45103907598901" lon="8.975833440449719"><ele>49.0</ele><time>2026-05-02T16:30:44.999Z</time></trkpt><trkpt lat="44.45093796355637" lon="8.975683831612592"><ele>49.0</ele><time>2026-05-02T16:30:45.999Z</time></trkpt><trkpt lat="44.45083634121802" lon="8.97553350860707"><ele>49.0</ele><time>2026-05-02T16:30:46.999Z</time></trkpt><trkpt lat="44.45072946862406" lon="8.975391700991295"><ele>49.0</ele><time>2026-05-02T16:30:47.999Z</time></trkpt><trkpt lat="44.45061869197114" lon="8.97525077211911"><ele>49.0</ele><time>2026-05-02T16:30:48.999Z</time></trkpt><trkpt lat="44.45050659197592" lon="8.975102027945375"><ele>52.0</ele><time>2026-05-02T16:30:49.999Z</time></trkpt><trkpt lat="44.45039529598474" lon="8.97495019038553"><ele>55.0</ele><time>2026-05-02T16:30:50.999Z</time></trkpt><trkpt lat="44.45028542163134" lon="8.974808374947106"><ele>58.0</ele><time>2026-05-02T16:30:51.999Z</time></trkpt><trkpt lat="44.45017155499884" lon="8.974666334118732"><ele>58.0</ele><time>2026-05-02T16:30:52.999Z</time></trkpt><trkpt lat="44.45006169468496" lon="8.974521737426972"><ele>58.0</ele><time>2026-05-02T16:30:53.999Z</time></trkpt><trkpt lat="44.44995358147552" lon="8.97437689038421"><ele>58.0</ele><time>2026-05-02T16:30:54.999Z</time></trkpt><trkpt lat="44.44984417407376" lon="8.974235649213547"><ele>58.0</ele><time>2026-05-02T16:30:55.999Z</time></trkpt><trkpt lat="44.4497434734886" lon="8.97410416057274"><ele>57.5</ele><time>2026-05-02T16:30:56.999Z</time></trkpt><trkpt lat="44.449637144891945" lon="8.973963436347798"><ele>57.0</ele><time>2026-05-02T16:30:57.999Z</time></trkpt><trkpt lat="44.44952796134929" lon="8.973817883844271"><ele>56.5</ele><time>2026-05-02T16:30:58.999Z</time></trkpt><trkpt lat="44.44941937509575" lon="8.97368211152459"><ele>56.0</ele><time>2026-05-02T16:30:59.999Z</time></trkpt><trkpt lat="44.44930808736011" lon="8.973545270369932"><ele>56.0</ele><time>2026-05-02T16:31:00.999Z</time></trkpt><trkpt lat="44.449199840964106" lon="8.973409623817465"><ele>56.0</ele><time>2026-05-02T16:31:01.999Z</time></trkpt><trkpt lat="44.44909317588458" lon="8.973274593705112"><ele>56.0</ele><time>2026-05-02T16:31:02.999Z</time></trkpt><trkpt lat="44.448985455370824" lon="8.97314824414124"><ele>56.0</ele><time>2026-05-02T16:31:04Z</time></trkpt><trkpt lat="44.44888279115831" lon="8.973022031520902"><ele>55.5</ele><time>2026-05-02T16:31:05Z</time></trkpt><trkpt lat="44.44878007976695" lon="8.972899893912079"><ele>55.0</ele><time>2026-05-02T16:31:06Z</time></trkpt><trkpt lat="44.4486902176556" lon="8.972788510736962"><ele>54.5</ele><time>2026-05-02T16:31:07Z</time></trkpt><trkpt lat="44.44860305466518" lon="8.972690691500569"><ele>54.0</ele><time>2026-05-02T16:31:08Z</time></trkpt><trkpt lat="44.4485317115593" lon="8.972607634137724"><ele>54.0</ele><time>2026-05-02T16:31:09Z</time></trkpt><trkpt lat="44.44847560158034" lon="8.972543490996502"><ele>54.0</ele><time>2026-05-02T16:31:10Z</time></trkpt><trkpt lat="44.448399367688275" lon="8.972452074624394"><ele>54.0</ele><time>2026-05-02T16:31:12Z</time></trkpt><trkpt lat="44.448344851468974" lon="8.972386707492472"><ele>54.0</ele><time>2026-05-02T16:31:14Z</time></trkpt><trkpt lat="44.44829849399344" lon="8.972292279310187"><ele>54.0</ele><time>2026-05-02T16:31:31Z</time></trkpt><trkpt lat="44.448221081671235" lon="8.972199130180577"><ele>54.0</ele><time>2026-05-02T16:31:35Z</time></trkpt><trkpt lat="44.448133687937656" lon="8.972103366432068"><ele>52.6</ele><time>2026-05-02T16:31:36Z</time></trkpt><trkpt lat="44.44805703954514" lon="8.972007354029286"><ele>51.2</ele><time>2026-05-02T16:31:37Z</time></trkpt><trkpt lat="44.44799324557793" lon="8.97192771954152"><ele>49.800000000000004</ele><time>2026-05-02T16:31:38Z</time></trkpt><trkpt lat="44.447935505752646" lon="8.971858829489866"><ele>48.400000000000006</ele><time>2026-05-02T16:31:39Z</time></trkpt><trkpt lat="44.44785145804166" lon="8.971766066445694"><ele>47.0</ele><time>2026-05-02T16:31:40Z</time></trkpt><trkpt lat="44.44776697001409" lon="8.971665146498447"><ele>47.0</ele><time>2026-05-02T16:31:41Z</time></trkpt><trkpt lat="44.44768685927442" lon="8.971573697153472"><ele>47.0</ele><time>2026-05-02T16:31:42Z</time></trkpt><trkpt lat="44.44759974633091" lon="8.971478900312018"><ele>47.0</ele><time>2026-05-02T16:31:43Z</time></trkpt><trkpt lat="44.44752806579132" lon="8.97139309855683"><ele>47.0</ele><time>2026-05-02T16:31:43.999Z</time></trkpt><trkpt lat="44.44746500189315" lon="8.971317424588918"><ele>47.0</ele><time>2026-05-02T16:31:44.999Z</time></trkpt><trkpt lat="44.447400553558694" lon="8.971241554074048"><ele>47.0</ele><time>2026-05-02T16:31:45.999Z</time></trkpt><trkpt lat="44.447331729851626" lon="8.971159747494275"><ele>47.0</ele><time>2026-05-02T16:31:46.999Z</time></trkpt><trkpt lat="44.447264458058754" lon="8.97107802530471"><ele>47.0</ele><time>2026-05-02T16:31:47.999Z</time></trkpt><trkpt lat="44.44719521351199" lon="8.970993853276577"><ele>47.0</ele><time>2026-05-02T16:31:48.999Z</time></trkpt><trkpt lat="44.4471210303015" lon="8.970906586771523"><ele>47.0</ele><time>2026-05-02T16:31:49.999Z</time></trkpt><trkpt lat="44.447044076175395" lon="8.970811707407483"><ele>46.6</ele><time>2026-05-02T16:31:50.999Z</time></trkpt><trkpt lat="44.44697068282973" lon="8.97071594653369"><ele>46.2</ele><time>2026-05-02T16:31:51.999Z</time></trkpt><trkpt lat="44.44689905801394" lon="8.970621439031337"><ele>45.8</ele><time>2026-05-02T16:31:52.999Z</time></trkpt><trkpt lat="44.4468276211414" lon="8.970531526126043"><ele>45.4</ele><time>2026-05-02T16:31:53.999Z</time></trkpt><trkpt lat="44.44673788679066" lon="8.970421105886496"><ele>45.0</ele><time>2026-05-02T16:31:54.999Z</time></trkpt><trkpt lat="44.446641853974896" lon="8.970289116616243"><ele>45.0</ele><time>2026-05-02T16:31:55.999Z</time></trkpt><trkpt lat="44.4465645559664" lon="8.970191524250275"><ele>45.0</ele><time>2026-05-02T16:31:56.999Z</time></trkpt><trkpt lat="44.446499708325774" lon="8.97011129339885"><ele>45.0</ele><time>2026-05-02T16:31:57.999Z</time></trkpt><trkpt lat="44.44644398612007" lon="8.970039872453487"><ele>45.0</ele><time>2026-05-02T16:31:58.999Z</time></trkpt><trkpt lat="44.44638156148895" lon="8.969957791428719"><ele>45.0</ele><time>2026-05-02T16:31:59.999Z</time></trkpt><trkpt lat="44.446310142280076" lon="8.969865530176124"><ele>45.0</ele><time>2026-05-02T16:32:00.999Z</time></trkpt><trkpt lat="44.446232583427864" lon="8.969762087008494"><ele>45.0</ele><time>2026-05-02T16:32:01.999Z</time></trkpt><trkpt lat="44.44616180417195" lon="8.96966202187715"><ele>45.0</ele><time>2026-05-02T16:32:02.999Z</time></trkpt><trkpt lat="44.446096093528396" lon="8.96957233397464"><ele>45.0</ele><time>2026-05-02T16:32:03.999Z</time></trkpt><trkpt lat="44.44602676454307" lon="8.969485099375738"><ele>45.0</ele><time>2026-05-02T16:32:04.999Z</time></trkpt><trkpt lat="44.44595413961188" lon="8.969393168682311"><ele>45.0</ele><time>2026-05-02T16:32:05.999Z</time></trkpt><trkpt lat="44.44587328465248" lon="8.969284190238579"><ele>44.5</ele><time>2026-05-02T16:32:06.999Z</time></trkpt><trkpt lat="44.44578729203797" lon="8.969170780480548"><ele>44.0</ele><time>2026-05-02T16:32:07.999Z</time></trkpt><trkpt lat="44.44568387272027" lon="8.969022359387694"><ele>43.5</ele><time>2026-05-02T16:32:08.999Z</time></trkpt><trkpt lat="44.44558326702393" lon="8.968879778236913"><ele>43.0</ele><time>2026-05-02T16:32:09.999Z</time></trkpt><trkpt lat="44.445482028445745" lon="8.968743716734055"><ele>43.0</ele><time>2026-05-02T16:32:10.999Z</time></trkpt><trkpt lat="44.4453634620395" lon="8.968590057232305"><ele>43.0</ele><time>2026-05-02T16:32:11.999Z</time></trkpt><trkpt lat="44.445225164104976" lon="8.968421299980308"><ele>43.0</ele><time>2026-05-02T16:32:12.999Z</time></trkpt><trkpt lat="44.44510349002804" lon="8.968266558354559"><ele>43.0</ele><time>2026-05-02T16:32:13.999Z</time></trkpt><trkpt lat="44.444997848099995" lon="8.96812452830636"><ele>43.0</ele><time>2026-05-02T16:32:14.999Z</time></trkpt><trkpt lat="44.444890493647655" lon="8.967987529191886"><ele>43.0</ele><time>2026-05-02T16:32:15.999Z</time></trkpt><trkpt lat="44.44478279185805" lon="8.967851485363154"><ele>43.0</ele><time>2026-05-02T16:32:16.999Z</time></trkpt><trkpt lat="44.44467483592799" lon="8.967712561146353"><ele>42.75</ele><time>2026-05-02T16:32:17.999Z</time></trkpt><trkpt lat="44.44456860166846" lon="8.967572885193828"><ele>42.5</ele><time>2026-05-02T16:32:18.999Z</time></trkpt><trkpt lat="44.444463391459365" lon="8.967434530623542"><ele>42.25</ele><time>2026-05-02T16:32:19.999Z</time></trkpt><trkpt lat="44.444359406777956" lon="8.967295655541388"><ele>42.0</ele><time>2026-05-02T16:32:20.999Z</time></trkpt><trkpt lat="44.444255944613566" lon="8.967157702254044"><ele>42.0</ele><time>2026-05-02T16:32:21.999Z</time></trkpt><trkpt lat="44.44414389398463" lon="8.967019597415147"><ele>42.0</ele><time>2026-05-02T16:32:22.999Z</time></trkpt><trkpt lat="44.44402628155092" lon="8.966889673145227"><ele>42.0</ele><time>2026-05-02T16:32:23.999Z</time></trkpt><trkpt lat="44.44391132433261" lon="8.966762450775775"><ele>42.0</ele><time>2026-05-02T16:32:24.999Z</time></trkpt><trkpt lat="44.443791955793195" lon="8.966635253383492"><ele>42.0</ele><time>2026-05-02T16:32:25.999Z</time></trkpt><trkpt lat="44.443669454424146" lon="8.966513441110836"><ele>42.0</ele><time>2026-05-02T16:32:26.999Z</time></trkpt><trkpt lat="44.443550294475266" lon="8.96640298197851"><ele>42.0</ele><time>2026-05-02T16:32:27.999Z</time></trkpt><trkpt lat="44.4434295942772" lon="8.966297479723316"><ele>42.0</ele><time>2026-05-02T16:32:28.999Z</time></trkpt><trkpt lat="44.443309355349825" lon="8.966195754351222"><ele>42.0</ele><time>2026-05-02T16:32:29.999Z</time></trkpt><trkpt lat="44.44318697132117" lon="8.966090116541778"><ele>42.0</ele><time>2026-05-02T16:32:30.999Z</time></trkpt><trkpt lat="44.443067104497345" lon="8.965987262604285"><ele>42.0</ele><time>2026-05-02T16:32:31.999Z</time></trkpt><trkpt lat="44.44295048832308" lon="8.965892021540578"><ele>42.0</ele><time>2026-05-02T16:32:32.999Z</time></trkpt><trkpt lat="44.44283610694019" lon="8.965798653848818"><ele>41.75</ele><time>2026-05-02T16:32:33.999Z</time></trkpt><trkpt lat="44.4427233103304" lon="8.965705229462632"><ele>41.5</ele><time>2026-05-02T16:32:34.999Z</time></trkpt><trkpt lat="44.44261949688443" lon="8.965619865222717"><ele>41.25</ele><time>2026-05-02T16:32:35.999Z</time></trkpt><trkpt lat="44.442522824946465" lon="8.965539113262087"><ele>41.0</ele><time>2026-05-02T16:32:36.999Z</time></trkpt><trkpt lat="44.44243877353859" lon="8.965470456686681"><ele>41.0</ele><time>2026-05-02T16:32:37.999Z</time></trkpt><trkpt lat="44.442358969327515" lon="8.965409350698843"><ele>41.0</ele><time>2026-05-02T16:32:38.999Z</time></trkpt><trkpt lat="44.442289248375474" lon="8.965360413924168"><ele>41.0</ele><time>2026-05-02T16:32:39.999Z</time></trkpt><trkpt lat="44.44222852434769" lon="8.965319576237638"><ele>41.0</ele><time>2026-05-02T16:32:40.999Z</time></trkpt><trkpt lat="44.44211969198156" lon="8.965251634712628"><ele>41.0</ele><time>2026-05-02T16:32:42.999Z</time></trkpt><trkpt lat="44.44201001881219" lon="8.965189350363126"><ele>40.666666666666664</ele><time>2026-05-02T16:32:44.999Z</time></trkpt><trkpt lat="44.44194474796856" lon="8.965144105695083"><ele>40.33333333333333</ele><time>2026-05-02T16:32:45.999Z</time></trkpt><trkpt lat="44.4418766002122" lon="8.965092697606371"><ele>40.0</ele><time>2026-05-02T16:32:46.999Z</time></trkpt><trkpt lat="44.44181417021685" lon="8.965037699455388"><ele>39.666666666666664</ele><time>2026-05-02T16:32:47.999Z</time></trkpt><trkpt lat="44.44175914724407" lon="8.964987534596348"><ele>39.333333333333336</ele><time>2026-05-02T16:32:48.999Z</time></trkpt><trkpt lat="44.44167372293767" lon="8.964891520137696"><ele>39.0</ele><time>2026-05-02T16:32:50.999Z</time></trkpt><trkpt lat="44.441604261287516" lon="8.964836829736461"><ele>38.6</ele><time>2026-05-02T16:32:52.999Z</time></trkpt><trkpt lat="44.44153287735218" lon="8.96478098125716"><ele>38.2</ele><time>2026-05-02T16:32:55.999Z</time></trkpt><trkpt lat="44.44140347243354" lon="8.96472157239101"><ele>37.800000000000004</ele><time>2026-05-02T16:33:02.999Z</time></trkpt><trkpt lat="44.44131006549728" lon="8.964676442251895"><ele>37.4</ele><time>2026-05-02T16:33:03.999Z</time></trkpt><trkpt lat="44.44120756408859" lon="8.964618841868461"><ele>37.0</ele><time>2026-05-02T16:33:04.999Z</time></trkpt><trkpt lat="44.44109031947112" lon="8.964552046575312"><ele>38.0</ele><time>2026-05-02T16:33:05.999Z</time></trkpt><trkpt lat="44.44096930570379" lon="8.96448862625959"><ele>39.0</ele><time>2026-05-02T16:33:06.999Z</time></trkpt><trkpt lat="44.4408402837429" lon="8.964429493979866"><ele>40.0</ele><time>2026-05-02T16:33:07.999Z</time></trkpt><trkpt lat="44.440713452426984" lon="8.964376215688217"><ele>41.0</ele><time>2026-05-02T16:33:08.999Z</time></trkpt><trkpt lat="44.440599379209765" lon="8.96432942209014"><ele>41.0</ele><time>2026-05-02T16:33:10Z</time></trkpt><trkpt lat="44.44049839153054" lon="8.964287775145657"><ele>41.0</ele><time>2026-05-02T16:33:11Z</time></trkpt><trkpt lat="44.440408232817326" lon="8.964260562562318"><ele>41.0</ele><time>2026-05-02T16:33:12Z</time></trkpt><trkpt lat="44.44033409033268" lon="8.964210713471248"><ele>41.0</ele><time>2026-05-02T16:33:13Z</time></trkpt><trkpt lat="44.44026391002228" lon="8.964179175317764"><ele>41.0</ele><time>2026-05-02T16:33:14Z</time></trkpt><trkpt lat="44.44019967403953" lon="8.964151156705086"><ele>41.0</ele><time>2026-05-02T16:33:15Z</time></trkpt><trkpt lat="44.44013504010487" lon="8.964123911085002"><ele>40.5</ele><time>2026-05-02T16:33:17Z</time></trkpt><trkpt lat="44.44006412350024" lon="8.964097222684552"><ele>40.0</ele><time>2026-05-02T16:33:29Z</time></trkpt><trkpt lat="44.43999422710288" lon="8.96406956682283"><ele>39.5</ele><time>2026-05-02T16:33:31Z</time></trkpt><trkpt lat="44.43993231987458" lon="8.964044334248724"><ele>39.0</ele><time>2026-05-02T16:33:34Z</time></trkpt><trkpt lat="44.439867241414014" lon="8.96401763010745"><ele>38.5</ele><time>2026-05-02T16:33:46Z</time></trkpt><trkpt lat="44.43973809792379" lon="8.96396689080559"><ele>38.0</ele><time>2026-05-02T16:33:48Z</time></trkpt><trkpt lat="44.43966012620782" lon="8.963938103100329"><ele>37.8</ele><time>2026-05-02T16:33:48.999Z</time></trkpt><trkpt lat="44.43957717446905" lon="8.963909227742006"><ele>37.599999999999994</ele><time>2026-05-02T16:33:49.999Z</time></trkpt><trkpt lat="44.43949242885742" lon="8.963879623525331"><ele>37.400000000000006</ele><time>2026-05-02T16:33:50.999Z</time></trkpt><trkpt lat="44.43939610151471" lon="8.963869971073368"><ele>37.2</ele><time>2026-05-02T16:33:51.999Z</time></trkpt><trkpt lat="44.43930326679148" lon="8.96382789150076"><ele>37.0</ele><time>2026-05-02T16:33:52.999Z</time></trkpt><trkpt lat="44.43920962988284" lon="8.96378822162431"><ele>37.0</ele><time>2026-05-02T16:33:53.999Z</time></trkpt><trkpt lat="44.439110172382875" lon="8.96375260362996"><ele>37.0</ele><time>2026-05-02T16:33:54.999Z</time></trkpt><trkpt lat="44.43901003859984" lon="8.963722666566895"><ele>37.0</ele><time>2026-05-02T16:33:55.999Z</time></trkpt><trkpt lat="44.43890792367498" lon="8.963694924687482"><ele>37.0</ele><time>2026-05-02T16:33:56.999Z</time></trkpt><trkpt lat="44.438802655389914" lon="8.963666003856355"><ele>37.0</ele><time>2026-05-02T16:33:57.999Z</time></trkpt><trkpt lat="44.43869873562173" lon="8.963628657348597"><ele>37.2</ele><time>2026-05-02T16:33:58.999Z</time></trkpt><trkpt lat="44.438605112994594" lon="8.963589297592694"><ele>37.400000000000006</ele><time>2026-05-02T16:33:59.999Z</time></trkpt><trkpt lat="44.43852880570291" lon="8.96355350712837"><ele>37.599999999999994</ele><time>2026-05-02T16:34:00.999Z</time></trkpt><trkpt lat="44.43843063787412" lon="8.963507616326087"><ele>37.8</ele><time>2026-05-02T16:34:02.999Z</time></trkpt><trkpt lat="44.438351881338654" lon="8.963526071152083"><ele>38.0</ele><time>2026-05-02T16:35:11.999Z</time></trkpt><trkpt lat="44.438261473692236" lon="8.963539523534735"><ele>38.0</ele><time>2026-05-02T16:35:13.999Z</time></trkpt><trkpt lat="44.43814577121409" lon="8.963508246621048"><ele>38.0</ele><time>2026-05-02T16:35:15.999Z</time></trkpt><trkpt lat="44.43807943403044" lon="8.963493413294007"><ele>38.0</ele><time>2026-05-02T16:35:16.999Z</time></trkpt><trkpt lat="44.438006213665204" lon="8.963475853593438"><ele>38.0</ele><time>2026-05-02T16:35:17.999Z</time></trkpt><trkpt lat="44.43791996306309" lon="8.9634565976519"><ele>38.0</ele><time>2026-05-02T16:35:18.999Z</time></trkpt><trkpt lat="44.43783382778897" lon="8.963433831009624"><ele>38.0</ele><time>2026-05-02T16:35:19.999Z</time></trkpt><trkpt lat="44.43773735340168" lon="8.96341106597485"><ele>38.0</ele><time>2026-05-02T16:35:20.999Z</time></trkpt><trkpt lat="44.437595658382364" lon="8.963384476221622"><ele>38.0</ele><time>2026-05-02T16:35:21.999Z</time></trkpt><trkpt lat="44.43749069949469" lon="8.963357117091842"><ele>38.0</ele><time>2026-05-02T16:35:22.999Z</time></trkpt><trkpt lat="44.43740430211852" lon="8.963345647490252"><ele>38.0</ele><time>2026-05-02T16:35:23.999Z</time></trkpt><trkpt lat="44.437329067758704" lon="8.96333398240256"><ele>38.0</ele><time>2026-05-02T16:35:24.999Z</time></trkpt><trkpt lat="44.43725089128738" lon="8.963315240102634"><ele>37.25</ele><time>2026-05-02T16:35:25.999Z</time></trkpt><trkpt lat="44.43715074064498" lon="8.963293884714295"><ele>36.5</ele><time>2026-05-02T16:35:26.999Z</time></trkpt><trkpt lat="44.43702826527873" lon="8.963273720499862"><ele>35.75</ele><time>2026-05-02T16:35:27.999Z</time></trkpt><trkpt lat="44.436894450932506" lon="8.963251072843644"><ele>35.0</ele><time>2026-05-02T16:35:28.999Z</time></trkpt><trkpt lat="44.43671070130104" lon="8.963216643239555"><ele>35.0</ele><time>2026-05-02T16:35:29.999Z</time></trkpt><trkpt lat="44.43656540706925" lon="8.963191015662888"><ele>35.0</ele><time>2026-05-02T16:35:30.999Z</time></trkpt><trkpt lat="44.43643555438959" lon="8.963173514417415"><ele>35.0</ele><time>2026-05-02T16:35:31.999Z</time></trkpt><trkpt lat="44.436322165234174" lon="8.963155954559708"><ele>35.0</ele><time>2026-05-02T16:35:32.999Z</time></trkpt><trkpt lat="44.436221267323994" lon="8.963143680617886"><ele>34.6</ele><time>2026-05-02T16:35:33.999Z</time></trkpt><trkpt lat="44.4361258243362" lon="8.963140661403457"><ele>34.2</ele><time>2026-05-02T16:35:34.999Z</time></trkpt><trkpt lat="44.4360258065188" lon="8.963136260379281"><ele>33.8</ele><time>2026-05-02T16:35:35.999Z</time></trkpt><trkpt lat="44.435929433521125" lon="8.963117247018099"><ele>33.4</ele><time>2026-05-02T16:35:36.999Z</time></trkpt><trkpt lat="44.43583352948871" lon="8.9630735962359"><ele>33.0</ele><time>2026-05-02T16:35:37.999Z</time></trkpt><trkpt lat="44.435732978700415" lon="8.963021552827517"><ele>33.0</ele><time>2026-05-02T16:35:38.999Z</time></trkpt><trkpt lat="44.43561712411988" lon="8.962967175242067"><ele>33.0</ele><time>2026-05-02T16:35:39.999Z</time></trkpt><trkpt lat="44.43549892185144" lon="8.962914468304849"><ele>33.0</ele><time>2026-05-02T16:35:40.999Z</time></trkpt><trkpt lat="44.43537782670822" lon="8.962862127864208"><ele>33.0</ele><time>2026-05-02T16:35:41.999Z</time></trkpt><trkpt lat="44.43526168567752" lon="8.962814866533808"><ele>34.25</ele><time>2026-05-02T16:35:42.999Z</time></trkpt><trkpt lat="44.43514772023517" lon="8.962759574142222"><ele>35.5</ele><time>2026-05-02T16:35:43.999Z</time></trkpt><trkpt lat="44.43503270269996" lon="8.96269935905539"><ele>36.75</ele><time>2026-05-02T16:35:44.999Z</time></trkpt><trkpt lat="44.43491885604524" lon="8.962638732728108"><ele>38.0</ele><time>2026-05-02T16:35:45.999Z</time></trkpt><trkpt lat="44.434805157397214" lon="8.962580093975326"><ele>36.25</ele><time>2026-05-02T16:35:46.999Z</time></trkpt><trkpt lat="44.434692229911896" lon="8.96251259344642"><ele>34.5</ele><time>2026-05-02T16:35:47.999Z</time></trkpt><trkpt lat="44.43457995697083" lon="8.962441289676494"><ele>32.75</ele><time>2026-05-02T16:35:48.999Z</time></trkpt><trkpt lat="44.4344664300843" lon="8.96236712404068"><ele>31.0</ele><time>2026-05-02T16:35:49.999Z</time></trkpt><trkpt lat="44.43433551075057" lon="8.962288710016058"><ele>31.0</ele><time>2026-05-02T16:35:50.999Z</time></trkpt><trkpt lat="44.43419954617939" lon="8.962200778958694"><ele>31.0</ele><time>2026-05-02T16:35:51.999Z</time></trkpt><trkpt lat="44.43405870859636" lon="8.962100086098685"><ele>31.0</ele><time>2026-05-02T16:35:52.999Z</time></trkpt><trkpt lat="44.433917935594" lon="8.961995930726118"><ele>31.0</ele><time>2026-05-02T16:35:53.999Z</time></trkpt><trkpt lat="44.43378070180718" lon="8.96188942703378"><ele>31.0</ele><time>2026-05-02T16:35:54.999Z</time></trkpt><trkpt lat="44.43364613668426" lon="8.961778246687489"><ele>31.0</ele><time>2026-05-02T16:35:55.999Z</time></trkpt><trkpt lat="44.43351312438092" lon="8.961661021747881"><ele>31.0</ele><time>2026-05-02T16:35:56.999Z</time></trkpt><trkpt lat="44.43338125234823" lon="8.961538639297553"><ele>31.0</ele><time>2026-05-02T16:35:57.999Z</time></trkpt><trkpt lat="44.43324778128264" lon="8.961408176317175"><ele>31.0</ele><time>2026-05-02T16:35:58.999Z</time></trkpt><trkpt lat="44.43311632404418" lon="8.961273556358766"><ele>31.0</ele><time>2026-05-02T16:35:59.999Z</time></trkpt><trkpt lat="44.432988348444724" lon="8.961137488306143"><ele>31.0</ele><time>2026-05-02T16:36:00.999Z</time></trkpt><trkpt lat="44.43286276520396" lon="8.960998499218126"><ele>31.0</ele><time>2026-05-02T16:36:01.999Z</time></trkpt><trkpt lat="44.432738063932476" lon="8.960853882590044"><ele>31.5</ele><time>2026-05-02T16:36:02.999Z</time></trkpt><trkpt lat="44.43261912390191" lon="8.960710686751536"><ele>32.0</ele><time>2026-05-02T16:36:03.999Z</time></trkpt><trkpt lat="44.43250701802707" lon="8.960580343295533"><ele>32.5</ele><time>2026-05-02T16:36:04.999Z</time></trkpt><trkpt lat="44.43240261194959" lon="8.960461282662646"><ele>33.0</ele><time>2026-05-02T16:36:05.999Z</time></trkpt><trkpt lat="44.432304691152055" lon="8.9603454980517"><ele>33.0</ele><time>2026-05-02T16:36:06.999Z</time></trkpt><trkpt lat="44.43220649183273" lon="8.960236205089615"><ele>33.0</ele><time>2026-05-02T16:36:07.999Z</time></trkpt><trkpt lat="44.4321076418502" lon="8.96012169476547"><ele>33.0</ele><time>2026-05-02T16:36:08.999Z</time></trkpt><trkpt lat="44.43200095295847" lon="8.959998512027688"><ele>33.0</ele><time>2026-05-02T16:36:09.999Z</time></trkpt><trkpt lat="44.43187886072463" lon="8.959861902243851"><ele>32.333333333333336</ele><time>2026-05-02T16:36:10.999Z</time></trkpt><trkpt lat="44.43174654971493" lon="8.959711624328211"><ele>31.666666666666668</ele><time>2026-05-02T16:36:11.999Z</time></trkpt><trkpt lat="44.43160320314292" lon="8.959548215727933"><ele>31.0</ele><time>2026-05-02T16:36:12.999Z</time></trkpt><trkpt lat="44.431461328988576" lon="8.959385998412705"><ele>31.0</ele><time>2026-05-02T16:36:13.999Z</time></trkpt><trkpt lat="44.431321583540154" lon="8.95922672134484"><ele>31.0</ele><time>2026-05-02T16:36:14.999Z</time></trkpt><trkpt lat="44.43117508319611" lon="8.959058764167722"><ele>31.0</ele><time>2026-05-02T16:36:15.999Z</time></trkpt><trkpt lat="44.43103532987679" lon="8.958898010297041"><ele>31.333333333333336</ele><time>2026-05-02T16:36:16.999Z</time></trkpt><trkpt lat="44.430902611624525" lon="8.958743821788334"><ele>31.666666666666664</ele><time>2026-05-02T16:36:17.999Z</time></trkpt><trkpt lat="44.430775724072724" lon="8.958588703050452"><ele>32.0</ele><time>2026-05-02T16:36:18.999Z</time></trkpt><trkpt lat="44.430654549049365" lon="8.95843242519457"><ele>30.666666666666664</ele><time>2026-05-02T16:36:19.999Z</time></trkpt><trkpt lat="44.43052609163159" lon="8.958286347994385"><ele>29.333333333333336</ele><time>2026-05-02T16:36:20.999Z</time></trkpt><trkpt lat="44.430398620163665" lon="8.958132706302923"><ele>28.0</ele><time>2026-05-02T16:36:21.999Z</time></trkpt><trkpt lat="44.4302716821163" lon="8.957980554522194"><ele>28.0</ele><time>2026-05-02T16:36:22.999Z</time></trkpt><trkpt lat="44.43014239350588" lon="8.957838839031592"><ele>28.0</ele><time>2026-05-02T16:36:23.999Z</time></trkpt><trkpt lat="44.430017218633104" lon="8.957695768958995"><ele>28.0</ele><time>2026-05-02T16:36:24.999Z</time></trkpt><trkpt lat="44.42989600024911" lon="8.95755386034744"><ele>27.5</ele><time>2026-05-02T16:36:25.999Z</time></trkpt><trkpt lat="44.42977882968579" lon="8.95741720876707"><ele>27.0</ele><time>2026-05-02T16:36:26.999Z</time></trkpt><trkpt lat="44.42967314513698" lon="8.957286025201412"><ele>26.5</ele><time>2026-05-02T16:36:27.999Z</time></trkpt><trkpt lat="44.42958297559459" lon="8.957169074534773"><ele>26.0</ele><time>2026-05-02T16:36:28.999Z</time></trkpt><trkpt lat="44.429505287677564" lon="8.957066491621596"><ele>26.166666666666664</ele><time>2026-05-02T16:36:29.999Z</time></trkpt><trkpt lat="44.42944328555656" lon="8.95698080196626"><ele>26.333333333333332</ele><time>2026-05-02T16:36:30.999Z</time></trkpt><trkpt lat="44.42939495001287" lon="8.956912035282079"><ele>26.5</ele><time>2026-05-02T16:36:31.999Z</time></trkpt><trkpt lat="44.42931620382591" lon="8.956803120211328"><ele>26.666666666666664</ele><time>2026-05-02T16:36:33.999Z</time></trkpt><trkpt lat="44.42925630082546" lon="8.956704218302304"><ele>26.833333333333332</ele><time>2026-05-02T16:37:00.999Z</time></trkpt><trkpt lat="44.42920504497555" lon="8.956625581151734"><ele>27.0</ele><time>2026-05-02T16:37:01.999Z</time></trkpt><trkpt lat="44.42914912001554" lon="8.956539360085861"><ele>27.0</ele><time>2026-05-02T16:37:02.999Z</time></trkpt><trkpt lat="44.42908344652909" lon="8.956427389892422"><ele>27.0</ele><time>2026-05-02T16:37:03.999Z</time></trkpt><trkpt lat="44.42901353873304" lon="8.956305409889925"><ele>27.0</ele><time>2026-05-02T16:37:04.999Z</time></trkpt><trkpt lat="44.42892873794065" lon="8.956154822301327"><ele>27.0</ele><time>2026-05-02T16:37:05.999Z</time></trkpt><trkpt lat="44.42885292404569" lon="8.956012060999008"><ele>29.5</ele><time>2026-05-02T16:37:06.999Z</time></trkpt><trkpt lat="44.42877581968472" lon="8.955861319326521"><ele>32.0</ele><time>2026-05-02T16:37:07.999Z</time></trkpt><trkpt lat="44.42869917870389" lon="8.955704453550835"><ele>34.5</ele><time>2026-05-02T16:37:08.999Z</time></trkpt><trkpt lat="44.42862432147325" lon="8.955543621714549"><ele>37.0</ele><time>2026-05-02T16:37:09.999Z</time></trkpt><trkpt lat="44.42855990830629" lon="8.955400477059909"><ele>37.0</ele><time>2026-05-02T16:37:10.999Z</time></trkpt><trkpt lat="44.42850184858205" lon="8.955273153533842"><ele>37.0</ele><time>2026-05-02T16:37:11.999Z</time></trkpt><trkpt lat="44.42844567338632" lon="8.955144659564588"><ele>37.0</ele><time>2026-05-02T16:37:12.999Z</time></trkpt><trkpt lat="44.42838923874711" lon="8.955005076658498"><ele>37.0</ele><time>2026-05-02T16:37:13.999Z</time></trkpt><trkpt lat="44.42833194099146" lon="8.954855775215803"><ele>35.800000000000004</ele><time>2026-05-02T16:37:14.999Z</time></trkpt><trkpt lat="44.42828372977994" lon="8.954726141480098"><ele>34.6</ele><time>2026-05-02T16:37:15.999Z</time></trkpt><trkpt lat="44.428239792295" lon="8.954602664942263"><ele>33.400000000000006</ele><time>2026-05-02T16:37:16.999Z</time></trkpt><trkpt lat="44.42819632095218" lon="8.954472419713264"><ele>32.2</ele><time>2026-05-02T16:37:17.999Z</time></trkpt><trkpt lat="44.428150763142916" lon="8.954328888986701"><ele>31.0</ele><time>2026-05-02T16:37:18.999Z</time></trkpt><trkpt lat="44.42810630534091" lon="8.954183722665713"><ele>29.6</ele><time>2026-05-02T16:37:19.999Z</time></trkpt><trkpt lat="44.428063301020785" lon="8.954034053270641"><ele>28.200000000000003</ele><time>2026-05-02T16:37:20.999Z</time></trkpt><trkpt lat="44.42802425015306" lon="8.95389636058691"><ele>26.799999999999997</ele><time>2026-05-02T16:37:22Z</time></trkpt><trkpt lat="44.427987711471964" lon="8.953759365577694"><ele>25.4</ele><time>2026-05-02T16:37:23Z</time></trkpt><trkpt lat="44.42795464048183" lon="8.95362705948521"><ele>24.0</ele><time>2026-05-02T16:37:24Z</time></trkpt><trkpt lat="44.427924430751894" lon="8.953494038545916"><ele>30.0</ele><time>2026-05-02T16:37:25Z</time></trkpt><trkpt lat="44.42789284808707" lon="8.953369835980668"><ele>36.0</ele><time>2026-05-02T16:37:26Z</time></trkpt><trkpt lat="44.42786146594018" lon="8.953255266484732"><ele>42.00000000000001</ele><time>2026-05-02T16:37:27Z</time></trkpt><trkpt lat="44.42783685800278" lon="8.95316127701659"><ele>48.0</ele><time>2026-05-02T16:37:28Z</time></trkpt><trkpt lat="44.42780550091886" lon="8.95301932942006"><ele>54.0</ele><time>2026-05-02T16:37:30Z</time></trkpt><trkpt lat="44.42777566730906" lon="8.95289297645768"><ele>54.0</ele><time>2026-05-02T16:37:32Z</time></trkpt><trkpt lat="44.42774475952258" lon="8.952747924717492"><ele>54.00000000000001</ele><time>2026-05-02T16:37:34Z</time></trkpt><trkpt lat="44.42771766411078" lon="8.952577901577461"><ele>54.00000000000001</ele><time>2026-05-02T16:37:36Z</time></trkpt><trkpt lat="44.42769855318637" lon="8.95248699889937"><ele>54.0</ele><time>2026-05-02T16:37:37Z</time></trkpt><trkpt lat="44.427677667253455" lon="8.952374669470517"><ele>54.0</ele><time>2026-05-02T16:37:38Z</time></trkpt><trkpt lat="44.42766140075888" lon="8.95226084169969"><ele>51.833333333333336</ele><time>2026-05-02T16:37:39Z</time></trkpt><trkpt lat="44.427644782792726" lon="8.952148074612536"><ele>49.666666666666664</ele><time>2026-05-02T16:37:40Z</time></trkpt><trkpt lat="44.42762449463082" lon="8.95203506977847"><ele>47.5</ele><time>2026-05-02T16:37:41Z</time></trkpt><trkpt lat="44.42760548860852" lon="8.95193242895529"><ele>45.33333333333333</ele><time>2026-05-02T16:37:41.999Z</time></trkpt><trkpt lat="44.427586626006565" lon="8.951847261114729"><ele>43.166666666666664</ele><time>2026-05-02T16:37:42.999Z</time></trkpt><trkpt lat="44.427548803295835" lon="8.951684463640634"><ele>41.0</ele><time>2026-05-02T16:37:44.999Z</time></trkpt><trkpt lat="44.427536273652976" lon="8.951561464211407"><ele>38.4</ele><time>2026-05-02T16:37:46.999Z</time></trkpt><trkpt lat="44.4275841722468" lon="8.951476290575886"><ele>35.8</ele><time>2026-05-02T16:37:48.999Z</time></trkpt><trkpt lat="44.42767944474326" lon="8.951436298688275"><ele>33.199999999999996</ele><time>2026-05-02T16:37:50.999Z</time></trkpt><trkpt lat="44.4277779551886" lon="8.95139267788579"><ele>30.599999999999998</ele><time>2026-05-02T16:37:52.999Z</time></trkpt><trkpt lat="44.42788503110198" lon="8.951343293316826"><ele>28.0</ele><time>2026-05-02T16:37:54.999Z</time></trkpt><trkpt lat="44.427977684146285" lon="8.951305966017337"><ele>27.833333333333336</ele><time>2026-05-02T16:37:56.999Z</time></trkpt><trkpt lat="44.428060441498864" lon="8.95127364665332"><ele>27.666666666666668</ele><time>2026-05-02T16:37:58.999Z</time></trkpt><trkpt lat="44.428125267947195" lon="8.951238205437154"><ele>27.5</ele><time>2026-05-02T16:38:00.999Z</time></trkpt><trkpt lat="44.428142815057534" lon="8.951123045431094"><ele>27.333333333333336</ele><time>2026-05-02T16:38:02.999Z</time></trkpt><trkpt lat="44.428127292222314" lon="8.95095448709801"><ele>27.166666666666668</ele><time>2026-05-02T16:38:04.999Z</time></trkpt><trkpt lat="44.42811626622457" lon="8.950862630462991"><ele>27.0</ele><time>2026-05-02T16:38:05.999Z</time></trkpt><trkpt lat="44.428089081709224" lon="8.950716101187721"><ele>27.0</ele><time>2026-05-02T16:38:07.999Z</time></trkpt><trkpt lat="44.42806777684347" lon="8.950616266852679"><ele>27.0</ele><time>2026-05-02T16:38:10.999Z</time></trkpt><trkpt lat="44.428003070734725" lon="8.950531039395804"><ele>27.0</ele><time>2026-05-02T16:42:18.999Z</time></trkpt><trkpt lat="44.4279704846511" lon="8.95044141196382"><ele>27.0</ele><time>2026-05-02T16:42:19.999Z</time></trkpt><trkpt lat="44.4279446306969" lon="8.950337827224466"><ele>27.0</ele><time>2026-05-02T16:42:20.999Z</time></trkpt><trkpt lat="44.42791572544426" lon="8.950222366371168"><ele>27.0</ele><time>2026-05-02T16:42:21.999Z</time></trkpt><trkpt lat="44.42790217005052" lon="8.950066409505839"><ele>26.0</ele><time>2026-05-02T16:42:22.999Z</time></trkpt><trkpt lat="44.42786212056645" lon="8.949914894714905"><ele>25.0</ele><time>2026-05-02T16:42:23.999Z</time></trkpt><trkpt lat="44.427803395323814" lon="8.949727004304734"><ele>24.0</ele><time>2026-05-02T16:42:24.999Z</time></trkpt><trkpt lat="44.42773406842393" lon="8.949549858622868"><ele>23.0</ele><time>2026-05-02T16:42:25.999Z</time></trkpt><trkpt lat="44.42763568340586" lon="8.949366697678707"><ele>23.333333333333336</ele><time>2026-05-02T16:42:26.999Z</time></trkpt><trkpt lat="44.427527754090185" lon="8.949176050467338"><ele>23.666666666666668</ele><time>2026-05-02T16:42:27.999Z</time></trkpt><trkpt lat="44.427421252415066" lon="8.948998845713867"><ele>24.0</ele><time>2026-05-02T16:42:28.999Z</time></trkpt><trkpt lat="44.42731857930761" lon="8.94883633363555"><ele>24.0</ele><time>2026-05-02T16:42:29.999Z</time></trkpt><trkpt lat="44.42719321958289" lon="8.948713161394556"><ele>24.0</ele><time>2026-05-02T16:42:30.999Z</time></trkpt><trkpt lat="44.42709029319692" lon="8.948578598117955"><ele>24.0</ele><time>2026-05-02T16:42:31.999Z</time></trkpt><trkpt lat="44.42698323988779" lon="8.94844431314725"><ele>24.0</ele><time>2026-05-02T16:42:32.999Z</time></trkpt><trkpt lat="44.4268723172836" lon="8.948314636930677"><ele>23.5</ele><time>2026-05-02T16:42:33.999Z</time></trkpt><trkpt lat="44.426753445058374" lon="8.948189528777972"><ele>23.0</ele><time>2026-05-02T16:42:34.999Z</time></trkpt><trkpt lat="44.42663236214966" lon="8.948076305611263"><ele>22.5</ele><time>2026-05-02T16:42:35.999Z</time></trkpt><trkpt lat="44.42653702636576" lon="8.947930466514531"><ele>22.0</ele><time>2026-05-02T16:42:36.999Z</time></trkpt><trkpt lat="44.426422270238206" lon="8.947843484488688"><ele>22.75</ele><time>2026-05-02T16:42:37.999Z</time></trkpt><trkpt lat="44.42630348024233" lon="8.94776395269294"><ele>23.5</ele><time>2026-05-02T16:42:38.999Z</time></trkpt><trkpt lat="44.42619300397987" lon="8.947691326836607"><ele>24.25</ele><time>2026-05-02T16:42:39.999Z</time></trkpt><trkpt lat="44.42606847802329" lon="8.947614286097787"><ele>25.0</ele><time>2026-05-02T16:42:40.999Z</time></trkpt><trkpt lat="44.42593211747612" lon="8.947542367030229"><ele>25.25</ele><time>2026-05-02T16:42:41.999Z</time></trkpt><trkpt lat="44.42582594055831" lon="8.947494213275151"><ele>25.5</ele><time>2026-05-02T16:42:42.999Z</time></trkpt><trkpt lat="44.425729818007945" lon="8.94745118572215"><ele>25.75</ele><time>2026-05-02T16:42:43.999Z</time></trkpt><trkpt lat="44.425620783740996" lon="8.947406358433314"><ele>26.0</ele><time>2026-05-02T16:42:44.999Z</time></trkpt><trkpt lat="44.42549973272613" lon="8.947356982812678"><ele>25.75</ele><time>2026-05-02T16:42:45.999Z</time></trkpt><trkpt lat="44.42536727787068" lon="8.947311549601519"><ele>25.5</ele><time>2026-05-02T16:42:46.999Z</time></trkpt><trkpt lat="44.42523995080481" lon="8.947281666759254"><ele>25.25</ele><time>2026-05-02T16:42:47.999Z</time></trkpt><trkpt lat="44.425115852712054" lon="8.94725867778406"><ele>25.0</ele><time>2026-05-02T16:42:48.999Z</time></trkpt><trkpt lat="44.42500013819008" lon="8.947237996165367"><ele>25.0</ele><time>2026-05-02T16:42:49.999Z</time></trkpt><trkpt lat="44.42488891483695" lon="8.947225056028358"><ele>25.0</ele><time>2026-05-02T16:42:50.999Z</time></trkpt><trkpt lat="44.424781122887744" lon="8.947210971692435"><ele>25.0</ele><time>2026-05-02T16:42:51.999Z</time></trkpt><trkpt lat="44.42466644278354" lon="8.947195562149075"><ele>25.0</ele><time>2026-05-02T16:42:52.999Z</time></trkpt><trkpt lat="44.42455177854658" lon="8.947179427477119"><ele>24.2</ele><time>2026-05-02T16:42:53.999Z</time></trkpt><trkpt lat="44.424447422863594" lon="8.947164463262846"><ele>23.4</ele><time>2026-05-02T16:42:54.999Z</time></trkpt><trkpt lat="44.424351697062875" lon="8.94715073654532"><ele>22.6</ele><time>2026-05-02T16:42:55.999Z</time></trkpt><trkpt lat="44.424252340110954" lon="8.947136773205361"><ele>21.8</ele><time>2026-05-02T16:42:56.999Z</time></trkpt><trkpt lat="44.42415156462029" lon="8.947122783854583"><ele>21.0</ele><time>2026-05-02T16:42:57.999Z</time></trkpt><trkpt lat="44.42404590227043" lon="8.947108116125126"><ele>21.0</ele><time>2026-05-02T16:42:58.999Z</time></trkpt><trkpt lat="44.423946164144226" lon="8.947094270778715"><ele>21.0</ele><time>2026-05-02T16:42:59.999Z</time></trkpt><trkpt lat="44.423850384725725" lon="8.947080974967328"><ele>21.0</ele><time>2026-05-02T16:43:00.999Z</time></trkpt><trkpt lat="44.423753263938124" lon="8.947067492952248"><ele>21.0</ele><time>2026-05-02T16:43:01.999Z</time></trkpt><trkpt lat="44.423667823083036" lon="8.947055632309718"><ele>21.0</ele><time>2026-05-02T16:43:02.999Z</time></trkpt><trkpt lat="44.42358519370094" lon="8.947044161948108"><ele>20.333333333333332</ele><time>2026-05-02T16:43:03.999Z</time></trkpt><trkpt lat="44.423518175311195" lon="8.947034858656973"><ele>19.666666666666668</ele><time>2026-05-02T16:43:04.999Z</time></trkpt><trkpt lat="44.42340725034912" lon="8.94701946038733"><ele>19.0</ele><time>2026-05-02T16:43:06.999Z</time></trkpt><trkpt lat="44.423309290893876" lon="8.947005861950647"><ele>18.333333333333336</ele><time>2026-05-02T16:43:08.999Z</time></trkpt><trkpt lat="44.42322655625881" lon="8.946994376981415"><ele>17.666666666666668</ele><time>2026-05-02T16:43:10.999Z</time></trkpt><trkpt lat="44.423146706643344" lon="8.946983292502876"><ele>17.0</ele><time>2026-05-02T16:43:47Z</time></trkpt><trkpt lat="44.42300921459207" lon="8.94696420863545"><ele>16.666666666666668</ele><time>2026-05-02T16:43:49Z</time></trkpt><trkpt lat="44.422903576124085" lon="8.946991590772662"><ele>16.333333333333336</ele><time>2026-05-02T16:43:50Z</time></trkpt><trkpt lat="44.422825359292034" lon="8.946969145634565"><ele>16.0</ele><time>2026-05-02T16:43:51Z</time></trkpt><trkpt lat="44.42275943302882" lon="8.94694243266812"><ele>15.666666666666668</ele><time>2026-05-02T16:43:52Z</time></trkpt><trkpt lat="44.42269300547949" lon="8.946937413201473"><ele>15.333333333333334</ele><time>2026-05-02T16:43:53Z</time></trkpt><trkpt lat="44.422621224481475" lon="8.946927256648443"><ele>15.0</ele><time>2026-05-02T16:43:54Z</time></trkpt><trkpt lat="44.422529119005" lon="8.946909527228733"><ele>15.0</ele><time>2026-05-02T16:43:55Z</time></trkpt><trkpt lat="44.42242835191819" lon="8.946895790166298"><ele>15.0</ele><time>2026-05-02T16:43:56Z</time></trkpt><trkpt lat="44.42233386136085" lon="8.946887618314937"><ele>15.0</ele><time>2026-05-02T16:43:57Z</time></trkpt><trkpt lat="44.42223838595781" lon="8.946876551698452"><ele>15.0</ele><time>2026-05-02T16:43:58Z</time></trkpt><trkpt lat="44.42214048552194" lon="8.946862590335746"><ele>15.0</ele><time>2026-05-02T16:43:59Z</time></trkpt><trkpt lat="44.42203881176565" lon="8.946844912723352"><ele>14.8</ele><time>2026-05-02T16:44:00Z</time></trkpt><trkpt lat="44.42193429253893" lon="8.94682952710143"><ele>14.6</ele><time>2026-05-02T16:44:01Z</time></trkpt><trkpt lat="44.42182743021518" lon="8.946812916480994"><ele>14.399999999999999</ele><time>2026-05-02T16:44:02Z</time></trkpt><trkpt lat="44.42171460188859" lon="8.946796553511042"><ele>14.2</ele><time>2026-05-02T16:44:03Z</time></trkpt><trkpt lat="44.42159691260087" lon="8.946777263023941"><ele>14.0</ele><time>2026-05-02T16:44:04Z</time></trkpt><trkpt lat="44.421478924966785" lon="8.94676693393393"><ele>14.0</ele><time>2026-05-02T16:44:05Z</time></trkpt><trkpt lat="44.42135177124267" lon="8.946771230835047"><ele>14.0</ele><time>2026-05-02T16:44:06Z</time></trkpt><trkpt lat="44.42122741524793" lon="8.946777276566078"><ele>14.0</ele><time>2026-05-02T16:44:07Z</time></trkpt><trkpt lat="44.42110744528721" lon="8.94678906062576"><ele>14.0</ele><time>2026-05-02T16:44:08Z</time></trkpt><trkpt lat="44.42098793973629" lon="8.946804876599384"><ele>14.0</ele><time>2026-05-02T16:44:09Z</time></trkpt><trkpt lat="44.42085658245597" lon="8.946830315567473"><ele>14.0</ele><time>2026-05-02T16:44:10Z</time></trkpt><trkpt lat="44.42071111704661" lon="8.946867616082596"><ele>14.0</ele><time>2026-05-02T16:44:11Z</time></trkpt><trkpt lat="44.420561251222786" lon="8.946915350165911"><ele>14.0</ele><time>2026-05-02T16:44:12Z</time></trkpt><trkpt lat="44.420408019962444" lon="8.946971875311597"><ele>14.333333333333334</ele><time>2026-05-02T16:44:12.999Z</time></trkpt><trkpt lat="44.42026262538118" lon="8.947022479953674"><ele>14.666666666666668</ele><time>2026-05-02T16:44:13.999Z</time></trkpt><trkpt lat="44.42011705467042" lon="8.94706714888248"><ele>15.0</ele><time>2026-05-02T16:44:14.999Z</time></trkpt><trkpt lat="44.4199643005501" lon="8.947113407562297"><ele>15.0</ele><time>2026-05-02T16:44:15.999Z</time></trkpt><trkpt lat="44.41980913800601" lon="8.947157008122643"><ele>15.0</ele><time>2026-05-02T16:44:16.999Z</time></trkpt><trkpt lat="44.41965273791123" lon="8.947201840656794"><ele>15.0</ele><time>2026-05-02T16:44:17.999Z</time></trkpt><trkpt lat="44.41950016196773" lon="8.947246821929971"><ele>16.0</ele><time>2026-05-02T16:44:18.999Z</time></trkpt><trkpt lat="44.41934532721934" lon="8.947293648759908"><ele>17.0</ele><time>2026-05-02T16:44:19.999Z</time></trkpt><trkpt lat="44.41918864533545" lon="8.947343816324139"><ele>18.0</ele><time>2026-05-02T16:44:20.999Z</time></trkpt><trkpt lat="44.419025941482126" lon="8.947396514428569"><ele>18.0</ele><time>2026-05-02T16:44:21.999Z</time></trkpt><trkpt lat="44.41887803961821" lon="8.947443031873117"><ele>18.0</ele><time>2026-05-02T16:44:22.999Z</time></trkpt><trkpt lat="44.41874365659507" lon="8.947485116414812"><ele>18.0</ele><time>2026-05-02T16:44:23.999Z</time></trkpt><trkpt lat="44.41861533858723" lon="8.947521651925024"><ele>18.0</ele><time>2026-05-02T16:44:24.999Z</time></trkpt><trkpt lat="44.41850662539582" lon="8.947560136276238"><ele>18.2</ele><time>2026-05-02T16:44:25.999Z</time></trkpt><trkpt lat="44.41839514184745" lon="8.94759479055081"><ele>18.4</ele><time>2026-05-02T16:44:26.999Z</time></trkpt><trkpt lat="44.418286776392975" lon="8.94763724381374"><ele>18.599999999999998</ele><time>2026-05-02T16:44:27.999Z</time></trkpt><trkpt lat="44.418185322965506" lon="8.947682687625903"><ele>18.8</ele><time>2026-05-02T16:44:28.999Z</time></trkpt><trkpt lat="44.41808146830163" lon="8.947752336994759"><ele>19.0</ele><time>2026-05-02T16:44:29.999Z</time></trkpt><trkpt lat="44.41797575349078" lon="8.947817521726604"><ele>19.0</ele><time>2026-05-02T16:44:30.999Z</time></trkpt><trkpt lat="44.41786828421104" lon="8.947887996734975"><ele>19.0</ele><time>2026-05-02T16:44:31.999Z</time></trkpt><trkpt lat="44.41776524220224" lon="8.947961819517682"><ele>19.0</ele><time>2026-05-02T16:44:32.999Z</time></trkpt><trkpt lat="44.417660257308455" lon="8.948038133576464"><ele>19.0</ele><time>2026-05-02T16:44:33.999Z</time></trkpt><trkpt lat="44.41756401618698" lon="8.948113837160188"><ele>19.0</ele><time>2026-05-02T16:44:34.999Z</time></trkpt><trkpt lat="44.41747785446442" lon="8.948185942879103"><ele>19.0</ele><time>2026-05-02T16:44:35.999Z</time></trkpt><trkpt lat="44.41739507191479" lon="8.948262405572677"><ele>19.0</ele><time>2026-05-02T16:44:36.999Z</time></trkpt><trkpt lat="44.417315769502935" lon="8.948336121498867"><ele>19.0</ele><time>2026-05-02T16:44:37.999Z</time></trkpt><trkpt lat="44.417232562459674" lon="8.948418475071296"><ele>19.0</ele><time>2026-05-02T16:44:38.999Z</time></trkpt><trkpt lat="44.417146633077756" lon="8.948504931534469"><ele>20.5</ele><time>2026-05-02T16:44:39.999Z</time></trkpt><trkpt lat="44.417063166689054" lon="8.948604091773738"><ele>22.0</ele><time>2026-05-02T16:44:40.999Z</time></trkpt><trkpt lat="44.416977499593315" lon="8.948711978508825"><ele>23.5</ele><time>2026-05-02T16:44:41.999Z</time></trkpt><trkpt lat="44.41688546483016" lon="8.948843922891587"><ele>25.0</ele><time>2026-05-02T16:44:42.999Z</time></trkpt><trkpt lat="44.41678367671395" lon="8.949019999970846"><ele>25.0</ele><time>2026-05-02T16:44:43.999Z</time></trkpt><trkpt lat="44.4166871258769" lon="8.949195911953037"><ele>25.0</ele><time>2026-05-02T16:44:44.999Z</time></trkpt><trkpt lat="44.41659609981665" lon="8.94935644354621"><ele>25.0</ele><time>2026-05-02T16:44:45.999Z</time></trkpt><trkpt lat="44.4165166903054" lon="8.949507828685299"><ele>25.0</ele><time>2026-05-02T16:44:46.999Z</time></trkpt><trkpt lat="44.416445936324116" lon="8.949644796927458"><ele>25.2</ele><time>2026-05-02T16:44:47.999Z</time></trkpt><trkpt lat="44.41638808418174" lon="8.949775739174294"><ele>25.4</ele><time>2026-05-02T16:44:48.999Z</time></trkpt><trkpt lat="44.41633213519484" lon="8.94989362180173"><ele>25.6</ele><time>2026-05-02T16:44:49.999Z</time></trkpt><trkpt lat="44.41627739064516" lon="8.949989512317469"><ele>25.8</ele><time>2026-05-02T16:44:50.999Z</time></trkpt><trkpt lat="44.41622445311466" lon="8.950066932647768"><ele>26.0</ele><time>2026-05-02T16:44:51.999Z</time></trkpt><trkpt lat="44.41616206607062" lon="8.950130098620207"><ele>26.0</ele><time>2026-05-02T16:44:52.999Z</time></trkpt><trkpt lat="44.41609114021765" lon="8.950180901402632"><ele>26.0</ele><time>2026-05-02T16:44:53.999Z</time></trkpt><trkpt lat="44.41602640044023" lon="8.950220349534622"><ele>26.0</ele><time>2026-05-02T16:44:54.999Z</time></trkpt><trkpt lat="44.41596434380633" lon="8.950259193076109"><ele>26.0</ele><time>2026-05-02T16:44:55.999Z</time></trkpt><trkpt lat="44.41586033018781" lon="8.950354100425672"><ele>26.0</ele><time>2026-05-02T16:44:57.999Z</time></trkpt><trkpt lat="44.41577704512415" lon="8.950449828123078"><ele>26.0</ele><time>2026-05-02T16:44:59.999Z</time></trkpt><trkpt lat="44.41570268710389" lon="8.95053557345731"><ele>26.0</ele><time>2026-05-02T16:45:01.999Z</time></trkpt><trkpt lat="44.415647659579925" lon="8.950610987236955"><ele>26.0</ele><time>2026-05-02T16:45:03.999Z</time></trkpt><trkpt lat="44.41556737313989" lon="8.950650066263654"><ele>26.0</ele><time>2026-05-02T16:45:35.999Z</time></trkpt><trkpt lat="44.41549648776967" lon="8.950732337670399"><ele>26.0</ele><time>2026-05-02T16:45:36.999Z</time></trkpt><trkpt lat="44.41542159083206" lon="8.950824747335947"><ele>25.0</ele><time>2026-05-02T16:45:37.999Z</time></trkpt><trkpt lat="44.41532631313332" lon="8.950936899627123"><ele>24.0</ele><time>2026-05-02T16:45:38.999Z</time></trkpt><trkpt lat="44.41521727928514" lon="8.951053791805103"><ele>23.0</ele><time>2026-05-02T16:45:39.999Z</time></trkpt><trkpt lat="44.41510541584567" lon="8.95116319229695"><ele>22.0</ele><time>2026-05-02T16:45:40.999Z</time></trkpt><trkpt lat="44.41496984563533" lon="8.951256854296034"><ele>22.0</ele><time>2026-05-02T16:45:41.999Z</time></trkpt><trkpt lat="44.4148173647255" lon="8.951315379845761"><ele>22.0</ele><time>2026-05-02T16:45:42.999Z</time></trkpt><trkpt lat="44.41466619330805" lon="8.951358939574492"><ele>22.0</ele><time>2026-05-02T16:45:43.999Z</time></trkpt><trkpt lat="44.41452524495825" lon="8.951393562193841"><ele>21.0</ele><time>2026-05-02T16:45:44.999Z</time></trkpt><trkpt lat="44.41438907436742" lon="8.951433052945001"><ele>20.0</ele><time>2026-05-02T16:45:46Z</time></trkpt><trkpt lat="44.41426240529873" lon="8.951465682906438"><ele>19.0</ele><time>2026-05-02T16:45:47Z</time></trkpt><trkpt lat="44.41415355369164" lon="8.951492329578333"><ele>18.0</ele><time>2026-05-02T16:45:48Z</time></trkpt><trkpt lat="44.41405603459037" lon="8.951514423365461"><ele>18.0</ele><time>2026-05-02T16:45:49Z</time></trkpt><trkpt lat="44.413973420546185" lon="8.95154019808358"><ele>18.0</ele><time>2026-05-02T16:45:50Z</time></trkpt><trkpt lat="44.413893612099436" lon="8.951556582271197"><ele>18.0</ele><time>2026-05-02T16:45:51Z</time></trkpt><trkpt lat="44.4138131269825" lon="8.95158138533998"><ele>18.0</ele><time>2026-05-02T16:45:52Z</time></trkpt><trkpt lat="44.41372607879551" lon="8.951606622602558"><ele>18.0</ele><time>2026-05-02T16:45:53Z</time></trkpt><trkpt lat="44.41363692407419" lon="8.951631834660821"><ele>18.0</ele><time>2026-05-02T16:45:54Z</time></trkpt><trkpt lat="44.41354091117459" lon="8.951657591113566"><ele>18.2</ele><time>2026-05-02T16:45:55Z</time></trkpt><trkpt lat="44.41346792814343" lon="8.951682393240803"><ele>18.4</ele><time>2026-05-02T16:45:56Z</time></trkpt><trkpt lat="44.413367420466756" lon="8.951718370982844"><ele>18.599999999999998</ele><time>2026-05-02T16:45:57.999Z</time></trkpt><trkpt lat="44.41326443383322" lon="8.951753896405513"><ele>18.8</ele><time>2026-05-02T16:45:59.999Z</time></trkpt><trkpt lat="44.413142508541085" lon="8.95179364695966"><ele>19.0</ele><time>2026-05-02T16:46:01.999Z</time></trkpt><trkpt lat="44.41302882529524" lon="8.951824133908978"><ele>17.8</ele><time>2026-05-02T16:46:03.999Z</time></trkpt><trkpt lat="44.41293857169476" lon="8.951855636189022"><ele>16.599999999999998</ele><time>2026-05-02T16:46:05.999Z</time></trkpt><trkpt lat="44.41285482723608" lon="8.951866326097937"><ele>15.4</ele><time>2026-05-02T16:46:07.999Z</time></trkpt><trkpt lat="44.412769170609906" lon="8.951887294712902"><ele>14.2</ele><time>2026-05-02T16:46:09.999Z</time></trkpt><trkpt lat="44.41264887106717" lon="8.951920590637233"><ele>13.0</ele><time>2026-05-02T16:46:11.999Z</time></trkpt><trkpt lat="44.41257834685297" lon="8.951941990126793"><ele>12.999999999999998</ele><time>2026-05-02T16:46:12.999Z</time></trkpt><trkpt lat="44.412495326056195" lon="8.95194186253532"><ele>13.0</ele><time>2026-05-02T16:46:13.999Z</time></trkpt><trkpt lat="44.41241814815475" lon="8.95195047931251"><ele>13.0</ele><time>2026-05-02T16:46:14.999Z</time></trkpt><trkpt lat="44.41234328685757" lon="8.951964020828193"><ele>13.0</ele><time>2026-05-02T16:46:15.999Z</time></trkpt><trkpt lat="44.412271198753686" lon="8.951979019958586"><ele>12.999999999999998</ele><time>2026-05-02T16:46:16.999Z</time></trkpt><trkpt lat="44.41219185224116" lon="8.951987023889027"><ele>13.0</ele><time>2026-05-02T16:46:17.999Z</time></trkpt><trkpt lat="44.41210476444192" lon="8.951989112850397"><ele>13.4</ele><time>2026-05-02T16:46:18.999Z</time></trkpt><trkpt lat="44.41202149745144" lon="8.95201686687319"><ele>13.8</ele><time>2026-05-02T16:46:19.999Z</time></trkpt><trkpt lat="44.41193514257639" lon="8.95205866676519"><ele>14.2</ele><time>2026-05-02T16:46:20.999Z</time></trkpt><trkpt lat="44.41183795647276" lon="8.952082577136638"><ele>14.6</ele><time>2026-05-02T16:46:21.999Z</time></trkpt><trkpt lat="44.41173973100057" lon="8.952117678512328"><ele>15.0</ele><time>2026-05-02T16:46:22.999Z</time></trkpt><trkpt lat="44.41163838859965" lon="8.952145333499866"><ele>15.0</ele><time>2026-05-02T16:46:23.999Z</time></trkpt><trkpt lat="44.41154187334821" lon="8.952164179508713"><ele>15.0</ele><time>2026-05-02T16:46:24.999Z</time></trkpt><trkpt lat="44.411444654590106" lon="8.952167138783967"><ele>15.0</ele><time>2026-05-02T16:46:25.999Z</time></trkpt><trkpt lat="44.41134271475217" lon="8.952165004272201"><ele>15.0</ele><time>2026-05-02T16:46:26.999Z</time></trkpt><trkpt lat="44.41123540370336" lon="8.952160549941215"><ele>15.0</ele><time>2026-05-02T16:46:27.999Z</time></trkpt><trkpt lat="44.41113366908281" lon="8.952150029870563"><ele>14.4</ele><time>2026-05-02T16:46:28.999Z</time></trkpt><trkpt lat="44.41102940587333" lon="8.952123345746594"><ele>13.8</ele><time>2026-05-02T16:46:29.999Z</time></trkpt><trkpt lat="44.41092210338122" lon="8.952105187511822"><ele>13.2</ele><time>2026-05-02T16:46:30.999Z</time></trkpt><trkpt lat="44.41081639155643" lon="8.952080204630757"><ele>12.6</ele><time>2026-05-02T16:46:31.999Z</time></trkpt><trkpt lat="44.41071063528618" lon="8.952112368789887"><ele>12.0</ele><time>2026-05-02T16:46:32.999Z</time></trkpt><trkpt lat="44.410608726721556" lon="8.952073984361036"><ele>12.0</ele><time>2026-05-02T16:46:33.999Z</time></trkpt><trkpt lat="44.41051006259892" lon="8.95202575986075"><ele>12.0</ele><time>2026-05-02T16:46:34.999Z</time></trkpt><trkpt lat="44.41042052064622" lon="8.951975741688086"><ele>12.0</ele><time>2026-05-02T16:46:35.999Z</time></trkpt><trkpt lat="44.41032795927918" lon="8.951938899366633"><ele>12.0</ele><time>2026-05-02T16:46:36.999Z</time></trkpt><trkpt lat="44.410239443783674" lon="8.951899131600186"><ele>12.0</ele><time>2026-05-02T16:46:37.999Z</time></trkpt><trkpt lat="44.41015569725635" lon="8.951849405696523"><ele>11.6</ele><time>2026-05-02T16:46:38.999Z</time></trkpt><trkpt lat="44.41008373403988" lon="8.951797518886004"><ele>11.2</ele><time>2026-05-02T16:46:39.999Z</time></trkpt><trkpt lat="44.41000012755304" lon="8.951736468348093"><ele>10.8</ele><time>2026-05-02T16:46:40.999Z</time></trkpt><trkpt lat="44.40991836065324" lon="8.951672755788925"><ele>10.4</ele><time>2026-05-02T16:46:41.999Z</time></trkpt><trkpt lat="44.409834203913306" lon="8.951609584033163"><ele>10.0</ele><time>2026-05-02T16:46:42.999Z</time></trkpt><trkpt lat="44.40974700068543" lon="8.951539175112243"><ele>10.6</ele><time>2026-05-02T16:46:43.999Z</time></trkpt><trkpt lat="44.40966508372619" lon="8.951472765895724"><ele>11.2</ele><time>2026-05-02T16:46:44.999Z</time></trkpt><trkpt lat="44.40958711142288" lon="8.95140005174118"><ele>11.8</ele><time>2026-05-02T16:46:45.999Z</time></trkpt><trkpt lat="44.4095038650388" lon="8.95132453685684"><ele>12.4</ele><time>2026-05-02T16:46:46.999Z</time></trkpt><trkpt lat="44.40941101685591" lon="8.951241048903851"><ele>13.0</ele><time>2026-05-02T16:46:47.999Z</time></trkpt><trkpt lat="44.40932438114725" lon="8.951171049878385"><ele>12.999999999999998</ele><time>2026-05-02T16:46:48.999Z</time></trkpt><trkpt lat="44.40924602536263" lon="8.951103363413257"><ele>13.0</ele><time>2026-05-02T16:46:49.999Z</time></trkpt><trkpt lat="44.409173634684294" lon="8.951043537929628"><ele>13.0</ele><time>2026-05-02T16:46:50.999Z</time></trkpt><trkpt lat="44.40910127837197" lon="8.950972382320488"><ele>13.0</ele><time>2026-05-02T16:46:51.999Z</time></trkpt><trkpt lat="44.40904396585764" lon="8.95091237470754"><ele>12.999999999999998</ele><time>2026-05-02T16:46:52.999Z</time></trkpt><trkpt lat="44.408944043778284" lon="8.95084748219634"><ele>13.0</ele><time>2026-05-02T16:46:54.999Z</time></trkpt><trkpt lat="44.40888068230705" lon="8.950776482665924"><ele>12.600000000000001</ele><time>2026-05-02T16:47:56.999Z</time></trkpt><trkpt lat="44.40877130528387" lon="8.950672424494364"><ele>12.200000000000001</ele><time>2026-05-02T16:47:59Z</time></trkpt><trkpt lat="44.40871955527935" lon="8.95061500460023"><ele>11.8</ele><time>2026-05-02T16:48:00Z</time></trkpt><trkpt lat="44.40866666267841" lon="8.950562816479161"><ele>11.4</ele><time>2026-05-02T16:48:01Z</time></trkpt><trkpt lat="44.408563710917086" lon="8.9504733094509"><ele>11.0</ele><time>2026-05-02T16:48:03Z</time></trkpt><trkpt lat="44.408479051654304" lon="8.950412541413296"><ele>11.0</ele><time>2026-05-02T16:48:05Z</time></trkpt><trkpt lat="44.408396220484256" lon="8.95035892967406"><ele>11.0</ele><time>2026-05-02T16:48:08Z</time></trkpt><trkpt lat="44.40833719421964" lon="8.950308433570655"><ele>11.0</ele><time>2026-05-02T16:48:11Z</time></trkpt><trkpt lat="44.40828147356301" lon="8.95024721235963"><ele>11.0</ele><time>2026-05-02T16:48:14.999Z</time></trkpt><trkpt lat="44.40821426399725" lon="8.950185670696436"><ele>11.0</ele><time>2026-05-02T16:48:19.999Z</time></trkpt><trkpt lat="44.40810829344737" lon="8.950077830272079"><ele>11.0</ele><time>2026-05-02T16:48:21.999Z</time></trkpt><trkpt lat="44.40804892258772" lon="8.950013138952642"><ele>11.0</ele><time>2026-05-02T16:48:22.999Z</time></trkpt><trkpt lat="44.40799067113554" lon="8.949948732073352"><ele>11.0</ele><time>2026-05-02T16:48:23.999Z</time></trkpt><trkpt lat="44.407930758940026" lon="8.949887736628051"><ele>11.0</ele><time>2026-05-02T16:48:24.999Z</time></trkpt><trkpt lat="44.40786989048961" lon="8.949831428229452"><ele>11.0</ele><time>2026-05-02T16:48:25.999Z</time></trkpt><trkpt lat="44.40781290310327" lon="8.949772145739715"><ele>11.0</ele><time>2026-05-02T16:48:26.999Z</time></trkpt><trkpt lat="44.40776043526305" lon="8.949719508167524"><ele>11.0</ele><time>2026-05-02T16:48:27.999Z</time></trkpt><trkpt lat="44.407705471448224" lon="8.949666469151147"><ele>11.0</ele><time>2026-05-02T16:48:28.999Z</time></trkpt><trkpt lat="44.407645730744505" lon="8.949600849417756"><ele>11.0</ele><time>2026-05-02T16:48:29.999Z</time></trkpt><trkpt lat="44.40758498570988" lon="8.949528746036352"><ele>11.0</ele><time>2026-05-02T16:48:30.999Z</time></trkpt><trkpt lat="44.407527730441494" lon="8.9494748611676"><ele>11.0</ele><time>2026-05-02T16:48:31.999Z</time></trkpt><trkpt lat="44.407474985660244" lon="8.949422052237463"><ele>11.0</ele><time>2026-05-02T16:48:32.999Z</time></trkpt><trkpt lat="44.40742355997868" lon="8.949370226867194"><ele>11.0</ele><time>2026-05-02T16:48:33.999Z</time></trkpt><trkpt lat="44.40734908949412" lon="8.949291161929262"><ele>11.0</ele><time>2026-05-02T16:48:35.999Z</time></trkpt><trkpt lat="44.407277323393785" lon="8.949255404383655"><ele>11.0</ele><time>2026-05-02T16:48:37.999Z</time></trkpt><trkpt lat="44.40721627431976" lon="8.949199756356462"><ele>11.200000000000001</ele><time>2026-05-02T16:48:39.999Z</time></trkpt><trkpt lat="44.40715992798107" lon="8.949140869699134"><ele>11.4</ele><time>2026-05-02T16:48:42.999Z</time></trkpt><trkpt lat="44.40711319377529" lon="8.949043040281413"><ele>11.6</ele><time>2026-05-02T16:48:47.999Z</time></trkpt><trkpt lat="44.40707103670777" lon="8.948926063711639"><ele>11.8</ele><time>2026-05-02T16:48:49.999Z</time></trkpt><trkpt lat="44.40699746462297" lon="8.948769304464948"><ele>12.0</ele><time>2026-05-02T16:48:51.999Z</time></trkpt><trkpt lat="44.406932726711396" lon="8.948686996678545"><ele>12.0</ele><time>2026-05-02T16:48:53.999Z</time></trkpt><trkpt lat="44.406888875841815" lon="8.948586795909756"><ele>12.0</ele><time>2026-05-02T16:48:54.999Z</time></trkpt><trkpt lat="44.4068323132726" lon="8.948492728283817"><ele>12.0</ele><time>2026-05-02T16:48:55.999Z</time></trkpt><trkpt lat="44.40678962010238" lon="8.948414105582621"><ele>12.0</ele><time>2026-05-02T16:48:56.999Z</time></trkpt><trkpt lat="44.40667808000249" lon="8.948443984155825"><ele>12.0</ele><time>2026-05-02T16:48:57.999Z</time></trkpt><trkpt lat="44.40661234216501" lon="8.948405447890044"><ele>12.0</ele><time>2026-05-02T16:48:58.999Z</time></trkpt><trkpt lat="44.406529919030916" lon="8.948297461945831"><ele>12.0</ele><time>2026-05-02T16:48:59.999Z</time></trkpt><trkpt lat="44.4064705218826" lon="8.948232053500359"><ele>12.0</ele><time>2026-05-02T16:49:00.999Z</time></trkpt><trkpt lat="44.406406643572176" lon="8.948163545068784"><ele>12.0</ele><time>2026-05-02T16:49:01.999Z</time></trkpt><trkpt lat="44.406317832130696" lon="8.94809315669516"><ele>12.0</ele><time>2026-05-02T16:49:02.999Z</time></trkpt><trkpt lat="44.406210287153954" lon="8.947911654427783"><ele>12.0</ele><time>2026-05-02T16:49:03.999Z</time></trkpt><trkpt lat="44.406096304094945" lon="8.947835771709215"><ele>11.25</ele><time>2026-05-02T16:49:04.999Z</time></trkpt><trkpt lat="44.40597865000297" lon="8.947769695244109"><ele>10.5</ele><time>2026-05-02T16:49:05.999Z</time></trkpt><trkpt lat="44.40589171849392" lon="8.947684580280473"><ele>9.75</ele><time>2026-05-02T16:49:06.999Z</time></trkpt><trkpt lat="44.40579431427192" lon="8.94760160618283"><ele>9.0</ele><time>2026-05-02T16:49:07.999Z</time></trkpt><trkpt lat="44.40569481826065" lon="8.947552474697355"><ele>9.0</ele><time>2026-05-02T16:49:08.999Z</time></trkpt><trkpt lat="44.40558691073237" lon="8.94752325135125"><ele>9.0</ele><time>2026-05-02T16:49:09.999Z</time></trkpt><trkpt lat="44.40548158257642" lon="8.947513703096343"><ele>9.0</ele><time>2026-05-02T16:49:10.999Z</time></trkpt><trkpt lat="44.405377775329846" lon="8.947501991391697"><ele>9.0</ele><time>2026-05-02T16:49:11.999Z</time></trkpt><trkpt lat="44.40527738757107" lon="8.947483990371088"><ele>9.0</ele><time>2026-05-02T16:49:12.999Z</time></trkpt><trkpt lat="44.405173387563394" lon="8.947459269725993"><ele>9.0</ele><time>2026-05-02T16:49:13.999Z</time></trkpt><trkpt lat="44.405069590193435" lon="8.947431651578762"><ele>9.0</ele><time>2026-05-02T16:49:14.999Z</time></trkpt><trkpt lat="44.404970481130896" lon="8.947394338555823"><ele>9.0</ele><time>2026-05-02T16:49:15.999Z</time></trkpt><trkpt lat="44.40486777355312" lon="8.947372573432444"><ele>9.0</ele><time>2026-05-02T16:49:16.999Z</time></trkpt><trkpt lat="44.40478742084167" lon="8.947337337054273"><ele>9.0</ele><time>2026-05-02T16:49:17.999Z</time></trkpt><trkpt lat="44.40471374301503" lon="8.947294020130537"><ele>9.833333333333334</ele><time>2026-05-02T16:49:18.999Z</time></trkpt><trkpt lat="44.40464468062913" lon="8.94726422466046"><ele>10.666666666666668</ele><time>2026-05-02T16:49:19.999Z</time></trkpt><trkpt lat="44.404575004378785" lon="8.947260298659865"><ele>11.5</ele><time>2026-05-02T16:49:20.999Z</time></trkpt><trkpt lat="44.40447778377207" lon="8.947204527908491"><ele>12.333333333333334</ele><time>2026-05-02T16:49:22.999Z</time></trkpt><trkpt lat="44.40440806563415" lon="8.94717413755278"><ele>13.166666666666668</ele><time>2026-05-02T16:49:24.999Z</time></trkpt><trkpt lat="44.404346699094894" lon="8.947144475641187"><ele>14.0</ele><time>2026-05-02T16:49:28.999Z</time></trkpt><trkpt lat="44.40428749356403" lon="8.947098552491964"><ele>14.000000000000002</ele><time>2026-05-02T16:49:55.999Z</time></trkpt><trkpt lat="44.404175826347284" lon="8.947049807073835"><ele>14.0</ele><time>2026-05-02T16:49:58Z</time></trkpt><trkpt lat="44.404105637798004" lon="8.947021990504718"><ele>14.0</ele><time>2026-05-02T16:49:59Z</time></trkpt><trkpt lat="44.40403291413723" lon="8.946989032871778"><ele>14.0</ele><time>2026-05-02T16:50:00Z</time></trkpt><trkpt lat="44.40396945894653" lon="8.94696032966507"><ele>14.000000000000002</ele><time>2026-05-02T16:50:01Z</time></trkpt><trkpt lat="44.403901528860665" lon="8.946924540103446"><ele>14.0</ele><time>2026-05-02T16:50:02Z</time></trkpt><trkpt lat="44.403832380488836" lon="8.946892311668071"><ele>13.666666666666668</ele><time>2026-05-02T16:50:03Z</time></trkpt><trkpt lat="44.40376369080969" lon="8.946865071345462"><ele>13.333333333333334</ele><time>2026-05-02T16:50:04Z</time></trkpt><trkpt lat="44.40369999223079" lon="8.946840200182747"><ele>13.0</ele><time>2026-05-02T16:50:05Z</time></trkpt><trkpt lat="44.403599649790415" lon="8.946794455794963"><ele>12.666666666666668</ele><time>2026-05-02T16:50:07Z</time></trkpt><trkpt lat="44.40352925575339" lon="8.946760161450763"><ele>12.333333333333334</ele><time>2026-05-02T16:50:09Z</time></trkpt><trkpt lat="44.403463577017085" lon="8.946731512068071"><ele>12.0</ele><time>2026-05-02T16:50:12Z</time></trkpt><trkpt lat="44.40339091816313" lon="8.946683228322854"><ele>12.166666666666666</ele><time>2026-05-02T16:51:07.999Z</time></trkpt><trkpt lat="44.403265471507524" lon="8.946615492511993"><ele>12.333333333333332</ele><time>2026-05-02T16:51:09.999Z</time></trkpt><trkpt lat="44.403197218329154" lon="8.946584136990637"><ele>12.5</ele><time>2026-05-02T16:51:10.999Z</time></trkpt><trkpt lat="44.4031322775366" lon="8.946562586414252"><ele>12.666666666666666</ele><time>2026-05-02T16:51:11.999Z</time></trkpt><trkpt lat="44.403065811188505" lon="8.94653394009111"><ele>12.833333333333332</ele><time>2026-05-02T16:51:12.999Z</time></trkpt><trkpt lat="44.40299255042529" lon="8.94650121674134"><ele>13.0</ele><time>2026-05-02T16:51:13.999Z</time></trkpt><trkpt lat="44.40292426634988" lon="8.946471727765248"><ele>12.999999999999998</ele><time>2026-05-02T16:51:14.999Z</time></trkpt><trkpt lat="44.402860533958425" lon="8.946439257058673"><ele>13.0</ele><time>2026-05-02T16:51:15.999Z</time></trkpt><trkpt lat="44.40275697732469" lon="8.946390575058041"><ele>13.0</ele><time>2026-05-02T16:51:17.999Z</time></trkpt><trkpt lat="44.40268469398775" lon="8.946357770555213"><ele>13.0</ele><time>2026-05-02T16:51:19.999Z</time></trkpt><trkpt lat="44.40261654984692" lon="8.946330215896497"><ele>12.999999999999998</ele><time>2026-05-02T16:51:26.999Z</time></trkpt><trkpt lat="44.402507180185324" lon="8.946268062953063"><ele>13.0</ele><time>2026-05-02T16:51:28.999Z</time></trkpt><trkpt lat="44.40238846966862" lon="8.946203895829596"><ele>12.999999999999998</ele><time>2026-05-02T16:51:30.999Z</time></trkpt><trkpt lat="44.40231810326909" lon="8.946168478177984"><ele>13.0</ele><time>2026-05-02T16:51:31.999Z</time></trkpt><trkpt lat="44.40223778811194" lon="8.946130235933937"><ele>13.0</ele><time>2026-05-02T16:51:32.999Z</time></trkpt><trkpt lat="44.40215061494832" lon="8.946089487947376"><ele>13.0</ele><time>2026-05-02T16:51:33.999Z</time></trkpt><trkpt lat="44.402069919008916" lon="8.94605017304282"><ele>12.999999999999998</ele><time>2026-05-02T16:51:34.999Z</time></trkpt><trkpt lat="44.40199484371311" lon="8.946013377182327"><ele>13.0</ele><time>2026-05-02T16:51:35.999Z</time></trkpt><trkpt lat="44.40190958897652" lon="8.945973293790754"><ele>13.25</ele><time>2026-05-02T16:51:36.999Z</time></trkpt><trkpt lat="44.40180708421989" lon="8.945925458400469"><ele>13.5</ele><time>2026-05-02T16:51:37.999Z</time></trkpt><trkpt lat="44.40168187873689" lon="8.945868914365906"><ele>13.75</ele><time>2026-05-02T16:51:38.999Z</time></trkpt><trkpt lat="44.401554397140835" lon="8.9458188008278"><ele>14.0</ele><time>2026-05-02T16:51:39.999Z</time></trkpt><trkpt lat="44.401450438823865" lon="8.945764186864476"><ele>14.2</ele><time>2026-05-02T16:51:40.999Z</time></trkpt><trkpt lat="44.401360337748784" lon="8.945723407558836"><ele>14.399999999999999</ele><time>2026-05-02T16:51:41.999Z</time></trkpt><trkpt lat="44.40127926229479" lon="8.945687910990614"><ele>14.6</ele><time>2026-05-02T16:51:42.999Z</time></trkpt><trkpt lat="44.40118897451649" lon="8.94564718371285"><ele>14.8</ele><time>2026-05-02T16:51:43.999Z</time></trkpt><trkpt lat="44.40109034214249" lon="8.945605896866564"><ele>15.0</ele><time>2026-05-02T16:51:44.999Z</time></trkpt><trkpt lat="44.40099011311631" lon="8.945558482977363"><ele>14.0</ele><time>2026-05-02T16:51:45.999Z</time></trkpt><trkpt lat="44.40088406401768" lon="8.945512261715873"><ele>13.0</ele><time>2026-05-02T16:51:46.999Z</time></trkpt><trkpt lat="44.40077739151195" lon="8.945461240325368"><ele>12.0</ele><time>2026-05-02T16:51:47.999Z</time></trkpt><trkpt lat="44.40067715578648" lon="8.945414263915026"><ele>11.0</ele><time>2026-05-02T16:51:48.999Z</time></trkpt><trkpt lat="44.40058105739555" lon="8.945369849408351"><ele>10.0</ele><time>2026-05-02T16:51:49.999Z</time></trkpt><trkpt lat="44.400500743307894" lon="8.945334390855512"><ele>10.166666666666668</ele><time>2026-05-02T16:51:50.999Z</time></trkpt><trkpt lat="44.400419779892744" lon="8.945297925190987"><ele>10.333333333333334</ele><time>2026-05-02T16:51:51.999Z</time></trkpt><trkpt lat="44.40034689827768" lon="8.945263800181122"><ele>10.5</ele><time>2026-05-02T16:51:52.999Z</time></trkpt><trkpt lat="44.400281679947255" lon="8.94523618135112"><ele>10.666666666666666</ele><time>2026-05-02T16:51:53.999Z</time></trkpt><trkpt lat="44.40021455684162" lon="8.945203225758364"><ele>10.833333333333332</ele><time>2026-05-02T16:51:56.999Z</time></trkpt><trkpt lat="44.40013674338305" lon="8.94515982295167"><ele>11.0</ele><time>2026-05-02T16:51:59.999Z</time></trkpt><trkpt lat="44.400029152458565" lon="8.94509431919056"><ele>10.833333333333332</ele><time>2026-05-02T16:52:01.999Z</time></trkpt><trkpt lat="44.3999182412262" lon="8.945043756764417"><ele>10.666666666666666</ele><time>2026-05-02T16:52:04Z</time></trkpt><trkpt lat="44.399801121006405" lon="8.944983565937182"><ele>10.5</ele><time>2026-05-02T16:52:06Z</time></trkpt><trkpt lat="44.39973940208623" lon="8.944952918566447"><ele>10.333333333333334</ele><time>2026-05-02T16:52:07Z</time></trkpt><trkpt lat="44.39967514082135" lon="8.944926382813494"><ele>10.166666666666668</ele><time>2026-05-02T16:52:08Z</time></trkpt><trkpt lat="44.39961293320772" lon="8.944901106081264"><ele>10.0</ele><time>2026-05-02T16:52:09Z</time></trkpt><trkpt lat="44.39949393851184" lon="8.94484782465715"><ele>10.285714285714285</ele><time>2026-05-02T16:52:11Z</time></trkpt><trkpt lat="44.399433563108815" lon="8.94482201896796"><ele>10.571428571428571</ele><time>2026-05-02T16:52:12Z</time></trkpt><trkpt lat="44.399371653208156" lon="8.944793805704707"><ele>10.857142857142858</ele><time>2026-05-02T16:52:13Z</time></trkpt><trkpt lat="44.399310264126704" lon="8.944763493629601"><ele>11.142857142857142</ele><time>2026-05-02T16:52:14Z</time></trkpt><trkpt lat="44.39924780521814" lon="8.94473168680059"><ele>11.428571428571429</ele><time>2026-05-02T16:52:15Z</time></trkpt><trkpt lat="44.39918501389366" lon="8.944701233426612"><ele>11.714285714285714</ele><time>2026-05-02T16:52:16Z</time></trkpt><trkpt lat="44.39912247754127" lon="8.94467310524952"><ele>12.0</ele><time>2026-05-02T16:52:17Z</time></trkpt><trkpt lat="44.39905673310794" lon="8.944643310201288"><ele>12.0</ele><time>2026-05-02T16:52:18Z</time></trkpt><trkpt lat="44.39898274506837" lon="8.944607507975672"><ele>12.0</ele><time>2026-05-02T16:52:19Z</time></trkpt><trkpt lat="44.3989047194857" lon="8.944570707651485"><ele>12.0</ele><time>2026-05-02T16:52:20Z</time></trkpt><trkpt lat="44.398838136648585" lon="8.94454397744286"><ele>12.0</ele><time>2026-05-02T16:52:21Z</time></trkpt><trkpt lat="44.39873834013429" lon="8.944490536313223"><ele>12.0</ele><time>2026-05-02T16:52:23Z</time></trkpt><trkpt lat="44.39857375184518" lon="8.944415984732728"><ele>12.666666666666668</ele><time>2026-05-02T16:52:25Z</time></trkpt><trkpt lat="44.398430087209796" lon="8.944365034199393"><ele>13.333333333333334</ele><time>2026-05-02T16:52:25.999Z</time></trkpt><trkpt lat="44.39827733843073" lon="8.944300394355757"><ele>14.0</ele><time>2026-05-02T16:52:26.999Z</time></trkpt><trkpt lat="44.39811032779568" lon="8.944222385788281"><ele>13.333333333333334</ele><time>2026-05-02T16:52:27.999Z</time></trkpt><trkpt lat="44.39794943228537" lon="8.94414052003899"><ele>12.666666666666668</ele><time>2026-05-02T16:52:28.999Z</time></trkpt><trkpt lat="44.39781005159212" lon="8.944062297472188"><ele>12.0</ele><time>2026-05-02T16:52:29.999Z</time></trkpt><trkpt lat="44.397679411958386" lon="8.943992542592957"><ele>12.0</ele><time>2026-05-02T16:52:30.999Z</time></trkpt><trkpt lat="44.397559300588945" lon="8.943931619165337"><ele>12.0</ele><time>2026-05-02T16:52:31.999Z</time></trkpt><trkpt lat="44.39745546742203" lon="8.943884697012479"><ele>12.0</ele><time>2026-05-02T16:52:32.999Z</time></trkpt><trkpt lat="44.397364228276246" lon="8.943840505627579"><ele>12.0</ele><time>2026-05-02T16:52:33.999Z</time></trkpt><trkpt lat="44.39728079026126" lon="8.943791713098323"><ele>12.0</ele><time>2026-05-02T16:52:34.999Z</time></trkpt><trkpt lat="44.397202613723124" lon="8.943754594379705"><ele>13.333333333333334</ele><time>2026-05-02T16:52:35.999Z</time></trkpt><trkpt lat="44.39712532098267" lon="8.943716260671692"><ele>14.666666666666668</ele><time>2026-05-02T16:52:36.999Z</time></trkpt><trkpt lat="44.397053364786345" lon="8.943683319876861"><ele>16.0</ele><time>2026-05-02T16:52:37.999Z</time></trkpt><trkpt lat="44.396991649346006" lon="8.943654993799255"><ele>17.333333333333336</ele><time>2026-05-02T16:52:38.999Z</time></trkpt><trkpt lat="44.39688862270422" lon="8.94360972709104"><ele>18.666666666666668</ele><time>2026-05-02T16:52:40.999Z</time></trkpt><trkpt lat="44.39681288588082" lon="8.943567703370238"><ele>20.0</ele><time>2026-05-02T16:52:42.999Z</time></trkpt><trkpt lat="44.39672855858772" lon="8.943536889209499"><ele>20.0</ele><time>2026-05-02T16:53:09.999Z</time></trkpt><trkpt lat="44.396609598037784" lon="8.943463204296295"><ele>20.0</ele><time>2026-05-02T16:53:11.999Z</time></trkpt><trkpt lat="44.396555961032576" lon="8.943371151511885"><ele>20.0</ele><time>2026-05-02T16:53:12.999Z</time></trkpt><trkpt lat="44.396522896968705" lon="8.943261916493286"><ele>20.0</ele><time>2026-05-02T16:53:13.999Z</time></trkpt><trkpt lat="44.396513408643905" lon="8.943133575414532"><ele>20.0</ele><time>2026-05-02T16:53:14.999Z</time></trkpt><trkpt lat="44.3965260133986" lon="8.943003575897196"><ele>18.0</ele><time>2026-05-02T16:53:15.999Z</time></trkpt><trkpt lat="44.396548670523146" lon="8.942877761208763"><ele>16.0</ele><time>2026-05-02T16:53:16.999Z</time></trkpt><trkpt lat="44.39657239821669" lon="8.942748705896571"><ele>14.0</ele><time>2026-05-02T16:53:17.999Z</time></trkpt><trkpt lat="44.396592052429305" lon="8.942613953135206"><ele>12.0</ele><time>2026-05-02T16:53:18.999Z</time></trkpt><trkpt lat="44.39661091012631" lon="8.942479751006218"><ele>10.0</ele><time>2026-05-02T16:53:19.999Z</time></trkpt><trkpt lat="44.39662668512629" lon="8.942344669815085"><ele>10.0</ele><time>2026-05-02T16:53:20.999Z</time></trkpt><trkpt lat="44.39664224167692" lon="8.94221300753095"><ele>10.0</ele><time>2026-05-02T16:53:21.999Z</time></trkpt><trkpt lat="44.39665841739964" lon="8.942082388891055"><ele>10.0</ele><time>2026-05-02T16:53:22.999Z</time></trkpt><trkpt lat="44.39667446354997" lon="8.941959029815731"><ele>10.0</ele><time>2026-05-02T16:53:23.999Z</time></trkpt><trkpt lat="44.396691434921124" lon="8.941839558817803"><ele>10.0</ele><time>2026-05-02T16:53:24.999Z</time></trkpt><trkpt lat="44.396709630346415" lon="8.941720227947577"><ele>11.2</ele><time>2026-05-02T16:53:25.999Z</time></trkpt><trkpt lat="44.39673388932359" lon="8.941594437253533"><ele>12.4</ele><time>2026-05-02T16:53:26.999Z</time></trkpt><trkpt lat="44.39675985583506" lon="8.941459473751818"><ele>13.600000000000001</ele><time>2026-05-02T16:53:27.999Z</time></trkpt><trkpt lat="44.396783680077554" lon="8.941318889607013"><ele>14.8</ele><time>2026-05-02T16:53:28.999Z</time></trkpt><trkpt lat="44.39680849929558" lon="8.94117974397698"><ele>16.0</ele><time>2026-05-02T16:53:29.999Z</time></trkpt><trkpt lat="44.39683297653886" lon="8.941040476738157"><ele>16.0</ele><time>2026-05-02T16:53:30.999Z</time></trkpt><trkpt lat="44.39686083815283" lon="8.940903278516535"><ele>16.0</ele><time>2026-05-02T16:53:31.999Z</time></trkpt><trkpt lat="44.39688912449258" lon="8.940765187990337"><ele>16.0</ele><time>2026-05-02T16:53:32.999Z</time></trkpt><trkpt lat="44.39692433263415" lon="8.940630119505178"><ele>16.0</ele><time>2026-05-02T16:53:33.999Z</time></trkpt><trkpt lat="44.396965664426574" lon="8.940496286836648"><ele>16.0</ele><time>2026-05-02T16:53:34.999Z</time></trkpt><trkpt lat="44.39701395948552" lon="8.940365081211189"><ele>15.600000000000001</ele><time>2026-05-02T16:53:35.999Z</time></trkpt><trkpt lat="44.397068380620034" lon="8.940235669663846"><ele>15.200000000000001</ele><time>2026-05-02T16:53:36.999Z</time></trkpt><trkpt lat="44.39712717012285" lon="8.940108784582344"><ele>14.799999999999999</ele><time>2026-05-02T16:53:37.999Z</time></trkpt><trkpt lat="44.397193600013686" lon="8.939985292275624"><ele>14.399999999999999</ele><time>2026-05-02T16:53:38.999Z</time></trkpt><trkpt lat="44.397260371412436" lon="8.939860719316826"><ele>14.0</ele><time>2026-05-02T16:53:39.999Z</time></trkpt><trkpt lat="44.39732156058055" lon="8.9397271668844"><ele>14.25</ele><time>2026-05-02T16:53:40.999Z</time></trkpt><trkpt lat="44.39737794954309" lon="8.939590824677163"><ele>14.5</ele><time>2026-05-02T16:53:41.999Z</time></trkpt><trkpt lat="44.39743296939427" lon="8.939445335396393"><ele>14.75</ele><time>2026-05-02T16:53:42.999Z</time></trkpt><trkpt lat="44.397479736680616" lon="8.939295532779"><ele>15.0</ele><time>2026-05-02T16:53:43.999Z</time></trkpt><trkpt lat="44.397522564382825" lon="8.93914381988457"><ele>15.0</ele><time>2026-05-02T16:53:44.999Z</time></trkpt><trkpt lat="44.39755963537765" lon="8.938988446153044"><ele>15.0</ele><time>2026-05-02T16:53:45.999Z</time></trkpt><trkpt lat="44.397591545046765" lon="8.938834305015043"><ele>15.0</ele><time>2026-05-02T16:53:46.999Z</time></trkpt><trkpt lat="44.397620201828616" lon="8.938683142512224"><ele>15.0</ele><time>2026-05-02T16:53:47.999Z</time></trkpt><trkpt lat="44.397642633059654" lon="8.938532277827417"><ele>15.0</ele><time>2026-05-02T16:53:48.999Z</time></trkpt><trkpt lat="44.3976621343638" lon="8.938384510509612"><ele>15.0</ele><time>2026-05-02T16:53:49.999Z</time></trkpt><trkpt lat="44.397679771257785" lon="8.938238933516784"><ele>15.0</ele><time>2026-05-02T16:53:50.999Z</time></trkpt><trkpt lat="44.39769776599843" lon="8.938092179175946"><ele>15.0</ele><time>2026-05-02T16:53:51.999Z</time></trkpt><trkpt lat="44.39771473306494" lon="8.937942888457012"><ele>15.0</ele><time>2026-05-02T16:53:52.999Z</time></trkpt><trkpt lat="44.39773411377245" lon="8.937787484196177"><ele>15.0</ele><time>2026-05-02T16:53:53.999Z</time></trkpt><trkpt lat="44.39775462809028" lon="8.937627629949715"><ele>15.0</ele><time>2026-05-02T16:53:54.999Z</time></trkpt><trkpt lat="44.397774606928564" lon="8.937465121653814"><ele>15.0</ele><time>2026-05-02T16:53:55.999Z</time></trkpt><trkpt lat="44.39779419336184" lon="8.937306476254987"><ele>15.0</ele><time>2026-05-02T16:53:56.999Z</time></trkpt><trkpt lat="44.3978130439816" lon="8.93715484803999"><ele>15.4</ele><time>2026-05-02T16:53:57.999Z</time></trkpt><trkpt lat="44.39783137227487" lon="8.937002644412347"><ele>15.8</ele><time>2026-05-02T16:53:58.999Z</time></trkpt><trkpt lat="44.397849821840396" lon="8.936848721237801"><ele>16.2</ele><time>2026-05-02T16:53:59.999Z</time></trkpt><trkpt lat="44.39786875640945" lon="8.936701096682848"><ele>16.6</ele><time>2026-05-02T16:54:00.999Z</time></trkpt><trkpt lat="44.397892438216026" lon="8.93655481205567"><ele>17.0</ele><time>2026-05-02T16:54:01.999Z</time></trkpt><trkpt lat="44.39791687973033" lon="8.936408975647563"><ele>17.8</ele><time>2026-05-02T16:54:02.999Z</time></trkpt><trkpt lat="44.397941753724794" lon="8.936266118966433"><ele>18.6</ele><time>2026-05-02T16:54:03.999Z</time></trkpt><trkpt lat="44.3979704047986" lon="8.936123306442656"><ele>19.400000000000002</ele><time>2026-05-02T16:54:04.999Z</time></trkpt><trkpt lat="44.398001568541424" lon="8.93597627122867"><ele>20.2</ele><time>2026-05-02T16:54:05.999Z</time></trkpt><trkpt lat="44.39803750183299" lon="8.935828116810857"><ele>21.0</ele><time>2026-05-02T16:54:06.999Z</time></trkpt><trkpt lat="44.398076438639684" lon="8.935679216383804"><ele>21.0</ele><time>2026-05-02T16:54:07.999Z</time></trkpt><trkpt lat="44.398117801534305" lon="8.935536901501234"><ele>21.0</ele><time>2026-05-02T16:54:08.999Z</time></trkpt><trkpt lat="44.39816480863772" lon="8.935393281636784"><ele>21.0</ele><time>2026-05-02T16:54:10Z</time></trkpt><trkpt lat="44.39821456416124" lon="8.935252041178328"><ele>21.0</ele><time>2026-05-02T16:54:11Z</time></trkpt><trkpt lat="44.39826883414896" lon="8.935113018627757"><ele>21.0</ele><time>2026-05-02T16:54:12Z</time></trkpt><trkpt lat="44.398323610530255" lon="8.934972184451695"><ele>18.2</ele><time>2026-05-02T16:54:13Z</time></trkpt><trkpt lat="44.39838109648165" lon="8.934838639327168"><ele>15.400000000000002</ele><time>2026-05-02T16:54:14Z</time></trkpt><trkpt lat="44.39844091130178" lon="8.934708147594954"><ele>12.6</ele><time>2026-05-02T16:54:15Z</time></trkpt><trkpt lat="44.398503980159056" lon="8.934581923599877"><ele>9.8</ele><time>2026-05-02T16:54:16Z</time></trkpt><trkpt lat="44.39856772139362" lon="8.934457931618878"><ele>7.0</ele><time>2026-05-02T16:54:17Z</time></trkpt><trkpt lat="44.398633962158144" lon="8.934332741925047"><ele>6.3999999999999995</ele><time>2026-05-02T16:54:18Z</time></trkpt><trkpt lat="44.398701136766434" lon="8.934208683346533"><ele>5.799999999999999</ele><time>2026-05-02T16:54:19Z</time></trkpt><trkpt lat="44.39876635332931" lon="8.93408750296612"><ele>5.2</ele><time>2026-05-02T16:54:19.999Z</time></trkpt><trkpt lat="44.39883421885299" lon="8.933974873047676"><ele>4.6</ele><time>2026-05-02T16:54:20.999Z</time></trkpt><trkpt lat="44.39890759413022" lon="8.933867821062956"><ele>4.0</ele><time>2026-05-02T16:54:22Z</time></trkpt><trkpt lat="44.39898825793956" lon="8.933762421567824"><ele>4.800000000000001</ele><time>2026-05-02T16:54:23Z</time></trkpt><trkpt lat="44.39906993180064" lon="8.933664137472878"><ele>5.6000000000000005</ele><time>2026-05-02T16:54:24Z</time></trkpt><trkpt lat="44.39915484790759" lon="8.933568086347485"><ele>6.4</ele><time>2026-05-02T16:54:25Z</time></trkpt><trkpt lat="44.39924381679144" lon="8.933476896794138"><ele>7.2</ele><time>2026-05-02T16:54:26Z</time></trkpt><trkpt lat="44.3993374346529" lon="8.93339171677605"><ele>8.0</ele><time>2026-05-02T16:54:27Z</time></trkpt><trkpt lat="44.39943603006216" lon="8.933310404140592"><ele>8.0</ele><time>2026-05-02T16:54:28Z</time></trkpt><trkpt lat="44.39953618170719" lon="8.933234591560813"><ele>8.0</ele><time>2026-05-02T16:54:28.999Z</time></trkpt><trkpt lat="44.39963962350518" lon="8.93315671883814"><ele>8.0</ele><time>2026-05-02T16:54:29.999Z</time></trkpt><trkpt lat="44.39975086830655" lon="8.933063264014539"><ele>8.0</ele><time>2026-05-02T16:54:30.999Z</time></trkpt><trkpt lat="44.39987046043815" lon="8.932955836956971"><ele>7.5</ele><time>2026-05-02T16:54:31.999Z</time></trkpt><trkpt lat="44.39998911427953" lon="8.932852679941425"><ele>7.0</ele><time>2026-05-02T16:54:32.999Z</time></trkpt><trkpt lat="44.40009375509196" lon="8.93275135516961"><ele>6.5</ele><time>2026-05-02T16:54:33.999Z</time></trkpt><trkpt lat="44.400196406245705" lon="8.93263514375833"><ele>6.0</ele><time>2026-05-02T16:54:34.999Z</time></trkpt><trkpt lat="44.40030164719147" lon="8.932518003413243"><ele>6.0</ele><time>2026-05-02T16:54:35.999Z</time></trkpt><trkpt lat="44.40040319081733" lon="8.93240806829016"><ele>6.0</ele><time>2026-05-02T16:54:36.999Z</time></trkpt><trkpt lat="44.40050304051161" lon="8.932300113583947"><ele>6.0</ele><time>2026-05-02T16:54:37.999Z</time></trkpt><trkpt lat="44.40060868371397" lon="8.932189546688834"><ele>6.0</ele><time>2026-05-02T16:54:38.999Z</time></trkpt><trkpt lat="44.40071753798363" lon="8.932082494720788"><ele>12.0</ele><time>2026-05-02T16:54:39.999Z</time></trkpt><trkpt lat="44.40083167662129" lon="8.931986003090271"><ele>18.0</ele><time>2026-05-02T16:54:40.999Z</time></trkpt><trkpt lat="44.40094924557947" lon="8.931902997049233"><ele>24.0</ele><time>2026-05-02T16:54:41.999Z</time></trkpt><trkpt lat="44.401070440439796" lon="8.93182748789117"><ele>30.0</ele><time>2026-05-02T16:54:42.999Z</time></trkpt><trkpt lat="44.40119245436197" lon="8.931756048591762"><ele>27.75</ele><time>2026-05-02T16:54:43.999Z</time></trkpt><trkpt lat="44.40131239281639" lon="8.931677493803601"><ele>25.5</ele><time>2026-05-02T16:54:44.999Z</time></trkpt><trkpt lat="44.40143275207364" lon="8.931600514589714"><ele>23.25</ele><time>2026-05-02T16:54:45.999Z</time></trkpt><trkpt lat="44.40155507751595" lon="8.931522910086851"><ele>21.0</ele><time>2026-05-02T16:54:46.999Z</time></trkpt><trkpt lat="44.401675667254175" lon="8.931442620225418"><ele>21.0</ele><time>2026-05-02T16:54:47.999Z</time></trkpt><trkpt lat="44.40179304016006" lon="8.931365373061912"><ele>21.0</ele><time>2026-05-02T16:54:48.999Z</time></trkpt><trkpt lat="44.401921504854606" lon="8.931289329669125"><ele>21.0</ele><time>2026-05-02T16:54:49.999Z</time></trkpt><trkpt lat="44.402041929534846" lon="8.931211454473392"><ele>21.0</ele><time>2026-05-02T16:54:50.999Z</time></trkpt><trkpt lat="44.4021596415778" lon="8.93113071145639"><ele>19.25</ele><time>2026-05-02T16:54:51.999Z</time></trkpt><trkpt lat="44.402278254164365" lon="8.931049294343993"><ele>17.5</ele><time>2026-05-02T16:54:52.999Z</time></trkpt><trkpt lat="44.40239718458898" lon="8.930967643055075"><ele>15.75</ele><time>2026-05-02T16:54:53.999Z</time></trkpt><trkpt lat="44.402511446839114" lon="8.930874989610519"><ele>14.0</ele><time>2026-05-02T16:54:54.999Z</time></trkpt><trkpt lat="44.4026217793834" lon="8.930769641520936"><ele>12.75</ele><time>2026-05-02T16:54:55.999Z</time></trkpt><trkpt lat="44.40272854883161" lon="8.9306609971258"><ele>11.5</ele><time>2026-05-02T16:54:56.999Z</time></trkpt><trkpt lat="44.40283788558206" lon="8.930548895481449"><ele>10.25</ele><time>2026-05-02T16:54:57.999Z</time></trkpt><trkpt lat="44.402939314515905" lon="8.930439012978344"><ele>9.0</ele><time>2026-05-02T16:54:58.999Z</time></trkpt><trkpt lat="44.4030492138628" lon="8.930326429720946"><ele>9.0</ele><time>2026-05-02T16:54:59.999Z</time></trkpt><trkpt lat="44.403158096598574" lon="8.930220164963885"><ele>9.0</ele><time>2026-05-02T16:55:00.999Z</time></trkpt><trkpt lat="44.403269192216094" lon="8.930120293210566"><ele>9.0</ele><time>2026-05-02T16:55:01.999Z</time></trkpt><trkpt lat="44.403380043368514" lon="8.930018180375525"><ele>9.0</ele><time>2026-05-02T16:55:02.999Z</time></trkpt><trkpt lat="44.403490477207555" lon="8.929915292462791"><ele>9.25</ele><time>2026-05-02T16:55:03.999Z</time></trkpt><trkpt lat="44.40359793648115" lon="8.929811961625182"><ele>9.5</ele><time>2026-05-02T16:55:04.999Z</time></trkpt><trkpt lat="44.40371130878237" lon="8.929707178918415"><ele>9.75</ele><time>2026-05-02T16:55:05.999Z</time></trkpt><trkpt lat="44.403818205485635" lon="8.929599027685548"><ele>10.0</ele><time>2026-05-02T16:55:06.999Z</time></trkpt><trkpt lat="44.40392325888392" lon="8.929489180054956"><ele>10.5</ele><time>2026-05-02T16:55:07.999Z</time></trkpt><trkpt lat="44.40402606841656" lon="8.929371153342302"><ele>11.0</ele><time>2026-05-02T16:55:08.999Z</time></trkpt><trkpt lat="44.404133775400844" lon="8.929246495566709"><ele>11.5</ele><time>2026-05-02T16:55:09.999Z</time></trkpt><trkpt lat="44.404239551883215" lon="8.929129024731429"><ele>12.0</ele><time>2026-05-02T16:55:10.999Z</time></trkpt><trkpt lat="44.40434298579079" lon="8.92901454738276"><ele>12.0</ele><time>2026-05-02T16:55:11.999Z</time></trkpt><trkpt lat="44.40444829045352" lon="8.928899863468862"><ele>12.0</ele><time>2026-05-02T16:55:12.999Z</time></trkpt><trkpt lat="44.40454945680377" lon="8.928785088917172"><ele>12.0</ele><time>2026-05-02T16:55:13.999Z</time></trkpt><trkpt lat="44.40465330624284" lon="8.928668415962242"><ele>12.0</ele><time>2026-05-02T16:55:14.999Z</time></trkpt><trkpt lat="44.404755678090005" lon="8.928551854148584"><ele>12.0</ele><time>2026-05-02T16:55:15.999Z</time></trkpt><trkpt lat="44.40486253469547" lon="8.92843442499858"><ele>12.0</ele><time>2026-05-02T16:55:16.999Z</time></trkpt><trkpt lat="44.404968694776954" lon="8.928320534554924"><ele>12.0</ele><time>2026-05-02T16:55:17.999Z</time></trkpt><trkpt lat="44.40507631268177" lon="8.928210882665764"><ele>12.0</ele><time>2026-05-02T16:55:18.999Z</time></trkpt><trkpt lat="44.405185970245725" lon="8.928104463170222"><ele>12.0</ele><time>2026-05-02T16:55:19.999Z</time></trkpt><trkpt lat="44.40530093913371" lon="8.928008659878712"><ele>12.0</ele><time>2026-05-02T16:55:20.999Z</time></trkpt><trkpt lat="44.4054191735423" lon="8.927922578909616"><ele>12.0</ele><time>2026-05-02T16:55:21.999Z</time></trkpt><trkpt lat="44.40554073063308" lon="8.927843307261098"><ele>12.0</ele><time>2026-05-02T16:55:22.999Z</time></trkpt><trkpt lat="44.40566405764362" lon="8.927774481245423"><ele>14.5</ele><time>2026-05-02T16:55:23.999Z</time></trkpt><trkpt lat="44.405792429979606" lon="8.927712841621315"><ele>17.0</ele><time>2026-05-02T16:55:24.999Z</time></trkpt><trkpt lat="44.405926710563186" lon="8.927664704709489"><ele>19.5</ele><time>2026-05-02T16:55:25.999Z</time></trkpt><trkpt lat="44.40606262793249" lon="8.927624243776455"><ele>22.0</ele><time>2026-05-02T16:55:26.999Z</time></trkpt><trkpt lat="44.40620243218674" lon="8.92759488940259"><ele>21.25</ele><time>2026-05-02T16:55:27.999Z</time></trkpt><trkpt lat="44.406344372267135" lon="8.927580303155175"><ele>20.5</ele><time>2026-05-02T16:55:28.999Z</time></trkpt><trkpt lat="44.406485416719775" lon="8.927577408056525"><ele>19.75</ele><time>2026-05-02T16:55:29.999Z</time></trkpt><trkpt lat="44.406625793150305" lon="8.92758621902989"><ele>19.0</ele><time>2026-05-02T16:55:30.999Z</time></trkpt><trkpt lat="44.40676471730389" lon="8.927603652603803"><ele>19.0</ele><time>2026-05-02T16:55:31.999Z</time></trkpt><trkpt lat="44.406904827019865" lon="8.927633387903159"><ele>19.0</ele><time>2026-05-02T16:55:32.999Z</time></trkpt><trkpt lat="44.407041958425204" lon="8.927679365758301"><ele>19.0</ele><time>2026-05-02T16:55:33.999Z</time></trkpt><trkpt lat="44.40717553547344" lon="8.92773993104941"><ele>19.0</ele><time>2026-05-02T16:55:34.999Z</time></trkpt><trkpt lat="44.40730802509735" lon="8.927803005785309"><ele>17.0</ele><time>2026-05-02T16:55:35.999Z</time></trkpt><trkpt lat="44.40744215221781" lon="8.92786495559472"><ele>15.0</ele><time>2026-05-02T16:55:36.999Z</time></trkpt><trkpt lat="44.407575321987345" lon="8.927927320731031"><ele>13.0</ele><time>2026-05-02T16:55:37.999Z</time></trkpt><trkpt lat="44.40770807402082" lon="8.92798885102427"><ele>11.0</ele><time>2026-05-02T16:55:38.999Z</time></trkpt><trkpt lat="44.40784014055794" lon="8.928050204403974"><ele>11.0</ele><time>2026-05-02T16:55:39.999Z</time></trkpt><trkpt lat="44.40797269473365" lon="8.928108007089936"><ele>11.0</ele><time>2026-05-02T16:55:40.999Z</time></trkpt><trkpt lat="44.40810695010805" lon="8.928159626498193"><ele>11.0</ele><time>2026-05-02T16:55:41.999Z</time></trkpt><trkpt lat="44.408244147131626" lon="8.92819155588037"><ele>11.0</ele><time>2026-05-02T16:55:42.999Z</time></trkpt><trkpt lat="44.40838289852949" lon="8.928203059780941"><ele>10.25</ele><time>2026-05-02T16:55:43.999Z</time></trkpt><trkpt lat="44.40852271352259" lon="8.928205693886012"><ele>9.5</ele><time>2026-05-02T16:55:44.999Z</time></trkpt><trkpt lat="44.40866266564247" lon="8.928209276049824"><ele>8.75</ele><time>2026-05-02T16:55:45.999Z</time></trkpt><trkpt lat="44.408803065297974" lon="8.928213974098608"><ele>8.0</ele><time>2026-05-02T16:55:46.999Z</time></trkpt><trkpt lat="44.40894265093836" lon="8.92822110869024"><ele>7.75</ele><time>2026-05-02T16:55:47.999Z</time></trkpt><trkpt lat="44.40908462748883" lon="8.928227602629526"><ele>7.5</ele><time>2026-05-02T16:55:48.999Z</time></trkpt><trkpt lat="44.40922496071514" lon="8.928230358150492"><ele>7.25</ele><time>2026-05-02T16:55:49.999Z</time></trkpt><trkpt lat="44.409365720131525" lon="8.928234063704565"><ele>7.0</ele><time>2026-05-02T16:55:50.999Z</time></trkpt><trkpt lat="44.40950669451745" lon="8.928239632268522"><ele>7.0</ele><time>2026-05-02T16:55:51.999Z</time></trkpt><trkpt lat="44.40964618795154" lon="8.928243424122149"><ele>7.0</ele><time>2026-05-02T16:55:52.999Z</time></trkpt><trkpt lat="44.40978570352968" lon="8.928246881180385"><ele>7.0</ele><time>2026-05-02T16:55:53.999Z</time></trkpt><trkpt lat="44.40992621601667" lon="8.928251893430277"><ele>7.0</ele><time>2026-05-02T16:55:54.999Z</time></trkpt><trkpt lat="44.410066645450776" lon="8.928258444957933"><ele>7.5</ele><time>2026-05-02T16:55:55.999Z</time></trkpt><trkpt lat="44.41020662709803" lon="8.928260088397414"><ele>8.0</ele><time>2026-05-02T16:55:56.999Z</time></trkpt><trkpt lat="44.41034663913902" lon="8.928256588975323"><ele>8.5</ele><time>2026-05-02T16:55:57.999Z</time></trkpt><trkpt lat="44.41048640122346" lon="8.928246165240534"><ele>9.0</ele><time>2026-05-02T16:55:58.999Z</time></trkpt><trkpt lat="44.41062583970038" lon="8.92822536537773"><ele>9.0</ele><time>2026-05-02T16:55:59.999Z</time></trkpt><trkpt lat="44.41076430481996" lon="8.92819355760414"><ele>9.0</ele><time>2026-05-02T16:56:00.999Z</time></trkpt><trkpt lat="44.410901900405484" lon="8.928153951799844"><ele>9.0</ele><time>2026-05-02T16:56:01.999Z</time></trkpt><trkpt lat="44.41103760274289" lon="8.928105000956187"><ele>9.0</ele><time>2026-05-02T16:56:02.999Z</time></trkpt><trkpt lat="44.41117004447593" lon="8.928049400828625"><ele>9.0</ele><time>2026-05-02T16:56:03.999Z</time></trkpt><trkpt lat="44.41130002189784" lon="8.927982589489478"><ele>9.0</ele><time>2026-05-02T16:56:04.999Z</time></trkpt><trkpt lat="44.41142931158609" lon="8.92790489970033"><ele>9.0</ele><time>2026-05-02T16:56:05.999Z</time></trkpt><trkpt lat="44.411554649032105" lon="8.927817666568284"><ele>9.0</ele><time>2026-05-02T16:56:06.999Z</time></trkpt><trkpt lat="44.41167720039755" lon="8.927727173059928"><ele>8.25</ele><time>2026-05-02T16:56:07.999Z</time></trkpt><trkpt lat="44.41180071380816" lon="8.927631758461187"><ele>7.5</ele><time>2026-05-02T16:56:08.999Z</time></trkpt><trkpt lat="44.411924669508686" lon="8.927536570261564"><ele>6.75</ele><time>2026-05-02T16:56:09.999Z</time></trkpt><trkpt lat="44.41204790213011" lon="8.927442868894714"><ele>6.0</ele><time>2026-05-02T16:56:10.999Z</time></trkpt><trkpt lat="44.41217230397947" lon="8.927347289616085"><ele>8.5</ele><time>2026-05-02T16:56:11.999Z</time></trkpt><trkpt lat="44.41229426575213" lon="8.927249753178112"><ele>11.0</ele><time>2026-05-02T16:56:12.999Z</time></trkpt><trkpt lat="44.41241354305718" lon="8.927146687637565"><ele>13.5</ele><time>2026-05-02T16:56:13.999Z</time></trkpt><trkpt lat="44.41253016517304" lon="8.92703818167611"><ele>16.0</ele><time>2026-05-02T16:56:14.999Z</time></trkpt><trkpt lat="44.41264335208922" lon="8.92692154888971"><ele>16.0</ele><time>2026-05-02T16:56:15.999Z</time></trkpt><trkpt lat="44.412753102994515" lon="8.926800456886015"><ele>16.0</ele><time>2026-05-02T16:56:16.999Z</time></trkpt><trkpt lat="44.41285957522692" lon="8.926673903734162"><ele>16.0</ele><time>2026-05-02T16:56:17.999Z</time></trkpt><trkpt lat="44.412961385149075" lon="8.926539520828257"><ele>16.0</ele><time>2026-05-02T16:56:18.999Z</time></trkpt><trkpt lat="44.41305929731097" lon="8.926400508213497"><ele>15.25</ele><time>2026-05-02T16:56:19.999Z</time></trkpt><trkpt lat="44.41315603501443" lon="8.926260305646112"><ele>14.5</ele><time>2026-05-02T16:56:20.999Z</time></trkpt><trkpt lat="44.41324914322961" lon="8.926113567172296"><ele>13.75</ele><time>2026-05-02T16:56:21.999Z</time></trkpt><trkpt lat="44.413339790492934" lon="8.925963291906635"><ele>13.0</ele><time>2026-05-02T16:56:23Z</time></trkpt><trkpt lat="44.41343116389596" lon="8.925814585180136"><ele>11.25</ele><time>2026-05-02T16:56:24Z</time></trkpt><trkpt lat="44.413523620612835" lon="8.92566640100569"><ele>9.5</ele><time>2026-05-02T16:56:25Z</time></trkpt><trkpt lat="44.41361517114892" lon="8.925518878794998"><ele>7.75</ele><time>2026-05-02T16:56:26Z</time></trkpt><trkpt lat="44.413707553247264" lon="8.92537254710811"><ele>6.0</ele><time>2026-05-02T16:56:27Z</time></trkpt><trkpt lat="44.41379982956087" lon="8.925226497528717"><ele>6.5</ele><time>2026-05-02T16:56:28Z</time></trkpt><trkpt lat="44.41389307325914" lon="8.92508113923969"><ele>7.0</ele><time>2026-05-02T16:56:29Z</time></trkpt><trkpt lat="44.413984616491305" lon="8.924933541773111"><ele>7.5</ele><time>2026-05-02T16:56:30Z</time></trkpt><trkpt lat="44.41407599268047" lon="8.924786310296456"><ele>8.0</ele><time>2026-05-02T16:56:31Z</time></trkpt><trkpt lat="44.414167373712495" lon="8.924640052263952"><ele>8.0</ele><time>2026-05-02T16:56:32Z</time></trkpt><trkpt lat="44.41425961568415" lon="8.924492899481418"><ele>8.0</ele><time>2026-05-02T16:56:33Z</time></trkpt><trkpt lat="44.414350380808244" lon="8.924346780990447"><ele>8.0</ele><time>2026-05-02T16:56:34Z</time></trkpt><trkpt lat="44.41444235521058" lon="8.924199895111219"><ele>8.0</ele><time>2026-05-02T16:56:35Z</time></trkpt><trkpt lat="44.414534246120326" lon="8.924053157377962"><ele>7.25</ele><time>2026-05-02T16:56:36Z</time></trkpt><trkpt lat="44.41462348264562" lon="8.923900834354704"><ele>6.5</ele><time>2026-05-02T16:56:37Z</time></trkpt><trkpt lat="44.414707943685315" lon="8.923742794272156"><ele>5.75</ele><time>2026-05-02T16:56:38Z</time></trkpt><trkpt lat="44.41478582613719" lon="8.923580209522422"><ele>5.0</ele><time>2026-05-02T16:56:39Z</time></trkpt><trkpt lat="44.414860409269565" lon="8.923413079580632"><ele>6.25</ele><time>2026-05-02T16:56:40Z</time></trkpt><trkpt lat="44.414930564617585" lon="8.923244609326717"><ele>7.5</ele><time>2026-05-02T16:56:41Z</time></trkpt><trkpt lat="44.41499481492631" lon="8.923073997857676"><ele>8.75</ele><time>2026-05-02T16:56:42Z</time></trkpt><trkpt lat="44.415055573373365" lon="8.922904661531497"><ele>10.0</ele><time>2026-05-02T16:56:43Z</time></trkpt><trkpt lat="44.41511084128273" lon="8.922735186536038"><ele>9.25</ele><time>2026-05-02T16:56:44Z</time></trkpt><trkpt lat="44.41516176892378" lon="8.922562451300141"><ele>8.5</ele><time>2026-05-02T16:56:45Z</time></trkpt><trkpt lat="44.41520836542501" lon="8.922385813543242"><ele>7.75</ele><time>2026-05-02T16:56:46Z</time></trkpt><trkpt lat="44.41525092613712" lon="8.922201474840348"><ele>7.0</ele><time>2026-05-02T16:56:47Z</time></trkpt><trkpt lat="44.415290657024926" lon="8.922014447759679"><ele>7.0</ele><time>2026-05-02T16:56:48Z</time></trkpt><trkpt lat="44.415325202164205" lon="8.921825539958592"><ele>7.0</ele><time>2026-05-02T16:56:49Z</time></trkpt><trkpt lat="44.41535624941445" lon="8.921633489476363"><ele>7.0</ele><time>2026-05-02T16:56:50Z</time></trkpt><trkpt lat="44.41538440494952" lon="8.92144120924226"><ele>7.0</ele><time>2026-05-02T16:56:51Z</time></trkpt><trkpt lat="44.415409465695525" lon="8.921247288204322"><ele>7.25</ele><time>2026-05-02T16:56:52Z</time></trkpt><trkpt lat="44.41543138086613" lon="8.921053331882355"><ele>7.5</ele><time>2026-05-02T16:56:53Z</time></trkpt><trkpt lat="44.41544145122154" lon="8.92086098342674"><ele>7.75</ele><time>2026-05-02T16:56:54Z</time></trkpt><trkpt lat="44.41543791999652" lon="8.920679322403922"><ele>8.0</ele><time>2026-05-02T16:56:55Z</time></trkpt><trkpt lat="44.415424214423474" lon="8.920511581100994"><ele>8.5</ele><time>2026-05-02T16:56:56Z</time></trkpt><trkpt lat="44.41540032128109" lon="8.920349301186468"><ele>9.0</ele><time>2026-05-02T16:56:57Z</time></trkpt><trkpt lat="44.415370616295" lon="8.920184062540631"><ele>9.5</ele><time>2026-05-02T16:56:58Z</time></trkpt><trkpt lat="44.415333979111495" lon="8.920011142677353"><ele>10.0</ele><time>2026-05-02T16:56:59Z</time></trkpt><trkpt lat="44.415293284561514" lon="8.919822941252441"><ele>9.0</ele><time>2026-05-02T16:57:00Z</time></trkpt><trkpt lat="44.41525260079923" lon="8.919626868950784"><ele>8.0</ele><time>2026-05-02T16:57:01Z</time></trkpt><trkpt lat="44.415213329577035" lon="8.919435749025533"><ele>7.0</ele><time>2026-05-02T16:57:02Z</time></trkpt><trkpt lat="44.41517306381078" lon="8.919245871423369"><ele>6.0</ele><time>2026-05-02T16:57:03Z</time></trkpt><trkpt lat="44.41513290956975" lon="8.919058658030918"><ele>6.0</ele><time>2026-05-02T16:57:04Z</time></trkpt><trkpt lat="44.4150941703372" lon="8.918870158345634"><ele>6.0</ele><time>2026-05-02T16:57:05Z</time></trkpt><trkpt lat="44.41505770837357" lon="8.91868125469236"><ele>6.0</ele><time>2026-05-02T16:57:06Z</time></trkpt><trkpt lat="44.415024119441654" lon="8.918491183249838"><ele>6.0</ele><time>2026-05-02T16:57:07Z</time></trkpt><trkpt lat="44.41499412628791" lon="8.918300171327969"><ele>6.25</ele><time>2026-05-02T16:57:08Z</time></trkpt><trkpt lat="44.414968562458384" lon="8.91810752402672"><ele>6.5</ele><time>2026-05-02T16:57:09Z</time></trkpt><trkpt lat="44.41494348677509" lon="8.917915744227209"><ele>6.75</ele><time>2026-05-02T16:57:10Z</time></trkpt><trkpt lat="44.41491385393428" lon="8.917726519287138"><ele>7.0</ele><time>2026-05-02T16:57:11Z</time></trkpt><trkpt lat="44.414880090494876" lon="8.917538526129468"><ele>7.0</ele><time>2026-05-02T16:57:12Z</time></trkpt><trkpt lat="44.414846447769975" lon="8.917349958955041"><ele>7.0</ele><time>2026-05-02T16:57:13Z</time></trkpt><trkpt lat="44.414809394808366" lon="8.917161492012637"><ele>7.0</ele><time>2026-05-02T16:57:14Z</time></trkpt><trkpt lat="44.41477140037776" lon="8.916972716133241"><ele>7.0</ele><time>2026-05-02T16:57:15Z</time></trkpt><trkpt lat="44.414734339453574" lon="8.916783548959586"><ele>7.5</ele><time>2026-05-02T16:57:16Z</time></trkpt><trkpt lat="44.41469667935102" lon="8.916593520933466"><ele>8.0</ele><time>2026-05-02T16:57:17Z</time></trkpt><trkpt lat="44.41466104334254" lon="8.916403416528295"><ele>8.5</ele><time>2026-05-02T16:57:18Z</time></trkpt><trkpt lat="44.41462874282284" lon="8.916212683220875"><ele>9.0</ele><time>2026-05-02T16:57:19Z</time></trkpt><trkpt lat="44.414599082584736" lon="8.91602090957839"><ele>7.0</ele><time>2026-05-02T16:57:20Z</time></trkpt><trkpt lat="44.41457222504345" lon="8.915828898456548"><ele>5.0</ele><time>2026-05-02T16:57:21Z</time></trkpt><trkpt lat="44.4145487543112" lon="8.915635620083576"><ele>3.0</ele><time>2026-05-02T16:57:22Z</time></trkpt><trkpt lat="44.41452719343812" lon="8.915442155480768"><ele>1.0</ele><time>2026-05-02T16:57:23Z</time></trkpt><trkpt lat="44.414508858631145" lon="8.915249690833102"><ele>1.0</ele><time>2026-05-02T16:57:24Z</time></trkpt><trkpt lat="44.41449205223323" lon="8.915057521658348"><ele>1.0</ele><time>2026-05-02T16:57:25Z</time></trkpt><trkpt lat="44.41447671251326" lon="8.91486302591071"><ele>1.0</ele><time>2026-05-02T16:57:26Z</time></trkpt><trkpt lat="44.41445682845674" lon="8.914669813051608"><ele>1.0</ele><time>2026-05-02T16:57:27Z</time></trkpt><trkpt lat="44.41442932603893" lon="8.914477577324229"><ele>1.0</ele><time>2026-05-02T16:57:28Z</time></trkpt><trkpt lat="44.41439101165346" lon="8.914290156001577"><ele>1.0</ele><time>2026-05-02T16:57:29Z</time></trkpt><trkpt lat="44.41433994709452" lon="8.914108315206857"><ele>1.0</ele><time>2026-05-02T16:57:30Z</time></trkpt><trkpt lat="44.41428637850219" lon="8.913928103478398"><ele>1.0</ele><time>2026-05-02T16:57:31Z</time></trkpt><trkpt lat="44.41422892475324" lon="8.913749668902941"><ele>2.0</ele><time>2026-05-02T16:57:32Z</time></trkpt><trkpt lat="44.41416794863888" lon="8.913575920977298"><ele>3.0</ele><time>2026-05-02T16:57:33Z</time></trkpt><trkpt lat="44.41410608647114" lon="8.913404884917599"><ele>4.0</ele><time>2026-05-02T16:57:34Z</time></trkpt><trkpt lat="44.41404686576945" lon="8.91323373245384"><ele>5.0</ele><time>2026-05-02T16:57:35Z</time></trkpt><trkpt lat="44.41398717628819" lon="8.913064345615705"><ele>5.5</ele><time>2026-05-02T16:57:36Z</time></trkpt><trkpt lat="44.413917759788696" lon="8.912898036626979"><ele>6.0</ele><time>2026-05-02T16:57:37Z</time></trkpt><trkpt lat="44.41384197309197" lon="8.912733628871596"><ele>6.5</ele><time>2026-05-02T16:57:38Z</time></trkpt><trkpt lat="44.413765965625196" lon="8.912570656896598"><ele>7.0</ele><time>2026-05-02T16:57:39Z</time></trkpt><trkpt lat="44.41368905930618" lon="8.912405962636873"><ele>5.5</ele><time>2026-05-02T16:57:40Z</time></trkpt><trkpt lat="44.413612197976164" lon="8.91224015524935"><ele>4.0</ele><time>2026-05-02T16:57:41Z</time></trkpt><trkpt lat="44.413535833932734" lon="8.91207544131999"><ele>2.5</ele><time>2026-05-02T16:57:42Z</time></trkpt><trkpt lat="44.413462414626075" lon="8.911908937747308"><ele>1.0</ele><time>2026-05-02T16:57:43Z</time></trkpt><trkpt lat="44.4133888491603" lon="8.911741147282395"><ele>1.25</ele><time>2026-05-02T16:57:44Z</time></trkpt><trkpt lat="44.4133114914833" lon="8.911578229617614"><ele>1.5</ele><time>2026-05-02T16:57:45Z</time></trkpt><trkpt lat="44.41323467709482" lon="8.911416312577627"><ele>1.75</ele><time>2026-05-02T16:57:46Z</time></trkpt><trkpt lat="44.41316006092296" lon="8.911250820497026"><ele>2.0</ele><time>2026-05-02T16:57:47Z</time></trkpt><trkpt lat="44.41308463176059" lon="8.911085562423729"><ele>2.0</ele><time>2026-05-02T16:57:48Z</time></trkpt><trkpt lat="44.41300915254946" lon="8.910920637600663"><ele>2.0</ele><time>2026-05-02T16:57:49Z</time></trkpt><trkpt lat="44.4129325062244" lon="8.91075646713096"><ele>2.0</ele><time>2026-05-02T16:57:50Z</time></trkpt><trkpt lat="44.412855335680206" lon="8.910592844387255"><ele>2.0</ele><time>2026-05-02T16:57:51Z</time></trkpt><trkpt lat="44.412777680116044" lon="8.910429841412599"><ele>2.5</ele><time>2026-05-02T16:57:52Z</time></trkpt><trkpt lat="44.41269712357611" lon="8.910272624019122"><ele>3.0</ele><time>2026-05-02T16:57:53Z</time></trkpt><trkpt lat="44.41261378097132" lon="8.910122542022881"><ele>3.5</ele><time>2026-05-02T16:57:54Z</time></trkpt><trkpt lat="44.41252727577963" lon="8.909981178542656"><ele>4.0</ele><time>2026-05-02T16:57:55Z</time></trkpt><trkpt lat="44.4124368533398" lon="8.909852481057484"><ele>3.75</ele><time>2026-05-02T16:57:56Z</time></trkpt><trkpt lat="44.41234604437105" lon="8.909723666357701"><ele>3.5</ele><time>2026-05-02T16:57:57Z</time></trkpt><trkpt lat="44.41222002895054" lon="8.909609091680483"><ele>3.25</ele><time>2026-05-02T16:57:58Z</time></trkpt><trkpt lat="44.41210907001081" lon="8.909498646078234"><ele>3.0</ele><time>2026-05-02T16:57:59Z</time></trkpt><trkpt lat="44.41199217778926" lon="8.90938031467771"><ele>3.0</ele><time>2026-05-02T16:58:00Z</time></trkpt><trkpt lat="44.41188072515697" lon="8.90927601890833"><ele>3.0</ele><time>2026-05-02T16:58:01Z</time></trkpt><trkpt lat="44.411767974748834" lon="8.90915218884302"><ele>3.0</ele><time>2026-05-02T16:58:02Z</time></trkpt><trkpt lat="44.41165903775827" lon="8.909017047469758"><ele>3.0</ele><time>2026-05-02T16:58:03Z</time></trkpt><trkpt lat="44.41155856383098" lon="8.90888538509982"><ele>4.25</ele><time>2026-05-02T16:58:04Z</time></trkpt><trkpt lat="44.41146452865006" lon="8.908743052971232"><ele>5.5</ele><time>2026-05-02T16:58:05Z</time></trkpt><trkpt lat="44.41137664606751" lon="8.908596828717224"><ele>6.75</ele><time>2026-05-02T16:58:06Z</time></trkpt><trkpt lat="44.41129310370317" lon="8.908442401891845"><ele>8.0</ele><time>2026-05-02T16:58:07Z</time></trkpt><trkpt lat="44.411215136349696" lon="8.908276796875725"><ele>8.5</ele><time>2026-05-02T16:58:08Z</time></trkpt><trkpt lat="44.411142841784866" lon="8.908114219122043"><ele>9.0</ele><time>2026-05-02T16:58:09Z</time></trkpt><trkpt lat="44.41107178167051" lon="8.907945339688284"><ele>9.5</ele><time>2026-05-02T16:58:10Z</time></trkpt><trkpt lat="44.41100925725074" lon="8.907766659048754"><ele>10.0</ele><time>2026-05-02T16:58:11Z</time></trkpt><trkpt lat="44.41095458877147" lon="8.90758868793986"><ele>10.25</ele><time>2026-05-02T16:58:12Z</time></trkpt><trkpt lat="44.41089519651588" lon="8.90741581774659"><ele>10.5</ele><time>2026-05-02T16:58:13Z</time></trkpt><trkpt lat="44.410839798010926" lon="8.907237527089045"><ele>10.75</ele><time>2026-05-02T16:58:14Z</time></trkpt><trkpt lat="44.41079057755373" lon="8.907057874008682"><ele>11.0</ele><time>2026-05-02T16:58:15Z</time></trkpt><trkpt lat="44.41074664302543" lon="8.90688126406486"><ele>12.0</ele><time>2026-05-02T16:58:16Z</time></trkpt><trkpt lat="44.41070499217385" lon="8.906692184198992"><ele>13.0</ele><time>2026-05-02T16:58:17Z</time></trkpt><trkpt lat="44.410658753499725" lon="8.906524615414599"><ele>14.0</ele><time>2026-05-02T16:58:18Z</time></trkpt><trkpt lat="44.41062067393965" lon="8.906368798267794"><ele>15.0</ele><time>2026-05-02T16:58:19Z</time></trkpt><trkpt lat="44.41058135173245" lon="8.906214361142247"><ele>15.0</ele><time>2026-05-02T16:58:20Z</time></trkpt><trkpt lat="44.41053792822951" lon="8.906071848757206"><ele>15.0</ele><time>2026-05-02T16:58:21Z</time></trkpt><trkpt lat="44.41049941680088" lon="8.905936375709965"><ele>15.0</ele><time>2026-05-02T16:58:22Z</time></trkpt><trkpt lat="44.410463652656844" lon="8.905802124127115"><ele>15.0</ele><time>2026-05-02T16:58:23Z</time></trkpt><trkpt lat="44.41042616476896" lon="8.905680122043625"><ele>15.0</ele><time>2026-05-02T16:58:24Z</time></trkpt><trkpt lat="44.410389206260916" lon="8.905539819496862"><ele>14.8</ele><time>2026-05-02T16:58:25Z</time></trkpt><trkpt lat="44.41034559466526" lon="8.905397688483053"><ele>14.6</ele><time>2026-05-02T16:58:26Z</time></trkpt><trkpt lat="44.41031129098339" lon="8.905256745975564"><ele>14.399999999999999</ele><time>2026-05-02T16:58:27Z</time></trkpt><trkpt lat="44.41027867007692" lon="8.905124049536274"><ele>14.2</ele><time>2026-05-02T16:58:28Z</time></trkpt><trkpt lat="44.410250810228625" lon="8.904994382944398"><ele>14.0</ele><time>2026-05-02T16:58:29Z</time></trkpt><trkpt lat="44.410225603889955" lon="8.904865085312611"><ele>14.0</ele><time>2026-05-02T16:58:30Z</time></trkpt><trkpt lat="44.41020141418318" lon="8.904737845387888"><ele>13.999999999999998</ele><time>2026-05-02T16:58:31Z</time></trkpt><trkpt lat="44.41017964027504" lon="8.904607352405497"><ele>13.999999999999998</ele><time>2026-05-02T16:58:32Z</time></trkpt><trkpt lat="44.410158522250754" lon="8.904467045213506"><ele>14.0</ele><time>2026-05-02T16:58:33Z</time></trkpt><trkpt lat="44.410128167106855" lon="8.904319178850793"><ele>14.0</ele><time>2026-05-02T16:58:34Z</time></trkpt><trkpt lat="44.41008291212297" lon="8.9041718445051"><ele>14.6</ele><time>2026-05-02T16:58:35Z</time></trkpt><trkpt lat="44.41003485166207" lon="8.904010120049167"><ele>15.2</ele><time>2026-05-02T16:58:36Z</time></trkpt><trkpt lat="44.4100248876819" lon="8.903907858070859"><ele>15.799999999999999</ele><time>2026-05-02T16:58:37Z</time></trkpt><trkpt lat="44.41001396874551" lon="8.903750464081567"><ele>16.4</ele><time>2026-05-02T16:58:38Z</time></trkpt><trkpt lat="44.41002545181055" lon="8.903593882862863"><ele>17.0</ele><time>2026-05-02T16:58:39Z</time></trkpt><trkpt lat="44.41005647348254" lon="8.90344898193305"><ele>19.75</ele><time>2026-05-02T16:58:40Z</time></trkpt><trkpt lat="44.4100947978246" lon="8.90330255462162"><ele>22.5</ele><time>2026-05-02T16:58:41Z</time></trkpt><trkpt lat="44.410134178006786" lon="8.903154300670078"><ele>25.25</ele><time>2026-05-02T16:58:42Z</time></trkpt><trkpt lat="44.41016469558596" lon="8.902996006821338"><ele>28.0</ele><time>2026-05-02T16:58:43Z</time></trkpt><trkpt lat="44.41020121655667" lon="8.902843632399067"><ele>28.0</ele><time>2026-05-02T16:58:44Z</time></trkpt><trkpt lat="44.41023993621928" lon="8.902702622317419"><ele>28.0</ele><time>2026-05-02T16:58:45Z</time></trkpt><trkpt lat="44.41026995134322" lon="8.902550772779806"><ele>28.0</ele><time>2026-05-02T16:58:46Z</time></trkpt><trkpt lat="44.410298119839275" lon="8.902397269653145"><ele>28.0</ele><time>2026-05-02T16:58:47Z</time></trkpt><trkpt lat="44.41029614358114" lon="8.902212851281625"><ele>26.25</ele><time>2026-05-02T16:58:48Z</time></trkpt><trkpt lat="44.410278754808104" lon="8.902027565949304"><ele>24.5</ele><time>2026-05-02T16:58:49Z</time></trkpt><trkpt lat="44.41026451791238" lon="8.901840744007826"><ele>22.75</ele><time>2026-05-02T16:58:50Z</time></trkpt><trkpt lat="44.41026275459458" lon="8.901687668148355"><ele>21.0</ele><time>2026-05-02T16:58:51Z</time></trkpt><trkpt lat="44.4102492222773" lon="8.901507652154008"><ele>21.0</ele><time>2026-05-02T16:58:52Z</time></trkpt><trkpt lat="44.41023184393488" lon="8.90134189161025"><ele>21.0</ele><time>2026-05-02T16:58:53Z</time></trkpt><trkpt lat="44.410228284549476" lon="8.901188120460754"><ele>21.0</ele><time>2026-05-02T16:58:54Z</time></trkpt><trkpt lat="44.41024425046095" lon="8.901028206532343"><ele>21.0</ele><time>2026-05-02T16:58:55Z</time></trkpt><trkpt lat="44.41028729366858" lon="8.900870319901752"><ele>21.6</ele><time>2026-05-02T16:58:56Z</time></trkpt><trkpt lat="44.41034392754899" lon="8.900737080055013"><ele>22.200000000000003</ele><time>2026-05-02T16:58:57Z</time></trkpt><trkpt lat="44.41041401785504" lon="8.900622872589542"><ele>22.799999999999997</ele><time>2026-05-02T16:58:58Z</time></trkpt><trkpt lat="44.41048792294502" lon="8.9005111493002"><ele>23.4</ele><time>2026-05-02T16:58:59Z</time></trkpt><trkpt lat="44.410553011900426" lon="8.900430573416473"><ele>24.0</ele><time>2026-05-02T16:59:00Z</time></trkpt><trkpt lat="44.41062859571338" lon="8.900389925701711"><ele>24.0</ele><time>2026-05-02T16:59:01Z</time></trkpt><trkpt lat="44.410700174717114" lon="8.900387159309187"><ele>24.0</ele><time>2026-05-02T16:59:02Z</time></trkpt><trkpt lat="44.41079649380927" lon="8.900460999874063"><ele>24.0</ele><time>2026-05-02T16:59:04Z</time></trkpt><trkpt lat="44.41083925349766" lon="8.900558746374806"><ele>24.0</ele><time>2026-05-02T16:59:05Z</time></trkpt><trkpt lat="44.41085100866259" lon="8.90066428129077"><ele>24.0</ele><time>2026-05-02T16:59:06Z</time></trkpt><trkpt lat="44.41083754945956" lon="8.900769051299093"><ele>24.0</ele><time>2026-05-02T16:59:07Z</time></trkpt><trkpt lat="44.41082266402502" lon="8.900874906013453"><ele>24.0</ele><time>2026-05-02T16:59:08Z</time></trkpt><trkpt lat="44.41081026186261" lon="8.900971157463017"><ele>24.0</ele><time>2026-05-02T16:59:09Z</time></trkpt><trkpt lat="44.41079519679345" lon="8.901115869286988"><ele>24.0</ele><time>2026-05-02T16:59:11Z</time></trkpt><trkpt lat="44.41077128272382" lon="8.901255469817583"><ele>24.0</ele><time>2026-05-02T16:59:13Z</time></trkpt><trkpt lat="44.41075925040092" lon="8.901388392183524"><ele>24.0</ele><time>2026-05-02T16:59:15Z</time></trkpt><trkpt lat="44.41074778979622" lon="8.901484839309015"><ele>24.0</ele><time>2026-05-02T16:59:17Z</time></trkpt><trkpt lat="44.41075448793571" lon="8.90161113414855"><ele>25.2</ele><time>2026-05-02T16:59:19Z</time></trkpt><trkpt lat="44.41074602469489" lon="8.901751633921481"><ele>26.4</ele><time>2026-05-02T16:59:20Z</time></trkpt><trkpt lat="44.41075090669204" lon="8.901902778368397"><ele>27.6</ele><time>2026-05-02T16:59:21Z</time></trkpt><trkpt lat="44.4107819303161" lon="8.90203330776273"><ele>28.8</ele><time>2026-05-02T16:59:22Z</time></trkpt><trkpt lat="44.41082464796669" lon="8.9021490948723"><ele>30.0</ele><time>2026-05-02T16:59:23Z</time></trkpt><trkpt lat="44.41087411912896" lon="8.902240895392818"><ele>30.0</ele><time>2026-05-02T16:59:24Z</time></trkpt><trkpt lat="44.41092870605204" lon="8.902294330049255"><ele>30.0</ele><time>2026-05-02T16:59:25Z</time></trkpt><trkpt lat="44.41101914327582" lon="8.902365178614536"><ele>30.0</ele><time>2026-05-02T16:59:27Z</time></trkpt><trkpt lat="44.41111751144306" lon="8.902211580552406"><ele>30.0</ele><time>2026-05-02T16:59:29Z</time></trkpt><trkpt lat="44.41116874575238" lon="8.902122043054192"><ele>30.0</ele><time>2026-05-02T16:59:30Z</time></trkpt><trkpt lat="44.41122449886279" lon="8.902035334797942"><ele>30.0</ele><time>2026-05-02T16:59:31Z</time></trkpt><trkpt lat="44.4112888903102" lon="8.901979585000435"><ele>30.0</ele><time>2026-05-02T16:59:32Z</time></trkpt><trkpt lat="44.41128060622762" lon="8.901849810052054"><ele>30.0</ele><time>2026-05-02T16:59:33Z</time></trkpt><trkpt lat="44.41127290422582" lon="8.901739659208182"><ele>30.0</ele><time>2026-05-02T16:59:35Z</time></trkpt><trkpt lat="44.41130246062811" lon="8.901610954498025"><ele>30.0</ele><time>2026-05-02T17:00:19Z</time></trkpt><trkpt lat="44.41121197157712" lon="8.90153606012029"><ele>29.0</ele><time>2026-05-02T17:00:21Z</time></trkpt><trkpt lat="44.41114576460532" lon="8.901526842138773"><ele>28.0</ele><time>2026-05-02T17:00:23Z</time></trkpt><trkpt lat="44.41106652529227" lon="8.90153123389841"><ele>27.0</ele><time>2026-05-02T17:00:26Z</time></trkpt><trkpt lat="44.41100144160952" lon="8.90153484113893"><ele>26.0</ele><time>2026-05-02T17:00:29Z</time></trkpt><trkpt lat="44.410905379726046" lon="8.901540338730367"><ele>25.0</ele><time>2026-05-02T17:00:31Z</time></trkpt><trkpt lat="44.410782683608126" lon="8.901629981091606"><ele>24.0</ele><time>2026-05-02T17:00:33Z</time></trkpt><trkpt lat="44.41077877425605" lon="8.901722257556598"><ele>25.5</ele><time>2026-05-02T17:00:36Z</time></trkpt><trkpt lat="44.41078407695313" lon="8.901831167435812"><ele>27.0</ele><time>2026-05-02T17:00:43Z</time></trkpt><trkpt lat="44.41079570214368" lon="8.901925701193806"><ele>28.5</ele><time>2026-05-02T17:00:49Z</time></trkpt><trkpt lat="44.4108169830685" lon="8.902021785942319"><ele>30.0</ele><time>2026-05-02T17:00:54Z</time></trkpt><trkpt lat="44.41128936218291" lon="8.90177441581615"><ele>27.0</ele><time>2026-05-02T17:01:26.85Z</time></trkpt><trkpt lat="44.41112534131692" lon="8.901691203718379"><ele>24.0</ele><time>2026-05-02T17:01:43.808Z</time></trkpt><trkpt lat="44.4105753577834" lon="8.901440308872397"><ele>24.0</ele><time>2026-05-02T17:06:23.262Z</time></trkpt><trkpt lat="44.41079993047774" lon="8.901707557277"><ele>24.0</ele><time>2026-05-02T17:06:26.998Z</time></trkpt><trkpt lat="44.41082654845274" lon="8.901611825068471"><ele>24.0</ele><time>2026-05-02T17:06:27.998Z</time></trkpt><trkpt lat="44.410752876689884" lon="8.90166833241334"><ele>24.857142857142854</ele><time>2026-05-02T17:06:37.001Z</time></trkpt><trkpt lat="44.41075164175676" lon="8.90177022088741"><ele>25.714285714285715</ele><time>2026-05-02T17:06:38.001Z</time></trkpt><trkpt lat="44.41075901315377" lon="8.901868720624206"><ele>26.57142857142857</ele><time>2026-05-02T17:06:39.001Z</time></trkpt><trkpt lat="44.41078422198935" lon="8.90199292152179"><ele>27.428571428571427</ele><time>2026-05-02T17:06:40.001Z</time></trkpt><trkpt lat="44.41080561348783" lon="8.902094304691689"><ele>28.285714285714285</ele><time>2026-05-02T17:06:41.001Z</time></trkpt><trkpt lat="44.41082176065711" lon="8.902182836706821"><ele>29.142857142857142</ele><time>2026-05-02T17:06:42.001Z</time></trkpt><trkpt lat="44.4108369406103" lon="8.902271437233086"><ele>30.0</ele><time>2026-05-02T17:06:43.001Z</time></trkpt><trkpt lat="44.410813634743796" lon="8.902366191290254"><ele>30.0</ele><time>2026-05-02T17:06:46.001Z</time></trkpt><trkpt lat="44.41073576048796" lon="8.902376680701721"><ele>30.0</ele><time>2026-05-02T17:07:22Z</time></trkpt><trkpt lat="44.41066374496472" lon="8.902260887400734"><ele>30.0</ele><time>2026-05-02T17:07:24Z</time></trkpt><trkpt lat="44.41065767492235" lon="8.902141780170755"><ele>30.0</ele><time>2026-05-02T17:07:25Z</time></trkpt><trkpt lat="44.4106633929502" lon="8.90200014406618"><ele>30.0</ele><time>2026-05-02T17:07:26Z</time></trkpt><trkpt lat="44.41066679223744" lon="8.901843590023763"><ele>28.5</ele><time>2026-05-02T17:07:27Z</time></trkpt><trkpt lat="44.41066489962477" lon="8.901672078097903"><ele>27.0</ele><time>2026-05-02T17:07:28Z</time></trkpt><trkpt lat="44.410659690939525" lon="8.901487991592967"><ele>25.5</ele><time>2026-05-02T17:07:29Z</time></trkpt><trkpt lat="44.41065364191243" lon="8.901313252279497"><ele>24.0</ele><time>2026-05-02T17:07:30Z</time></trkpt><trkpt lat="44.410649323363586" lon="8.901149106488381"><ele>24.0</ele><time>2026-05-02T17:07:31Z</time></trkpt><trkpt lat="44.41064132104988" lon="8.900996553248628"><ele>24.0</ele><time>2026-05-02T17:07:32Z</time></trkpt><trkpt lat="44.41063155232096" lon="8.900853809260672"><ele>24.0</ele><time>2026-05-02T17:07:33Z</time></trkpt><trkpt lat="44.41062319309368" lon="8.90072293560894"><ele>24.0</ele><time>2026-05-02T17:07:34Z</time></trkpt><trkpt lat="44.41062029718312" lon="8.900617100744833"><ele>24.0</ele><time>2026-05-02T17:07:35Z</time></trkpt><trkpt lat="44.4106229416736" lon="8.900519704403527"><ele>24.0</ele><time>2026-05-02T17:07:37Z</time></trkpt><trkpt lat="44.41062014017653" lon="8.90038985371738"><ele>24.0</ele><time>2026-05-02T17:07:57Z</time></trkpt><trkpt lat="44.41061056302605" lon="8.900285311069139"><ele>24.0</ele><time>2026-05-02T17:07:59Z</time></trkpt><trkpt lat="44.41060444409938" lon="8.900182450549732"><ele>24.0</ele><time>2026-05-02T17:08:01Z</time></trkpt><trkpt lat="44.41061071879951" lon="8.90002405629747"><ele>24.0</ele><time>2026-05-02T17:08:04Z</time></trkpt><trkpt lat="44.41059805168555" lon="8.899915072435943"><ele>24.0</ele><time>2026-05-02T17:08:06Z</time></trkpt><trkpt lat="44.41074732036228" lon="8.899820695007357"><ele>24.6</ele><time>2026-05-02T17:08:09Z</time></trkpt><trkpt lat="44.41084916493775" lon="8.899862507688265"><ele>25.2</ele><time>2026-05-02T17:08:11Z</time></trkpt><trkpt lat="44.41096980632555" lon="8.899909900762102"><ele>25.800000000000004</ele><time>2026-05-02T17:08:13Z</time></trkpt><trkpt lat="44.41104688990799" lon="8.89993623286477"><ele>26.400000000000002</ele><time>2026-05-02T17:08:14Z</time></trkpt><trkpt lat="44.411124611897854" lon="8.89997248420281"><ele>27.0</ele><time>2026-05-02T17:08:15Z</time></trkpt><trkpt lat="44.41120939515096" lon="8.900011958839846"><ele>27.0</ele><time>2026-05-02T17:08:16Z</time></trkpt><trkpt lat="44.41129922939537" lon="8.90004850115812"><ele>27.000000000000004</ele><time>2026-05-02T17:08:17Z</time></trkpt><trkpt lat="44.41139312219559" lon="8.900081003350216"><ele>27.000000000000004</ele><time>2026-05-02T17:08:18Z</time></trkpt><trkpt lat="44.411485955620186" lon="8.900111440623624"><ele>27.0</ele><time>2026-05-02T17:08:19Z</time></trkpt><trkpt lat="44.411571064116565" lon="8.900142017811415"><ele>27.0</ele><time>2026-05-02T17:08:20Z</time></trkpt><trkpt lat="44.41164902550553" lon="8.900174218450465"><ele>28.333333333333332</ele><time>2026-05-02T17:08:21Z</time></trkpt><trkpt lat="44.41172467210393" lon="8.90020557204076"><ele>29.666666666666664</ele><time>2026-05-02T17:08:22Z</time></trkpt><trkpt lat="44.411798402150424" lon="8.90023390541094"><ele>31.0</ele><time>2026-05-02T17:08:23Z</time></trkpt><trkpt lat="44.41186864094092" lon="8.900235764845755"><ele>32.33333333333333</ele><time>2026-05-02T17:08:24Z</time></trkpt><trkpt lat="44.41198243053126" lon="8.900283583439606"><ele>33.666666666666664</ele><time>2026-05-02T17:08:26Z</time></trkpt><trkpt lat="44.412060649616976" lon="8.900310608572438"><ele>35.0</ele><time>2026-05-02T17:08:28Z</time></trkpt><trkpt lat="44.41219059912792" lon="8.900365762191596"><ele>36.0</ele><time>2026-05-02T17:08:31Z</time></trkpt><trkpt lat="44.412274663759554" lon="8.900400169832798"><ele>37.0</ele><time>2026-05-02T17:08:32Z</time></trkpt><trkpt lat="44.41234369202142" lon="8.900428423045582"><ele>38.0</ele><time>2026-05-02T17:08:33Z</time></trkpt><trkpt lat="44.41242222354913" lon="8.900443045695814"><ele>39.0</ele><time>2026-05-02T17:08:34Z</time></trkpt><trkpt lat="44.41249331004377" lon="8.900473115341235"><ele>40.0</ele><time>2026-05-02T17:08:35Z</time></trkpt><trkpt lat="44.412585047255206" lon="8.900515081288168"><ele>41.0</ele><time>2026-05-02T17:08:37Z</time></trkpt><trkpt lat="44.41260729337386" lon="8.900636992401042"><ele>40.99999999999999</ele><time>2026-05-02T17:10:27Z</time></trkpt><trkpt lat="44.412541470124914" lon="8.9006253222387"><ele>41.0</ele><time>2026-05-02T17:10:36Z</time></trkpt><trkpt lat="44.41248039945586" lon="8.900602145112064"><ele>41.0</ele><time>2026-05-02T17:10:41Z</time></trkpt><trkpt lat="44.41241458558407" lon="8.9006061647199"><ele>41.0</ele><time>2026-05-02T17:10:45Z</time></trkpt><trkpt lat="44.41232930842845" lon="8.900631030068395"><ele>41.0</ele><time>2026-05-02T17:10:49Z</time></trkpt><trkpt lat="44.41228663907544" lon="8.900698797439915"><ele>40.99999999999999</ele><time>2026-05-02T17:10:53Z</time></trkpt><trkpt lat="44.412257083957705" lon="8.900778345281227"><ele>41.0</ele><time>2026-05-02T17:10:59Z</time></trkpt><trkpt lat="44.41218808189526" lon="8.900847608420886"><ele>39.8</ele><time>2026-05-02T17:11:04Z</time></trkpt><trkpt lat="44.41212249399078" lon="8.900858537280923"><ele>38.599999999999994</ele><time>2026-05-02T17:11:09Z</time></trkpt><trkpt lat="44.412067707295" lon="8.900810855730183"><ele>37.4</ele><time>2026-05-02T17:11:19Z</time></trkpt><trkpt lat="44.41207733808084" lon="8.900661627987388"><ele>36.2</ele><time>2026-05-02T17:11:22Z</time></trkpt><trkpt lat="44.41209643194897" lon="8.900505978546551"><ele>35.0</ele><time>2026-05-02T17:11:24Z</time></trkpt><trkpt lat="44.41206188270618" lon="8.900327541657534"><ele>35.0</ele><time>2026-05-02T17:12:14Z</time></trkpt><trkpt lat="44.412131526039445" lon="8.900287385922656"><ele>35.0</ele><time>2026-05-02T17:13:42Z</time></trkpt><trkpt lat="44.412197540642964" lon="8.90025191984884"><ele>35.0</ele><time>2026-05-02T17:13:47Z</time></trkpt><trkpt lat="44.41229374598142" lon="8.900256084435167"><ele>35.0</ele><time>2026-05-02T17:13:55Z</time></trkpt><trkpt lat="44.41230154182477" lon="8.900349431496542"><ele>35.0</ele><time>2026-05-02T17:14:00Z</time></trkpt><trkpt lat="44.41231411599631" lon="8.900438005276973"><ele>35.0</ele><time>2026-05-02T17:14:04Z</time></trkpt><trkpt lat="44.41236636095545" lon="8.900489134260054"><ele>35.0</ele><time>2026-05-02T17:14:19Z</time></trkpt><trkpt lat="44.41244155639051" lon="8.900516180266354"><ele>36.2</ele><time>2026-05-02T17:14:25Z</time></trkpt><trkpt lat="44.41243589829089" lon="8.900612422904857"><ele>37.4</ele><time>2026-05-02T17:14:53Z</time></trkpt><trkpt lat="44.412472452280014" lon="8.900689971401134"><ele>38.599999999999994</ele><time>2026-05-02T17:14:57Z</time></trkpt><trkpt lat="44.41252980747224" lon="8.900505037390595"><ele>39.8</ele><time>2026-05-02T17:15:34.368Z</time></trkpt><trkpt lat="44.412640926285256" lon="8.900592266631103"><ele>41.0</ele><time>2026-05-02T17:15:56.014Z</time></trkpt><trkpt lat="44.412557063855346" lon="8.900634477001278"><ele>41.0</ele><time>2026-05-02T17:16:18.012Z</time></trkpt><trkpt lat="44.41248600856065" lon="8.900736856109651"><ele>41.0</ele><time>2026-05-02T17:16:20.012Z</time></trkpt><trkpt lat="44.41243550968763" lon="8.900844505759757"><ele>41.0</ele><time>2026-05-02T17:16:24.012Z</time></trkpt><trkpt lat="44.41238402857515" lon="8.900947224915036"><ele>41.0</ele><time>2026-05-02T17:16:26.013Z</time></trkpt><trkpt lat="44.41234721636167" lon="8.901022701833053"><ele>41.0</ele><time>2026-05-02T17:16:28.013Z</time></trkpt><trkpt lat="44.41244184237205" lon="8.900932175231267"><ele>62.0</ele><time>2026-05-02T17:16:33.014Z</time></trkpt><trkpt lat="44.4125113409745" lon="8.900755474416442"><ele>41.0</ele><time>2026-05-02T17:16:34.012Z</time></trkpt><trkpt lat="44.41253666100552" lon="8.900661734043842"><ele>41.0</ele><time>2026-05-02T17:16:51Z</time></trkpt></trkseg></trk></gpx>